<?xml version="1.0" encoding="UTF-8" standalone="no" ?>
<gpx xmlns="http://www.topografix.com/GPX/1/1" xmlns:xsi="http://www.w3.org/2001/XMLSchema-instance" xsi:schemaLocation="http://www.topografix.com/GPX/1/1 http://www.topografix.com/GPX/1/1/gpx.xsd" version="1.1" creator="VisuGPX - https://www.visugpx.com">
  <metadata>
    <name>Puy Montencel </name>
  </metadata>
  <trk>
    <name><![CDATA[Puy Montencel _1]]></name>
    <trkseg>
      <trkpt lat="45.96194" lon="3.69413">
        <ele>972.1</ele>
        <time>2022-08-29T07:50:57Z</time>
      </trkpt>
      <trkpt lat="45.96194" lon="3.69412">
        <ele>972.1</ele>
        <time>2022-08-29T07:50:58Z</time>
      </trkpt>
      <trkpt lat="45.96194" lon="3.6941">
        <ele>972.2</ele>
        <time>2022-08-29T07:50:59Z</time>
      </trkpt>
      <trkpt lat="45.96194" lon="3.69409">
        <ele>972.2</ele>
        <time>2022-08-29T07:51:00Z</time>
      </trkpt>
      <trkpt lat="45.96194" lon="3.69407">
        <ele>972.3</ele>
        <time>2022-08-29T07:51:01Z</time>
      </trkpt>
      <trkpt lat="45.96193" lon="3.69405">
        <ele>972.3</ele>
        <time>2022-08-29T07:51:02Z</time>
      </trkpt>
      <trkpt lat="45.96192" lon="3.69404">
        <ele>972.4</ele>
        <time>2022-08-29T07:51:03Z</time>
      </trkpt>
      <trkpt lat="45.96191" lon="3.69402">
        <ele>972.4</ele>
        <time>2022-08-29T07:51:04Z</time>
      </trkpt>
      <trkpt lat="45.96188" lon="3.69399">
        <ele>972.4</ele>
        <time>2022-08-29T07:51:05Z</time>
      </trkpt>
      <trkpt lat="45.96187" lon="3.69398">
        <ele>972.4</ele>
        <time>2022-08-29T07:51:06Z</time>
      </trkpt>
      <trkpt lat="45.96184" lon="3.69395">
        <ele>972.5</ele>
        <time>2022-08-29T07:51:07Z</time>
      </trkpt>
      <trkpt lat="45.96183" lon="3.69394">
        <ele>972.5</ele>
        <time>2022-08-29T07:51:08Z</time>
      </trkpt>
      <trkpt lat="45.96181" lon="3.69391">
        <ele>972.6</ele>
        <time>2022-08-29T07:51:09Z</time>
      </trkpt>
      <trkpt lat="45.9618" lon="3.6939">
        <ele>972.6</ele>
        <time>2022-08-29T07:51:10Z</time>
      </trkpt>
      <trkpt lat="45.96177" lon="3.69387">
        <ele>972.7</ele>
        <time>2022-08-29T07:51:11Z</time>
      </trkpt>
      <trkpt lat="45.96177" lon="3.69386">
        <ele>972.7</ele>
        <time>2022-08-29T07:51:12Z</time>
      </trkpt>
      <trkpt lat="45.96176" lon="3.69385">
        <ele>972.7</ele>
        <time>2022-08-29T07:51:13Z</time>
      </trkpt>
      <trkpt lat="45.96175" lon="3.69384">
        <ele>972.8</ele>
        <time>2022-08-29T07:51:14Z</time>
      </trkpt>
      <trkpt lat="45.96174" lon="3.69383">
        <ele>972.8</ele>
        <time>2022-08-29T07:51:15Z</time>
      </trkpt>
      <trkpt lat="45.96174" lon="3.69383">
        <ele>972.8</ele>
        <time>2022-08-29T07:51:16Z</time>
      </trkpt>
      <trkpt lat="45.96174" lon="3.69382">
        <ele>972.8</ele>
        <time>2022-08-29T07:51:17Z</time>
      </trkpt>
      <trkpt lat="45.96174" lon="3.69382">
        <ele>972.8</ele>
        <time>2022-08-29T07:51:18Z</time>
      </trkpt>
      <trkpt lat="45.96174" lon="3.69382">
        <ele>972.8</ele>
        <time>2022-08-29T07:51:19Z</time>
      </trkpt>
      <trkpt lat="45.96175" lon="3.69381">
        <ele>972.8</ele>
        <time>2022-08-29T07:51:20Z</time>
      </trkpt>
      <trkpt lat="45.96175" lon="3.69382">
        <ele>972.8</ele>
        <time>2022-08-29T07:51:21Z</time>
      </trkpt>
      <trkpt lat="45.96176" lon="3.69382">
        <ele>972.9</ele>
        <time>2022-08-29T07:51:22Z</time>
      </trkpt>
      <trkpt lat="45.96176" lon="3.69382">
        <ele>972.9</ele>
        <time>2022-08-29T07:51:23Z</time>
      </trkpt>
      <trkpt lat="45.96176" lon="3.69383">
        <ele>972.9</ele>
        <time>2022-08-29T07:51:24Z</time>
      </trkpt>
      <trkpt lat="45.96176" lon="3.69383">
        <ele>972.9</ele>
        <time>2022-08-29T07:51:25Z</time>
      </trkpt>
      <trkpt lat="45.96173" lon="3.6938">
        <ele>973</ele>
        <time>2022-08-29T07:51:26Z</time>
      </trkpt>
      <trkpt lat="45.9617" lon="3.69378">
        <ele>973</ele>
        <time>2022-08-29T07:51:27Z</time>
      </trkpt>
      <trkpt lat="45.96169" lon="3.69377">
        <ele>973</ele>
        <time>2022-08-29T07:51:28Z</time>
      </trkpt>
      <trkpt lat="45.96167" lon="3.69374">
        <ele>973.1</ele>
        <time>2022-08-29T07:51:29Z</time>
      </trkpt>
      <trkpt lat="45.96166" lon="3.69374">
        <ele>973.1</ele>
        <time>2022-08-29T07:51:30Z</time>
      </trkpt>
      <trkpt lat="45.96164" lon="3.69373">
        <ele>973.2</ele>
        <time>2022-08-29T07:51:31Z</time>
      </trkpt>
      <trkpt lat="45.96163" lon="3.69372">
        <ele>973.2</ele>
        <time>2022-08-29T07:51:32Z</time>
      </trkpt>
      <trkpt lat="45.96161" lon="3.69371">
        <ele>973.2</ele>
        <time>2022-08-29T07:51:33Z</time>
      </trkpt>
      <trkpt lat="45.9616" lon="3.6937">
        <ele>973.3</ele>
        <time>2022-08-29T07:51:34Z</time>
      </trkpt>
      <trkpt lat="45.96156" lon="3.69369">
        <ele>973.3</ele>
        <time>2022-08-29T07:51:35Z</time>
      </trkpt>
      <trkpt lat="45.96155" lon="3.69368">
        <ele>973.4</ele>
        <time>2022-08-29T07:51:36Z</time>
      </trkpt>
      <trkpt lat="45.96154" lon="3.69368">
        <ele>973.4</ele>
        <time>2022-08-29T07:51:37Z</time>
      </trkpt>
      <trkpt lat="45.96152" lon="3.69368">
        <ele>973.5</ele>
        <time>2022-08-29T07:51:38Z</time>
      </trkpt>
      <trkpt lat="45.96151" lon="3.69368">
        <ele>973.5</ele>
        <time>2022-08-29T07:51:39Z</time>
      </trkpt>
      <trkpt lat="45.9615" lon="3.69367">
        <ele>973.5</ele>
        <time>2022-08-29T07:51:40Z</time>
      </trkpt>
      <trkpt lat="45.96149" lon="3.69366">
        <ele>973.6</ele>
        <time>2022-08-29T07:51:41Z</time>
      </trkpt>
      <trkpt lat="45.96148" lon="3.69366">
        <ele>973.6</ele>
        <time>2022-08-29T07:51:42Z</time>
      </trkpt>
      <trkpt lat="45.96147" lon="3.69364">
        <ele>973.7</ele>
        <time>2022-08-29T07:51:43Z</time>
      </trkpt>
      <trkpt lat="45.96146" lon="3.69363">
        <ele>973.7</ele>
        <time>2022-08-29T07:51:44Z</time>
      </trkpt>
      <trkpt lat="45.96145" lon="3.69361">
        <ele>973.8</ele>
        <time>2022-08-29T07:51:45Z</time>
      </trkpt>
      <trkpt lat="45.96144" lon="3.6936">
        <ele>973.8</ele>
        <time>2022-08-29T07:51:46Z</time>
      </trkpt>
      <trkpt lat="45.96143" lon="3.69359">
        <ele>973.9</ele>
        <time>2022-08-29T07:51:47Z</time>
      </trkpt>
      <trkpt lat="45.96143" lon="3.69359">
        <ele>973.9</ele>
        <time>2022-08-29T07:51:48Z</time>
      </trkpt>
      <trkpt lat="45.96142" lon="3.69358">
        <ele>973.9</ele>
        <time>2022-08-29T07:51:49Z</time>
      </trkpt>
      <trkpt lat="45.96142" lon="3.69359">
        <ele>973.9</ele>
        <time>2022-08-29T07:51:50Z</time>
      </trkpt>
      <trkpt lat="45.96141" lon="3.69359">
        <ele>974</ele>
        <time>2022-08-29T07:51:51Z</time>
      </trkpt>
      <trkpt lat="45.96141" lon="3.69359">
        <ele>974</ele>
        <time>2022-08-29T07:51:52Z</time>
      </trkpt>
      <trkpt lat="45.96139" lon="3.6936">
        <ele>974.1</ele>
        <time>2022-08-29T07:51:53Z</time>
      </trkpt>
      <trkpt lat="45.96138" lon="3.6936">
        <ele>974.1</ele>
        <time>2022-08-29T07:51:54Z</time>
      </trkpt>
      <trkpt lat="45.96137" lon="3.6936">
        <ele>974.2</ele>
        <time>2022-08-29T07:51:55Z</time>
      </trkpt>
      <trkpt lat="45.96136" lon="3.6936">
        <ele>974.2</ele>
        <time>2022-08-29T07:51:56Z</time>
      </trkpt>
      <trkpt lat="45.96134" lon="3.6936">
        <ele>974.3</ele>
        <time>2022-08-29T07:51:57Z</time>
      </trkpt>
      <trkpt lat="45.96133" lon="3.6936">
        <ele>974.4</ele>
        <time>2022-08-29T07:51:58Z</time>
      </trkpt>
      <trkpt lat="45.96131" lon="3.69359">
        <ele>974.5</ele>
        <time>2022-08-29T07:51:59Z</time>
      </trkpt>
      <trkpt lat="45.9613" lon="3.69359">
        <ele>974.5</ele>
        <time>2022-08-29T07:52:00Z</time>
      </trkpt>
      <trkpt lat="45.9613" lon="3.69359">
        <ele>974.5</ele>
        <time>2022-08-29T07:52:01Z</time>
      </trkpt>
      <trkpt lat="45.96128" lon="3.69358">
        <ele>974.6</ele>
        <time>2022-08-29T07:52:02Z</time>
      </trkpt>
      <trkpt lat="45.96127" lon="3.69357">
        <ele>974.7</ele>
        <time>2022-08-29T07:52:03Z</time>
      </trkpt>
      <trkpt lat="45.96126" lon="3.69356">
        <ele>974.8</ele>
        <time>2022-08-29T07:52:04Z</time>
      </trkpt>
      <trkpt lat="45.96125" lon="3.69354">
        <ele>974.8</ele>
        <time>2022-08-29T07:52:05Z</time>
      </trkpt>
      <trkpt lat="45.96123" lon="3.69352">
        <ele>975</ele>
        <time>2022-08-29T07:52:06Z</time>
      </trkpt>
      <trkpt lat="45.96122" lon="3.69351">
        <ele>975</ele>
        <time>2022-08-29T07:52:07Z</time>
      </trkpt>
      <trkpt lat="45.96122" lon="3.6935">
        <ele>975</ele>
        <time>2022-08-29T07:52:08Z</time>
      </trkpt>
      <trkpt lat="45.96121" lon="3.6935">
        <ele>975.1</ele>
        <time>2022-08-29T07:52:09Z</time>
      </trkpt>
      <trkpt lat="45.9612" lon="3.69348">
        <ele>975.2</ele>
        <time>2022-08-29T07:52:10Z</time>
      </trkpt>
      <trkpt lat="45.96119" lon="3.69348">
        <ele>975.2</ele>
        <time>2022-08-29T07:52:11Z</time>
      </trkpt>
      <trkpt lat="45.96118" lon="3.69346">
        <ele>975.3</ele>
        <time>2022-08-29T07:52:12Z</time>
      </trkpt>
      <trkpt lat="45.96118" lon="3.69345">
        <ele>975.3</ele>
        <time>2022-08-29T07:52:13Z</time>
      </trkpt>
      <trkpt lat="45.96117" lon="3.69344">
        <ele>975.4</ele>
        <time>2022-08-29T07:52:14Z</time>
      </trkpt>
      <trkpt lat="45.96117" lon="3.69343">
        <ele>975.4</ele>
        <time>2022-08-29T07:52:15Z</time>
      </trkpt>
      <trkpt lat="45.96116" lon="3.69343">
        <ele>975.4</ele>
        <time>2022-08-29T07:52:16Z</time>
      </trkpt>
      <trkpt lat="45.96116" lon="3.69342">
        <ele>975.5</ele>
        <time>2022-08-29T07:52:17Z</time>
      </trkpt>
      <trkpt lat="45.96115" lon="3.69342">
        <ele>975.5</ele>
        <time>2022-08-29T07:52:18Z</time>
      </trkpt>
      <trkpt lat="45.96115" lon="3.69342">
        <ele>975.5</ele>
        <time>2022-08-29T07:52:19Z</time>
      </trkpt>
      <trkpt lat="45.96114" lon="3.69341">
        <ele>975.5</ele>
        <time>2022-08-29T07:52:20Z</time>
      </trkpt>
      <trkpt lat="45.96113" lon="3.6934">
        <ele>975.6</ele>
        <time>2022-08-29T07:52:21Z</time>
      </trkpt>
      <trkpt lat="45.96113" lon="3.69339">
        <ele>975.6</ele>
        <time>2022-08-29T07:52:22Z</time>
      </trkpt>
      <trkpt lat="45.96113" lon="3.69338">
        <ele>975.7</ele>
        <time>2022-08-29T07:52:23Z</time>
      </trkpt>
      <trkpt lat="45.96113" lon="3.69337">
        <ele>975.7</ele>
        <time>2022-08-29T07:52:24Z</time>
      </trkpt>
      <trkpt lat="45.96112" lon="3.69336">
        <ele>975.8</ele>
        <time>2022-08-29T07:52:25Z</time>
      </trkpt>
      <trkpt lat="45.96113" lon="3.69333">
        <ele>975.9</ele>
        <time>2022-08-29T07:52:26Z</time>
      </trkpt>
      <trkpt lat="45.96113" lon="3.69332">
        <ele>975.9</ele>
        <time>2022-08-29T07:52:27Z</time>
      </trkpt>
      <trkpt lat="45.96114" lon="3.69331">
        <ele>975.9</ele>
        <time>2022-08-29T07:52:28Z</time>
      </trkpt>
      <trkpt lat="45.96114" lon="3.6933">
        <ele>976</ele>
        <time>2022-08-29T07:52:29Z</time>
      </trkpt>
      <trkpt lat="45.96115" lon="3.69327">
        <ele>976.1</ele>
        <time>2022-08-29T07:52:30Z</time>
      </trkpt>
      <trkpt lat="45.96114" lon="3.69325">
        <ele>976.1</ele>
        <time>2022-08-29T07:52:31Z</time>
      </trkpt>
      <trkpt lat="45.96114" lon="3.69323">
        <ele>976.2</ele>
        <time>2022-08-29T07:52:32Z</time>
      </trkpt>
      <trkpt lat="45.96113" lon="3.69321">
        <ele>976.3</ele>
        <time>2022-08-29T07:52:33Z</time>
      </trkpt>
      <trkpt lat="45.96112" lon="3.69319">
        <ele>976.4</ele>
        <time>2022-08-29T07:52:34Z</time>
      </trkpt>
      <trkpt lat="45.96111" lon="3.69317">
        <ele>976.5</ele>
        <time>2022-08-29T07:52:35Z</time>
      </trkpt>
      <trkpt lat="45.9611" lon="3.69315">
        <ele>976.6</ele>
        <time>2022-08-29T07:52:36Z</time>
      </trkpt>
      <trkpt lat="45.96108" lon="3.69313">
        <ele>976.7</ele>
        <time>2022-08-29T07:52:37Z</time>
      </trkpt>
      <trkpt lat="45.96107" lon="3.69312">
        <ele>976.7</ele>
        <time>2022-08-29T07:52:38Z</time>
      </trkpt>
      <trkpt lat="45.96107" lon="3.69311">
        <ele>976.8</ele>
        <time>2022-08-29T07:52:39Z</time>
      </trkpt>
      <trkpt lat="45.96104" lon="3.69309">
        <ele>976.9</ele>
        <time>2022-08-29T07:52:40Z</time>
      </trkpt>
      <trkpt lat="45.96103" lon="3.69308">
        <ele>977</ele>
        <time>2022-08-29T07:52:41Z</time>
      </trkpt>
      <trkpt lat="45.961" lon="3.69306">
        <ele>977.1</ele>
        <time>2022-08-29T07:52:42Z</time>
      </trkpt>
      <trkpt lat="45.96099" lon="3.69305">
        <ele>977.2</ele>
        <time>2022-08-29T07:52:43Z</time>
      </trkpt>
      <trkpt lat="45.96096" lon="3.69301">
        <ele>977.4</ele>
        <time>2022-08-29T07:52:44Z</time>
      </trkpt>
      <trkpt lat="45.96094" lon="3.69299">
        <ele>977.5</ele>
        <time>2022-08-29T07:52:45Z</time>
      </trkpt>
      <trkpt lat="45.96091" lon="3.69296">
        <ele>977.6</ele>
        <time>2022-08-29T07:52:46Z</time>
      </trkpt>
      <trkpt lat="45.9609" lon="3.69295">
        <ele>977.7</ele>
        <time>2022-08-29T07:52:47Z</time>
      </trkpt>
      <trkpt lat="45.96087" lon="3.69293">
        <ele>977.8</ele>
        <time>2022-08-29T07:52:48Z</time>
      </trkpt>
      <trkpt lat="45.96086" lon="3.69292">
        <ele>977.9</ele>
        <time>2022-08-29T07:52:49Z</time>
      </trkpt>
      <trkpt lat="45.96083" lon="3.6929">
        <ele>978</ele>
        <time>2022-08-29T07:52:50Z</time>
      </trkpt>
      <trkpt lat="45.96082" lon="3.69289">
        <ele>978.1</ele>
        <time>2022-08-29T07:52:51Z</time>
      </trkpt>
      <trkpt lat="45.9608" lon="3.69288">
        <ele>978.2</ele>
        <time>2022-08-29T07:52:52Z</time>
      </trkpt>
      <trkpt lat="45.96079" lon="3.69287">
        <ele>978.2</ele>
        <time>2022-08-29T07:52:53Z</time>
      </trkpt>
      <trkpt lat="45.96077" lon="3.69286">
        <ele>978.3</ele>
        <time>2022-08-29T07:52:54Z</time>
      </trkpt>
      <trkpt lat="45.96075" lon="3.69286">
        <ele>978.3</ele>
        <time>2022-08-29T07:52:55Z</time>
      </trkpt>
      <trkpt lat="45.96074" lon="3.69285">
        <ele>978.4</ele>
        <time>2022-08-29T07:52:56Z</time>
      </trkpt>
      <trkpt lat="45.96072" lon="3.69285">
        <ele>978.5</ele>
        <time>2022-08-29T07:52:57Z</time>
      </trkpt>
      <trkpt lat="45.96071" lon="3.69285">
        <ele>978.5</ele>
        <time>2022-08-29T07:52:58Z</time>
      </trkpt>
      <trkpt lat="45.9607" lon="3.69285">
        <ele>978.5</ele>
        <time>2022-08-29T07:52:59Z</time>
      </trkpt>
      <trkpt lat="45.96069" lon="3.69286">
        <ele>978.5</ele>
        <time>2022-08-29T07:53:00Z</time>
      </trkpt>
      <trkpt lat="45.96068" lon="3.69286">
        <ele>978.6</ele>
        <time>2022-08-29T07:53:01Z</time>
      </trkpt>
      <trkpt lat="45.96067" lon="3.69287">
        <ele>978.6</ele>
        <time>2022-08-29T07:53:02Z</time>
      </trkpt>
      <trkpt lat="45.96066" lon="3.69289">
        <ele>978.7</ele>
        <time>2022-08-29T07:53:03Z</time>
      </trkpt>
      <trkpt lat="45.96065" lon="3.69289">
        <ele>978.7</ele>
        <time>2022-08-29T07:53:04Z</time>
      </trkpt>
      <trkpt lat="45.96063" lon="3.6929">
        <ele>978.7</ele>
        <time>2022-08-29T07:53:05Z</time>
      </trkpt>
      <trkpt lat="45.96061" lon="3.69291">
        <ele>978.8</ele>
        <time>2022-08-29T07:53:06Z</time>
      </trkpt>
      <trkpt lat="45.96058" lon="3.69291">
        <ele>978.9</ele>
        <time>2022-08-29T07:53:07Z</time>
      </trkpt>
      <trkpt lat="45.96057" lon="3.69292">
        <ele>978.9</ele>
        <time>2022-08-29T07:53:08Z</time>
      </trkpt>
      <trkpt lat="45.96053" lon="3.69292">
        <ele>979</ele>
        <time>2022-08-29T07:53:09Z</time>
      </trkpt>
      <trkpt lat="45.96052" lon="3.69292">
        <ele>979</ele>
        <time>2022-08-29T07:53:10Z</time>
      </trkpt>
      <trkpt lat="45.96049" lon="3.69292">
        <ele>979.1</ele>
        <time>2022-08-29T07:53:11Z</time>
      </trkpt>
      <trkpt lat="45.96048" lon="3.69292">
        <ele>979.1</ele>
        <time>2022-08-29T07:53:12Z</time>
      </trkpt>
      <trkpt lat="45.96044" lon="3.69292">
        <ele>979.2</ele>
        <time>2022-08-29T07:53:13Z</time>
      </trkpt>
      <trkpt lat="45.96043" lon="3.69291">
        <ele>979.3</ele>
        <time>2022-08-29T07:53:14Z</time>
      </trkpt>
      <trkpt lat="45.9604" lon="3.69291">
        <ele>979.3</ele>
        <time>2022-08-29T07:53:15Z</time>
      </trkpt>
      <trkpt lat="45.96037" lon="3.69291">
        <ele>979.4</ele>
        <time>2022-08-29T07:53:16Z</time>
      </trkpt>
      <trkpt lat="45.96036" lon="3.69291">
        <ele>979.4</ele>
        <time>2022-08-29T07:53:17Z</time>
      </trkpt>
      <trkpt lat="45.96034" lon="3.69291">
        <ele>979.4</ele>
        <time>2022-08-29T07:53:18Z</time>
      </trkpt>
      <trkpt lat="45.96032" lon="3.69291">
        <ele>979.5</ele>
        <time>2022-08-29T07:53:19Z</time>
      </trkpt>
      <trkpt lat="45.96031" lon="3.69291">
        <ele>979.5</ele>
        <time>2022-08-29T07:53:20Z</time>
      </trkpt>
      <trkpt lat="45.96029" lon="3.69291">
        <ele>979.6</ele>
        <time>2022-08-29T07:53:21Z</time>
      </trkpt>
      <trkpt lat="45.96028" lon="3.69291">
        <ele>979.6</ele>
        <time>2022-08-29T07:53:22Z</time>
      </trkpt>
      <trkpt lat="45.96027" lon="3.6929">
        <ele>979.6</ele>
        <time>2022-08-29T07:53:23Z</time>
      </trkpt>
      <trkpt lat="45.96025" lon="3.6929">
        <ele>979.7</ele>
        <time>2022-08-29T07:53:24Z</time>
      </trkpt>
      <trkpt lat="45.96023" lon="3.69289">
        <ele>979.7</ele>
        <time>2022-08-29T07:53:25Z</time>
      </trkpt>
      <trkpt lat="45.96022" lon="3.69289">
        <ele>979.8</ele>
        <time>2022-08-29T07:53:26Z</time>
      </trkpt>
      <trkpt lat="45.9602" lon="3.69288">
        <ele>979.8</ele>
        <time>2022-08-29T07:53:27Z</time>
      </trkpt>
      <trkpt lat="45.96018" lon="3.69288">
        <ele>979.9</ele>
        <time>2022-08-29T07:53:28Z</time>
      </trkpt>
      <trkpt lat="45.96017" lon="3.69287">
        <ele>979.9</ele>
        <time>2022-08-29T07:53:29Z</time>
      </trkpt>
      <trkpt lat="45.96016" lon="3.69287">
        <ele>979.9</ele>
        <time>2022-08-29T07:53:30Z</time>
      </trkpt>
      <trkpt lat="45.96015" lon="3.69286">
        <ele>980</ele>
        <time>2022-08-29T07:53:31Z</time>
      </trkpt>
      <trkpt lat="45.96014" lon="3.69286">
        <ele>980</ele>
        <time>2022-08-29T07:53:32Z</time>
      </trkpt>
      <trkpt lat="45.96012" lon="3.69285">
        <ele>980.1</ele>
        <time>2022-08-29T07:53:33Z</time>
      </trkpt>
      <trkpt lat="45.96011" lon="3.69285">
        <ele>980.1</ele>
        <time>2022-08-29T07:53:34Z</time>
      </trkpt>
      <trkpt lat="45.9601" lon="3.69285">
        <ele>980.1</ele>
        <time>2022-08-29T07:53:35Z</time>
      </trkpt>
      <trkpt lat="45.96008" lon="3.69286">
        <ele>980.2</ele>
        <time>2022-08-29T07:53:36Z</time>
      </trkpt>
      <trkpt lat="45.96007" lon="3.69286">
        <ele>980.2</ele>
        <time>2022-08-29T07:53:37Z</time>
      </trkpt>
      <trkpt lat="45.96006" lon="3.69287">
        <ele>980.2</ele>
        <time>2022-08-29T07:53:38Z</time>
      </trkpt>
      <trkpt lat="45.96005" lon="3.69287">
        <ele>980.3</ele>
        <time>2022-08-29T07:53:39Z</time>
      </trkpt>
      <trkpt lat="45.96004" lon="3.69288">
        <ele>980.3</ele>
        <time>2022-08-29T07:53:40Z</time>
      </trkpt>
      <trkpt lat="45.96002" lon="3.69288">
        <ele>980.4</ele>
        <time>2022-08-29T07:53:41Z</time>
      </trkpt>
      <trkpt lat="45.96001" lon="3.69289">
        <ele>980.4</ele>
        <time>2022-08-29T07:53:42Z</time>
      </trkpt>
      <trkpt lat="45.96" lon="3.69289">
        <ele>980.4</ele>
        <time>2022-08-29T07:53:43Z</time>
      </trkpt>
      <trkpt lat="45.95999" lon="3.69289">
        <ele>980.5</ele>
        <time>2022-08-29T07:53:44Z</time>
      </trkpt>
      <trkpt lat="45.95997" lon="3.69289">
        <ele>980.5</ele>
        <time>2022-08-29T07:53:45Z</time>
      </trkpt>
      <trkpt lat="45.95996" lon="3.6929">
        <ele>980.6</ele>
        <time>2022-08-29T07:53:46Z</time>
      </trkpt>
      <trkpt lat="45.95994" lon="3.6929">
        <ele>980.6</ele>
        <time>2022-08-29T07:53:47Z</time>
      </trkpt>
      <trkpt lat="45.95991" lon="3.69291">
        <ele>980.8</ele>
        <time>2022-08-29T07:53:48Z</time>
      </trkpt>
      <trkpt lat="45.9599" lon="3.69292">
        <ele>980.8</ele>
        <time>2022-08-29T07:53:49Z</time>
      </trkpt>
      <trkpt lat="45.95987" lon="3.69293">
        <ele>981</ele>
        <time>2022-08-29T07:53:50Z</time>
      </trkpt>
      <trkpt lat="45.95986" lon="3.69293">
        <ele>981</ele>
        <time>2022-08-29T07:53:51Z</time>
      </trkpt>
      <trkpt lat="45.95983" lon="3.69295">
        <ele>981.1</ele>
        <time>2022-08-29T07:53:52Z</time>
      </trkpt>
      <trkpt lat="45.95982" lon="3.69295">
        <ele>981.2</ele>
        <time>2022-08-29T07:53:53Z</time>
      </trkpt>
      <trkpt lat="45.95979" lon="3.69296">
        <ele>981.3</ele>
        <time>2022-08-29T07:53:54Z</time>
      </trkpt>
      <trkpt lat="45.95978" lon="3.69297">
        <ele>981.4</ele>
        <time>2022-08-29T07:53:55Z</time>
      </trkpt>
      <trkpt lat="45.95975" lon="3.69298">
        <ele>981.5</ele>
        <time>2022-08-29T07:53:56Z</time>
      </trkpt>
      <trkpt lat="45.95974" lon="3.69299">
        <ele>981.5</ele>
        <time>2022-08-29T07:53:57Z</time>
      </trkpt>
      <trkpt lat="45.95971" lon="3.69301">
        <ele>981.6</ele>
        <time>2022-08-29T07:53:58Z</time>
      </trkpt>
      <trkpt lat="45.9597" lon="3.69301">
        <ele>981.7</ele>
        <time>2022-08-29T07:53:59Z</time>
      </trkpt>
      <trkpt lat="45.95968" lon="3.69303">
        <ele>981.8</ele>
        <time>2022-08-29T07:54:00Z</time>
      </trkpt>
      <trkpt lat="45.95967" lon="3.69304">
        <ele>981.8</ele>
        <time>2022-08-29T07:54:01Z</time>
      </trkpt>
      <trkpt lat="45.95965" lon="3.69305">
        <ele>981.9</ele>
        <time>2022-08-29T07:54:02Z</time>
      </trkpt>
      <trkpt lat="45.95964" lon="3.69305">
        <ele>982</ele>
        <time>2022-08-29T07:54:03Z</time>
      </trkpt>
      <trkpt lat="45.95963" lon="3.69306">
        <ele>982.1</ele>
        <time>2022-08-29T07:54:04Z</time>
      </trkpt>
      <trkpt lat="45.95961" lon="3.69307">
        <ele>982.1</ele>
        <time>2022-08-29T07:54:05Z</time>
      </trkpt>
      <trkpt lat="45.95959" lon="3.69308">
        <ele>982.2</ele>
        <time>2022-08-29T07:54:06Z</time>
      </trkpt>
      <trkpt lat="45.95959" lon="3.69309">
        <ele>982.3</ele>
        <time>2022-08-29T07:54:07Z</time>
      </trkpt>
      <trkpt lat="45.95958" lon="3.69309">
        <ele>982.3</ele>
        <time>2022-08-29T07:54:08Z</time>
      </trkpt>
      <trkpt lat="45.95957" lon="3.69311">
        <ele>982.4</ele>
        <time>2022-08-29T07:54:09Z</time>
      </trkpt>
      <trkpt lat="45.95955" lon="3.69312">
        <ele>982.5</ele>
        <time>2022-08-29T07:54:10Z</time>
      </trkpt>
      <trkpt lat="45.95954" lon="3.69313">
        <ele>982.6</ele>
        <time>2022-08-29T07:54:11Z</time>
      </trkpt>
      <trkpt lat="45.95953" lon="3.69315">
        <ele>982.7</ele>
        <time>2022-08-29T07:54:12Z</time>
      </trkpt>
      <trkpt lat="45.95951" lon="3.69316">
        <ele>982.8</ele>
        <time>2022-08-29T07:54:13Z</time>
      </trkpt>
      <trkpt lat="45.9595" lon="3.69317">
        <ele>982.8</ele>
        <time>2022-08-29T07:54:14Z</time>
      </trkpt>
      <trkpt lat="45.9595" lon="3.69318">
        <ele>982.9</ele>
        <time>2022-08-29T07:54:15Z</time>
      </trkpt>
      <trkpt lat="45.95949" lon="3.69318">
        <ele>983</ele>
        <time>2022-08-29T07:54:16Z</time>
      </trkpt>
      <trkpt lat="45.95948" lon="3.69319">
        <ele>983</ele>
        <time>2022-08-29T07:54:17Z</time>
      </trkpt>
      <trkpt lat="45.95945" lon="3.6932">
        <ele>983.2</ele>
        <time>2022-08-29T07:54:18Z</time>
      </trkpt>
      <trkpt lat="45.95945" lon="3.6932">
        <ele>983.2</ele>
        <time>2022-08-29T07:54:19Z</time>
      </trkpt>
      <trkpt lat="45.95944" lon="3.6932">
        <ele>983.3</ele>
        <time>2022-08-29T07:54:20Z</time>
      </trkpt>
      <trkpt lat="45.95942" lon="3.6932">
        <ele>983.4</ele>
        <time>2022-08-29T07:54:21Z</time>
      </trkpt>
      <trkpt lat="45.9594" lon="3.69321">
        <ele>983.5</ele>
        <time>2022-08-29T07:54:22Z</time>
      </trkpt>
      <trkpt lat="45.95938" lon="3.69321">
        <ele>983.6</ele>
        <time>2022-08-29T07:54:23Z</time>
      </trkpt>
      <trkpt lat="45.95937" lon="3.6932">
        <ele>983.6</ele>
        <time>2022-08-29T07:54:24Z</time>
      </trkpt>
      <trkpt lat="45.95937" lon="3.6932">
        <ele>983.7</ele>
        <time>2022-08-29T07:54:25Z</time>
      </trkpt>
      <trkpt lat="45.95934" lon="3.6932">
        <ele>983.8</ele>
        <time>2022-08-29T07:54:26Z</time>
      </trkpt>
      <trkpt lat="45.95933" lon="3.6932">
        <ele>983.9</ele>
        <time>2022-08-29T07:54:27Z</time>
      </trkpt>
      <trkpt lat="45.95932" lon="3.69321">
        <ele>984</ele>
        <time>2022-08-29T07:54:28Z</time>
      </trkpt>
      <trkpt lat="45.9593" lon="3.69321">
        <ele>984.2</ele>
        <time>2022-08-29T07:54:29Z</time>
      </trkpt>
      <trkpt lat="45.95929" lon="3.69321">
        <ele>984.2</ele>
        <time>2022-08-29T07:54:30Z</time>
      </trkpt>
      <trkpt lat="45.95927" lon="3.69322">
        <ele>984.3</ele>
        <time>2022-08-29T07:54:31Z</time>
      </trkpt>
      <trkpt lat="45.95926" lon="3.69323">
        <ele>984.4</ele>
        <time>2022-08-29T07:54:32Z</time>
      </trkpt>
      <trkpt lat="45.95924" lon="3.69324">
        <ele>984.6</ele>
        <time>2022-08-29T07:54:33Z</time>
      </trkpt>
      <trkpt lat="45.95923" lon="3.69325">
        <ele>984.7</ele>
        <time>2022-08-29T07:54:34Z</time>
      </trkpt>
      <trkpt lat="45.95922" lon="3.69326">
        <ele>984.8</ele>
        <time>2022-08-29T07:54:35Z</time>
      </trkpt>
      <trkpt lat="45.9592" lon="3.69328">
        <ele>984.9</ele>
        <time>2022-08-29T07:54:36Z</time>
      </trkpt>
      <trkpt lat="45.95918" lon="3.6933">
        <ele>985.1</ele>
        <time>2022-08-29T07:54:37Z</time>
      </trkpt>
      <trkpt lat="45.95917" lon="3.69331">
        <ele>985.2</ele>
        <time>2022-08-29T07:54:38Z</time>
      </trkpt>
      <trkpt lat="45.95915" lon="3.69333">
        <ele>985.4</ele>
        <time>2022-08-29T07:54:39Z</time>
      </trkpt>
      <trkpt lat="45.95914" lon="3.69334">
        <ele>985.5</ele>
        <time>2022-08-29T07:54:40Z</time>
      </trkpt>
      <trkpt lat="45.95913" lon="3.69335">
        <ele>985.6</ele>
        <time>2022-08-29T07:54:41Z</time>
      </trkpt>
      <trkpt lat="45.95911" lon="3.69336">
        <ele>985.7</ele>
        <time>2022-08-29T07:54:42Z</time>
      </trkpt>
      <trkpt lat="45.95909" lon="3.69337">
        <ele>985.8</ele>
        <time>2022-08-29T07:54:43Z</time>
      </trkpt>
      <trkpt lat="45.95908" lon="3.69338">
        <ele>985.9</ele>
        <time>2022-08-29T07:54:44Z</time>
      </trkpt>
      <trkpt lat="45.95908" lon="3.69338">
        <ele>986</ele>
        <time>2022-08-29T07:54:45Z</time>
      </trkpt>
      <trkpt lat="45.95906" lon="3.6934">
        <ele>986.1</ele>
        <time>2022-08-29T07:54:46Z</time>
      </trkpt>
      <trkpt lat="45.95905" lon="3.69341">
        <ele>986.2</ele>
        <time>2022-08-29T07:54:47Z</time>
      </trkpt>
      <trkpt lat="45.95904" lon="3.69344">
        <ele>986.4</ele>
        <time>2022-08-29T07:54:48Z</time>
      </trkpt>
      <trkpt lat="45.95904" lon="3.69346">
        <ele>986.4</ele>
        <time>2022-08-29T07:54:49Z</time>
      </trkpt>
      <trkpt lat="45.95903" lon="3.69347">
        <ele>986.5</ele>
        <time>2022-08-29T07:54:50Z</time>
      </trkpt>
      <trkpt lat="45.95902" lon="3.6935">
        <ele>986.7</ele>
        <time>2022-08-29T07:54:51Z</time>
      </trkpt>
      <trkpt lat="45.95901" lon="3.69351">
        <ele>986.8</ele>
        <time>2022-08-29T07:54:52Z</time>
      </trkpt>
      <trkpt lat="45.95899" lon="3.69355">
        <ele>987</ele>
        <time>2022-08-29T07:54:53Z</time>
      </trkpt>
      <trkpt lat="45.95898" lon="3.69357">
        <ele>987.1</ele>
        <time>2022-08-29T07:54:54Z</time>
      </trkpt>
      <trkpt lat="45.95896" lon="3.6936">
        <ele>987.2</ele>
        <time>2022-08-29T07:54:55Z</time>
      </trkpt>
      <trkpt lat="45.95894" lon="3.69363">
        <ele>987.5</ele>
        <time>2022-08-29T07:54:56Z</time>
      </trkpt>
      <trkpt lat="45.95893" lon="3.69364">
        <ele>987.6</ele>
        <time>2022-08-29T07:54:57Z</time>
      </trkpt>
      <trkpt lat="45.9589" lon="3.69367">
        <ele>987.8</ele>
        <time>2022-08-29T07:54:58Z</time>
      </trkpt>
      <trkpt lat="45.95889" lon="3.69368">
        <ele>987.8</ele>
        <time>2022-08-29T07:54:59Z</time>
      </trkpt>
      <trkpt lat="45.95888" lon="3.69369">
        <ele>988</ele>
        <time>2022-08-29T07:55:00Z</time>
      </trkpt>
      <trkpt lat="45.95887" lon="3.69371">
        <ele>988</ele>
        <time>2022-08-29T07:55:01Z</time>
      </trkpt>
      <trkpt lat="45.95885" lon="3.69372">
        <ele>988.2</ele>
        <time>2022-08-29T07:55:02Z</time>
      </trkpt>
      <trkpt lat="45.95884" lon="3.69372">
        <ele>988.2</ele>
        <time>2022-08-29T07:55:03Z</time>
      </trkpt>
      <trkpt lat="45.95883" lon="3.69372">
        <ele>988.3</ele>
        <time>2022-08-29T07:55:04Z</time>
      </trkpt>
      <trkpt lat="45.95882" lon="3.69372">
        <ele>988.4</ele>
        <time>2022-08-29T07:55:05Z</time>
      </trkpt>
      <trkpt lat="45.9588" lon="3.69372">
        <ele>988.4</ele>
        <time>2022-08-29T07:55:06Z</time>
      </trkpt>
      <trkpt lat="45.95879" lon="3.69373">
        <ele>988.5</ele>
        <time>2022-08-29T07:55:07Z</time>
      </trkpt>
      <trkpt lat="45.95877" lon="3.69373">
        <ele>988.6</ele>
        <time>2022-08-29T07:55:08Z</time>
      </trkpt>
      <trkpt lat="45.95875" lon="3.69373">
        <ele>988.7</ele>
        <time>2022-08-29T07:55:09Z</time>
      </trkpt>
      <trkpt lat="45.95874" lon="3.69373">
        <ele>988.7</ele>
        <time>2022-08-29T07:55:10Z</time>
      </trkpt>
      <trkpt lat="45.95874" lon="3.69373">
        <ele>988.8</ele>
        <time>2022-08-29T07:55:11Z</time>
      </trkpt>
      <trkpt lat="45.95872" lon="3.69373">
        <ele>988.8</ele>
        <time>2022-08-29T07:55:12Z</time>
      </trkpt>
      <trkpt lat="45.95871" lon="3.69373">
        <ele>988.9</ele>
        <time>2022-08-29T07:55:13Z</time>
      </trkpt>
      <trkpt lat="45.95869" lon="3.69373">
        <ele>989</ele>
        <time>2022-08-29T07:55:14Z</time>
      </trkpt>
      <trkpt lat="45.95868" lon="3.69372">
        <ele>989</ele>
        <time>2022-08-29T07:55:15Z</time>
      </trkpt>
      <trkpt lat="45.95866" lon="3.69372">
        <ele>989.1</ele>
        <time>2022-08-29T07:55:16Z</time>
      </trkpt>
      <trkpt lat="45.95864" lon="3.69372">
        <ele>989.2</ele>
        <time>2022-08-29T07:55:17Z</time>
      </trkpt>
      <trkpt lat="45.95861" lon="3.69371">
        <ele>989.3</ele>
        <time>2022-08-29T07:55:18Z</time>
      </trkpt>
      <trkpt lat="45.9586" lon="3.6937">
        <ele>989.4</ele>
        <time>2022-08-29T07:55:19Z</time>
      </trkpt>
      <trkpt lat="45.95858" lon="3.69369">
        <ele>989.5</ele>
        <time>2022-08-29T07:55:20Z</time>
      </trkpt>
      <trkpt lat="45.95857" lon="3.69369">
        <ele>989.6</ele>
        <time>2022-08-29T07:55:21Z</time>
      </trkpt>
      <trkpt lat="45.95856" lon="3.69368">
        <ele>989.6</ele>
        <time>2022-08-29T07:55:22Z</time>
      </trkpt>
      <trkpt lat="45.95854" lon="3.69368">
        <ele>989.7</ele>
        <time>2022-08-29T07:55:23Z</time>
      </trkpt>
      <trkpt lat="45.95853" lon="3.69368">
        <ele>989.8</ele>
        <time>2022-08-29T07:55:24Z</time>
      </trkpt>
      <trkpt lat="45.95852" lon="3.69368">
        <ele>989.8</ele>
        <time>2022-08-29T07:55:25Z</time>
      </trkpt>
      <trkpt lat="45.95851" lon="3.69368">
        <ele>989.9</ele>
        <time>2022-08-29T07:55:26Z</time>
      </trkpt>
      <trkpt lat="45.9585" lon="3.69369">
        <ele>989.9</ele>
        <time>2022-08-29T07:55:27Z</time>
      </trkpt>
      <trkpt lat="45.95849" lon="3.6937">
        <ele>990</ele>
        <time>2022-08-29T07:55:28Z</time>
      </trkpt>
      <trkpt lat="45.95847" lon="3.69372">
        <ele>990.1</ele>
        <time>2022-08-29T07:55:29Z</time>
      </trkpt>
      <trkpt lat="45.95845" lon="3.69374">
        <ele>990.2</ele>
        <time>2022-08-29T07:55:30Z</time>
      </trkpt>
      <trkpt lat="45.95844" lon="3.69375">
        <ele>990.3</ele>
        <time>2022-08-29T07:55:31Z</time>
      </trkpt>
      <trkpt lat="45.95842" lon="3.69378">
        <ele>990.4</ele>
        <time>2022-08-29T07:55:32Z</time>
      </trkpt>
      <trkpt lat="45.95841" lon="3.69379">
        <ele>990.5</ele>
        <time>2022-08-29T07:55:33Z</time>
      </trkpt>
      <trkpt lat="45.95839" lon="3.69382">
        <ele>990.6</ele>
        <time>2022-08-29T07:55:34Z</time>
      </trkpt>
      <trkpt lat="45.95838" lon="3.69384">
        <ele>990.7</ele>
        <time>2022-08-29T07:55:35Z</time>
      </trkpt>
      <trkpt lat="45.95836" lon="3.69386">
        <ele>990.8</ele>
        <time>2022-08-29T07:55:36Z</time>
      </trkpt>
      <trkpt lat="45.95835" lon="3.69387">
        <ele>990.9</ele>
        <time>2022-08-29T07:55:37Z</time>
      </trkpt>
      <trkpt lat="45.95834" lon="3.69389">
        <ele>991</ele>
        <time>2022-08-29T07:55:38Z</time>
      </trkpt>
      <trkpt lat="45.95833" lon="3.6939">
        <ele>991</ele>
        <time>2022-08-29T07:55:39Z</time>
      </trkpt>
      <trkpt lat="45.95832" lon="3.69392">
        <ele>991.1</ele>
        <time>2022-08-29T07:55:40Z</time>
      </trkpt>
      <trkpt lat="45.95831" lon="3.69393">
        <ele>991.2</ele>
        <time>2022-08-29T07:55:41Z</time>
      </trkpt>
      <trkpt lat="45.9583" lon="3.69394">
        <ele>991.2</ele>
        <time>2022-08-29T07:55:42Z</time>
      </trkpt>
      <trkpt lat="45.9583" lon="3.69395">
        <ele>991.3</ele>
        <time>2022-08-29T07:55:43Z</time>
      </trkpt>
      <trkpt lat="45.95829" lon="3.69396">
        <ele>991.3</ele>
        <time>2022-08-29T07:55:44Z</time>
      </trkpt>
      <trkpt lat="45.95828" lon="3.69397">
        <ele>991.4</ele>
        <time>2022-08-29T07:55:45Z</time>
      </trkpt>
      <trkpt lat="45.95827" lon="3.69398">
        <ele>991.5</ele>
        <time>2022-08-29T07:55:46Z</time>
      </trkpt>
      <trkpt lat="45.95825" lon="3.69399">
        <ele>991.5</ele>
        <time>2022-08-29T07:55:47Z</time>
      </trkpt>
      <trkpt lat="45.95824" lon="3.69399">
        <ele>991.6</ele>
        <time>2022-08-29T07:55:48Z</time>
      </trkpt>
      <trkpt lat="45.95822" lon="3.694">
        <ele>991.7</ele>
        <time>2022-08-29T07:55:49Z</time>
      </trkpt>
      <trkpt lat="45.95819" lon="3.694">
        <ele>991.8</ele>
        <time>2022-08-29T07:55:50Z</time>
      </trkpt>
      <trkpt lat="45.95818" lon="3.69401">
        <ele>991.9</ele>
        <time>2022-08-29T07:55:51Z</time>
      </trkpt>
      <trkpt lat="45.95816" lon="3.69401">
        <ele>992</ele>
        <time>2022-08-29T07:55:52Z</time>
      </trkpt>
      <trkpt lat="45.95815" lon="3.69401">
        <ele>992.1</ele>
        <time>2022-08-29T07:55:53Z</time>
      </trkpt>
      <trkpt lat="45.95812" lon="3.69401">
        <ele>992.2</ele>
        <time>2022-08-29T07:55:54Z</time>
      </trkpt>
      <trkpt lat="45.95811" lon="3.69401">
        <ele>992.2</ele>
        <time>2022-08-29T07:55:55Z</time>
      </trkpt>
      <trkpt lat="45.95809" lon="3.69402">
        <ele>992.3</ele>
        <time>2022-08-29T07:55:56Z</time>
      </trkpt>
      <trkpt lat="45.95808" lon="3.69402">
        <ele>992.3</ele>
        <time>2022-08-29T07:55:57Z</time>
      </trkpt>
      <trkpt lat="45.95805" lon="3.69404">
        <ele>992.4</ele>
        <time>2022-08-29T07:55:58Z</time>
      </trkpt>
      <trkpt lat="45.95804" lon="3.69405">
        <ele>992.5</ele>
        <time>2022-08-29T07:55:59Z</time>
      </trkpt>
      <trkpt lat="45.95802" lon="3.69408">
        <ele>992.6</ele>
        <time>2022-08-29T07:56:00Z</time>
      </trkpt>
      <trkpt lat="45.95801" lon="3.69409">
        <ele>992.6</ele>
        <time>2022-08-29T07:56:01Z</time>
      </trkpt>
      <trkpt lat="45.95797" lon="3.69412">
        <ele>992.7</ele>
        <time>2022-08-29T07:56:02Z</time>
      </trkpt>
      <trkpt lat="45.95796" lon="3.69412">
        <ele>992.8</ele>
        <time>2022-08-29T07:56:03Z</time>
      </trkpt>
      <trkpt lat="45.95793" lon="3.69414">
        <ele>992.9</ele>
        <time>2022-08-29T07:56:04Z</time>
      </trkpt>
      <trkpt lat="45.95792" lon="3.69414">
        <ele>993</ele>
        <time>2022-08-29T07:56:05Z</time>
      </trkpt>
      <trkpt lat="45.9579" lon="3.69415">
        <ele>993</ele>
        <time>2022-08-29T07:56:06Z</time>
      </trkpt>
      <trkpt lat="45.95789" lon="3.69416">
        <ele>993.1</ele>
        <time>2022-08-29T07:56:07Z</time>
      </trkpt>
      <trkpt lat="45.95787" lon="3.69417">
        <ele>993.1</ele>
        <time>2022-08-29T07:56:08Z</time>
      </trkpt>
      <trkpt lat="45.95786" lon="3.69417">
        <ele>993.2</ele>
        <time>2022-08-29T07:56:09Z</time>
      </trkpt>
      <trkpt lat="45.95786" lon="3.69418">
        <ele>993.2</ele>
        <time>2022-08-29T07:56:10Z</time>
      </trkpt>
      <trkpt lat="45.95785" lon="3.69418">
        <ele>993.2</ele>
        <time>2022-08-29T07:56:11Z</time>
      </trkpt>
      <trkpt lat="45.95784" lon="3.69419">
        <ele>993.3</ele>
        <time>2022-08-29T07:56:12Z</time>
      </trkpt>
      <trkpt lat="45.95783" lon="3.6942">
        <ele>993.3</ele>
        <time>2022-08-29T07:56:13Z</time>
      </trkpt>
      <trkpt lat="45.95783" lon="3.69421">
        <ele>993.3</ele>
        <time>2022-08-29T07:56:14Z</time>
      </trkpt>
      <trkpt lat="45.95782" lon="3.69422">
        <ele>993.4</ele>
        <time>2022-08-29T07:56:15Z</time>
      </trkpt>
      <trkpt lat="45.95781" lon="3.69423">
        <ele>993.4</ele>
        <time>2022-08-29T07:56:16Z</time>
      </trkpt>
      <trkpt lat="45.9578" lon="3.69423">
        <ele>993.5</ele>
        <time>2022-08-29T07:56:17Z</time>
      </trkpt>
      <trkpt lat="45.95779" lon="3.69424">
        <ele>993.5</ele>
        <time>2022-08-29T07:56:18Z</time>
      </trkpt>
      <trkpt lat="45.95777" lon="3.69424">
        <ele>993.6</ele>
        <time>2022-08-29T07:56:19Z</time>
      </trkpt>
      <trkpt lat="45.95776" lon="3.69425">
        <ele>993.6</ele>
        <time>2022-08-29T07:56:20Z</time>
      </trkpt>
      <trkpt lat="45.95774" lon="3.69425">
        <ele>993.7</ele>
        <time>2022-08-29T07:56:21Z</time>
      </trkpt>
      <trkpt lat="45.95773" lon="3.69426">
        <ele>993.7</ele>
        <time>2022-08-29T07:56:22Z</time>
      </trkpt>
      <trkpt lat="45.95771" lon="3.69426">
        <ele>993.8</ele>
        <time>2022-08-29T07:56:23Z</time>
      </trkpt>
      <trkpt lat="45.9577" lon="3.69427">
        <ele>993.9</ele>
        <time>2022-08-29T07:56:24Z</time>
      </trkpt>
      <trkpt lat="45.95768" lon="3.69427">
        <ele>993.9</ele>
        <time>2022-08-29T07:56:25Z</time>
      </trkpt>
      <trkpt lat="45.95767" lon="3.69427">
        <ele>994</ele>
        <time>2022-08-29T07:56:26Z</time>
      </trkpt>
      <trkpt lat="45.95766" lon="3.69428">
        <ele>994</ele>
        <time>2022-08-29T07:56:27Z</time>
      </trkpt>
      <trkpt lat="45.95765" lon="3.69429">
        <ele>994.1</ele>
        <time>2022-08-29T07:56:28Z</time>
      </trkpt>
      <trkpt lat="45.95763" lon="3.69429">
        <ele>994.1</ele>
        <time>2022-08-29T07:56:29Z</time>
      </trkpt>
      <trkpt lat="45.95762" lon="3.69429">
        <ele>994.2</ele>
        <time>2022-08-29T07:56:30Z</time>
      </trkpt>
      <trkpt lat="45.95761" lon="3.69429">
        <ele>994.2</ele>
        <time>2022-08-29T07:56:31Z</time>
      </trkpt>
      <trkpt lat="45.95758" lon="3.69428">
        <ele>994.4</ele>
        <time>2022-08-29T07:56:32Z</time>
      </trkpt>
      <trkpt lat="45.95757" lon="3.69428">
        <ele>994.4</ele>
        <time>2022-08-29T07:56:33Z</time>
      </trkpt>
      <trkpt lat="45.95756" lon="3.69427">
        <ele>994.5</ele>
        <time>2022-08-29T07:56:34Z</time>
      </trkpt>
      <trkpt lat="45.95754" lon="3.69426">
        <ele>994.5</ele>
        <time>2022-08-29T07:56:35Z</time>
      </trkpt>
      <trkpt lat="45.95753" lon="3.69426">
        <ele>994.6</ele>
        <time>2022-08-29T07:56:36Z</time>
      </trkpt>
      <trkpt lat="45.95752" lon="3.69425">
        <ele>994.6</ele>
        <time>2022-08-29T07:56:37Z</time>
      </trkpt>
      <trkpt lat="45.9575" lon="3.69425">
        <ele>994.7</ele>
        <time>2022-08-29T07:56:38Z</time>
      </trkpt>
      <trkpt lat="45.95749" lon="3.69424">
        <ele>994.8</ele>
        <time>2022-08-29T07:56:39Z</time>
      </trkpt>
      <trkpt lat="45.95748" lon="3.69424">
        <ele>994.8</ele>
        <time>2022-08-29T07:56:40Z</time>
      </trkpt>
      <trkpt lat="45.95746" lon="3.69424">
        <ele>994.9</ele>
        <time>2022-08-29T07:56:41Z</time>
      </trkpt>
      <trkpt lat="45.95745" lon="3.69423">
        <ele>994.9</ele>
        <time>2022-08-29T07:56:42Z</time>
      </trkpt>
      <trkpt lat="45.95743" lon="3.69423">
        <ele>995</ele>
        <time>2022-08-29T07:56:43Z</time>
      </trkpt>
      <trkpt lat="45.95741" lon="3.69422">
        <ele>995</ele>
        <time>2022-08-29T07:56:44Z</time>
      </trkpt>
      <trkpt lat="45.9574" lon="3.69422">
        <ele>995.1</ele>
        <time>2022-08-29T07:56:45Z</time>
      </trkpt>
      <trkpt lat="45.95738" lon="3.69421">
        <ele>995.2</ele>
        <time>2022-08-29T07:56:46Z</time>
      </trkpt>
      <trkpt lat="45.95736" lon="3.69421">
        <ele>995.2</ele>
        <time>2022-08-29T07:56:47Z</time>
      </trkpt>
      <trkpt lat="45.95735" lon="3.69421">
        <ele>995.3</ele>
        <time>2022-08-29T07:56:48Z</time>
      </trkpt>
      <trkpt lat="45.95732" lon="3.69421">
        <ele>995.4</ele>
        <time>2022-08-29T07:56:49Z</time>
      </trkpt>
      <trkpt lat="45.95731" lon="3.69421">
        <ele>995.4</ele>
        <time>2022-08-29T07:56:50Z</time>
      </trkpt>
      <trkpt lat="45.95728" lon="3.69421">
        <ele>995.6</ele>
        <time>2022-08-29T07:56:51Z</time>
      </trkpt>
      <trkpt lat="45.95727" lon="3.69421">
        <ele>995.6</ele>
        <time>2022-08-29T07:56:52Z</time>
      </trkpt>
      <trkpt lat="45.95723" lon="3.69421">
        <ele>995.7</ele>
        <time>2022-08-29T07:56:53Z</time>
      </trkpt>
      <trkpt lat="45.95722" lon="3.69421">
        <ele>995.8</ele>
        <time>2022-08-29T07:56:54Z</time>
      </trkpt>
      <trkpt lat="45.95718" lon="3.69421">
        <ele>995.9</ele>
        <time>2022-08-29T07:56:55Z</time>
      </trkpt>
      <trkpt lat="45.95717" lon="3.69421">
        <ele>996</ele>
        <time>2022-08-29T07:56:56Z</time>
      </trkpt>
      <trkpt lat="45.95714" lon="3.69421">
        <ele>996.1</ele>
        <time>2022-08-29T07:56:57Z</time>
      </trkpt>
      <trkpt lat="45.95713" lon="3.6942">
        <ele>996.2</ele>
        <time>2022-08-29T07:56:58Z</time>
      </trkpt>
      <trkpt lat="45.95711" lon="3.6942">
        <ele>996.2</ele>
        <time>2022-08-29T07:56:59Z</time>
      </trkpt>
      <trkpt lat="45.9571" lon="3.69419">
        <ele>996.3</ele>
        <time>2022-08-29T07:57:00Z</time>
      </trkpt>
      <trkpt lat="45.95709" lon="3.69419">
        <ele>996.4</ele>
        <time>2022-08-29T07:57:01Z</time>
      </trkpt>
      <trkpt lat="45.95708" lon="3.69418">
        <ele>996.4</ele>
        <time>2022-08-29T07:57:02Z</time>
      </trkpt>
      <trkpt lat="45.95707" lon="3.69418">
        <ele>996.5</ele>
        <time>2022-08-29T07:57:03Z</time>
      </trkpt>
      <trkpt lat="45.95705" lon="3.69417">
        <ele>996.5</ele>
        <time>2022-08-29T07:57:04Z</time>
      </trkpt>
      <trkpt lat="45.95705" lon="3.69416">
        <ele>996.6</ele>
        <time>2022-08-29T07:57:05Z</time>
      </trkpt>
      <trkpt lat="45.95703" lon="3.69415">
        <ele>996.6</ele>
        <time>2022-08-29T07:57:06Z</time>
      </trkpt>
      <trkpt lat="45.95702" lon="3.69414">
        <ele>996.7</ele>
        <time>2022-08-29T07:57:07Z</time>
      </trkpt>
      <trkpt lat="45.95701" lon="3.69413">
        <ele>996.8</ele>
        <time>2022-08-29T07:57:08Z</time>
      </trkpt>
      <trkpt lat="45.95698" lon="3.69412">
        <ele>996.9</ele>
        <time>2022-08-29T07:57:09Z</time>
      </trkpt>
      <trkpt lat="45.95697" lon="3.69412">
        <ele>996.9</ele>
        <time>2022-08-29T07:57:10Z</time>
      </trkpt>
      <trkpt lat="45.95694" lon="3.6941">
        <ele>997.1</ele>
        <time>2022-08-29T07:57:11Z</time>
      </trkpt>
      <trkpt lat="45.95693" lon="3.6941">
        <ele>997.1</ele>
        <time>2022-08-29T07:57:12Z</time>
      </trkpt>
      <trkpt lat="45.9569" lon="3.69408">
        <ele>997.2</ele>
        <time>2022-08-29T07:57:13Z</time>
      </trkpt>
      <trkpt lat="45.95689" lon="3.69408">
        <ele>997.2</ele>
        <time>2022-08-29T07:57:14Z</time>
      </trkpt>
      <trkpt lat="45.95688" lon="3.69407">
        <ele>997.3</ele>
        <time>2022-08-29T07:57:15Z</time>
      </trkpt>
      <trkpt lat="45.95687" lon="3.69406">
        <ele>997.3</ele>
        <time>2022-08-29T07:57:16Z</time>
      </trkpt>
      <trkpt lat="45.95686" lon="3.69405">
        <ele>997.3</ele>
        <time>2022-08-29T07:57:17Z</time>
      </trkpt>
      <trkpt lat="45.95686" lon="3.69405">
        <ele>997.3</ele>
        <time>2022-08-29T07:57:18Z</time>
      </trkpt>
      <trkpt lat="45.95686" lon="3.69404">
        <ele>997.3</ele>
        <time>2022-08-29T07:57:19Z</time>
      </trkpt>
      <trkpt lat="45.95686" lon="3.69404">
        <ele>997.4</ele>
        <time>2022-08-29T07:57:20Z</time>
      </trkpt>
      <trkpt lat="45.95687" lon="3.69404">
        <ele>997.4</ele>
        <time>2022-08-29T07:57:21Z</time>
      </trkpt>
      <trkpt lat="45.95687" lon="3.69404">
        <ele>997.4</ele>
        <time>2022-08-29T07:57:22Z</time>
      </trkpt>
      <trkpt lat="45.95687" lon="3.69404">
        <ele>997.4</ele>
        <time>2022-08-29T07:57:23Z</time>
      </trkpt>
      <trkpt lat="45.95687" lon="3.69404">
        <ele>997.4</ele>
        <time>2022-08-29T07:57:24Z</time>
      </trkpt>
      <trkpt lat="45.95687" lon="3.69405">
        <ele>997.4</ele>
        <time>2022-08-29T07:57:25Z</time>
      </trkpt>
      <trkpt lat="45.95687" lon="3.69406">
        <ele>997.4</ele>
        <time>2022-08-29T07:57:26Z</time>
      </trkpt>
      <trkpt lat="45.95687" lon="3.69408">
        <ele>997.4</ele>
        <time>2022-08-29T07:57:27Z</time>
      </trkpt>
      <trkpt lat="45.95687" lon="3.69409">
        <ele>997.4</ele>
        <time>2022-08-29T07:57:28Z</time>
      </trkpt>
      <trkpt lat="45.95687" lon="3.6941">
        <ele>997.4</ele>
        <time>2022-08-29T07:57:29Z</time>
      </trkpt>
      <trkpt lat="45.95687" lon="3.69411">
        <ele>997.4</ele>
        <time>2022-08-29T07:57:30Z</time>
      </trkpt>
      <trkpt lat="45.95687" lon="3.69412">
        <ele>997.4</ele>
        <time>2022-08-29T07:57:31Z</time>
      </trkpt>
      <trkpt lat="45.95687" lon="3.69413">
        <ele>997.4</ele>
        <time>2022-08-29T07:57:32Z</time>
      </trkpt>
      <trkpt lat="45.95687" lon="3.69413">
        <ele>997.4</ele>
        <time>2022-08-29T07:57:33Z</time>
      </trkpt>
      <trkpt lat="45.95687" lon="3.69413">
        <ele>997.4</ele>
        <time>2022-08-29T07:57:34Z</time>
      </trkpt>
      <trkpt lat="45.95687" lon="3.69413">
        <ele>997.4</ele>
        <time>2022-08-29T07:57:35Z</time>
      </trkpt>
      <trkpt lat="45.95687" lon="3.69413">
        <ele>997.4</ele>
        <time>2022-08-29T07:57:36Z</time>
      </trkpt>
      <trkpt lat="45.95686" lon="3.69413">
        <ele>997.4</ele>
        <time>2022-08-29T07:57:37Z</time>
      </trkpt>
      <trkpt lat="45.95686" lon="3.69413">
        <ele>997.4</ele>
        <time>2022-08-29T07:57:38Z</time>
      </trkpt>
      <trkpt lat="45.95686" lon="3.69413">
        <ele>997.4</ele>
        <time>2022-08-29T07:57:39Z</time>
      </trkpt>
      <trkpt lat="45.95686" lon="3.69413">
        <ele>997.4</ele>
        <time>2022-08-29T07:57:40Z</time>
      </trkpt>
      <trkpt lat="45.95685" lon="3.69413">
        <ele>997.4</ele>
        <time>2022-08-29T07:57:41Z</time>
      </trkpt>
      <trkpt lat="45.95684" lon="3.69413">
        <ele>997.4</ele>
        <time>2022-08-29T07:57:42Z</time>
      </trkpt>
      <trkpt lat="45.95683" lon="3.69413">
        <ele>997.4</ele>
        <time>2022-08-29T07:57:43Z</time>
      </trkpt>
      <trkpt lat="45.95682" lon="3.69412">
        <ele>997.4</ele>
        <time>2022-08-29T07:57:44Z</time>
      </trkpt>
      <trkpt lat="45.95679" lon="3.69412">
        <ele>997.4</ele>
        <time>2022-08-29T07:57:45Z</time>
      </trkpt>
      <trkpt lat="45.95678" lon="3.69412">
        <ele>997.3</ele>
        <time>2022-08-29T07:57:46Z</time>
      </trkpt>
      <trkpt lat="45.95674" lon="3.69412">
        <ele>997.2</ele>
        <time>2022-08-29T07:57:47Z</time>
      </trkpt>
      <trkpt lat="45.95673" lon="3.69412">
        <ele>997.1</ele>
        <time>2022-08-29T07:57:48Z</time>
      </trkpt>
      <trkpt lat="45.95669" lon="3.69412">
        <ele>996.9</ele>
        <time>2022-08-29T07:57:49Z</time>
      </trkpt>
      <trkpt lat="45.95667" lon="3.69412">
        <ele>996.8</ele>
        <time>2022-08-29T07:57:50Z</time>
      </trkpt>
      <trkpt lat="45.95663" lon="3.69411">
        <ele>996.6</ele>
        <time>2022-08-29T07:57:51Z</time>
      </trkpt>
      <trkpt lat="45.9566" lon="3.69411">
        <ele>996.5</ele>
        <time>2022-08-29T07:57:52Z</time>
      </trkpt>
      <trkpt lat="45.95656" lon="3.6941">
        <ele>996.3</ele>
        <time>2022-08-29T07:57:53Z</time>
      </trkpt>
      <trkpt lat="45.95655" lon="3.6941">
        <ele>996.3</ele>
        <time>2022-08-29T07:57:54Z</time>
      </trkpt>
      <trkpt lat="45.95651" lon="3.69409">
        <ele>996.2</ele>
        <time>2022-08-29T07:57:55Z</time>
      </trkpt>
      <trkpt lat="45.95649" lon="3.69409">
        <ele>996.2</ele>
        <time>2022-08-29T07:57:56Z</time>
      </trkpt>
      <trkpt lat="45.95646" lon="3.69409">
        <ele>996.2</ele>
        <time>2022-08-29T07:57:57Z</time>
      </trkpt>
      <trkpt lat="45.95645" lon="3.69409">
        <ele>996.2</ele>
        <time>2022-08-29T07:57:58Z</time>
      </trkpt>
      <trkpt lat="45.95642" lon="3.69409">
        <ele>996.2</ele>
        <time>2022-08-29T07:57:59Z</time>
      </trkpt>
      <trkpt lat="45.95642" lon="3.69409">
        <ele>996.2</ele>
        <time>2022-08-29T07:58:00Z</time>
      </trkpt>
      <trkpt lat="45.95638" lon="3.69408">
        <ele>996.3</ele>
        <time>2022-08-29T07:58:01Z</time>
      </trkpt>
      <trkpt lat="45.95638" lon="3.69408">
        <ele>996.3</ele>
        <time>2022-08-29T07:58:02Z</time>
      </trkpt>
      <trkpt lat="45.95636" lon="3.69408">
        <ele>996.4</ele>
        <time>2022-08-29T07:58:03Z</time>
      </trkpt>
      <trkpt lat="45.95634" lon="3.69408">
        <ele>996.4</ele>
        <time>2022-08-29T07:58:04Z</time>
      </trkpt>
      <trkpt lat="45.95631" lon="3.69408">
        <ele>996.8</ele>
        <time>2022-08-29T07:58:05Z</time>
      </trkpt>
      <trkpt lat="45.9563" lon="3.69408">
        <ele>996.9</ele>
        <time>2022-08-29T07:58:06Z</time>
      </trkpt>
      <trkpt lat="45.95628" lon="3.69407">
        <ele>997</ele>
        <time>2022-08-29T07:58:07Z</time>
      </trkpt>
      <trkpt lat="45.95627" lon="3.69407">
        <ele>997.1</ele>
        <time>2022-08-29T07:58:08Z</time>
      </trkpt>
      <trkpt lat="45.95624" lon="3.69408">
        <ele>997.3</ele>
        <time>2022-08-29T07:58:09Z</time>
      </trkpt>
      <trkpt lat="45.95624" lon="3.69408">
        <ele>997.3</ele>
        <time>2022-08-29T07:58:10Z</time>
      </trkpt>
      <trkpt lat="45.95623" lon="3.69408">
        <ele>997.4</ele>
        <time>2022-08-29T07:58:11Z</time>
      </trkpt>
      <trkpt lat="45.95622" lon="3.69409">
        <ele>997.5</ele>
        <time>2022-08-29T07:58:12Z</time>
      </trkpt>
      <trkpt lat="45.95621" lon="3.69409">
        <ele>997.6</ele>
        <time>2022-08-29T07:58:13Z</time>
      </trkpt>
      <trkpt lat="45.9562" lon="3.6941">
        <ele>997.7</ele>
        <time>2022-08-29T07:58:14Z</time>
      </trkpt>
      <trkpt lat="45.9562" lon="3.69411">
        <ele>997.8</ele>
        <time>2022-08-29T07:58:15Z</time>
      </trkpt>
      <trkpt lat="45.95619" lon="3.69411">
        <ele>997.8</ele>
        <time>2022-08-29T07:58:16Z</time>
      </trkpt>
      <trkpt lat="45.95618" lon="3.69412">
        <ele>997.9</ele>
        <time>2022-08-29T07:58:17Z</time>
      </trkpt>
      <trkpt lat="45.95618" lon="3.69413">
        <ele>998</ele>
        <time>2022-08-29T07:58:18Z</time>
      </trkpt>
      <trkpt lat="45.95617" lon="3.69414">
        <ele>998.1</ele>
        <time>2022-08-29T07:58:19Z</time>
      </trkpt>
      <trkpt lat="45.95616" lon="3.69415">
        <ele>998.2</ele>
        <time>2022-08-29T07:58:20Z</time>
      </trkpt>
      <trkpt lat="45.95616" lon="3.69416">
        <ele>998.3</ele>
        <time>2022-08-29T07:58:21Z</time>
      </trkpt>
      <trkpt lat="45.95615" lon="3.69417">
        <ele>998.4</ele>
        <time>2022-08-29T07:58:22Z</time>
      </trkpt>
      <trkpt lat="45.95615" lon="3.69417">
        <ele>998.5</ele>
        <time>2022-08-29T07:58:23Z</time>
      </trkpt>
      <trkpt lat="45.95614" lon="3.69418">
        <ele>998.6</ele>
        <time>2022-08-29T07:58:24Z</time>
      </trkpt>
      <trkpt lat="45.95613" lon="3.69419">
        <ele>998.7</ele>
        <time>2022-08-29T07:58:25Z</time>
      </trkpt>
      <trkpt lat="45.95612" lon="3.6942">
        <ele>998.8</ele>
        <time>2022-08-29T07:58:26Z</time>
      </trkpt>
      <trkpt lat="45.95611" lon="3.69421">
        <ele>999</ele>
        <time>2022-08-29T07:58:27Z</time>
      </trkpt>
      <trkpt lat="45.95611" lon="3.69422">
        <ele>999.1</ele>
        <time>2022-08-29T07:58:28Z</time>
      </trkpt>
      <trkpt lat="45.9561" lon="3.69422">
        <ele>999.2</ele>
        <time>2022-08-29T07:58:29Z</time>
      </trkpt>
      <trkpt lat="45.95609" lon="3.69423">
        <ele>999.2</ele>
        <time>2022-08-29T07:58:30Z</time>
      </trkpt>
      <trkpt lat="45.95608" lon="3.69423">
        <ele>999.4</ele>
        <time>2022-08-29T07:58:31Z</time>
      </trkpt>
      <trkpt lat="45.95607" lon="3.69423">
        <ele>999.5</ele>
        <time>2022-08-29T07:58:32Z</time>
      </trkpt>
      <trkpt lat="45.95606" lon="3.69423">
        <ele>999.6</ele>
        <time>2022-08-29T07:58:33Z</time>
      </trkpt>
      <trkpt lat="45.95606" lon="3.69423">
        <ele>999.6</ele>
        <time>2022-08-29T07:58:34Z</time>
      </trkpt>
      <trkpt lat="45.95605" lon="3.69423">
        <ele>999.7</ele>
        <time>2022-08-29T07:58:35Z</time>
      </trkpt>
      <trkpt lat="45.95604" lon="3.69423">
        <ele>999.8</ele>
        <time>2022-08-29T07:58:36Z</time>
      </trkpt>
      <trkpt lat="45.95603" lon="3.69422">
        <ele>999.9</ele>
        <time>2022-08-29T07:58:37Z</time>
      </trkpt>
      <trkpt lat="45.95602" lon="3.69422">
        <ele>1000.1</ele>
        <time>2022-08-29T07:58:38Z</time>
      </trkpt>
      <trkpt lat="45.95601" lon="3.69421">
        <ele>1000.2</ele>
        <time>2022-08-29T07:58:39Z</time>
      </trkpt>
      <trkpt lat="45.956" lon="3.6942">
        <ele>1000.3</ele>
        <time>2022-08-29T07:58:40Z</time>
      </trkpt>
      <trkpt lat="45.95599" lon="3.69418">
        <ele>1000.5</ele>
        <time>2022-08-29T07:58:41Z</time>
      </trkpt>
      <trkpt lat="45.95598" lon="3.69417">
        <ele>1000.7</ele>
        <time>2022-08-29T07:58:42Z</time>
      </trkpt>
      <trkpt lat="45.95596" lon="3.69416">
        <ele>1000.8</ele>
        <time>2022-08-29T07:58:43Z</time>
      </trkpt>
      <trkpt lat="45.95595" lon="3.69415">
        <ele>1001</ele>
        <time>2022-08-29T07:58:44Z</time>
      </trkpt>
      <trkpt lat="45.95594" lon="3.69414">
        <ele>1001.2</ele>
        <time>2022-08-29T07:58:45Z</time>
      </trkpt>
      <trkpt lat="45.95592" lon="3.69412">
        <ele>1001.4</ele>
        <time>2022-08-29T07:58:46Z</time>
      </trkpt>
      <trkpt lat="45.95591" lon="3.69411">
        <ele>1001.5</ele>
        <time>2022-08-29T07:58:47Z</time>
      </trkpt>
      <trkpt lat="45.9559" lon="3.6941">
        <ele>1001.7</ele>
        <time>2022-08-29T07:58:48Z</time>
      </trkpt>
      <trkpt lat="45.95589" lon="3.6941">
        <ele>1001.8</ele>
        <time>2022-08-29T07:58:49Z</time>
      </trkpt>
      <trkpt lat="45.95588" lon="3.69409">
        <ele>1001.9</ele>
        <time>2022-08-29T07:58:50Z</time>
      </trkpt>
      <trkpt lat="45.95586" lon="3.69408">
        <ele>1002.1</ele>
        <time>2022-08-29T07:58:51Z</time>
      </trkpt>
      <trkpt lat="45.95585" lon="3.69408">
        <ele>1002.2</ele>
        <time>2022-08-29T07:58:52Z</time>
      </trkpt>
      <trkpt lat="45.95583" lon="3.69408">
        <ele>1002.4</ele>
        <time>2022-08-29T07:58:53Z</time>
      </trkpt>
      <trkpt lat="45.95582" lon="3.69408">
        <ele>1002.5</ele>
        <time>2022-08-29T07:58:54Z</time>
      </trkpt>
      <trkpt lat="45.95579" lon="3.69408">
        <ele>1002.7</ele>
        <time>2022-08-29T07:58:55Z</time>
      </trkpt>
      <trkpt lat="45.95578" lon="3.69408">
        <ele>1002.8</ele>
        <time>2022-08-29T07:58:56Z</time>
      </trkpt>
      <trkpt lat="45.95576" lon="3.69408">
        <ele>1002.9</ele>
        <time>2022-08-29T07:58:57Z</time>
      </trkpt>
      <trkpt lat="45.95574" lon="3.69409">
        <ele>1003.1</ele>
        <time>2022-08-29T07:58:58Z</time>
      </trkpt>
      <trkpt lat="45.95571" lon="3.69409">
        <ele>1003.3</ele>
        <time>2022-08-29T07:58:59Z</time>
      </trkpt>
      <trkpt lat="45.9557" lon="3.69409">
        <ele>1003.4</ele>
        <time>2022-08-29T07:59:00Z</time>
      </trkpt>
      <trkpt lat="45.95568" lon="3.6941">
        <ele>1003.6</ele>
        <time>2022-08-29T07:59:01Z</time>
      </trkpt>
      <trkpt lat="45.95565" lon="3.69409">
        <ele>1003.8</ele>
        <time>2022-08-29T07:59:02Z</time>
      </trkpt>
      <trkpt lat="45.95564" lon="3.69409">
        <ele>1003.9</ele>
        <time>2022-08-29T07:59:03Z</time>
      </trkpt>
      <trkpt lat="45.95562" lon="3.69409">
        <ele>1004</ele>
        <time>2022-08-29T07:59:04Z</time>
      </trkpt>
      <trkpt lat="45.95561" lon="3.69409">
        <ele>1004.1</ele>
        <time>2022-08-29T07:59:05Z</time>
      </trkpt>
      <trkpt lat="45.95559" lon="3.69409">
        <ele>1004.2</ele>
        <time>2022-08-29T07:59:06Z</time>
      </trkpt>
      <trkpt lat="45.95558" lon="3.69409">
        <ele>1004.2</ele>
        <time>2022-08-29T07:59:07Z</time>
      </trkpt>
      <trkpt lat="45.95558" lon="3.6941">
        <ele>1004.3</ele>
        <time>2022-08-29T07:59:08Z</time>
      </trkpt>
      <trkpt lat="45.95557" lon="3.69411">
        <ele>1004.4</ele>
        <time>2022-08-29T07:59:09Z</time>
      </trkpt>
      <trkpt lat="45.95556" lon="3.69412">
        <ele>1004.5</ele>
        <time>2022-08-29T07:59:10Z</time>
      </trkpt>
      <trkpt lat="45.95555" lon="3.69412">
        <ele>1004.6</ele>
        <time>2022-08-29T07:59:11Z</time>
      </trkpt>
      <trkpt lat="45.95554" lon="3.69413">
        <ele>1004.6</ele>
        <time>2022-08-29T07:59:12Z</time>
      </trkpt>
      <trkpt lat="45.95554" lon="3.69413">
        <ele>1004.6</ele>
        <time>2022-08-29T07:59:13Z</time>
      </trkpt>
      <trkpt lat="45.95554" lon="3.69413">
        <ele>1004.6</ele>
        <time>2022-08-29T07:59:14Z</time>
      </trkpt>
      <trkpt lat="45.95554" lon="3.69413">
        <ele>1004.7</ele>
        <time>2022-08-29T07:59:15Z</time>
      </trkpt>
      <trkpt lat="45.95555" lon="3.69414">
        <ele>1004.7</ele>
        <time>2022-08-29T07:59:16Z</time>
      </trkpt>
      <trkpt lat="45.95554" lon="3.69414">
        <ele>1004.7</ele>
        <time>2022-08-29T07:59:17Z</time>
      </trkpt>
      <trkpt lat="45.95554" lon="3.69414">
        <ele>1004.8</ele>
        <time>2022-08-29T07:59:18Z</time>
      </trkpt>
      <trkpt lat="45.95553" lon="3.69414">
        <ele>1004.8</ele>
        <time>2022-08-29T07:59:19Z</time>
      </trkpt>
      <trkpt lat="45.95551" lon="3.69414">
        <ele>1004.9</ele>
        <time>2022-08-29T07:59:20Z</time>
      </trkpt>
      <trkpt lat="45.95549" lon="3.69414">
        <ele>1005.1</ele>
        <time>2022-08-29T07:59:21Z</time>
      </trkpt>
      <trkpt lat="45.95549" lon="3.69414">
        <ele>1005.2</ele>
        <time>2022-08-29T07:59:22Z</time>
      </trkpt>
      <trkpt lat="45.95548" lon="3.69414">
        <ele>1005.2</ele>
        <time>2022-08-29T07:59:23Z</time>
      </trkpt>
      <trkpt lat="45.95546" lon="3.69414">
        <ele>1005.3</ele>
        <time>2022-08-29T07:59:24Z</time>
      </trkpt>
      <trkpt lat="45.95544" lon="3.69414">
        <ele>1005.5</ele>
        <time>2022-08-29T07:59:25Z</time>
      </trkpt>
      <trkpt lat="45.95541" lon="3.69415">
        <ele>1005.7</ele>
        <time>2022-08-29T07:59:26Z</time>
      </trkpt>
      <trkpt lat="45.9554" lon="3.69415">
        <ele>1005.8</ele>
        <time>2022-08-29T07:59:27Z</time>
      </trkpt>
      <trkpt lat="45.95539" lon="3.69416">
        <ele>1005.9</ele>
        <time>2022-08-29T07:59:28Z</time>
      </trkpt>
      <trkpt lat="45.95538" lon="3.69417">
        <ele>1006</ele>
        <time>2022-08-29T07:59:29Z</time>
      </trkpt>
      <trkpt lat="45.95536" lon="3.69417">
        <ele>1006.2</ele>
        <time>2022-08-29T07:59:30Z</time>
      </trkpt>
      <trkpt lat="45.95535" lon="3.69418">
        <ele>1006.2</ele>
        <time>2022-08-29T07:59:31Z</time>
      </trkpt>
      <trkpt lat="45.95534" lon="3.69418">
        <ele>1006.3</ele>
        <time>2022-08-29T07:59:32Z</time>
      </trkpt>
      <trkpt lat="45.95534" lon="3.69419">
        <ele>1006.3</ele>
        <time>2022-08-29T07:59:33Z</time>
      </trkpt>
      <trkpt lat="45.95533" lon="3.69419">
        <ele>1006.4</ele>
        <time>2022-08-29T07:59:34Z</time>
      </trkpt>
      <trkpt lat="45.95533" lon="3.6942">
        <ele>1006.4</ele>
        <time>2022-08-29T07:59:35Z</time>
      </trkpt>
      <trkpt lat="45.95533" lon="3.6942">
        <ele>1006.5</ele>
        <time>2022-08-29T07:59:36Z</time>
      </trkpt>
      <trkpt lat="45.95532" lon="3.69421">
        <ele>1006.5</ele>
        <time>2022-08-29T07:59:37Z</time>
      </trkpt>
      <trkpt lat="45.95532" lon="3.69422">
        <ele>1006.6</ele>
        <time>2022-08-29T07:59:38Z</time>
      </trkpt>
      <trkpt lat="45.95531" lon="3.69423">
        <ele>1006.6</ele>
        <time>2022-08-29T07:59:39Z</time>
      </trkpt>
      <trkpt lat="45.95531" lon="3.69425">
        <ele>1006.7</ele>
        <time>2022-08-29T07:59:40Z</time>
      </trkpt>
      <trkpt lat="45.95531" lon="3.69427">
        <ele>1006.9</ele>
        <time>2022-08-29T07:59:41Z</time>
      </trkpt>
      <trkpt lat="45.9553" lon="3.69429">
        <ele>1006.9</ele>
        <time>2022-08-29T07:59:42Z</time>
      </trkpt>
      <trkpt lat="45.9553" lon="3.6943">
        <ele>1007</ele>
        <time>2022-08-29T07:59:43Z</time>
      </trkpt>
      <trkpt lat="45.95529" lon="3.69432">
        <ele>1007.1</ele>
        <time>2022-08-29T07:59:44Z</time>
      </trkpt>
      <trkpt lat="45.95527" lon="3.69435">
        <ele>1007.3</ele>
        <time>2022-08-29T07:59:45Z</time>
      </trkpt>
      <trkpt lat="45.95526" lon="3.69437">
        <ele>1007.4</ele>
        <time>2022-08-29T07:59:46Z</time>
      </trkpt>
      <trkpt lat="45.95524" lon="3.69438">
        <ele>1007.6</ele>
        <time>2022-08-29T07:59:47Z</time>
      </trkpt>
      <trkpt lat="45.95523" lon="3.69438">
        <ele>1007.7</ele>
        <time>2022-08-29T07:59:48Z</time>
      </trkpt>
      <trkpt lat="45.95519" lon="3.69439">
        <ele>1007.9</ele>
        <time>2022-08-29T07:59:49Z</time>
      </trkpt>
      <trkpt lat="45.95518" lon="3.69439">
        <ele>1008</ele>
        <time>2022-08-29T07:59:50Z</time>
      </trkpt>
      <trkpt lat="45.95515" lon="3.6944">
        <ele>1008.3</ele>
        <time>2022-08-29T07:59:51Z</time>
      </trkpt>
      <trkpt lat="45.95511" lon="3.69439">
        <ele>1008.6</ele>
        <time>2022-08-29T07:59:52Z</time>
      </trkpt>
      <trkpt lat="45.95509" lon="3.69439">
        <ele>1008.6</ele>
        <time>2022-08-29T07:59:53Z</time>
      </trkpt>
      <trkpt lat="45.95506" lon="3.69439">
        <ele>1008.9</ele>
        <time>2022-08-29T07:59:54Z</time>
      </trkpt>
      <trkpt lat="45.95505" lon="3.69439">
        <ele>1009</ele>
        <time>2022-08-29T07:59:55Z</time>
      </trkpt>
      <trkpt lat="45.95502" lon="3.6944">
        <ele>1009.2</ele>
        <time>2022-08-29T07:59:56Z</time>
      </trkpt>
      <trkpt lat="45.95499" lon="3.6944">
        <ele>1009.4</ele>
        <time>2022-08-29T07:59:57Z</time>
      </trkpt>
      <trkpt lat="45.95498" lon="3.69441">
        <ele>1009.4</ele>
        <time>2022-08-29T07:59:58Z</time>
      </trkpt>
      <trkpt lat="45.95495" lon="3.69441">
        <ele>1009.6</ele>
        <time>2022-08-29T07:59:59Z</time>
      </trkpt>
      <trkpt lat="45.95494" lon="3.69442">
        <ele>1009.7</ele>
        <time>2022-08-29T08:00:00Z</time>
      </trkpt>
      <trkpt lat="45.95491" lon="3.69443">
        <ele>1009.9</ele>
        <time>2022-08-29T08:00:01Z</time>
      </trkpt>
      <trkpt lat="45.9549" lon="3.69443">
        <ele>1009.9</ele>
        <time>2022-08-29T08:00:02Z</time>
      </trkpt>
      <trkpt lat="45.95487" lon="3.69444">
        <ele>1010.1</ele>
        <time>2022-08-29T08:00:03Z</time>
      </trkpt>
      <trkpt lat="45.95486" lon="3.69444">
        <ele>1010.2</ele>
        <time>2022-08-29T08:00:04Z</time>
      </trkpt>
      <trkpt lat="45.95482" lon="3.69445">
        <ele>1010.3</ele>
        <time>2022-08-29T08:00:05Z</time>
      </trkpt>
      <trkpt lat="45.95481" lon="3.69445">
        <ele>1010.4</ele>
        <time>2022-08-29T08:00:06Z</time>
      </trkpt>
      <trkpt lat="45.95478" lon="3.69446">
        <ele>1010.5</ele>
        <time>2022-08-29T08:00:07Z</time>
      </trkpt>
      <trkpt lat="45.95477" lon="3.69446">
        <ele>1010.5</ele>
        <time>2022-08-29T08:00:08Z</time>
      </trkpt>
      <trkpt lat="45.95475" lon="3.69446">
        <ele>1010.6</ele>
        <time>2022-08-29T08:00:09Z</time>
      </trkpt>
      <trkpt lat="45.95474" lon="3.69447">
        <ele>1010.6</ele>
        <time>2022-08-29T08:00:10Z</time>
      </trkpt>
      <trkpt lat="45.95472" lon="3.69447">
        <ele>1010.6</ele>
        <time>2022-08-29T08:00:11Z</time>
      </trkpt>
      <trkpt lat="45.95471" lon="3.69448">
        <ele>1010.7</ele>
        <time>2022-08-29T08:00:12Z</time>
      </trkpt>
      <trkpt lat="45.95469" lon="3.69448">
        <ele>1010.7</ele>
        <time>2022-08-29T08:00:13Z</time>
      </trkpt>
      <trkpt lat="45.95468" lon="3.69448">
        <ele>1010.7</ele>
        <time>2022-08-29T08:00:14Z</time>
      </trkpt>
      <trkpt lat="45.95466" lon="3.69449">
        <ele>1010.7</ele>
        <time>2022-08-29T08:00:15Z</time>
      </trkpt>
      <trkpt lat="45.95464" lon="3.6945">
        <ele>1010.8</ele>
        <time>2022-08-29T08:00:16Z</time>
      </trkpt>
      <trkpt lat="45.95462" lon="3.69451">
        <ele>1010.8</ele>
        <time>2022-08-29T08:00:17Z</time>
      </trkpt>
      <trkpt lat="45.95461" lon="3.69451">
        <ele>1010.8</ele>
        <time>2022-08-29T08:00:18Z</time>
      </trkpt>
      <trkpt lat="45.95459" lon="3.69452">
        <ele>1010.8</ele>
        <time>2022-08-29T08:00:19Z</time>
      </trkpt>
      <trkpt lat="45.95458" lon="3.69453">
        <ele>1010.9</ele>
        <time>2022-08-29T08:00:20Z</time>
      </trkpt>
      <trkpt lat="45.95456" lon="3.69454">
        <ele>1010.9</ele>
        <time>2022-08-29T08:00:21Z</time>
      </trkpt>
      <trkpt lat="45.95454" lon="3.69454">
        <ele>1010.9</ele>
        <time>2022-08-29T08:00:22Z</time>
      </trkpt>
      <trkpt lat="45.95453" lon="3.69455">
        <ele>1011</ele>
        <time>2022-08-29T08:00:23Z</time>
      </trkpt>
      <trkpt lat="45.95451" lon="3.69456">
        <ele>1011</ele>
        <time>2022-08-29T08:00:24Z</time>
      </trkpt>
      <trkpt lat="45.9545" lon="3.69457">
        <ele>1011</ele>
        <time>2022-08-29T08:00:25Z</time>
      </trkpt>
      <trkpt lat="45.95449" lon="3.69459">
        <ele>1011.1</ele>
        <time>2022-08-29T08:00:26Z</time>
      </trkpt>
      <trkpt lat="45.95448" lon="3.69459">
        <ele>1011.1</ele>
        <time>2022-08-29T08:00:27Z</time>
      </trkpt>
      <trkpt lat="45.95447" lon="3.6946">
        <ele>1011.2</ele>
        <time>2022-08-29T08:00:28Z</time>
      </trkpt>
      <trkpt lat="45.95446" lon="3.69461">
        <ele>1011.2</ele>
        <time>2022-08-29T08:00:29Z</time>
      </trkpt>
      <trkpt lat="45.95445" lon="3.69461">
        <ele>1011.2</ele>
        <time>2022-08-29T08:00:30Z</time>
      </trkpt>
      <trkpt lat="45.95444" lon="3.69462">
        <ele>1011.3</ele>
        <time>2022-08-29T08:00:31Z</time>
      </trkpt>
      <trkpt lat="45.95443" lon="3.69463">
        <ele>1011.3</ele>
        <time>2022-08-29T08:00:32Z</time>
      </trkpt>
      <trkpt lat="45.95442" lon="3.69463">
        <ele>1011.4</ele>
        <time>2022-08-29T08:00:33Z</time>
      </trkpt>
      <trkpt lat="45.95441" lon="3.69463">
        <ele>1011.4</ele>
        <time>2022-08-29T08:00:34Z</time>
      </trkpt>
      <trkpt lat="45.9544" lon="3.69463">
        <ele>1011.4</ele>
        <time>2022-08-29T08:00:35Z</time>
      </trkpt>
      <trkpt lat="45.95439" lon="3.69463">
        <ele>1011.5</ele>
        <time>2022-08-29T08:00:36Z</time>
      </trkpt>
      <trkpt lat="45.95438" lon="3.69463">
        <ele>1011.5</ele>
        <time>2022-08-29T08:00:37Z</time>
      </trkpt>
      <trkpt lat="45.95438" lon="3.69463">
        <ele>1011.5</ele>
        <time>2022-08-29T08:00:38Z</time>
      </trkpt>
      <trkpt lat="45.95437" lon="3.69463">
        <ele>1011.5</ele>
        <time>2022-08-29T08:00:39Z</time>
      </trkpt>
      <trkpt lat="45.95435" lon="3.69464">
        <ele>1011.6</ele>
        <time>2022-08-29T08:00:40Z</time>
      </trkpt>
      <trkpt lat="45.95434" lon="3.69464">
        <ele>1011.6</ele>
        <time>2022-08-29T08:00:41Z</time>
      </trkpt>
      <trkpt lat="45.95431" lon="3.69464">
        <ele>1011.7</ele>
        <time>2022-08-29T08:00:42Z</time>
      </trkpt>
      <trkpt lat="45.9543" lon="3.69464">
        <ele>1011.7</ele>
        <time>2022-08-29T08:00:43Z</time>
      </trkpt>
      <trkpt lat="45.95427" lon="3.69463">
        <ele>1011.8</ele>
        <time>2022-08-29T08:00:44Z</time>
      </trkpt>
      <trkpt lat="45.95425" lon="3.69463">
        <ele>1011.8</ele>
        <time>2022-08-29T08:00:45Z</time>
      </trkpt>
      <trkpt lat="45.95423" lon="3.69463">
        <ele>1011.8</ele>
        <time>2022-08-29T08:00:46Z</time>
      </trkpt>
      <trkpt lat="45.95419" lon="3.69464">
        <ele>1011.9</ele>
        <time>2022-08-29T08:00:47Z</time>
      </trkpt>
      <trkpt lat="45.95418" lon="3.69464">
        <ele>1011.9</ele>
        <time>2022-08-29T08:00:48Z</time>
      </trkpt>
      <trkpt lat="45.95416" lon="3.69465">
        <ele>1011.9</ele>
        <time>2022-08-29T08:00:49Z</time>
      </trkpt>
      <trkpt lat="45.95415" lon="3.69465">
        <ele>1011.9</ele>
        <time>2022-08-29T08:00:50Z</time>
      </trkpt>
      <trkpt lat="45.95413" lon="3.69466">
        <ele>1011.9</ele>
        <time>2022-08-29T08:00:51Z</time>
      </trkpt>
      <trkpt lat="45.95412" lon="3.69466">
        <ele>1011.9</ele>
        <time>2022-08-29T08:00:52Z</time>
      </trkpt>
      <trkpt lat="45.95411" lon="3.69466">
        <ele>1011.9</ele>
        <time>2022-08-29T08:00:53Z</time>
      </trkpt>
      <trkpt lat="45.9541" lon="3.69466">
        <ele>1011.9</ele>
        <time>2022-08-29T08:00:54Z</time>
      </trkpt>
      <trkpt lat="45.95408" lon="3.69467">
        <ele>1011.9</ele>
        <time>2022-08-29T08:00:55Z</time>
      </trkpt>
      <trkpt lat="45.95406" lon="3.69467">
        <ele>1011.9</ele>
        <time>2022-08-29T08:00:56Z</time>
      </trkpt>
      <trkpt lat="45.95404" lon="3.69467">
        <ele>1011.9</ele>
        <time>2022-08-29T08:00:57Z</time>
      </trkpt>
      <trkpt lat="45.95403" lon="3.69467">
        <ele>1011.9</ele>
        <time>2022-08-29T08:00:58Z</time>
      </trkpt>
      <trkpt lat="45.95402" lon="3.69468">
        <ele>1011.9</ele>
        <time>2022-08-29T08:00:59Z</time>
      </trkpt>
      <trkpt lat="45.954" lon="3.69468">
        <ele>1011.9</ele>
        <time>2022-08-29T08:01:00Z</time>
      </trkpt>
      <trkpt lat="45.95398" lon="3.69469">
        <ele>1011.9</ele>
        <time>2022-08-29T08:01:01Z</time>
      </trkpt>
      <trkpt lat="45.95395" lon="3.6947">
        <ele>1011.9</ele>
        <time>2022-08-29T08:01:02Z</time>
      </trkpt>
      <trkpt lat="45.95394" lon="3.6947">
        <ele>1011.9</ele>
        <time>2022-08-29T08:01:03Z</time>
      </trkpt>
      <trkpt lat="45.95391" lon="3.69471">
        <ele>1011.9</ele>
        <time>2022-08-29T08:01:04Z</time>
      </trkpt>
      <trkpt lat="45.95389" lon="3.69472">
        <ele>1011.9</ele>
        <time>2022-08-29T08:01:05Z</time>
      </trkpt>
      <trkpt lat="45.95386" lon="3.69472">
        <ele>1011.9</ele>
        <time>2022-08-29T08:01:06Z</time>
      </trkpt>
      <trkpt lat="45.95385" lon="3.69472">
        <ele>1011.8</ele>
        <time>2022-08-29T08:01:07Z</time>
      </trkpt>
      <trkpt lat="45.95382" lon="3.69472">
        <ele>1011.8</ele>
        <time>2022-08-29T08:01:08Z</time>
      </trkpt>
      <trkpt lat="45.95381" lon="3.69472">
        <ele>1011.8</ele>
        <time>2022-08-29T08:01:09Z</time>
      </trkpt>
      <trkpt lat="45.9538" lon="3.69472">
        <ele>1011.8</ele>
        <time>2022-08-29T08:01:10Z</time>
      </trkpt>
      <trkpt lat="45.95378" lon="3.69472">
        <ele>1011.8</ele>
        <time>2022-08-29T08:01:11Z</time>
      </trkpt>
      <trkpt lat="45.95377" lon="3.69471">
        <ele>1011.8</ele>
        <time>2022-08-29T08:01:12Z</time>
      </trkpt>
      <trkpt lat="45.95376" lon="3.69471">
        <ele>1011.8</ele>
        <time>2022-08-29T08:01:13Z</time>
      </trkpt>
      <trkpt lat="45.95375" lon="3.6947">
        <ele>1011.8</ele>
        <time>2022-08-29T08:01:14Z</time>
      </trkpt>
      <trkpt lat="45.95373" lon="3.6947">
        <ele>1011.7</ele>
        <time>2022-08-29T08:01:15Z</time>
      </trkpt>
      <trkpt lat="45.95372" lon="3.6947">
        <ele>1011.7</ele>
        <time>2022-08-29T08:01:16Z</time>
      </trkpt>
      <trkpt lat="45.95372" lon="3.69469">
        <ele>1011.7</ele>
        <time>2022-08-29T08:01:17Z</time>
      </trkpt>
      <trkpt lat="45.95369" lon="3.69469">
        <ele>1011.7</ele>
        <time>2022-08-29T08:01:18Z</time>
      </trkpt>
      <trkpt lat="45.95368" lon="3.69469">
        <ele>1011.7</ele>
        <time>2022-08-29T08:01:19Z</time>
      </trkpt>
      <trkpt lat="45.95368" lon="3.69469">
        <ele>1011.7</ele>
        <time>2022-08-29T08:01:20Z</time>
      </trkpt>
      <trkpt lat="45.95366" lon="3.69469">
        <ele>1011.7</ele>
        <time>2022-08-29T08:01:21Z</time>
      </trkpt>
      <trkpt lat="45.95365" lon="3.69469">
        <ele>1011.7</ele>
        <time>2022-08-29T08:01:22Z</time>
      </trkpt>
      <trkpt lat="45.95362" lon="3.6947">
        <ele>1011.6</ele>
        <time>2022-08-29T08:01:23Z</time>
      </trkpt>
      <trkpt lat="45.95361" lon="3.69471">
        <ele>1011.6</ele>
        <time>2022-08-29T08:01:24Z</time>
      </trkpt>
      <trkpt lat="45.95359" lon="3.69472">
        <ele>1011.5</ele>
        <time>2022-08-29T08:01:25Z</time>
      </trkpt>
      <trkpt lat="45.95358" lon="3.69472">
        <ele>1011.5</ele>
        <time>2022-08-29T08:01:26Z</time>
      </trkpt>
      <trkpt lat="45.95356" lon="3.69473">
        <ele>1011.5</ele>
        <time>2022-08-29T08:01:27Z</time>
      </trkpt>
      <trkpt lat="45.95354" lon="3.69473">
        <ele>1011.4</ele>
        <time>2022-08-29T08:01:28Z</time>
      </trkpt>
      <trkpt lat="45.95353" lon="3.69474">
        <ele>1011.4</ele>
        <time>2022-08-29T08:01:29Z</time>
      </trkpt>
      <trkpt lat="45.95351" lon="3.69474">
        <ele>1011.4</ele>
        <time>2022-08-29T08:01:30Z</time>
      </trkpt>
      <trkpt lat="45.9535" lon="3.69475">
        <ele>1011.3</ele>
        <time>2022-08-29T08:01:31Z</time>
      </trkpt>
      <trkpt lat="45.95348" lon="3.69475">
        <ele>1011.3</ele>
        <time>2022-08-29T08:01:32Z</time>
      </trkpt>
      <trkpt lat="45.95347" lon="3.69475">
        <ele>1011.3</ele>
        <time>2022-08-29T08:01:33Z</time>
      </trkpt>
      <trkpt lat="45.95347" lon="3.69475">
        <ele>1011.3</ele>
        <time>2022-08-29T08:01:34Z</time>
      </trkpt>
      <trkpt lat="45.95347" lon="3.69475">
        <ele>1011.3</ele>
        <time>2022-08-29T08:01:35Z</time>
      </trkpt>
      <trkpt lat="45.95346" lon="3.69475">
        <ele>1011.3</ele>
        <time>2022-08-29T08:01:36Z</time>
      </trkpt>
      <trkpt lat="45.95346" lon="3.69475">
        <ele>1011.2</ele>
        <time>2022-08-29T08:01:37Z</time>
      </trkpt>
      <trkpt lat="45.95345" lon="3.69475">
        <ele>1011.2</ele>
        <time>2022-08-29T08:01:38Z</time>
      </trkpt>
      <trkpt lat="45.95344" lon="3.69475">
        <ele>1011.2</ele>
        <time>2022-08-29T08:01:39Z</time>
      </trkpt>
      <trkpt lat="45.95343" lon="3.69475">
        <ele>1011.2</ele>
        <time>2022-08-29T08:01:40Z</time>
      </trkpt>
      <trkpt lat="45.95342" lon="3.69476">
        <ele>1011.2</ele>
        <time>2022-08-29T08:01:41Z</time>
      </trkpt>
      <trkpt lat="45.9534" lon="3.69477">
        <ele>1011.1</ele>
        <time>2022-08-29T08:01:42Z</time>
      </trkpt>
      <trkpt lat="45.95339" lon="3.69478">
        <ele>1011.1</ele>
        <time>2022-08-29T08:01:43Z</time>
      </trkpt>
      <trkpt lat="45.95337" lon="3.69478">
        <ele>1011.1</ele>
        <time>2022-08-29T08:01:44Z</time>
      </trkpt>
      <trkpt lat="45.95335" lon="3.69479">
        <ele>1011.1</ele>
        <time>2022-08-29T08:01:45Z</time>
      </trkpt>
      <trkpt lat="45.95334" lon="3.69479">
        <ele>1011.1</ele>
        <time>2022-08-29T08:01:46Z</time>
      </trkpt>
      <trkpt lat="45.95332" lon="3.69479">
        <ele>1011.1</ele>
        <time>2022-08-29T08:01:47Z</time>
      </trkpt>
      <trkpt lat="45.9533" lon="3.69478">
        <ele>1011.1</ele>
        <time>2022-08-29T08:01:48Z</time>
      </trkpt>
      <trkpt lat="45.95329" lon="3.69478">
        <ele>1011.1</ele>
        <time>2022-08-29T08:01:49Z</time>
      </trkpt>
      <trkpt lat="45.95328" lon="3.69478">
        <ele>1011.1</ele>
        <time>2022-08-29T08:01:50Z</time>
      </trkpt>
      <trkpt lat="45.95327" lon="3.69478">
        <ele>1011.1</ele>
        <time>2022-08-29T08:01:51Z</time>
      </trkpt>
      <trkpt lat="45.95325" lon="3.69477">
        <ele>1011.1</ele>
        <time>2022-08-29T08:01:52Z</time>
      </trkpt>
      <trkpt lat="45.95322" lon="3.69477">
        <ele>1011.1</ele>
        <time>2022-08-29T08:01:53Z</time>
      </trkpt>
      <trkpt lat="45.95321" lon="3.69476">
        <ele>1011</ele>
        <time>2022-08-29T08:01:54Z</time>
      </trkpt>
      <trkpt lat="45.95318" lon="3.69476">
        <ele>1011</ele>
        <time>2022-08-29T08:01:55Z</time>
      </trkpt>
      <trkpt lat="45.95316" lon="3.69476">
        <ele>1011</ele>
        <time>2022-08-29T08:01:56Z</time>
      </trkpt>
      <trkpt lat="45.95313" lon="3.69476">
        <ele>1011</ele>
        <time>2022-08-29T08:01:57Z</time>
      </trkpt>
      <trkpt lat="45.95312" lon="3.69476">
        <ele>1011</ele>
        <time>2022-08-29T08:01:58Z</time>
      </trkpt>
      <trkpt lat="45.95309" lon="3.69477">
        <ele>1011</ele>
        <time>2022-08-29T08:01:59Z</time>
      </trkpt>
      <trkpt lat="45.95308" lon="3.69477">
        <ele>1010.9</ele>
        <time>2022-08-29T08:02:00Z</time>
      </trkpt>
      <trkpt lat="45.95307" lon="3.69478">
        <ele>1010.9</ele>
        <time>2022-08-29T08:02:01Z</time>
      </trkpt>
      <trkpt lat="45.95306" lon="3.69478">
        <ele>1010.9</ele>
        <time>2022-08-29T08:02:02Z</time>
      </trkpt>
      <trkpt lat="45.95305" lon="3.69478">
        <ele>1010.9</ele>
        <time>2022-08-29T08:02:03Z</time>
      </trkpt>
      <trkpt lat="45.95305" lon="3.69478">
        <ele>1010.9</ele>
        <time>2022-08-29T08:02:04Z</time>
      </trkpt>
      <trkpt lat="45.95304" lon="3.69478">
        <ele>1010.9</ele>
        <time>2022-08-29T08:02:05Z</time>
      </trkpt>
      <trkpt lat="45.95303" lon="3.69478">
        <ele>1010.9</ele>
        <time>2022-08-29T08:02:06Z</time>
      </trkpt>
      <trkpt lat="45.95302" lon="3.69479">
        <ele>1010.9</ele>
        <time>2022-08-29T08:02:07Z</time>
      </trkpt>
      <trkpt lat="45.95301" lon="3.69481">
        <ele>1010.9</ele>
        <time>2022-08-29T08:02:08Z</time>
      </trkpt>
      <trkpt lat="45.953" lon="3.69482">
        <ele>1010.9</ele>
        <time>2022-08-29T08:02:09Z</time>
      </trkpt>
      <trkpt lat="45.95299" lon="3.69482">
        <ele>1010.9</ele>
        <time>2022-08-29T08:02:10Z</time>
      </trkpt>
      <trkpt lat="45.95298" lon="3.69482">
        <ele>1010.9</ele>
        <time>2022-08-29T08:02:11Z</time>
      </trkpt>
      <trkpt lat="45.95296" lon="3.69481">
        <ele>1010.9</ele>
        <time>2022-08-29T08:02:12Z</time>
      </trkpt>
      <trkpt lat="45.95295" lon="3.69481">
        <ele>1010.9</ele>
        <time>2022-08-29T08:02:13Z</time>
      </trkpt>
      <trkpt lat="45.95293" lon="3.6948">
        <ele>1010.9</ele>
        <time>2022-08-29T08:02:14Z</time>
      </trkpt>
      <trkpt lat="45.9529" lon="3.6948">
        <ele>1010.9</ele>
        <time>2022-08-29T08:02:15Z</time>
      </trkpt>
      <trkpt lat="45.95288" lon="3.69479">
        <ele>1010.8</ele>
        <time>2022-08-29T08:02:16Z</time>
      </trkpt>
      <trkpt lat="45.95285" lon="3.69479">
        <ele>1010.8</ele>
        <time>2022-08-29T08:02:17Z</time>
      </trkpt>
      <trkpt lat="45.95283" lon="3.69479">
        <ele>1010.8</ele>
        <time>2022-08-29T08:02:18Z</time>
      </trkpt>
      <trkpt lat="45.9528" lon="3.69479">
        <ele>1010.7</ele>
        <time>2022-08-29T08:02:19Z</time>
      </trkpt>
      <trkpt lat="45.95278" lon="3.69479">
        <ele>1010.6</ele>
        <time>2022-08-29T08:02:20Z</time>
      </trkpt>
      <trkpt lat="45.95276" lon="3.6948">
        <ele>1010.5</ele>
        <time>2022-08-29T08:02:21Z</time>
      </trkpt>
      <trkpt lat="45.95272" lon="3.6948">
        <ele>1010.4</ele>
        <time>2022-08-29T08:02:22Z</time>
      </trkpt>
      <trkpt lat="45.95271" lon="3.69481">
        <ele>1010.3</ele>
        <time>2022-08-29T08:02:23Z</time>
      </trkpt>
      <trkpt lat="45.95267" lon="3.69481">
        <ele>1010.1</ele>
        <time>2022-08-29T08:02:24Z</time>
      </trkpt>
      <trkpt lat="45.95266" lon="3.69481">
        <ele>1010.1</ele>
        <time>2022-08-29T08:02:25Z</time>
      </trkpt>
      <trkpt lat="45.95263" lon="3.69482">
        <ele>1009.9</ele>
        <time>2022-08-29T08:02:26Z</time>
      </trkpt>
      <trkpt lat="45.95262" lon="3.69482">
        <ele>1009.9</ele>
        <time>2022-08-29T08:02:27Z</time>
      </trkpt>
      <trkpt lat="45.9526" lon="3.69482">
        <ele>1009.8</ele>
        <time>2022-08-29T08:02:28Z</time>
      </trkpt>
      <trkpt lat="45.9526" lon="3.69482">
        <ele>1009.8</ele>
        <time>2022-08-29T08:02:29Z</time>
      </trkpt>
      <trkpt lat="45.95259" lon="3.69482">
        <ele>1009.7</ele>
        <time>2022-08-29T08:02:30Z</time>
      </trkpt>
      <trkpt lat="45.95258" lon="3.69481">
        <ele>1009.7</ele>
        <time>2022-08-29T08:02:31Z</time>
      </trkpt>
      <trkpt lat="45.95257" lon="3.69481">
        <ele>1009.6</ele>
        <time>2022-08-29T08:02:32Z</time>
      </trkpt>
      <trkpt lat="45.95255" lon="3.69481">
        <ele>1009.6</ele>
        <time>2022-08-29T08:02:33Z</time>
      </trkpt>
      <trkpt lat="45.95254" lon="3.69481">
        <ele>1009.5</ele>
        <time>2022-08-29T08:02:34Z</time>
      </trkpt>
      <trkpt lat="45.95253" lon="3.6948">
        <ele>1009.4</ele>
        <time>2022-08-29T08:02:35Z</time>
      </trkpt>
      <trkpt lat="45.9525" lon="3.6948">
        <ele>1009.3</ele>
        <time>2022-08-29T08:02:36Z</time>
      </trkpt>
      <trkpt lat="45.9525" lon="3.69479">
        <ele>1009.3</ele>
        <time>2022-08-29T08:02:37Z</time>
      </trkpt>
      <trkpt lat="45.95249" lon="3.69479">
        <ele>1009.2</ele>
        <time>2022-08-29T08:02:38Z</time>
      </trkpt>
      <trkpt lat="45.95248" lon="3.69478">
        <ele>1009.2</ele>
        <time>2022-08-29T08:02:39Z</time>
      </trkpt>
      <trkpt lat="45.95246" lon="3.69477">
        <ele>1009.1</ele>
        <time>2022-08-29T08:02:40Z</time>
      </trkpt>
      <trkpt lat="45.95245" lon="3.69476">
        <ele>1009</ele>
        <time>2022-08-29T08:02:41Z</time>
      </trkpt>
      <trkpt lat="45.95244" lon="3.69475">
        <ele>1009</ele>
        <time>2022-08-29T08:02:42Z</time>
      </trkpt>
      <trkpt lat="45.95242" lon="3.69473">
        <ele>1008.9</ele>
        <time>2022-08-29T08:02:43Z</time>
      </trkpt>
      <trkpt lat="45.95242" lon="3.69473">
        <ele>1008.8</ele>
        <time>2022-08-29T08:02:44Z</time>
      </trkpt>
      <trkpt lat="45.95241" lon="3.69473">
        <ele>1008.8</ele>
        <time>2022-08-29T08:02:45Z</time>
      </trkpt>
      <trkpt lat="45.95239" lon="3.69472">
        <ele>1008.7</ele>
        <time>2022-08-29T08:02:46Z</time>
      </trkpt>
      <trkpt lat="45.95238" lon="3.69472">
        <ele>1008.6</ele>
        <time>2022-08-29T08:02:47Z</time>
      </trkpt>
      <trkpt lat="45.95234" lon="3.69471">
        <ele>1008.4</ele>
        <time>2022-08-29T08:02:48Z</time>
      </trkpt>
      <trkpt lat="45.95232" lon="3.69471">
        <ele>1008.3</ele>
        <time>2022-08-29T08:02:49Z</time>
      </trkpt>
      <trkpt lat="45.95229" lon="3.69471">
        <ele>1008.2</ele>
        <time>2022-08-29T08:02:50Z</time>
      </trkpt>
      <trkpt lat="45.95226" lon="3.69471">
        <ele>1008</ele>
        <time>2022-08-29T08:02:51Z</time>
      </trkpt>
      <trkpt lat="45.95225" lon="3.69472">
        <ele>1008</ele>
        <time>2022-08-29T08:02:52Z</time>
      </trkpt>
      <trkpt lat="45.95224" lon="3.69472">
        <ele>1007.9</ele>
        <time>2022-08-29T08:02:53Z</time>
      </trkpt>
      <trkpt lat="45.95222" lon="3.69472">
        <ele>1007.8</ele>
        <time>2022-08-29T08:02:54Z</time>
      </trkpt>
      <trkpt lat="45.95221" lon="3.69472">
        <ele>1007.7</ele>
        <time>2022-08-29T08:02:55Z</time>
      </trkpt>
      <trkpt lat="45.9522" lon="3.69472">
        <ele>1007.7</ele>
        <time>2022-08-29T08:02:56Z</time>
      </trkpt>
      <trkpt lat="45.95219" lon="3.69472">
        <ele>1007.6</ele>
        <time>2022-08-29T08:02:57Z</time>
      </trkpt>
      <trkpt lat="45.95218" lon="3.69472">
        <ele>1007.6</ele>
        <time>2022-08-29T08:02:58Z</time>
      </trkpt>
      <trkpt lat="45.95217" lon="3.69471">
        <ele>1007.5</ele>
        <time>2022-08-29T08:02:59Z</time>
      </trkpt>
      <trkpt lat="45.95217" lon="3.69471">
        <ele>1007.5</ele>
        <time>2022-08-29T08:03:00Z</time>
      </trkpt>
      <trkpt lat="45.95216" lon="3.69471">
        <ele>1007.4</ele>
        <time>2022-08-29T08:03:01Z</time>
      </trkpt>
      <trkpt lat="45.95215" lon="3.69471">
        <ele>1007.4</ele>
        <time>2022-08-29T08:03:02Z</time>
      </trkpt>
      <trkpt lat="45.95215" lon="3.69471">
        <ele>1007.4</ele>
        <time>2022-08-29T08:03:03Z</time>
      </trkpt>
      <trkpt lat="45.95214" lon="3.69471">
        <ele>1007.3</ele>
        <time>2022-08-29T08:03:04Z</time>
      </trkpt>
      <trkpt lat="45.95213" lon="3.6947">
        <ele>1007.2</ele>
        <time>2022-08-29T08:03:05Z</time>
      </trkpt>
      <trkpt lat="45.95212" lon="3.6947">
        <ele>1007.2</ele>
        <time>2022-08-29T08:03:06Z</time>
      </trkpt>
      <trkpt lat="45.95211" lon="3.69469">
        <ele>1007.1</ele>
        <time>2022-08-29T08:03:07Z</time>
      </trkpt>
      <trkpt lat="45.95209" lon="3.69468">
        <ele>1007</ele>
        <time>2022-08-29T08:03:08Z</time>
      </trkpt>
      <trkpt lat="45.95208" lon="3.69467">
        <ele>1006.9</ele>
        <time>2022-08-29T08:03:09Z</time>
      </trkpt>
      <trkpt lat="45.95206" lon="3.69465">
        <ele>1006.8</ele>
        <time>2022-08-29T08:03:10Z</time>
      </trkpt>
      <trkpt lat="45.95205" lon="3.69464">
        <ele>1006.7</ele>
        <time>2022-08-29T08:03:11Z</time>
      </trkpt>
      <trkpt lat="45.95203" lon="3.69461">
        <ele>1006.5</ele>
        <time>2022-08-29T08:03:12Z</time>
      </trkpt>
      <trkpt lat="45.95203" lon="3.6946">
        <ele>1006.5</ele>
        <time>2022-08-29T08:03:13Z</time>
      </trkpt>
      <trkpt lat="45.95201" lon="3.69459">
        <ele>1006.4</ele>
        <time>2022-08-29T08:03:14Z</time>
      </trkpt>
      <trkpt lat="45.952" lon="3.69458">
        <ele>1006.3</ele>
        <time>2022-08-29T08:03:15Z</time>
      </trkpt>
      <trkpt lat="45.95197" lon="3.69458">
        <ele>1006</ele>
        <time>2022-08-29T08:03:16Z</time>
      </trkpt>
      <trkpt lat="45.95196" lon="3.69458">
        <ele>1005.9</ele>
        <time>2022-08-29T08:03:17Z</time>
      </trkpt>
      <trkpt lat="45.95193" lon="3.69458">
        <ele>1005.7</ele>
        <time>2022-08-29T08:03:18Z</time>
      </trkpt>
      <trkpt lat="45.95192" lon="3.69458">
        <ele>1005.6</ele>
        <time>2022-08-29T08:03:19Z</time>
      </trkpt>
      <trkpt lat="45.95189" lon="3.69459">
        <ele>1005.3</ele>
        <time>2022-08-29T08:03:20Z</time>
      </trkpt>
      <trkpt lat="45.95188" lon="3.69459">
        <ele>1005.2</ele>
        <time>2022-08-29T08:03:21Z</time>
      </trkpt>
      <trkpt lat="45.95185" lon="3.69459">
        <ele>1004.9</ele>
        <time>2022-08-29T08:03:22Z</time>
      </trkpt>
      <trkpt lat="45.95184" lon="3.69459">
        <ele>1004.9</ele>
        <time>2022-08-29T08:03:23Z</time>
      </trkpt>
      <trkpt lat="45.95183" lon="3.69459">
        <ele>1004.8</ele>
        <time>2022-08-29T08:03:24Z</time>
      </trkpt>
      <trkpt lat="45.95182" lon="3.69459">
        <ele>1004.7</ele>
        <time>2022-08-29T08:03:25Z</time>
      </trkpt>
      <trkpt lat="45.95181" lon="3.69459">
        <ele>1004.6</ele>
        <time>2022-08-29T08:03:26Z</time>
      </trkpt>
      <trkpt lat="45.95179" lon="3.69458">
        <ele>1004.4</ele>
        <time>2022-08-29T08:03:27Z</time>
      </trkpt>
      <trkpt lat="45.95177" lon="3.69458">
        <ele>1004.2</ele>
        <time>2022-08-29T08:03:28Z</time>
      </trkpt>
      <trkpt lat="45.95175" lon="3.69458">
        <ele>1004</ele>
        <time>2022-08-29T08:03:29Z</time>
      </trkpt>
      <trkpt lat="45.95175" lon="3.69458">
        <ele>1004</ele>
        <time>2022-08-29T08:03:30Z</time>
      </trkpt>
      <trkpt lat="45.95174" lon="3.69458">
        <ele>1003.9</ele>
        <time>2022-08-29T08:03:31Z</time>
      </trkpt>
      <trkpt lat="45.95173" lon="3.69458">
        <ele>1003.8</ele>
        <time>2022-08-29T08:03:32Z</time>
      </trkpt>
      <trkpt lat="45.95172" lon="3.69458">
        <ele>1003.7</ele>
        <time>2022-08-29T08:03:33Z</time>
      </trkpt>
      <trkpt lat="45.95171" lon="3.69457">
        <ele>1003.6</ele>
        <time>2022-08-29T08:03:34Z</time>
      </trkpt>
      <trkpt lat="45.9517" lon="3.69457">
        <ele>1003.5</ele>
        <time>2022-08-29T08:03:35Z</time>
      </trkpt>
      <trkpt lat="45.95169" lon="3.69456">
        <ele>1003.4</ele>
        <time>2022-08-29T08:03:36Z</time>
      </trkpt>
      <trkpt lat="45.95168" lon="3.69455">
        <ele>1003.2</ele>
        <time>2022-08-29T08:03:37Z</time>
      </trkpt>
      <trkpt lat="45.95168" lon="3.69454">
        <ele>1003.2</ele>
        <time>2022-08-29T08:03:38Z</time>
      </trkpt>
      <trkpt lat="45.95167" lon="3.69454">
        <ele>1003.1</ele>
        <time>2022-08-29T08:03:39Z</time>
      </trkpt>
      <trkpt lat="45.95166" lon="3.69454">
        <ele>1003</ele>
        <time>2022-08-29T08:03:40Z</time>
      </trkpt>
      <trkpt lat="45.95165" lon="3.69453">
        <ele>1002.9</ele>
        <time>2022-08-29T08:03:41Z</time>
      </trkpt>
      <trkpt lat="45.95164" lon="3.69453">
        <ele>1002.7</ele>
        <time>2022-08-29T08:03:42Z</time>
      </trkpt>
      <trkpt lat="45.95163" lon="3.69452">
        <ele>1002.6</ele>
        <time>2022-08-29T08:03:43Z</time>
      </trkpt>
      <trkpt lat="45.95162" lon="3.69451">
        <ele>1002.5</ele>
        <time>2022-08-29T08:03:44Z</time>
      </trkpt>
      <trkpt lat="45.95161" lon="3.69449">
        <ele>1002.3</ele>
        <time>2022-08-29T08:03:45Z</time>
      </trkpt>
      <trkpt lat="45.9516" lon="3.69448">
        <ele>1002.2</ele>
        <time>2022-08-29T08:03:46Z</time>
      </trkpt>
      <trkpt lat="45.95159" lon="3.69447">
        <ele>1002.1</ele>
        <time>2022-08-29T08:03:47Z</time>
      </trkpt>
      <trkpt lat="45.95157" lon="3.69445">
        <ele>1001.8</ele>
        <time>2022-08-29T08:03:48Z</time>
      </trkpt>
      <trkpt lat="45.95157" lon="3.69445">
        <ele>1001.7</ele>
        <time>2022-08-29T08:03:49Z</time>
      </trkpt>
      <trkpt lat="45.95156" lon="3.69444">
        <ele>1001.6</ele>
        <time>2022-08-29T08:03:50Z</time>
      </trkpt>
      <trkpt lat="45.95154" lon="3.69444">
        <ele>1001.5</ele>
        <time>2022-08-29T08:03:51Z</time>
      </trkpt>
      <trkpt lat="45.95153" lon="3.69443">
        <ele>1001.3</ele>
        <time>2022-08-29T08:03:52Z</time>
      </trkpt>
      <trkpt lat="45.95151" lon="3.69443">
        <ele>1001.1</ele>
        <time>2022-08-29T08:03:53Z</time>
      </trkpt>
      <trkpt lat="45.9515" lon="3.69444">
        <ele>1000.9</ele>
        <time>2022-08-29T08:03:54Z</time>
      </trkpt>
      <trkpt lat="45.95148" lon="3.69443">
        <ele>1000.8</ele>
        <time>2022-08-29T08:03:55Z</time>
      </trkpt>
      <trkpt lat="45.95147" lon="3.69443">
        <ele>1000.6</ele>
        <time>2022-08-29T08:03:56Z</time>
      </trkpt>
      <trkpt lat="45.95145" lon="3.69442">
        <ele>1000.4</ele>
        <time>2022-08-29T08:03:57Z</time>
      </trkpt>
      <trkpt lat="45.95144" lon="3.69442">
        <ele>1000.2</ele>
        <time>2022-08-29T08:03:58Z</time>
      </trkpt>
      <trkpt lat="45.95143" lon="3.69443">
        <ele>1000</ele>
        <time>2022-08-29T08:03:59Z</time>
      </trkpt>
      <trkpt lat="45.95141" lon="3.69444">
        <ele>999.8</ele>
        <time>2022-08-29T08:04:00Z</time>
      </trkpt>
      <trkpt lat="45.95139" lon="3.69444">
        <ele>999.6</ele>
        <time>2022-08-29T08:04:01Z</time>
      </trkpt>
      <trkpt lat="45.95137" lon="3.69445">
        <ele>999.4</ele>
        <time>2022-08-29T08:04:02Z</time>
      </trkpt>
      <trkpt lat="45.95136" lon="3.69445">
        <ele>999.2</ele>
        <time>2022-08-29T08:04:03Z</time>
      </trkpt>
      <trkpt lat="45.95135" lon="3.69444">
        <ele>999.1</ele>
        <time>2022-08-29T08:04:04Z</time>
      </trkpt>
      <trkpt lat="45.95134" lon="3.69443">
        <ele>998.9</ele>
        <time>2022-08-29T08:04:05Z</time>
      </trkpt>
      <trkpt lat="45.95133" lon="3.69443">
        <ele>998.8</ele>
        <time>2022-08-29T08:04:06Z</time>
      </trkpt>
      <trkpt lat="45.95131" lon="3.69442">
        <ele>998.6</ele>
        <time>2022-08-29T08:04:07Z</time>
      </trkpt>
      <trkpt lat="45.9513" lon="3.69441">
        <ele>998.4</ele>
        <time>2022-08-29T08:04:08Z</time>
      </trkpt>
      <trkpt lat="45.95129" lon="3.69441">
        <ele>998.3</ele>
        <time>2022-08-29T08:04:09Z</time>
      </trkpt>
      <trkpt lat="45.95128" lon="3.6944">
        <ele>998.2</ele>
        <time>2022-08-29T08:04:10Z</time>
      </trkpt>
      <trkpt lat="45.95127" lon="3.6944">
        <ele>998.2</ele>
        <time>2022-08-29T08:04:11Z</time>
      </trkpt>
      <trkpt lat="45.95125" lon="3.69439">
        <ele>998.1</ele>
        <time>2022-08-29T08:04:12Z</time>
      </trkpt>
      <trkpt lat="45.95125" lon="3.69438">
        <ele>998.1</ele>
        <time>2022-08-29T08:04:13Z</time>
      </trkpt>
      <trkpt lat="45.95124" lon="3.69438">
        <ele>998</ele>
        <time>2022-08-29T08:04:14Z</time>
      </trkpt>
      <trkpt lat="45.95123" lon="3.69438">
        <ele>998</ele>
        <time>2022-08-29T08:04:15Z</time>
      </trkpt>
      <trkpt lat="45.95123" lon="3.69438">
        <ele>998</ele>
        <time>2022-08-29T08:04:16Z</time>
      </trkpt>
      <trkpt lat="45.95122" lon="3.69438">
        <ele>997.9</ele>
        <time>2022-08-29T08:04:17Z</time>
      </trkpt>
      <trkpt lat="45.95121" lon="3.69437">
        <ele>997.9</ele>
        <time>2022-08-29T08:04:18Z</time>
      </trkpt>
      <trkpt lat="45.9512" lon="3.69437">
        <ele>997.8</ele>
        <time>2022-08-29T08:04:19Z</time>
      </trkpt>
      <trkpt lat="45.95119" lon="3.69436">
        <ele>997.7</ele>
        <time>2022-08-29T08:04:20Z</time>
      </trkpt>
      <trkpt lat="45.95117" lon="3.69435">
        <ele>997.7</ele>
        <time>2022-08-29T08:04:21Z</time>
      </trkpt>
      <trkpt lat="45.95116" lon="3.69434">
        <ele>997.6</ele>
        <time>2022-08-29T08:04:22Z</time>
      </trkpt>
      <trkpt lat="45.95114" lon="3.69431">
        <ele>997.4</ele>
        <time>2022-08-29T08:04:23Z</time>
      </trkpt>
      <trkpt lat="45.95113" lon="3.6943">
        <ele>997.4</ele>
        <time>2022-08-29T08:04:24Z</time>
      </trkpt>
      <trkpt lat="45.95111" lon="3.69427">
        <ele>997.2</ele>
        <time>2022-08-29T08:04:25Z</time>
      </trkpt>
      <trkpt lat="45.9511" lon="3.69426">
        <ele>997.2</ele>
        <time>2022-08-29T08:04:26Z</time>
      </trkpt>
      <trkpt lat="45.95107" lon="3.69422">
        <ele>997</ele>
        <time>2022-08-29T08:04:27Z</time>
      </trkpt>
      <trkpt lat="45.95107" lon="3.69421">
        <ele>997</ele>
        <time>2022-08-29T08:04:28Z</time>
      </trkpt>
      <trkpt lat="45.95105" lon="3.69419">
        <ele>996.9</ele>
        <time>2022-08-29T08:04:29Z</time>
      </trkpt>
      <trkpt lat="45.95104" lon="3.69417">
        <ele>996.9</ele>
        <time>2022-08-29T08:04:30Z</time>
      </trkpt>
      <trkpt lat="45.95103" lon="3.69416">
        <ele>996.9</ele>
        <time>2022-08-29T08:04:31Z</time>
      </trkpt>
      <trkpt lat="45.95102" lon="3.69414">
        <ele>996.8</ele>
        <time>2022-08-29T08:04:32Z</time>
      </trkpt>
      <trkpt lat="45.95101" lon="3.69412">
        <ele>996.8</ele>
        <time>2022-08-29T08:04:33Z</time>
      </trkpt>
      <trkpt lat="45.951" lon="3.69411">
        <ele>996.8</ele>
        <time>2022-08-29T08:04:34Z</time>
      </trkpt>
      <trkpt lat="45.95098" lon="3.6941">
        <ele>996.8</ele>
        <time>2022-08-29T08:04:35Z</time>
      </trkpt>
      <trkpt lat="45.95097" lon="3.69409">
        <ele>996.8</ele>
        <time>2022-08-29T08:04:36Z</time>
      </trkpt>
      <trkpt lat="45.95096" lon="3.69408">
        <ele>996.8</ele>
        <time>2022-08-29T08:04:37Z</time>
      </trkpt>
      <trkpt lat="45.95096" lon="3.69407">
        <ele>996.9</ele>
        <time>2022-08-29T08:04:38Z</time>
      </trkpt>
      <trkpt lat="45.95096" lon="3.69407">
        <ele>996.9</ele>
        <time>2022-08-29T08:04:39Z</time>
      </trkpt>
      <trkpt lat="45.95095" lon="3.69406">
        <ele>996.9</ele>
        <time>2022-08-29T08:04:40Z</time>
      </trkpt>
      <trkpt lat="45.95095" lon="3.69406">
        <ele>996.9</ele>
        <time>2022-08-29T08:04:41Z</time>
      </trkpt>
      <trkpt lat="45.95094" lon="3.69405">
        <ele>996.9</ele>
        <time>2022-08-29T08:04:42Z</time>
      </trkpt>
      <trkpt lat="45.95092" lon="3.69405">
        <ele>996.9</ele>
        <time>2022-08-29T08:04:43Z</time>
      </trkpt>
      <trkpt lat="45.95089" lon="3.69403">
        <ele>996.9</ele>
        <time>2022-08-29T08:04:44Z</time>
      </trkpt>
      <trkpt lat="45.95088" lon="3.69403">
        <ele>996.9</ele>
        <time>2022-08-29T08:04:45Z</time>
      </trkpt>
      <trkpt lat="45.95085" lon="3.694">
        <ele>997</ele>
        <time>2022-08-29T08:04:46Z</time>
      </trkpt>
      <trkpt lat="45.95084" lon="3.694">
        <ele>997</ele>
        <time>2022-08-29T08:04:47Z</time>
      </trkpt>
      <trkpt lat="45.95081" lon="3.69397">
        <ele>997</ele>
        <time>2022-08-29T08:04:48Z</time>
      </trkpt>
      <trkpt lat="45.9508" lon="3.69397">
        <ele>997</ele>
        <time>2022-08-29T08:04:49Z</time>
      </trkpt>
      <trkpt lat="45.95076" lon="3.69395">
        <ele>997</ele>
        <time>2022-08-29T08:04:50Z</time>
      </trkpt>
      <trkpt lat="45.95075" lon="3.69394">
        <ele>997</ele>
        <time>2022-08-29T08:04:51Z</time>
      </trkpt>
      <trkpt lat="45.95072" lon="3.69393">
        <ele>997</ele>
        <time>2022-08-29T08:04:52Z</time>
      </trkpt>
      <trkpt lat="45.95071" lon="3.69392">
        <ele>997</ele>
        <time>2022-08-29T08:04:53Z</time>
      </trkpt>
      <trkpt lat="45.95067" lon="3.69391">
        <ele>997</ele>
        <time>2022-08-29T08:04:54Z</time>
      </trkpt>
      <trkpt lat="45.95066" lon="3.6939">
        <ele>997</ele>
        <time>2022-08-29T08:04:55Z</time>
      </trkpt>
      <trkpt lat="45.95065" lon="3.69389">
        <ele>997</ele>
        <time>2022-08-29T08:04:56Z</time>
      </trkpt>
      <trkpt lat="45.95064" lon="3.69388">
        <ele>997</ele>
        <time>2022-08-29T08:04:57Z</time>
      </trkpt>
      <trkpt lat="45.95063" lon="3.69387">
        <ele>997</ele>
        <time>2022-08-29T08:04:58Z</time>
      </trkpt>
      <trkpt lat="45.95062" lon="3.69385">
        <ele>997</ele>
        <time>2022-08-29T08:04:59Z</time>
      </trkpt>
      <trkpt lat="45.9506" lon="3.69382">
        <ele>997</ele>
        <time>2022-08-29T08:05:00Z</time>
      </trkpt>
      <trkpt lat="45.9506" lon="3.69381">
        <ele>997</ele>
        <time>2022-08-29T08:05:01Z</time>
      </trkpt>
      <trkpt lat="45.95056" lon="3.69378">
        <ele>997</ele>
        <time>2022-08-29T08:05:02Z</time>
      </trkpt>
      <trkpt lat="45.95055" lon="3.69377">
        <ele>997</ele>
        <time>2022-08-29T08:05:03Z</time>
      </trkpt>
      <trkpt lat="45.95053" lon="3.69375">
        <ele>997</ele>
        <time>2022-08-29T08:05:04Z</time>
      </trkpt>
      <trkpt lat="45.9505" lon="3.69373">
        <ele>997</ele>
        <time>2022-08-29T08:05:05Z</time>
      </trkpt>
      <trkpt lat="45.95049" lon="3.69372">
        <ele>997</ele>
        <time>2022-08-29T08:05:06Z</time>
      </trkpt>
      <trkpt lat="45.95047" lon="3.69371">
        <ele>997</ele>
        <time>2022-08-29T08:05:07Z</time>
      </trkpt>
      <trkpt lat="45.95047" lon="3.6937">
        <ele>997</ele>
        <time>2022-08-29T08:05:08Z</time>
      </trkpt>
      <trkpt lat="45.95046" lon="3.6937">
        <ele>997</ele>
        <time>2022-08-29T08:05:09Z</time>
      </trkpt>
      <trkpt lat="45.95046" lon="3.69369">
        <ele>997</ele>
        <time>2022-08-29T08:05:10Z</time>
      </trkpt>
      <trkpt lat="45.95046" lon="3.69369">
        <ele>997</ele>
        <time>2022-08-29T08:05:11Z</time>
      </trkpt>
      <trkpt lat="45.95047" lon="3.69369">
        <ele>997</ele>
        <time>2022-08-29T08:05:12Z</time>
      </trkpt>
      <trkpt lat="45.95047" lon="3.6937">
        <ele>997</ele>
        <time>2022-08-29T08:05:13Z</time>
      </trkpt>
      <trkpt lat="45.95047" lon="3.6937">
        <ele>997</ele>
        <time>2022-08-29T08:05:14Z</time>
      </trkpt>
      <trkpt lat="45.95047" lon="3.6937">
        <ele>997</ele>
        <time>2022-08-29T08:05:15Z</time>
      </trkpt>
      <trkpt lat="45.95047" lon="3.6937">
        <ele>997</ele>
        <time>2022-08-29T08:05:16Z</time>
      </trkpt>
      <trkpt lat="45.95047" lon="3.6937">
        <ele>997</ele>
        <time>2022-08-29T08:05:17Z</time>
      </trkpt>
      <trkpt lat="45.95047" lon="3.69371">
        <ele>997</ele>
        <time>2022-08-29T08:05:18Z</time>
      </trkpt>
      <trkpt lat="45.95047" lon="3.69371">
        <ele>997</ele>
        <time>2022-08-29T08:05:19Z</time>
      </trkpt>
      <trkpt lat="45.95047" lon="3.69371">
        <ele>997</ele>
        <time>2022-08-29T08:05:20Z</time>
      </trkpt>
      <trkpt lat="45.95046" lon="3.6937">
        <ele>997</ele>
        <time>2022-08-29T08:05:21Z</time>
      </trkpt>
      <trkpt lat="45.95045" lon="3.69369">
        <ele>997</ele>
        <time>2022-08-29T08:05:22Z</time>
      </trkpt>
      <trkpt lat="45.95044" lon="3.69369">
        <ele>997</ele>
        <time>2022-08-29T08:05:23Z</time>
      </trkpt>
      <trkpt lat="45.95042" lon="3.69368">
        <ele>997.1</ele>
        <time>2022-08-29T08:05:24Z</time>
      </trkpt>
      <trkpt lat="45.95041" lon="3.69367">
        <ele>997.1</ele>
        <time>2022-08-29T08:05:25Z</time>
      </trkpt>
      <trkpt lat="45.9504" lon="3.69367">
        <ele>997.1</ele>
        <time>2022-08-29T08:05:26Z</time>
      </trkpt>
      <trkpt lat="45.95039" lon="3.69367">
        <ele>997.1</ele>
        <time>2022-08-29T08:05:27Z</time>
      </trkpt>
      <trkpt lat="45.95038" lon="3.69367">
        <ele>997.1</ele>
        <time>2022-08-29T08:05:28Z</time>
      </trkpt>
      <trkpt lat="45.95036" lon="3.69368">
        <ele>997.1</ele>
        <time>2022-08-29T08:05:29Z</time>
      </trkpt>
      <trkpt lat="45.95035" lon="3.69368">
        <ele>997.1</ele>
        <time>2022-08-29T08:05:30Z</time>
      </trkpt>
      <trkpt lat="45.95034" lon="3.69368">
        <ele>997.1</ele>
        <time>2022-08-29T08:05:31Z</time>
      </trkpt>
      <trkpt lat="45.95033" lon="3.69368">
        <ele>997.1</ele>
        <time>2022-08-29T08:05:32Z</time>
      </trkpt>
      <trkpt lat="45.95032" lon="3.69368">
        <ele>997.1</ele>
        <time>2022-08-29T08:05:33Z</time>
      </trkpt>
      <trkpt lat="45.95032" lon="3.69368">
        <ele>997.1</ele>
        <time>2022-08-29T08:05:34Z</time>
      </trkpt>
      <trkpt lat="45.95031" lon="3.69368">
        <ele>997.2</ele>
        <time>2022-08-29T08:05:35Z</time>
      </trkpt>
      <trkpt lat="45.9503" lon="3.69368">
        <ele>997.2</ele>
        <time>2022-08-29T08:05:36Z</time>
      </trkpt>
      <trkpt lat="45.9503" lon="3.69368">
        <ele>997.2</ele>
        <time>2022-08-29T08:05:37Z</time>
      </trkpt>
      <trkpt lat="45.9503" lon="3.69367">
        <ele>997.2</ele>
        <time>2022-08-29T08:05:38Z</time>
      </trkpt>
      <trkpt lat="45.9503" lon="3.69367">
        <ele>997.2</ele>
        <time>2022-08-29T08:05:39Z</time>
      </trkpt>
      <trkpt lat="45.95029" lon="3.69367">
        <ele>997.2</ele>
        <time>2022-08-29T08:05:40Z</time>
      </trkpt>
      <trkpt lat="45.95029" lon="3.69366">
        <ele>997.2</ele>
        <time>2022-08-29T08:05:41Z</time>
      </trkpt>
      <trkpt lat="45.95029" lon="3.69366">
        <ele>997.2</ele>
        <time>2022-08-29T08:05:42Z</time>
      </trkpt>
      <trkpt lat="45.95029" lon="3.69366">
        <ele>997.2</ele>
        <time>2022-08-29T08:05:43Z</time>
      </trkpt>
      <trkpt lat="45.9503" lon="3.69366">
        <ele>997.2</ele>
        <time>2022-08-29T08:05:44Z</time>
      </trkpt>
      <trkpt lat="45.9503" lon="3.69367">
        <ele>997.2</ele>
        <time>2022-08-29T08:05:45Z</time>
      </trkpt>
      <trkpt lat="45.9503" lon="3.69367">
        <ele>997.2</ele>
        <time>2022-08-29T08:05:46Z</time>
      </trkpt>
      <trkpt lat="45.9503" lon="3.69367">
        <ele>997.2</ele>
        <time>2022-08-29T08:05:47Z</time>
      </trkpt>
      <trkpt lat="45.9503" lon="3.69367">
        <ele>997.2</ele>
        <time>2022-08-29T08:05:48Z</time>
      </trkpt>
      <trkpt lat="45.9503" lon="3.69367">
        <ele>997.2</ele>
        <time>2022-08-29T08:05:49Z</time>
      </trkpt>
      <trkpt lat="45.9503" lon="3.69367">
        <ele>997.2</ele>
        <time>2022-08-29T08:05:50Z</time>
      </trkpt>
      <trkpt lat="45.95029" lon="3.69367">
        <ele>997.2</ele>
        <time>2022-08-29T08:05:51Z</time>
      </trkpt>
      <trkpt lat="45.95029" lon="3.69368">
        <ele>997.2</ele>
        <time>2022-08-29T08:05:52Z</time>
      </trkpt>
      <trkpt lat="45.95029" lon="3.69368">
        <ele>997.2</ele>
        <time>2022-08-29T08:05:53Z</time>
      </trkpt>
      <trkpt lat="45.95029" lon="3.69368">
        <ele>997.2</ele>
        <time>2022-08-29T08:05:54Z</time>
      </trkpt>
      <trkpt lat="45.95028" lon="3.69369">
        <ele>997.2</ele>
        <time>2022-08-29T08:05:55Z</time>
      </trkpt>
      <trkpt lat="45.95028" lon="3.69369">
        <ele>997.2</ele>
        <time>2022-08-29T08:05:56Z</time>
      </trkpt>
      <trkpt lat="45.95028" lon="3.69369">
        <ele>997.2</ele>
        <time>2022-08-29T08:05:57Z</time>
      </trkpt>
      <trkpt lat="45.95028" lon="3.69369">
        <ele>997.2</ele>
        <time>2022-08-29T08:05:58Z</time>
      </trkpt>
      <trkpt lat="45.95027" lon="3.69369">
        <ele>997.2</ele>
        <time>2022-08-29T08:05:59Z</time>
      </trkpt>
      <trkpt lat="45.95027" lon="3.69369">
        <ele>997.2</ele>
        <time>2022-08-29T08:06:00Z</time>
      </trkpt>
      <trkpt lat="45.95027" lon="3.69369">
        <ele>997.2</ele>
        <time>2022-08-29T08:06:01Z</time>
      </trkpt>
      <trkpt lat="45.95027" lon="3.69369">
        <ele>997.2</ele>
        <time>2022-08-29T08:06:02Z</time>
      </trkpt>
      <trkpt lat="45.95027" lon="3.69369">
        <ele>997.2</ele>
        <time>2022-08-29T08:06:03Z</time>
      </trkpt>
      <trkpt lat="45.95027" lon="3.69369">
        <ele>997.2</ele>
        <time>2022-08-29T08:06:04Z</time>
      </trkpt>
      <trkpt lat="45.95027" lon="3.6937">
        <ele>997.2</ele>
        <time>2022-08-29T08:06:05Z</time>
      </trkpt>
      <trkpt lat="45.95026" lon="3.6937">
        <ele>997.2</ele>
        <time>2022-08-29T08:06:06Z</time>
      </trkpt>
      <trkpt lat="45.95026" lon="3.6937">
        <ele>997.3</ele>
        <time>2022-08-29T08:06:07Z</time>
      </trkpt>
      <trkpt lat="45.95026" lon="3.6937">
        <ele>997.3</ele>
        <time>2022-08-29T08:06:08Z</time>
      </trkpt>
      <trkpt lat="45.95025" lon="3.69371">
        <ele>997.3</ele>
        <time>2022-08-29T08:06:09Z</time>
      </trkpt>
      <trkpt lat="45.95025" lon="3.69371">
        <ele>997.3</ele>
        <time>2022-08-29T08:06:10Z</time>
      </trkpt>
      <trkpt lat="45.95025" lon="3.69371">
        <ele>997.3</ele>
        <time>2022-08-29T08:06:11Z</time>
      </trkpt>
      <trkpt lat="45.95025" lon="3.69371">
        <ele>997.3</ele>
        <time>2022-08-29T08:06:12Z</time>
      </trkpt>
      <trkpt lat="45.95025" lon="3.69371">
        <ele>997.3</ele>
        <time>2022-08-29T08:06:13Z</time>
      </trkpt>
      <trkpt lat="45.95025" lon="3.69371">
        <ele>997.3</ele>
        <time>2022-08-29T08:06:14Z</time>
      </trkpt>
      <trkpt lat="45.95025" lon="3.6937">
        <ele>997.3</ele>
        <time>2022-08-29T08:06:15Z</time>
      </trkpt>
      <trkpt lat="45.95025" lon="3.6937">
        <ele>997.3</ele>
        <time>2022-08-29T08:06:16Z</time>
      </trkpt>
      <trkpt lat="45.95025" lon="3.69369">
        <ele>997.3</ele>
        <time>2022-08-29T08:06:17Z</time>
      </trkpt>
      <trkpt lat="45.95025" lon="3.69369">
        <ele>997.3</ele>
        <time>2022-08-29T08:06:18Z</time>
      </trkpt>
      <trkpt lat="45.95025" lon="3.69368">
        <ele>997.3</ele>
        <time>2022-08-29T08:06:19Z</time>
      </trkpt>
      <trkpt lat="45.95025" lon="3.69368">
        <ele>997.3</ele>
        <time>2022-08-29T08:06:20Z</time>
      </trkpt>
      <trkpt lat="45.95024" lon="3.69367">
        <ele>997.3</ele>
        <time>2022-08-29T08:06:21Z</time>
      </trkpt>
      <trkpt lat="45.95024" lon="3.69367">
        <ele>997.3</ele>
        <time>2022-08-29T08:06:22Z</time>
      </trkpt>
      <trkpt lat="45.95024" lon="3.69367">
        <ele>997.3</ele>
        <time>2022-08-29T08:06:23Z</time>
      </trkpt>
      <trkpt lat="45.95024" lon="3.69367">
        <ele>997.3</ele>
        <time>2022-08-29T08:06:24Z</time>
      </trkpt>
      <trkpt lat="45.95024" lon="3.69366">
        <ele>997.3</ele>
        <time>2022-08-29T08:06:25Z</time>
      </trkpt>
      <trkpt lat="45.95024" lon="3.69366">
        <ele>997.3</ele>
        <time>2022-08-29T08:06:26Z</time>
      </trkpt>
      <trkpt lat="45.95024" lon="3.69366">
        <ele>997.3</ele>
        <time>2022-08-29T08:06:27Z</time>
      </trkpt>
      <trkpt lat="45.95024" lon="3.69366">
        <ele>997.3</ele>
        <time>2022-08-29T08:06:28Z</time>
      </trkpt>
      <trkpt lat="45.95023" lon="3.69367">
        <ele>997.3</ele>
        <time>2022-08-29T08:06:29Z</time>
      </trkpt>
      <trkpt lat="45.95021" lon="3.69366">
        <ele>997.4</ele>
        <time>2022-08-29T08:06:30Z</time>
      </trkpt>
      <trkpt lat="45.9502" lon="3.69365">
        <ele>997.4</ele>
        <time>2022-08-29T08:06:31Z</time>
      </trkpt>
      <trkpt lat="45.95019" lon="3.69365">
        <ele>997.4</ele>
        <time>2022-08-29T08:06:32Z</time>
      </trkpt>
      <trkpt lat="45.95018" lon="3.69364">
        <ele>997.4</ele>
        <time>2022-08-29T08:06:33Z</time>
      </trkpt>
      <trkpt lat="45.95017" lon="3.69362">
        <ele>997.4</ele>
        <time>2022-08-29T08:06:34Z</time>
      </trkpt>
      <trkpt lat="45.95016" lon="3.6936">
        <ele>997.5</ele>
        <time>2022-08-29T08:06:35Z</time>
      </trkpt>
      <trkpt lat="45.95014" lon="3.69358">
        <ele>997.5</ele>
        <time>2022-08-29T08:06:36Z</time>
      </trkpt>
      <trkpt lat="45.95013" lon="3.69357">
        <ele>997.5</ele>
        <time>2022-08-29T08:06:37Z</time>
      </trkpt>
      <trkpt lat="45.9501" lon="3.69354">
        <ele>997.6</ele>
        <time>2022-08-29T08:06:38Z</time>
      </trkpt>
      <trkpt lat="45.95009" lon="3.69353">
        <ele>997.6</ele>
        <time>2022-08-29T08:06:39Z</time>
      </trkpt>
      <trkpt lat="45.95007" lon="3.69351">
        <ele>997.6</ele>
        <time>2022-08-29T08:06:40Z</time>
      </trkpt>
      <trkpt lat="45.95006" lon="3.6935">
        <ele>997.6</ele>
        <time>2022-08-29T08:06:41Z</time>
      </trkpt>
      <trkpt lat="45.95003" lon="3.69347">
        <ele>997.7</ele>
        <time>2022-08-29T08:06:42Z</time>
      </trkpt>
      <trkpt lat="45.95002" lon="3.69346">
        <ele>997.7</ele>
        <time>2022-08-29T08:06:43Z</time>
      </trkpt>
      <trkpt lat="45.95" lon="3.69344">
        <ele>997.7</ele>
        <time>2022-08-29T08:06:44Z</time>
      </trkpt>
      <trkpt lat="45.94999" lon="3.69343">
        <ele>997.7</ele>
        <time>2022-08-29T08:06:45Z</time>
      </trkpt>
      <trkpt lat="45.94996" lon="3.69341">
        <ele>997.8</ele>
        <time>2022-08-29T08:06:46Z</time>
      </trkpt>
      <trkpt lat="45.94995" lon="3.69341">
        <ele>997.8</ele>
        <time>2022-08-29T08:06:47Z</time>
      </trkpt>
      <trkpt lat="45.94992" lon="3.6934">
        <ele>997.8</ele>
        <time>2022-08-29T08:06:48Z</time>
      </trkpt>
      <trkpt lat="45.9499" lon="3.6934">
        <ele>997.8</ele>
        <time>2022-08-29T08:06:49Z</time>
      </trkpt>
      <trkpt lat="45.94987" lon="3.6934">
        <ele>997.9</ele>
        <time>2022-08-29T08:06:50Z</time>
      </trkpt>
      <trkpt lat="45.94986" lon="3.69339">
        <ele>997.9</ele>
        <time>2022-08-29T08:06:51Z</time>
      </trkpt>
      <trkpt lat="45.94984" lon="3.69339">
        <ele>998</ele>
        <time>2022-08-29T08:06:52Z</time>
      </trkpt>
      <trkpt lat="45.94983" lon="3.69338">
        <ele>998</ele>
        <time>2022-08-29T08:06:53Z</time>
      </trkpt>
      <trkpt lat="45.94981" lon="3.69337">
        <ele>998</ele>
        <time>2022-08-29T08:06:54Z</time>
      </trkpt>
      <trkpt lat="45.9498" lon="3.69336">
        <ele>998.1</ele>
        <time>2022-08-29T08:06:55Z</time>
      </trkpt>
      <trkpt lat="45.94977" lon="3.69335">
        <ele>998.1</ele>
        <time>2022-08-29T08:06:56Z</time>
      </trkpt>
      <trkpt lat="45.94976" lon="3.69335">
        <ele>998.2</ele>
        <time>2022-08-29T08:06:57Z</time>
      </trkpt>
      <trkpt lat="45.94973" lon="3.69334">
        <ele>998.2</ele>
        <time>2022-08-29T08:06:58Z</time>
      </trkpt>
      <trkpt lat="45.94972" lon="3.69334">
        <ele>998.2</ele>
        <time>2022-08-29T08:06:59Z</time>
      </trkpt>
      <trkpt lat="45.94969" lon="3.69333">
        <ele>998.3</ele>
        <time>2022-08-29T08:07:00Z</time>
      </trkpt>
      <trkpt lat="45.94967" lon="3.69333">
        <ele>998.3</ele>
        <time>2022-08-29T08:07:01Z</time>
      </trkpt>
      <trkpt lat="45.94965" lon="3.69332">
        <ele>998.3</ele>
        <time>2022-08-29T08:07:02Z</time>
      </trkpt>
      <trkpt lat="45.9496" lon="3.69332">
        <ele>998.4</ele>
        <time>2022-08-29T08:07:04Z</time>
      </trkpt>
      <trkpt lat="45.94958" lon="3.69332">
        <ele>998.4</ele>
        <time>2022-08-29T08:07:05Z</time>
      </trkpt>
      <trkpt lat="45.94957" lon="3.69333">
        <ele>998.5</ele>
        <time>2022-08-29T08:07:06Z</time>
      </trkpt>
      <trkpt lat="45.94956" lon="3.69333">
        <ele>998.5</ele>
        <time>2022-08-29T08:07:07Z</time>
      </trkpt>
      <trkpt lat="45.94954" lon="3.69335">
        <ele>998.5</ele>
        <time>2022-08-29T08:07:08Z</time>
      </trkpt>
      <trkpt lat="45.94953" lon="3.69335">
        <ele>998.5</ele>
        <time>2022-08-29T08:07:09Z</time>
      </trkpt>
      <trkpt lat="45.94953" lon="3.69336">
        <ele>998.5</ele>
        <time>2022-08-29T08:07:10Z</time>
      </trkpt>
      <trkpt lat="45.94951" lon="3.69337">
        <ele>998.6</ele>
        <time>2022-08-29T08:07:11Z</time>
      </trkpt>
      <trkpt lat="45.9495" lon="3.69337">
        <ele>998.6</ele>
        <time>2022-08-29T08:07:12Z</time>
      </trkpt>
      <trkpt lat="45.94947" lon="3.69338">
        <ele>998.6</ele>
        <time>2022-08-29T08:07:13Z</time>
      </trkpt>
      <trkpt lat="45.94946" lon="3.69338">
        <ele>998.7</ele>
        <time>2022-08-29T08:07:14Z</time>
      </trkpt>
      <trkpt lat="45.94944" lon="3.69338">
        <ele>998.7</ele>
        <time>2022-08-29T08:07:15Z</time>
      </trkpt>
      <trkpt lat="45.94943" lon="3.69338">
        <ele>998.7</ele>
        <time>2022-08-29T08:07:16Z</time>
      </trkpt>
      <trkpt lat="45.9494" lon="3.69339">
        <ele>998.8</ele>
        <time>2022-08-29T08:07:17Z</time>
      </trkpt>
      <trkpt lat="45.94938" lon="3.6934">
        <ele>998.8</ele>
        <time>2022-08-29T08:07:18Z</time>
      </trkpt>
      <trkpt lat="45.94937" lon="3.6934">
        <ele>998.8</ele>
        <time>2022-08-29T08:07:19Z</time>
      </trkpt>
      <trkpt lat="45.94936" lon="3.69342">
        <ele>998.8</ele>
        <time>2022-08-29T08:07:20Z</time>
      </trkpt>
      <trkpt lat="45.94934" lon="3.69343">
        <ele>998.8</ele>
        <time>2022-08-29T08:07:21Z</time>
      </trkpt>
      <trkpt lat="45.94933" lon="3.69344">
        <ele>998.9</ele>
        <time>2022-08-29T08:07:22Z</time>
      </trkpt>
      <trkpt lat="45.94929" lon="3.69346">
        <ele>998.9</ele>
        <time>2022-08-29T08:07:23Z</time>
      </trkpt>
      <trkpt lat="45.94928" lon="3.69346">
        <ele>998.9</ele>
        <time>2022-08-29T08:07:24Z</time>
      </trkpt>
      <trkpt lat="45.94925" lon="3.69347">
        <ele>999</ele>
        <time>2022-08-29T08:07:25Z</time>
      </trkpt>
      <trkpt lat="45.94924" lon="3.69347">
        <ele>999</ele>
        <time>2022-08-29T08:07:26Z</time>
      </trkpt>
      <trkpt lat="45.94921" lon="3.69349">
        <ele>999</ele>
        <time>2022-08-29T08:07:27Z</time>
      </trkpt>
      <trkpt lat="45.9492" lon="3.6935">
        <ele>999.1</ele>
        <time>2022-08-29T08:07:28Z</time>
      </trkpt>
      <trkpt lat="45.9492" lon="3.69352">
        <ele>999.1</ele>
        <time>2022-08-29T08:07:29Z</time>
      </trkpt>
      <trkpt lat="45.94919" lon="3.69353">
        <ele>999.1</ele>
        <time>2022-08-29T08:07:30Z</time>
      </trkpt>
      <trkpt lat="45.94918" lon="3.69356">
        <ele>999.2</ele>
        <time>2022-08-29T08:07:31Z</time>
      </trkpt>
      <trkpt lat="45.94918" lon="3.69358">
        <ele>999.2</ele>
        <time>2022-08-29T08:07:32Z</time>
      </trkpt>
      <trkpt lat="45.94918" lon="3.69359">
        <ele>999.2</ele>
        <time>2022-08-29T08:07:33Z</time>
      </trkpt>
      <trkpt lat="45.94917" lon="3.6936">
        <ele>999.2</ele>
        <time>2022-08-29T08:07:34Z</time>
      </trkpt>
      <trkpt lat="45.94917" lon="3.69362">
        <ele>999.2</ele>
        <time>2022-08-29T08:07:35Z</time>
      </trkpt>
      <trkpt lat="45.94916" lon="3.69363">
        <ele>999.3</ele>
        <time>2022-08-29T08:07:36Z</time>
      </trkpt>
      <trkpt lat="45.94915" lon="3.69366">
        <ele>999.3</ele>
        <time>2022-08-29T08:07:37Z</time>
      </trkpt>
      <trkpt lat="45.94914" lon="3.69367">
        <ele>999.3</ele>
        <time>2022-08-29T08:07:38Z</time>
      </trkpt>
      <trkpt lat="45.94914" lon="3.69368">
        <ele>999.3</ele>
        <time>2022-08-29T08:07:39Z</time>
      </trkpt>
      <trkpt lat="45.94913" lon="3.69369">
        <ele>999.4</ele>
        <time>2022-08-29T08:07:40Z</time>
      </trkpt>
      <trkpt lat="45.94912" lon="3.69369">
        <ele>999.4</ele>
        <time>2022-08-29T08:07:41Z</time>
      </trkpt>
      <trkpt lat="45.94911" lon="3.6937">
        <ele>999.4</ele>
        <time>2022-08-29T08:07:42Z</time>
      </trkpt>
      <trkpt lat="45.94911" lon="3.69371">
        <ele>999.4</ele>
        <time>2022-08-29T08:07:43Z</time>
      </trkpt>
      <trkpt lat="45.9491" lon="3.69372">
        <ele>999.5</ele>
        <time>2022-08-29T08:07:44Z</time>
      </trkpt>
      <trkpt lat="45.94909" lon="3.69373">
        <ele>999.5</ele>
        <time>2022-08-29T08:07:45Z</time>
      </trkpt>
      <trkpt lat="45.94906" lon="3.69375">
        <ele>999.6</ele>
        <time>2022-08-29T08:07:46Z</time>
      </trkpt>
      <trkpt lat="45.94905" lon="3.69376">
        <ele>999.6</ele>
        <time>2022-08-29T08:07:47Z</time>
      </trkpt>
      <trkpt lat="45.94902" lon="3.69377">
        <ele>999.7</ele>
        <time>2022-08-29T08:07:48Z</time>
      </trkpt>
      <trkpt lat="45.94901" lon="3.69378">
        <ele>999.7</ele>
        <time>2022-08-29T08:07:49Z</time>
      </trkpt>
      <trkpt lat="45.94899" lon="3.69379">
        <ele>999.8</ele>
        <time>2022-08-29T08:07:50Z</time>
      </trkpt>
      <trkpt lat="45.94898" lon="3.6938">
        <ele>999.8</ele>
        <time>2022-08-29T08:07:51Z</time>
      </trkpt>
      <trkpt lat="45.94897" lon="3.69381">
        <ele>999.8</ele>
        <time>2022-08-29T08:07:52Z</time>
      </trkpt>
      <trkpt lat="45.94895" lon="3.69382">
        <ele>999.9</ele>
        <time>2022-08-29T08:07:53Z</time>
      </trkpt>
      <trkpt lat="45.94894" lon="3.69383">
        <ele>999.9</ele>
        <time>2022-08-29T08:07:54Z</time>
      </trkpt>
      <trkpt lat="45.94893" lon="3.69385">
        <ele>1000</ele>
        <time>2022-08-29T08:07:55Z</time>
      </trkpt>
      <trkpt lat="45.94893" lon="3.69386">
        <ele>1000</ele>
        <time>2022-08-29T08:07:56Z</time>
      </trkpt>
      <trkpt lat="45.94893" lon="3.69387">
        <ele>1000</ele>
        <time>2022-08-29T08:07:57Z</time>
      </trkpt>
      <trkpt lat="45.94892" lon="3.69388">
        <ele>1000</ele>
        <time>2022-08-29T08:07:58Z</time>
      </trkpt>
      <trkpt lat="45.94891" lon="3.6939">
        <ele>1000.1</ele>
        <time>2022-08-29T08:07:59Z</time>
      </trkpt>
      <trkpt lat="45.9489" lon="3.69391">
        <ele>1000.1</ele>
        <time>2022-08-29T08:08:00Z</time>
      </trkpt>
      <trkpt lat="45.94889" lon="3.69392">
        <ele>1000.1</ele>
        <time>2022-08-29T08:08:01Z</time>
      </trkpt>
      <trkpt lat="45.94887" lon="3.69394">
        <ele>1000.2</ele>
        <time>2022-08-29T08:08:02Z</time>
      </trkpt>
      <trkpt lat="45.94886" lon="3.69395">
        <ele>1000.2</ele>
        <time>2022-08-29T08:08:03Z</time>
      </trkpt>
      <trkpt lat="45.94885" lon="3.69396">
        <ele>1000.3</ele>
        <time>2022-08-29T08:08:04Z</time>
      </trkpt>
      <trkpt lat="45.94883" lon="3.69396">
        <ele>1000.3</ele>
        <time>2022-08-29T08:08:05Z</time>
      </trkpt>
      <trkpt lat="45.9488" lon="3.69397">
        <ele>1000.4</ele>
        <time>2022-08-29T08:08:06Z</time>
      </trkpt>
      <trkpt lat="45.94879" lon="3.69397">
        <ele>1000.4</ele>
        <time>2022-08-29T08:08:07Z</time>
      </trkpt>
      <trkpt lat="45.94875" lon="3.69397">
        <ele>1000.5</ele>
        <time>2022-08-29T08:08:08Z</time>
      </trkpt>
      <trkpt lat="45.94872" lon="3.69397">
        <ele>1000.6</ele>
        <time>2022-08-29T08:08:09Z</time>
      </trkpt>
      <trkpt lat="45.94871" lon="3.69397">
        <ele>1000.6</ele>
        <time>2022-08-29T08:08:10Z</time>
      </trkpt>
      <trkpt lat="45.9487" lon="3.69397">
        <ele>1000.7</ele>
        <time>2022-08-29T08:08:11Z</time>
      </trkpt>
      <trkpt lat="45.94869" lon="3.69396">
        <ele>1000.7</ele>
        <time>2022-08-29T08:08:12Z</time>
      </trkpt>
      <trkpt lat="45.94868" lon="3.69395">
        <ele>1000.8</ele>
        <time>2022-08-29T08:08:13Z</time>
      </trkpt>
      <trkpt lat="45.94867" lon="3.69394">
        <ele>1000.8</ele>
        <time>2022-08-29T08:08:14Z</time>
      </trkpt>
      <trkpt lat="45.94867" lon="3.69393">
        <ele>1000.8</ele>
        <time>2022-08-29T08:08:15Z</time>
      </trkpt>
      <trkpt lat="45.94867" lon="3.69392">
        <ele>1000.8</ele>
        <time>2022-08-29T08:08:16Z</time>
      </trkpt>
      <trkpt lat="45.94867" lon="3.69392">
        <ele>1000.9</ele>
        <time>2022-08-29T08:08:17Z</time>
      </trkpt>
      <trkpt lat="45.94867" lon="3.69391">
        <ele>1000.9</ele>
        <time>2022-08-29T08:08:18Z</time>
      </trkpt>
      <trkpt lat="45.94866" lon="3.6939">
        <ele>1000.9</ele>
        <time>2022-08-29T08:08:19Z</time>
      </trkpt>
      <trkpt lat="45.94866" lon="3.6939">
        <ele>1000.9</ele>
        <time>2022-08-29T08:08:20Z</time>
      </trkpt>
      <trkpt lat="45.94866" lon="3.6939">
        <ele>1000.9</ele>
        <time>2022-08-29T08:08:21Z</time>
      </trkpt>
      <trkpt lat="45.94866" lon="3.6939">
        <ele>1000.9</ele>
        <time>2022-08-29T08:08:22Z</time>
      </trkpt>
      <trkpt lat="45.94867" lon="3.6939">
        <ele>1000.9</ele>
        <time>2022-08-29T08:08:23Z</time>
      </trkpt>
      <trkpt lat="45.94866" lon="3.6939">
        <ele>1000.9</ele>
        <time>2022-08-29T08:08:24Z</time>
      </trkpt>
      <trkpt lat="45.94866" lon="3.6939">
        <ele>1000.9</ele>
        <time>2022-08-29T08:08:25Z</time>
      </trkpt>
      <trkpt lat="45.94866" lon="3.6939">
        <ele>1000.9</ele>
        <time>2022-08-29T08:08:26Z</time>
      </trkpt>
      <trkpt lat="45.94866" lon="3.6939">
        <ele>1000.9</ele>
        <time>2022-08-29T08:08:27Z</time>
      </trkpt>
      <trkpt lat="45.94866" lon="3.6939">
        <ele>1001</ele>
        <time>2022-08-29T08:08:28Z</time>
      </trkpt>
      <trkpt lat="45.94866" lon="3.6939">
        <ele>1001</ele>
        <time>2022-08-29T08:08:29Z</time>
      </trkpt>
      <trkpt lat="45.94866" lon="3.6939">
        <ele>1001</ele>
        <time>2022-08-29T08:08:30Z</time>
      </trkpt>
      <trkpt lat="45.94866" lon="3.69389">
        <ele>1001</ele>
        <time>2022-08-29T08:08:31Z</time>
      </trkpt>
      <trkpt lat="45.94866" lon="3.69389">
        <ele>1001</ele>
        <time>2022-08-29T08:08:32Z</time>
      </trkpt>
      <trkpt lat="45.94866" lon="3.69389">
        <ele>1001</ele>
        <time>2022-08-29T08:08:33Z</time>
      </trkpt>
      <trkpt lat="45.94866" lon="3.69389">
        <ele>1001</ele>
        <time>2022-08-29T08:08:34Z</time>
      </trkpt>
      <trkpt lat="45.94865" lon="3.6939">
        <ele>1001</ele>
        <time>2022-08-29T08:08:35Z</time>
      </trkpt>
      <trkpt lat="45.94864" lon="3.6939">
        <ele>1001.1</ele>
        <time>2022-08-29T08:08:36Z</time>
      </trkpt>
      <trkpt lat="45.94863" lon="3.69391">
        <ele>1001.1</ele>
        <time>2022-08-29T08:08:37Z</time>
      </trkpt>
      <trkpt lat="45.94861" lon="3.69392">
        <ele>1001.2</ele>
        <time>2022-08-29T08:08:38Z</time>
      </trkpt>
      <trkpt lat="45.9486" lon="3.69393">
        <ele>1001.2</ele>
        <time>2022-08-29T08:08:39Z</time>
      </trkpt>
      <trkpt lat="45.94858" lon="3.69394">
        <ele>1001.3</ele>
        <time>2022-08-29T08:08:40Z</time>
      </trkpt>
      <trkpt lat="45.94857" lon="3.69395">
        <ele>1001.4</ele>
        <time>2022-08-29T08:08:41Z</time>
      </trkpt>
      <trkpt lat="45.94856" lon="3.69396">
        <ele>1001.4</ele>
        <time>2022-08-29T08:08:42Z</time>
      </trkpt>
      <trkpt lat="45.94854" lon="3.69397">
        <ele>1001.5</ele>
        <time>2022-08-29T08:08:43Z</time>
      </trkpt>
      <trkpt lat="45.94852" lon="3.69398">
        <ele>1001.6</ele>
        <time>2022-08-29T08:08:44Z</time>
      </trkpt>
      <trkpt lat="45.94851" lon="3.69399">
        <ele>1001.7</ele>
        <time>2022-08-29T08:08:45Z</time>
      </trkpt>
      <trkpt lat="45.94849" lon="3.694">
        <ele>1001.7</ele>
        <time>2022-08-29T08:08:46Z</time>
      </trkpt>
      <trkpt lat="45.94848" lon="3.69402">
        <ele>1001.8</ele>
        <time>2022-08-29T08:08:47Z</time>
      </trkpt>
      <trkpt lat="45.94847" lon="3.69403">
        <ele>1001.9</ele>
        <time>2022-08-29T08:08:48Z</time>
      </trkpt>
      <trkpt lat="45.94846" lon="3.69405">
        <ele>1002</ele>
        <time>2022-08-29T08:08:49Z</time>
      </trkpt>
      <trkpt lat="45.94845" lon="3.69406">
        <ele>1002</ele>
        <time>2022-08-29T08:08:50Z</time>
      </trkpt>
      <trkpt lat="45.94843" lon="3.69407">
        <ele>1002.1</ele>
        <time>2022-08-29T08:08:51Z</time>
      </trkpt>
      <trkpt lat="45.94842" lon="3.69409">
        <ele>1002.2</ele>
        <time>2022-08-29T08:08:52Z</time>
      </trkpt>
      <trkpt lat="45.9484" lon="3.6941">
        <ele>1002.3</ele>
        <time>2022-08-29T08:08:53Z</time>
      </trkpt>
      <trkpt lat="45.94839" lon="3.6941">
        <ele>1002.3</ele>
        <time>2022-08-29T08:08:54Z</time>
      </trkpt>
      <trkpt lat="45.94838" lon="3.69411">
        <ele>1002.4</ele>
        <time>2022-08-29T08:08:55Z</time>
      </trkpt>
      <trkpt lat="45.94836" lon="3.69412">
        <ele>1002.5</ele>
        <time>2022-08-29T08:08:56Z</time>
      </trkpt>
      <trkpt lat="45.94833" lon="3.69415">
        <ele>1002.7</ele>
        <time>2022-08-29T08:08:57Z</time>
      </trkpt>
      <trkpt lat="45.94832" lon="3.69415">
        <ele>1002.8</ele>
        <time>2022-08-29T08:08:58Z</time>
      </trkpt>
      <trkpt lat="45.9483" lon="3.69418">
        <ele>1002.9</ele>
        <time>2022-08-29T08:08:59Z</time>
      </trkpt>
      <trkpt lat="45.94829" lon="3.69419">
        <ele>1003</ele>
        <time>2022-08-29T08:09:00Z</time>
      </trkpt>
      <trkpt lat="45.94826" lon="3.69422">
        <ele>1003.2</ele>
        <time>2022-08-29T08:09:01Z</time>
      </trkpt>
      <trkpt lat="45.94825" lon="3.69423">
        <ele>1003.3</ele>
        <time>2022-08-29T08:09:02Z</time>
      </trkpt>
      <trkpt lat="45.94822" lon="3.69425">
        <ele>1003.5</ele>
        <time>2022-08-29T08:09:03Z</time>
      </trkpt>
      <trkpt lat="45.94821" lon="3.69425">
        <ele>1003.6</ele>
        <time>2022-08-29T08:09:04Z</time>
      </trkpt>
      <trkpt lat="45.94818" lon="3.69426">
        <ele>1003.8</ele>
        <time>2022-08-29T08:09:05Z</time>
      </trkpt>
      <trkpt lat="45.94817" lon="3.69426">
        <ele>1003.9</ele>
        <time>2022-08-29T08:09:06Z</time>
      </trkpt>
      <trkpt lat="45.94814" lon="3.69426">
        <ele>1004.1</ele>
        <time>2022-08-29T08:09:07Z</time>
      </trkpt>
      <trkpt lat="45.94813" lon="3.69426">
        <ele>1004.1</ele>
        <time>2022-08-29T08:09:08Z</time>
      </trkpt>
      <trkpt lat="45.94812" lon="3.69426">
        <ele>1004.2</ele>
        <time>2022-08-29T08:09:09Z</time>
      </trkpt>
      <trkpt lat="45.9481" lon="3.69427">
        <ele>1004.3</ele>
        <time>2022-08-29T08:09:10Z</time>
      </trkpt>
      <trkpt lat="45.94809" lon="3.69428">
        <ele>1004.4</ele>
        <time>2022-08-29T08:09:11Z</time>
      </trkpt>
      <trkpt lat="45.94808" lon="3.69429">
        <ele>1004.5</ele>
        <time>2022-08-29T08:09:12Z</time>
      </trkpt>
      <trkpt lat="45.94808" lon="3.6943">
        <ele>1004.6</ele>
        <time>2022-08-29T08:09:13Z</time>
      </trkpt>
      <trkpt lat="45.94807" lon="3.6943">
        <ele>1004.7</ele>
        <time>2022-08-29T08:09:14Z</time>
      </trkpt>
      <trkpt lat="45.94807" lon="3.6943">
        <ele>1004.7</ele>
        <time>2022-08-29T08:09:15Z</time>
      </trkpt>
      <trkpt lat="45.94807" lon="3.6943">
        <ele>1004.7</ele>
        <time>2022-08-29T08:09:16Z</time>
      </trkpt>
      <trkpt lat="45.94807" lon="3.6943">
        <ele>1004.7</ele>
        <time>2022-08-29T08:09:17Z</time>
      </trkpt>
      <trkpt lat="45.94807" lon="3.6943">
        <ele>1004.7</ele>
        <time>2022-08-29T08:09:18Z</time>
      </trkpt>
      <trkpt lat="45.94807" lon="3.69429">
        <ele>1004.7</ele>
        <time>2022-08-29T08:09:19Z</time>
      </trkpt>
      <trkpt lat="45.94807" lon="3.69429">
        <ele>1004.8</ele>
        <time>2022-08-29T08:09:20Z</time>
      </trkpt>
      <trkpt lat="45.94807" lon="3.69429">
        <ele>1004.8</ele>
        <time>2022-08-29T08:09:21Z</time>
      </trkpt>
      <trkpt lat="45.94807" lon="3.69429">
        <ele>1004.8</ele>
        <time>2022-08-29T08:09:22Z</time>
      </trkpt>
      <trkpt lat="45.94807" lon="3.69428">
        <ele>1004.8</ele>
        <time>2022-08-29T08:09:23Z</time>
      </trkpt>
      <trkpt lat="45.94806" lon="3.69428">
        <ele>1004.8</ele>
        <time>2022-08-29T08:09:24Z</time>
      </trkpt>
      <trkpt lat="45.94806" lon="3.69428">
        <ele>1004.8</ele>
        <time>2022-08-29T08:09:25Z</time>
      </trkpt>
      <trkpt lat="45.94806" lon="3.69428">
        <ele>1004.9</ele>
        <time>2022-08-29T08:09:26Z</time>
      </trkpt>
      <trkpt lat="45.94806" lon="3.69427">
        <ele>1004.9</ele>
        <time>2022-08-29T08:09:27Z</time>
      </trkpt>
      <trkpt lat="45.94806" lon="3.69427">
        <ele>1004.9</ele>
        <time>2022-08-29T08:09:28Z</time>
      </trkpt>
      <trkpt lat="45.94806" lon="3.69427">
        <ele>1004.9</ele>
        <time>2022-08-29T08:09:29Z</time>
      </trkpt>
      <trkpt lat="45.94806" lon="3.69427">
        <ele>1004.9</ele>
        <time>2022-08-29T08:09:30Z</time>
      </trkpt>
      <trkpt lat="45.94806" lon="3.69427">
        <ele>1004.9</ele>
        <time>2022-08-29T08:09:31Z</time>
      </trkpt>
      <trkpt lat="45.94806" lon="3.69426">
        <ele>1004.9</ele>
        <time>2022-08-29T08:09:32Z</time>
      </trkpt>
      <trkpt lat="45.94806" lon="3.69426">
        <ele>1005</ele>
        <time>2022-08-29T08:09:33Z</time>
      </trkpt>
      <trkpt lat="45.94806" lon="3.69426">
        <ele>1005</ele>
        <time>2022-08-29T08:09:34Z</time>
      </trkpt>
      <trkpt lat="45.94806" lon="3.69426">
        <ele>1005</ele>
        <time>2022-08-29T08:09:35Z</time>
      </trkpt>
      <trkpt lat="45.94806" lon="3.69425">
        <ele>1005</ele>
        <time>2022-08-29T08:09:36Z</time>
      </trkpt>
      <trkpt lat="45.94806" lon="3.69425">
        <ele>1005</ele>
        <time>2022-08-29T08:09:37Z</time>
      </trkpt>
      <trkpt lat="45.94805" lon="3.69421">
        <ele>1005.3</ele>
        <time>2022-08-29T08:09:38Z</time>
      </trkpt>
      <trkpt lat="45.94804" lon="3.69419">
        <ele>1005.4</ele>
        <time>2022-08-29T08:09:39Z</time>
      </trkpt>
      <trkpt lat="45.94803" lon="3.69414">
        <ele>1005.7</ele>
        <time>2022-08-29T08:09:40Z</time>
      </trkpt>
      <trkpt lat="45.94803" lon="3.69413">
        <ele>1005.8</ele>
        <time>2022-08-29T08:09:41Z</time>
      </trkpt>
      <trkpt lat="45.94801" lon="3.69408">
        <ele>1006</ele>
        <time>2022-08-29T08:09:42Z</time>
      </trkpt>
      <trkpt lat="45.94801" lon="3.69406">
        <ele>1006</ele>
        <time>2022-08-29T08:09:43Z</time>
      </trkpt>
      <trkpt lat="45.948" lon="3.69402">
        <ele>1006.2</ele>
        <time>2022-08-29T08:09:44Z</time>
      </trkpt>
      <trkpt lat="45.94799" lon="3.69401">
        <ele>1006.2</ele>
        <time>2022-08-29T08:09:45Z</time>
      </trkpt>
      <trkpt lat="45.94799" lon="3.69398">
        <ele>1006.3</ele>
        <time>2022-08-29T08:09:46Z</time>
      </trkpt>
      <trkpt lat="45.94798" lon="3.69396">
        <ele>1006.4</ele>
        <time>2022-08-29T08:09:47Z</time>
      </trkpt>
      <trkpt lat="45.94797" lon="3.69392">
        <ele>1006.5</ele>
        <time>2022-08-29T08:09:48Z</time>
      </trkpt>
      <trkpt lat="45.94796" lon="3.69391">
        <ele>1006.6</ele>
        <time>2022-08-29T08:09:49Z</time>
      </trkpt>
      <trkpt lat="45.94794" lon="3.69388">
        <ele>1006.7</ele>
        <time>2022-08-29T08:09:50Z</time>
      </trkpt>
      <trkpt lat="45.94794" lon="3.69386">
        <ele>1006.7</ele>
        <time>2022-08-29T08:09:51Z</time>
      </trkpt>
      <trkpt lat="45.94793" lon="3.69385">
        <ele>1006.8</ele>
        <time>2022-08-29T08:09:53Z</time>
      </trkpt>
      <trkpt lat="45.9479" lon="3.6938">
        <ele>1007</ele>
        <time>2022-08-29T08:09:56Z</time>
      </trkpt>
      <trkpt lat="45.94787" lon="3.69372">
        <ele>1007.2</ele>
        <time>2022-08-29T08:09:58Z</time>
      </trkpt>
      <trkpt lat="45.94785" lon="3.69369">
        <ele>1007.3</ele>
        <time>2022-08-29T08:09:59Z</time>
      </trkpt>
      <trkpt lat="45.94783" lon="3.69367">
        <ele>1007.4</ele>
        <time>2022-08-29T08:10:00Z</time>
      </trkpt>
      <trkpt lat="45.94782" lon="3.69366">
        <ele>1007.4</ele>
        <time>2022-08-29T08:10:01Z</time>
      </trkpt>
      <trkpt lat="45.94781" lon="3.69365">
        <ele>1007.5</ele>
        <time>2022-08-29T08:10:02Z</time>
      </trkpt>
      <trkpt lat="45.94779" lon="3.69363">
        <ele>1007.5</ele>
        <time>2022-08-29T08:10:03Z</time>
      </trkpt>
      <trkpt lat="45.94778" lon="3.69361">
        <ele>1007.5</ele>
        <time>2022-08-29T08:10:04Z</time>
      </trkpt>
      <trkpt lat="45.94777" lon="3.69359">
        <ele>1007.6</ele>
        <time>2022-08-29T08:10:05Z</time>
      </trkpt>
      <trkpt lat="45.94776" lon="3.69356">
        <ele>1007.6</ele>
        <time>2022-08-29T08:10:06Z</time>
      </trkpt>
      <trkpt lat="45.94776" lon="3.69355">
        <ele>1007.6</ele>
        <time>2022-08-29T08:10:07Z</time>
      </trkpt>
      <trkpt lat="45.94774" lon="3.69351">
        <ele>1007.7</ele>
        <time>2022-08-29T08:10:08Z</time>
      </trkpt>
      <trkpt lat="45.94773" lon="3.6935">
        <ele>1007.7</ele>
        <time>2022-08-29T08:10:09Z</time>
      </trkpt>
      <trkpt lat="45.94772" lon="3.69348">
        <ele>1007.8</ele>
        <time>2022-08-29T08:10:10Z</time>
      </trkpt>
      <trkpt lat="45.94771" lon="3.69346">
        <ele>1007.8</ele>
        <time>2022-08-29T08:10:11Z</time>
      </trkpt>
      <trkpt lat="45.94771" lon="3.69345">
        <ele>1007.8</ele>
        <time>2022-08-29T08:10:12Z</time>
      </trkpt>
      <trkpt lat="45.9477" lon="3.69344">
        <ele>1007.9</ele>
        <time>2022-08-29T08:10:13Z</time>
      </trkpt>
      <trkpt lat="45.94769" lon="3.69342">
        <ele>1007.9</ele>
        <time>2022-08-29T08:10:14Z</time>
      </trkpt>
      <trkpt lat="45.94768" lon="3.6934">
        <ele>1007.9</ele>
        <time>2022-08-29T08:10:15Z</time>
      </trkpt>
      <trkpt lat="45.94768" lon="3.69338">
        <ele>1008</ele>
        <time>2022-08-29T08:10:16Z</time>
      </trkpt>
      <trkpt lat="45.94766" lon="3.69335">
        <ele>1008.1</ele>
        <time>2022-08-29T08:10:17Z</time>
      </trkpt>
      <trkpt lat="45.94765" lon="3.69333">
        <ele>1008.1</ele>
        <time>2022-08-29T08:10:18Z</time>
      </trkpt>
      <trkpt lat="45.94763" lon="3.6933">
        <ele>1008.3</ele>
        <time>2022-08-29T08:10:19Z</time>
      </trkpt>
      <trkpt lat="45.94762" lon="3.69328">
        <ele>1008.3</ele>
        <time>2022-08-29T08:10:20Z</time>
      </trkpt>
      <trkpt lat="45.94761" lon="3.69325">
        <ele>1008.4</ele>
        <time>2022-08-29T08:10:21Z</time>
      </trkpt>
      <trkpt lat="45.94759" lon="3.69322">
        <ele>1008.5</ele>
        <time>2022-08-29T08:10:22Z</time>
      </trkpt>
      <trkpt lat="45.94757" lon="3.69319">
        <ele>1008.7</ele>
        <time>2022-08-29T08:10:23Z</time>
      </trkpt>
      <trkpt lat="45.94755" lon="3.69315">
        <ele>1008.8</ele>
        <time>2022-08-29T08:10:24Z</time>
      </trkpt>
      <trkpt lat="45.94754" lon="3.69313">
        <ele>1008.9</ele>
        <time>2022-08-29T08:10:25Z</time>
      </trkpt>
      <trkpt lat="45.94752" lon="3.6931">
        <ele>1009</ele>
        <time>2022-08-29T08:10:26Z</time>
      </trkpt>
      <trkpt lat="45.94751" lon="3.69309">
        <ele>1009.1</ele>
        <time>2022-08-29T08:10:27Z</time>
      </trkpt>
      <trkpt lat="45.9475" lon="3.69308">
        <ele>1009.2</ele>
        <time>2022-08-29T08:10:28Z</time>
      </trkpt>
      <trkpt lat="45.94749" lon="3.69306">
        <ele>1009.3</ele>
        <time>2022-08-29T08:10:29Z</time>
      </trkpt>
      <trkpt lat="45.94748" lon="3.69304">
        <ele>1009.4</ele>
        <time>2022-08-29T08:10:30Z</time>
      </trkpt>
      <trkpt lat="45.94747" lon="3.69303">
        <ele>1009.5</ele>
        <time>2022-08-29T08:10:31Z</time>
      </trkpt>
      <trkpt lat="45.94745" lon="3.69301">
        <ele>1009.6</ele>
        <time>2022-08-29T08:10:32Z</time>
      </trkpt>
      <trkpt lat="45.94745" lon="3.693">
        <ele>1009.7</ele>
        <time>2022-08-29T08:10:33Z</time>
      </trkpt>
      <trkpt lat="45.94744" lon="3.69299">
        <ele>1009.8</ele>
        <time>2022-08-29T08:10:34Z</time>
      </trkpt>
      <trkpt lat="45.94744" lon="3.69298">
        <ele>1009.8</ele>
        <time>2022-08-29T08:10:35Z</time>
      </trkpt>
      <trkpt lat="45.94743" lon="3.69297">
        <ele>1009.9</ele>
        <time>2022-08-29T08:10:36Z</time>
      </trkpt>
      <trkpt lat="45.94743" lon="3.69295">
        <ele>1010</ele>
        <time>2022-08-29T08:10:37Z</time>
      </trkpt>
      <trkpt lat="45.94742" lon="3.69294">
        <ele>1010.1</ele>
        <time>2022-08-29T08:10:38Z</time>
      </trkpt>
      <trkpt lat="45.94741" lon="3.69293">
        <ele>1010.2</ele>
        <time>2022-08-29T08:10:39Z</time>
      </trkpt>
      <trkpt lat="45.94741" lon="3.69291">
        <ele>1010.3</ele>
        <time>2022-08-29T08:10:40Z</time>
      </trkpt>
      <trkpt lat="45.9474" lon="3.69289">
        <ele>1010.5</ele>
        <time>2022-08-29T08:10:42Z</time>
      </trkpt>
      <trkpt lat="45.94739" lon="3.69288">
        <ele>1010.6</ele>
        <time>2022-08-29T08:10:43Z</time>
      </trkpt>
      <trkpt lat="45.94738" lon="3.69287">
        <ele>1010.8</ele>
        <time>2022-08-29T08:10:44Z</time>
      </trkpt>
      <trkpt lat="45.94738" lon="3.69286">
        <ele>1010.9</ele>
        <time>2022-08-29T08:10:45Z</time>
      </trkpt>
      <trkpt lat="45.94737" lon="3.69285">
        <ele>1011</ele>
        <time>2022-08-29T08:10:46Z</time>
      </trkpt>
      <trkpt lat="45.94736" lon="3.69285">
        <ele>1011.1</ele>
        <time>2022-08-29T08:10:47Z</time>
      </trkpt>
      <trkpt lat="45.94735" lon="3.69284">
        <ele>1011.2</ele>
        <time>2022-08-29T08:10:48Z</time>
      </trkpt>
      <trkpt lat="45.94734" lon="3.69284">
        <ele>1011.3</ele>
        <time>2022-08-29T08:10:49Z</time>
      </trkpt>
      <trkpt lat="45.94733" lon="3.69284">
        <ele>1011.4</ele>
        <time>2022-08-29T08:10:50Z</time>
      </trkpt>
      <trkpt lat="45.94732" lon="3.69284">
        <ele>1011.6</ele>
        <time>2022-08-29T08:10:51Z</time>
      </trkpt>
      <trkpt lat="45.94731" lon="3.69284">
        <ele>1011.7</ele>
        <time>2022-08-29T08:10:52Z</time>
      </trkpt>
      <trkpt lat="45.9473" lon="3.69284">
        <ele>1011.8</ele>
        <time>2022-08-29T08:10:53Z</time>
      </trkpt>
      <trkpt lat="45.9473" lon="3.69284">
        <ele>1011.9</ele>
        <time>2022-08-29T08:10:54Z</time>
      </trkpt>
      <trkpt lat="45.94729" lon="3.69284">
        <ele>1012</ele>
        <time>2022-08-29T08:10:55Z</time>
      </trkpt>
      <trkpt lat="45.94729" lon="3.69284">
        <ele>1012</ele>
        <time>2022-08-29T08:10:56Z</time>
      </trkpt>
      <trkpt lat="45.94729" lon="3.69284">
        <ele>1012</ele>
        <time>2022-08-29T08:10:57Z</time>
      </trkpt>
      <trkpt lat="45.9473" lon="3.69285">
        <ele>1012.1</ele>
        <time>2022-08-29T08:10:58Z</time>
      </trkpt>
      <trkpt lat="45.94731" lon="3.69285">
        <ele>1012.2</ele>
        <time>2022-08-29T08:10:59Z</time>
      </trkpt>
      <trkpt lat="45.94731" lon="3.69286">
        <ele>1012.4</ele>
        <time>2022-08-29T08:11:00Z</time>
      </trkpt>
      <trkpt lat="45.94732" lon="3.69287">
        <ele>1012.5</ele>
        <time>2022-08-29T08:11:01Z</time>
      </trkpt>
      <trkpt lat="45.94731" lon="3.69289">
        <ele>1012.7</ele>
        <time>2022-08-29T08:11:02Z</time>
      </trkpt>
      <trkpt lat="45.94731" lon="3.6929">
        <ele>1012.8</ele>
        <time>2022-08-29T08:11:03Z</time>
      </trkpt>
      <trkpt lat="45.94731" lon="3.69291">
        <ele>1012.9</ele>
        <time>2022-08-29T08:11:04Z</time>
      </trkpt>
      <trkpt lat="45.94731" lon="3.69292">
        <ele>1013</ele>
        <time>2022-08-29T08:11:05Z</time>
      </trkpt>
      <trkpt lat="45.94731" lon="3.69292">
        <ele>1013.1</ele>
        <time>2022-08-29T08:11:06Z</time>
      </trkpt>
      <trkpt lat="45.9473" lon="3.69293">
        <ele>1013.2</ele>
        <time>2022-08-29T08:11:07Z</time>
      </trkpt>
      <trkpt lat="45.9473" lon="3.69293">
        <ele>1013.2</ele>
        <time>2022-08-29T08:11:08Z</time>
      </trkpt>
      <trkpt lat="45.9473" lon="3.69293">
        <ele>1013.3</ele>
        <time>2022-08-29T08:11:09Z</time>
      </trkpt>
      <trkpt lat="45.94729" lon="3.69294">
        <ele>1013.4</ele>
        <time>2022-08-29T08:11:10Z</time>
      </trkpt>
      <trkpt lat="45.94729" lon="3.69294">
        <ele>1013.4</ele>
        <time>2022-08-29T08:11:11Z</time>
      </trkpt>
      <trkpt lat="45.94729" lon="3.69294">
        <ele>1013.5</ele>
        <time>2022-08-29T08:11:12Z</time>
      </trkpt>
      <trkpt lat="45.94728" lon="3.69294">
        <ele>1013.6</ele>
        <time>2022-08-29T08:11:13Z</time>
      </trkpt>
      <trkpt lat="45.94728" lon="3.69295">
        <ele>1013.6</ele>
        <time>2022-08-29T08:11:14Z</time>
      </trkpt>
      <trkpt lat="45.94727" lon="3.69295">
        <ele>1013.8</ele>
        <time>2022-08-29T08:11:15Z</time>
      </trkpt>
      <trkpt lat="45.94726" lon="3.69296">
        <ele>1014</ele>
        <time>2022-08-29T08:11:16Z</time>
      </trkpt>
      <trkpt lat="45.94725" lon="3.69296">
        <ele>1014.2</ele>
        <time>2022-08-29T08:11:17Z</time>
      </trkpt>
      <trkpt lat="45.94723" lon="3.69296">
        <ele>1014.4</ele>
        <time>2022-08-29T08:11:18Z</time>
      </trkpt>
      <trkpt lat="45.9472" lon="3.69298">
        <ele>1015.1</ele>
        <time>2022-08-29T08:11:19Z</time>
      </trkpt>
      <trkpt lat="45.94719" lon="3.69298">
        <ele>1015.3</ele>
        <time>2022-08-29T08:11:20Z</time>
      </trkpt>
      <trkpt lat="45.94717" lon="3.69299">
        <ele>1015.6</ele>
        <time>2022-08-29T08:11:21Z</time>
      </trkpt>
      <trkpt lat="45.94716" lon="3.69299">
        <ele>1015.9</ele>
        <time>2022-08-29T08:11:22Z</time>
      </trkpt>
      <trkpt lat="45.94714" lon="3.693">
        <ele>1016.1</ele>
        <time>2022-08-29T08:11:23Z</time>
      </trkpt>
      <trkpt lat="45.94713" lon="3.693">
        <ele>1016.4</ele>
        <time>2022-08-29T08:11:24Z</time>
      </trkpt>
      <trkpt lat="45.94711" lon="3.69299">
        <ele>1016.7</ele>
        <time>2022-08-29T08:11:25Z</time>
      </trkpt>
      <trkpt lat="45.94709" lon="3.69299">
        <ele>1017</ele>
        <time>2022-08-29T08:11:26Z</time>
      </trkpt>
      <trkpt lat="45.94708" lon="3.69299">
        <ele>1017.3</ele>
        <time>2022-08-29T08:11:27Z</time>
      </trkpt>
      <trkpt lat="45.94707" lon="3.693">
        <ele>1017.5</ele>
        <time>2022-08-29T08:11:28Z</time>
      </trkpt>
      <trkpt lat="45.94704" lon="3.693">
        <ele>1017.9</ele>
        <time>2022-08-29T08:11:29Z</time>
      </trkpt>
      <trkpt lat="45.94704" lon="3.693">
        <ele>1018</ele>
        <time>2022-08-29T08:11:30Z</time>
      </trkpt>
      <trkpt lat="45.94703" lon="3.693">
        <ele>1018.2</ele>
        <time>2022-08-29T08:11:31Z</time>
      </trkpt>
      <trkpt lat="45.94701" lon="3.69301">
        <ele>1018.5</ele>
        <time>2022-08-29T08:11:32Z</time>
      </trkpt>
      <trkpt lat="45.947" lon="3.69302">
        <ele>1018.7</ele>
        <time>2022-08-29T08:11:33Z</time>
      </trkpt>
      <trkpt lat="45.94699" lon="3.69302">
        <ele>1018.9</ele>
        <time>2022-08-29T08:11:34Z</time>
      </trkpt>
      <trkpt lat="45.94696" lon="3.69302">
        <ele>1019.4</ele>
        <time>2022-08-29T08:11:35Z</time>
      </trkpt>
      <trkpt lat="45.94695" lon="3.69301">
        <ele>1019.5</ele>
        <time>2022-08-29T08:11:36Z</time>
      </trkpt>
      <trkpt lat="45.94693" lon="3.693">
        <ele>1019.8</ele>
        <time>2022-08-29T08:11:37Z</time>
      </trkpt>
      <trkpt lat="45.94692" lon="3.69299">
        <ele>1019.9</ele>
        <time>2022-08-29T08:11:38Z</time>
      </trkpt>
      <trkpt lat="45.94692" lon="3.69299">
        <ele>1020</ele>
        <time>2022-08-29T08:11:39Z</time>
      </trkpt>
      <trkpt lat="45.94689" lon="3.69298">
        <ele>1020.4</ele>
        <time>2022-08-29T08:11:40Z</time>
      </trkpt>
      <trkpt lat="45.94688" lon="3.69297">
        <ele>1020.6</ele>
        <time>2022-08-29T08:11:41Z</time>
      </trkpt>
      <trkpt lat="45.94685" lon="3.69295">
        <ele>1020.9</ele>
        <time>2022-08-29T08:11:42Z</time>
      </trkpt>
      <trkpt lat="45.94685" lon="3.69295">
        <ele>1021.1</ele>
        <time>2022-08-29T08:11:43Z</time>
      </trkpt>
      <trkpt lat="45.94683" lon="3.69294">
        <ele>1021.3</ele>
        <time>2022-08-29T08:11:44Z</time>
      </trkpt>
      <trkpt lat="45.94682" lon="3.69293">
        <ele>1021.4</ele>
        <time>2022-08-29T08:11:45Z</time>
      </trkpt>
      <trkpt lat="45.94681" lon="3.69292">
        <ele>1021.6</ele>
        <time>2022-08-29T08:11:46Z</time>
      </trkpt>
      <trkpt lat="45.94679" lon="3.69291">
        <ele>1021.8</ele>
        <time>2022-08-29T08:11:47Z</time>
      </trkpt>
      <trkpt lat="45.94677" lon="3.69289">
        <ele>1022.2</ele>
        <time>2022-08-29T08:11:48Z</time>
      </trkpt>
      <trkpt lat="45.94676" lon="3.69288">
        <ele>1022.3</ele>
        <time>2022-08-29T08:11:49Z</time>
      </trkpt>
      <trkpt lat="45.94675" lon="3.69287">
        <ele>1022.6</ele>
        <time>2022-08-29T08:11:50Z</time>
      </trkpt>
      <trkpt lat="45.94673" lon="3.69287">
        <ele>1022.8</ele>
        <time>2022-08-29T08:11:51Z</time>
      </trkpt>
      <trkpt lat="45.94672" lon="3.69287">
        <ele>1023</ele>
        <time>2022-08-29T08:11:52Z</time>
      </trkpt>
      <trkpt lat="45.9467" lon="3.69287">
        <ele>1023.2</ele>
        <time>2022-08-29T08:11:53Z</time>
      </trkpt>
      <trkpt lat="45.94669" lon="3.69287">
        <ele>1023.3</ele>
        <time>2022-08-29T08:11:54Z</time>
      </trkpt>
      <trkpt lat="45.94668" lon="3.69287">
        <ele>1023.5</ele>
        <time>2022-08-29T08:11:55Z</time>
      </trkpt>
      <trkpt lat="45.94668" lon="3.69286">
        <ele>1023.6</ele>
        <time>2022-08-29T08:11:56Z</time>
      </trkpt>
      <trkpt lat="45.94667" lon="3.69285">
        <ele>1023.8</ele>
        <time>2022-08-29T08:11:57Z</time>
      </trkpt>
      <trkpt lat="45.94665" lon="3.69281">
        <ele>1024.3</ele>
        <time>2022-08-29T08:11:58Z</time>
      </trkpt>
      <trkpt lat="45.94665" lon="3.6928">
        <ele>1024.4</ele>
        <time>2022-08-29T08:11:59Z</time>
      </trkpt>
      <trkpt lat="45.94664" lon="3.69279">
        <ele>1024.6</ele>
        <time>2022-08-29T08:12:00Z</time>
      </trkpt>
      <trkpt lat="45.94663" lon="3.69278">
        <ele>1024.8</ele>
        <time>2022-08-29T08:12:01Z</time>
      </trkpt>
      <trkpt lat="45.94663" lon="3.69277">
        <ele>1024.9</ele>
        <time>2022-08-29T08:12:02Z</time>
      </trkpt>
      <trkpt lat="45.94662" lon="3.69276">
        <ele>1025.2</ele>
        <time>2022-08-29T08:12:03Z</time>
      </trkpt>
      <trkpt lat="45.94661" lon="3.69274">
        <ele>1025.3</ele>
        <time>2022-08-29T08:12:04Z</time>
      </trkpt>
      <trkpt lat="45.9466" lon="3.69273">
        <ele>1025.5</ele>
        <time>2022-08-29T08:12:05Z</time>
      </trkpt>
      <trkpt lat="45.94659" lon="3.69272">
        <ele>1025.7</ele>
        <time>2022-08-29T08:12:06Z</time>
      </trkpt>
      <trkpt lat="45.94658" lon="3.69272">
        <ele>1025.9</ele>
        <time>2022-08-29T08:12:07Z</time>
      </trkpt>
      <trkpt lat="45.94658" lon="3.69271">
        <ele>1026.1</ele>
        <time>2022-08-29T08:12:08Z</time>
      </trkpt>
      <trkpt lat="45.94657" lon="3.6927">
        <ele>1026.3</ele>
        <time>2022-08-29T08:12:09Z</time>
      </trkpt>
      <trkpt lat="45.94656" lon="3.69269">
        <ele>1026.4</ele>
        <time>2022-08-29T08:12:10Z</time>
      </trkpt>
      <trkpt lat="45.94655" lon="3.69268">
        <ele>1026.6</ele>
        <time>2022-08-29T08:12:11Z</time>
      </trkpt>
      <trkpt lat="45.94654" lon="3.69265">
        <ele>1027</ele>
        <time>2022-08-29T08:12:12Z</time>
      </trkpt>
      <trkpt lat="45.94653" lon="3.69264">
        <ele>1027.2</ele>
        <time>2022-08-29T08:12:13Z</time>
      </trkpt>
      <trkpt lat="45.94653" lon="3.69263">
        <ele>1027.3</ele>
        <time>2022-08-29T08:12:14Z</time>
      </trkpt>
      <trkpt lat="45.94652" lon="3.69261">
        <ele>1027.6</ele>
        <time>2022-08-29T08:12:15Z</time>
      </trkpt>
      <trkpt lat="45.94651" lon="3.6926">
        <ele>1027.8</ele>
        <time>2022-08-29T08:12:16Z</time>
      </trkpt>
      <trkpt lat="45.94651" lon="3.69259">
        <ele>1027.9</ele>
        <time>2022-08-29T08:12:17Z</time>
      </trkpt>
      <trkpt lat="45.9465" lon="3.69258">
        <ele>1028.1</ele>
        <time>2022-08-29T08:12:18Z</time>
      </trkpt>
      <trkpt lat="45.9465" lon="3.69257">
        <ele>1028.2</ele>
        <time>2022-08-29T08:12:19Z</time>
      </trkpt>
      <trkpt lat="45.94649" lon="3.69256">
        <ele>1028.4</ele>
        <time>2022-08-29T08:12:20Z</time>
      </trkpt>
      <trkpt lat="45.94649" lon="3.69255">
        <ele>1028.5</ele>
        <time>2022-08-29T08:12:21Z</time>
      </trkpt>
      <trkpt lat="45.94649" lon="3.69254">
        <ele>1028.7</ele>
        <time>2022-08-29T08:12:22Z</time>
      </trkpt>
      <trkpt lat="45.94649" lon="3.69254">
        <ele>1028.7</ele>
        <time>2022-08-29T08:12:23Z</time>
      </trkpt>
      <trkpt lat="45.94649" lon="3.69253">
        <ele>1028.8</ele>
        <time>2022-08-29T08:12:24Z</time>
      </trkpt>
      <trkpt lat="45.9465" lon="3.69252">
        <ele>1028.9</ele>
        <time>2022-08-29T08:12:25Z</time>
      </trkpt>
      <trkpt lat="45.9465" lon="3.69251">
        <ele>1029.1</ele>
        <time>2022-08-29T08:12:26Z</time>
      </trkpt>
      <trkpt lat="45.94649" lon="3.69248">
        <ele>1030.3</ele>
        <time>2022-08-29T08:12:27Z</time>
      </trkpt>
      <trkpt lat="45.94649" lon="3.69247">
        <ele>1030.4</ele>
        <time>2022-08-29T08:12:28Z</time>
      </trkpt>
      <trkpt lat="45.94648" lon="3.69245">
        <ele>1030.5</ele>
        <time>2022-08-29T08:12:29Z</time>
      </trkpt>
      <trkpt lat="45.94648" lon="3.69243">
        <ele>1030.7</ele>
        <time>2022-08-29T08:12:30Z</time>
      </trkpt>
      <trkpt lat="45.94647" lon="3.69241">
        <ele>1030.9</ele>
        <time>2022-08-29T08:12:31Z</time>
      </trkpt>
      <trkpt lat="45.94647" lon="3.69239">
        <ele>1031.1</ele>
        <time>2022-08-29T08:12:32Z</time>
      </trkpt>
      <trkpt lat="45.94646" lon="3.69237">
        <ele>1031.3</ele>
        <time>2022-08-29T08:12:33Z</time>
      </trkpt>
      <trkpt lat="45.94645" lon="3.69234">
        <ele>1031.5</ele>
        <time>2022-08-29T08:12:34Z</time>
      </trkpt>
      <trkpt lat="45.94645" lon="3.69232">
        <ele>1031.7</ele>
        <time>2022-08-29T08:12:35Z</time>
      </trkpt>
      <trkpt lat="45.94645" lon="3.6923">
        <ele>1031.9</ele>
        <time>2022-08-29T08:12:36Z</time>
      </trkpt>
      <trkpt lat="45.94644" lon="3.69227">
        <ele>1032.1</ele>
        <time>2022-08-29T08:12:37Z</time>
      </trkpt>
      <trkpt lat="45.94644" lon="3.69224">
        <ele>1032.3</ele>
        <time>2022-08-29T08:12:38Z</time>
      </trkpt>
      <trkpt lat="45.94643" lon="3.69223">
        <ele>1032.4</ele>
        <time>2022-08-29T08:12:39Z</time>
      </trkpt>
      <trkpt lat="45.94643" lon="3.69222">
        <ele>1032.5</ele>
        <time>2022-08-29T08:12:40Z</time>
      </trkpt>
      <trkpt lat="45.94642" lon="3.6922">
        <ele>1032.7</ele>
        <time>2022-08-29T08:12:41Z</time>
      </trkpt>
      <trkpt lat="45.94641" lon="3.69219">
        <ele>1032.8</ele>
        <time>2022-08-29T08:12:42Z</time>
      </trkpt>
      <trkpt lat="45.94641" lon="3.69217">
        <ele>1032.9</ele>
        <time>2022-08-29T08:12:43Z</time>
      </trkpt>
      <trkpt lat="45.9464" lon="3.69216">
        <ele>1033.1</ele>
        <time>2022-08-29T08:12:44Z</time>
      </trkpt>
      <trkpt lat="45.94641" lon="3.69214">
        <ele>1033.1</ele>
        <time>2022-08-29T08:12:45Z</time>
      </trkpt>
      <trkpt lat="45.9464" lon="3.69213">
        <ele>1033.2</ele>
        <time>2022-08-29T08:12:46Z</time>
      </trkpt>
      <trkpt lat="45.9464" lon="3.69212">
        <ele>1033.3</ele>
        <time>2022-08-29T08:12:47Z</time>
      </trkpt>
      <trkpt lat="45.94639" lon="3.69211">
        <ele>1033.4</ele>
        <time>2022-08-29T08:12:48Z</time>
      </trkpt>
      <trkpt lat="45.94639" lon="3.6921">
        <ele>1033.5</ele>
        <time>2022-08-29T08:12:49Z</time>
      </trkpt>
      <trkpt lat="45.94639" lon="3.69208">
        <ele>1033.7</ele>
        <time>2022-08-29T08:12:50Z</time>
      </trkpt>
      <trkpt lat="45.94639" lon="3.69206">
        <ele>1033.8</ele>
        <time>2022-08-29T08:12:51Z</time>
      </trkpt>
      <trkpt lat="45.94639" lon="3.69205">
        <ele>1033.9</ele>
        <time>2022-08-29T08:12:52Z</time>
      </trkpt>
      <trkpt lat="45.94639" lon="3.69203">
        <ele>1034</ele>
        <time>2022-08-29T08:12:53Z</time>
      </trkpt>
      <trkpt lat="45.94639" lon="3.69202">
        <ele>1034.1</ele>
        <time>2022-08-29T08:12:54Z</time>
      </trkpt>
      <trkpt lat="45.94639" lon="3.692">
        <ele>1034.2</ele>
        <time>2022-08-29T08:12:55Z</time>
      </trkpt>
      <trkpt lat="45.94639" lon="3.69199">
        <ele>1034.3</ele>
        <time>2022-08-29T08:12:56Z</time>
      </trkpt>
      <trkpt lat="45.94639" lon="3.69197">
        <ele>1034.5</ele>
        <time>2022-08-29T08:12:57Z</time>
      </trkpt>
      <trkpt lat="45.94639" lon="3.69196">
        <ele>1034.6</ele>
        <time>2022-08-29T08:12:58Z</time>
      </trkpt>
      <trkpt lat="45.94638" lon="3.69193">
        <ele>1034.8</ele>
        <time>2022-08-29T08:12:59Z</time>
      </trkpt>
      <trkpt lat="45.94638" lon="3.69191">
        <ele>1034.9</ele>
        <time>2022-08-29T08:13:00Z</time>
      </trkpt>
      <trkpt lat="45.94637" lon="3.6919">
        <ele>1035</ele>
        <time>2022-08-29T08:13:01Z</time>
      </trkpt>
      <trkpt lat="45.94635" lon="3.69187">
        <ele>1035.4</ele>
        <time>2022-08-29T08:13:02Z</time>
      </trkpt>
      <trkpt lat="45.94634" lon="3.69186">
        <ele>1035.5</ele>
        <time>2022-08-29T08:13:03Z</time>
      </trkpt>
      <trkpt lat="45.94633" lon="3.69184">
        <ele>1035.7</ele>
        <time>2022-08-29T08:13:04Z</time>
      </trkpt>
      <trkpt lat="45.94632" lon="3.69183">
        <ele>1035.8</ele>
        <time>2022-08-29T08:13:05Z</time>
      </trkpt>
      <trkpt lat="45.9463" lon="3.69181">
        <ele>1036</ele>
        <time>2022-08-29T08:13:06Z</time>
      </trkpt>
      <trkpt lat="45.94629" lon="3.6918">
        <ele>1036.2</ele>
        <time>2022-08-29T08:13:07Z</time>
      </trkpt>
      <trkpt lat="45.94628" lon="3.69179">
        <ele>1036.3</ele>
        <time>2022-08-29T08:13:08Z</time>
      </trkpt>
      <trkpt lat="45.94627" lon="3.69178">
        <ele>1036.4</ele>
        <time>2022-08-29T08:13:09Z</time>
      </trkpt>
      <trkpt lat="45.94627" lon="3.69178">
        <ele>1036.5</ele>
        <time>2022-08-29T08:13:10Z</time>
      </trkpt>
      <trkpt lat="45.94627" lon="3.69177">
        <ele>1036.5</ele>
        <time>2022-08-29T08:13:11Z</time>
      </trkpt>
      <trkpt lat="45.94626" lon="3.69177">
        <ele>1036.6</ele>
        <time>2022-08-29T08:13:12Z</time>
      </trkpt>
      <trkpt lat="45.94626" lon="3.69176">
        <ele>1036.7</ele>
        <time>2022-08-29T08:13:13Z</time>
      </trkpt>
      <trkpt lat="45.94626" lon="3.69175">
        <ele>1036.8</ele>
        <time>2022-08-29T08:13:14Z</time>
      </trkpt>
      <trkpt lat="45.94626" lon="3.69174">
        <ele>1036.9</ele>
        <time>2022-08-29T08:13:15Z</time>
      </trkpt>
      <trkpt lat="45.94626" lon="3.69172">
        <ele>1037</ele>
        <time>2022-08-29T08:13:16Z</time>
      </trkpt>
      <trkpt lat="45.94625" lon="3.69171">
        <ele>1037.1</ele>
        <time>2022-08-29T08:13:17Z</time>
      </trkpt>
      <trkpt lat="45.94626" lon="3.6917">
        <ele>1037.2</ele>
        <time>2022-08-29T08:13:18Z</time>
      </trkpt>
      <trkpt lat="45.94625" lon="3.69169">
        <ele>1037.3</ele>
        <time>2022-08-29T08:13:19Z</time>
      </trkpt>
      <trkpt lat="45.94625" lon="3.69169">
        <ele>1037.4</ele>
        <time>2022-08-29T08:13:20Z</time>
      </trkpt>
      <trkpt lat="45.94625" lon="3.69168">
        <ele>1037.5</ele>
        <time>2022-08-29T08:13:21Z</time>
      </trkpt>
      <trkpt lat="45.94625" lon="3.69168">
        <ele>1037.5</ele>
        <time>2022-08-29T08:13:22Z</time>
      </trkpt>
      <trkpt lat="45.94625" lon="3.69167">
        <ele>1037.6</ele>
        <time>2022-08-29T08:13:23Z</time>
      </trkpt>
      <trkpt lat="45.94625" lon="3.69167">
        <ele>1037.6</ele>
        <time>2022-08-29T08:13:24Z</time>
      </trkpt>
      <trkpt lat="45.94625" lon="3.69167">
        <ele>1037.6</ele>
        <time>2022-08-29T08:13:25Z</time>
      </trkpt>
      <trkpt lat="45.94625" lon="3.69166">
        <ele>1037.7</ele>
        <time>2022-08-29T08:13:26Z</time>
      </trkpt>
      <trkpt lat="45.94625" lon="3.69166">
        <ele>1037.7</ele>
        <time>2022-08-29T08:13:27Z</time>
      </trkpt>
      <trkpt lat="45.94626" lon="3.69166">
        <ele>1037.8</ele>
        <time>2022-08-29T08:13:28Z</time>
      </trkpt>
      <trkpt lat="45.94625" lon="3.69164">
        <ele>1038</ele>
        <time>2022-08-29T08:13:29Z</time>
      </trkpt>
      <trkpt lat="45.94625" lon="3.69163">
        <ele>1038</ele>
        <time>2022-08-29T08:13:30Z</time>
      </trkpt>
      <trkpt lat="45.94625" lon="3.69162">
        <ele>1038.1</ele>
        <time>2022-08-29T08:13:31Z</time>
      </trkpt>
      <trkpt lat="45.94625" lon="3.69162">
        <ele>1038.2</ele>
        <time>2022-08-29T08:13:32Z</time>
      </trkpt>
      <trkpt lat="45.94625" lon="3.69161">
        <ele>1038.3</ele>
        <time>2022-08-29T08:13:33Z</time>
      </trkpt>
      <trkpt lat="45.94624" lon="3.6916">
        <ele>1038.4</ele>
        <time>2022-08-29T08:13:34Z</time>
      </trkpt>
      <trkpt lat="45.94623" lon="3.69154">
        <ele>1039.1</ele>
        <time>2022-08-29T08:13:35Z</time>
      </trkpt>
      <trkpt lat="45.94623" lon="3.69152">
        <ele>1039.4</ele>
        <time>2022-08-29T08:13:36Z</time>
      </trkpt>
      <trkpt lat="45.94622" lon="3.69147">
        <ele>1040</ele>
        <time>2022-08-29T08:13:37Z</time>
      </trkpt>
      <trkpt lat="45.9462" lon="3.6914">
        <ele>1040.7</ele>
        <time>2022-08-29T08:13:38Z</time>
      </trkpt>
      <trkpt lat="45.94619" lon="3.69135">
        <ele>1041.1</ele>
        <time>2022-08-29T08:13:39Z</time>
      </trkpt>
      <trkpt lat="45.94618" lon="3.69131">
        <ele>1041.5</ele>
        <time>2022-08-29T08:13:40Z</time>
      </trkpt>
      <trkpt lat="45.94618" lon="3.69126">
        <ele>1041.8</ele>
        <time>2022-08-29T08:13:41Z</time>
      </trkpt>
      <trkpt lat="45.94617" lon="3.69125">
        <ele>1042</ele>
        <time>2022-08-29T08:13:42Z</time>
      </trkpt>
      <trkpt lat="45.94617" lon="3.6912">
        <ele>1042.3</ele>
        <time>2022-08-29T08:13:43Z</time>
      </trkpt>
      <trkpt lat="45.94617" lon="3.69119">
        <ele>1042.4</ele>
        <time>2022-08-29T08:13:44Z</time>
      </trkpt>
      <trkpt lat="45.94618" lon="3.69115">
        <ele>1042.7</ele>
        <time>2022-08-29T08:13:45Z</time>
      </trkpt>
      <trkpt lat="45.94618" lon="3.69113">
        <ele>1042.8</ele>
        <time>2022-08-29T08:13:46Z</time>
      </trkpt>
      <trkpt lat="45.9462" lon="3.69109">
        <ele>1043.1</ele>
        <time>2022-08-29T08:13:47Z</time>
      </trkpt>
      <trkpt lat="45.94621" lon="3.69108">
        <ele>1043.2</ele>
        <time>2022-08-29T08:13:48Z</time>
      </trkpt>
      <trkpt lat="45.94621" lon="3.69106">
        <ele>1043.4</ele>
        <time>2022-08-29T08:13:49Z</time>
      </trkpt>
      <trkpt lat="45.94622" lon="3.69104">
        <ele>1043.6</ele>
        <time>2022-08-29T08:13:50Z</time>
      </trkpt>
      <trkpt lat="45.94622" lon="3.69101">
        <ele>1043.7</ele>
        <time>2022-08-29T08:13:51Z</time>
      </trkpt>
      <trkpt lat="45.94622" lon="3.69099">
        <ele>1043.9</ele>
        <time>2022-08-29T08:13:52Z</time>
      </trkpt>
      <trkpt lat="45.94623" lon="3.69096">
        <ele>1044.1</ele>
        <time>2022-08-29T08:13:53Z</time>
      </trkpt>
      <trkpt lat="45.94623" lon="3.69094">
        <ele>1044.2</ele>
        <time>2022-08-29T08:13:54Z</time>
      </trkpt>
      <trkpt lat="45.94623" lon="3.69092">
        <ele>1044.4</ele>
        <time>2022-08-29T08:13:55Z</time>
      </trkpt>
      <trkpt lat="45.94624" lon="3.6909">
        <ele>1044.5</ele>
        <time>2022-08-29T08:13:56Z</time>
      </trkpt>
      <trkpt lat="45.94624" lon="3.69089">
        <ele>1044.6</ele>
        <time>2022-08-29T08:13:57Z</time>
      </trkpt>
      <trkpt lat="45.94624" lon="3.69088">
        <ele>1044.6</ele>
        <time>2022-08-29T08:13:58Z</time>
      </trkpt>
      <trkpt lat="45.94624" lon="3.69086">
        <ele>1044.8</ele>
        <time>2022-08-29T08:13:59Z</time>
      </trkpt>
      <trkpt lat="45.94624" lon="3.69084">
        <ele>1044.9</ele>
        <time>2022-08-29T08:14:00Z</time>
      </trkpt>
      <trkpt lat="45.94624" lon="3.69082">
        <ele>1045.1</ele>
        <time>2022-08-29T08:14:01Z</time>
      </trkpt>
      <trkpt lat="45.94623" lon="3.69079">
        <ele>1045.2</ele>
        <time>2022-08-29T08:14:02Z</time>
      </trkpt>
      <trkpt lat="45.94623" lon="3.69075">
        <ele>1045.6</ele>
        <time>2022-08-29T08:14:03Z</time>
      </trkpt>
      <trkpt lat="45.94622" lon="3.69074">
        <ele>1045.7</ele>
        <time>2022-08-29T08:14:04Z</time>
      </trkpt>
      <trkpt lat="45.94622" lon="3.69071">
        <ele>1045.9</ele>
        <time>2022-08-29T08:14:05Z</time>
      </trkpt>
      <trkpt lat="45.94622" lon="3.69068">
        <ele>1046.1</ele>
        <time>2022-08-29T08:14:06Z</time>
      </trkpt>
      <trkpt lat="45.94623" lon="3.69064">
        <ele>1046.4</ele>
        <time>2022-08-29T08:14:07Z</time>
      </trkpt>
      <trkpt lat="45.94623" lon="3.69063">
        <ele>1046.5</ele>
        <time>2022-08-29T08:14:08Z</time>
      </trkpt>
      <trkpt lat="45.94623" lon="3.69059">
        <ele>1046.8</ele>
        <time>2022-08-29T08:14:09Z</time>
      </trkpt>
      <trkpt lat="45.94623" lon="3.69058">
        <ele>1047</ele>
        <time>2022-08-29T08:14:10Z</time>
      </trkpt>
      <trkpt lat="45.94623" lon="3.69055">
        <ele>1047.1</ele>
        <time>2022-08-29T08:14:11Z</time>
      </trkpt>
      <trkpt lat="45.94623" lon="3.69053">
        <ele>1047.3</ele>
        <time>2022-08-29T08:14:12Z</time>
      </trkpt>
      <trkpt lat="45.94623" lon="3.6905">
        <ele>1047.6</ele>
        <time>2022-08-29T08:14:13Z</time>
      </trkpt>
      <trkpt lat="45.94624" lon="3.69048">
        <ele>1047.7</ele>
        <time>2022-08-29T08:14:14Z</time>
      </trkpt>
      <trkpt lat="45.94624" lon="3.69047">
        <ele>1047.8</ele>
        <time>2022-08-29T08:14:15Z</time>
      </trkpt>
      <trkpt lat="45.94625" lon="3.69046">
        <ele>1047.9</ele>
        <time>2022-08-29T08:14:16Z</time>
      </trkpt>
      <trkpt lat="45.94626" lon="3.69044">
        <ele>1048.1</ele>
        <time>2022-08-29T08:14:17Z</time>
      </trkpt>
      <trkpt lat="45.94628" lon="3.69041">
        <ele>1048.4</ele>
        <time>2022-08-29T08:14:18Z</time>
      </trkpt>
      <trkpt lat="45.94629" lon="3.6904">
        <ele>1048.5</ele>
        <time>2022-08-29T08:14:19Z</time>
      </trkpt>
      <trkpt lat="45.94632" lon="3.69038">
        <ele>1048.7</ele>
        <time>2022-08-29T08:14:20Z</time>
      </trkpt>
      <trkpt lat="45.94633" lon="3.69037">
        <ele>1048.8</ele>
        <time>2022-08-29T08:14:21Z</time>
      </trkpt>
      <trkpt lat="45.94636" lon="3.69036">
        <ele>1049.1</ele>
        <time>2022-08-29T08:14:22Z</time>
      </trkpt>
      <trkpt lat="45.94637" lon="3.69036">
        <ele>1049.1</ele>
        <time>2022-08-29T08:14:23Z</time>
      </trkpt>
      <trkpt lat="45.94638" lon="3.69035">
        <ele>1049.2</ele>
        <time>2022-08-29T08:14:24Z</time>
      </trkpt>
      <trkpt lat="45.94639" lon="3.69034">
        <ele>1049.3</ele>
        <time>2022-08-29T08:14:25Z</time>
      </trkpt>
      <trkpt lat="45.94641" lon="3.69033">
        <ele>1049.4</ele>
        <time>2022-08-29T08:14:26Z</time>
      </trkpt>
      <trkpt lat="45.94642" lon="3.69032">
        <ele>1049.5</ele>
        <time>2022-08-29T08:14:27Z</time>
      </trkpt>
      <trkpt lat="45.94643" lon="3.69031">
        <ele>1049.6</ele>
        <time>2022-08-29T08:14:28Z</time>
      </trkpt>
      <trkpt lat="45.94644" lon="3.69029">
        <ele>1049.7</ele>
        <time>2022-08-29T08:14:29Z</time>
      </trkpt>
      <trkpt lat="45.94646" lon="3.69027">
        <ele>1049.8</ele>
        <time>2022-08-29T08:14:30Z</time>
      </trkpt>
      <trkpt lat="45.94646" lon="3.69026">
        <ele>1049.8</ele>
        <time>2022-08-29T08:14:31Z</time>
      </trkpt>
      <trkpt lat="45.94648" lon="3.69022">
        <ele>1049.9</ele>
        <time>2022-08-29T08:14:32Z</time>
      </trkpt>
      <trkpt lat="45.94649" lon="3.69021">
        <ele>1049.9</ele>
        <time>2022-08-29T08:14:33Z</time>
      </trkpt>
      <trkpt lat="45.9465" lon="3.69019">
        <ele>1049.9</ele>
        <time>2022-08-29T08:14:34Z</time>
      </trkpt>
      <trkpt lat="45.9465" lon="3.69017">
        <ele>1050</ele>
        <time>2022-08-29T08:14:35Z</time>
      </trkpt>
      <trkpt lat="45.9465" lon="3.69016">
        <ele>1050</ele>
        <time>2022-08-29T08:14:36Z</time>
      </trkpt>
      <trkpt lat="45.9465" lon="3.69015">
        <ele>1050</ele>
        <time>2022-08-29T08:14:37Z</time>
      </trkpt>
      <trkpt lat="45.9465" lon="3.69014">
        <ele>1050</ele>
        <time>2022-08-29T08:14:38Z</time>
      </trkpt>
      <trkpt lat="45.94651" lon="3.69013">
        <ele>1050</ele>
        <time>2022-08-29T08:14:39Z</time>
      </trkpt>
      <trkpt lat="45.94651" lon="3.69011">
        <ele>1050</ele>
        <time>2022-08-29T08:14:40Z</time>
      </trkpt>
      <trkpt lat="45.94651" lon="3.6901">
        <ele>1050</ele>
        <time>2022-08-29T08:14:41Z</time>
      </trkpt>
      <trkpt lat="45.94652" lon="3.69008">
        <ele>1050</ele>
        <time>2022-08-29T08:14:42Z</time>
      </trkpt>
      <trkpt lat="45.94652" lon="3.69006">
        <ele>1050</ele>
        <time>2022-08-29T08:14:43Z</time>
      </trkpt>
      <trkpt lat="45.94653" lon="3.69005">
        <ele>1050</ele>
        <time>2022-08-29T08:14:44Z</time>
      </trkpt>
      <trkpt lat="45.94654" lon="3.69003">
        <ele>1050.1</ele>
        <time>2022-08-29T08:14:45Z</time>
      </trkpt>
      <trkpt lat="45.94655" lon="3.69002">
        <ele>1050.1</ele>
        <time>2022-08-29T08:14:46Z</time>
      </trkpt>
      <trkpt lat="45.94657" lon="3.69001">
        <ele>1050.1</ele>
        <time>2022-08-29T08:14:47Z</time>
      </trkpt>
      <trkpt lat="45.94658" lon="3.69">
        <ele>1050.1</ele>
        <time>2022-08-29T08:14:48Z</time>
      </trkpt>
      <trkpt lat="45.9466" lon="3.68996">
        <ele>1050.1</ele>
        <time>2022-08-29T08:14:49Z</time>
      </trkpt>
      <trkpt lat="45.94661" lon="3.68995">
        <ele>1050.1</ele>
        <time>2022-08-29T08:14:50Z</time>
      </trkpt>
      <trkpt lat="45.94662" lon="3.68991">
        <ele>1050.1</ele>
        <time>2022-08-29T08:14:51Z</time>
      </trkpt>
      <trkpt lat="45.94663" lon="3.68989">
        <ele>1050</ele>
        <time>2022-08-29T08:14:52Z</time>
      </trkpt>
      <trkpt lat="45.94665" lon="3.68983">
        <ele>1050</ele>
        <time>2022-08-29T08:14:53Z</time>
      </trkpt>
      <trkpt lat="45.94665" lon="3.6898">
        <ele>1050</ele>
        <time>2022-08-29T08:14:54Z</time>
      </trkpt>
      <trkpt lat="45.94667" lon="3.68976">
        <ele>1050</ele>
        <time>2022-08-29T08:14:55Z</time>
      </trkpt>
      <trkpt lat="45.94667" lon="3.68975">
        <ele>1050</ele>
        <time>2022-08-29T08:14:56Z</time>
      </trkpt>
      <trkpt lat="45.94668" lon="3.68973">
        <ele>1050</ele>
        <time>2022-08-29T08:14:57Z</time>
      </trkpt>
      <trkpt lat="45.94668" lon="3.6897">
        <ele>1050</ele>
        <time>2022-08-29T08:14:58Z</time>
      </trkpt>
      <trkpt lat="45.94668" lon="3.68968">
        <ele>1050</ele>
        <time>2022-08-29T08:14:59Z</time>
      </trkpt>
      <trkpt lat="45.94669" lon="3.68967">
        <ele>1050</ele>
        <time>2022-08-29T08:15:00Z</time>
      </trkpt>
      <trkpt lat="45.94669" lon="3.68966">
        <ele>1050</ele>
        <time>2022-08-29T08:15:01Z</time>
      </trkpt>
      <trkpt lat="45.9467" lon="3.68965">
        <ele>1050</ele>
        <time>2022-08-29T08:15:02Z</time>
      </trkpt>
      <trkpt lat="45.94671" lon="3.68964">
        <ele>1050</ele>
        <time>2022-08-29T08:15:03Z</time>
      </trkpt>
      <trkpt lat="45.94672" lon="3.68963">
        <ele>1050.1</ele>
        <time>2022-08-29T08:15:04Z</time>
      </trkpt>
      <trkpt lat="45.94673" lon="3.68961">
        <ele>1050.1</ele>
        <time>2022-08-29T08:15:05Z</time>
      </trkpt>
      <trkpt lat="45.94673" lon="3.6896">
        <ele>1050.1</ele>
        <time>2022-08-29T08:15:06Z</time>
      </trkpt>
      <trkpt lat="45.94674" lon="3.68959">
        <ele>1050.1</ele>
        <time>2022-08-29T08:15:07Z</time>
      </trkpt>
      <trkpt lat="45.94675" lon="3.68958">
        <ele>1050.1</ele>
        <time>2022-08-29T08:15:08Z</time>
      </trkpt>
      <trkpt lat="45.94676" lon="3.68957">
        <ele>1050.2</ele>
        <time>2022-08-29T08:15:09Z</time>
      </trkpt>
      <trkpt lat="45.94678" lon="3.68955">
        <ele>1050.2</ele>
        <time>2022-08-29T08:15:10Z</time>
      </trkpt>
      <trkpt lat="45.94679" lon="3.68954">
        <ele>1050.2</ele>
        <time>2022-08-29T08:15:11Z</time>
      </trkpt>
      <trkpt lat="45.9468" lon="3.68953">
        <ele>1050.2</ele>
        <time>2022-08-29T08:15:12Z</time>
      </trkpt>
      <trkpt lat="45.94681" lon="3.68952">
        <ele>1050.3</ele>
        <time>2022-08-29T08:15:13Z</time>
      </trkpt>
      <trkpt lat="45.94683" lon="3.6895">
        <ele>1050.3</ele>
        <time>2022-08-29T08:15:14Z</time>
      </trkpt>
      <trkpt lat="45.94684" lon="3.68949">
        <ele>1050.3</ele>
        <time>2022-08-29T08:15:15Z</time>
      </trkpt>
      <trkpt lat="45.94684" lon="3.68948">
        <ele>1050.3</ele>
        <time>2022-08-29T08:15:16Z</time>
      </trkpt>
      <trkpt lat="45.94685" lon="3.68948">
        <ele>1050.3</ele>
        <time>2022-08-29T08:15:17Z</time>
      </trkpt>
      <trkpt lat="45.94686" lon="3.68946">
        <ele>1050.3</ele>
        <time>2022-08-29T08:15:18Z</time>
      </trkpt>
      <trkpt lat="45.94687" lon="3.68945">
        <ele>1050.3</ele>
        <time>2022-08-29T08:15:19Z</time>
      </trkpt>
      <trkpt lat="45.94688" lon="3.68944">
        <ele>1050.3</ele>
        <time>2022-08-29T08:15:20Z</time>
      </trkpt>
      <trkpt lat="45.94688" lon="3.68943">
        <ele>1050.3</ele>
        <time>2022-08-29T08:15:21Z</time>
      </trkpt>
      <trkpt lat="45.94689" lon="3.68942">
        <ele>1050.3</ele>
        <time>2022-08-29T08:15:22Z</time>
      </trkpt>
      <trkpt lat="45.94689" lon="3.68941">
        <ele>1050.3</ele>
        <time>2022-08-29T08:15:23Z</time>
      </trkpt>
      <trkpt lat="45.94689" lon="3.68939">
        <ele>1050.3</ele>
        <time>2022-08-29T08:15:24Z</time>
      </trkpt>
      <trkpt lat="45.94689" lon="3.68938">
        <ele>1050.3</ele>
        <time>2022-08-29T08:15:25Z</time>
      </trkpt>
      <trkpt lat="45.9469" lon="3.68937">
        <ele>1050.3</ele>
        <time>2022-08-29T08:15:26Z</time>
      </trkpt>
      <trkpt lat="45.94691" lon="3.68934">
        <ele>1050.3</ele>
        <time>2022-08-29T08:15:27Z</time>
      </trkpt>
      <trkpt lat="45.94692" lon="3.68933">
        <ele>1050.3</ele>
        <time>2022-08-29T08:15:28Z</time>
      </trkpt>
      <trkpt lat="45.94692" lon="3.68931">
        <ele>1050.3</ele>
        <time>2022-08-29T08:15:29Z</time>
      </trkpt>
      <trkpt lat="45.94693" lon="3.6893">
        <ele>1050.3</ele>
        <time>2022-08-29T08:15:30Z</time>
      </trkpt>
      <trkpt lat="45.94695" lon="3.68929">
        <ele>1050.3</ele>
        <time>2022-08-29T08:15:31Z</time>
      </trkpt>
      <trkpt lat="45.94696" lon="3.68927">
        <ele>1050.3</ele>
        <time>2022-08-29T08:15:32Z</time>
      </trkpt>
      <trkpt lat="45.94698" lon="3.68926">
        <ele>1050.3</ele>
        <time>2022-08-29T08:15:33Z</time>
      </trkpt>
      <trkpt lat="45.94701" lon="3.68923">
        <ele>1050.4</ele>
        <time>2022-08-29T08:15:34Z</time>
      </trkpt>
      <trkpt lat="45.94701" lon="3.68923">
        <ele>1050.4</ele>
        <time>2022-08-29T08:15:35Z</time>
      </trkpt>
      <trkpt lat="45.94704" lon="3.6892">
        <ele>1050.4</ele>
        <time>2022-08-29T08:15:36Z</time>
      </trkpt>
      <trkpt lat="45.94705" lon="3.6892">
        <ele>1050.5</ele>
        <time>2022-08-29T08:15:37Z</time>
      </trkpt>
      <trkpt lat="45.94708" lon="3.68917">
        <ele>1050.6</ele>
        <time>2022-08-29T08:15:38Z</time>
      </trkpt>
      <trkpt lat="45.94709" lon="3.68915">
        <ele>1050.6</ele>
        <time>2022-08-29T08:15:39Z</time>
      </trkpt>
      <trkpt lat="45.94709" lon="3.68913">
        <ele>1050.7</ele>
        <time>2022-08-29T08:15:40Z</time>
      </trkpt>
      <trkpt lat="45.9471" lon="3.68911">
        <ele>1050.7</ele>
        <time>2022-08-29T08:15:41Z</time>
      </trkpt>
      <trkpt lat="45.9471" lon="3.68909">
        <ele>1050.8</ele>
        <time>2022-08-29T08:15:42Z</time>
      </trkpt>
      <trkpt lat="45.9471" lon="3.68907">
        <ele>1050.9</ele>
        <time>2022-08-29T08:15:43Z</time>
      </trkpt>
      <trkpt lat="45.9471" lon="3.68905">
        <ele>1050.9</ele>
        <time>2022-08-29T08:15:44Z</time>
      </trkpt>
      <trkpt lat="45.9471" lon="3.68903">
        <ele>1051</ele>
        <time>2022-08-29T08:15:45Z</time>
      </trkpt>
      <trkpt lat="45.94711" lon="3.689">
        <ele>1051.1</ele>
        <time>2022-08-29T08:15:46Z</time>
      </trkpt>
      <trkpt lat="45.94711" lon="3.68899">
        <ele>1051.2</ele>
        <time>2022-08-29T08:15:47Z</time>
      </trkpt>
      <trkpt lat="45.94711" lon="3.68898">
        <ele>1051.2</ele>
        <time>2022-08-29T08:15:48Z</time>
      </trkpt>
      <trkpt lat="45.94712" lon="3.68893">
        <ele>1051.4</ele>
        <time>2022-08-29T08:15:49Z</time>
      </trkpt>
      <trkpt lat="45.94712" lon="3.68892">
        <ele>1051.4</ele>
        <time>2022-08-29T08:15:50Z</time>
      </trkpt>
      <trkpt lat="45.94713" lon="3.68889">
        <ele>1051.6</ele>
        <time>2022-08-29T08:15:51Z</time>
      </trkpt>
      <trkpt lat="45.94713" lon="3.68888">
        <ele>1051.6</ele>
        <time>2022-08-29T08:15:52Z</time>
      </trkpt>
      <trkpt lat="45.94713" lon="3.68887">
        <ele>1051.7</ele>
        <time>2022-08-29T08:15:53Z</time>
      </trkpt>
      <trkpt lat="45.94714" lon="3.68885">
        <ele>1051.7</ele>
        <time>2022-08-29T08:15:54Z</time>
      </trkpt>
      <trkpt lat="45.94715" lon="3.68883">
        <ele>1051.8</ele>
        <time>2022-08-29T08:15:55Z</time>
      </trkpt>
      <trkpt lat="45.94716" lon="3.68881">
        <ele>1051.9</ele>
        <time>2022-08-29T08:15:56Z</time>
      </trkpt>
      <trkpt lat="45.94718" lon="3.68879">
        <ele>1052</ele>
        <time>2022-08-29T08:15:57Z</time>
      </trkpt>
      <trkpt lat="45.94719" lon="3.68878">
        <ele>1052</ele>
        <time>2022-08-29T08:15:58Z</time>
      </trkpt>
      <trkpt lat="45.94721" lon="3.68877">
        <ele>1052.1</ele>
        <time>2022-08-29T08:15:59Z</time>
      </trkpt>
      <trkpt lat="45.94722" lon="3.68876">
        <ele>1052.1</ele>
        <time>2022-08-29T08:16:00Z</time>
      </trkpt>
      <trkpt lat="45.94723" lon="3.68875">
        <ele>1052.2</ele>
        <time>2022-08-29T08:16:01Z</time>
      </trkpt>
      <trkpt lat="45.94724" lon="3.68875">
        <ele>1052.2</ele>
        <time>2022-08-29T08:16:02Z</time>
      </trkpt>
      <trkpt lat="45.94726" lon="3.68874">
        <ele>1052.3</ele>
        <time>2022-08-29T08:16:03Z</time>
      </trkpt>
      <trkpt lat="45.94728" lon="3.68874">
        <ele>1052.3</ele>
        <time>2022-08-29T08:16:04Z</time>
      </trkpt>
      <trkpt lat="45.94729" lon="3.68873">
        <ele>1052.4</ele>
        <time>2022-08-29T08:16:05Z</time>
      </trkpt>
      <trkpt lat="45.94731" lon="3.68872">
        <ele>1052.4</ele>
        <time>2022-08-29T08:16:06Z</time>
      </trkpt>
      <trkpt lat="45.94732" lon="3.6887">
        <ele>1052.5</ele>
        <time>2022-08-29T08:16:07Z</time>
      </trkpt>
      <trkpt lat="45.94734" lon="3.68868">
        <ele>1052.6</ele>
        <time>2022-08-29T08:16:08Z</time>
      </trkpt>
      <trkpt lat="45.94735" lon="3.68866">
        <ele>1052.7</ele>
        <time>2022-08-29T08:16:09Z</time>
      </trkpt>
      <trkpt lat="45.94736" lon="3.68865">
        <ele>1052.8</ele>
        <time>2022-08-29T08:16:10Z</time>
      </trkpt>
      <trkpt lat="45.94737" lon="3.68863">
        <ele>1052.9</ele>
        <time>2022-08-29T08:16:11Z</time>
      </trkpt>
      <trkpt lat="45.94738" lon="3.6886">
        <ele>1053</ele>
        <time>2022-08-29T08:16:12Z</time>
      </trkpt>
      <trkpt lat="45.94739" lon="3.68858">
        <ele>1053.1</ele>
        <time>2022-08-29T08:16:13Z</time>
      </trkpt>
      <trkpt lat="45.94739" lon="3.68856">
        <ele>1053.2</ele>
        <time>2022-08-29T08:16:14Z</time>
      </trkpt>
      <trkpt lat="45.9474" lon="3.68854">
        <ele>1053.4</ele>
        <time>2022-08-29T08:16:15Z</time>
      </trkpt>
      <trkpt lat="45.94741" lon="3.68852">
        <ele>1053.5</ele>
        <time>2022-08-29T08:16:16Z</time>
      </trkpt>
      <trkpt lat="45.94741" lon="3.6885">
        <ele>1053.6</ele>
        <time>2022-08-29T08:16:17Z</time>
      </trkpt>
      <trkpt lat="45.94741" lon="3.68848">
        <ele>1053.7</ele>
        <time>2022-08-29T08:16:18Z</time>
      </trkpt>
      <trkpt lat="45.94741" lon="3.68846">
        <ele>1053.9</ele>
        <time>2022-08-29T08:16:19Z</time>
      </trkpt>
      <trkpt lat="45.94741" lon="3.68844">
        <ele>1054</ele>
        <time>2022-08-29T08:16:20Z</time>
      </trkpt>
      <trkpt lat="45.94741" lon="3.68842">
        <ele>1054.1</ele>
        <time>2022-08-29T08:16:21Z</time>
      </trkpt>
      <trkpt lat="45.94742" lon="3.68839">
        <ele>1054.3</ele>
        <time>2022-08-29T08:16:22Z</time>
      </trkpt>
      <trkpt lat="45.94742" lon="3.68838">
        <ele>1054.4</ele>
        <time>2022-08-29T08:16:23Z</time>
      </trkpt>
      <trkpt lat="45.94743" lon="3.68837">
        <ele>1054.5</ele>
        <time>2022-08-29T08:16:24Z</time>
      </trkpt>
      <trkpt lat="45.94743" lon="3.68835">
        <ele>1054.6</ele>
        <time>2022-08-29T08:16:25Z</time>
      </trkpt>
      <trkpt lat="45.94743" lon="3.68833">
        <ele>1054.8</ele>
        <time>2022-08-29T08:16:26Z</time>
      </trkpt>
      <trkpt lat="45.94744" lon="3.6883">
        <ele>1055</ele>
        <time>2022-08-29T08:16:27Z</time>
      </trkpt>
      <trkpt lat="45.94744" lon="3.68829">
        <ele>1055.1</ele>
        <time>2022-08-29T08:16:28Z</time>
      </trkpt>
      <trkpt lat="45.94744" lon="3.68827">
        <ele>1055.2</ele>
        <time>2022-08-29T08:16:29Z</time>
      </trkpt>
      <trkpt lat="45.94744" lon="3.68826">
        <ele>1055.3</ele>
        <time>2022-08-29T08:16:30Z</time>
      </trkpt>
      <trkpt lat="45.94744" lon="3.68826">
        <ele>1055.4</ele>
        <time>2022-08-29T08:16:31Z</time>
      </trkpt>
      <trkpt lat="45.94745" lon="3.68825">
        <ele>1055.5</ele>
        <time>2022-08-29T08:16:32Z</time>
      </trkpt>
      <trkpt lat="45.94745" lon="3.68823">
        <ele>1055.6</ele>
        <time>2022-08-29T08:16:33Z</time>
      </trkpt>
      <trkpt lat="45.94746" lon="3.68822">
        <ele>1055.7</ele>
        <time>2022-08-29T08:16:34Z</time>
      </trkpt>
      <trkpt lat="45.94746" lon="3.68821">
        <ele>1055.8</ele>
        <time>2022-08-29T08:16:35Z</time>
      </trkpt>
      <trkpt lat="45.94747" lon="3.6882">
        <ele>1055.9</ele>
        <time>2022-08-29T08:16:36Z</time>
      </trkpt>
      <trkpt lat="45.94747" lon="3.6882">
        <ele>1056</ele>
        <time>2022-08-29T08:16:37Z</time>
      </trkpt>
      <trkpt lat="45.94748" lon="3.6882">
        <ele>1056.1</ele>
        <time>2022-08-29T08:16:38Z</time>
      </trkpt>
      <trkpt lat="45.94749" lon="3.6882">
        <ele>1056.2</ele>
        <time>2022-08-29T08:16:39Z</time>
      </trkpt>
      <trkpt lat="45.94749" lon="3.68819">
        <ele>1056.3</ele>
        <time>2022-08-29T08:16:40Z</time>
      </trkpt>
      <trkpt lat="45.9475" lon="3.68818">
        <ele>1056.4</ele>
        <time>2022-08-29T08:16:41Z</time>
      </trkpt>
      <trkpt lat="45.9475" lon="3.68817">
        <ele>1056.5</ele>
        <time>2022-08-29T08:16:42Z</time>
      </trkpt>
      <trkpt lat="45.94751" lon="3.68816">
        <ele>1056.7</ele>
        <time>2022-08-29T08:16:43Z</time>
      </trkpt>
      <trkpt lat="45.94751" lon="3.68814">
        <ele>1056.9</ele>
        <time>2022-08-29T08:16:44Z</time>
      </trkpt>
      <trkpt lat="45.94752" lon="3.68812">
        <ele>1057.1</ele>
        <time>2022-08-29T08:16:45Z</time>
      </trkpt>
      <trkpt lat="45.94752" lon="3.6881">
        <ele>1057.3</ele>
        <time>2022-08-29T08:16:46Z</time>
      </trkpt>
      <trkpt lat="45.94752" lon="3.68808">
        <ele>1057.5</ele>
        <time>2022-08-29T08:16:47Z</time>
      </trkpt>
      <trkpt lat="45.94752" lon="3.68806">
        <ele>1057.6</ele>
        <time>2022-08-29T08:16:48Z</time>
      </trkpt>
      <trkpt lat="45.94752" lon="3.68803">
        <ele>1057.9</ele>
        <time>2022-08-29T08:16:49Z</time>
      </trkpt>
      <trkpt lat="45.94752" lon="3.68801">
        <ele>1058.1</ele>
        <time>2022-08-29T08:16:50Z</time>
      </trkpt>
      <trkpt lat="45.94752" lon="3.68799">
        <ele>1058.3</ele>
        <time>2022-08-29T08:16:51Z</time>
      </trkpt>
      <trkpt lat="45.94753" lon="3.68797">
        <ele>1058.5</ele>
        <time>2022-08-29T08:16:52Z</time>
      </trkpt>
      <trkpt lat="45.94753" lon="3.68795">
        <ele>1058.7</ele>
        <time>2022-08-29T08:16:53Z</time>
      </trkpt>
      <trkpt lat="45.94754" lon="3.68792">
        <ele>1058.9</ele>
        <time>2022-08-29T08:16:54Z</time>
      </trkpt>
      <trkpt lat="45.94754" lon="3.6879">
        <ele>1059.2</ele>
        <time>2022-08-29T08:16:55Z</time>
      </trkpt>
      <trkpt lat="45.94755" lon="3.68789">
        <ele>1059.3</ele>
        <time>2022-08-29T08:16:56Z</time>
      </trkpt>
      <trkpt lat="45.94756" lon="3.68786">
        <ele>1059.6</ele>
        <time>2022-08-29T08:16:57Z</time>
      </trkpt>
      <trkpt lat="45.94756" lon="3.68785">
        <ele>1059.7</ele>
        <time>2022-08-29T08:16:58Z</time>
      </trkpt>
      <trkpt lat="45.94757" lon="3.68784">
        <ele>1059.8</ele>
        <time>2022-08-29T08:16:59Z</time>
      </trkpt>
      <trkpt lat="45.94758" lon="3.68783">
        <ele>1060</ele>
        <time>2022-08-29T08:17:00Z</time>
      </trkpt>
      <trkpt lat="45.94759" lon="3.68781">
        <ele>1060.3</ele>
        <time>2022-08-29T08:17:01Z</time>
      </trkpt>
      <trkpt lat="45.94761" lon="3.68779">
        <ele>1060.6</ele>
        <time>2022-08-29T08:17:02Z</time>
      </trkpt>
      <trkpt lat="45.94762" lon="3.68778">
        <ele>1060.7</ele>
        <time>2022-08-29T08:17:03Z</time>
      </trkpt>
      <trkpt lat="45.94764" lon="3.68774">
        <ele>1061.1</ele>
        <time>2022-08-29T08:17:04Z</time>
      </trkpt>
      <trkpt lat="45.94765" lon="3.68772">
        <ele>1061.2</ele>
        <time>2022-08-29T08:17:05Z</time>
      </trkpt>
      <trkpt lat="45.94767" lon="3.68769">
        <ele>1061.4</ele>
        <time>2022-08-29T08:17:06Z</time>
      </trkpt>
      <trkpt lat="45.94768" lon="3.68768">
        <ele>1061.5</ele>
        <time>2022-08-29T08:17:07Z</time>
      </trkpt>
      <trkpt lat="45.94769" lon="3.68765">
        <ele>1061.6</ele>
        <time>2022-08-29T08:17:08Z</time>
      </trkpt>
      <trkpt lat="45.9477" lon="3.68764">
        <ele>1061.6</ele>
        <time>2022-08-29T08:17:09Z</time>
      </trkpt>
      <trkpt lat="45.94771" lon="3.68762">
        <ele>1061.6</ele>
        <time>2022-08-29T08:17:10Z</time>
      </trkpt>
      <trkpt lat="45.94772" lon="3.68761">
        <ele>1061.6</ele>
        <time>2022-08-29T08:17:11Z</time>
      </trkpt>
      <trkpt lat="45.94775" lon="3.68759">
        <ele>1061.5</ele>
        <time>2022-08-29T08:17:12Z</time>
      </trkpt>
      <trkpt lat="45.94776" lon="3.68758">
        <ele>1061.5</ele>
        <time>2022-08-29T08:17:13Z</time>
      </trkpt>
      <trkpt lat="45.94779" lon="3.68757">
        <ele>1061.4</ele>
        <time>2022-08-29T08:17:14Z</time>
      </trkpt>
      <trkpt lat="45.9478" lon="3.68756">
        <ele>1061.3</ele>
        <time>2022-08-29T08:17:15Z</time>
      </trkpt>
      <trkpt lat="45.94781" lon="3.68755">
        <ele>1061.2</ele>
        <time>2022-08-29T08:17:16Z</time>
      </trkpt>
      <trkpt lat="45.94783" lon="3.68754">
        <ele>1061.1</ele>
        <time>2022-08-29T08:17:17Z</time>
      </trkpt>
      <trkpt lat="45.94784" lon="3.68752">
        <ele>1061</ele>
        <time>2022-08-29T08:17:18Z</time>
      </trkpt>
      <trkpt lat="45.94785" lon="3.68751">
        <ele>1061</ele>
        <time>2022-08-29T08:17:19Z</time>
      </trkpt>
      <trkpt lat="45.94785" lon="3.68751">
        <ele>1061</ele>
        <time>2022-08-29T08:17:20Z</time>
      </trkpt>
      <trkpt lat="45.94787" lon="3.68749">
        <ele>1060.9</ele>
        <time>2022-08-29T08:17:21Z</time>
      </trkpt>
      <trkpt lat="45.94788" lon="3.68749">
        <ele>1060.9</ele>
        <time>2022-08-29T08:17:22Z</time>
      </trkpt>
      <trkpt lat="45.94789" lon="3.68749">
        <ele>1060.9</ele>
        <time>2022-08-29T08:17:23Z</time>
      </trkpt>
      <trkpt lat="45.94791" lon="3.68748">
        <ele>1060.8</ele>
        <time>2022-08-29T08:17:24Z</time>
      </trkpt>
      <trkpt lat="45.94792" lon="3.68748">
        <ele>1060.8</ele>
        <time>2022-08-29T08:17:25Z</time>
      </trkpt>
      <trkpt lat="45.94794" lon="3.68747">
        <ele>1060.8</ele>
        <time>2022-08-29T08:17:26Z</time>
      </trkpt>
      <trkpt lat="45.94795" lon="3.68747">
        <ele>1060.8</ele>
        <time>2022-08-29T08:17:27Z</time>
      </trkpt>
      <trkpt lat="45.94796" lon="3.68747">
        <ele>1060.8</ele>
        <time>2022-08-29T08:17:28Z</time>
      </trkpt>
      <trkpt lat="45.94798" lon="3.68747">
        <ele>1060.9</ele>
        <time>2022-08-29T08:17:29Z</time>
      </trkpt>
      <trkpt lat="45.94799" lon="3.68746">
        <ele>1060.9</ele>
        <time>2022-08-29T08:17:30Z</time>
      </trkpt>
      <trkpt lat="45.948" lon="3.68747">
        <ele>1060.9</ele>
        <time>2022-08-29T08:17:31Z</time>
      </trkpt>
      <trkpt lat="45.94802" lon="3.68747">
        <ele>1061</ele>
        <time>2022-08-29T08:17:32Z</time>
      </trkpt>
      <trkpt lat="45.94804" lon="3.68747">
        <ele>1061</ele>
        <time>2022-08-29T08:17:33Z</time>
      </trkpt>
      <trkpt lat="45.94804" lon="3.68747">
        <ele>1061.1</ele>
        <time>2022-08-29T08:17:34Z</time>
      </trkpt>
      <trkpt lat="45.94805" lon="3.68748">
        <ele>1061.1</ele>
        <time>2022-08-29T08:17:35Z</time>
      </trkpt>
      <trkpt lat="45.94806" lon="3.68748">
        <ele>1061.2</ele>
        <time>2022-08-29T08:17:36Z</time>
      </trkpt>
      <trkpt lat="45.94808" lon="3.68748">
        <ele>1061.2</ele>
        <time>2022-08-29T08:17:37Z</time>
      </trkpt>
      <trkpt lat="45.94809" lon="3.68748">
        <ele>1061.3</ele>
        <time>2022-08-29T08:17:38Z</time>
      </trkpt>
      <trkpt lat="45.9481" lon="3.68748">
        <ele>1061.3</ele>
        <time>2022-08-29T08:17:39Z</time>
      </trkpt>
      <trkpt lat="45.94811" lon="3.68748">
        <ele>1061.4</ele>
        <time>2022-08-29T08:17:40Z</time>
      </trkpt>
      <trkpt lat="45.94812" lon="3.68748">
        <ele>1061.4</ele>
        <time>2022-08-29T08:17:41Z</time>
      </trkpt>
      <trkpt lat="45.94813" lon="3.68748">
        <ele>1061.5</ele>
        <time>2022-08-29T08:17:42Z</time>
      </trkpt>
      <trkpt lat="45.94815" lon="3.68748">
        <ele>1061.5</ele>
        <time>2022-08-29T08:17:43Z</time>
      </trkpt>
      <trkpt lat="45.94816" lon="3.68748">
        <ele>1061.6</ele>
        <time>2022-08-29T08:17:44Z</time>
      </trkpt>
      <trkpt lat="45.94817" lon="3.68748">
        <ele>1061.6</ele>
        <time>2022-08-29T08:17:45Z</time>
      </trkpt>
      <trkpt lat="45.94818" lon="3.68748">
        <ele>1061.7</ele>
        <time>2022-08-29T08:17:46Z</time>
      </trkpt>
      <trkpt lat="45.94819" lon="3.68748">
        <ele>1061.7</ele>
        <time>2022-08-29T08:17:47Z</time>
      </trkpt>
      <trkpt lat="45.9482" lon="3.68749">
        <ele>1061.8</ele>
        <time>2022-08-29T08:17:48Z</time>
      </trkpt>
      <trkpt lat="45.94821" lon="3.68749">
        <ele>1061.8</ele>
        <time>2022-08-29T08:17:49Z</time>
      </trkpt>
      <trkpt lat="45.94822" lon="3.68749">
        <ele>1061.8</ele>
        <time>2022-08-29T08:17:50Z</time>
      </trkpt>
      <trkpt lat="45.94823" lon="3.68749">
        <ele>1061.9</ele>
        <time>2022-08-29T08:17:51Z</time>
      </trkpt>
      <trkpt lat="45.94825" lon="3.6875">
        <ele>1061.9</ele>
        <time>2022-08-29T08:17:52Z</time>
      </trkpt>
      <trkpt lat="45.94826" lon="3.6875">
        <ele>1061.9</ele>
        <time>2022-08-29T08:17:53Z</time>
      </trkpt>
      <trkpt lat="45.94827" lon="3.68751">
        <ele>1062</ele>
        <time>2022-08-29T08:17:54Z</time>
      </trkpt>
      <trkpt lat="45.94829" lon="3.68752">
        <ele>1062</ele>
        <time>2022-08-29T08:17:55Z</time>
      </trkpt>
      <trkpt lat="45.9483" lon="3.68753">
        <ele>1062</ele>
        <time>2022-08-29T08:17:56Z</time>
      </trkpt>
      <trkpt lat="45.94831" lon="3.68753">
        <ele>1062</ele>
        <time>2022-08-29T08:17:57Z</time>
      </trkpt>
      <trkpt lat="45.94832" lon="3.68754">
        <ele>1062</ele>
        <time>2022-08-29T08:17:58Z</time>
      </trkpt>
      <trkpt lat="45.94833" lon="3.68754">
        <ele>1062</ele>
        <time>2022-08-29T08:17:59Z</time>
      </trkpt>
      <trkpt lat="45.94835" lon="3.68754">
        <ele>1062</ele>
        <time>2022-08-29T08:18:00Z</time>
      </trkpt>
      <trkpt lat="45.94836" lon="3.68754">
        <ele>1062</ele>
        <time>2022-08-29T08:18:01Z</time>
      </trkpt>
      <trkpt lat="45.94837" lon="3.68754">
        <ele>1062</ele>
        <time>2022-08-29T08:18:02Z</time>
      </trkpt>
      <trkpt lat="45.94838" lon="3.68755">
        <ele>1062</ele>
        <time>2022-08-29T08:18:03Z</time>
      </trkpt>
      <trkpt lat="45.94839" lon="3.68755">
        <ele>1062</ele>
        <time>2022-08-29T08:18:04Z</time>
      </trkpt>
      <trkpt lat="45.9484" lon="3.68755">
        <ele>1062</ele>
        <time>2022-08-29T08:18:05Z</time>
      </trkpt>
      <trkpt lat="45.94841" lon="3.68755">
        <ele>1062</ele>
        <time>2022-08-29T08:18:06Z</time>
      </trkpt>
      <trkpt lat="45.94841" lon="3.68755">
        <ele>1062</ele>
        <time>2022-08-29T08:18:07Z</time>
      </trkpt>
      <trkpt lat="45.94843" lon="3.68755">
        <ele>1061.9</ele>
        <time>2022-08-29T08:18:08Z</time>
      </trkpt>
      <trkpt lat="45.94845" lon="3.68755">
        <ele>1061.9</ele>
        <time>2022-08-29T08:18:09Z</time>
      </trkpt>
      <trkpt lat="45.94846" lon="3.68755">
        <ele>1061.9</ele>
        <time>2022-08-29T08:18:10Z</time>
      </trkpt>
      <trkpt lat="45.94848" lon="3.68755">
        <ele>1061.8</ele>
        <time>2022-08-29T08:18:11Z</time>
      </trkpt>
      <trkpt lat="45.94849" lon="3.68755">
        <ele>1061.8</ele>
        <time>2022-08-29T08:18:12Z</time>
      </trkpt>
      <trkpt lat="45.94851" lon="3.68755">
        <ele>1061.8</ele>
        <time>2022-08-29T08:18:13Z</time>
      </trkpt>
      <trkpt lat="45.94852" lon="3.68755">
        <ele>1061.7</ele>
        <time>2022-08-29T08:18:14Z</time>
      </trkpt>
      <trkpt lat="45.94853" lon="3.68755">
        <ele>1061.7</ele>
        <time>2022-08-29T08:18:15Z</time>
      </trkpt>
      <trkpt lat="45.94855" lon="3.68754">
        <ele>1061.6</ele>
        <time>2022-08-29T08:18:16Z</time>
      </trkpt>
      <trkpt lat="45.94856" lon="3.68754">
        <ele>1061.5</ele>
        <time>2022-08-29T08:18:17Z</time>
      </trkpt>
      <trkpt lat="45.94857" lon="3.68754">
        <ele>1061.5</ele>
        <time>2022-08-29T08:18:18Z</time>
      </trkpt>
      <trkpt lat="45.94859" lon="3.68753">
        <ele>1061.4</ele>
        <time>2022-08-29T08:18:19Z</time>
      </trkpt>
      <trkpt lat="45.9486" lon="3.68753">
        <ele>1061.4</ele>
        <time>2022-08-29T08:18:20Z</time>
      </trkpt>
      <trkpt lat="45.94862" lon="3.68753">
        <ele>1061.2</ele>
        <time>2022-08-29T08:18:21Z</time>
      </trkpt>
      <trkpt lat="45.94863" lon="3.68753">
        <ele>1061.2</ele>
        <time>2022-08-29T08:18:22Z</time>
      </trkpt>
      <trkpt lat="45.94864" lon="3.68754">
        <ele>1061.1</ele>
        <time>2022-08-29T08:18:23Z</time>
      </trkpt>
      <trkpt lat="45.94865" lon="3.68754">
        <ele>1061.1</ele>
        <time>2022-08-29T08:18:24Z</time>
      </trkpt>
      <trkpt lat="45.94867" lon="3.68754">
        <ele>1061</ele>
        <time>2022-08-29T08:18:25Z</time>
      </trkpt>
      <trkpt lat="45.94868" lon="3.68755">
        <ele>1060.9</ele>
        <time>2022-08-29T08:18:26Z</time>
      </trkpt>
      <trkpt lat="45.9487" lon="3.68755">
        <ele>1060.8</ele>
        <time>2022-08-29T08:18:27Z</time>
      </trkpt>
      <trkpt lat="45.94871" lon="3.68756">
        <ele>1060.7</ele>
        <time>2022-08-29T08:18:28Z</time>
      </trkpt>
      <trkpt lat="45.94873" lon="3.68756">
        <ele>1060.6</ele>
        <time>2022-08-29T08:18:29Z</time>
      </trkpt>
      <trkpt lat="45.94874" lon="3.68757">
        <ele>1060.6</ele>
        <time>2022-08-29T08:18:30Z</time>
      </trkpt>
      <trkpt lat="45.94876" lon="3.68758">
        <ele>1060.5</ele>
        <time>2022-08-29T08:18:31Z</time>
      </trkpt>
      <trkpt lat="45.94879" lon="3.6876">
        <ele>1060.3</ele>
        <time>2022-08-29T08:18:33Z</time>
      </trkpt>
      <trkpt lat="45.94881" lon="3.68761">
        <ele>1060.3</ele>
        <time>2022-08-29T08:18:34Z</time>
      </trkpt>
      <trkpt lat="45.94882" lon="3.68761">
        <ele>1060.2</ele>
        <time>2022-08-29T08:18:35Z</time>
      </trkpt>
      <trkpt lat="45.94883" lon="3.68762">
        <ele>1060.2</ele>
        <time>2022-08-29T08:18:36Z</time>
      </trkpt>
      <trkpt lat="45.94885" lon="3.68762">
        <ele>1060.1</ele>
        <time>2022-08-29T08:18:37Z</time>
      </trkpt>
      <trkpt lat="45.94887" lon="3.68762">
        <ele>1060.1</ele>
        <time>2022-08-29T08:18:38Z</time>
      </trkpt>
      <trkpt lat="45.94889" lon="3.68762">
        <ele>1060</ele>
        <time>2022-08-29T08:18:39Z</time>
      </trkpt>
      <trkpt lat="45.94891" lon="3.68762">
        <ele>1059.9</ele>
        <time>2022-08-29T08:18:40Z</time>
      </trkpt>
      <trkpt lat="45.94892" lon="3.68762">
        <ele>1059.9</ele>
        <time>2022-08-29T08:18:41Z</time>
      </trkpt>
      <trkpt lat="45.94893" lon="3.68761">
        <ele>1059.9</ele>
        <time>2022-08-29T08:18:42Z</time>
      </trkpt>
      <trkpt lat="45.94894" lon="3.68761">
        <ele>1059.9</ele>
        <time>2022-08-29T08:18:43Z</time>
      </trkpt>
      <trkpt lat="45.94895" lon="3.68761">
        <ele>1059.9</ele>
        <time>2022-08-29T08:18:44Z</time>
      </trkpt>
      <trkpt lat="45.94896" lon="3.68761">
        <ele>1059.8</ele>
        <time>2022-08-29T08:18:45Z</time>
      </trkpt>
      <trkpt lat="45.94896" lon="3.68761">
        <ele>1059.8</ele>
        <time>2022-08-29T08:18:46Z</time>
      </trkpt>
      <trkpt lat="45.94897" lon="3.6876">
        <ele>1059.8</ele>
        <time>2022-08-29T08:18:47Z</time>
      </trkpt>
      <trkpt lat="45.94897" lon="3.6876">
        <ele>1059.8</ele>
        <time>2022-08-29T08:18:48Z</time>
      </trkpt>
      <trkpt lat="45.949" lon="3.6876">
        <ele>1059.7</ele>
        <time>2022-08-29T08:18:50Z</time>
      </trkpt>
      <trkpt lat="45.94903" lon="3.68761">
        <ele>1059.6</ele>
        <time>2022-08-29T08:18:51Z</time>
      </trkpt>
      <trkpt lat="45.94904" lon="3.68761">
        <ele>1059.6</ele>
        <time>2022-08-29T08:18:52Z</time>
      </trkpt>
      <trkpt lat="45.94906" lon="3.68762">
        <ele>1059.6</ele>
        <time>2022-08-29T08:18:53Z</time>
      </trkpt>
      <trkpt lat="45.94907" lon="3.68762">
        <ele>1059.5</ele>
        <time>2022-08-29T08:18:54Z</time>
      </trkpt>
      <trkpt lat="45.94908" lon="3.68763">
        <ele>1059.5</ele>
        <time>2022-08-29T08:18:55Z</time>
      </trkpt>
      <trkpt lat="45.94909" lon="3.68763">
        <ele>1059.5</ele>
        <time>2022-08-29T08:18:56Z</time>
      </trkpt>
      <trkpt lat="45.94909" lon="3.68764">
        <ele>1059.4</ele>
        <time>2022-08-29T08:18:57Z</time>
      </trkpt>
      <trkpt lat="45.9491" lon="3.68764">
        <ele>1059.4</ele>
        <time>2022-08-29T08:18:58Z</time>
      </trkpt>
      <trkpt lat="45.9491" lon="3.68765">
        <ele>1059.4</ele>
        <time>2022-08-29T08:18:59Z</time>
      </trkpt>
      <trkpt lat="45.94911" lon="3.68766">
        <ele>1059.4</ele>
        <time>2022-08-29T08:19:00Z</time>
      </trkpt>
      <trkpt lat="45.94911" lon="3.68766">
        <ele>1059.4</ele>
        <time>2022-08-29T08:19:01Z</time>
      </trkpt>
      <trkpt lat="45.94912" lon="3.68767">
        <ele>1059.3</ele>
        <time>2022-08-29T08:19:02Z</time>
      </trkpt>
      <trkpt lat="45.94912" lon="3.68768">
        <ele>1059.3</ele>
        <time>2022-08-29T08:19:03Z</time>
      </trkpt>
      <trkpt lat="45.94913" lon="3.68769">
        <ele>1059.3</ele>
        <time>2022-08-29T08:19:04Z</time>
      </trkpt>
      <trkpt lat="45.94914" lon="3.68769">
        <ele>1059.3</ele>
        <time>2022-08-29T08:19:05Z</time>
      </trkpt>
      <trkpt lat="45.94914" lon="3.6877">
        <ele>1059.3</ele>
        <time>2022-08-29T08:19:06Z</time>
      </trkpt>
      <trkpt lat="45.94915" lon="3.6877">
        <ele>1059.2</ele>
        <time>2022-08-29T08:19:07Z</time>
      </trkpt>
      <trkpt lat="45.94915" lon="3.6877">
        <ele>1059.2</ele>
        <time>2022-08-29T08:19:08Z</time>
      </trkpt>
      <trkpt lat="45.94917" lon="3.68772">
        <ele>1059.1</ele>
        <time>2022-08-29T08:19:10Z</time>
      </trkpt>
      <trkpt lat="45.94919" lon="3.68772">
        <ele>1059.1</ele>
        <time>2022-08-29T08:19:11Z</time>
      </trkpt>
      <trkpt lat="45.9492" lon="3.68773">
        <ele>1059</ele>
        <time>2022-08-29T08:19:12Z</time>
      </trkpt>
      <trkpt lat="45.94921" lon="3.68774">
        <ele>1058.9</ele>
        <time>2022-08-29T08:19:13Z</time>
      </trkpt>
      <trkpt lat="45.94922" lon="3.68774">
        <ele>1058.9</ele>
        <time>2022-08-29T08:19:14Z</time>
      </trkpt>
      <trkpt lat="45.94924" lon="3.68774">
        <ele>1058.8</ele>
        <time>2022-08-29T08:19:15Z</time>
      </trkpt>
      <trkpt lat="45.94925" lon="3.68774">
        <ele>1058.6</ele>
        <time>2022-08-29T08:19:16Z</time>
      </trkpt>
      <trkpt lat="45.94927" lon="3.68775">
        <ele>1058.5</ele>
        <time>2022-08-29T08:19:17Z</time>
      </trkpt>
      <trkpt lat="45.94928" lon="3.68775">
        <ele>1058.4</ele>
        <time>2022-08-29T08:19:18Z</time>
      </trkpt>
      <trkpt lat="45.9493" lon="3.68776">
        <ele>1058.3</ele>
        <time>2022-08-29T08:19:19Z</time>
      </trkpt>
      <trkpt lat="45.94933" lon="3.68777">
        <ele>1058</ele>
        <time>2022-08-29T08:19:20Z</time>
      </trkpt>
      <trkpt lat="45.94935" lon="3.68778">
        <ele>1057.9</ele>
        <time>2022-08-29T08:19:21Z</time>
      </trkpt>
      <trkpt lat="45.94938" lon="3.68779">
        <ele>1057.6</ele>
        <time>2022-08-29T08:19:22Z</time>
      </trkpt>
      <trkpt lat="45.94941" lon="3.6878">
        <ele>1057.3</ele>
        <time>2022-08-29T08:19:23Z</time>
      </trkpt>
      <trkpt lat="45.94943" lon="3.6878">
        <ele>1057</ele>
        <time>2022-08-29T08:19:24Z</time>
      </trkpt>
      <trkpt lat="45.94946" lon="3.68782">
        <ele>1056.7</ele>
        <time>2022-08-29T08:19:25Z</time>
      </trkpt>
      <trkpt lat="45.94948" lon="3.68782">
        <ele>1056.4</ele>
        <time>2022-08-29T08:19:26Z</time>
      </trkpt>
      <trkpt lat="45.94949" lon="3.68783">
        <ele>1056.3</ele>
        <time>2022-08-29T08:19:27Z</time>
      </trkpt>
      <trkpt lat="45.9495" lon="3.68783">
        <ele>1056.1</ele>
        <time>2022-08-29T08:19:28Z</time>
      </trkpt>
      <trkpt lat="45.94951" lon="3.68783">
        <ele>1056</ele>
        <time>2022-08-29T08:19:29Z</time>
      </trkpt>
      <trkpt lat="45.94952" lon="3.68784">
        <ele>1055.9</ele>
        <time>2022-08-29T08:19:30Z</time>
      </trkpt>
      <trkpt lat="45.94952" lon="3.68784">
        <ele>1055.8</ele>
        <time>2022-08-29T08:19:31Z</time>
      </trkpt>
      <trkpt lat="45.94953" lon="3.68784">
        <ele>1055.7</ele>
        <time>2022-08-29T08:19:32Z</time>
      </trkpt>
      <trkpt lat="45.94955" lon="3.68784">
        <ele>1055.5</ele>
        <time>2022-08-29T08:19:33Z</time>
      </trkpt>
      <trkpt lat="45.94956" lon="3.68784">
        <ele>1055.3</ele>
        <time>2022-08-29T08:19:34Z</time>
      </trkpt>
      <trkpt lat="45.94957" lon="3.68784">
        <ele>1055.2</ele>
        <time>2022-08-29T08:19:35Z</time>
      </trkpt>
      <trkpt lat="45.94958" lon="3.68785">
        <ele>1055</ele>
        <time>2022-08-29T08:19:36Z</time>
      </trkpt>
      <trkpt lat="45.94959" lon="3.68785">
        <ele>1054.9</ele>
        <time>2022-08-29T08:19:37Z</time>
      </trkpt>
      <trkpt lat="45.9496" lon="3.68785">
        <ele>1054.6</ele>
        <time>2022-08-29T08:19:38Z</time>
      </trkpt>
      <trkpt lat="45.94962" lon="3.68786">
        <ele>1054.4</ele>
        <time>2022-08-29T08:19:39Z</time>
      </trkpt>
      <trkpt lat="45.94965" lon="3.68787">
        <ele>1054</ele>
        <time>2022-08-29T08:19:40Z</time>
      </trkpt>
      <trkpt lat="45.94966" lon="3.68787">
        <ele>1053.9</ele>
        <time>2022-08-29T08:19:41Z</time>
      </trkpt>
      <trkpt lat="45.94967" lon="3.68787">
        <ele>1053.7</ele>
        <time>2022-08-29T08:19:42Z</time>
      </trkpt>
      <trkpt lat="45.94968" lon="3.68787">
        <ele>1053.6</ele>
        <time>2022-08-29T08:19:43Z</time>
      </trkpt>
      <trkpt lat="45.94968" lon="3.68786">
        <ele>1053.5</ele>
        <time>2022-08-29T08:19:44Z</time>
      </trkpt>
      <trkpt lat="45.94969" lon="3.68786">
        <ele>1053.4</ele>
        <time>2022-08-29T08:19:45Z</time>
      </trkpt>
      <trkpt lat="45.94969" lon="3.68785">
        <ele>1053.3</ele>
        <time>2022-08-29T08:19:46Z</time>
      </trkpt>
      <trkpt lat="45.9497" lon="3.68785">
        <ele>1053.2</ele>
        <time>2022-08-29T08:19:47Z</time>
      </trkpt>
      <trkpt lat="45.94971" lon="3.68785">
        <ele>1053.1</ele>
        <time>2022-08-29T08:19:48Z</time>
      </trkpt>
      <trkpt lat="45.94972" lon="3.68785">
        <ele>1052.9</ele>
        <time>2022-08-29T08:19:49Z</time>
      </trkpt>
      <trkpt lat="45.94973" lon="3.68785">
        <ele>1052.8</ele>
        <time>2022-08-29T08:19:50Z</time>
      </trkpt>
      <trkpt lat="45.94974" lon="3.68785">
        <ele>1052.7</ele>
        <time>2022-08-29T08:19:51Z</time>
      </trkpt>
      <trkpt lat="45.94975" lon="3.68785">
        <ele>1052.6</ele>
        <time>2022-08-29T08:19:52Z</time>
      </trkpt>
      <trkpt lat="45.94975" lon="3.68785">
        <ele>1052.5</ele>
        <time>2022-08-29T08:19:53Z</time>
      </trkpt>
      <trkpt lat="45.94976" lon="3.68785">
        <ele>1052.4</ele>
        <time>2022-08-29T08:19:54Z</time>
      </trkpt>
      <trkpt lat="45.94977" lon="3.68785">
        <ele>1052.3</ele>
        <time>2022-08-29T08:19:55Z</time>
      </trkpt>
      <trkpt lat="45.94977" lon="3.68785">
        <ele>1052.2</ele>
        <time>2022-08-29T08:19:56Z</time>
      </trkpt>
      <trkpt lat="45.94978" lon="3.68785">
        <ele>1052.2</ele>
        <time>2022-08-29T08:19:57Z</time>
      </trkpt>
      <trkpt lat="45.94978" lon="3.68785">
        <ele>1052.2</ele>
        <time>2022-08-29T08:19:58Z</time>
      </trkpt>
      <trkpt lat="45.94978" lon="3.68785">
        <ele>1052.1</ele>
        <time>2022-08-29T08:19:59Z</time>
      </trkpt>
      <trkpt lat="45.94979" lon="3.68786">
        <ele>1052</ele>
        <time>2022-08-29T08:20:00Z</time>
      </trkpt>
      <trkpt lat="45.9498" lon="3.68786">
        <ele>1051.9</ele>
        <time>2022-08-29T08:20:01Z</time>
      </trkpt>
      <trkpt lat="45.94981" lon="3.68786">
        <ele>1051.8</ele>
        <time>2022-08-29T08:20:02Z</time>
      </trkpt>
      <trkpt lat="45.94984" lon="3.68786">
        <ele>1051.5</ele>
        <time>2022-08-29T08:20:03Z</time>
      </trkpt>
      <trkpt lat="45.94985" lon="3.68786">
        <ele>1051.4</ele>
        <time>2022-08-29T08:20:04Z</time>
      </trkpt>
      <trkpt lat="45.94986" lon="3.68786">
        <ele>1051.3</ele>
        <time>2022-08-29T08:20:05Z</time>
      </trkpt>
      <trkpt lat="45.94989" lon="3.68787">
        <ele>1051</ele>
        <time>2022-08-29T08:20:06Z</time>
      </trkpt>
      <trkpt lat="45.9499" lon="3.68787">
        <ele>1050.9</ele>
        <time>2022-08-29T08:20:07Z</time>
      </trkpt>
      <trkpt lat="45.94993" lon="3.68788">
        <ele>1050.5</ele>
        <time>2022-08-29T08:20:08Z</time>
      </trkpt>
      <trkpt lat="45.94994" lon="3.68788">
        <ele>1050.4</ele>
        <time>2022-08-29T08:20:09Z</time>
      </trkpt>
      <trkpt lat="45.94997" lon="3.68789">
        <ele>1050</ele>
        <time>2022-08-29T08:20:10Z</time>
      </trkpt>
      <trkpt lat="45.94998" lon="3.6879">
        <ele>1049.9</ele>
        <time>2022-08-29T08:20:11Z</time>
      </trkpt>
      <trkpt lat="45.94999" lon="3.6879">
        <ele>1049.6</ele>
        <time>2022-08-29T08:20:12Z</time>
      </trkpt>
      <trkpt lat="45.95001" lon="3.68791">
        <ele>1049.4</ele>
        <time>2022-08-29T08:20:13Z</time>
      </trkpt>
      <trkpt lat="45.95003" lon="3.68791">
        <ele>1049.2</ele>
        <time>2022-08-29T08:20:14Z</time>
      </trkpt>
      <trkpt lat="45.95004" lon="3.68792">
        <ele>1049</ele>
        <time>2022-08-29T08:20:15Z</time>
      </trkpt>
      <trkpt lat="45.95006" lon="3.68792">
        <ele>1048.8</ele>
        <time>2022-08-29T08:20:16Z</time>
      </trkpt>
      <trkpt lat="45.95007" lon="3.68792">
        <ele>1048.6</ele>
        <time>2022-08-29T08:20:17Z</time>
      </trkpt>
      <trkpt lat="45.95008" lon="3.68792">
        <ele>1048.4</ele>
        <time>2022-08-29T08:20:18Z</time>
      </trkpt>
      <trkpt lat="45.95009" lon="3.68792">
        <ele>1048.3</ele>
        <time>2022-08-29T08:20:19Z</time>
      </trkpt>
      <trkpt lat="45.9501" lon="3.68792">
        <ele>1048.2</ele>
        <time>2022-08-29T08:20:20Z</time>
      </trkpt>
      <trkpt lat="45.95011" lon="3.68792">
        <ele>1048.1</ele>
        <time>2022-08-29T08:20:21Z</time>
      </trkpt>
      <trkpt lat="45.95011" lon="3.68793">
        <ele>1048</ele>
        <time>2022-08-29T08:20:22Z</time>
      </trkpt>
      <trkpt lat="45.95011" lon="3.68794">
        <ele>1047.9</ele>
        <time>2022-08-29T08:20:23Z</time>
      </trkpt>
      <trkpt lat="45.95012" lon="3.68796">
        <ele>1047.8</ele>
        <time>2022-08-29T08:20:24Z</time>
      </trkpt>
      <trkpt lat="45.95012" lon="3.68799">
        <ele>1047.6</ele>
        <time>2022-08-29T08:20:25Z</time>
      </trkpt>
      <trkpt lat="45.95013" lon="3.688">
        <ele>1047.5</ele>
        <time>2022-08-29T08:20:26Z</time>
      </trkpt>
      <trkpt lat="45.95013" lon="3.68801">
        <ele>1047.4</ele>
        <time>2022-08-29T08:20:27Z</time>
      </trkpt>
      <trkpt lat="45.95014" lon="3.68802">
        <ele>1047.3</ele>
        <time>2022-08-29T08:20:28Z</time>
      </trkpt>
      <trkpt lat="45.95016" lon="3.68803">
        <ele>1047.1</ele>
        <time>2022-08-29T08:20:29Z</time>
      </trkpt>
      <trkpt lat="45.95017" lon="3.68805">
        <ele>1047</ele>
        <time>2022-08-29T08:20:30Z</time>
      </trkpt>
      <trkpt lat="45.95019" lon="3.68805">
        <ele>1046.8</ele>
        <time>2022-08-29T08:20:31Z</time>
      </trkpt>
      <trkpt lat="45.95022" lon="3.68806">
        <ele>1046.5</ele>
        <time>2022-08-29T08:20:32Z</time>
      </trkpt>
      <trkpt lat="45.95023" lon="3.68806">
        <ele>1046.4</ele>
        <time>2022-08-29T08:20:33Z</time>
      </trkpt>
      <trkpt lat="45.95027" lon="3.68806">
        <ele>1046.2</ele>
        <time>2022-08-29T08:20:34Z</time>
      </trkpt>
      <trkpt lat="45.95028" lon="3.68806">
        <ele>1046.1</ele>
        <time>2022-08-29T08:20:35Z</time>
      </trkpt>
      <trkpt lat="45.95031" lon="3.68806">
        <ele>1045.9</ele>
        <time>2022-08-29T08:20:36Z</time>
      </trkpt>
      <trkpt lat="45.95032" lon="3.68806">
        <ele>1045.9</ele>
        <time>2022-08-29T08:20:37Z</time>
      </trkpt>
      <trkpt lat="45.95035" lon="3.68807">
        <ele>1045.8</ele>
        <time>2022-08-29T08:20:38Z</time>
      </trkpt>
      <trkpt lat="45.95036" lon="3.68807">
        <ele>1045.7</ele>
        <time>2022-08-29T08:20:39Z</time>
      </trkpt>
      <trkpt lat="45.9504" lon="3.68806">
        <ele>1045.6</ele>
        <time>2022-08-29T08:20:40Z</time>
      </trkpt>
      <trkpt lat="45.9504" lon="3.68806">
        <ele>1045.6</ele>
        <time>2022-08-29T08:20:41Z</time>
      </trkpt>
      <trkpt lat="45.95043" lon="3.68806">
        <ele>1045.5</ele>
        <time>2022-08-29T08:20:42Z</time>
      </trkpt>
      <trkpt lat="45.95044" lon="3.68806">
        <ele>1045.5</ele>
        <time>2022-08-29T08:20:43Z</time>
      </trkpt>
      <trkpt lat="45.95047" lon="3.68805">
        <ele>1045.5</ele>
        <time>2022-08-29T08:20:44Z</time>
      </trkpt>
      <trkpt lat="45.95048" lon="3.68805">
        <ele>1045.5</ele>
        <time>2022-08-29T08:20:45Z</time>
      </trkpt>
      <trkpt lat="45.9505" lon="3.68804">
        <ele>1045.4</ele>
        <time>2022-08-29T08:20:46Z</time>
      </trkpt>
      <trkpt lat="45.95051" lon="3.68804">
        <ele>1045.4</ele>
        <time>2022-08-29T08:20:47Z</time>
      </trkpt>
      <trkpt lat="45.95053" lon="3.68804">
        <ele>1045.4</ele>
        <time>2022-08-29T08:20:48Z</time>
      </trkpt>
      <trkpt lat="45.95055" lon="3.68803">
        <ele>1045.4</ele>
        <time>2022-08-29T08:20:49Z</time>
      </trkpt>
      <trkpt lat="45.95056" lon="3.68803">
        <ele>1045.3</ele>
        <time>2022-08-29T08:20:50Z</time>
      </trkpt>
      <trkpt lat="45.95057" lon="3.68803">
        <ele>1045.3</ele>
        <time>2022-08-29T08:20:51Z</time>
      </trkpt>
      <trkpt lat="45.95059" lon="3.68803">
        <ele>1045.3</ele>
        <time>2022-08-29T08:20:52Z</time>
      </trkpt>
      <trkpt lat="45.9506" lon="3.68804">
        <ele>1045.3</ele>
        <time>2022-08-29T08:20:53Z</time>
      </trkpt>
      <trkpt lat="45.95062" lon="3.68804">
        <ele>1045.2</ele>
        <time>2022-08-29T08:20:54Z</time>
      </trkpt>
      <trkpt lat="45.95064" lon="3.68804">
        <ele>1045.2</ele>
        <time>2022-08-29T08:20:55Z</time>
      </trkpt>
      <trkpt lat="45.95066" lon="3.68805">
        <ele>1045.1</ele>
        <time>2022-08-29T08:20:56Z</time>
      </trkpt>
      <trkpt lat="45.95067" lon="3.68805">
        <ele>1045</ele>
        <time>2022-08-29T08:20:57Z</time>
      </trkpt>
      <trkpt lat="45.9507" lon="3.68805">
        <ele>1044.9</ele>
        <time>2022-08-29T08:20:58Z</time>
      </trkpt>
      <trkpt lat="45.95071" lon="3.68805">
        <ele>1044.9</ele>
        <time>2022-08-29T08:20:59Z</time>
      </trkpt>
      <trkpt lat="45.95073" lon="3.68804">
        <ele>1044.8</ele>
        <time>2022-08-29T08:21:00Z</time>
      </trkpt>
      <trkpt lat="45.95075" lon="3.68804">
        <ele>1044.7</ele>
        <time>2022-08-29T08:21:01Z</time>
      </trkpt>
      <trkpt lat="45.95077" lon="3.68803">
        <ele>1044.6</ele>
        <time>2022-08-29T08:21:02Z</time>
      </trkpt>
      <trkpt lat="45.95078" lon="3.68802">
        <ele>1044.5</ele>
        <time>2022-08-29T08:21:03Z</time>
      </trkpt>
      <trkpt lat="45.95081" lon="3.688">
        <ele>1044.3</ele>
        <time>2022-08-29T08:21:04Z</time>
      </trkpt>
      <trkpt lat="45.95082" lon="3.68799">
        <ele>1044.3</ele>
        <time>2022-08-29T08:21:05Z</time>
      </trkpt>
      <trkpt lat="45.95085" lon="3.68798">
        <ele>1044.2</ele>
        <time>2022-08-29T08:21:06Z</time>
      </trkpt>
      <trkpt lat="45.95085" lon="3.68797">
        <ele>1044.1</ele>
        <time>2022-08-29T08:21:07Z</time>
      </trkpt>
      <trkpt lat="45.95087" lon="3.68796">
        <ele>1044.1</ele>
        <time>2022-08-29T08:21:08Z</time>
      </trkpt>
      <trkpt lat="45.95088" lon="3.68796">
        <ele>1044</ele>
        <time>2022-08-29T08:21:09Z</time>
      </trkpt>
      <trkpt lat="45.95088" lon="3.68796">
        <ele>1044</ele>
        <time>2022-08-29T08:21:10Z</time>
      </trkpt>
      <trkpt lat="45.95088" lon="3.68796">
        <ele>1044</ele>
        <time>2022-08-29T08:21:11Z</time>
      </trkpt>
      <trkpt lat="45.95089" lon="3.68797">
        <ele>1043.9</ele>
        <time>2022-08-29T08:21:12Z</time>
      </trkpt>
      <trkpt lat="45.9509" lon="3.68797">
        <ele>1043.9</ele>
        <time>2022-08-29T08:21:13Z</time>
      </trkpt>
      <trkpt lat="45.9509" lon="3.68797">
        <ele>1043.9</ele>
        <time>2022-08-29T08:21:14Z</time>
      </trkpt>
      <trkpt lat="45.9509" lon="3.68797">
        <ele>1043.9</ele>
        <time>2022-08-29T08:21:15Z</time>
      </trkpt>
      <trkpt lat="45.95091" lon="3.68797">
        <ele>1043.9</ele>
        <time>2022-08-29T08:21:16Z</time>
      </trkpt>
      <trkpt lat="45.95091" lon="3.68797">
        <ele>1043.8</ele>
        <time>2022-08-29T08:21:17Z</time>
      </trkpt>
      <trkpt lat="45.95092" lon="3.68798">
        <ele>1043.8</ele>
        <time>2022-08-29T08:21:18Z</time>
      </trkpt>
      <trkpt lat="45.95092" lon="3.68798">
        <ele>1043.8</ele>
        <time>2022-08-29T08:21:19Z</time>
      </trkpt>
      <trkpt lat="45.95093" lon="3.68798">
        <ele>1043.8</ele>
        <time>2022-08-29T08:21:20Z</time>
      </trkpt>
      <trkpt lat="45.95095" lon="3.68798">
        <ele>1043.7</ele>
        <time>2022-08-29T08:21:21Z</time>
      </trkpt>
      <trkpt lat="45.95097" lon="3.68798">
        <ele>1043.6</ele>
        <time>2022-08-29T08:21:22Z</time>
      </trkpt>
      <trkpt lat="45.95098" lon="3.68798">
        <ele>1043.6</ele>
        <time>2022-08-29T08:21:23Z</time>
      </trkpt>
      <trkpt lat="45.951" lon="3.68798">
        <ele>1043.5</ele>
        <time>2022-08-29T08:21:24Z</time>
      </trkpt>
      <trkpt lat="45.95102" lon="3.68799">
        <ele>1043.4</ele>
        <time>2022-08-29T08:21:25Z</time>
      </trkpt>
      <trkpt lat="45.95103" lon="3.68799">
        <ele>1043.4</ele>
        <time>2022-08-29T08:21:26Z</time>
      </trkpt>
      <trkpt lat="45.95105" lon="3.68799">
        <ele>1043.3</ele>
        <time>2022-08-29T08:21:27Z</time>
      </trkpt>
      <trkpt lat="45.95106" lon="3.68799">
        <ele>1043.2</ele>
        <time>2022-08-29T08:21:28Z</time>
      </trkpt>
      <trkpt lat="45.95107" lon="3.68799">
        <ele>1043.1</ele>
        <time>2022-08-29T08:21:29Z</time>
      </trkpt>
      <trkpt lat="45.95109" lon="3.688">
        <ele>1043.1</ele>
        <time>2022-08-29T08:21:30Z</time>
      </trkpt>
      <trkpt lat="45.9511" lon="3.688">
        <ele>1043</ele>
        <time>2022-08-29T08:21:31Z</time>
      </trkpt>
      <trkpt lat="45.95113" lon="3.68802">
        <ele>1042.8</ele>
        <time>2022-08-29T08:21:32Z</time>
      </trkpt>
      <trkpt lat="45.95114" lon="3.68802">
        <ele>1042.8</ele>
        <time>2022-08-29T08:21:33Z</time>
      </trkpt>
      <trkpt lat="45.95118" lon="3.68803">
        <ele>1042.6</ele>
        <time>2022-08-29T08:21:34Z</time>
      </trkpt>
      <trkpt lat="45.95119" lon="3.68804">
        <ele>1042.6</ele>
        <time>2022-08-29T08:21:35Z</time>
      </trkpt>
      <trkpt lat="45.95122" lon="3.68804">
        <ele>1042.5</ele>
        <time>2022-08-29T08:21:36Z</time>
      </trkpt>
      <trkpt lat="45.95123" lon="3.68804">
        <ele>1042.5</ele>
        <time>2022-08-29T08:21:37Z</time>
      </trkpt>
      <trkpt lat="45.95125" lon="3.68804">
        <ele>1042.4</ele>
        <time>2022-08-29T08:21:38Z</time>
      </trkpt>
      <trkpt lat="45.95126" lon="3.68804">
        <ele>1042.4</ele>
        <time>2022-08-29T08:21:39Z</time>
      </trkpt>
      <trkpt lat="45.95127" lon="3.68804">
        <ele>1042.4</ele>
        <time>2022-08-29T08:21:40Z</time>
      </trkpt>
      <trkpt lat="45.95127" lon="3.68804">
        <ele>1042.4</ele>
        <time>2022-08-29T08:21:41Z</time>
      </trkpt>
      <trkpt lat="45.95128" lon="3.68804">
        <ele>1042.3</ele>
        <time>2022-08-29T08:21:42Z</time>
      </trkpt>
      <trkpt lat="45.95128" lon="3.68804">
        <ele>1042.3</ele>
        <time>2022-08-29T08:21:43Z</time>
      </trkpt>
      <trkpt lat="45.95128" lon="3.68805">
        <ele>1042.3</ele>
        <time>2022-08-29T08:21:44Z</time>
      </trkpt>
      <trkpt lat="45.95128" lon="3.68805">
        <ele>1042.3</ele>
        <time>2022-08-29T08:21:45Z</time>
      </trkpt>
      <trkpt lat="45.95129" lon="3.68805">
        <ele>1042.3</ele>
        <time>2022-08-29T08:21:46Z</time>
      </trkpt>
      <trkpt lat="45.95129" lon="3.68805">
        <ele>1042.3</ele>
        <time>2022-08-29T08:21:47Z</time>
      </trkpt>
      <trkpt lat="45.9513" lon="3.68805">
        <ele>1042.3</ele>
        <time>2022-08-29T08:21:48Z</time>
      </trkpt>
      <trkpt lat="45.9513" lon="3.68806">
        <ele>1042.3</ele>
        <time>2022-08-29T08:21:49Z</time>
      </trkpt>
      <trkpt lat="45.95131" lon="3.68807">
        <ele>1042.2</ele>
        <time>2022-08-29T08:21:50Z</time>
      </trkpt>
      <trkpt lat="45.95132" lon="3.68807">
        <ele>1042.2</ele>
        <time>2022-08-29T08:21:51Z</time>
      </trkpt>
      <trkpt lat="45.95134" lon="3.68808">
        <ele>1042.2</ele>
        <time>2022-08-29T08:21:52Z</time>
      </trkpt>
      <trkpt lat="45.95135" lon="3.68808">
        <ele>1042.1</ele>
        <time>2022-08-29T08:21:53Z</time>
      </trkpt>
      <trkpt lat="45.95136" lon="3.68809">
        <ele>1042.1</ele>
        <time>2022-08-29T08:21:54Z</time>
      </trkpt>
      <trkpt lat="45.95137" lon="3.68809">
        <ele>1042.1</ele>
        <time>2022-08-29T08:21:55Z</time>
      </trkpt>
      <trkpt lat="45.95139" lon="3.6881">
        <ele>1042</ele>
        <time>2022-08-29T08:21:56Z</time>
      </trkpt>
      <trkpt lat="45.9514" lon="3.6881">
        <ele>1042</ele>
        <time>2022-08-29T08:21:57Z</time>
      </trkpt>
      <trkpt lat="45.95142" lon="3.68811">
        <ele>1042</ele>
        <time>2022-08-29T08:21:58Z</time>
      </trkpt>
      <trkpt lat="45.95143" lon="3.68811">
        <ele>1041.9</ele>
        <time>2022-08-29T08:21:59Z</time>
      </trkpt>
      <trkpt lat="45.95145" lon="3.68812">
        <ele>1041.9</ele>
        <time>2022-08-29T08:22:00Z</time>
      </trkpt>
      <trkpt lat="45.95147" lon="3.68813">
        <ele>1041.9</ele>
        <time>2022-08-29T08:22:01Z</time>
      </trkpt>
      <trkpt lat="45.95148" lon="3.68813">
        <ele>1041.8</ele>
        <time>2022-08-29T08:22:02Z</time>
      </trkpt>
      <trkpt lat="45.95149" lon="3.68814">
        <ele>1041.8</ele>
        <time>2022-08-29T08:22:03Z</time>
      </trkpt>
      <trkpt lat="45.95151" lon="3.68814">
        <ele>1041.8</ele>
        <time>2022-08-29T08:22:04Z</time>
      </trkpt>
      <trkpt lat="45.95153" lon="3.68815">
        <ele>1041.8</ele>
        <time>2022-08-29T08:22:05Z</time>
      </trkpt>
      <trkpt lat="45.95153" lon="3.68816">
        <ele>1041.8</ele>
        <time>2022-08-29T08:22:06Z</time>
      </trkpt>
      <trkpt lat="45.95154" lon="3.68816">
        <ele>1041.9</ele>
        <time>2022-08-29T08:22:07Z</time>
      </trkpt>
      <trkpt lat="45.95156" lon="3.68818">
        <ele>1041.9</ele>
        <time>2022-08-29T08:22:08Z</time>
      </trkpt>
      <trkpt lat="45.95157" lon="3.68819">
        <ele>1041.9</ele>
        <time>2022-08-29T08:22:09Z</time>
      </trkpt>
      <trkpt lat="45.95158" lon="3.68819">
        <ele>1041.9</ele>
        <time>2022-08-29T08:22:10Z</time>
      </trkpt>
      <trkpt lat="45.9516" lon="3.68821">
        <ele>1041.9</ele>
        <time>2022-08-29T08:22:11Z</time>
      </trkpt>
      <trkpt lat="45.95161" lon="3.68821">
        <ele>1041.9</ele>
        <time>2022-08-29T08:22:12Z</time>
      </trkpt>
      <trkpt lat="45.95163" lon="3.68822">
        <ele>1041.9</ele>
        <time>2022-08-29T08:22:13Z</time>
      </trkpt>
      <trkpt lat="45.95164" lon="3.68823">
        <ele>1041.9</ele>
        <time>2022-08-29T08:22:14Z</time>
      </trkpt>
      <trkpt lat="45.95167" lon="3.68825">
        <ele>1042</ele>
        <time>2022-08-29T08:22:15Z</time>
      </trkpt>
      <trkpt lat="45.95168" lon="3.68826">
        <ele>1042</ele>
        <time>2022-08-29T08:22:16Z</time>
      </trkpt>
      <trkpt lat="45.95169" lon="3.68827">
        <ele>1042</ele>
        <time>2022-08-29T08:22:17Z</time>
      </trkpt>
      <trkpt lat="45.9517" lon="3.68828">
        <ele>1042</ele>
        <time>2022-08-29T08:22:18Z</time>
      </trkpt>
      <trkpt lat="45.95171" lon="3.68829">
        <ele>1042.1</ele>
        <time>2022-08-29T08:22:19Z</time>
      </trkpt>
      <trkpt lat="45.95173" lon="3.6883">
        <ele>1042.1</ele>
        <time>2022-08-29T08:22:20Z</time>
      </trkpt>
      <trkpt lat="45.95175" lon="3.68831">
        <ele>1042.2</ele>
        <time>2022-08-29T08:22:21Z</time>
      </trkpt>
      <trkpt lat="45.95175" lon="3.68832">
        <ele>1042.2</ele>
        <time>2022-08-29T08:22:22Z</time>
      </trkpt>
      <trkpt lat="45.95176" lon="3.68832">
        <ele>1042.2</ele>
        <time>2022-08-29T08:22:23Z</time>
      </trkpt>
      <trkpt lat="45.95177" lon="3.68834">
        <ele>1042.3</ele>
        <time>2022-08-29T08:22:24Z</time>
      </trkpt>
      <trkpt lat="45.95178" lon="3.68836">
        <ele>1042.3</ele>
        <time>2022-08-29T08:22:25Z</time>
      </trkpt>
      <trkpt lat="45.95179" lon="3.68838">
        <ele>1042.4</ele>
        <time>2022-08-29T08:22:26Z</time>
      </trkpt>
      <trkpt lat="45.9518" lon="3.68839">
        <ele>1042.5</ele>
        <time>2022-08-29T08:22:27Z</time>
      </trkpt>
      <trkpt lat="45.95181" lon="3.68841">
        <ele>1042.6</ele>
        <time>2022-08-29T08:22:28Z</time>
      </trkpt>
      <trkpt lat="45.95182" lon="3.68843">
        <ele>1042.8</ele>
        <time>2022-08-29T08:22:29Z</time>
      </trkpt>
      <trkpt lat="45.95185" lon="3.68845">
        <ele>1043</ele>
        <time>2022-08-29T08:22:30Z</time>
      </trkpt>
      <trkpt lat="45.95186" lon="3.68846">
        <ele>1043.1</ele>
        <time>2022-08-29T08:22:31Z</time>
      </trkpt>
      <trkpt lat="45.95188" lon="3.68847">
        <ele>1043.4</ele>
        <time>2022-08-29T08:22:32Z</time>
      </trkpt>
      <trkpt lat="45.95189" lon="3.68848">
        <ele>1043.5</ele>
        <time>2022-08-29T08:22:33Z</time>
      </trkpt>
      <trkpt lat="45.95191" lon="3.68848">
        <ele>1043.6</ele>
        <time>2022-08-29T08:22:34Z</time>
      </trkpt>
      <trkpt lat="45.95192" lon="3.68849">
        <ele>1043.7</ele>
        <time>2022-08-29T08:22:35Z</time>
      </trkpt>
      <trkpt lat="45.95192" lon="3.6885">
        <ele>1043.8</ele>
        <time>2022-08-29T08:22:36Z</time>
      </trkpt>
      <trkpt lat="45.95193" lon="3.68851">
        <ele>1043.8</ele>
        <time>2022-08-29T08:22:37Z</time>
      </trkpt>
      <trkpt lat="45.95193" lon="3.68851">
        <ele>1043.9</ele>
        <time>2022-08-29T08:22:38Z</time>
      </trkpt>
      <trkpt lat="45.95194" lon="3.68852">
        <ele>1044</ele>
        <time>2022-08-29T08:22:39Z</time>
      </trkpt>
      <trkpt lat="45.95197" lon="3.68853">
        <ele>1044.2</ele>
        <time>2022-08-29T08:22:40Z</time>
      </trkpt>
      <trkpt lat="45.95197" lon="3.68854">
        <ele>1044.3</ele>
        <time>2022-08-29T08:22:41Z</time>
      </trkpt>
      <trkpt lat="45.95198" lon="3.68854">
        <ele>1044.4</ele>
        <time>2022-08-29T08:22:42Z</time>
      </trkpt>
      <trkpt lat="45.952" lon="3.68855">
        <ele>1044.6</ele>
        <time>2022-08-29T08:22:43Z</time>
      </trkpt>
      <trkpt lat="45.95202" lon="3.68856">
        <ele>1044.7</ele>
        <time>2022-08-29T08:22:44Z</time>
      </trkpt>
      <trkpt lat="45.95203" lon="3.68857">
        <ele>1044.9</ele>
        <time>2022-08-29T08:22:45Z</time>
      </trkpt>
      <trkpt lat="45.95205" lon="3.68858">
        <ele>1045</ele>
        <time>2022-08-29T08:22:46Z</time>
      </trkpt>
      <trkpt lat="45.95207" lon="3.68858">
        <ele>1045.2</ele>
        <time>2022-08-29T08:22:47Z</time>
      </trkpt>
      <trkpt lat="45.95208" lon="3.68859">
        <ele>1045.3</ele>
        <time>2022-08-29T08:22:48Z</time>
      </trkpt>
      <trkpt lat="45.95208" lon="3.68859">
        <ele>1045.4</ele>
        <time>2022-08-29T08:22:49Z</time>
      </trkpt>
      <trkpt lat="45.9521" lon="3.6886">
        <ele>1045.5</ele>
        <time>2022-08-29T08:22:50Z</time>
      </trkpt>
      <trkpt lat="45.95211" lon="3.68861">
        <ele>1045.6</ele>
        <time>2022-08-29T08:22:51Z</time>
      </trkpt>
      <trkpt lat="45.95212" lon="3.68862">
        <ele>1045.8</ele>
        <time>2022-08-29T08:22:52Z</time>
      </trkpt>
      <trkpt lat="45.95213" lon="3.68864">
        <ele>1045.9</ele>
        <time>2022-08-29T08:22:53Z</time>
      </trkpt>
      <trkpt lat="45.95216" lon="3.68867">
        <ele>1046.2</ele>
        <time>2022-08-29T08:22:54Z</time>
      </trkpt>
      <trkpt lat="45.95216" lon="3.68868">
        <ele>1046.2</ele>
        <time>2022-08-29T08:22:55Z</time>
      </trkpt>
      <trkpt lat="45.95218" lon="3.6887">
        <ele>1046.4</ele>
        <time>2022-08-29T08:22:56Z</time>
      </trkpt>
      <trkpt lat="45.95219" lon="3.68872">
        <ele>1046.5</ele>
        <time>2022-08-29T08:22:57Z</time>
      </trkpt>
      <trkpt lat="45.9522" lon="3.68873">
        <ele>1046.6</ele>
        <time>2022-08-29T08:22:58Z</time>
      </trkpt>
      <trkpt lat="45.95221" lon="3.68874">
        <ele>1046.7</ele>
        <time>2022-08-29T08:22:59Z</time>
      </trkpt>
      <trkpt lat="45.95223" lon="3.68875">
        <ele>1046.8</ele>
        <time>2022-08-29T08:23:00Z</time>
      </trkpt>
      <trkpt lat="45.95224" lon="3.68875">
        <ele>1046.9</ele>
        <time>2022-08-29T08:23:01Z</time>
      </trkpt>
      <trkpt lat="45.95226" lon="3.68876">
        <ele>1047</ele>
        <time>2022-08-29T08:23:02Z</time>
      </trkpt>
      <trkpt lat="45.95228" lon="3.68877">
        <ele>1047.1</ele>
        <time>2022-08-29T08:23:03Z</time>
      </trkpt>
      <trkpt lat="45.9523" lon="3.68877">
        <ele>1047.3</ele>
        <time>2022-08-29T08:23:04Z</time>
      </trkpt>
      <trkpt lat="45.95231" lon="3.68878">
        <ele>1047.3</ele>
        <time>2022-08-29T08:23:05Z</time>
      </trkpt>
      <trkpt lat="45.95233" lon="3.68878">
        <ele>1047.4</ele>
        <time>2022-08-29T08:23:06Z</time>
      </trkpt>
      <trkpt lat="45.95234" lon="3.68878">
        <ele>1047.4</ele>
        <time>2022-08-29T08:23:07Z</time>
      </trkpt>
      <trkpt lat="45.95236" lon="3.68879">
        <ele>1047.5</ele>
        <time>2022-08-29T08:23:08Z</time>
      </trkpt>
      <trkpt lat="45.95238" lon="3.68879">
        <ele>1047.6</ele>
        <time>2022-08-29T08:23:09Z</time>
      </trkpt>
      <trkpt lat="45.95239" lon="3.68879">
        <ele>1047.7</ele>
        <time>2022-08-29T08:23:10Z</time>
      </trkpt>
      <trkpt lat="45.95241" lon="3.6888">
        <ele>1047.7</ele>
        <time>2022-08-29T08:23:11Z</time>
      </trkpt>
      <trkpt lat="45.95242" lon="3.6888">
        <ele>1047.6</ele>
        <time>2022-08-29T08:23:12Z</time>
      </trkpt>
      <trkpt lat="45.95244" lon="3.68881">
        <ele>1047.6</ele>
        <time>2022-08-29T08:23:13Z</time>
      </trkpt>
      <trkpt lat="45.95246" lon="3.68883">
        <ele>1047.6</ele>
        <time>2022-08-29T08:23:14Z</time>
      </trkpt>
      <trkpt lat="45.95247" lon="3.68883">
        <ele>1047.6</ele>
        <time>2022-08-29T08:23:15Z</time>
      </trkpt>
      <trkpt lat="45.9525" lon="3.68884">
        <ele>1047.5</ele>
        <time>2022-08-29T08:23:16Z</time>
      </trkpt>
      <trkpt lat="45.95251" lon="3.68883">
        <ele>1047.5</ele>
        <time>2022-08-29T08:23:17Z</time>
      </trkpt>
      <trkpt lat="45.95253" lon="3.68883">
        <ele>1047.4</ele>
        <time>2022-08-29T08:23:18Z</time>
      </trkpt>
      <trkpt lat="45.95255" lon="3.68882">
        <ele>1047.4</ele>
        <time>2022-08-29T08:23:19Z</time>
      </trkpt>
      <trkpt lat="45.95256" lon="3.68881">
        <ele>1047.3</ele>
        <time>2022-08-29T08:23:20Z</time>
      </trkpt>
      <trkpt lat="45.95257" lon="3.6888">
        <ele>1047.3</ele>
        <time>2022-08-29T08:23:21Z</time>
      </trkpt>
      <trkpt lat="45.9526" lon="3.68878">
        <ele>1047.2</ele>
        <time>2022-08-29T08:23:22Z</time>
      </trkpt>
      <trkpt lat="45.95261" lon="3.68878">
        <ele>1047.1</ele>
        <time>2022-08-29T08:23:23Z</time>
      </trkpt>
      <trkpt lat="45.95262" lon="3.68877">
        <ele>1047.2</ele>
        <time>2022-08-29T08:23:24Z</time>
      </trkpt>
      <trkpt lat="45.95264" lon="3.68876">
        <ele>1047.3</ele>
        <time>2022-08-29T08:23:25Z</time>
      </trkpt>
      <trkpt lat="45.95265" lon="3.68875">
        <ele>1047.4</ele>
        <time>2022-08-29T08:23:26Z</time>
      </trkpt>
      <trkpt lat="45.95266" lon="3.68875">
        <ele>1047.5</ele>
        <time>2022-08-29T08:23:27Z</time>
      </trkpt>
      <trkpt lat="45.95269" lon="3.68874">
        <ele>1047.7</ele>
        <time>2022-08-29T08:23:28Z</time>
      </trkpt>
      <trkpt lat="45.95269" lon="3.68874">
        <ele>1047.7</ele>
        <time>2022-08-29T08:23:29Z</time>
      </trkpt>
      <trkpt lat="45.9527" lon="3.68874">
        <ele>1047.8</ele>
        <time>2022-08-29T08:23:30Z</time>
      </trkpt>
      <trkpt lat="45.95271" lon="3.68874">
        <ele>1047.9</ele>
        <time>2022-08-29T08:23:31Z</time>
      </trkpt>
      <trkpt lat="45.95273" lon="3.68873">
        <ele>1048</ele>
        <time>2022-08-29T08:23:32Z</time>
      </trkpt>
      <trkpt lat="45.95274" lon="3.68873">
        <ele>1048</ele>
        <time>2022-08-29T08:23:33Z</time>
      </trkpt>
      <trkpt lat="45.95274" lon="3.68873">
        <ele>1048.1</ele>
        <time>2022-08-29T08:23:34Z</time>
      </trkpt>
      <trkpt lat="45.95275" lon="3.68872">
        <ele>1048.1</ele>
        <time>2022-08-29T08:23:35Z</time>
      </trkpt>
      <trkpt lat="45.95276" lon="3.68872">
        <ele>1048.2</ele>
        <time>2022-08-29T08:23:36Z</time>
      </trkpt>
      <trkpt lat="45.95277" lon="3.68871">
        <ele>1048.3</ele>
        <time>2022-08-29T08:23:37Z</time>
      </trkpt>
      <trkpt lat="45.95278" lon="3.6887">
        <ele>1048.3</ele>
        <time>2022-08-29T08:23:38Z</time>
      </trkpt>
      <trkpt lat="45.95279" lon="3.68869">
        <ele>1048.4</ele>
        <time>2022-08-29T08:23:39Z</time>
      </trkpt>
      <trkpt lat="45.9528" lon="3.68869">
        <ele>1048.5</ele>
        <time>2022-08-29T08:23:40Z</time>
      </trkpt>
      <trkpt lat="45.95281" lon="3.68868">
        <ele>1048.6</ele>
        <time>2022-08-29T08:23:41Z</time>
      </trkpt>
      <trkpt lat="45.95283" lon="3.68867">
        <ele>1048.7</ele>
        <time>2022-08-29T08:23:42Z</time>
      </trkpt>
      <trkpt lat="45.95284" lon="3.68867">
        <ele>1048.8</ele>
        <time>2022-08-29T08:23:43Z</time>
      </trkpt>
      <trkpt lat="45.95286" lon="3.68866">
        <ele>1048.9</ele>
        <time>2022-08-29T08:23:44Z</time>
      </trkpt>
      <trkpt lat="45.95288" lon="3.68866">
        <ele>1049</ele>
        <time>2022-08-29T08:23:45Z</time>
      </trkpt>
      <trkpt lat="45.95289" lon="3.68866">
        <ele>1049.1</ele>
        <time>2022-08-29T08:23:46Z</time>
      </trkpt>
      <trkpt lat="45.95291" lon="3.68865">
        <ele>1049.2</ele>
        <time>2022-08-29T08:23:47Z</time>
      </trkpt>
      <trkpt lat="45.95292" lon="3.68865">
        <ele>1049.3</ele>
        <time>2022-08-29T08:23:48Z</time>
      </trkpt>
      <trkpt lat="45.95293" lon="3.68865">
        <ele>1049.3</ele>
        <time>2022-08-29T08:23:49Z</time>
      </trkpt>
      <trkpt lat="45.95295" lon="3.68865">
        <ele>1049.4</ele>
        <time>2022-08-29T08:23:50Z</time>
      </trkpt>
      <trkpt lat="45.95296" lon="3.68865">
        <ele>1049.5</ele>
        <time>2022-08-29T08:23:51Z</time>
      </trkpt>
      <trkpt lat="45.95298" lon="3.68864">
        <ele>1049.6</ele>
        <time>2022-08-29T08:23:52Z</time>
      </trkpt>
      <trkpt lat="45.95299" lon="3.68864">
        <ele>1049.6</ele>
        <time>2022-08-29T08:23:53Z</time>
      </trkpt>
      <trkpt lat="45.953" lon="3.68864">
        <ele>1049.7</ele>
        <time>2022-08-29T08:23:54Z</time>
      </trkpt>
      <trkpt lat="45.95302" lon="3.68863">
        <ele>1049.8</ele>
        <time>2022-08-29T08:23:55Z</time>
      </trkpt>
      <trkpt lat="45.95303" lon="3.68863">
        <ele>1049.8</ele>
        <time>2022-08-29T08:23:56Z</time>
      </trkpt>
      <trkpt lat="45.95304" lon="3.68862">
        <ele>1049.9</ele>
        <time>2022-08-29T08:23:57Z</time>
      </trkpt>
      <trkpt lat="45.95305" lon="3.68862">
        <ele>1049.9</ele>
        <time>2022-08-29T08:23:58Z</time>
      </trkpt>
      <trkpt lat="45.95306" lon="3.68861">
        <ele>1050</ele>
        <time>2022-08-29T08:23:59Z</time>
      </trkpt>
      <trkpt lat="45.95308" lon="3.6886">
        <ele>1050.1</ele>
        <time>2022-08-29T08:24:00Z</time>
      </trkpt>
      <trkpt lat="45.95309" lon="3.68859">
        <ele>1050.1</ele>
        <time>2022-08-29T08:24:01Z</time>
      </trkpt>
      <trkpt lat="45.95311" lon="3.68857">
        <ele>1050.2</ele>
        <time>2022-08-29T08:24:02Z</time>
      </trkpt>
      <trkpt lat="45.95312" lon="3.68857">
        <ele>1050.2</ele>
        <time>2022-08-29T08:24:03Z</time>
      </trkpt>
      <trkpt lat="45.95312" lon="3.68856">
        <ele>1050.3</ele>
        <time>2022-08-29T08:24:04Z</time>
      </trkpt>
      <trkpt lat="45.95314" lon="3.68855">
        <ele>1050.3</ele>
        <time>2022-08-29T08:24:05Z</time>
      </trkpt>
      <trkpt lat="45.95315" lon="3.68854">
        <ele>1050.3</ele>
        <time>2022-08-29T08:24:06Z</time>
      </trkpt>
      <trkpt lat="45.95318" lon="3.68853">
        <ele>1050.4</ele>
        <time>2022-08-29T08:24:07Z</time>
      </trkpt>
      <trkpt lat="45.95319" lon="3.68853">
        <ele>1050.4</ele>
        <time>2022-08-29T08:24:08Z</time>
      </trkpt>
      <trkpt lat="45.95319" lon="3.68853">
        <ele>1050.4</ele>
        <time>2022-08-29T08:24:09Z</time>
      </trkpt>
      <trkpt lat="45.95322" lon="3.68852">
        <ele>1050.5</ele>
        <time>2022-08-29T08:24:10Z</time>
      </trkpt>
      <trkpt lat="45.95324" lon="3.68852">
        <ele>1050.5</ele>
        <time>2022-08-29T08:24:11Z</time>
      </trkpt>
      <trkpt lat="45.95325" lon="3.68851">
        <ele>1050.6</ele>
        <time>2022-08-29T08:24:12Z</time>
      </trkpt>
      <trkpt lat="45.95327" lon="3.68851">
        <ele>1050.6</ele>
        <time>2022-08-29T08:24:13Z</time>
      </trkpt>
      <trkpt lat="45.95329" lon="3.68851">
        <ele>1050.7</ele>
        <time>2022-08-29T08:24:14Z</time>
      </trkpt>
      <trkpt lat="45.9533" lon="3.68851">
        <ele>1050.7</ele>
        <time>2022-08-29T08:24:15Z</time>
      </trkpt>
      <trkpt lat="45.95333" lon="3.6885">
        <ele>1050.8</ele>
        <time>2022-08-29T08:24:16Z</time>
      </trkpt>
      <trkpt lat="45.95334" lon="3.6885">
        <ele>1050.8</ele>
        <time>2022-08-29T08:24:17Z</time>
      </trkpt>
      <trkpt lat="45.95336" lon="3.6885">
        <ele>1050.9</ele>
        <time>2022-08-29T08:24:18Z</time>
      </trkpt>
      <trkpt lat="45.95337" lon="3.6885">
        <ele>1050.9</ele>
        <time>2022-08-29T08:24:19Z</time>
      </trkpt>
      <trkpt lat="45.95337" lon="3.6885">
        <ele>1050.9</ele>
        <time>2022-08-29T08:24:20Z</time>
      </trkpt>
      <trkpt lat="45.95338" lon="3.68849">
        <ele>1050.9</ele>
        <time>2022-08-29T08:24:21Z</time>
      </trkpt>
      <trkpt lat="45.9534" lon="3.68849">
        <ele>1051</ele>
        <time>2022-08-29T08:24:22Z</time>
      </trkpt>
      <trkpt lat="45.95341" lon="3.68848">
        <ele>1051</ele>
        <time>2022-08-29T08:24:23Z</time>
      </trkpt>
      <trkpt lat="45.95342" lon="3.68848">
        <ele>1051</ele>
        <time>2022-08-29T08:24:24Z</time>
      </trkpt>
      <trkpt lat="45.95343" lon="3.68848">
        <ele>1051</ele>
        <time>2022-08-29T08:24:25Z</time>
      </trkpt>
      <trkpt lat="45.95346" lon="3.68848">
        <ele>1051.1</ele>
        <time>2022-08-29T08:24:27Z</time>
      </trkpt>
      <trkpt lat="45.95347" lon="3.68848">
        <ele>1051.1</ele>
        <time>2022-08-29T08:24:28Z</time>
      </trkpt>
      <trkpt lat="45.95349" lon="3.68848">
        <ele>1051.1</ele>
        <time>2022-08-29T08:24:29Z</time>
      </trkpt>
      <trkpt lat="45.9535" lon="3.68848">
        <ele>1051.2</ele>
        <time>2022-08-29T08:24:30Z</time>
      </trkpt>
      <trkpt lat="45.95352" lon="3.68848">
        <ele>1051.2</ele>
        <time>2022-08-29T08:24:31Z</time>
      </trkpt>
      <trkpt lat="45.95354" lon="3.68848">
        <ele>1051.2</ele>
        <time>2022-08-29T08:24:32Z</time>
      </trkpt>
      <trkpt lat="45.95355" lon="3.68848">
        <ele>1051.2</ele>
        <time>2022-08-29T08:24:33Z</time>
      </trkpt>
      <trkpt lat="45.95357" lon="3.68848">
        <ele>1051.2</ele>
        <time>2022-08-29T08:24:34Z</time>
      </trkpt>
      <trkpt lat="45.95358" lon="3.68848">
        <ele>1051.3</ele>
        <time>2022-08-29T08:24:35Z</time>
      </trkpt>
      <trkpt lat="45.95359" lon="3.68848">
        <ele>1051.3</ele>
        <time>2022-08-29T08:24:36Z</time>
      </trkpt>
      <trkpt lat="45.9536" lon="3.68849">
        <ele>1051.3</ele>
        <time>2022-08-29T08:24:37Z</time>
      </trkpt>
      <trkpt lat="45.95362" lon="3.68849">
        <ele>1051.3</ele>
        <time>2022-08-29T08:24:38Z</time>
      </trkpt>
      <trkpt lat="45.95362" lon="3.68849">
        <ele>1051.3</ele>
        <time>2022-08-29T08:24:39Z</time>
      </trkpt>
      <trkpt lat="45.95363" lon="3.68849">
        <ele>1051.3</ele>
        <time>2022-08-29T08:24:40Z</time>
      </trkpt>
      <trkpt lat="45.95363" lon="3.68848">
        <ele>1051.3</ele>
        <time>2022-08-29T08:24:41Z</time>
      </trkpt>
      <trkpt lat="45.95363" lon="3.68848">
        <ele>1051.3</ele>
        <time>2022-08-29T08:24:42Z</time>
      </trkpt>
      <trkpt lat="45.95364" lon="3.68848">
        <ele>1051.3</ele>
        <time>2022-08-29T08:24:43Z</time>
      </trkpt>
      <trkpt lat="45.95364" lon="3.68848">
        <ele>1051.3</ele>
        <time>2022-08-29T08:24:44Z</time>
      </trkpt>
      <trkpt lat="45.95366" lon="3.68849">
        <ele>1051.3</ele>
        <time>2022-08-29T08:24:45Z</time>
      </trkpt>
      <trkpt lat="45.95367" lon="3.68849">
        <ele>1051.3</ele>
        <time>2022-08-29T08:24:46Z</time>
      </trkpt>
      <trkpt lat="45.95367" lon="3.68849">
        <ele>1051.3</ele>
        <time>2022-08-29T08:24:47Z</time>
      </trkpt>
      <trkpt lat="45.95368" lon="3.68849">
        <ele>1051.3</ele>
        <time>2022-08-29T08:24:48Z</time>
      </trkpt>
      <trkpt lat="45.95369" lon="3.68849">
        <ele>1051.3</ele>
        <time>2022-08-29T08:24:49Z</time>
      </trkpt>
      <trkpt lat="45.9537" lon="3.6885">
        <ele>1051.3</ele>
        <time>2022-08-29T08:24:50Z</time>
      </trkpt>
      <trkpt lat="45.95371" lon="3.6885">
        <ele>1051.3</ele>
        <time>2022-08-29T08:24:51Z</time>
      </trkpt>
      <trkpt lat="45.95372" lon="3.6885">
        <ele>1051.3</ele>
        <time>2022-08-29T08:24:52Z</time>
      </trkpt>
      <trkpt lat="45.95374" lon="3.6885">
        <ele>1051.2</ele>
        <time>2022-08-29T08:24:53Z</time>
      </trkpt>
      <trkpt lat="45.95375" lon="3.6885">
        <ele>1051.2</ele>
        <time>2022-08-29T08:24:54Z</time>
      </trkpt>
      <trkpt lat="45.95376" lon="3.68849">
        <ele>1051.2</ele>
        <time>2022-08-29T08:24:55Z</time>
      </trkpt>
      <trkpt lat="45.95378" lon="3.68849">
        <ele>1051.1</ele>
        <time>2022-08-29T08:24:56Z</time>
      </trkpt>
      <trkpt lat="45.95379" lon="3.68849">
        <ele>1051</ele>
        <time>2022-08-29T08:24:57Z</time>
      </trkpt>
      <trkpt lat="45.9538" lon="3.68849">
        <ele>1051</ele>
        <time>2022-08-29T08:24:58Z</time>
      </trkpt>
      <trkpt lat="45.95383" lon="3.68848">
        <ele>1050.8</ele>
        <time>2022-08-29T08:24:59Z</time>
      </trkpt>
      <trkpt lat="45.95383" lon="3.68848">
        <ele>1050.8</ele>
        <time>2022-08-29T08:25:00Z</time>
      </trkpt>
      <trkpt lat="45.95384" lon="3.68848">
        <ele>1050.7</ele>
        <time>2022-08-29T08:25:01Z</time>
      </trkpt>
      <trkpt lat="45.95386" lon="3.68848">
        <ele>1050.6</ele>
        <time>2022-08-29T08:25:02Z</time>
      </trkpt>
      <trkpt lat="45.95386" lon="3.68849">
        <ele>1050.5</ele>
        <time>2022-08-29T08:25:03Z</time>
      </trkpt>
      <trkpt lat="45.95387" lon="3.68849">
        <ele>1050.4</ele>
        <time>2022-08-29T08:25:04Z</time>
      </trkpt>
      <trkpt lat="45.95388" lon="3.6885">
        <ele>1050.3</ele>
        <time>2022-08-29T08:25:05Z</time>
      </trkpt>
      <trkpt lat="45.95389" lon="3.6885">
        <ele>1050.2</ele>
        <time>2022-08-29T08:25:06Z</time>
      </trkpt>
      <trkpt lat="45.95389" lon="3.68851">
        <ele>1050.2</ele>
        <time>2022-08-29T08:25:07Z</time>
      </trkpt>
      <trkpt lat="45.9539" lon="3.68851">
        <ele>1050.1</ele>
        <time>2022-08-29T08:25:08Z</time>
      </trkpt>
      <trkpt lat="45.95391" lon="3.68851">
        <ele>1050</ele>
        <time>2022-08-29T08:25:09Z</time>
      </trkpt>
      <trkpt lat="45.95392" lon="3.68852">
        <ele>1049.9</ele>
        <time>2022-08-29T08:25:10Z</time>
      </trkpt>
      <trkpt lat="45.95392" lon="3.68852">
        <ele>1049.8</ele>
        <time>2022-08-29T08:25:11Z</time>
      </trkpt>
      <trkpt lat="45.95393" lon="3.68852">
        <ele>1049.7</ele>
        <time>2022-08-29T08:25:12Z</time>
      </trkpt>
      <trkpt lat="45.95394" lon="3.68852">
        <ele>1049.6</ele>
        <time>2022-08-29T08:25:13Z</time>
      </trkpt>
      <trkpt lat="45.95396" lon="3.68852">
        <ele>1049.4</ele>
        <time>2022-08-29T08:25:14Z</time>
      </trkpt>
      <trkpt lat="45.95397" lon="3.68852">
        <ele>1049.3</ele>
        <time>2022-08-29T08:25:15Z</time>
      </trkpt>
      <trkpt lat="45.95399" lon="3.68852">
        <ele>1049</ele>
        <time>2022-08-29T08:25:16Z</time>
      </trkpt>
      <trkpt lat="45.954" lon="3.68853">
        <ele>1048.9</ele>
        <time>2022-08-29T08:25:17Z</time>
      </trkpt>
      <trkpt lat="45.95401" lon="3.68853">
        <ele>1048.8</ele>
        <time>2022-08-29T08:25:18Z</time>
      </trkpt>
      <trkpt lat="45.95402" lon="3.68853">
        <ele>1048.7</ele>
        <time>2022-08-29T08:25:19Z</time>
      </trkpt>
      <trkpt lat="45.95404" lon="3.68854">
        <ele>1048.5</ele>
        <time>2022-08-29T08:25:20Z</time>
      </trkpt>
      <trkpt lat="45.95406" lon="3.68855">
        <ele>1048.3</ele>
        <time>2022-08-29T08:25:21Z</time>
      </trkpt>
      <trkpt lat="45.95407" lon="3.68855">
        <ele>1048.2</ele>
        <time>2022-08-29T08:25:22Z</time>
      </trkpt>
      <trkpt lat="45.95408" lon="3.68855">
        <ele>1048.2</ele>
        <time>2022-08-29T08:25:23Z</time>
      </trkpt>
      <trkpt lat="45.95409" lon="3.68856">
        <ele>1048.1</ele>
        <time>2022-08-29T08:25:24Z</time>
      </trkpt>
      <trkpt lat="45.9541" lon="3.68857">
        <ele>1047.9</ele>
        <time>2022-08-29T08:25:25Z</time>
      </trkpt>
      <trkpt lat="45.95411" lon="3.68857">
        <ele>1047.8</ele>
        <time>2022-08-29T08:25:26Z</time>
      </trkpt>
      <trkpt lat="45.95413" lon="3.68858">
        <ele>1047.7</ele>
        <time>2022-08-29T08:25:27Z</time>
      </trkpt>
      <trkpt lat="45.95414" lon="3.68858">
        <ele>1047.6</ele>
        <time>2022-08-29T08:25:28Z</time>
      </trkpt>
      <trkpt lat="45.95415" lon="3.68859">
        <ele>1047.5</ele>
        <time>2022-08-29T08:25:29Z</time>
      </trkpt>
      <trkpt lat="45.95417" lon="3.6886">
        <ele>1047.4</ele>
        <time>2022-08-29T08:25:30Z</time>
      </trkpt>
      <trkpt lat="45.95418" lon="3.68861">
        <ele>1047.2</ele>
        <time>2022-08-29T08:25:31Z</time>
      </trkpt>
      <trkpt lat="45.95419" lon="3.68861">
        <ele>1047.1</ele>
        <time>2022-08-29T08:25:32Z</time>
      </trkpt>
      <trkpt lat="45.95421" lon="3.68862">
        <ele>1046.9</ele>
        <time>2022-08-29T08:25:33Z</time>
      </trkpt>
      <trkpt lat="45.95424" lon="3.68863">
        <ele>1046.7</ele>
        <time>2022-08-29T08:25:34Z</time>
      </trkpt>
      <trkpt lat="45.95425" lon="3.68864">
        <ele>1046.6</ele>
        <time>2022-08-29T08:25:35Z</time>
      </trkpt>
      <trkpt lat="45.95426" lon="3.68864">
        <ele>1046.4</ele>
        <time>2022-08-29T08:25:36Z</time>
      </trkpt>
      <trkpt lat="45.95428" lon="3.68865">
        <ele>1046.3</ele>
        <time>2022-08-29T08:25:37Z</time>
      </trkpt>
      <trkpt lat="45.95429" lon="3.68866">
        <ele>1046.2</ele>
        <time>2022-08-29T08:25:38Z</time>
      </trkpt>
      <trkpt lat="45.95431" lon="3.68867">
        <ele>1046</ele>
        <time>2022-08-29T08:25:39Z</time>
      </trkpt>
      <trkpt lat="45.95433" lon="3.68868">
        <ele>1045.8</ele>
        <time>2022-08-29T08:25:40Z</time>
      </trkpt>
      <trkpt lat="45.95433" lon="3.68868">
        <ele>1045.7</ele>
        <time>2022-08-29T08:25:41Z</time>
      </trkpt>
      <trkpt lat="45.95434" lon="3.68869">
        <ele>1045.7</ele>
        <time>2022-08-29T08:25:42Z</time>
      </trkpt>
      <trkpt lat="45.95435" lon="3.68869">
        <ele>1045.6</ele>
        <time>2022-08-29T08:25:43Z</time>
      </trkpt>
      <trkpt lat="45.95435" lon="3.68869">
        <ele>1045.5</ele>
        <time>2022-08-29T08:25:44Z</time>
      </trkpt>
      <trkpt lat="45.95436" lon="3.6887">
        <ele>1045.5</ele>
        <time>2022-08-29T08:25:45Z</time>
      </trkpt>
      <trkpt lat="45.95436" lon="3.6887">
        <ele>1045.4</ele>
        <time>2022-08-29T08:25:46Z</time>
      </trkpt>
      <trkpt lat="45.95437" lon="3.6887">
        <ele>1045.4</ele>
        <time>2022-08-29T08:25:47Z</time>
      </trkpt>
      <trkpt lat="45.95437" lon="3.6887">
        <ele>1045.3</ele>
        <time>2022-08-29T08:25:48Z</time>
      </trkpt>
      <trkpt lat="45.95438" lon="3.6887">
        <ele>1045.3</ele>
        <time>2022-08-29T08:25:49Z</time>
      </trkpt>
      <trkpt lat="45.95439" lon="3.6887">
        <ele>1045.2</ele>
        <time>2022-08-29T08:25:50Z</time>
      </trkpt>
      <trkpt lat="45.9544" lon="3.6887">
        <ele>1045.1</ele>
        <time>2022-08-29T08:25:51Z</time>
      </trkpt>
      <trkpt lat="45.95442" lon="3.68871">
        <ele>1044.9</ele>
        <time>2022-08-29T08:25:52Z</time>
      </trkpt>
      <trkpt lat="45.95443" lon="3.68871">
        <ele>1044.8</ele>
        <time>2022-08-29T08:25:53Z</time>
      </trkpt>
      <trkpt lat="45.95444" lon="3.68871">
        <ele>1044.7</ele>
        <time>2022-08-29T08:25:54Z</time>
      </trkpt>
      <trkpt lat="45.95446" lon="3.68871">
        <ele>1044.5</ele>
        <time>2022-08-29T08:25:55Z</time>
      </trkpt>
      <trkpt lat="45.95447" lon="3.68872">
        <ele>1044.4</ele>
        <time>2022-08-29T08:25:56Z</time>
      </trkpt>
      <trkpt lat="45.95449" lon="3.68872">
        <ele>1044.3</ele>
        <time>2022-08-29T08:25:57Z</time>
      </trkpt>
      <trkpt lat="45.9545" lon="3.68872">
        <ele>1044.1</ele>
        <time>2022-08-29T08:25:58Z</time>
      </trkpt>
      <trkpt lat="45.95453" lon="3.68873">
        <ele>1043.9</ele>
        <time>2022-08-29T08:25:59Z</time>
      </trkpt>
      <trkpt lat="45.95454" lon="3.68873">
        <ele>1043.8</ele>
        <time>2022-08-29T08:26:00Z</time>
      </trkpt>
      <trkpt lat="45.95456" lon="3.68873">
        <ele>1043.6</ele>
        <time>2022-08-29T08:26:01Z</time>
      </trkpt>
      <trkpt lat="45.95457" lon="3.68873">
        <ele>1043.5</ele>
        <time>2022-08-29T08:26:02Z</time>
      </trkpt>
      <trkpt lat="45.9546" lon="3.68874">
        <ele>1043.2</ele>
        <time>2022-08-29T08:26:03Z</time>
      </trkpt>
      <trkpt lat="45.95461" lon="3.68874">
        <ele>1043.1</ele>
        <time>2022-08-29T08:26:04Z</time>
      </trkpt>
      <trkpt lat="45.95464" lon="3.68874">
        <ele>1042.8</ele>
        <time>2022-08-29T08:26:05Z</time>
      </trkpt>
      <trkpt lat="45.95465" lon="3.68875">
        <ele>1042.7</ele>
        <time>2022-08-29T08:26:06Z</time>
      </trkpt>
      <trkpt lat="45.95466" lon="3.68875">
        <ele>1042.6</ele>
        <time>2022-08-29T08:26:07Z</time>
      </trkpt>
      <trkpt lat="45.95467" lon="3.68875">
        <ele>1042.6</ele>
        <time>2022-08-29T08:26:08Z</time>
      </trkpt>
      <trkpt lat="45.95468" lon="3.68876">
        <ele>1042.5</ele>
        <time>2022-08-29T08:26:09Z</time>
      </trkpt>
      <trkpt lat="45.95468" lon="3.68876">
        <ele>1042.4</ele>
        <time>2022-08-29T08:26:10Z</time>
      </trkpt>
      <trkpt lat="45.95469" lon="3.68876">
        <ele>1042.3</ele>
        <time>2022-08-29T08:26:11Z</time>
      </trkpt>
      <trkpt lat="45.9547" lon="3.68877">
        <ele>1042.2</ele>
        <time>2022-08-29T08:26:12Z</time>
      </trkpt>
      <trkpt lat="45.95471" lon="3.68877">
        <ele>1042.1</ele>
        <time>2022-08-29T08:26:13Z</time>
      </trkpt>
      <trkpt lat="45.95471" lon="3.68878">
        <ele>1042.1</ele>
        <time>2022-08-29T08:26:14Z</time>
      </trkpt>
      <trkpt lat="45.95472" lon="3.6888">
        <ele>1041.9</ele>
        <time>2022-08-29T08:26:15Z</time>
      </trkpt>
      <trkpt lat="45.95473" lon="3.6888">
        <ele>1041.8</ele>
        <time>2022-08-29T08:26:16Z</time>
      </trkpt>
      <trkpt lat="45.95473" lon="3.68881">
        <ele>1041.7</ele>
        <time>2022-08-29T08:26:17Z</time>
      </trkpt>
      <trkpt lat="45.95474" lon="3.68882">
        <ele>1041.6</ele>
        <time>2022-08-29T08:26:18Z</time>
      </trkpt>
      <trkpt lat="45.95475" lon="3.68883">
        <ele>1041.4</ele>
        <time>2022-08-29T08:26:19Z</time>
      </trkpt>
      <trkpt lat="45.95477" lon="3.68885">
        <ele>1041.1</ele>
        <time>2022-08-29T08:26:20Z</time>
      </trkpt>
      <trkpt lat="45.95477" lon="3.68886">
        <ele>1041</ele>
        <time>2022-08-29T08:26:21Z</time>
      </trkpt>
      <trkpt lat="45.95478" lon="3.68886">
        <ele>1040.9</ele>
        <time>2022-08-29T08:26:22Z</time>
      </trkpt>
      <trkpt lat="45.95479" lon="3.68887">
        <ele>1040.8</ele>
        <time>2022-08-29T08:26:23Z</time>
      </trkpt>
      <trkpt lat="45.95479" lon="3.68887">
        <ele>1040.7</ele>
        <time>2022-08-29T08:26:24Z</time>
      </trkpt>
      <trkpt lat="45.95479" lon="3.68888">
        <ele>1040.6</ele>
        <time>2022-08-29T08:26:25Z</time>
      </trkpt>
      <trkpt lat="45.95479" lon="3.68889">
        <ele>1040.5</ele>
        <time>2022-08-29T08:26:26Z</time>
      </trkpt>
      <trkpt lat="45.9548" lon="3.68889">
        <ele>1040.5</ele>
        <time>2022-08-29T08:26:27Z</time>
      </trkpt>
      <trkpt lat="45.9548" lon="3.68889">
        <ele>1040.4</ele>
        <time>2022-08-29T08:26:28Z</time>
      </trkpt>
      <trkpt lat="45.95482" lon="3.6889">
        <ele>1040.2</ele>
        <time>2022-08-29T08:26:29Z</time>
      </trkpt>
      <trkpt lat="45.95484" lon="3.6889">
        <ele>1039.9</ele>
        <time>2022-08-29T08:26:30Z</time>
      </trkpt>
      <trkpt lat="45.95485" lon="3.6889">
        <ele>1039.7</ele>
        <time>2022-08-29T08:26:31Z</time>
      </trkpt>
      <trkpt lat="45.95487" lon="3.68891">
        <ele>1039.4</ele>
        <time>2022-08-29T08:26:32Z</time>
      </trkpt>
      <trkpt lat="45.95488" lon="3.68892">
        <ele>1039.2</ele>
        <time>2022-08-29T08:26:33Z</time>
      </trkpt>
      <trkpt lat="45.95488" lon="3.68892">
        <ele>1039.1</ele>
        <time>2022-08-29T08:26:34Z</time>
      </trkpt>
      <trkpt lat="45.9549" lon="3.68894">
        <ele>1038.8</ele>
        <time>2022-08-29T08:26:35Z</time>
      </trkpt>
      <trkpt lat="45.95491" lon="3.68894">
        <ele>1038.6</ele>
        <time>2022-08-29T08:26:36Z</time>
      </trkpt>
      <trkpt lat="45.95493" lon="3.68895">
        <ele>1038.3</ele>
        <time>2022-08-29T08:26:37Z</time>
      </trkpt>
      <trkpt lat="45.95494" lon="3.68896">
        <ele>1038.1</ele>
        <time>2022-08-29T08:26:38Z</time>
      </trkpt>
      <trkpt lat="45.95496" lon="3.68897">
        <ele>1037.9</ele>
        <time>2022-08-29T08:26:39Z</time>
      </trkpt>
      <trkpt lat="45.95497" lon="3.68898">
        <ele>1037.6</ele>
        <time>2022-08-29T08:26:40Z</time>
      </trkpt>
      <trkpt lat="45.95499" lon="3.68899">
        <ele>1037.3</ele>
        <time>2022-08-29T08:26:41Z</time>
      </trkpt>
      <trkpt lat="45.955" lon="3.689">
        <ele>1037.2</ele>
        <time>2022-08-29T08:26:42Z</time>
      </trkpt>
      <trkpt lat="45.955" lon="3.689">
        <ele>1037.1</ele>
        <time>2022-08-29T08:26:43Z</time>
      </trkpt>
      <trkpt lat="45.95501" lon="3.68901">
        <ele>1036.9</ele>
        <time>2022-08-29T08:26:44Z</time>
      </trkpt>
      <trkpt lat="45.95502" lon="3.68902">
        <ele>1036.8</ele>
        <time>2022-08-29T08:26:45Z</time>
      </trkpt>
      <trkpt lat="45.95503" lon="3.68903">
        <ele>1036.6</ele>
        <time>2022-08-29T08:26:46Z</time>
      </trkpt>
      <trkpt lat="45.95505" lon="3.68904">
        <ele>1036.4</ele>
        <time>2022-08-29T08:26:47Z</time>
      </trkpt>
      <trkpt lat="45.95506" lon="3.68904">
        <ele>1036.3</ele>
        <time>2022-08-29T08:26:48Z</time>
      </trkpt>
      <trkpt lat="45.95507" lon="3.68905">
        <ele>1036.1</ele>
        <time>2022-08-29T08:26:49Z</time>
      </trkpt>
      <trkpt lat="45.95508" lon="3.68906">
        <ele>1036</ele>
        <time>2022-08-29T08:26:50Z</time>
      </trkpt>
      <trkpt lat="45.95509" lon="3.68906">
        <ele>1035.9</ele>
        <time>2022-08-29T08:26:51Z</time>
      </trkpt>
      <trkpt lat="45.95511" lon="3.68907">
        <ele>1035.6</ele>
        <time>2022-08-29T08:26:52Z</time>
      </trkpt>
      <trkpt lat="45.95512" lon="3.68908">
        <ele>1035.5</ele>
        <time>2022-08-29T08:26:53Z</time>
      </trkpt>
      <trkpt lat="45.95513" lon="3.68908">
        <ele>1035.4</ele>
        <time>2022-08-29T08:26:54Z</time>
      </trkpt>
      <trkpt lat="45.95514" lon="3.68909">
        <ele>1035.2</ele>
        <time>2022-08-29T08:26:55Z</time>
      </trkpt>
      <trkpt lat="45.95515" lon="3.68909">
        <ele>1035.2</ele>
        <time>2022-08-29T08:26:56Z</time>
      </trkpt>
      <trkpt lat="45.95516" lon="3.68909">
        <ele>1035.1</ele>
        <time>2022-08-29T08:26:57Z</time>
      </trkpt>
      <trkpt lat="45.95516" lon="3.68909">
        <ele>1035</ele>
        <time>2022-08-29T08:26:58Z</time>
      </trkpt>
      <trkpt lat="45.95517" lon="3.68909">
        <ele>1034.9</ele>
        <time>2022-08-29T08:26:59Z</time>
      </trkpt>
      <trkpt lat="45.95518" lon="3.68908">
        <ele>1034.8</ele>
        <time>2022-08-29T08:27:00Z</time>
      </trkpt>
      <trkpt lat="45.95518" lon="3.68908">
        <ele>1034.8</ele>
        <time>2022-08-29T08:27:01Z</time>
      </trkpt>
      <trkpt lat="45.95518" lon="3.68908">
        <ele>1034.7</ele>
        <time>2022-08-29T08:27:02Z</time>
      </trkpt>
      <trkpt lat="45.95519" lon="3.68908">
        <ele>1034.7</ele>
        <time>2022-08-29T08:27:03Z</time>
      </trkpt>
      <trkpt lat="45.9552" lon="3.68908">
        <ele>1034.5</ele>
        <time>2022-08-29T08:27:04Z</time>
      </trkpt>
      <trkpt lat="45.95522" lon="3.68908">
        <ele>1034.3</ele>
        <time>2022-08-29T08:27:05Z</time>
      </trkpt>
      <trkpt lat="45.95522" lon="3.68908">
        <ele>1034.2</ele>
        <time>2022-08-29T08:27:06Z</time>
      </trkpt>
      <trkpt lat="45.95523" lon="3.68908">
        <ele>1034.2</ele>
        <time>2022-08-29T08:27:07Z</time>
      </trkpt>
      <trkpt lat="45.95523" lon="3.68908">
        <ele>1034.1</ele>
        <time>2022-08-29T08:27:08Z</time>
      </trkpt>
      <trkpt lat="45.95524" lon="3.68909">
        <ele>1034</ele>
        <time>2022-08-29T08:27:09Z</time>
      </trkpt>
      <trkpt lat="45.95525" lon="3.68909">
        <ele>1033.9</ele>
        <time>2022-08-29T08:27:10Z</time>
      </trkpt>
      <trkpt lat="45.95526" lon="3.6891">
        <ele>1033.7</ele>
        <time>2022-08-29T08:27:11Z</time>
      </trkpt>
      <trkpt lat="45.95526" lon="3.68911">
        <ele>1033.6</ele>
        <time>2022-08-29T08:27:12Z</time>
      </trkpt>
      <trkpt lat="45.95527" lon="3.68912">
        <ele>1033.4</ele>
        <time>2022-08-29T08:27:13Z</time>
      </trkpt>
      <trkpt lat="45.95528" lon="3.68913">
        <ele>1033.2</ele>
        <time>2022-08-29T08:27:14Z</time>
      </trkpt>
      <trkpt lat="45.95529" lon="3.68914">
        <ele>1033.1</ele>
        <time>2022-08-29T08:27:15Z</time>
      </trkpt>
      <trkpt lat="45.9553" lon="3.68915">
        <ele>1032.9</ele>
        <time>2022-08-29T08:27:16Z</time>
      </trkpt>
      <trkpt lat="45.95531" lon="3.68915">
        <ele>1032.7</ele>
        <time>2022-08-29T08:27:17Z</time>
      </trkpt>
      <trkpt lat="45.95531" lon="3.68916">
        <ele>1032.6</ele>
        <time>2022-08-29T08:27:18Z</time>
      </trkpt>
      <trkpt lat="45.95532" lon="3.68917">
        <ele>1032.4</ele>
        <time>2022-08-29T08:27:19Z</time>
      </trkpt>
      <trkpt lat="45.95534" lon="3.68918">
        <ele>1032.1</ele>
        <time>2022-08-29T08:27:20Z</time>
      </trkpt>
      <trkpt lat="45.95535" lon="3.68918">
        <ele>1031.9</ele>
        <time>2022-08-29T08:27:21Z</time>
      </trkpt>
      <trkpt lat="45.95535" lon="3.68919">
        <ele>1031.8</ele>
        <time>2022-08-29T08:27:22Z</time>
      </trkpt>
      <trkpt lat="45.95536" lon="3.6892">
        <ele>1031.6</ele>
        <time>2022-08-29T08:27:23Z</time>
      </trkpt>
      <trkpt lat="45.95537" lon="3.68921">
        <ele>1031.4</ele>
        <time>2022-08-29T08:27:24Z</time>
      </trkpt>
      <trkpt lat="45.95537" lon="3.68923">
        <ele>1031.2</ele>
        <time>2022-08-29T08:27:25Z</time>
      </trkpt>
      <trkpt lat="45.95539" lon="3.68924">
        <ele>1030.9</ele>
        <time>2022-08-29T08:27:26Z</time>
      </trkpt>
      <trkpt lat="45.9554" lon="3.68926">
        <ele>1030.6</ele>
        <time>2022-08-29T08:27:27Z</time>
      </trkpt>
      <trkpt lat="45.95541" lon="3.68927">
        <ele>1030.3</ele>
        <time>2022-08-29T08:27:28Z</time>
      </trkpt>
      <trkpt lat="45.95542" lon="3.68928">
        <ele>1030.1</ele>
        <time>2022-08-29T08:27:29Z</time>
      </trkpt>
      <trkpt lat="45.95544" lon="3.68931">
        <ele>1029.7</ele>
        <time>2022-08-29T08:27:30Z</time>
      </trkpt>
      <trkpt lat="45.95545" lon="3.68932">
        <ele>1029.4</ele>
        <time>2022-08-29T08:27:31Z</time>
      </trkpt>
      <trkpt lat="45.95546" lon="3.68933">
        <ele>1029.2</ele>
        <time>2022-08-29T08:27:32Z</time>
      </trkpt>
      <trkpt lat="45.95548" lon="3.68935">
        <ele>1028.7</ele>
        <time>2022-08-29T08:27:33Z</time>
      </trkpt>
      <trkpt lat="45.95549" lon="3.68936">
        <ele>1028.5</ele>
        <time>2022-08-29T08:27:34Z</time>
      </trkpt>
      <trkpt lat="45.9555" lon="3.68937">
        <ele>1028.2</ele>
        <time>2022-08-29T08:27:35Z</time>
      </trkpt>
      <trkpt lat="45.95552" lon="3.68937">
        <ele>1027.9</ele>
        <time>2022-08-29T08:27:36Z</time>
      </trkpt>
      <trkpt lat="45.95553" lon="3.68937">
        <ele>1027.7</ele>
        <time>2022-08-29T08:27:37Z</time>
      </trkpt>
      <trkpt lat="45.95554" lon="3.68937">
        <ele>1027.5</ele>
        <time>2022-08-29T08:27:38Z</time>
      </trkpt>
      <trkpt lat="45.95555" lon="3.68937">
        <ele>1027.4</ele>
        <time>2022-08-29T08:27:39Z</time>
      </trkpt>
      <trkpt lat="45.95555" lon="3.68938">
        <ele>1027.2</ele>
        <time>2022-08-29T08:27:40Z</time>
      </trkpt>
      <trkpt lat="45.95556" lon="3.68938">
        <ele>1027.1</ele>
        <time>2022-08-29T08:27:41Z</time>
      </trkpt>
      <trkpt lat="45.95557" lon="3.68939">
        <ele>1026.9</ele>
        <time>2022-08-29T08:27:42Z</time>
      </trkpt>
      <trkpt lat="45.95559" lon="3.68941">
        <ele>1026.6</ele>
        <time>2022-08-29T08:27:43Z</time>
      </trkpt>
      <trkpt lat="45.9556" lon="3.68942">
        <ele>1026.5</ele>
        <time>2022-08-29T08:27:44Z</time>
      </trkpt>
      <trkpt lat="45.9556" lon="3.68943">
        <ele>1026.3</ele>
        <time>2022-08-29T08:27:45Z</time>
      </trkpt>
      <trkpt lat="45.95561" lon="3.68944">
        <ele>1026.2</ele>
        <time>2022-08-29T08:27:46Z</time>
      </trkpt>
      <trkpt lat="45.95562" lon="3.68945">
        <ele>1026.1</ele>
        <time>2022-08-29T08:27:47Z</time>
      </trkpt>
      <trkpt lat="45.95563" lon="3.68946">
        <ele>1025.9</ele>
        <time>2022-08-29T08:27:48Z</time>
      </trkpt>
      <trkpt lat="45.95564" lon="3.68947">
        <ele>1025.7</ele>
        <time>2022-08-29T08:27:49Z</time>
      </trkpt>
      <trkpt lat="45.95565" lon="3.68948">
        <ele>1025.6</ele>
        <time>2022-08-29T08:27:50Z</time>
      </trkpt>
      <trkpt lat="45.95565" lon="3.68948">
        <ele>1025.4</ele>
        <time>2022-08-29T08:27:51Z</time>
      </trkpt>
      <trkpt lat="45.95567" lon="3.6895">
        <ele>1025.1</ele>
        <time>2022-08-29T08:27:52Z</time>
      </trkpt>
      <trkpt lat="45.95568" lon="3.68951">
        <ele>1024.9</ele>
        <time>2022-08-29T08:27:53Z</time>
      </trkpt>
      <trkpt lat="45.95569" lon="3.68951">
        <ele>1024.8</ele>
        <time>2022-08-29T08:27:54Z</time>
      </trkpt>
      <trkpt lat="45.95573" lon="3.68954">
        <ele>1024.2</ele>
        <time>2022-08-29T08:27:55Z</time>
      </trkpt>
      <trkpt lat="45.95574" lon="3.68954">
        <ele>1024</ele>
        <time>2022-08-29T08:27:56Z</time>
      </trkpt>
      <trkpt lat="45.95577" lon="3.68957">
        <ele>1023.4</ele>
        <time>2022-08-29T08:27:57Z</time>
      </trkpt>
      <trkpt lat="45.95578" lon="3.68957">
        <ele>1023.2</ele>
        <time>2022-08-29T08:27:58Z</time>
      </trkpt>
      <trkpt lat="45.95581" lon="3.6896">
        <ele>1022.6</ele>
        <time>2022-08-29T08:27:59Z</time>
      </trkpt>
      <trkpt lat="45.95583" lon="3.6896">
        <ele>1022.4</ele>
        <time>2022-08-29T08:28:00Z</time>
      </trkpt>
      <trkpt lat="45.95584" lon="3.68961">
        <ele>1022.2</ele>
        <time>2022-08-29T08:28:01Z</time>
      </trkpt>
      <trkpt lat="45.95585" lon="3.68962">
        <ele>1022.1</ele>
        <time>2022-08-29T08:28:02Z</time>
      </trkpt>
      <trkpt lat="45.95586" lon="3.68962">
        <ele>1021.9</ele>
        <time>2022-08-29T08:28:03Z</time>
      </trkpt>
      <trkpt lat="45.95587" lon="3.68962">
        <ele>1021.7</ele>
        <time>2022-08-29T08:28:04Z</time>
      </trkpt>
      <trkpt lat="45.95588" lon="3.68962">
        <ele>1021.5</ele>
        <time>2022-08-29T08:28:05Z</time>
      </trkpt>
      <trkpt lat="45.95589" lon="3.68963">
        <ele>1021.4</ele>
        <time>2022-08-29T08:28:06Z</time>
      </trkpt>
      <trkpt lat="45.9559" lon="3.68963">
        <ele>1021.2</ele>
        <time>2022-08-29T08:28:07Z</time>
      </trkpt>
      <trkpt lat="45.95591" lon="3.68963">
        <ele>1021.1</ele>
        <time>2022-08-29T08:28:08Z</time>
      </trkpt>
      <trkpt lat="45.95591" lon="3.68963">
        <ele>1021</ele>
        <time>2022-08-29T08:28:09Z</time>
      </trkpt>
      <trkpt lat="45.95592" lon="3.68963">
        <ele>1020.9</ele>
        <time>2022-08-29T08:28:10Z</time>
      </trkpt>
      <trkpt lat="45.95592" lon="3.68963">
        <ele>1020.9</ele>
        <time>2022-08-29T08:28:11Z</time>
      </trkpt>
      <trkpt lat="45.95593" lon="3.68963">
        <ele>1020.8</ele>
        <time>2022-08-29T08:28:12Z</time>
      </trkpt>
      <trkpt lat="45.95593" lon="3.68963">
        <ele>1020.7</ele>
        <time>2022-08-29T08:28:13Z</time>
      </trkpt>
      <trkpt lat="45.95594" lon="3.68963">
        <ele>1020.7</ele>
        <time>2022-08-29T08:28:14Z</time>
      </trkpt>
      <trkpt lat="45.95594" lon="3.68963">
        <ele>1020.6</ele>
        <time>2022-08-29T08:28:15Z</time>
      </trkpt>
      <trkpt lat="45.95594" lon="3.68964">
        <ele>1020.6</ele>
        <time>2022-08-29T08:28:16Z</time>
      </trkpt>
      <trkpt lat="45.95594" lon="3.68964">
        <ele>1020.5</ele>
        <time>2022-08-29T08:28:17Z</time>
      </trkpt>
      <trkpt lat="45.95595" lon="3.68964">
        <ele>1020.5</ele>
        <time>2022-08-29T08:28:18Z</time>
      </trkpt>
      <trkpt lat="45.95595" lon="3.68964">
        <ele>1020.4</ele>
        <time>2022-08-29T08:28:19Z</time>
      </trkpt>
      <trkpt lat="45.95596" lon="3.68964">
        <ele>1020.4</ele>
        <time>2022-08-29T08:28:20Z</time>
      </trkpt>
      <trkpt lat="45.95596" lon="3.68964">
        <ele>1020.3</ele>
        <time>2022-08-29T08:28:21Z</time>
      </trkpt>
      <trkpt lat="45.95597" lon="3.68963">
        <ele>1020.2</ele>
        <time>2022-08-29T08:28:22Z</time>
      </trkpt>
      <trkpt lat="45.95598" lon="3.68963">
        <ele>1020.1</ele>
        <time>2022-08-29T08:28:23Z</time>
      </trkpt>
      <trkpt lat="45.95598" lon="3.68963">
        <ele>1020</ele>
        <time>2022-08-29T08:28:24Z</time>
      </trkpt>
      <trkpt lat="45.95599" lon="3.68962">
        <ele>1019.9</ele>
        <time>2022-08-29T08:28:25Z</time>
      </trkpt>
      <trkpt lat="45.95601" lon="3.68962">
        <ele>1019.8</ele>
        <time>2022-08-29T08:28:26Z</time>
      </trkpt>
      <trkpt lat="45.95602" lon="3.68962">
        <ele>1019.6</ele>
        <time>2022-08-29T08:28:27Z</time>
      </trkpt>
      <trkpt lat="45.95603" lon="3.68962">
        <ele>1019.4</ele>
        <time>2022-08-29T08:28:28Z</time>
      </trkpt>
      <trkpt lat="45.95605" lon="3.68962">
        <ele>1019.3</ele>
        <time>2022-08-29T08:28:29Z</time>
      </trkpt>
      <trkpt lat="45.95606" lon="3.68962">
        <ele>1019.1</ele>
        <time>2022-08-29T08:28:30Z</time>
      </trkpt>
      <trkpt lat="45.95608" lon="3.68962">
        <ele>1018.9</ele>
        <time>2022-08-29T08:28:31Z</time>
      </trkpt>
      <trkpt lat="45.95609" lon="3.68963">
        <ele>1018.8</ele>
        <time>2022-08-29T08:28:32Z</time>
      </trkpt>
      <trkpt lat="45.9561" lon="3.68964">
        <ele>1018.6</ele>
        <time>2022-08-29T08:28:33Z</time>
      </trkpt>
      <trkpt lat="45.95612" lon="3.68964">
        <ele>1018.4</ele>
        <time>2022-08-29T08:28:34Z</time>
      </trkpt>
      <trkpt lat="45.95613" lon="3.68965">
        <ele>1018.3</ele>
        <time>2022-08-29T08:28:35Z</time>
      </trkpt>
      <trkpt lat="45.95614" lon="3.68965">
        <ele>1018.2</ele>
        <time>2022-08-29T08:28:36Z</time>
      </trkpt>
      <trkpt lat="45.95615" lon="3.68965">
        <ele>1018</ele>
        <time>2022-08-29T08:28:37Z</time>
      </trkpt>
      <trkpt lat="45.95616" lon="3.68965">
        <ele>1017.9</ele>
        <time>2022-08-29T08:28:38Z</time>
      </trkpt>
      <trkpt lat="45.95616" lon="3.68964">
        <ele>1017.8</ele>
        <time>2022-08-29T08:28:39Z</time>
      </trkpt>
      <trkpt lat="45.95617" lon="3.68964">
        <ele>1017.8</ele>
        <time>2022-08-29T08:28:40Z</time>
      </trkpt>
      <trkpt lat="45.95618" lon="3.68963">
        <ele>1017.7</ele>
        <time>2022-08-29T08:28:41Z</time>
      </trkpt>
      <trkpt lat="45.95618" lon="3.68963">
        <ele>1017.6</ele>
        <time>2022-08-29T08:28:42Z</time>
      </trkpt>
      <trkpt lat="45.95619" lon="3.68963">
        <ele>1017.5</ele>
        <time>2022-08-29T08:28:43Z</time>
      </trkpt>
      <trkpt lat="45.9562" lon="3.68963">
        <ele>1017.5</ele>
        <time>2022-08-29T08:28:44Z</time>
      </trkpt>
      <trkpt lat="45.9562" lon="3.68962">
        <ele>1017.4</ele>
        <time>2022-08-29T08:28:45Z</time>
      </trkpt>
      <trkpt lat="45.95621" lon="3.68962">
        <ele>1017.4</ele>
        <time>2022-08-29T08:28:46Z</time>
      </trkpt>
      <trkpt lat="45.95621" lon="3.68962">
        <ele>1017.3</ele>
        <time>2022-08-29T08:28:47Z</time>
      </trkpt>
      <trkpt lat="45.95621" lon="3.68962">
        <ele>1017.3</ele>
        <time>2022-08-29T08:28:48Z</time>
      </trkpt>
      <trkpt lat="45.95621" lon="3.68961">
        <ele>1017.2</ele>
        <time>2022-08-29T08:28:49Z</time>
      </trkpt>
      <trkpt lat="45.95621" lon="3.68961">
        <ele>1017.2</ele>
        <time>2022-08-29T08:28:50Z</time>
      </trkpt>
      <trkpt lat="45.95621" lon="3.68961">
        <ele>1017.2</ele>
        <time>2022-08-29T08:28:51Z</time>
      </trkpt>
      <trkpt lat="45.95621" lon="3.6896">
        <ele>1017.1</ele>
        <time>2022-08-29T08:28:52Z</time>
      </trkpt>
      <trkpt lat="45.95621" lon="3.6896">
        <ele>1017.1</ele>
        <time>2022-08-29T08:28:53Z</time>
      </trkpt>
      <trkpt lat="45.95622" lon="3.6896">
        <ele>1017.1</ele>
        <time>2022-08-29T08:28:54Z</time>
      </trkpt>
      <trkpt lat="45.95622" lon="3.6896">
        <ele>1017.1</ele>
        <time>2022-08-29T08:28:55Z</time>
      </trkpt>
      <trkpt lat="45.95622" lon="3.6896">
        <ele>1017.1</ele>
        <time>2022-08-29T08:28:56Z</time>
      </trkpt>
      <trkpt lat="45.95622" lon="3.6896">
        <ele>1017</ele>
        <time>2022-08-29T08:28:57Z</time>
      </trkpt>
      <trkpt lat="45.95622" lon="3.6896">
        <ele>1017</ele>
        <time>2022-08-29T08:28:58Z</time>
      </trkpt>
      <trkpt lat="45.95622" lon="3.6896">
        <ele>1017</ele>
        <time>2022-08-29T08:28:59Z</time>
      </trkpt>
      <trkpt lat="45.95622" lon="3.6896">
        <ele>1017</ele>
        <time>2022-08-29T08:29:00Z</time>
      </trkpt>
      <trkpt lat="45.95623" lon="3.6896">
        <ele>1016.9</ele>
        <time>2022-08-29T08:29:01Z</time>
      </trkpt>
      <trkpt lat="45.95623" lon="3.6896">
        <ele>1016.9</ele>
        <time>2022-08-29T08:29:02Z</time>
      </trkpt>
      <trkpt lat="45.95623" lon="3.6896">
        <ele>1016.9</ele>
        <time>2022-08-29T08:29:03Z</time>
      </trkpt>
      <trkpt lat="45.95623" lon="3.6896">
        <ele>1016.9</ele>
        <time>2022-08-29T08:29:04Z</time>
      </trkpt>
      <trkpt lat="45.95625" lon="3.68961">
        <ele>1016.7</ele>
        <time>2022-08-29T08:29:05Z</time>
      </trkpt>
      <trkpt lat="45.95625" lon="3.68961">
        <ele>1016.6</ele>
        <time>2022-08-29T08:29:06Z</time>
      </trkpt>
      <trkpt lat="45.95626" lon="3.68962">
        <ele>1016.5</ele>
        <time>2022-08-29T08:29:07Z</time>
      </trkpt>
      <trkpt lat="45.95627" lon="3.68962">
        <ele>1016.4</ele>
        <time>2022-08-29T08:29:08Z</time>
      </trkpt>
      <trkpt lat="45.9563" lon="3.68964">
        <ele>1016.1</ele>
        <time>2022-08-29T08:29:09Z</time>
      </trkpt>
      <trkpt lat="45.95631" lon="3.68965">
        <ele>1015.9</ele>
        <time>2022-08-29T08:29:10Z</time>
      </trkpt>
      <trkpt lat="45.95633" lon="3.68966">
        <ele>1015.7</ele>
        <time>2022-08-29T08:29:11Z</time>
      </trkpt>
      <trkpt lat="45.95634" lon="3.68967">
        <ele>1015.5</ele>
        <time>2022-08-29T08:29:12Z</time>
      </trkpt>
      <trkpt lat="45.95635" lon="3.68967">
        <ele>1015.4</ele>
        <time>2022-08-29T08:29:13Z</time>
      </trkpt>
      <trkpt lat="45.95636" lon="3.68969">
        <ele>1015.1</ele>
        <time>2022-08-29T08:29:14Z</time>
      </trkpt>
      <trkpt lat="45.95638" lon="3.6897">
        <ele>1014.9</ele>
        <time>2022-08-29T08:29:15Z</time>
      </trkpt>
      <trkpt lat="45.95639" lon="3.68971">
        <ele>1014.7</ele>
        <time>2022-08-29T08:29:16Z</time>
      </trkpt>
      <trkpt lat="45.9564" lon="3.68972">
        <ele>1014.5</ele>
        <time>2022-08-29T08:29:17Z</time>
      </trkpt>
      <trkpt lat="45.95642" lon="3.68973">
        <ele>1014.3</ele>
        <time>2022-08-29T08:29:18Z</time>
      </trkpt>
      <trkpt lat="45.95643" lon="3.68975">
        <ele>1014.1</ele>
        <time>2022-08-29T08:29:19Z</time>
      </trkpt>
      <trkpt lat="45.95644" lon="3.68976">
        <ele>1013.9</ele>
        <time>2022-08-29T08:29:20Z</time>
      </trkpt>
      <trkpt lat="45.95645" lon="3.68977">
        <ele>1013.7</ele>
        <time>2022-08-29T08:29:21Z</time>
      </trkpt>
      <trkpt lat="45.95647" lon="3.6898">
        <ele>1013.4</ele>
        <time>2022-08-29T08:29:22Z</time>
      </trkpt>
      <trkpt lat="45.95648" lon="3.68981">
        <ele>1013.3</ele>
        <time>2022-08-29T08:29:23Z</time>
      </trkpt>
      <trkpt lat="45.9565" lon="3.68984">
        <ele>1013</ele>
        <time>2022-08-29T08:29:24Z</time>
      </trkpt>
      <trkpt lat="45.95651" lon="3.68985">
        <ele>1012.9</ele>
        <time>2022-08-29T08:29:25Z</time>
      </trkpt>
      <trkpt lat="45.95653" lon="3.68988">
        <ele>1012.6</ele>
        <time>2022-08-29T08:29:26Z</time>
      </trkpt>
      <trkpt lat="45.95654" lon="3.68989">
        <ele>1012.6</ele>
        <time>2022-08-29T08:29:27Z</time>
      </trkpt>
      <trkpt lat="45.95656" lon="3.68991">
        <ele>1012.4</ele>
        <time>2022-08-29T08:29:28Z</time>
      </trkpt>
      <trkpt lat="45.95657" lon="3.68992">
        <ele>1012.3</ele>
        <time>2022-08-29T08:29:29Z</time>
      </trkpt>
      <trkpt lat="45.95658" lon="3.68994">
        <ele>1012.2</ele>
        <time>2022-08-29T08:29:30Z</time>
      </trkpt>
      <trkpt lat="45.9566" lon="3.68995">
        <ele>1012.2</ele>
        <time>2022-08-29T08:29:31Z</time>
      </trkpt>
      <trkpt lat="45.95661" lon="3.68997">
        <ele>1012.1</ele>
        <time>2022-08-29T08:29:32Z</time>
      </trkpt>
      <trkpt lat="45.95662" lon="3.68998">
        <ele>1012</ele>
        <time>2022-08-29T08:29:33Z</time>
      </trkpt>
      <trkpt lat="45.95663" lon="3.68999">
        <ele>1012</ele>
        <time>2022-08-29T08:29:34Z</time>
      </trkpt>
      <trkpt lat="45.95665" lon="3.69001">
        <ele>1011.9</ele>
        <time>2022-08-29T08:29:35Z</time>
      </trkpt>
      <trkpt lat="45.95667" lon="3.69003">
        <ele>1011.8</ele>
        <time>2022-08-29T08:29:36Z</time>
      </trkpt>
      <trkpt lat="45.95668" lon="3.69004">
        <ele>1011.8</ele>
        <time>2022-08-29T08:29:37Z</time>
      </trkpt>
      <trkpt lat="45.95671" lon="3.69007">
        <ele>1011.7</ele>
        <time>2022-08-29T08:29:39Z</time>
      </trkpt>
      <trkpt lat="45.95672" lon="3.69008">
        <ele>1011.7</ele>
        <time>2022-08-29T08:29:40Z</time>
      </trkpt>
      <trkpt lat="45.95672" lon="3.69009">
        <ele>1011.7</ele>
        <time>2022-08-29T08:29:41Z</time>
      </trkpt>
      <trkpt lat="45.95673" lon="3.6901">
        <ele>1011.7</ele>
        <time>2022-08-29T08:29:42Z</time>
      </trkpt>
      <trkpt lat="45.95674" lon="3.69013">
        <ele>1011.6</ele>
        <time>2022-08-29T08:29:43Z</time>
      </trkpt>
      <trkpt lat="45.95675" lon="3.69014">
        <ele>1011.6</ele>
        <time>2022-08-29T08:29:44Z</time>
      </trkpt>
      <trkpt lat="45.95675" lon="3.69015">
        <ele>1011.6</ele>
        <time>2022-08-29T08:29:45Z</time>
      </trkpt>
      <trkpt lat="45.95676" lon="3.69015">
        <ele>1011.6</ele>
        <time>2022-08-29T08:29:46Z</time>
      </trkpt>
      <trkpt lat="45.95676" lon="3.69017">
        <ele>1011.6</ele>
        <time>2022-08-29T08:29:47Z</time>
      </trkpt>
      <trkpt lat="45.95677" lon="3.69018">
        <ele>1011.6</ele>
        <time>2022-08-29T08:29:48Z</time>
      </trkpt>
      <trkpt lat="45.95678" lon="3.69019">
        <ele>1011.6</ele>
        <time>2022-08-29T08:29:49Z</time>
      </trkpt>
      <trkpt lat="45.95679" lon="3.69021">
        <ele>1011.6</ele>
        <time>2022-08-29T08:29:50Z</time>
      </trkpt>
      <trkpt lat="45.9568" lon="3.69022">
        <ele>1011.6</ele>
        <time>2022-08-29T08:29:51Z</time>
      </trkpt>
      <trkpt lat="45.95681" lon="3.69024">
        <ele>1011.6</ele>
        <time>2022-08-29T08:29:52Z</time>
      </trkpt>
      <trkpt lat="45.95683" lon="3.69026">
        <ele>1011.6</ele>
        <time>2022-08-29T08:29:53Z</time>
      </trkpt>
      <trkpt lat="45.95684" lon="3.69027">
        <ele>1011.6</ele>
        <time>2022-08-29T08:29:54Z</time>
      </trkpt>
      <trkpt lat="45.95686" lon="3.69029">
        <ele>1011.6</ele>
        <time>2022-08-29T08:29:55Z</time>
      </trkpt>
      <trkpt lat="45.95687" lon="3.6903">
        <ele>1011.6</ele>
        <time>2022-08-29T08:29:56Z</time>
      </trkpt>
      <trkpt lat="45.95688" lon="3.69032">
        <ele>1011.6</ele>
        <time>2022-08-29T08:29:57Z</time>
      </trkpt>
      <trkpt lat="45.95689" lon="3.69034">
        <ele>1011.6</ele>
        <time>2022-08-29T08:29:58Z</time>
      </trkpt>
      <trkpt lat="45.95692" lon="3.69036">
        <ele>1011.6</ele>
        <time>2022-08-29T08:29:59Z</time>
      </trkpt>
      <trkpt lat="45.95692" lon="3.69037">
        <ele>1011.6</ele>
        <time>2022-08-29T08:30:00Z</time>
      </trkpt>
      <trkpt lat="45.95694" lon="3.69039">
        <ele>1011.6</ele>
        <time>2022-08-29T08:30:01Z</time>
      </trkpt>
      <trkpt lat="45.95695" lon="3.6904">
        <ele>1011.6</ele>
        <time>2022-08-29T08:30:02Z</time>
      </trkpt>
      <trkpt lat="45.95696" lon="3.69042">
        <ele>1011.6</ele>
        <time>2022-08-29T08:30:03Z</time>
      </trkpt>
      <trkpt lat="45.95697" lon="3.69043">
        <ele>1011.6</ele>
        <time>2022-08-29T08:30:04Z</time>
      </trkpt>
      <trkpt lat="45.95698" lon="3.69045">
        <ele>1011.6</ele>
        <time>2022-08-29T08:30:05Z</time>
      </trkpt>
      <trkpt lat="45.95699" lon="3.69046">
        <ele>1011.6</ele>
        <time>2022-08-29T08:30:06Z</time>
      </trkpt>
      <trkpt lat="45.95701" lon="3.69048">
        <ele>1011.5</ele>
        <time>2022-08-29T08:30:07Z</time>
      </trkpt>
      <trkpt lat="45.95702" lon="3.69049">
        <ele>1011.5</ele>
        <time>2022-08-29T08:30:08Z</time>
      </trkpt>
      <trkpt lat="45.95705" lon="3.69051">
        <ele>1011.5</ele>
        <time>2022-08-29T08:30:09Z</time>
      </trkpt>
      <trkpt lat="45.95707" lon="3.69051">
        <ele>1011.4</ele>
        <time>2022-08-29T08:30:10Z</time>
      </trkpt>
      <trkpt lat="45.9571" lon="3.69054">
        <ele>1011.4</ele>
        <time>2022-08-29T08:30:11Z</time>
      </trkpt>
      <trkpt lat="45.95711" lon="3.69054">
        <ele>1011.4</ele>
        <time>2022-08-29T08:30:12Z</time>
      </trkpt>
      <trkpt lat="45.95714" lon="3.69057">
        <ele>1011.3</ele>
        <time>2022-08-29T08:30:13Z</time>
      </trkpt>
      <trkpt lat="45.95715" lon="3.69058">
        <ele>1011.3</ele>
        <time>2022-08-29T08:30:14Z</time>
      </trkpt>
      <trkpt lat="45.95717" lon="3.6906">
        <ele>1011.3</ele>
        <time>2022-08-29T08:30:15Z</time>
      </trkpt>
      <trkpt lat="45.95718" lon="3.69061">
        <ele>1011.3</ele>
        <time>2022-08-29T08:30:16Z</time>
      </trkpt>
      <trkpt lat="45.95719" lon="3.69062">
        <ele>1011.4</ele>
        <time>2022-08-29T08:30:17Z</time>
      </trkpt>
      <trkpt lat="45.9572" lon="3.69063">
        <ele>1011.4</ele>
        <time>2022-08-29T08:30:18Z</time>
      </trkpt>
      <trkpt lat="45.95721" lon="3.69063">
        <ele>1011.4</ele>
        <time>2022-08-29T08:30:19Z</time>
      </trkpt>
      <trkpt lat="45.95722" lon="3.69065">
        <ele>1011.4</ele>
        <time>2022-08-29T08:30:20Z</time>
      </trkpt>
      <trkpt lat="45.95723" lon="3.69065">
        <ele>1011.5</ele>
        <time>2022-08-29T08:30:21Z</time>
      </trkpt>
      <trkpt lat="45.95724" lon="3.69066">
        <ele>1011.5</ele>
        <time>2022-08-29T08:30:22Z</time>
      </trkpt>
      <trkpt lat="45.95726" lon="3.69066">
        <ele>1011.6</ele>
        <time>2022-08-29T08:30:23Z</time>
      </trkpt>
      <trkpt lat="45.95727" lon="3.69067">
        <ele>1011.6</ele>
        <time>2022-08-29T08:30:24Z</time>
      </trkpt>
      <trkpt lat="45.95729" lon="3.69067">
        <ele>1011.7</ele>
        <time>2022-08-29T08:30:25Z</time>
      </trkpt>
      <trkpt lat="45.9573" lon="3.69068">
        <ele>1011.7</ele>
        <time>2022-08-29T08:30:26Z</time>
      </trkpt>
      <trkpt lat="45.95731" lon="3.69068">
        <ele>1011.8</ele>
        <time>2022-08-29T08:30:27Z</time>
      </trkpt>
      <trkpt lat="45.95732" lon="3.69069">
        <ele>1011.8</ele>
        <time>2022-08-29T08:30:28Z</time>
      </trkpt>
      <trkpt lat="45.95733" lon="3.69069">
        <ele>1011.9</ele>
        <time>2022-08-29T08:30:29Z</time>
      </trkpt>
      <trkpt lat="45.95734" lon="3.69069">
        <ele>1011.9</ele>
        <time>2022-08-29T08:30:30Z</time>
      </trkpt>
      <trkpt lat="45.95735" lon="3.6907">
        <ele>1011.9</ele>
        <time>2022-08-29T08:30:31Z</time>
      </trkpt>
      <trkpt lat="45.95735" lon="3.69071">
        <ele>1012</ele>
        <time>2022-08-29T08:30:32Z</time>
      </trkpt>
      <trkpt lat="45.95736" lon="3.69072">
        <ele>1012</ele>
        <time>2022-08-29T08:30:33Z</time>
      </trkpt>
      <trkpt lat="45.95738" lon="3.69073">
        <ele>1012.1</ele>
        <time>2022-08-29T08:30:34Z</time>
      </trkpt>
      <trkpt lat="45.95739" lon="3.69074">
        <ele>1012.2</ele>
        <time>2022-08-29T08:30:35Z</time>
      </trkpt>
      <trkpt lat="45.9574" lon="3.69074">
        <ele>1012.2</ele>
        <time>2022-08-29T08:30:36Z</time>
      </trkpt>
      <trkpt lat="45.95743" lon="3.69075">
        <ele>1012.3</ele>
        <time>2022-08-29T08:30:37Z</time>
      </trkpt>
      <trkpt lat="45.95744" lon="3.69076">
        <ele>1012.3</ele>
        <time>2022-08-29T08:30:38Z</time>
      </trkpt>
      <trkpt lat="45.95746" lon="3.69077">
        <ele>1012.4</ele>
        <time>2022-08-29T08:30:39Z</time>
      </trkpt>
      <trkpt lat="45.95747" lon="3.69078">
        <ele>1012.4</ele>
        <time>2022-08-29T08:30:40Z</time>
      </trkpt>
      <trkpt lat="45.9575" lon="3.69079">
        <ele>1012.5</ele>
        <time>2022-08-29T08:30:41Z</time>
      </trkpt>
      <trkpt lat="45.95753" lon="3.69082">
        <ele>1012.6</ele>
        <time>2022-08-29T08:30:42Z</time>
      </trkpt>
      <trkpt lat="45.95755" lon="3.69083">
        <ele>1012.7</ele>
        <time>2022-08-29T08:30:43Z</time>
      </trkpt>
      <trkpt lat="45.95758" lon="3.69085">
        <ele>1012.8</ele>
        <time>2022-08-29T08:30:44Z</time>
      </trkpt>
      <trkpt lat="45.9576" lon="3.69087">
        <ele>1013</ele>
        <time>2022-08-29T08:30:45Z</time>
      </trkpt>
      <trkpt lat="45.95763" lon="3.69089">
        <ele>1013.1</ele>
        <time>2022-08-29T08:30:46Z</time>
      </trkpt>
      <trkpt lat="45.95765" lon="3.6909">
        <ele>1013.2</ele>
        <time>2022-08-29T08:30:47Z</time>
      </trkpt>
      <trkpt lat="45.95766" lon="3.6909">
        <ele>1013.3</ele>
        <time>2022-08-29T08:30:48Z</time>
      </trkpt>
      <trkpt lat="45.95767" lon="3.69091">
        <ele>1013.4</ele>
        <time>2022-08-29T08:30:49Z</time>
      </trkpt>
      <trkpt lat="45.95768" lon="3.69091">
        <ele>1013.4</ele>
        <time>2022-08-29T08:30:50Z</time>
      </trkpt>
      <trkpt lat="45.9577" lon="3.69091">
        <ele>1013.5</ele>
        <time>2022-08-29T08:30:51Z</time>
      </trkpt>
      <trkpt lat="45.95771" lon="3.69092">
        <ele>1013.6</ele>
        <time>2022-08-29T08:30:52Z</time>
      </trkpt>
      <trkpt lat="45.95772" lon="3.69092">
        <ele>1013.6</ele>
        <time>2022-08-29T08:30:53Z</time>
      </trkpt>
      <trkpt lat="45.95773" lon="3.69091">
        <ele>1013.7</ele>
        <time>2022-08-29T08:30:54Z</time>
      </trkpt>
      <trkpt lat="45.95774" lon="3.69091">
        <ele>1013.8</ele>
        <time>2022-08-29T08:30:55Z</time>
      </trkpt>
      <trkpt lat="45.95775" lon="3.69091">
        <ele>1013.8</ele>
        <time>2022-08-29T08:30:56Z</time>
      </trkpt>
      <trkpt lat="45.95776" lon="3.69092">
        <ele>1013.9</ele>
        <time>2022-08-29T08:30:57Z</time>
      </trkpt>
      <trkpt lat="45.95777" lon="3.69092">
        <ele>1013.9</ele>
        <time>2022-08-29T08:30:58Z</time>
      </trkpt>
      <trkpt lat="45.95778" lon="3.69093">
        <ele>1014</ele>
        <time>2022-08-29T08:30:59Z</time>
      </trkpt>
      <trkpt lat="45.95779" lon="3.69094">
        <ele>1014</ele>
        <time>2022-08-29T08:31:00Z</time>
      </trkpt>
      <trkpt lat="45.9578" lon="3.69095">
        <ele>1014.1</ele>
        <time>2022-08-29T08:31:01Z</time>
      </trkpt>
      <trkpt lat="45.9578" lon="3.69096">
        <ele>1014.1</ele>
        <time>2022-08-29T08:31:02Z</time>
      </trkpt>
      <trkpt lat="45.95781" lon="3.69096">
        <ele>1014.2</ele>
        <time>2022-08-29T08:31:03Z</time>
      </trkpt>
      <trkpt lat="45.95783" lon="3.69097">
        <ele>1014.2</ele>
        <time>2022-08-29T08:31:04Z</time>
      </trkpt>
      <trkpt lat="45.95784" lon="3.69098">
        <ele>1014.3</ele>
        <time>2022-08-29T08:31:05Z</time>
      </trkpt>
      <trkpt lat="45.95785" lon="3.69098">
        <ele>1014.3</ele>
        <time>2022-08-29T08:31:06Z</time>
      </trkpt>
      <trkpt lat="45.95787" lon="3.69099">
        <ele>1014.4</ele>
        <time>2022-08-29T08:31:07Z</time>
      </trkpt>
      <trkpt lat="45.95788" lon="3.691">
        <ele>1014.4</ele>
        <time>2022-08-29T08:31:08Z</time>
      </trkpt>
      <trkpt lat="45.95789" lon="3.691">
        <ele>1014.4</ele>
        <time>2022-08-29T08:31:09Z</time>
      </trkpt>
      <trkpt lat="45.95792" lon="3.69102">
        <ele>1014.5</ele>
        <time>2022-08-29T08:31:10Z</time>
      </trkpt>
      <trkpt lat="45.95793" lon="3.69102">
        <ele>1014.5</ele>
        <time>2022-08-29T08:31:11Z</time>
      </trkpt>
      <trkpt lat="45.95795" lon="3.69103">
        <ele>1014.5</ele>
        <time>2022-08-29T08:31:12Z</time>
      </trkpt>
      <trkpt lat="45.95795" lon="3.69103">
        <ele>1014.5</ele>
        <time>2022-08-29T08:31:13Z</time>
      </trkpt>
      <trkpt lat="45.95795" lon="3.69103">
        <ele>1014.6</ele>
        <time>2022-08-29T08:31:14Z</time>
      </trkpt>
      <trkpt lat="45.95796" lon="3.69104">
        <ele>1014.6</ele>
        <time>2022-08-29T08:31:15Z</time>
      </trkpt>
      <trkpt lat="45.95796" lon="3.69105">
        <ele>1014.6</ele>
        <time>2022-08-29T08:31:16Z</time>
      </trkpt>
      <trkpt lat="45.95796" lon="3.69105">
        <ele>1014.6</ele>
        <time>2022-08-29T08:31:17Z</time>
      </trkpt>
      <trkpt lat="45.95797" lon="3.69106">
        <ele>1014.6</ele>
        <time>2022-08-29T08:31:18Z</time>
      </trkpt>
      <trkpt lat="45.95798" lon="3.69106">
        <ele>1014.6</ele>
        <time>2022-08-29T08:31:19Z</time>
      </trkpt>
      <trkpt lat="45.958" lon="3.69107">
        <ele>1014.6</ele>
        <time>2022-08-29T08:31:20Z</time>
      </trkpt>
      <trkpt lat="45.95801" lon="3.69108">
        <ele>1014.7</ele>
        <time>2022-08-29T08:31:21Z</time>
      </trkpt>
      <trkpt lat="45.95802" lon="3.69108">
        <ele>1014.7</ele>
        <time>2022-08-29T08:31:22Z</time>
      </trkpt>
      <trkpt lat="45.95805" lon="3.69109">
        <ele>1014.7</ele>
        <time>2022-08-29T08:31:23Z</time>
      </trkpt>
      <trkpt lat="45.95806" lon="3.69109">
        <ele>1014.7</ele>
        <time>2022-08-29T08:31:24Z</time>
      </trkpt>
      <trkpt lat="45.9581" lon="3.6911">
        <ele>1014.7</ele>
        <time>2022-08-29T08:31:25Z</time>
      </trkpt>
      <trkpt lat="45.95811" lon="3.69111">
        <ele>1014.7</ele>
        <time>2022-08-29T08:31:26Z</time>
      </trkpt>
      <trkpt lat="45.95815" lon="3.69112">
        <ele>1014.7</ele>
        <time>2022-08-29T08:31:27Z</time>
      </trkpt>
      <trkpt lat="45.95816" lon="3.69112">
        <ele>1014.7</ele>
        <time>2022-08-29T08:31:28Z</time>
      </trkpt>
      <trkpt lat="45.95819" lon="3.69113">
        <ele>1014.6</ele>
        <time>2022-08-29T08:31:29Z</time>
      </trkpt>
      <trkpt lat="45.95822" lon="3.69113">
        <ele>1014.6</ele>
        <time>2022-08-29T08:31:30Z</time>
      </trkpt>
      <trkpt lat="45.95825" lon="3.69114">
        <ele>1014.5</ele>
        <time>2022-08-29T08:31:31Z</time>
      </trkpt>
      <trkpt lat="45.95827" lon="3.69114">
        <ele>1014.4</ele>
        <time>2022-08-29T08:31:32Z</time>
      </trkpt>
      <trkpt lat="45.95828" lon="3.69114">
        <ele>1014.4</ele>
        <time>2022-08-29T08:31:33Z</time>
      </trkpt>
      <trkpt lat="45.95829" lon="3.69114">
        <ele>1014.3</ele>
        <time>2022-08-29T08:31:34Z</time>
      </trkpt>
      <trkpt lat="45.9583" lon="3.69114">
        <ele>1014.3</ele>
        <time>2022-08-29T08:31:35Z</time>
      </trkpt>
      <trkpt lat="45.95831" lon="3.69114">
        <ele>1014.2</ele>
        <time>2022-08-29T08:31:36Z</time>
      </trkpt>
      <trkpt lat="45.95833" lon="3.69114">
        <ele>1014.2</ele>
        <time>2022-08-29T08:31:37Z</time>
      </trkpt>
      <trkpt lat="45.95834" lon="3.69115">
        <ele>1014.1</ele>
        <time>2022-08-29T08:31:38Z</time>
      </trkpt>
      <trkpt lat="45.95835" lon="3.69115">
        <ele>1014.1</ele>
        <time>2022-08-29T08:31:39Z</time>
      </trkpt>
      <trkpt lat="45.95836" lon="3.69115">
        <ele>1014.1</ele>
        <time>2022-08-29T08:31:40Z</time>
      </trkpt>
      <trkpt lat="45.95837" lon="3.69115">
        <ele>1014</ele>
        <time>2022-08-29T08:31:41Z</time>
      </trkpt>
      <trkpt lat="45.95838" lon="3.69115">
        <ele>1014</ele>
        <time>2022-08-29T08:31:42Z</time>
      </trkpt>
      <trkpt lat="45.95839" lon="3.69115">
        <ele>1014</ele>
        <time>2022-08-29T08:31:43Z</time>
      </trkpt>
      <trkpt lat="45.9584" lon="3.69115">
        <ele>1013.9</ele>
        <time>2022-08-29T08:31:44Z</time>
      </trkpt>
      <trkpt lat="45.95841" lon="3.69115">
        <ele>1013.9</ele>
        <time>2022-08-29T08:31:45Z</time>
      </trkpt>
      <trkpt lat="45.95841" lon="3.69115">
        <ele>1013.8</ele>
        <time>2022-08-29T08:31:46Z</time>
      </trkpt>
      <trkpt lat="45.95842" lon="3.69115">
        <ele>1013.8</ele>
        <time>2022-08-29T08:31:47Z</time>
      </trkpt>
      <trkpt lat="45.95843" lon="3.69115">
        <ele>1013.8</ele>
        <time>2022-08-29T08:31:48Z</time>
      </trkpt>
      <trkpt lat="45.95844" lon="3.69114">
        <ele>1013.7</ele>
        <time>2022-08-29T08:31:49Z</time>
      </trkpt>
      <trkpt lat="45.95845" lon="3.69114">
        <ele>1013.7</ele>
        <time>2022-08-29T08:31:50Z</time>
      </trkpt>
      <trkpt lat="45.95846" lon="3.69113">
        <ele>1013.7</ele>
        <time>2022-08-29T08:31:51Z</time>
      </trkpt>
      <trkpt lat="45.95846" lon="3.69113">
        <ele>1013.6</ele>
        <time>2022-08-29T08:31:52Z</time>
      </trkpt>
      <trkpt lat="45.95847" lon="3.69112">
        <ele>1013.6</ele>
        <time>2022-08-29T08:31:53Z</time>
      </trkpt>
      <trkpt lat="45.95848" lon="3.69112">
        <ele>1013.6</ele>
        <time>2022-08-29T08:31:54Z</time>
      </trkpt>
      <trkpt lat="45.95849" lon="3.69113">
        <ele>1013.5</ele>
        <time>2022-08-29T08:31:55Z</time>
      </trkpt>
      <trkpt lat="45.95851" lon="3.69113">
        <ele>1013.4</ele>
        <time>2022-08-29T08:31:56Z</time>
      </trkpt>
      <trkpt lat="45.95852" lon="3.69113">
        <ele>1013.4</ele>
        <time>2022-08-29T08:31:57Z</time>
      </trkpt>
      <trkpt lat="45.95853" lon="3.69114">
        <ele>1013.4</ele>
        <time>2022-08-29T08:31:58Z</time>
      </trkpt>
      <trkpt lat="45.95854" lon="3.69114">
        <ele>1013.3</ele>
        <time>2022-08-29T08:31:59Z</time>
      </trkpt>
      <trkpt lat="45.95856" lon="3.69114">
        <ele>1013.2</ele>
        <time>2022-08-29T08:32:00Z</time>
      </trkpt>
      <trkpt lat="45.95858" lon="3.69114">
        <ele>1013</ele>
        <time>2022-08-29T08:32:01Z</time>
      </trkpt>
      <trkpt lat="45.95859" lon="3.69114">
        <ele>1012.9</ele>
        <time>2022-08-29T08:32:02Z</time>
      </trkpt>
      <trkpt lat="45.9586" lon="3.69115">
        <ele>1012.8</ele>
        <time>2022-08-29T08:32:03Z</time>
      </trkpt>
      <trkpt lat="45.95862" lon="3.69115">
        <ele>1012.7</ele>
        <time>2022-08-29T08:32:04Z</time>
      </trkpt>
      <trkpt lat="45.95863" lon="3.69115">
        <ele>1012.6</ele>
        <time>2022-08-29T08:32:05Z</time>
      </trkpt>
      <trkpt lat="45.95864" lon="3.69115">
        <ele>1012.5</ele>
        <time>2022-08-29T08:32:06Z</time>
      </trkpt>
      <trkpt lat="45.95865" lon="3.69115">
        <ele>1012.4</ele>
        <time>2022-08-29T08:32:07Z</time>
      </trkpt>
      <trkpt lat="45.95865" lon="3.69114">
        <ele>1012.3</ele>
        <time>2022-08-29T08:32:08Z</time>
      </trkpt>
      <trkpt lat="45.95866" lon="3.69114">
        <ele>1012.2</ele>
        <time>2022-08-29T08:32:09Z</time>
      </trkpt>
      <trkpt lat="45.95867" lon="3.69113">
        <ele>1012.1</ele>
        <time>2022-08-29T08:32:10Z</time>
      </trkpt>
      <trkpt lat="45.95867" lon="3.69113">
        <ele>1012</ele>
        <time>2022-08-29T08:32:11Z</time>
      </trkpt>
      <trkpt lat="45.95868" lon="3.69112">
        <ele>1011.9</ele>
        <time>2022-08-29T08:32:12Z</time>
      </trkpt>
      <trkpt lat="45.9587" lon="3.69111">
        <ele>1011.7</ele>
        <time>2022-08-29T08:32:13Z</time>
      </trkpt>
      <trkpt lat="45.95871" lon="3.69111">
        <ele>1011.6</ele>
        <time>2022-08-29T08:32:14Z</time>
      </trkpt>
      <trkpt lat="45.95872" lon="3.69111">
        <ele>1011.5</ele>
        <time>2022-08-29T08:32:15Z</time>
      </trkpt>
      <trkpt lat="45.95874" lon="3.69111">
        <ele>1011.4</ele>
        <time>2022-08-29T08:32:16Z</time>
      </trkpt>
      <trkpt lat="45.95874" lon="3.69111">
        <ele>1011.2</ele>
        <time>2022-08-29T08:32:17Z</time>
      </trkpt>
      <trkpt lat="45.95875" lon="3.6911">
        <ele>1011.2</ele>
        <time>2022-08-29T08:32:18Z</time>
      </trkpt>
      <trkpt lat="45.95875" lon="3.6911">
        <ele>1011.1</ele>
        <time>2022-08-29T08:32:19Z</time>
      </trkpt>
      <trkpt lat="45.95875" lon="3.6911">
        <ele>1011</ele>
        <time>2022-08-29T08:32:20Z</time>
      </trkpt>
      <trkpt lat="45.95876" lon="3.6911">
        <ele>1011</ele>
        <time>2022-08-29T08:32:21Z</time>
      </trkpt>
      <trkpt lat="45.95876" lon="3.69109">
        <ele>1010.9</ele>
        <time>2022-08-29T08:32:22Z</time>
      </trkpt>
      <trkpt lat="45.95877" lon="3.69108">
        <ele>1010.8</ele>
        <time>2022-08-29T08:32:23Z</time>
      </trkpt>
      <trkpt lat="45.95878" lon="3.69108">
        <ele>1010.6</ele>
        <time>2022-08-29T08:32:24Z</time>
      </trkpt>
      <trkpt lat="45.95879" lon="3.69107">
        <ele>1010.5</ele>
        <time>2022-08-29T08:32:25Z</time>
      </trkpt>
      <trkpt lat="45.9588" lon="3.69107">
        <ele>1010.3</ele>
        <time>2022-08-29T08:32:26Z</time>
      </trkpt>
      <trkpt lat="45.95881" lon="3.69107">
        <ele>1010.2</ele>
        <time>2022-08-29T08:32:27Z</time>
      </trkpt>
      <trkpt lat="45.95883" lon="3.69107">
        <ele>1010</ele>
        <time>2022-08-29T08:32:28Z</time>
      </trkpt>
      <trkpt lat="45.95884" lon="3.69107">
        <ele>1009.9</ele>
        <time>2022-08-29T08:32:29Z</time>
      </trkpt>
      <trkpt lat="45.95885" lon="3.69107">
        <ele>1009.7</ele>
        <time>2022-08-29T08:32:30Z</time>
      </trkpt>
      <trkpt lat="45.95887" lon="3.69106">
        <ele>1009.5</ele>
        <time>2022-08-29T08:32:31Z</time>
      </trkpt>
      <trkpt lat="45.95888" lon="3.69106">
        <ele>1009.3</ele>
        <time>2022-08-29T08:32:32Z</time>
      </trkpt>
      <trkpt lat="45.9589" lon="3.69105">
        <ele>1009.1</ele>
        <time>2022-08-29T08:32:33Z</time>
      </trkpt>
      <trkpt lat="45.95891" lon="3.69105">
        <ele>1008.9</ele>
        <time>2022-08-29T08:32:34Z</time>
      </trkpt>
      <trkpt lat="45.95894" lon="3.69104">
        <ele>1008.6</ele>
        <time>2022-08-29T08:32:35Z</time>
      </trkpt>
      <trkpt lat="45.95895" lon="3.69104">
        <ele>1008.5</ele>
        <time>2022-08-29T08:32:36Z</time>
      </trkpt>
      <trkpt lat="45.95896" lon="3.69103">
        <ele>1008.3</ele>
        <time>2022-08-29T08:32:37Z</time>
      </trkpt>
      <trkpt lat="45.95898" lon="3.69103">
        <ele>1008</ele>
        <time>2022-08-29T08:32:38Z</time>
      </trkpt>
      <trkpt lat="45.959" lon="3.69103">
        <ele>1007.8</ele>
        <time>2022-08-29T08:32:39Z</time>
      </trkpt>
      <trkpt lat="45.95901" lon="3.69103">
        <ele>1007.6</ele>
        <time>2022-08-29T08:32:40Z</time>
      </trkpt>
      <trkpt lat="45.95903" lon="3.69103">
        <ele>1007.3</ele>
        <time>2022-08-29T08:32:41Z</time>
      </trkpt>
      <trkpt lat="45.95905" lon="3.69102">
        <ele>1007.1</ele>
        <time>2022-08-29T08:32:42Z</time>
      </trkpt>
      <trkpt lat="45.95906" lon="3.69102">
        <ele>1006.9</ele>
        <time>2022-08-29T08:32:43Z</time>
      </trkpt>
      <trkpt lat="45.95908" lon="3.69101">
        <ele>1006.6</ele>
        <time>2022-08-29T08:32:44Z</time>
      </trkpt>
      <trkpt lat="45.95909" lon="3.69101">
        <ele>1006.4</ele>
        <time>2022-08-29T08:32:45Z</time>
      </trkpt>
      <trkpt lat="45.95911" lon="3.69101">
        <ele>1006.2</ele>
        <time>2022-08-29T08:32:46Z</time>
      </trkpt>
      <trkpt lat="45.95912" lon="3.691">
        <ele>1006</ele>
        <time>2022-08-29T08:32:47Z</time>
      </trkpt>
      <trkpt lat="45.95913" lon="3.691">
        <ele>1005.8</ele>
        <time>2022-08-29T08:32:48Z</time>
      </trkpt>
      <trkpt lat="45.95914" lon="3.691">
        <ele>1005.6</ele>
        <time>2022-08-29T08:32:49Z</time>
      </trkpt>
      <trkpt lat="45.95915" lon="3.69099">
        <ele>1005.4</ele>
        <time>2022-08-29T08:32:50Z</time>
      </trkpt>
      <trkpt lat="45.95917" lon="3.69099">
        <ele>1005.2</ele>
        <time>2022-08-29T08:32:51Z</time>
      </trkpt>
      <trkpt lat="45.95918" lon="3.69099">
        <ele>1005</ele>
        <time>2022-08-29T08:32:52Z</time>
      </trkpt>
      <trkpt lat="45.95918" lon="3.69099">
        <ele>1004.9</ele>
        <time>2022-08-29T08:32:53Z</time>
      </trkpt>
      <trkpt lat="45.95919" lon="3.69098">
        <ele>1004.7</ele>
        <time>2022-08-29T08:32:54Z</time>
      </trkpt>
      <trkpt lat="45.95921" lon="3.69098">
        <ele>1004.6</ele>
        <time>2022-08-29T08:32:55Z</time>
      </trkpt>
      <trkpt lat="45.95922" lon="3.69098">
        <ele>1004.3</ele>
        <time>2022-08-29T08:32:56Z</time>
      </trkpt>
      <trkpt lat="45.95923" lon="3.69098">
        <ele>1004.2</ele>
        <time>2022-08-29T08:32:57Z</time>
      </trkpt>
      <trkpt lat="45.95924" lon="3.69098">
        <ele>1004</ele>
        <time>2022-08-29T08:32:58Z</time>
      </trkpt>
      <trkpt lat="45.95925" lon="3.69098">
        <ele>1003.9</ele>
        <time>2022-08-29T08:32:59Z</time>
      </trkpt>
      <trkpt lat="45.95926" lon="3.69098">
        <ele>1003.7</ele>
        <time>2022-08-29T08:33:00Z</time>
      </trkpt>
      <trkpt lat="45.95927" lon="3.69098">
        <ele>1003.6</ele>
        <time>2022-08-29T08:33:01Z</time>
      </trkpt>
      <trkpt lat="45.95928" lon="3.69097">
        <ele>1003.4</ele>
        <time>2022-08-29T08:33:02Z</time>
      </trkpt>
      <trkpt lat="45.95929" lon="3.69097">
        <ele>1003.1</ele>
        <time>2022-08-29T08:33:03Z</time>
      </trkpt>
      <trkpt lat="45.9593" lon="3.69097">
        <ele>1003</ele>
        <time>2022-08-29T08:33:04Z</time>
      </trkpt>
      <trkpt lat="45.95932" lon="3.69097">
        <ele>1002.8</ele>
        <time>2022-08-29T08:33:05Z</time>
      </trkpt>
      <trkpt lat="45.95933" lon="3.69097">
        <ele>1002.6</ele>
        <time>2022-08-29T08:33:06Z</time>
      </trkpt>
      <trkpt lat="45.95934" lon="3.69097">
        <ele>1002.5</ele>
        <time>2022-08-29T08:33:07Z</time>
      </trkpt>
      <trkpt lat="45.95935" lon="3.69097">
        <ele>1002.3</ele>
        <time>2022-08-29T08:33:08Z</time>
      </trkpt>
      <trkpt lat="45.95937" lon="3.69097">
        <ele>1002.1</ele>
        <time>2022-08-29T08:33:09Z</time>
      </trkpt>
      <trkpt lat="45.95938" lon="3.69097">
        <ele>1001.9</ele>
        <time>2022-08-29T08:33:10Z</time>
      </trkpt>
      <trkpt lat="45.9594" lon="3.69097">
        <ele>1001.7</ele>
        <time>2022-08-29T08:33:11Z</time>
      </trkpt>
      <trkpt lat="45.95941" lon="3.69097">
        <ele>1001.6</ele>
        <time>2022-08-29T08:33:12Z</time>
      </trkpt>
      <trkpt lat="45.95942" lon="3.69097">
        <ele>1001.3</ele>
        <time>2022-08-29T08:33:13Z</time>
      </trkpt>
      <trkpt lat="45.95943" lon="3.69097">
        <ele>1001.2</ele>
        <time>2022-08-29T08:33:14Z</time>
      </trkpt>
      <trkpt lat="45.95944" lon="3.69098">
        <ele>1001</ele>
        <time>2022-08-29T08:33:15Z</time>
      </trkpt>
      <trkpt lat="45.95945" lon="3.69098">
        <ele>1000.9</ele>
        <time>2022-08-29T08:33:16Z</time>
      </trkpt>
      <trkpt lat="45.95946" lon="3.69098">
        <ele>1000.7</ele>
        <time>2022-08-29T08:33:17Z</time>
      </trkpt>
      <trkpt lat="45.95947" lon="3.69099">
        <ele>1000.6</ele>
        <time>2022-08-29T08:33:18Z</time>
      </trkpt>
      <trkpt lat="45.95948" lon="3.69099">
        <ele>1000.4</ele>
        <time>2022-08-29T08:33:19Z</time>
      </trkpt>
      <trkpt lat="45.95949" lon="3.69099">
        <ele>1000.3</ele>
        <time>2022-08-29T08:33:20Z</time>
      </trkpt>
      <trkpt lat="45.9595" lon="3.691">
        <ele>1000.1</ele>
        <time>2022-08-29T08:33:21Z</time>
      </trkpt>
      <trkpt lat="45.95951" lon="3.691">
        <ele>1000</ele>
        <time>2022-08-29T08:33:22Z</time>
      </trkpt>
      <trkpt lat="45.95952" lon="3.691">
        <ele>999.8</ele>
        <time>2022-08-29T08:33:23Z</time>
      </trkpt>
      <trkpt lat="45.95954" lon="3.69101">
        <ele>999.7</ele>
        <time>2022-08-29T08:33:24Z</time>
      </trkpt>
      <trkpt lat="45.95955" lon="3.69101">
        <ele>999.4</ele>
        <time>2022-08-29T08:33:25Z</time>
      </trkpt>
      <trkpt lat="45.95957" lon="3.69101">
        <ele>999.2</ele>
        <time>2022-08-29T08:33:26Z</time>
      </trkpt>
      <trkpt lat="45.95959" lon="3.69101">
        <ele>999</ele>
        <time>2022-08-29T08:33:27Z</time>
      </trkpt>
      <trkpt lat="45.9596" lon="3.691">
        <ele>998.8</ele>
        <time>2022-08-29T08:33:28Z</time>
      </trkpt>
      <trkpt lat="45.95961" lon="3.691">
        <ele>998.6</ele>
        <time>2022-08-29T08:33:29Z</time>
      </trkpt>
      <trkpt lat="45.95962" lon="3.69099">
        <ele>998.5</ele>
        <time>2022-08-29T08:33:30Z</time>
      </trkpt>
      <trkpt lat="45.95963" lon="3.69098">
        <ele>998.4</ele>
        <time>2022-08-29T08:33:31Z</time>
      </trkpt>
      <trkpt lat="45.95963" lon="3.69098">
        <ele>998.3</ele>
        <time>2022-08-29T08:33:32Z</time>
      </trkpt>
      <trkpt lat="45.95964" lon="3.69097">
        <ele>998.1</ele>
        <time>2022-08-29T08:33:33Z</time>
      </trkpt>
      <trkpt lat="45.95965" lon="3.69096">
        <ele>998</ele>
        <time>2022-08-29T08:33:34Z</time>
      </trkpt>
      <trkpt lat="45.95965" lon="3.69095">
        <ele>997.8</ele>
        <time>2022-08-29T08:33:35Z</time>
      </trkpt>
      <trkpt lat="45.95965" lon="3.69094">
        <ele>997.8</ele>
        <time>2022-08-29T08:33:36Z</time>
      </trkpt>
      <trkpt lat="45.95967" lon="3.69093">
        <ele>997.5</ele>
        <time>2022-08-29T08:33:37Z</time>
      </trkpt>
      <trkpt lat="45.95967" lon="3.69093">
        <ele>997.4</ele>
        <time>2022-08-29T08:33:38Z</time>
      </trkpt>
      <trkpt lat="45.95968" lon="3.69092">
        <ele>997.4</ele>
        <time>2022-08-29T08:33:39Z</time>
      </trkpt>
      <trkpt lat="45.95969" lon="3.69092">
        <ele>997.3</ele>
        <time>2022-08-29T08:33:40Z</time>
      </trkpt>
      <trkpt lat="45.95971" lon="3.69092">
        <ele>997.1</ele>
        <time>2022-08-29T08:33:41Z</time>
      </trkpt>
      <trkpt lat="45.95972" lon="3.69092">
        <ele>996.9</ele>
        <time>2022-08-29T08:33:42Z</time>
      </trkpt>
      <trkpt lat="45.95974" lon="3.69092">
        <ele>996.8</ele>
        <time>2022-08-29T08:33:43Z</time>
      </trkpt>
      <trkpt lat="45.95976" lon="3.69092">
        <ele>996.6</ele>
        <time>2022-08-29T08:33:44Z</time>
      </trkpt>
      <trkpt lat="45.95978" lon="3.69091">
        <ele>996.3</ele>
        <time>2022-08-29T08:33:45Z</time>
      </trkpt>
      <trkpt lat="45.95979" lon="3.6909">
        <ele>996.2</ele>
        <time>2022-08-29T08:33:46Z</time>
      </trkpt>
      <trkpt lat="45.95981" lon="3.6909">
        <ele>996</ele>
        <time>2022-08-29T08:33:47Z</time>
      </trkpt>
      <trkpt lat="45.95982" lon="3.69089">
        <ele>995.8</ele>
        <time>2022-08-29T08:33:48Z</time>
      </trkpt>
      <trkpt lat="45.95984" lon="3.69089">
        <ele>995.5</ele>
        <time>2022-08-29T08:33:49Z</time>
      </trkpt>
      <trkpt lat="45.95985" lon="3.69089">
        <ele>995.4</ele>
        <time>2022-08-29T08:33:50Z</time>
      </trkpt>
      <trkpt lat="45.95986" lon="3.69089">
        <ele>995.3</ele>
        <time>2022-08-29T08:33:51Z</time>
      </trkpt>
      <trkpt lat="45.95987" lon="3.69089">
        <ele>995.2</ele>
        <time>2022-08-29T08:33:52Z</time>
      </trkpt>
      <trkpt lat="45.95988" lon="3.6909">
        <ele>995</ele>
        <time>2022-08-29T08:33:53Z</time>
      </trkpt>
      <trkpt lat="45.9599" lon="3.6909">
        <ele>994.9</ele>
        <time>2022-08-29T08:33:54Z</time>
      </trkpt>
      <trkpt lat="45.95991" lon="3.6909">
        <ele>994.7</ele>
        <time>2022-08-29T08:33:55Z</time>
      </trkpt>
      <trkpt lat="45.95993" lon="3.6909">
        <ele>994.5</ele>
        <time>2022-08-29T08:33:56Z</time>
      </trkpt>
      <trkpt lat="45.95994" lon="3.69091">
        <ele>994.3</ele>
        <time>2022-08-29T08:33:57Z</time>
      </trkpt>
      <trkpt lat="45.95995" lon="3.69091">
        <ele>994.1</ele>
        <time>2022-08-29T08:33:58Z</time>
      </trkpt>
      <trkpt lat="45.95997" lon="3.69091">
        <ele>993.8</ele>
        <time>2022-08-29T08:33:59Z</time>
      </trkpt>
      <trkpt lat="45.95998" lon="3.69092">
        <ele>993.7</ele>
        <time>2022-08-29T08:34:00Z</time>
      </trkpt>
      <trkpt lat="45.95999" lon="3.69092">
        <ele>993.6</ele>
        <time>2022-08-29T08:34:01Z</time>
      </trkpt>
      <trkpt lat="45.96001" lon="3.69092">
        <ele>993.3</ele>
        <time>2022-08-29T08:34:02Z</time>
      </trkpt>
      <trkpt lat="45.96002" lon="3.69092">
        <ele>993.2</ele>
        <time>2022-08-29T08:34:03Z</time>
      </trkpt>
      <trkpt lat="45.96003" lon="3.69092">
        <ele>993.1</ele>
        <time>2022-08-29T08:34:04Z</time>
      </trkpt>
      <trkpt lat="45.96004" lon="3.69092">
        <ele>993</ele>
        <time>2022-08-29T08:34:05Z</time>
      </trkpt>
      <trkpt lat="45.96005" lon="3.69092">
        <ele>992.8</ele>
        <time>2022-08-29T08:34:06Z</time>
      </trkpt>
      <trkpt lat="45.96006" lon="3.69092">
        <ele>992.7</ele>
        <time>2022-08-29T08:34:07Z</time>
      </trkpt>
      <trkpt lat="45.96007" lon="3.69092">
        <ele>992.6</ele>
        <time>2022-08-29T08:34:08Z</time>
      </trkpt>
      <trkpt lat="45.96008" lon="3.69093">
        <ele>992.5</ele>
        <time>2022-08-29T08:34:09Z</time>
      </trkpt>
      <trkpt lat="45.96008" lon="3.69093">
        <ele>992.4</ele>
        <time>2022-08-29T08:34:10Z</time>
      </trkpt>
      <trkpt lat="45.96008" lon="3.69093">
        <ele>992.4</ele>
        <time>2022-08-29T08:34:11Z</time>
      </trkpt>
      <trkpt lat="45.96009" lon="3.69093">
        <ele>992.3</ele>
        <time>2022-08-29T08:34:12Z</time>
      </trkpt>
      <trkpt lat="45.9601" lon="3.69093">
        <ele>992.3</ele>
        <time>2022-08-29T08:34:13Z</time>
      </trkpt>
      <trkpt lat="45.9601" lon="3.69093">
        <ele>992.2</ele>
        <time>2022-08-29T08:34:14Z</time>
      </trkpt>
      <trkpt lat="45.96011" lon="3.69092">
        <ele>992.1</ele>
        <time>2022-08-29T08:34:15Z</time>
      </trkpt>
      <trkpt lat="45.96011" lon="3.69092">
        <ele>992.1</ele>
        <time>2022-08-29T08:34:16Z</time>
      </trkpt>
      <trkpt lat="45.96012" lon="3.69092">
        <ele>992</ele>
        <time>2022-08-29T08:34:17Z</time>
      </trkpt>
      <trkpt lat="45.96012" lon="3.69091">
        <ele>991.9</ele>
        <time>2022-08-29T08:34:18Z</time>
      </trkpt>
      <trkpt lat="45.96013" lon="3.6909">
        <ele>991.8</ele>
        <time>2022-08-29T08:34:19Z</time>
      </trkpt>
      <trkpt lat="45.96012" lon="3.69089">
        <ele>991.7</ele>
        <time>2022-08-29T08:34:20Z</time>
      </trkpt>
      <trkpt lat="45.96012" lon="3.69087">
        <ele>991.6</ele>
        <time>2022-08-29T08:34:21Z</time>
      </trkpt>
      <trkpt lat="45.96012" lon="3.69087">
        <ele>990.7</ele>
        <time>2022-08-29T08:34:22Z</time>
      </trkpt>
      <trkpt lat="45.96012" lon="3.69086">
        <ele>990.8</ele>
        <time>2022-08-29T08:34:23Z</time>
      </trkpt>
      <trkpt lat="45.96012" lon="3.69085">
        <ele>990.8</ele>
        <time>2022-08-29T08:34:24Z</time>
      </trkpt>
      <trkpt lat="45.96012" lon="3.69084">
        <ele>990.9</ele>
        <time>2022-08-29T08:34:25Z</time>
      </trkpt>
      <trkpt lat="45.96012" lon="3.69082">
        <ele>991</ele>
        <time>2022-08-29T08:34:26Z</time>
      </trkpt>
      <trkpt lat="45.96012" lon="3.69081">
        <ele>991.1</ele>
        <time>2022-08-29T08:34:27Z</time>
      </trkpt>
      <trkpt lat="45.96012" lon="3.6908">
        <ele>991.1</ele>
        <time>2022-08-29T08:34:28Z</time>
      </trkpt>
      <trkpt lat="45.96012" lon="3.69079">
        <ele>991.2</ele>
        <time>2022-08-29T08:34:29Z</time>
      </trkpt>
      <trkpt lat="45.96011" lon="3.69078">
        <ele>991.3</ele>
        <time>2022-08-29T08:34:30Z</time>
      </trkpt>
      <trkpt lat="45.96011" lon="3.69077">
        <ele>991.4</ele>
        <time>2022-08-29T08:34:31Z</time>
      </trkpt>
      <trkpt lat="45.9601" lon="3.69076">
        <ele>991.4</ele>
        <time>2022-08-29T08:34:32Z</time>
      </trkpt>
      <trkpt lat="45.9601" lon="3.69075">
        <ele>991.5</ele>
        <time>2022-08-29T08:34:33Z</time>
      </trkpt>
      <trkpt lat="45.96009" lon="3.69075">
        <ele>991.5</ele>
        <time>2022-08-29T08:34:34Z</time>
      </trkpt>
      <trkpt lat="45.96009" lon="3.69074">
        <ele>991.6</ele>
        <time>2022-08-29T08:34:35Z</time>
      </trkpt>
      <trkpt lat="45.96008" lon="3.69073">
        <ele>991.7</ele>
        <time>2022-08-29T08:34:36Z</time>
      </trkpt>
      <trkpt lat="45.96008" lon="3.69073">
        <ele>991.7</ele>
        <time>2022-08-29T08:34:37Z</time>
      </trkpt>
      <trkpt lat="45.96007" lon="3.69073">
        <ele>991.7</ele>
        <time>2022-08-29T08:34:38Z</time>
      </trkpt>
      <trkpt lat="45.96006" lon="3.69073">
        <ele>991.8</ele>
        <time>2022-08-29T08:34:39Z</time>
      </trkpt>
      <trkpt lat="45.96004" lon="3.69073">
        <ele>992</ele>
        <time>2022-08-29T08:34:40Z</time>
      </trkpt>
      <trkpt lat="45.96003" lon="3.69073">
        <ele>992.1</ele>
        <time>2022-08-29T08:34:41Z</time>
      </trkpt>
      <trkpt lat="45.96002" lon="3.69073">
        <ele>992.1</ele>
        <time>2022-08-29T08:34:42Z</time>
      </trkpt>
      <trkpt lat="45.96001" lon="3.69073">
        <ele>992.2</ele>
        <time>2022-08-29T08:34:43Z</time>
      </trkpt>
      <trkpt lat="45.96" lon="3.69072">
        <ele>992.3</ele>
        <time>2022-08-29T08:34:44Z</time>
      </trkpt>
      <trkpt lat="45.95999" lon="3.69072">
        <ele>992.4</ele>
        <time>2022-08-29T08:34:45Z</time>
      </trkpt>
      <trkpt lat="45.95997" lon="3.6907">
        <ele>992.6</ele>
        <time>2022-08-29T08:34:46Z</time>
      </trkpt>
      <trkpt lat="45.95996" lon="3.6907">
        <ele>992.7</ele>
        <time>2022-08-29T08:34:47Z</time>
      </trkpt>
      <trkpt lat="45.95996" lon="3.69069">
        <ele>992.8</ele>
        <time>2022-08-29T08:34:48Z</time>
      </trkpt>
      <trkpt lat="45.95994" lon="3.69068">
        <ele>992.9</ele>
        <time>2022-08-29T08:34:49Z</time>
      </trkpt>
      <trkpt lat="45.95993" lon="3.69068">
        <ele>993</ele>
        <time>2022-08-29T08:34:50Z</time>
      </trkpt>
      <trkpt lat="45.95992" lon="3.69068">
        <ele>993.1</ele>
        <time>2022-08-29T08:34:51Z</time>
      </trkpt>
      <trkpt lat="45.9599" lon="3.69067">
        <ele>993.2</ele>
        <time>2022-08-29T08:34:52Z</time>
      </trkpt>
      <trkpt lat="45.9599" lon="3.69066">
        <ele>993.3</ele>
        <time>2022-08-29T08:34:53Z</time>
      </trkpt>
      <trkpt lat="45.95989" lon="3.69065">
        <ele>993.4</ele>
        <time>2022-08-29T08:34:54Z</time>
      </trkpt>
      <trkpt lat="45.95988" lon="3.69064">
        <ele>993.6</ele>
        <time>2022-08-29T08:34:56Z</time>
      </trkpt>
      <trkpt lat="45.95987" lon="3.69062">
        <ele>993.7</ele>
        <time>2022-08-29T08:34:58Z</time>
      </trkpt>
      <trkpt lat="45.95989" lon="3.69058">
        <ele>994</ele>
        <time>2022-08-29T08:35:00Z</time>
      </trkpt>
      <trkpt lat="45.95989" lon="3.69057">
        <ele>994.1</ele>
        <time>2022-08-29T08:35:01Z</time>
      </trkpt>
      <trkpt lat="45.9599" lon="3.69057">
        <ele>994.2</ele>
        <time>2022-08-29T08:35:02Z</time>
      </trkpt>
      <trkpt lat="45.9599" lon="3.69056">
        <ele>994.2</ele>
        <time>2022-08-29T08:35:03Z</time>
      </trkpt>
      <trkpt lat="45.95991" lon="3.69056">
        <ele>994.2</ele>
        <time>2022-08-29T08:35:04Z</time>
      </trkpt>
      <trkpt lat="45.95991" lon="3.69056">
        <ele>994.3</ele>
        <time>2022-08-29T08:35:05Z</time>
      </trkpt>
      <trkpt lat="45.95991" lon="3.69056">
        <ele>994.3</ele>
        <time>2022-08-29T08:35:06Z</time>
      </trkpt>
      <trkpt lat="45.95991" lon="3.69057">
        <ele>994.3</ele>
        <time>2022-08-29T08:35:07Z</time>
      </trkpt>
      <trkpt lat="45.95991" lon="3.69057">
        <ele>994.3</ele>
        <time>2022-08-29T08:35:08Z</time>
      </trkpt>
      <trkpt lat="45.95991" lon="3.69056">
        <ele>994.3</ele>
        <time>2022-08-29T08:35:09Z</time>
      </trkpt>
      <trkpt lat="45.95991" lon="3.69056">
        <ele>994.3</ele>
        <time>2022-08-29T08:35:10Z</time>
      </trkpt>
      <trkpt lat="45.95991" lon="3.69056">
        <ele>994.4</ele>
        <time>2022-08-29T08:35:11Z</time>
      </trkpt>
      <trkpt lat="45.95991" lon="3.69055">
        <ele>994.4</ele>
        <time>2022-08-29T08:35:12Z</time>
      </trkpt>
      <trkpt lat="45.9599" lon="3.69055">
        <ele>994.5</ele>
        <time>2022-08-29T08:35:13Z</time>
      </trkpt>
      <trkpt lat="45.9599" lon="3.69054">
        <ele>994.5</ele>
        <time>2022-08-29T08:35:14Z</time>
      </trkpt>
      <trkpt lat="45.9599" lon="3.69054">
        <ele>994.5</ele>
        <time>2022-08-29T08:35:15Z</time>
      </trkpt>
      <trkpt lat="45.9599" lon="3.69054">
        <ele>994.6</ele>
        <time>2022-08-29T08:35:16Z</time>
      </trkpt>
      <trkpt lat="45.95989" lon="3.69054">
        <ele>994.6</ele>
        <time>2022-08-29T08:35:17Z</time>
      </trkpt>
      <trkpt lat="45.95989" lon="3.69053">
        <ele>994.6</ele>
        <time>2022-08-29T08:35:18Z</time>
      </trkpt>
      <trkpt lat="45.95989" lon="3.69053">
        <ele>994.6</ele>
        <time>2022-08-29T08:35:19Z</time>
      </trkpt>
      <trkpt lat="45.95989" lon="3.69053">
        <ele>994.6</ele>
        <time>2022-08-29T08:35:20Z</time>
      </trkpt>
      <trkpt lat="45.95989" lon="3.69053">
        <ele>994.6</ele>
        <time>2022-08-29T08:35:21Z</time>
      </trkpt>
      <trkpt lat="45.95989" lon="3.69053">
        <ele>994.6</ele>
        <time>2022-08-29T08:35:22Z</time>
      </trkpt>
      <trkpt lat="45.95989" lon="3.69052">
        <ele>994.7</ele>
        <time>2022-08-29T08:35:23Z</time>
      </trkpt>
      <trkpt lat="45.95988" lon="3.69051">
        <ele>994.8</ele>
        <time>2022-08-29T08:35:24Z</time>
      </trkpt>
      <trkpt lat="45.95986" lon="3.69049">
        <ele>995</ele>
        <time>2022-08-29T08:35:25Z</time>
      </trkpt>
      <trkpt lat="45.95986" lon="3.69049">
        <ele>995.1</ele>
        <time>2022-08-29T08:35:26Z</time>
      </trkpt>
      <trkpt lat="45.95985" lon="3.69048">
        <ele>995.2</ele>
        <time>2022-08-29T08:35:27Z</time>
      </trkpt>
      <trkpt lat="45.95985" lon="3.69047">
        <ele>995.4</ele>
        <time>2022-08-29T08:35:28Z</time>
      </trkpt>
      <trkpt lat="45.95984" lon="3.69046">
        <ele>995.5</ele>
        <time>2022-08-29T08:35:29Z</time>
      </trkpt>
      <trkpt lat="45.95984" lon="3.69045">
        <ele>995.6</ele>
        <time>2022-08-29T08:35:30Z</time>
      </trkpt>
      <trkpt lat="45.95984" lon="3.69044">
        <ele>995.7</ele>
        <time>2022-08-29T08:35:31Z</time>
      </trkpt>
      <trkpt lat="45.95983" lon="3.69043">
        <ele>995.8</ele>
        <time>2022-08-29T08:35:32Z</time>
      </trkpt>
      <trkpt lat="45.95983" lon="3.69042">
        <ele>995.9</ele>
        <time>2022-08-29T08:35:33Z</time>
      </trkpt>
      <trkpt lat="45.95982" lon="3.69041">
        <ele>996</ele>
        <time>2022-08-29T08:35:34Z</time>
      </trkpt>
      <trkpt lat="45.95982" lon="3.6904">
        <ele>996.1</ele>
        <time>2022-08-29T08:35:35Z</time>
      </trkpt>
      <trkpt lat="45.95981" lon="3.6904">
        <ele>996.2</ele>
        <time>2022-08-29T08:35:36Z</time>
      </trkpt>
      <trkpt lat="45.9598" lon="3.69039">
        <ele>996.3</ele>
        <time>2022-08-29T08:35:37Z</time>
      </trkpt>
      <trkpt lat="45.95979" lon="3.69039">
        <ele>996.5</ele>
        <time>2022-08-29T08:35:38Z</time>
      </trkpt>
      <trkpt lat="45.95978" lon="3.69039">
        <ele>996.6</ele>
        <time>2022-08-29T08:35:39Z</time>
      </trkpt>
      <trkpt lat="45.95978" lon="3.69039">
        <ele>996.7</ele>
        <time>2022-08-29T08:35:40Z</time>
      </trkpt>
      <trkpt lat="45.95977" lon="3.69039">
        <ele>996.8</ele>
        <time>2022-08-29T08:35:41Z</time>
      </trkpt>
      <trkpt lat="45.95977" lon="3.69039">
        <ele>996.8</ele>
        <time>2022-08-29T08:35:42Z</time>
      </trkpt>
      <trkpt lat="45.95976" lon="3.69039">
        <ele>996.9</ele>
        <time>2022-08-29T08:35:43Z</time>
      </trkpt>
      <trkpt lat="45.95976" lon="3.69039">
        <ele>996.9</ele>
        <time>2022-08-29T08:35:44Z</time>
      </trkpt>
      <trkpt lat="45.95976" lon="3.69039">
        <ele>997</ele>
        <time>2022-08-29T08:35:45Z</time>
      </trkpt>
      <trkpt lat="45.95976" lon="3.69039">
        <ele>997</ele>
        <time>2022-08-29T08:35:46Z</time>
      </trkpt>
      <trkpt lat="45.95975" lon="3.6904">
        <ele>997.1</ele>
        <time>2022-08-29T08:35:47Z</time>
      </trkpt>
      <trkpt lat="45.95975" lon="3.69039">
        <ele>997.1</ele>
        <time>2022-08-29T08:35:48Z</time>
      </trkpt>
      <trkpt lat="45.95975" lon="3.69039">
        <ele>997.2</ele>
        <time>2022-08-29T08:35:49Z</time>
      </trkpt>
      <trkpt lat="45.95975" lon="3.69038">
        <ele>997.3</ele>
        <time>2022-08-29T08:35:50Z</time>
      </trkpt>
      <trkpt lat="45.95975" lon="3.69037">
        <ele>997.4</ele>
        <time>2022-08-29T08:35:51Z</time>
      </trkpt>
      <trkpt lat="45.95975" lon="3.69036">
        <ele>997.5</ele>
        <time>2022-08-29T08:35:52Z</time>
      </trkpt>
      <trkpt lat="45.95974" lon="3.69035">
        <ele>997.6</ele>
        <time>2022-08-29T08:35:53Z</time>
      </trkpt>
      <trkpt lat="45.95974" lon="3.69035">
        <ele>997.7</ele>
        <time>2022-08-29T08:35:54Z</time>
      </trkpt>
      <trkpt lat="45.95974" lon="3.69034">
        <ele>997.7</ele>
        <time>2022-08-29T08:35:55Z</time>
      </trkpt>
      <trkpt lat="45.95974" lon="3.69033">
        <ele>997.8</ele>
        <time>2022-08-29T08:35:56Z</time>
      </trkpt>
      <trkpt lat="45.95974" lon="3.69032">
        <ele>997.9</ele>
        <time>2022-08-29T08:35:57Z</time>
      </trkpt>
      <trkpt lat="45.95974" lon="3.69032">
        <ele>998</ele>
        <time>2022-08-29T08:35:58Z</time>
      </trkpt>
      <trkpt lat="45.95974" lon="3.69032">
        <ele>998</ele>
        <time>2022-08-29T08:35:59Z</time>
      </trkpt>
      <trkpt lat="45.95973" lon="3.69031">
        <ele>998.1</ele>
        <time>2022-08-29T08:36:00Z</time>
      </trkpt>
      <trkpt lat="45.95973" lon="3.69031">
        <ele>998.1</ele>
        <time>2022-08-29T08:36:01Z</time>
      </trkpt>
      <trkpt lat="45.95973" lon="3.69031">
        <ele>998.2</ele>
        <time>2022-08-29T08:36:02Z</time>
      </trkpt>
      <trkpt lat="45.95973" lon="3.69031">
        <ele>998.2</ele>
        <time>2022-08-29T08:36:03Z</time>
      </trkpt>
      <trkpt lat="45.95973" lon="3.69031">
        <ele>998.2</ele>
        <time>2022-08-29T08:36:04Z</time>
      </trkpt>
      <trkpt lat="45.95973" lon="3.69031">
        <ele>998.2</ele>
        <time>2022-08-29T08:36:05Z</time>
      </trkpt>
      <trkpt lat="45.95973" lon="3.69031">
        <ele>998.2</ele>
        <time>2022-08-29T08:36:06Z</time>
      </trkpt>
      <trkpt lat="45.95973" lon="3.69031">
        <ele>998.2</ele>
        <time>2022-08-29T08:36:07Z</time>
      </trkpt>
      <trkpt lat="45.95973" lon="3.69031">
        <ele>998.3</ele>
        <time>2022-08-29T08:36:08Z</time>
      </trkpt>
      <trkpt lat="45.95973" lon="3.69031">
        <ele>998.3</ele>
        <time>2022-08-29T08:36:09Z</time>
      </trkpt>
      <trkpt lat="45.95973" lon="3.69031">
        <ele>998.3</ele>
        <time>2022-08-29T08:36:10Z</time>
      </trkpt>
      <trkpt lat="45.95973" lon="3.69031">
        <ele>998.3</ele>
        <time>2022-08-29T08:36:11Z</time>
      </trkpt>
      <trkpt lat="45.95973" lon="3.69031">
        <ele>998.3</ele>
        <time>2022-08-29T08:36:12Z</time>
      </trkpt>
      <trkpt lat="45.95973" lon="3.69031">
        <ele>998.3</ele>
        <time>2022-08-29T08:36:13Z</time>
      </trkpt>
      <trkpt lat="45.95973" lon="3.69031">
        <ele>998.3</ele>
        <time>2022-08-29T08:36:14Z</time>
      </trkpt>
      <trkpt lat="45.95973" lon="3.69031">
        <ele>998.3</ele>
        <time>2022-08-29T08:36:16Z</time>
      </trkpt>
      <trkpt lat="45.95973" lon="3.69031">
        <ele>998.3</ele>
        <time>2022-08-29T08:36:17Z</time>
      </trkpt>
      <trkpt lat="45.95973" lon="3.69031">
        <ele>998.3</ele>
        <time>2022-08-29T08:36:18Z</time>
      </trkpt>
      <trkpt lat="45.95971" lon="3.6903">
        <ele>998.5</ele>
        <time>2022-08-29T08:36:19Z</time>
      </trkpt>
      <trkpt lat="45.9597" lon="3.69029">
        <ele>998.8</ele>
        <time>2022-08-29T08:36:20Z</time>
      </trkpt>
      <trkpt lat="45.95969" lon="3.69028">
        <ele>999.1</ele>
        <time>2022-08-29T08:36:21Z</time>
      </trkpt>
      <trkpt lat="45.95967" lon="3.69027">
        <ele>999.3</ele>
        <time>2022-08-29T08:36:22Z</time>
      </trkpt>
      <trkpt lat="45.95966" lon="3.69026">
        <ele>999.6</ele>
        <time>2022-08-29T08:36:23Z</time>
      </trkpt>
      <trkpt lat="45.95963" lon="3.69023">
        <ele>1000.1</ele>
        <time>2022-08-29T08:36:24Z</time>
      </trkpt>
      <trkpt lat="45.95962" lon="3.69023">
        <ele>1000.3</ele>
        <time>2022-08-29T08:36:25Z</time>
      </trkpt>
      <trkpt lat="45.9596" lon="3.69021">
        <ele>1000.8</ele>
        <time>2022-08-29T08:36:26Z</time>
      </trkpt>
      <trkpt lat="45.95959" lon="3.6902">
        <ele>1000.9</ele>
        <time>2022-08-29T08:36:27Z</time>
      </trkpt>
      <trkpt lat="45.95956" lon="3.69017">
        <ele>1001.5</ele>
        <time>2022-08-29T08:36:28Z</time>
      </trkpt>
      <trkpt lat="45.95955" lon="3.69016">
        <ele>1001.7</ele>
        <time>2022-08-29T08:36:29Z</time>
      </trkpt>
      <trkpt lat="45.95952" lon="3.69013">
        <ele>1002.3</ele>
        <time>2022-08-29T08:36:30Z</time>
      </trkpt>
      <trkpt lat="45.95952" lon="3.69012">
        <ele>1002.4</ele>
        <time>2022-08-29T08:36:31Z</time>
      </trkpt>
      <trkpt lat="45.9595" lon="3.69011">
        <ele>1002.7</ele>
        <time>2022-08-29T08:36:32Z</time>
      </trkpt>
      <trkpt lat="45.95949" lon="3.6901">
        <ele>1002.9</ele>
        <time>2022-08-29T08:36:33Z</time>
      </trkpt>
      <trkpt lat="45.95948" lon="3.69009">
        <ele>1003.1</ele>
        <time>2022-08-29T08:36:34Z</time>
      </trkpt>
      <trkpt lat="45.95947" lon="3.69008">
        <ele>1003.4</ele>
        <time>2022-08-29T08:36:35Z</time>
      </trkpt>
      <trkpt lat="45.95945" lon="3.69008">
        <ele>1003.6</ele>
        <time>2022-08-29T08:36:36Z</time>
      </trkpt>
      <trkpt lat="45.95945" lon="3.69007">
        <ele>1003.8</ele>
        <time>2022-08-29T08:36:37Z</time>
      </trkpt>
      <trkpt lat="45.95944" lon="3.69006">
        <ele>1003.9</ele>
        <time>2022-08-29T08:36:38Z</time>
      </trkpt>
      <trkpt lat="45.95943" lon="3.69006">
        <ele>1004.1</ele>
        <time>2022-08-29T08:36:39Z</time>
      </trkpt>
      <trkpt lat="45.95941" lon="3.69006">
        <ele>1004.3</ele>
        <time>2022-08-29T08:36:40Z</time>
      </trkpt>
      <trkpt lat="45.9594" lon="3.69006">
        <ele>1004.5</ele>
        <time>2022-08-29T08:36:41Z</time>
      </trkpt>
      <trkpt lat="45.95939" lon="3.69007">
        <ele>1004.8</ele>
        <time>2022-08-29T08:36:42Z</time>
      </trkpt>
      <trkpt lat="45.95937" lon="3.69007">
        <ele>1005</ele>
        <time>2022-08-29T08:36:43Z</time>
      </trkpt>
      <trkpt lat="45.95936" lon="3.69007">
        <ele>1005.3</ele>
        <time>2022-08-29T08:36:44Z</time>
      </trkpt>
      <trkpt lat="45.95934" lon="3.69007">
        <ele>1005.5</ele>
        <time>2022-08-29T08:36:45Z</time>
      </trkpt>
      <trkpt lat="45.95933" lon="3.69006">
        <ele>1005.7</ele>
        <time>2022-08-29T08:36:46Z</time>
      </trkpt>
      <trkpt lat="45.95932" lon="3.69005">
        <ele>1006</ele>
        <time>2022-08-29T08:36:47Z</time>
      </trkpt>
      <trkpt lat="45.9593" lon="3.69004">
        <ele>1006.3</ele>
        <time>2022-08-29T08:36:48Z</time>
      </trkpt>
      <trkpt lat="45.95929" lon="3.69003">
        <ele>1006.6</ele>
        <time>2022-08-29T08:36:49Z</time>
      </trkpt>
      <trkpt lat="45.95927" lon="3.69003">
        <ele>1006.9</ele>
        <time>2022-08-29T08:36:50Z</time>
      </trkpt>
      <trkpt lat="45.95926" lon="3.69003">
        <ele>1007.1</ele>
        <time>2022-08-29T08:36:51Z</time>
      </trkpt>
      <trkpt lat="45.95924" lon="3.69003">
        <ele>1007.4</ele>
        <time>2022-08-29T08:36:52Z</time>
      </trkpt>
      <trkpt lat="45.95923" lon="3.69003">
        <ele>1007.6</ele>
        <time>2022-08-29T08:36:53Z</time>
      </trkpt>
      <trkpt lat="45.95922" lon="3.69003">
        <ele>1007.8</ele>
        <time>2022-08-29T08:36:54Z</time>
      </trkpt>
      <trkpt lat="45.95921" lon="3.69002">
        <ele>1008</ele>
        <time>2022-08-29T08:36:55Z</time>
      </trkpt>
      <trkpt lat="45.9592" lon="3.69002">
        <ele>1008.2</ele>
        <time>2022-08-29T08:36:56Z</time>
      </trkpt>
      <trkpt lat="45.95919" lon="3.69001">
        <ele>1008.4</ele>
        <time>2022-08-29T08:36:57Z</time>
      </trkpt>
      <trkpt lat="45.95919" lon="3.69001">
        <ele>1008.5</ele>
        <time>2022-08-29T08:36:58Z</time>
      </trkpt>
      <trkpt lat="45.95918" lon="3.69">
        <ele>1008.6</ele>
        <time>2022-08-29T08:36:59Z</time>
      </trkpt>
      <trkpt lat="45.95917" lon="3.69">
        <ele>1008.7</ele>
        <time>2022-08-29T08:37:00Z</time>
      </trkpt>
      <trkpt lat="45.95917" lon="3.68999">
        <ele>1008.9</ele>
        <time>2022-08-29T08:37:01Z</time>
      </trkpt>
      <trkpt lat="45.95916" lon="3.68999">
        <ele>1009</ele>
        <time>2022-08-29T08:37:02Z</time>
      </trkpt>
      <trkpt lat="45.95915" lon="3.68998">
        <ele>1009.1</ele>
        <time>2022-08-29T08:37:03Z</time>
      </trkpt>
      <trkpt lat="45.95915" lon="3.68998">
        <ele>1009.2</ele>
        <time>2022-08-29T08:37:04Z</time>
      </trkpt>
      <trkpt lat="45.95915" lon="3.68998">
        <ele>1009.3</ele>
        <time>2022-08-29T08:37:05Z</time>
      </trkpt>
      <trkpt lat="45.95914" lon="3.68997">
        <ele>1009.4</ele>
        <time>2022-08-29T08:37:06Z</time>
      </trkpt>
      <trkpt lat="45.95914" lon="3.68997">
        <ele>1009.5</ele>
        <time>2022-08-29T08:37:07Z</time>
      </trkpt>
      <trkpt lat="45.95913" lon="3.68996">
        <ele>1009.5</ele>
        <time>2022-08-29T08:37:08Z</time>
      </trkpt>
      <trkpt lat="45.95913" lon="3.68996">
        <ele>1009.6</ele>
        <time>2022-08-29T08:37:09Z</time>
      </trkpt>
      <trkpt lat="45.95913" lon="3.68995">
        <ele>1009.7</ele>
        <time>2022-08-29T08:37:10Z</time>
      </trkpt>
      <trkpt lat="45.95913" lon="3.68995">
        <ele>1009.8</ele>
        <time>2022-08-29T08:37:11Z</time>
      </trkpt>
      <trkpt lat="45.95912" lon="3.68994">
        <ele>1009.9</ele>
        <time>2022-08-29T08:37:12Z</time>
      </trkpt>
      <trkpt lat="45.95911" lon="3.68994">
        <ele>1010</ele>
        <time>2022-08-29T08:37:13Z</time>
      </trkpt>
      <trkpt lat="45.95911" lon="3.68993">
        <ele>1010.2</ele>
        <time>2022-08-29T08:37:14Z</time>
      </trkpt>
      <trkpt lat="45.95909" lon="3.68992">
        <ele>1010.4</ele>
        <time>2022-08-29T08:37:15Z</time>
      </trkpt>
      <trkpt lat="45.95908" lon="3.68991">
        <ele>1010.7</ele>
        <time>2022-08-29T08:37:16Z</time>
      </trkpt>
      <trkpt lat="45.95907" lon="3.6899">
        <ele>1011</ele>
        <time>2022-08-29T08:37:17Z</time>
      </trkpt>
      <trkpt lat="45.95904" lon="3.68987">
        <ele>1011.5</ele>
        <time>2022-08-29T08:37:18Z</time>
      </trkpt>
      <trkpt lat="45.95903" lon="3.68987">
        <ele>1011.6</ele>
        <time>2022-08-29T08:37:19Z</time>
      </trkpt>
      <trkpt lat="45.959" lon="3.68984">
        <ele>1012.2</ele>
        <time>2022-08-29T08:37:20Z</time>
      </trkpt>
      <trkpt lat="45.959" lon="3.68983">
        <ele>1012.4</ele>
        <time>2022-08-29T08:37:21Z</time>
      </trkpt>
      <trkpt lat="45.95898" lon="3.68981">
        <ele>1012.7</ele>
        <time>2022-08-29T08:37:22Z</time>
      </trkpt>
      <trkpt lat="45.95897" lon="3.68979">
        <ele>1012.9</ele>
        <time>2022-08-29T08:37:23Z</time>
      </trkpt>
      <trkpt lat="45.95895" lon="3.68977">
        <ele>1013.4</ele>
        <time>2022-08-29T08:37:24Z</time>
      </trkpt>
      <trkpt lat="45.95894" lon="3.68976">
        <ele>1013.5</ele>
        <time>2022-08-29T08:37:25Z</time>
      </trkpt>
      <trkpt lat="45.95893" lon="3.68975">
        <ele>1013.8</ele>
        <time>2022-08-29T08:37:26Z</time>
      </trkpt>
      <trkpt lat="45.95891" lon="3.68974">
        <ele>1014</ele>
        <time>2022-08-29T08:37:27Z</time>
      </trkpt>
      <trkpt lat="45.9589" lon="3.68973">
        <ele>1014.3</ele>
        <time>2022-08-29T08:37:28Z</time>
      </trkpt>
      <trkpt lat="45.95888" lon="3.68972">
        <ele>1014.6</ele>
        <time>2022-08-29T08:37:29Z</time>
      </trkpt>
      <trkpt lat="45.95887" lon="3.68972">
        <ele>1014.8</ele>
        <time>2022-08-29T08:37:30Z</time>
      </trkpt>
      <trkpt lat="45.95886" lon="3.68971">
        <ele>1015</ele>
        <time>2022-08-29T08:37:31Z</time>
      </trkpt>
      <trkpt lat="45.95885" lon="3.68971">
        <ele>1015.2</ele>
        <time>2022-08-29T08:37:32Z</time>
      </trkpt>
      <trkpt lat="45.95884" lon="3.68971">
        <ele>1015.3</ele>
        <time>2022-08-29T08:37:33Z</time>
      </trkpt>
      <trkpt lat="45.95883" lon="3.6897">
        <ele>1015.5</ele>
        <time>2022-08-29T08:37:34Z</time>
      </trkpt>
      <trkpt lat="45.95882" lon="3.6897">
        <ele>1015.6</ele>
        <time>2022-08-29T08:37:35Z</time>
      </trkpt>
      <trkpt lat="45.95881" lon="3.68969">
        <ele>1015.9</ele>
        <time>2022-08-29T08:37:36Z</time>
      </trkpt>
      <trkpt lat="45.9588" lon="3.68969">
        <ele>1016</ele>
        <time>2022-08-29T08:37:37Z</time>
      </trkpt>
      <trkpt lat="45.95878" lon="3.68968">
        <ele>1016.2</ele>
        <time>2022-08-29T08:37:38Z</time>
      </trkpt>
      <trkpt lat="45.95878" lon="3.68968">
        <ele>1016.4</ele>
        <time>2022-08-29T08:37:39Z</time>
      </trkpt>
      <trkpt lat="45.95877" lon="3.68968">
        <ele>1016.5</ele>
        <time>2022-08-29T08:37:40Z</time>
      </trkpt>
      <trkpt lat="45.95876" lon="3.68968">
        <ele>1016.6</ele>
        <time>2022-08-29T08:37:41Z</time>
      </trkpt>
      <trkpt lat="45.95876" lon="3.68968">
        <ele>1016.7</ele>
        <time>2022-08-29T08:37:42Z</time>
      </trkpt>
      <trkpt lat="45.95875" lon="3.68968">
        <ele>1016.9</ele>
        <time>2022-08-29T08:37:43Z</time>
      </trkpt>
      <trkpt lat="45.95873" lon="3.68969">
        <ele>1017.1</ele>
        <time>2022-08-29T08:37:44Z</time>
      </trkpt>
      <trkpt lat="45.95872" lon="3.68969">
        <ele>1017.3</ele>
        <time>2022-08-29T08:37:45Z</time>
      </trkpt>
      <trkpt lat="45.95872" lon="3.6897">
        <ele>1017.4</ele>
        <time>2022-08-29T08:37:46Z</time>
      </trkpt>
      <trkpt lat="45.95871" lon="3.68971">
        <ele>1017.5</ele>
        <time>2022-08-29T08:37:47Z</time>
      </trkpt>
      <trkpt lat="45.9587" lon="3.68971">
        <ele>1017.6</ele>
        <time>2022-08-29T08:37:48Z</time>
      </trkpt>
      <trkpt lat="45.9587" lon="3.68971">
        <ele>1017.7</ele>
        <time>2022-08-29T08:37:49Z</time>
      </trkpt>
      <trkpt lat="45.9587" lon="3.68972">
        <ele>1017.8</ele>
        <time>2022-08-29T08:37:50Z</time>
      </trkpt>
      <trkpt lat="45.9587" lon="3.68972">
        <ele>1017.8</ele>
        <time>2022-08-29T08:37:51Z</time>
      </trkpt>
      <trkpt lat="45.95869" lon="3.68972">
        <ele>1017.9</ele>
        <time>2022-08-29T08:37:52Z</time>
      </trkpt>
      <trkpt lat="45.95869" lon="3.68973">
        <ele>1017.9</ele>
        <time>2022-08-29T08:37:53Z</time>
      </trkpt>
      <trkpt lat="45.95868" lon="3.68973">
        <ele>1018.1</ele>
        <time>2022-08-29T08:37:54Z</time>
      </trkpt>
      <trkpt lat="45.95867" lon="3.68973">
        <ele>1018.2</ele>
        <time>2022-08-29T08:37:55Z</time>
      </trkpt>
      <trkpt lat="45.95866" lon="3.68974">
        <ele>1018.4</ele>
        <time>2022-08-29T08:37:56Z</time>
      </trkpt>
      <trkpt lat="45.95865" lon="3.68975">
        <ele>1018.6</ele>
        <time>2022-08-29T08:37:57Z</time>
      </trkpt>
      <trkpt lat="45.95864" lon="3.68975">
        <ele>1018.8</ele>
        <time>2022-08-29T08:37:58Z</time>
      </trkpt>
      <trkpt lat="45.95863" lon="3.68975">
        <ele>1018.9</ele>
        <time>2022-08-29T08:37:59Z</time>
      </trkpt>
      <trkpt lat="45.95861" lon="3.68975">
        <ele>1019.1</ele>
        <time>2022-08-29T08:38:00Z</time>
      </trkpt>
      <trkpt lat="45.95859" lon="3.68974">
        <ele>1019.5</ele>
        <time>2022-08-29T08:38:01Z</time>
      </trkpt>
      <trkpt lat="45.95858" lon="3.68973">
        <ele>1019.6</ele>
        <time>2022-08-29T08:38:02Z</time>
      </trkpt>
      <trkpt lat="45.95858" lon="3.68973">
        <ele>1019.7</ele>
        <time>2022-08-29T08:38:03Z</time>
      </trkpt>
      <trkpt lat="45.95856" lon="3.68972">
        <ele>1020</ele>
        <time>2022-08-29T08:38:04Z</time>
      </trkpt>
      <trkpt lat="45.95855" lon="3.68972">
        <ele>1020.2</ele>
        <time>2022-08-29T08:38:05Z</time>
      </trkpt>
      <trkpt lat="45.95853" lon="3.68971">
        <ele>1020.5</ele>
        <time>2022-08-29T08:38:06Z</time>
      </trkpt>
      <trkpt lat="45.95851" lon="3.68971">
        <ele>1020.7</ele>
        <time>2022-08-29T08:38:07Z</time>
      </trkpt>
      <trkpt lat="45.9585" lon="3.68971">
        <ele>1020.9</ele>
        <time>2022-08-29T08:38:08Z</time>
      </trkpt>
      <trkpt lat="45.95848" lon="3.6897">
        <ele>1021.2</ele>
        <time>2022-08-29T08:38:09Z</time>
      </trkpt>
      <trkpt lat="45.95846" lon="3.68968">
        <ele>1021.6</ele>
        <time>2022-08-29T08:38:10Z</time>
      </trkpt>
      <trkpt lat="45.95845" lon="3.68967">
        <ele>1021.7</ele>
        <time>2022-08-29T08:38:11Z</time>
      </trkpt>
      <trkpt lat="45.95842" lon="3.68965">
        <ele>1022.2</ele>
        <time>2022-08-29T08:38:12Z</time>
      </trkpt>
      <trkpt lat="45.95841" lon="3.68964">
        <ele>1022.3</ele>
        <time>2022-08-29T08:38:13Z</time>
      </trkpt>
      <trkpt lat="45.9584" lon="3.68962">
        <ele>1022.5</ele>
        <time>2022-08-29T08:38:14Z</time>
      </trkpt>
      <trkpt lat="45.95839" lon="3.68961">
        <ele>1022.7</ele>
        <time>2022-08-29T08:38:15Z</time>
      </trkpt>
      <trkpt lat="45.95838" lon="3.6896">
        <ele>1022.8</ele>
        <time>2022-08-29T08:38:16Z</time>
      </trkpt>
      <trkpt lat="45.95837" lon="3.6896">
        <ele>1022.9</ele>
        <time>2022-08-29T08:38:17Z</time>
      </trkpt>
      <trkpt lat="45.95836" lon="3.6896">
        <ele>1023</ele>
        <time>2022-08-29T08:38:18Z</time>
      </trkpt>
      <trkpt lat="45.95834" lon="3.6896">
        <ele>1023.3</ele>
        <time>2022-08-29T08:38:19Z</time>
      </trkpt>
      <trkpt lat="45.95832" lon="3.68959">
        <ele>1023.5</ele>
        <time>2022-08-29T08:38:20Z</time>
      </trkpt>
      <trkpt lat="45.9583" lon="3.68959">
        <ele>1023.7</ele>
        <time>2022-08-29T08:38:21Z</time>
      </trkpt>
      <trkpt lat="45.9583" lon="3.68959">
        <ele>1023.8</ele>
        <time>2022-08-29T08:38:22Z</time>
      </trkpt>
      <trkpt lat="45.95829" lon="3.68959">
        <ele>1023.9</ele>
        <time>2022-08-29T08:38:23Z</time>
      </trkpt>
      <trkpt lat="45.95827" lon="3.68959">
        <ele>1024.1</ele>
        <time>2022-08-29T08:38:24Z</time>
      </trkpt>
      <trkpt lat="45.95826" lon="3.68959">
        <ele>1024.2</ele>
        <time>2022-08-29T08:38:25Z</time>
      </trkpt>
      <trkpt lat="45.95825" lon="3.68959">
        <ele>1024.3</ele>
        <time>2022-08-29T08:38:26Z</time>
      </trkpt>
      <trkpt lat="45.95824" lon="3.68959">
        <ele>1024.4</ele>
        <time>2022-08-29T08:38:27Z</time>
      </trkpt>
      <trkpt lat="45.95823" lon="3.6896">
        <ele>1024.5</ele>
        <time>2022-08-29T08:38:28Z</time>
      </trkpt>
      <trkpt lat="45.95823" lon="3.6896">
        <ele>1024.6</ele>
        <time>2022-08-29T08:38:29Z</time>
      </trkpt>
      <trkpt lat="45.95822" lon="3.68959">
        <ele>1024.7</ele>
        <time>2022-08-29T08:38:30Z</time>
      </trkpt>
      <trkpt lat="45.9582" lon="3.68959">
        <ele>1024.9</ele>
        <time>2022-08-29T08:38:31Z</time>
      </trkpt>
      <trkpt lat="45.95819" lon="3.68958">
        <ele>1025</ele>
        <time>2022-08-29T08:38:32Z</time>
      </trkpt>
      <trkpt lat="45.95819" lon="3.68958">
        <ele>1025.1</ele>
        <time>2022-08-29T08:38:33Z</time>
      </trkpt>
      <trkpt lat="45.95818" lon="3.68958">
        <ele>1025.2</ele>
        <time>2022-08-29T08:38:34Z</time>
      </trkpt>
      <trkpt lat="45.95817" lon="3.68957">
        <ele>1025.3</ele>
        <time>2022-08-29T08:38:35Z</time>
      </trkpt>
      <trkpt lat="45.95817" lon="3.68957">
        <ele>1025.3</ele>
        <time>2022-08-29T08:38:36Z</time>
      </trkpt>
      <trkpt lat="45.95818" lon="3.68957">
        <ele>1025.4</ele>
        <time>2022-08-29T08:38:37Z</time>
      </trkpt>
      <trkpt lat="45.95818" lon="3.68956">
        <ele>1025.5</ele>
        <time>2022-08-29T08:38:38Z</time>
      </trkpt>
      <trkpt lat="45.95819" lon="3.68956">
        <ele>1025.5</ele>
        <time>2022-08-29T08:38:39Z</time>
      </trkpt>
      <trkpt lat="45.95819" lon="3.68956">
        <ele>1025.6</ele>
        <time>2022-08-29T08:38:40Z</time>
      </trkpt>
      <trkpt lat="45.9582" lon="3.68956">
        <ele>1025.7</ele>
        <time>2022-08-29T08:38:41Z</time>
      </trkpt>
      <trkpt lat="45.9582" lon="3.68956">
        <ele>1025.7</ele>
        <time>2022-08-29T08:38:42Z</time>
      </trkpt>
      <trkpt lat="45.9582" lon="3.68956">
        <ele>1025.7</ele>
        <time>2022-08-29T08:38:43Z</time>
      </trkpt>
      <trkpt lat="45.9582" lon="3.68956">
        <ele>1025.7</ele>
        <time>2022-08-29T08:38:44Z</time>
      </trkpt>
      <trkpt lat="45.9582" lon="3.68956">
        <ele>1025.7</ele>
        <time>2022-08-29T08:38:45Z</time>
      </trkpt>
      <trkpt lat="45.9582" lon="3.68956">
        <ele>1025.7</ele>
        <time>2022-08-29T08:38:46Z</time>
      </trkpt>
      <trkpt lat="45.9582" lon="3.68956">
        <ele>1025.8</ele>
        <time>2022-08-29T08:38:47Z</time>
      </trkpt>
      <trkpt lat="45.9582" lon="3.68956">
        <ele>1025.8</ele>
        <time>2022-08-29T08:38:48Z</time>
      </trkpt>
      <trkpt lat="45.9582" lon="3.68956">
        <ele>1025.8</ele>
        <time>2022-08-29T08:38:49Z</time>
      </trkpt>
      <trkpt lat="45.95819" lon="3.68957">
        <ele>1025.8</ele>
        <time>2022-08-29T08:38:50Z</time>
      </trkpt>
      <trkpt lat="45.95819" lon="3.68957">
        <ele>1025.9</ele>
        <time>2022-08-29T08:38:51Z</time>
      </trkpt>
      <trkpt lat="45.95819" lon="3.68957">
        <ele>1025.9</ele>
        <time>2022-08-29T08:38:52Z</time>
      </trkpt>
      <trkpt lat="45.95817" lon="3.68957">
        <ele>1026.1</ele>
        <time>2022-08-29T08:38:53Z</time>
      </trkpt>
      <trkpt lat="45.95816" lon="3.68956">
        <ele>1026.3</ele>
        <time>2022-08-29T08:38:54Z</time>
      </trkpt>
      <trkpt lat="45.95813" lon="3.68955">
        <ele>1026.6</ele>
        <time>2022-08-29T08:38:55Z</time>
      </trkpt>
      <trkpt lat="45.95811" lon="3.68955">
        <ele>1026.8</ele>
        <time>2022-08-29T08:38:56Z</time>
      </trkpt>
      <trkpt lat="45.95809" lon="3.68953">
        <ele>1027.1</ele>
        <time>2022-08-29T08:38:57Z</time>
      </trkpt>
      <trkpt lat="45.95808" lon="3.68953">
        <ele>1027.2</ele>
        <time>2022-08-29T08:38:58Z</time>
      </trkpt>
      <trkpt lat="45.95806" lon="3.68951">
        <ele>1027.6</ele>
        <time>2022-08-29T08:38:59Z</time>
      </trkpt>
      <trkpt lat="45.95805" lon="3.6895">
        <ele>1027.7</ele>
        <time>2022-08-29T08:39:00Z</time>
      </trkpt>
      <trkpt lat="45.95802" lon="3.68947">
        <ele>1028.2</ele>
        <time>2022-08-29T08:39:01Z</time>
      </trkpt>
      <trkpt lat="45.95802" lon="3.68946">
        <ele>1028.3</ele>
        <time>2022-08-29T08:39:02Z</time>
      </trkpt>
      <trkpt lat="45.95799" lon="3.68943">
        <ele>1028.7</ele>
        <time>2022-08-29T08:39:03Z</time>
      </trkpt>
      <trkpt lat="45.95798" lon="3.68941">
        <ele>1028.9</ele>
        <time>2022-08-29T08:39:04Z</time>
      </trkpt>
      <trkpt lat="45.95796" lon="3.68938">
        <ele>1029.3</ele>
        <time>2022-08-29T08:39:05Z</time>
      </trkpt>
      <trkpt lat="45.95793" lon="3.68935">
        <ele>1029.8</ele>
        <time>2022-08-29T08:39:06Z</time>
      </trkpt>
      <trkpt lat="45.9579" lon="3.68931">
        <ele>1030.2</ele>
        <time>2022-08-29T08:39:07Z</time>
      </trkpt>
      <trkpt lat="45.95789" lon="3.6893">
        <ele>1030.4</ele>
        <time>2022-08-29T08:39:08Z</time>
      </trkpt>
      <trkpt lat="45.95788" lon="3.68928">
        <ele>1030.6</ele>
        <time>2022-08-29T08:39:09Z</time>
      </trkpt>
      <trkpt lat="45.95787" lon="3.68926">
        <ele>1030.8</ele>
        <time>2022-08-29T08:39:10Z</time>
      </trkpt>
      <trkpt lat="45.95786" lon="3.68924">
        <ele>1031.1</ele>
        <time>2022-08-29T08:39:11Z</time>
      </trkpt>
      <trkpt lat="45.95785" lon="3.68922">
        <ele>1031.3</ele>
        <time>2022-08-29T08:39:12Z</time>
      </trkpt>
      <trkpt lat="45.95784" lon="3.68921">
        <ele>1031.5</ele>
        <time>2022-08-29T08:39:13Z</time>
      </trkpt>
      <trkpt lat="45.95784" lon="3.68919">
        <ele>1031.6</ele>
        <time>2022-08-29T08:39:14Z</time>
      </trkpt>
      <trkpt lat="45.95783" lon="3.68917">
        <ele>1031.8</ele>
        <time>2022-08-29T08:39:15Z</time>
      </trkpt>
      <trkpt lat="45.95782" lon="3.68915">
        <ele>1032</ele>
        <time>2022-08-29T08:39:16Z</time>
      </trkpt>
      <trkpt lat="45.95782" lon="3.68915">
        <ele>1032.1</ele>
        <time>2022-08-29T08:39:17Z</time>
      </trkpt>
      <trkpt lat="45.95781" lon="3.68914">
        <ele>1032.2</ele>
        <time>2022-08-29T08:39:18Z</time>
      </trkpt>
      <trkpt lat="45.9578" lon="3.68914">
        <ele>1032.3</ele>
        <time>2022-08-29T08:39:19Z</time>
      </trkpt>
      <trkpt lat="45.9578" lon="3.68913">
        <ele>1032.4</ele>
        <time>2022-08-29T08:39:20Z</time>
      </trkpt>
      <trkpt lat="45.95778" lon="3.68912">
        <ele>1032.6</ele>
        <time>2022-08-29T08:39:21Z</time>
      </trkpt>
      <trkpt lat="45.95777" lon="3.68912">
        <ele>1032.7</ele>
        <time>2022-08-29T08:39:22Z</time>
      </trkpt>
      <trkpt lat="45.95776" lon="3.68911">
        <ele>1032.9</ele>
        <time>2022-08-29T08:39:23Z</time>
      </trkpt>
      <trkpt lat="45.95775" lon="3.68909">
        <ele>1033.1</ele>
        <time>2022-08-29T08:39:24Z</time>
      </trkpt>
      <trkpt lat="45.95774" lon="3.68908">
        <ele>1033.3</ele>
        <time>2022-08-29T08:39:25Z</time>
      </trkpt>
      <trkpt lat="45.95773" lon="3.68908">
        <ele>1033.4</ele>
        <time>2022-08-29T08:39:26Z</time>
      </trkpt>
      <trkpt lat="45.95772" lon="3.68905">
        <ele>1033.7</ele>
        <time>2022-08-29T08:39:27Z</time>
      </trkpt>
      <trkpt lat="45.95771" lon="3.68904">
        <ele>1033.8</ele>
        <time>2022-08-29T08:39:28Z</time>
      </trkpt>
      <trkpt lat="45.9577" lon="3.68903">
        <ele>1033.9</ele>
        <time>2022-08-29T08:39:29Z</time>
      </trkpt>
      <trkpt lat="45.9577" lon="3.68902">
        <ele>1034.1</ele>
        <time>2022-08-29T08:39:30Z</time>
      </trkpt>
      <trkpt lat="45.95769" lon="3.689">
        <ele>1034.3</ele>
        <time>2022-08-29T08:39:31Z</time>
      </trkpt>
      <trkpt lat="45.95769" lon="3.68899">
        <ele>1034.4</ele>
        <time>2022-08-29T08:39:32Z</time>
      </trkpt>
      <trkpt lat="45.95768" lon="3.68897">
        <ele>1034.6</ele>
        <time>2022-08-29T08:39:33Z</time>
      </trkpt>
      <trkpt lat="45.95768" lon="3.68897">
        <ele>1034.7</ele>
        <time>2022-08-29T08:39:34Z</time>
      </trkpt>
      <trkpt lat="45.95767" lon="3.68896">
        <ele>1034.8</ele>
        <time>2022-08-29T08:39:35Z</time>
      </trkpt>
      <trkpt lat="45.95767" lon="3.68895">
        <ele>1034.9</ele>
        <time>2022-08-29T08:39:36Z</time>
      </trkpt>
      <trkpt lat="45.95765" lon="3.68892">
        <ele>1035.3</ele>
        <time>2022-08-29T08:39:37Z</time>
      </trkpt>
      <trkpt lat="45.95764" lon="3.68891">
        <ele>1035.4</ele>
        <time>2022-08-29T08:39:38Z</time>
      </trkpt>
      <trkpt lat="45.95762" lon="3.6889">
        <ele>1035.6</ele>
        <time>2022-08-29T08:39:39Z</time>
      </trkpt>
      <trkpt lat="45.95761" lon="3.68889">
        <ele>1035.8</ele>
        <time>2022-08-29T08:39:40Z</time>
      </trkpt>
      <trkpt lat="45.9576" lon="3.68887">
        <ele>1036</ele>
        <time>2022-08-29T08:39:41Z</time>
      </trkpt>
      <trkpt lat="45.95759" lon="3.68887">
        <ele>1036.1</ele>
        <time>2022-08-29T08:39:42Z</time>
      </trkpt>
      <trkpt lat="45.95759" lon="3.68886">
        <ele>1036.2</ele>
        <time>2022-08-29T08:39:43Z</time>
      </trkpt>
      <trkpt lat="45.95758" lon="3.68886">
        <ele>1036.3</ele>
        <time>2022-08-29T08:39:44Z</time>
      </trkpt>
      <trkpt lat="45.95758" lon="3.68886">
        <ele>1036.4</ele>
        <time>2022-08-29T08:39:45Z</time>
      </trkpt>
      <trkpt lat="45.95757" lon="3.68886">
        <ele>1036.5</ele>
        <time>2022-08-29T08:39:46Z</time>
      </trkpt>
      <trkpt lat="45.95756" lon="3.68886">
        <ele>1036.5</ele>
        <time>2022-08-29T08:39:47Z</time>
      </trkpt>
      <trkpt lat="45.95756" lon="3.68886">
        <ele>1036.6</ele>
        <time>2022-08-29T08:39:48Z</time>
      </trkpt>
      <trkpt lat="45.95754" lon="3.68884">
        <ele>1036.9</ele>
        <time>2022-08-29T08:39:49Z</time>
      </trkpt>
      <trkpt lat="45.95753" lon="3.68883">
        <ele>1037</ele>
        <time>2022-08-29T08:39:50Z</time>
      </trkpt>
      <trkpt lat="45.95752" lon="3.68882">
        <ele>1037.1</ele>
        <time>2022-08-29T08:39:51Z</time>
      </trkpt>
      <trkpt lat="45.95752" lon="3.68882">
        <ele>1037.2</ele>
        <time>2022-08-29T08:39:52Z</time>
      </trkpt>
      <trkpt lat="45.95751" lon="3.68882">
        <ele>1037.3</ele>
        <time>2022-08-29T08:39:53Z</time>
      </trkpt>
      <trkpt lat="45.9575" lon="3.68881">
        <ele>1037.4</ele>
        <time>2022-08-29T08:39:54Z</time>
      </trkpt>
      <trkpt lat="45.95749" lon="3.68881">
        <ele>1037.5</ele>
        <time>2022-08-29T08:39:55Z</time>
      </trkpt>
      <trkpt lat="45.95747" lon="3.68881">
        <ele>1037.7</ele>
        <time>2022-08-29T08:39:56Z</time>
      </trkpt>
      <trkpt lat="45.95746" lon="3.6888">
        <ele>1037.9</ele>
        <time>2022-08-29T08:39:57Z</time>
      </trkpt>
      <trkpt lat="45.95745" lon="3.6888">
        <ele>1038</ele>
        <time>2022-08-29T08:39:58Z</time>
      </trkpt>
      <trkpt lat="45.95743" lon="3.68879">
        <ele>1038.3</ele>
        <time>2022-08-29T08:39:59Z</time>
      </trkpt>
      <trkpt lat="45.9574" lon="3.68877">
        <ele>1038.6</ele>
        <time>2022-08-29T08:40:00Z</time>
      </trkpt>
      <trkpt lat="45.95739" lon="3.68877">
        <ele>1038.7</ele>
        <time>2022-08-29T08:40:01Z</time>
      </trkpt>
      <trkpt lat="45.95738" lon="3.68876">
        <ele>1038.9</ele>
        <time>2022-08-29T08:40:02Z</time>
      </trkpt>
      <trkpt lat="45.95737" lon="3.68875">
        <ele>1039</ele>
        <time>2022-08-29T08:40:03Z</time>
      </trkpt>
      <trkpt lat="45.95735" lon="3.68874">
        <ele>1039.3</ele>
        <time>2022-08-29T08:40:04Z</time>
      </trkpt>
      <trkpt lat="45.95734" lon="3.68874">
        <ele>1039.4</ele>
        <time>2022-08-29T08:40:05Z</time>
      </trkpt>
      <trkpt lat="45.95733" lon="3.68873">
        <ele>1039.5</ele>
        <time>2022-08-29T08:40:06Z</time>
      </trkpt>
      <trkpt lat="45.95732" lon="3.68873">
        <ele>1039.6</ele>
        <time>2022-08-29T08:40:07Z</time>
      </trkpt>
      <trkpt lat="45.95731" lon="3.68871">
        <ele>1039.8</ele>
        <time>2022-08-29T08:40:08Z</time>
      </trkpt>
      <trkpt lat="45.9573" lon="3.6887">
        <ele>1039.9</ele>
        <time>2022-08-29T08:40:09Z</time>
      </trkpt>
      <trkpt lat="45.95729" lon="3.68868">
        <ele>1040.1</ele>
        <time>2022-08-29T08:40:10Z</time>
      </trkpt>
      <trkpt lat="45.95728" lon="3.68865">
        <ele>1040.3</ele>
        <time>2022-08-29T08:40:11Z</time>
      </trkpt>
      <trkpt lat="45.95728" lon="3.68863">
        <ele>1040.4</ele>
        <time>2022-08-29T08:40:12Z</time>
      </trkpt>
      <trkpt lat="45.95728" lon="3.68861">
        <ele>1040.5</ele>
        <time>2022-08-29T08:40:13Z</time>
      </trkpt>
      <trkpt lat="45.95728" lon="3.6886">
        <ele>1040.6</ele>
        <time>2022-08-29T08:40:14Z</time>
      </trkpt>
      <trkpt lat="45.95729" lon="3.68858">
        <ele>1040.6</ele>
        <time>2022-08-29T08:40:15Z</time>
      </trkpt>
      <trkpt lat="45.95729" lon="3.68857">
        <ele>1040.7</ele>
        <time>2022-08-29T08:40:16Z</time>
      </trkpt>
      <trkpt lat="45.95729" lon="3.68856">
        <ele>1040.8</ele>
        <time>2022-08-29T08:40:17Z</time>
      </trkpt>
      <trkpt lat="45.95729" lon="3.68855">
        <ele>1040.9</ele>
        <time>2022-08-29T08:40:18Z</time>
      </trkpt>
      <trkpt lat="45.95729" lon="3.68854">
        <ele>1040.9</ele>
        <time>2022-08-29T08:40:19Z</time>
      </trkpt>
      <trkpt lat="45.95729" lon="3.68853">
        <ele>1041</ele>
        <time>2022-08-29T08:40:20Z</time>
      </trkpt>
      <trkpt lat="45.95729" lon="3.68851">
        <ele>1041</ele>
        <time>2022-08-29T08:40:21Z</time>
      </trkpt>
      <trkpt lat="45.95729" lon="3.6885">
        <ele>1041.1</ele>
        <time>2022-08-29T08:40:22Z</time>
      </trkpt>
      <trkpt lat="45.95729" lon="3.6885">
        <ele>1041.1</ele>
        <time>2022-08-29T08:40:23Z</time>
      </trkpt>
      <trkpt lat="45.95729" lon="3.68849">
        <ele>1041.2</ele>
        <time>2022-08-29T08:40:24Z</time>
      </trkpt>
      <trkpt lat="45.95729" lon="3.68848">
        <ele>1041.2</ele>
        <time>2022-08-29T08:40:25Z</time>
      </trkpt>
      <trkpt lat="45.95728" lon="3.68848">
        <ele>1041.3</ele>
        <time>2022-08-29T08:40:26Z</time>
      </trkpt>
      <trkpt lat="45.95727" lon="3.68847">
        <ele>1041.4</ele>
        <time>2022-08-29T08:40:27Z</time>
      </trkpt>
      <trkpt lat="45.95726" lon="3.68846">
        <ele>1041.4</ele>
        <time>2022-08-29T08:40:28Z</time>
      </trkpt>
      <trkpt lat="45.95725" lon="3.68845">
        <ele>1041.5</ele>
        <time>2022-08-29T08:40:29Z</time>
      </trkpt>
      <trkpt lat="45.95724" lon="3.68845">
        <ele>1041.7</ele>
        <time>2022-08-29T08:40:30Z</time>
      </trkpt>
      <trkpt lat="45.95722" lon="3.68843">
        <ele>1041.8</ele>
        <time>2022-08-29T08:40:31Z</time>
      </trkpt>
      <trkpt lat="45.95721" lon="3.68842">
        <ele>1041.9</ele>
        <time>2022-08-29T08:40:32Z</time>
      </trkpt>
      <trkpt lat="45.9572" lon="3.68841">
        <ele>1042.1</ele>
        <time>2022-08-29T08:40:33Z</time>
      </trkpt>
      <trkpt lat="45.95719" lon="3.68839">
        <ele>1042.2</ele>
        <time>2022-08-29T08:40:34Z</time>
      </trkpt>
      <trkpt lat="45.95718" lon="3.68837">
        <ele>1042.3</ele>
        <time>2022-08-29T08:40:35Z</time>
      </trkpt>
      <trkpt lat="45.95717" lon="3.68836">
        <ele>1042.4</ele>
        <time>2022-08-29T08:40:36Z</time>
      </trkpt>
      <trkpt lat="45.95717" lon="3.68835">
        <ele>1042.5</ele>
        <time>2022-08-29T08:40:37Z</time>
      </trkpt>
      <trkpt lat="45.95716" lon="3.68833">
        <ele>1042.6</ele>
        <time>2022-08-29T08:40:38Z</time>
      </trkpt>
      <trkpt lat="45.95716" lon="3.68831">
        <ele>1042.7</ele>
        <time>2022-08-29T08:40:39Z</time>
      </trkpt>
      <trkpt lat="45.95715" lon="3.68826">
        <ele>1042.9</ele>
        <time>2022-08-29T08:40:40Z</time>
      </trkpt>
      <trkpt lat="45.95715" lon="3.68824">
        <ele>1043</ele>
        <time>2022-08-29T08:40:41Z</time>
      </trkpt>
      <trkpt lat="45.95714" lon="3.68822">
        <ele>1043.1</ele>
        <time>2022-08-29T08:40:42Z</time>
      </trkpt>
      <trkpt lat="45.95714" lon="3.6882">
        <ele>1043.3</ele>
        <time>2022-08-29T08:40:43Z</time>
      </trkpt>
      <trkpt lat="45.95714" lon="3.68818">
        <ele>1043.4</ele>
        <time>2022-08-29T08:40:44Z</time>
      </trkpt>
      <trkpt lat="45.95713" lon="3.68816">
        <ele>1043.5</ele>
        <time>2022-08-29T08:40:45Z</time>
      </trkpt>
      <trkpt lat="45.9571" lon="3.68813">
        <ele>1043.7</ele>
        <time>2022-08-29T08:40:46Z</time>
      </trkpt>
      <trkpt lat="45.9571" lon="3.68812">
        <ele>1043.8</ele>
        <time>2022-08-29T08:40:47Z</time>
      </trkpt>
      <trkpt lat="45.95709" lon="3.68811">
        <ele>1043.9</ele>
        <time>2022-08-29T08:40:48Z</time>
      </trkpt>
      <trkpt lat="45.95708" lon="3.6881">
        <ele>1043.9</ele>
        <time>2022-08-29T08:40:49Z</time>
      </trkpt>
      <trkpt lat="45.95708" lon="3.68809">
        <ele>1044</ele>
        <time>2022-08-29T08:40:50Z</time>
      </trkpt>
      <trkpt lat="45.95707" lon="3.68809">
        <ele>1044.1</ele>
        <time>2022-08-29T08:40:51Z</time>
      </trkpt>
      <trkpt lat="45.95707" lon="3.68808">
        <ele>1044.1</ele>
        <time>2022-08-29T08:40:52Z</time>
      </trkpt>
      <trkpt lat="45.95707" lon="3.68807">
        <ele>1044.2</ele>
        <time>2022-08-29T08:40:53Z</time>
      </trkpt>
      <trkpt lat="45.95706" lon="3.68806">
        <ele>1044.3</ele>
        <time>2022-08-29T08:40:54Z</time>
      </trkpt>
      <trkpt lat="45.95706" lon="3.68804">
        <ele>1044.4</ele>
        <time>2022-08-29T08:40:55Z</time>
      </trkpt>
      <trkpt lat="45.95706" lon="3.68802">
        <ele>1044.5</ele>
        <time>2022-08-29T08:40:56Z</time>
      </trkpt>
      <trkpt lat="45.95706" lon="3.68801">
        <ele>1044.6</ele>
        <time>2022-08-29T08:40:57Z</time>
      </trkpt>
      <trkpt lat="45.95706" lon="3.688">
        <ele>1044.7</ele>
        <time>2022-08-29T08:40:58Z</time>
      </trkpt>
      <trkpt lat="45.95705" lon="3.68798">
        <ele>1044.8</ele>
        <time>2022-08-29T08:40:59Z</time>
      </trkpt>
      <trkpt lat="45.95705" lon="3.68797">
        <ele>1044.8</ele>
        <time>2022-08-29T08:41:00Z</time>
      </trkpt>
      <trkpt lat="45.95705" lon="3.68796">
        <ele>1044.9</ele>
        <time>2022-08-29T08:41:01Z</time>
      </trkpt>
      <trkpt lat="45.95705" lon="3.68795">
        <ele>1045</ele>
        <time>2022-08-29T08:41:02Z</time>
      </trkpt>
      <trkpt lat="45.95704" lon="3.68794">
        <ele>1045</ele>
        <time>2022-08-29T08:41:03Z</time>
      </trkpt>
      <trkpt lat="45.95704" lon="3.68794">
        <ele>1045.1</ele>
        <time>2022-08-29T08:41:04Z</time>
      </trkpt>
      <trkpt lat="45.95704" lon="3.68793">
        <ele>1045.1</ele>
        <time>2022-08-29T08:41:05Z</time>
      </trkpt>
      <trkpt lat="45.95704" lon="3.68792">
        <ele>1045.2</ele>
        <time>2022-08-29T08:41:06Z</time>
      </trkpt>
      <trkpt lat="45.95704" lon="3.68791">
        <ele>1045.3</ele>
        <time>2022-08-29T08:41:07Z</time>
      </trkpt>
      <trkpt lat="45.95703" lon="3.68788">
        <ele>1045.6</ele>
        <time>2022-08-29T08:41:08Z</time>
      </trkpt>
      <trkpt lat="45.95702" lon="3.68786">
        <ele>1045.7</ele>
        <time>2022-08-29T08:41:09Z</time>
      </trkpt>
      <trkpt lat="45.95702" lon="3.68785">
        <ele>1045.8</ele>
        <time>2022-08-29T08:41:10Z</time>
      </trkpt>
      <trkpt lat="45.95701" lon="3.68781">
        <ele>1046.1</ele>
        <time>2022-08-29T08:41:11Z</time>
      </trkpt>
      <trkpt lat="45.957" lon="3.6878">
        <ele>1046.2</ele>
        <time>2022-08-29T08:41:12Z</time>
      </trkpt>
      <trkpt lat="45.95699" lon="3.68776">
        <ele>1046.5</ele>
        <time>2022-08-29T08:41:13Z</time>
      </trkpt>
      <trkpt lat="45.95698" lon="3.68775">
        <ele>1046.6</ele>
        <time>2022-08-29T08:41:14Z</time>
      </trkpt>
      <trkpt lat="45.95697" lon="3.68771">
        <ele>1046.9</ele>
        <time>2022-08-29T08:41:15Z</time>
      </trkpt>
      <trkpt lat="45.95696" lon="3.68769">
        <ele>1047.1</ele>
        <time>2022-08-29T08:41:16Z</time>
      </trkpt>
      <trkpt lat="45.95695" lon="3.68767">
        <ele>1047.2</ele>
        <time>2022-08-29T08:41:17Z</time>
      </trkpt>
      <trkpt lat="45.95695" lon="3.68765">
        <ele>1047.4</ele>
        <time>2022-08-29T08:41:18Z</time>
      </trkpt>
      <trkpt lat="45.95694" lon="3.68762">
        <ele>1047.6</ele>
        <time>2022-08-29T08:41:19Z</time>
      </trkpt>
      <trkpt lat="45.95693" lon="3.6876">
        <ele>1047.7</ele>
        <time>2022-08-29T08:41:20Z</time>
      </trkpt>
      <trkpt lat="45.95693" lon="3.68759">
        <ele>1047.8</ele>
        <time>2022-08-29T08:41:21Z</time>
      </trkpt>
      <trkpt lat="45.95692" lon="3.68758">
        <ele>1047.9</ele>
        <time>2022-08-29T08:41:22Z</time>
      </trkpt>
      <trkpt lat="45.95691" lon="3.68756">
        <ele>1048</ele>
        <time>2022-08-29T08:41:23Z</time>
      </trkpt>
      <trkpt lat="45.9569" lon="3.68754">
        <ele>1048.2</ele>
        <time>2022-08-29T08:41:24Z</time>
      </trkpt>
      <trkpt lat="45.9569" lon="3.68752">
        <ele>1048.3</ele>
        <time>2022-08-29T08:41:25Z</time>
      </trkpt>
      <trkpt lat="45.95689" lon="3.6875">
        <ele>1048.4</ele>
        <time>2022-08-29T08:41:26Z</time>
      </trkpt>
      <trkpt lat="45.95689" lon="3.68749">
        <ele>1048.4</ele>
        <time>2022-08-29T08:41:27Z</time>
      </trkpt>
      <trkpt lat="45.95688" lon="3.68748">
        <ele>1048.5</ele>
        <time>2022-08-29T08:41:28Z</time>
      </trkpt>
      <trkpt lat="45.95688" lon="3.68746">
        <ele>1048.5</ele>
        <time>2022-08-29T08:41:29Z</time>
      </trkpt>
      <trkpt lat="45.95688" lon="3.68745">
        <ele>1048.6</ele>
        <time>2022-08-29T08:41:30Z</time>
      </trkpt>
      <trkpt lat="45.95689" lon="3.68744">
        <ele>1048.6</ele>
        <time>2022-08-29T08:41:31Z</time>
      </trkpt>
      <trkpt lat="45.95689" lon="3.68743">
        <ele>1048.7</ele>
        <time>2022-08-29T08:41:32Z</time>
      </trkpt>
      <trkpt lat="45.95689" lon="3.68742">
        <ele>1048.7</ele>
        <time>2022-08-29T08:41:33Z</time>
      </trkpt>
      <trkpt lat="45.95689" lon="3.68741">
        <ele>1048.7</ele>
        <time>2022-08-29T08:41:34Z</time>
      </trkpt>
      <trkpt lat="45.95689" lon="3.68739">
        <ele>1048.8</ele>
        <time>2022-08-29T08:41:35Z</time>
      </trkpt>
      <trkpt lat="45.95689" lon="3.68737">
        <ele>1048.9</ele>
        <time>2022-08-29T08:41:36Z</time>
      </trkpt>
      <trkpt lat="45.95689" lon="3.68736">
        <ele>1048.9</ele>
        <time>2022-08-29T08:41:37Z</time>
      </trkpt>
      <trkpt lat="45.95689" lon="3.68734">
        <ele>1049</ele>
        <time>2022-08-29T08:41:38Z</time>
      </trkpt>
      <trkpt lat="45.95688" lon="3.68732">
        <ele>1049</ele>
        <time>2022-08-29T08:41:39Z</time>
      </trkpt>
      <trkpt lat="45.95687" lon="3.6873">
        <ele>1049.1</ele>
        <time>2022-08-29T08:41:40Z</time>
      </trkpt>
      <trkpt lat="45.95686" lon="3.68726">
        <ele>1049.2</ele>
        <time>2022-08-29T08:41:41Z</time>
      </trkpt>
      <trkpt lat="45.95685" lon="3.68725">
        <ele>1049.3</ele>
        <time>2022-08-29T08:41:42Z</time>
      </trkpt>
      <trkpt lat="45.95684" lon="3.68723">
        <ele>1049.3</ele>
        <time>2022-08-29T08:41:43Z</time>
      </trkpt>
      <trkpt lat="45.95684" lon="3.68722">
        <ele>1049.4</ele>
        <time>2022-08-29T08:41:44Z</time>
      </trkpt>
      <trkpt lat="45.95683" lon="3.6872">
        <ele>1049.4</ele>
        <time>2022-08-29T08:41:45Z</time>
      </trkpt>
      <trkpt lat="45.95682" lon="3.68719">
        <ele>1049.5</ele>
        <time>2022-08-29T08:41:46Z</time>
      </trkpt>
      <trkpt lat="45.95682" lon="3.68718">
        <ele>1049.5</ele>
        <time>2022-08-29T08:41:47Z</time>
      </trkpt>
      <trkpt lat="45.95681" lon="3.68717">
        <ele>1049.5</ele>
        <time>2022-08-29T08:41:48Z</time>
      </trkpt>
      <trkpt lat="45.95681" lon="3.68716">
        <ele>1049.6</ele>
        <time>2022-08-29T08:41:49Z</time>
      </trkpt>
      <trkpt lat="45.95681" lon="3.68715">
        <ele>1049.6</ele>
        <time>2022-08-29T08:41:50Z</time>
      </trkpt>
      <trkpt lat="45.9568" lon="3.68714">
        <ele>1049.6</ele>
        <time>2022-08-29T08:41:51Z</time>
      </trkpt>
      <trkpt lat="45.9568" lon="3.6871">
        <ele>1049.7</ele>
        <time>2022-08-29T08:41:52Z</time>
      </trkpt>
      <trkpt lat="45.9568" lon="3.68709">
        <ele>1049.7</ele>
        <time>2022-08-29T08:41:53Z</time>
      </trkpt>
      <trkpt lat="45.95679" lon="3.68707">
        <ele>1049.8</ele>
        <time>2022-08-29T08:41:54Z</time>
      </trkpt>
      <trkpt lat="45.95678" lon="3.68704">
        <ele>1049.9</ele>
        <time>2022-08-29T08:41:55Z</time>
      </trkpt>
      <trkpt lat="45.95678" lon="3.68702">
        <ele>1049.9</ele>
        <time>2022-08-29T08:41:56Z</time>
      </trkpt>
      <trkpt lat="45.95676" lon="3.68699">
        <ele>1050</ele>
        <time>2022-08-29T08:41:57Z</time>
      </trkpt>
      <trkpt lat="45.95675" lon="3.68698">
        <ele>1050</ele>
        <time>2022-08-29T08:41:58Z</time>
      </trkpt>
      <trkpt lat="45.95674" lon="3.68695">
        <ele>1050.1</ele>
        <time>2022-08-29T08:41:59Z</time>
      </trkpt>
      <trkpt lat="45.95673" lon="3.68694">
        <ele>1050.2</ele>
        <time>2022-08-29T08:42:00Z</time>
      </trkpt>
      <trkpt lat="45.95672" lon="3.68692">
        <ele>1050.2</ele>
        <time>2022-08-29T08:42:01Z</time>
      </trkpt>
      <trkpt lat="45.95671" lon="3.68691">
        <ele>1050.3</ele>
        <time>2022-08-29T08:42:02Z</time>
      </trkpt>
      <trkpt lat="45.95669" lon="3.68689">
        <ele>1050.4</ele>
        <time>2022-08-29T08:42:03Z</time>
      </trkpt>
      <trkpt lat="45.95668" lon="3.68688">
        <ele>1050.4</ele>
        <time>2022-08-29T08:42:04Z</time>
      </trkpt>
      <trkpt lat="45.95667" lon="3.68687">
        <ele>1050.5</ele>
        <time>2022-08-29T08:42:05Z</time>
      </trkpt>
      <trkpt lat="45.95666" lon="3.68686">
        <ele>1050.5</ele>
        <time>2022-08-29T08:42:06Z</time>
      </trkpt>
      <trkpt lat="45.95665" lon="3.68683">
        <ele>1050.6</ele>
        <time>2022-08-29T08:42:07Z</time>
      </trkpt>
      <trkpt lat="45.95664" lon="3.68682">
        <ele>1050.6</ele>
        <time>2022-08-29T08:42:08Z</time>
      </trkpt>
      <trkpt lat="45.95664" lon="3.68682">
        <ele>1050.7</ele>
        <time>2022-08-29T08:42:09Z</time>
      </trkpt>
      <trkpt lat="45.95663" lon="3.6868">
        <ele>1050.7</ele>
        <time>2022-08-29T08:42:10Z</time>
      </trkpt>
      <trkpt lat="45.95661" lon="3.68679">
        <ele>1050.7</ele>
        <time>2022-08-29T08:42:11Z</time>
      </trkpt>
      <trkpt lat="45.9566" lon="3.68679">
        <ele>1050.8</ele>
        <time>2022-08-29T08:42:12Z</time>
      </trkpt>
      <trkpt lat="45.95659" lon="3.68678">
        <ele>1050.9</ele>
        <time>2022-08-29T08:42:13Z</time>
      </trkpt>
      <trkpt lat="45.95657" lon="3.68676">
        <ele>1050.9</ele>
        <time>2022-08-29T08:42:14Z</time>
      </trkpt>
      <trkpt lat="45.95656" lon="3.68675">
        <ele>1051</ele>
        <time>2022-08-29T08:42:15Z</time>
      </trkpt>
      <trkpt lat="45.95655" lon="3.68671">
        <ele>1051.1</ele>
        <time>2022-08-29T08:42:16Z</time>
      </trkpt>
      <trkpt lat="45.95654" lon="3.68669">
        <ele>1051.1</ele>
        <time>2022-08-29T08:42:17Z</time>
      </trkpt>
      <trkpt lat="45.95654" lon="3.68667">
        <ele>1051.2</ele>
        <time>2022-08-29T08:42:18Z</time>
      </trkpt>
      <trkpt lat="45.95654" lon="3.68665">
        <ele>1051.2</ele>
        <time>2022-08-29T08:42:19Z</time>
      </trkpt>
      <trkpt lat="45.95654" lon="3.68663">
        <ele>1051.3</ele>
        <time>2022-08-29T08:42:20Z</time>
      </trkpt>
      <trkpt lat="45.95654" lon="3.68662">
        <ele>1051.3</ele>
        <time>2022-08-29T08:42:21Z</time>
      </trkpt>
      <trkpt lat="45.95654" lon="3.68661">
        <ele>1051.4</ele>
        <time>2022-08-29T08:42:22Z</time>
      </trkpt>
      <trkpt lat="45.95654" lon="3.68659">
        <ele>1051.4</ele>
        <time>2022-08-29T08:42:23Z</time>
      </trkpt>
      <trkpt lat="45.95653" lon="3.68658">
        <ele>1051.4</ele>
        <time>2022-08-29T08:42:24Z</time>
      </trkpt>
      <trkpt lat="45.95653" lon="3.68657">
        <ele>1051.5</ele>
        <time>2022-08-29T08:42:25Z</time>
      </trkpt>
      <trkpt lat="45.95653" lon="3.68656">
        <ele>1051.5</ele>
        <time>2022-08-29T08:42:26Z</time>
      </trkpt>
      <trkpt lat="45.95651" lon="3.68652">
        <ele>1051.6</ele>
        <time>2022-08-29T08:42:27Z</time>
      </trkpt>
      <trkpt lat="45.95651" lon="3.68651">
        <ele>1051.6</ele>
        <time>2022-08-29T08:42:28Z</time>
      </trkpt>
      <trkpt lat="45.9565" lon="3.68649">
        <ele>1051.7</ele>
        <time>2022-08-29T08:42:29Z</time>
      </trkpt>
      <trkpt lat="45.95649" lon="3.68647">
        <ele>1051.8</ele>
        <time>2022-08-29T08:42:30Z</time>
      </trkpt>
      <trkpt lat="45.95648" lon="3.68643">
        <ele>1051.9</ele>
        <time>2022-08-29T08:42:31Z</time>
      </trkpt>
      <trkpt lat="45.95647" lon="3.68642">
        <ele>1051.9</ele>
        <time>2022-08-29T08:42:32Z</time>
      </trkpt>
      <trkpt lat="45.95646" lon="3.6864">
        <ele>1052</ele>
        <time>2022-08-29T08:42:33Z</time>
      </trkpt>
      <trkpt lat="45.95645" lon="3.68639">
        <ele>1052</ele>
        <time>2022-08-29T08:42:34Z</time>
      </trkpt>
      <trkpt lat="45.95643" lon="3.68636">
        <ele>1052.2</ele>
        <time>2022-08-29T08:42:35Z</time>
      </trkpt>
      <trkpt lat="45.95642" lon="3.68635">
        <ele>1052.2</ele>
        <time>2022-08-29T08:42:36Z</time>
      </trkpt>
      <trkpt lat="45.9564" lon="3.68632">
        <ele>1052.3</ele>
        <time>2022-08-29T08:42:37Z</time>
      </trkpt>
      <trkpt lat="45.95639" lon="3.68631">
        <ele>1052.4</ele>
        <time>2022-08-29T08:42:38Z</time>
      </trkpt>
      <trkpt lat="45.95638" lon="3.68629">
        <ele>1052.4</ele>
        <time>2022-08-29T08:42:39Z</time>
      </trkpt>
      <trkpt lat="45.95637" lon="3.68627">
        <ele>1052.5</ele>
        <time>2022-08-29T08:42:40Z</time>
      </trkpt>
      <trkpt lat="45.95635" lon="3.68626">
        <ele>1052.6</ele>
        <time>2022-08-29T08:42:41Z</time>
      </trkpt>
      <trkpt lat="45.95634" lon="3.68624">
        <ele>1052.7</ele>
        <time>2022-08-29T08:42:42Z</time>
      </trkpt>
      <trkpt lat="45.95634" lon="3.68624">
        <ele>1052.7</ele>
        <time>2022-08-29T08:42:43Z</time>
      </trkpt>
      <trkpt lat="45.95634" lon="3.68624">
        <ele>1052.7</ele>
        <time>2022-08-29T08:42:44Z</time>
      </trkpt>
      <trkpt lat="45.95634" lon="3.68623">
        <ele>1052.7</ele>
        <time>2022-08-29T08:42:45Z</time>
      </trkpt>
      <trkpt lat="45.95634" lon="3.68623">
        <ele>1052.7</ele>
        <time>2022-08-29T08:42:46Z</time>
      </trkpt>
      <trkpt lat="45.95634" lon="3.68622">
        <ele>1052.7</ele>
        <time>2022-08-29T08:42:47Z</time>
      </trkpt>
      <trkpt lat="45.95633" lon="3.68622">
        <ele>1052.8</ele>
        <time>2022-08-29T08:42:48Z</time>
      </trkpt>
      <trkpt lat="45.95633" lon="3.68621">
        <ele>1052.8</ele>
        <time>2022-08-29T08:42:49Z</time>
      </trkpt>
      <trkpt lat="45.95632" lon="3.68619">
        <ele>1052.9</ele>
        <time>2022-08-29T08:42:50Z</time>
      </trkpt>
      <trkpt lat="45.95631" lon="3.68616">
        <ele>1053</ele>
        <time>2022-08-29T08:42:51Z</time>
      </trkpt>
      <trkpt lat="45.95629" lon="3.68613">
        <ele>1053.1</ele>
        <time>2022-08-29T08:42:52Z</time>
      </trkpt>
      <trkpt lat="45.95629" lon="3.6861">
        <ele>1053.2</ele>
        <time>2022-08-29T08:42:53Z</time>
      </trkpt>
      <trkpt lat="45.95627" lon="3.68608">
        <ele>1053.3</ele>
        <time>2022-08-29T08:42:54Z</time>
      </trkpt>
      <trkpt lat="45.95626" lon="3.68606">
        <ele>1053.4</ele>
        <time>2022-08-29T08:42:55Z</time>
      </trkpt>
      <trkpt lat="45.95625" lon="3.68605">
        <ele>1053.5</ele>
        <time>2022-08-29T08:42:56Z</time>
      </trkpt>
      <trkpt lat="45.95624" lon="3.68605">
        <ele>1053.5</ele>
        <time>2022-08-29T08:42:57Z</time>
      </trkpt>
      <trkpt lat="45.95622" lon="3.68603">
        <ele>1053.7</ele>
        <time>2022-08-29T08:42:58Z</time>
      </trkpt>
      <trkpt lat="45.95621" lon="3.68603">
        <ele>1053.7</ele>
        <time>2022-08-29T08:42:59Z</time>
      </trkpt>
      <trkpt lat="45.95618" lon="3.68601">
        <ele>1053.7</ele>
        <time>2022-08-29T08:43:00Z</time>
      </trkpt>
      <trkpt lat="45.95617" lon="3.686">
        <ele>1053.6</ele>
        <time>2022-08-29T08:43:01Z</time>
      </trkpt>
      <trkpt lat="45.95614" lon="3.68599">
        <ele>1053.4</ele>
        <time>2022-08-29T08:43:02Z</time>
      </trkpt>
      <trkpt lat="45.9561" lon="3.68597">
        <ele>1053.1</ele>
        <time>2022-08-29T08:43:03Z</time>
      </trkpt>
      <trkpt lat="45.95609" lon="3.68597">
        <ele>1053</ele>
        <time>2022-08-29T08:43:04Z</time>
      </trkpt>
      <trkpt lat="45.95608" lon="3.68597">
        <ele>1052.9</ele>
        <time>2022-08-29T08:43:05Z</time>
      </trkpt>
      <trkpt lat="45.95606" lon="3.68597">
        <ele>1052.8</ele>
        <time>2022-08-29T08:43:06Z</time>
      </trkpt>
      <trkpt lat="45.95605" lon="3.68597">
        <ele>1052.8</ele>
        <time>2022-08-29T08:43:07Z</time>
      </trkpt>
      <trkpt lat="45.95604" lon="3.68597">
        <ele>1052.7</ele>
        <time>2022-08-29T08:43:08Z</time>
      </trkpt>
      <trkpt lat="45.95604" lon="3.68598">
        <ele>1052.6</ele>
        <time>2022-08-29T08:43:09Z</time>
      </trkpt>
      <trkpt lat="45.95603" lon="3.68599">
        <ele>1052.5</ele>
        <time>2022-08-29T08:43:10Z</time>
      </trkpt>
      <trkpt lat="45.95602" lon="3.68599">
        <ele>1052.5</ele>
        <time>2022-08-29T08:43:11Z</time>
      </trkpt>
      <trkpt lat="45.95601" lon="3.68599">
        <ele>1052.4</ele>
        <time>2022-08-29T08:43:12Z</time>
      </trkpt>
      <trkpt lat="45.956" lon="3.68599">
        <ele>1052.4</ele>
        <time>2022-08-29T08:43:13Z</time>
      </trkpt>
      <trkpt lat="45.95599" lon="3.68599">
        <ele>1052.3</ele>
        <time>2022-08-29T08:43:14Z</time>
      </trkpt>
      <trkpt lat="45.95599" lon="3.68599">
        <ele>1052.3</ele>
        <time>2022-08-29T08:43:15Z</time>
      </trkpt>
      <trkpt lat="45.95598" lon="3.68599">
        <ele>1052.2</ele>
        <time>2022-08-29T08:43:16Z</time>
      </trkpt>
      <trkpt lat="45.95597" lon="3.68599">
        <ele>1052.2</ele>
        <time>2022-08-29T08:43:17Z</time>
      </trkpt>
      <trkpt lat="45.95597" lon="3.68599">
        <ele>1052.1</ele>
        <time>2022-08-29T08:43:18Z</time>
      </trkpt>
      <trkpt lat="45.95596" lon="3.68599">
        <ele>1052.1</ele>
        <time>2022-08-29T08:43:19Z</time>
      </trkpt>
      <trkpt lat="45.95595" lon="3.68599">
        <ele>1052</ele>
        <time>2022-08-29T08:43:20Z</time>
      </trkpt>
      <trkpt lat="45.95594" lon="3.68598">
        <ele>1052</ele>
        <time>2022-08-29T08:43:21Z</time>
      </trkpt>
      <trkpt lat="45.95592" lon="3.68597">
        <ele>1051.8</ele>
        <time>2022-08-29T08:43:22Z</time>
      </trkpt>
      <trkpt lat="45.95591" lon="3.68597">
        <ele>1051.7</ele>
        <time>2022-08-29T08:43:23Z</time>
      </trkpt>
      <trkpt lat="45.95588" lon="3.68595">
        <ele>1051.6</ele>
        <time>2022-08-29T08:43:24Z</time>
      </trkpt>
      <trkpt lat="45.95587" lon="3.68594">
        <ele>1051.5</ele>
        <time>2022-08-29T08:43:25Z</time>
      </trkpt>
      <trkpt lat="45.95586" lon="3.68593">
        <ele>1051.4</ele>
        <time>2022-08-29T08:43:26Z</time>
      </trkpt>
      <trkpt lat="45.95585" lon="3.68593">
        <ele>1051.3</ele>
        <time>2022-08-29T08:43:27Z</time>
      </trkpt>
      <trkpt lat="45.95583" lon="3.68592">
        <ele>1051.3</ele>
        <time>2022-08-29T08:43:28Z</time>
      </trkpt>
      <trkpt lat="45.95582" lon="3.68591">
        <ele>1051.2</ele>
        <time>2022-08-29T08:43:29Z</time>
      </trkpt>
      <trkpt lat="45.9558" lon="3.6859">
        <ele>1051.3</ele>
        <time>2022-08-29T08:43:30Z</time>
      </trkpt>
      <trkpt lat="45.95579" lon="3.68589">
        <ele>1051.5</ele>
        <time>2022-08-29T08:43:31Z</time>
      </trkpt>
      <trkpt lat="45.95576" lon="3.68587">
        <ele>1051.7</ele>
        <time>2022-08-29T08:43:32Z</time>
      </trkpt>
      <trkpt lat="45.95575" lon="3.68587">
        <ele>1051.7</ele>
        <time>2022-08-29T08:43:33Z</time>
      </trkpt>
      <trkpt lat="45.95574" lon="3.68586">
        <ele>1051.8</ele>
        <time>2022-08-29T08:43:34Z</time>
      </trkpt>
      <trkpt lat="45.95572" lon="3.68585">
        <ele>1052</ele>
        <time>2022-08-29T08:43:35Z</time>
      </trkpt>
      <trkpt lat="45.9557" lon="3.68584">
        <ele>1052.1</ele>
        <time>2022-08-29T08:43:36Z</time>
      </trkpt>
      <trkpt lat="45.95569" lon="3.68584">
        <ele>1052.2</ele>
        <time>2022-08-29T08:43:37Z</time>
      </trkpt>
      <trkpt lat="45.95568" lon="3.68583">
        <ele>1052.3</ele>
        <time>2022-08-29T08:43:38Z</time>
      </trkpt>
      <trkpt lat="45.95566" lon="3.68581">
        <ele>1052.5</ele>
        <time>2022-08-29T08:43:39Z</time>
      </trkpt>
      <trkpt lat="45.95565" lon="3.68581">
        <ele>1052.5</ele>
        <time>2022-08-29T08:43:40Z</time>
      </trkpt>
      <trkpt lat="45.95563" lon="3.6858">
        <ele>1052.7</ele>
        <time>2022-08-29T08:43:41Z</time>
      </trkpt>
      <trkpt lat="45.95562" lon="3.68579">
        <ele>1052.8</ele>
        <time>2022-08-29T08:43:42Z</time>
      </trkpt>
      <trkpt lat="45.9556" lon="3.68578">
        <ele>1052.9</ele>
        <time>2022-08-29T08:43:43Z</time>
      </trkpt>
      <trkpt lat="45.95559" lon="3.68578">
        <ele>1053</ele>
        <time>2022-08-29T08:43:44Z</time>
      </trkpt>
      <trkpt lat="45.95558" lon="3.68578">
        <ele>1053.1</ele>
        <time>2022-08-29T08:43:45Z</time>
      </trkpt>
      <trkpt lat="45.95557" lon="3.68578">
        <ele>1053.1</ele>
        <time>2022-08-29T08:43:46Z</time>
      </trkpt>
      <trkpt lat="45.95556" lon="3.68579">
        <ele>1053.2</ele>
        <time>2022-08-29T08:43:47Z</time>
      </trkpt>
      <trkpt lat="45.95555" lon="3.68579">
        <ele>1053.2</ele>
        <time>2022-08-29T08:43:48Z</time>
      </trkpt>
      <trkpt lat="45.95555" lon="3.68579">
        <ele>1053.3</ele>
        <time>2022-08-29T08:43:49Z</time>
      </trkpt>
      <trkpt lat="45.95554" lon="3.6858">
        <ele>1053.3</ele>
        <time>2022-08-29T08:43:50Z</time>
      </trkpt>
      <trkpt lat="45.95554" lon="3.68581">
        <ele>1053.4</ele>
        <time>2022-08-29T08:43:51Z</time>
      </trkpt>
      <trkpt lat="45.95554" lon="3.68582">
        <ele>1053.4</ele>
        <time>2022-08-29T08:43:52Z</time>
      </trkpt>
      <trkpt lat="45.95553" lon="3.68583">
        <ele>1053.5</ele>
        <time>2022-08-29T08:43:53Z</time>
      </trkpt>
      <trkpt lat="45.95553" lon="3.68584">
        <ele>1053.6</ele>
        <time>2022-08-29T08:43:54Z</time>
      </trkpt>
      <trkpt lat="45.95552" lon="3.68585">
        <ele>1053.6</ele>
        <time>2022-08-29T08:43:55Z</time>
      </trkpt>
      <trkpt lat="45.95551" lon="3.68586">
        <ele>1053.7</ele>
        <time>2022-08-29T08:43:56Z</time>
      </trkpt>
      <trkpt lat="45.95551" lon="3.68587">
        <ele>1053.8</ele>
        <time>2022-08-29T08:43:57Z</time>
      </trkpt>
      <trkpt lat="45.9555" lon="3.68588">
        <ele>1053.9</ele>
        <time>2022-08-29T08:43:58Z</time>
      </trkpt>
      <trkpt lat="45.95549" lon="3.68588">
        <ele>1054</ele>
        <time>2022-08-29T08:43:59Z</time>
      </trkpt>
      <trkpt lat="45.95547" lon="3.68589">
        <ele>1054.1</ele>
        <time>2022-08-29T08:44:00Z</time>
      </trkpt>
      <trkpt lat="45.95546" lon="3.68591">
        <ele>1054.2</ele>
        <time>2022-08-29T08:44:01Z</time>
      </trkpt>
      <trkpt lat="45.95544" lon="3.68592">
        <ele>1054.4</ele>
        <time>2022-08-29T08:44:02Z</time>
      </trkpt>
      <trkpt lat="45.95543" lon="3.68593">
        <ele>1054.5</ele>
        <time>2022-08-29T08:44:03Z</time>
      </trkpt>
      <trkpt lat="45.95542" lon="3.68593">
        <ele>1054.6</ele>
        <time>2022-08-29T08:44:04Z</time>
      </trkpt>
      <trkpt lat="45.9554" lon="3.68593">
        <ele>1054.7</ele>
        <time>2022-08-29T08:44:05Z</time>
      </trkpt>
      <trkpt lat="45.95539" lon="3.68593">
        <ele>1054.8</ele>
        <time>2022-08-29T08:44:06Z</time>
      </trkpt>
      <trkpt lat="45.95538" lon="3.68593">
        <ele>1055</ele>
        <time>2022-08-29T08:44:07Z</time>
      </trkpt>
      <trkpt lat="45.95537" lon="3.68593">
        <ele>1055.1</ele>
        <time>2022-08-29T08:44:08Z</time>
      </trkpt>
      <trkpt lat="45.95536" lon="3.68593">
        <ele>1055.2</ele>
        <time>2022-08-29T08:44:09Z</time>
      </trkpt>
      <trkpt lat="45.95534" lon="3.68593">
        <ele>1055.3</ele>
        <time>2022-08-29T08:44:10Z</time>
      </trkpt>
      <trkpt lat="45.95534" lon="3.68593">
        <ele>1055.4</ele>
        <time>2022-08-29T08:44:11Z</time>
      </trkpt>
      <trkpt lat="45.95533" lon="3.68593">
        <ele>1055.4</ele>
        <time>2022-08-29T08:44:12Z</time>
      </trkpt>
      <trkpt lat="45.95533" lon="3.68593">
        <ele>1055.5</ele>
        <time>2022-08-29T08:44:13Z</time>
      </trkpt>
      <trkpt lat="45.95533" lon="3.68592">
        <ele>1055.5</ele>
        <time>2022-08-29T08:44:14Z</time>
      </trkpt>
      <trkpt lat="45.95532" lon="3.68593">
        <ele>1055.5</ele>
        <time>2022-08-29T08:44:15Z</time>
      </trkpt>
      <trkpt lat="45.95532" lon="3.68593">
        <ele>1055.5</ele>
        <time>2022-08-29T08:44:16Z</time>
      </trkpt>
      <trkpt lat="45.95532" lon="3.68593">
        <ele>1055.6</ele>
        <time>2022-08-29T08:44:17Z</time>
      </trkpt>
      <trkpt lat="45.95532" lon="3.68593">
        <ele>1055.6</ele>
        <time>2022-08-29T08:44:18Z</time>
      </trkpt>
      <trkpt lat="45.95531" lon="3.68593">
        <ele>1055.7</ele>
        <time>2022-08-29T08:44:19Z</time>
      </trkpt>
      <trkpt lat="45.95531" lon="3.68593">
        <ele>1055.7</ele>
        <time>2022-08-29T08:44:20Z</time>
      </trkpt>
      <trkpt lat="45.95531" lon="3.68593">
        <ele>1055.7</ele>
        <time>2022-08-29T08:44:21Z</time>
      </trkpt>
      <trkpt lat="45.9553" lon="3.68592">
        <ele>1055.8</ele>
        <time>2022-08-29T08:44:22Z</time>
      </trkpt>
      <trkpt lat="45.9553" lon="3.68592">
        <ele>1055.8</ele>
        <time>2022-08-29T08:44:23Z</time>
      </trkpt>
      <trkpt lat="45.95529" lon="3.68592">
        <ele>1055.9</ele>
        <time>2022-08-29T08:44:24Z</time>
      </trkpt>
      <trkpt lat="45.95529" lon="3.68591">
        <ele>1056</ele>
        <time>2022-08-29T08:44:25Z</time>
      </trkpt>
      <trkpt lat="45.95528" lon="3.68591">
        <ele>1056.1</ele>
        <time>2022-08-29T08:44:26Z</time>
      </trkpt>
      <trkpt lat="45.95528" lon="3.68589">
        <ele>1056.2</ele>
        <time>2022-08-29T08:44:27Z</time>
      </trkpt>
      <trkpt lat="45.95527" lon="3.68588">
        <ele>1056.3</ele>
        <time>2022-08-29T08:44:28Z</time>
      </trkpt>
      <trkpt lat="45.95527" lon="3.68588">
        <ele>1056.4</ele>
        <time>2022-08-29T08:44:29Z</time>
      </trkpt>
      <trkpt lat="45.95526" lon="3.68587">
        <ele>1056.4</ele>
        <time>2022-08-29T08:44:30Z</time>
      </trkpt>
      <trkpt lat="45.95526" lon="3.68587">
        <ele>1056.5</ele>
        <time>2022-08-29T08:44:31Z</time>
      </trkpt>
      <trkpt lat="45.95526" lon="3.68586">
        <ele>1056.5</ele>
        <time>2022-08-29T08:44:32Z</time>
      </trkpt>
      <trkpt lat="45.95526" lon="3.68586">
        <ele>1056.5</ele>
        <time>2022-08-29T08:44:33Z</time>
      </trkpt>
      <trkpt lat="45.95527" lon="3.68586">
        <ele>1056.5</ele>
        <time>2022-08-29T08:44:34Z</time>
      </trkpt>
      <trkpt lat="45.95527" lon="3.68586">
        <ele>1056.5</ele>
        <time>2022-08-29T08:44:35Z</time>
      </trkpt>
      <trkpt lat="45.95527" lon="3.68586">
        <ele>1056.5</ele>
        <time>2022-08-29T08:44:36Z</time>
      </trkpt>
      <trkpt lat="45.95527" lon="3.68586">
        <ele>1056.5</ele>
        <time>2022-08-29T08:44:37Z</time>
      </trkpt>
      <trkpt lat="45.95527" lon="3.68586">
        <ele>1056.5</ele>
        <time>2022-08-29T08:44:38Z</time>
      </trkpt>
      <trkpt lat="45.95527" lon="3.68586">
        <ele>1056.5</ele>
        <time>2022-08-29T08:44:39Z</time>
      </trkpt>
      <trkpt lat="45.95527" lon="3.68587">
        <ele>1056.5</ele>
        <time>2022-08-29T08:44:40Z</time>
      </trkpt>
      <trkpt lat="45.95527" lon="3.68587">
        <ele>1056.5</ele>
        <time>2022-08-29T08:44:41Z</time>
      </trkpt>
      <trkpt lat="45.95527" lon="3.68587">
        <ele>1056.5</ele>
        <time>2022-08-29T08:44:42Z</time>
      </trkpt>
      <trkpt lat="45.95527" lon="3.68587">
        <ele>1056.6</ele>
        <time>2022-08-29T08:44:43Z</time>
      </trkpt>
      <trkpt lat="45.95527" lon="3.68587">
        <ele>1056.6</ele>
        <time>2022-08-29T08:44:44Z</time>
      </trkpt>
      <trkpt lat="45.95527" lon="3.68587">
        <ele>1056.6</ele>
        <time>2022-08-29T08:44:45Z</time>
      </trkpt>
      <trkpt lat="45.95527" lon="3.68587">
        <ele>1056.6</ele>
        <time>2022-08-29T08:44:46Z</time>
      </trkpt>
      <trkpt lat="45.95527" lon="3.68587">
        <ele>1056.6</ele>
        <time>2022-08-29T08:44:47Z</time>
      </trkpt>
      <trkpt lat="45.95527" lon="3.68587">
        <ele>1056.6</ele>
        <time>2022-08-29T08:44:48Z</time>
      </trkpt>
      <trkpt lat="45.95527" lon="3.68587">
        <ele>1056.6</ele>
        <time>2022-08-29T08:44:49Z</time>
      </trkpt>
      <trkpt lat="45.95527" lon="3.68587">
        <ele>1056.6</ele>
        <time>2022-08-29T08:44:50Z</time>
      </trkpt>
      <trkpt lat="45.95527" lon="3.68587">
        <ele>1056.6</ele>
        <time>2022-08-29T08:44:51Z</time>
      </trkpt>
      <trkpt lat="45.95527" lon="3.68587">
        <ele>1056.6</ele>
        <time>2022-08-29T08:44:52Z</time>
      </trkpt>
      <trkpt lat="45.95527" lon="3.68587">
        <ele>1056.6</ele>
        <time>2022-08-29T08:44:57Z</time>
      </trkpt>
      <trkpt lat="45.95527" lon="3.68587">
        <ele>1056.6</ele>
        <time>2022-08-29T08:45:02Z</time>
      </trkpt>
      <trkpt lat="45.95527" lon="3.68587">
        <ele>1056.6</ele>
        <time>2022-08-29T08:45:03Z</time>
      </trkpt>
      <trkpt lat="45.95527" lon="3.68587">
        <ele>1056.6</ele>
        <time>2022-08-29T08:45:04Z</time>
      </trkpt>
      <trkpt lat="45.95527" lon="3.68586">
        <ele>1056.7</ele>
        <time>2022-08-29T08:45:05Z</time>
      </trkpt>
      <trkpt lat="45.95527" lon="3.68586">
        <ele>1056.7</ele>
        <time>2022-08-29T08:45:06Z</time>
      </trkpt>
      <trkpt lat="45.95527" lon="3.68586">
        <ele>1056.7</ele>
        <time>2022-08-29T08:45:07Z</time>
      </trkpt>
      <trkpt lat="45.95527" lon="3.68586">
        <ele>1056.7</ele>
        <time>2022-08-29T08:45:08Z</time>
      </trkpt>
      <trkpt lat="45.95527" lon="3.68586">
        <ele>1056.7</ele>
        <time>2022-08-29T08:45:09Z</time>
      </trkpt>
      <trkpt lat="45.95527" lon="3.68586">
        <ele>1056.8</ele>
        <time>2022-08-29T08:45:10Z</time>
      </trkpt>
      <trkpt lat="45.95527" lon="3.68586">
        <ele>1056.8</ele>
        <time>2022-08-29T08:45:11Z</time>
      </trkpt>
      <trkpt lat="45.95527" lon="3.68586">
        <ele>1056.8</ele>
        <time>2022-08-29T08:45:12Z</time>
      </trkpt>
      <trkpt lat="45.95527" lon="3.68586">
        <ele>1056.8</ele>
        <time>2022-08-29T08:45:13Z</time>
      </trkpt>
      <trkpt lat="45.95527" lon="3.68586">
        <ele>1056.8</ele>
        <time>2022-08-29T08:45:14Z</time>
      </trkpt>
      <trkpt lat="45.95527" lon="3.68586">
        <ele>1056.8</ele>
        <time>2022-08-29T08:45:15Z</time>
      </trkpt>
      <trkpt lat="45.95527" lon="3.68586">
        <ele>1056.8</ele>
        <time>2022-08-29T08:45:16Z</time>
      </trkpt>
      <trkpt lat="45.95527" lon="3.68586">
        <ele>1056.8</ele>
        <time>2022-08-29T08:45:17Z</time>
      </trkpt>
      <trkpt lat="45.95527" lon="3.68586">
        <ele>1056.8</ele>
        <time>2022-08-29T08:45:18Z</time>
      </trkpt>
      <trkpt lat="45.95527" lon="3.68586">
        <ele>1056.8</ele>
        <time>2022-08-29T08:45:19Z</time>
      </trkpt>
      <trkpt lat="45.95527" lon="3.68586">
        <ele>1056.8</ele>
        <time>2022-08-29T08:45:20Z</time>
      </trkpt>
      <trkpt lat="45.95527" lon="3.68586">
        <ele>1056.8</ele>
        <time>2022-08-29T08:45:21Z</time>
      </trkpt>
      <trkpt lat="45.95527" lon="3.68586">
        <ele>1056.8</ele>
        <time>2022-08-29T08:45:22Z</time>
      </trkpt>
      <trkpt lat="45.95527" lon="3.68586">
        <ele>1056.8</ele>
        <time>2022-08-29T08:45:23Z</time>
      </trkpt>
      <trkpt lat="45.95527" lon="3.68586">
        <ele>1056.8</ele>
        <time>2022-08-29T08:45:24Z</time>
      </trkpt>
      <trkpt lat="45.95527" lon="3.68586">
        <ele>1056.8</ele>
        <time>2022-08-29T08:45:25Z</time>
      </trkpt>
      <trkpt lat="45.95527" lon="3.68586">
        <ele>1056.8</ele>
        <time>2022-08-29T08:45:26Z</time>
      </trkpt>
      <trkpt lat="45.95527" lon="3.68586">
        <ele>1056.8</ele>
        <time>2022-08-29T08:45:27Z</time>
      </trkpt>
      <trkpt lat="45.95527" lon="3.68586">
        <ele>1056.8</ele>
        <time>2022-08-29T08:45:28Z</time>
      </trkpt>
      <trkpt lat="45.95527" lon="3.68586">
        <ele>1056.8</ele>
        <time>2022-08-29T08:45:29Z</time>
      </trkpt>
      <trkpt lat="45.95527" lon="3.68586">
        <ele>1056.8</ele>
        <time>2022-08-29T08:45:30Z</time>
      </trkpt>
      <trkpt lat="45.95527" lon="3.68586">
        <ele>1056.8</ele>
        <time>2022-08-29T08:45:31Z</time>
      </trkpt>
      <trkpt lat="45.95527" lon="3.68586">
        <ele>1056.8</ele>
        <time>2022-08-29T08:45:32Z</time>
      </trkpt>
      <trkpt lat="45.95527" lon="3.68586">
        <ele>1056.8</ele>
        <time>2022-08-29T08:45:33Z</time>
      </trkpt>
      <trkpt lat="45.95527" lon="3.68586">
        <ele>1056.8</ele>
        <time>2022-08-29T08:45:34Z</time>
      </trkpt>
      <trkpt lat="45.95525" lon="3.68587">
        <ele>1057.1</ele>
        <time>2022-08-29T08:45:35Z</time>
      </trkpt>
      <trkpt lat="45.95523" lon="3.68587">
        <ele>1057.3</ele>
        <time>2022-08-29T08:45:36Z</time>
      </trkpt>
      <trkpt lat="45.9552" lon="3.68588">
        <ele>1057.7</ele>
        <time>2022-08-29T08:45:38Z</time>
      </trkpt>
      <trkpt lat="45.95518" lon="3.68588">
        <ele>1057.9</ele>
        <time>2022-08-29T08:45:39Z</time>
      </trkpt>
      <trkpt lat="45.95516" lon="3.68588">
        <ele>1058.1</ele>
        <time>2022-08-29T08:45:40Z</time>
      </trkpt>
      <trkpt lat="45.95514" lon="3.68588">
        <ele>1058.3</ele>
        <time>2022-08-29T08:45:41Z</time>
      </trkpt>
      <trkpt lat="45.95511" lon="3.68588">
        <ele>1058.7</ele>
        <time>2022-08-29T08:45:42Z</time>
      </trkpt>
      <trkpt lat="45.9551" lon="3.68588">
        <ele>1058.8</ele>
        <time>2022-08-29T08:45:43Z</time>
      </trkpt>
      <trkpt lat="45.95507" lon="3.68587">
        <ele>1059.2</ele>
        <time>2022-08-29T08:45:44Z</time>
      </trkpt>
      <trkpt lat="45.95506" lon="3.68587">
        <ele>1059.3</ele>
        <time>2022-08-29T08:45:45Z</time>
      </trkpt>
      <trkpt lat="45.95504" lon="3.68587">
        <ele>1059.6</ele>
        <time>2022-08-29T08:45:46Z</time>
      </trkpt>
      <trkpt lat="45.95503" lon="3.68587">
        <ele>1059.7</ele>
        <time>2022-08-29T08:45:47Z</time>
      </trkpt>
      <trkpt lat="45.95503" lon="3.68587">
        <ele>1059.8</ele>
        <time>2022-08-29T08:45:48Z</time>
      </trkpt>
      <trkpt lat="45.95502" lon="3.68587">
        <ele>1059.9</ele>
        <time>2022-08-29T08:45:49Z</time>
      </trkpt>
      <trkpt lat="45.95501" lon="3.68587">
        <ele>1060.1</ele>
        <time>2022-08-29T08:45:50Z</time>
      </trkpt>
      <trkpt lat="45.955" lon="3.68587">
        <ele>1060.2</ele>
        <time>2022-08-29T08:45:51Z</time>
      </trkpt>
      <trkpt lat="45.95499" lon="3.68587">
        <ele>1060.3</ele>
        <time>2022-08-29T08:45:52Z</time>
      </trkpt>
      <trkpt lat="45.95497" lon="3.68587">
        <ele>1060.5</ele>
        <time>2022-08-29T08:45:53Z</time>
      </trkpt>
      <trkpt lat="45.95496" lon="3.68587">
        <ele>1060.7</ele>
        <time>2022-08-29T08:45:54Z</time>
      </trkpt>
      <trkpt lat="45.95495" lon="3.68586">
        <ele>1060.8</ele>
        <time>2022-08-29T08:45:55Z</time>
      </trkpt>
      <trkpt lat="45.95495" lon="3.68586">
        <ele>1060.9</ele>
        <time>2022-08-29T08:45:56Z</time>
      </trkpt>
      <trkpt lat="45.95494" lon="3.68586">
        <ele>1061</ele>
        <time>2022-08-29T08:45:57Z</time>
      </trkpt>
      <trkpt lat="45.95493" lon="3.68585">
        <ele>1061.2</ele>
        <time>2022-08-29T08:45:58Z</time>
      </trkpt>
      <trkpt lat="45.95492" lon="3.68585">
        <ele>1061.3</ele>
        <time>2022-08-29T08:45:59Z</time>
      </trkpt>
      <trkpt lat="45.95491" lon="3.68585">
        <ele>1061.5</ele>
        <time>2022-08-29T08:46:00Z</time>
      </trkpt>
      <trkpt lat="45.95489" lon="3.68585">
        <ele>1061.7</ele>
        <time>2022-08-29T08:46:01Z</time>
      </trkpt>
      <trkpt lat="45.95488" lon="3.68585">
        <ele>1061.9</ele>
        <time>2022-08-29T08:46:02Z</time>
      </trkpt>
      <trkpt lat="45.95487" lon="3.68585">
        <ele>1062</ele>
        <time>2022-08-29T08:46:03Z</time>
      </trkpt>
      <trkpt lat="45.95485" lon="3.68585">
        <ele>1062.4</ele>
        <time>2022-08-29T08:46:05Z</time>
      </trkpt>
      <trkpt lat="45.95484" lon="3.68585">
        <ele>1062.5</ele>
        <time>2022-08-29T08:46:06Z</time>
      </trkpt>
      <trkpt lat="45.95483" lon="3.68585">
        <ele>1062.6</ele>
        <time>2022-08-29T08:46:07Z</time>
      </trkpt>
      <trkpt lat="45.95482" lon="3.68585">
        <ele>1062.7</ele>
        <time>2022-08-29T08:46:08Z</time>
      </trkpt>
      <trkpt lat="45.95481" lon="3.68585">
        <ele>1062.9</ele>
        <time>2022-08-29T08:46:09Z</time>
      </trkpt>
      <trkpt lat="45.9548" lon="3.68585">
        <ele>1063</ele>
        <time>2022-08-29T08:46:10Z</time>
      </trkpt>
      <trkpt lat="45.95479" lon="3.68584">
        <ele>1063.2</ele>
        <time>2022-08-29T08:46:11Z</time>
      </trkpt>
      <trkpt lat="45.95477" lon="3.68584">
        <ele>1063.5</ele>
        <time>2022-08-29T08:46:12Z</time>
      </trkpt>
      <trkpt lat="45.95476" lon="3.68584">
        <ele>1063.7</ele>
        <time>2022-08-29T08:46:13Z</time>
      </trkpt>
      <trkpt lat="45.95475" lon="3.68584">
        <ele>1063.8</ele>
        <time>2022-08-29T08:46:14Z</time>
      </trkpt>
      <trkpt lat="45.95472" lon="3.68583">
        <ele>1064.3</ele>
        <time>2022-08-29T08:46:15Z</time>
      </trkpt>
      <trkpt lat="45.95471" lon="3.68583">
        <ele>1064.4</ele>
        <time>2022-08-29T08:46:16Z</time>
      </trkpt>
      <trkpt lat="45.95469" lon="3.68583">
        <ele>1064.7</ele>
        <time>2022-08-29T08:46:17Z</time>
      </trkpt>
      <trkpt lat="45.95468" lon="3.68583">
        <ele>1064.9</ele>
        <time>2022-08-29T08:46:18Z</time>
      </trkpt>
      <trkpt lat="45.95466" lon="3.68582">
        <ele>1065.3</ele>
        <time>2022-08-29T08:46:19Z</time>
      </trkpt>
      <trkpt lat="45.95465" lon="3.68582">
        <ele>1065.4</ele>
        <time>2022-08-29T08:46:20Z</time>
      </trkpt>
      <trkpt lat="45.95464" lon="3.68581">
        <ele>1065.6</ele>
        <time>2022-08-29T08:46:21Z</time>
      </trkpt>
      <trkpt lat="45.95463" lon="3.6858">
        <ele>1065.8</ele>
        <time>2022-08-29T08:46:22Z</time>
      </trkpt>
      <trkpt lat="45.95461" lon="3.68579">
        <ele>1066.1</ele>
        <time>2022-08-29T08:46:23Z</time>
      </trkpt>
      <trkpt lat="45.95461" lon="3.68579">
        <ele>1066.2</ele>
        <time>2022-08-29T08:46:24Z</time>
      </trkpt>
      <trkpt lat="45.9546" lon="3.68578">
        <ele>1066.4</ele>
        <time>2022-08-29T08:46:25Z</time>
      </trkpt>
      <trkpt lat="45.95459" lon="3.68578">
        <ele>1066.5</ele>
        <time>2022-08-29T08:46:26Z</time>
      </trkpt>
      <trkpt lat="45.95458" lon="3.68577">
        <ele>1066.7</ele>
        <time>2022-08-29T08:46:27Z</time>
      </trkpt>
      <trkpt lat="45.95457" lon="3.68576">
        <ele>1066.9</ele>
        <time>2022-08-29T08:46:28Z</time>
      </trkpt>
      <trkpt lat="45.95456" lon="3.68576">
        <ele>1067</ele>
        <time>2022-08-29T08:46:29Z</time>
      </trkpt>
      <trkpt lat="45.95456" lon="3.68576">
        <ele>1067.1</ele>
        <time>2022-08-29T08:46:30Z</time>
      </trkpt>
      <trkpt lat="45.95455" lon="3.68575">
        <ele>1067.3</ele>
        <time>2022-08-29T08:46:31Z</time>
      </trkpt>
      <trkpt lat="45.95454" lon="3.68575">
        <ele>1067.4</ele>
        <time>2022-08-29T08:46:32Z</time>
      </trkpt>
      <trkpt lat="45.95453" lon="3.68575">
        <ele>1067.5</ele>
        <time>2022-08-29T08:46:33Z</time>
      </trkpt>
      <trkpt lat="45.95453" lon="3.68575">
        <ele>1067.7</ele>
        <time>2022-08-29T08:46:34Z</time>
      </trkpt>
      <trkpt lat="45.95451" lon="3.68575">
        <ele>1067.9</ele>
        <time>2022-08-29T08:46:35Z</time>
      </trkpt>
      <trkpt lat="45.9545" lon="3.68575">
        <ele>1068.1</ele>
        <time>2022-08-29T08:46:36Z</time>
      </trkpt>
      <trkpt lat="45.95449" lon="3.68575">
        <ele>1068.3</ele>
        <time>2022-08-29T08:46:37Z</time>
      </trkpt>
      <trkpt lat="45.95447" lon="3.68576">
        <ele>1068.6</ele>
        <time>2022-08-29T08:46:38Z</time>
      </trkpt>
      <trkpt lat="45.95446" lon="3.68576">
        <ele>1068.8</ele>
        <time>2022-08-29T08:46:39Z</time>
      </trkpt>
      <trkpt lat="45.95444" lon="3.68577">
        <ele>1069.1</ele>
        <time>2022-08-29T08:46:40Z</time>
      </trkpt>
      <trkpt lat="45.95442" lon="3.68577">
        <ele>1069.6</ele>
        <time>2022-08-29T08:46:41Z</time>
      </trkpt>
      <trkpt lat="45.95441" lon="3.68578">
        <ele>1069.7</ele>
        <time>2022-08-29T08:46:42Z</time>
      </trkpt>
      <trkpt lat="45.95437" lon="3.68579">
        <ele>1070.3</ele>
        <time>2022-08-29T08:46:43Z</time>
      </trkpt>
      <trkpt lat="45.95436" lon="3.68579">
        <ele>1070.4</ele>
        <time>2022-08-29T08:46:44Z</time>
      </trkpt>
      <trkpt lat="45.95435" lon="3.6858">
        <ele>1070.7</ele>
        <time>2022-08-29T08:46:45Z</time>
      </trkpt>
      <trkpt lat="45.95433" lon="3.68581">
        <ele>1071</ele>
        <time>2022-08-29T08:46:46Z</time>
      </trkpt>
      <trkpt lat="45.95432" lon="3.68582">
        <ele>1071.2</ele>
        <time>2022-08-29T08:46:47Z</time>
      </trkpt>
      <trkpt lat="45.95431" lon="3.68583">
        <ele>1071.5</ele>
        <time>2022-08-29T08:46:48Z</time>
      </trkpt>
      <trkpt lat="45.9543" lon="3.68584">
        <ele>1071.6</ele>
        <time>2022-08-29T08:46:49Z</time>
      </trkpt>
      <trkpt lat="45.95429" lon="3.68585">
        <ele>1071.8</ele>
        <time>2022-08-29T08:46:50Z</time>
      </trkpt>
      <trkpt lat="45.95428" lon="3.68585">
        <ele>1071.9</ele>
        <time>2022-08-29T08:46:51Z</time>
      </trkpt>
      <trkpt lat="45.95427" lon="3.68586">
        <ele>1072.1</ele>
        <time>2022-08-29T08:46:52Z</time>
      </trkpt>
      <trkpt lat="45.95427" lon="3.68586">
        <ele>1072.2</ele>
        <time>2022-08-29T08:46:53Z</time>
      </trkpt>
      <trkpt lat="45.95426" lon="3.68587">
        <ele>1072.4</ele>
        <time>2022-08-29T08:46:54Z</time>
      </trkpt>
      <trkpt lat="45.95425" lon="3.68587">
        <ele>1072.5</ele>
        <time>2022-08-29T08:46:55Z</time>
      </trkpt>
      <trkpt lat="45.95424" lon="3.68587">
        <ele>1072.6</ele>
        <time>2022-08-29T08:46:56Z</time>
      </trkpt>
      <trkpt lat="45.95423" lon="3.68587">
        <ele>1072.8</ele>
        <time>2022-08-29T08:46:57Z</time>
      </trkpt>
      <trkpt lat="45.95422" lon="3.68588">
        <ele>1073</ele>
        <time>2022-08-29T08:46:58Z</time>
      </trkpt>
      <trkpt lat="45.95421" lon="3.68588">
        <ele>1073.1</ele>
        <time>2022-08-29T08:46:59Z</time>
      </trkpt>
      <trkpt lat="45.9542" lon="3.68588">
        <ele>1073.3</ele>
        <time>2022-08-29T08:47:00Z</time>
      </trkpt>
      <trkpt lat="45.95419" lon="3.68589">
        <ele>1073.5</ele>
        <time>2022-08-29T08:47:01Z</time>
      </trkpt>
      <trkpt lat="45.95419" lon="3.68589">
        <ele>1073.6</ele>
        <time>2022-08-29T08:47:02Z</time>
      </trkpt>
      <trkpt lat="45.95418" lon="3.6859">
        <ele>1073.8</ele>
        <time>2022-08-29T08:47:03Z</time>
      </trkpt>
      <trkpt lat="45.95417" lon="3.68591">
        <ele>1073.9</ele>
        <time>2022-08-29T08:47:04Z</time>
      </trkpt>
      <trkpt lat="45.95417" lon="3.68592">
        <ele>1074</ele>
        <time>2022-08-29T08:47:05Z</time>
      </trkpt>
      <trkpt lat="45.95416" lon="3.68593">
        <ele>1074.2</ele>
        <time>2022-08-29T08:47:06Z</time>
      </trkpt>
      <trkpt lat="45.95416" lon="3.68594">
        <ele>1074.3</ele>
        <time>2022-08-29T08:47:07Z</time>
      </trkpt>
      <trkpt lat="45.95415" lon="3.68595">
        <ele>1074.5</ele>
        <time>2022-08-29T08:47:08Z</time>
      </trkpt>
      <trkpt lat="45.95415" lon="3.68596">
        <ele>1074.6</ele>
        <time>2022-08-29T08:47:09Z</time>
      </trkpt>
      <trkpt lat="45.95414" lon="3.68597">
        <ele>1074.7</ele>
        <time>2022-08-29T08:47:10Z</time>
      </trkpt>
      <trkpt lat="45.95414" lon="3.68597">
        <ele>1074.9</ele>
        <time>2022-08-29T08:47:11Z</time>
      </trkpt>
      <trkpt lat="45.95413" lon="3.68598">
        <ele>1075</ele>
        <time>2022-08-29T08:47:12Z</time>
      </trkpt>
      <trkpt lat="45.95412" lon="3.68599">
        <ele>1075.2</ele>
        <time>2022-08-29T08:47:13Z</time>
      </trkpt>
      <trkpt lat="45.95411" lon="3.686">
        <ele>1075.4</ele>
        <time>2022-08-29T08:47:14Z</time>
      </trkpt>
      <trkpt lat="45.9541" lon="3.686">
        <ele>1075.5</ele>
        <time>2022-08-29T08:47:15Z</time>
      </trkpt>
      <trkpt lat="45.9541" lon="3.686">
        <ele>1075.6</ele>
        <time>2022-08-29T08:47:16Z</time>
      </trkpt>
      <trkpt lat="45.9541" lon="3.68601">
        <ele>1075.6</ele>
        <time>2022-08-29T08:47:17Z</time>
      </trkpt>
      <trkpt lat="45.95409" lon="3.68601">
        <ele>1075.7</ele>
        <time>2022-08-29T08:47:18Z</time>
      </trkpt>
      <trkpt lat="45.95409" lon="3.68601">
        <ele>1075.8</ele>
        <time>2022-08-29T08:47:19Z</time>
      </trkpt>
      <trkpt lat="45.95408" lon="3.68602">
        <ele>1075.9</ele>
        <time>2022-08-29T08:47:20Z</time>
      </trkpt>
      <trkpt lat="45.95408" lon="3.68602">
        <ele>1076</ele>
        <time>2022-08-29T08:47:21Z</time>
      </trkpt>
      <trkpt lat="45.95407" lon="3.68603">
        <ele>1076.2</ele>
        <time>2022-08-29T08:47:22Z</time>
      </trkpt>
      <trkpt lat="45.95407" lon="3.68604">
        <ele>1076.3</ele>
        <time>2022-08-29T08:47:23Z</time>
      </trkpt>
      <trkpt lat="45.95406" lon="3.68605">
        <ele>1076.5</ele>
        <time>2022-08-29T08:47:24Z</time>
      </trkpt>
      <trkpt lat="45.95405" lon="3.68606">
        <ele>1076.6</ele>
        <time>2022-08-29T08:47:25Z</time>
      </trkpt>
      <trkpt lat="45.95405" lon="3.68607">
        <ele>1076.8</ele>
        <time>2022-08-29T08:47:26Z</time>
      </trkpt>
      <trkpt lat="45.95404" lon="3.68608">
        <ele>1077</ele>
        <time>2022-08-29T08:47:27Z</time>
      </trkpt>
      <trkpt lat="45.95403" lon="3.6861">
        <ele>1077.2</ele>
        <time>2022-08-29T08:47:28Z</time>
      </trkpt>
      <trkpt lat="45.95402" lon="3.68611">
        <ele>1077.4</ele>
        <time>2022-08-29T08:47:29Z</time>
      </trkpt>
      <trkpt lat="45.95401" lon="3.68611">
        <ele>1077.5</ele>
        <time>2022-08-29T08:47:30Z</time>
      </trkpt>
      <trkpt lat="45.954" lon="3.68612">
        <ele>1077.6</ele>
        <time>2022-08-29T08:47:31Z</time>
      </trkpt>
      <trkpt lat="45.954" lon="3.68612">
        <ele>1077.8</ele>
        <time>2022-08-29T08:47:32Z</time>
      </trkpt>
      <trkpt lat="45.95398" lon="3.68613">
        <ele>1078</ele>
        <time>2022-08-29T08:47:33Z</time>
      </trkpt>
      <trkpt lat="45.95398" lon="3.68613">
        <ele>1078.2</ele>
        <time>2022-08-29T08:47:34Z</time>
      </trkpt>
      <trkpt lat="45.95397" lon="3.68614">
        <ele>1078.3</ele>
        <time>2022-08-29T08:47:35Z</time>
      </trkpt>
      <trkpt lat="45.95397" lon="3.68615">
        <ele>1078.4</ele>
        <time>2022-08-29T08:47:36Z</time>
      </trkpt>
      <trkpt lat="45.95396" lon="3.68615">
        <ele>1078.5</ele>
        <time>2022-08-29T08:47:37Z</time>
      </trkpt>
      <trkpt lat="45.95395" lon="3.68615">
        <ele>1078.7</ele>
        <time>2022-08-29T08:47:38Z</time>
      </trkpt>
      <trkpt lat="45.95394" lon="3.68615">
        <ele>1078.8</ele>
        <time>2022-08-29T08:47:39Z</time>
      </trkpt>
      <trkpt lat="45.95393" lon="3.68615">
        <ele>1078.9</ele>
        <time>2022-08-29T08:47:40Z</time>
      </trkpt>
      <trkpt lat="45.95393" lon="3.68615">
        <ele>1079</ele>
        <time>2022-08-29T08:47:41Z</time>
      </trkpt>
      <trkpt lat="45.95392" lon="3.68615">
        <ele>1079.2</ele>
        <time>2022-08-29T08:47:42Z</time>
      </trkpt>
      <trkpt lat="45.95391" lon="3.68615">
        <ele>1079.3</ele>
        <time>2022-08-29T08:47:43Z</time>
      </trkpt>
      <trkpt lat="45.9539" lon="3.68616">
        <ele>1079.5</ele>
        <time>2022-08-29T08:47:44Z</time>
      </trkpt>
      <trkpt lat="45.95389" lon="3.68616">
        <ele>1079.6</ele>
        <time>2022-08-29T08:47:45Z</time>
      </trkpt>
      <trkpt lat="45.95387" lon="3.68618">
        <ele>1080</ele>
        <time>2022-08-29T08:47:46Z</time>
      </trkpt>
      <trkpt lat="45.95386" lon="3.68618">
        <ele>1080.2</ele>
        <time>2022-08-29T08:47:47Z</time>
      </trkpt>
      <trkpt lat="45.95385" lon="3.68618">
        <ele>1080.4</ele>
        <time>2022-08-29T08:47:48Z</time>
      </trkpt>
      <trkpt lat="45.95383" lon="3.68619">
        <ele>1080.6</ele>
        <time>2022-08-29T08:47:49Z</time>
      </trkpt>
      <trkpt lat="45.95381" lon="3.68619">
        <ele>1080.9</ele>
        <time>2022-08-29T08:47:50Z</time>
      </trkpt>
      <trkpt lat="45.95379" lon="3.68619">
        <ele>1081.4</ele>
        <time>2022-08-29T08:47:51Z</time>
      </trkpt>
      <trkpt lat="45.95378" lon="3.68619">
        <ele>1081.5</ele>
        <time>2022-08-29T08:47:52Z</time>
      </trkpt>
      <trkpt lat="45.95375" lon="3.68619">
        <ele>1081.9</ele>
        <time>2022-08-29T08:47:53Z</time>
      </trkpt>
      <trkpt lat="45.95374" lon="3.68619">
        <ele>1082</ele>
        <time>2022-08-29T08:47:54Z</time>
      </trkpt>
      <trkpt lat="45.95372" lon="3.68618">
        <ele>1082.3</ele>
        <time>2022-08-29T08:47:55Z</time>
      </trkpt>
      <trkpt lat="45.95371" lon="3.68618">
        <ele>1082.4</ele>
        <time>2022-08-29T08:47:56Z</time>
      </trkpt>
      <trkpt lat="45.9537" lon="3.68617">
        <ele>1082.5</ele>
        <time>2022-08-29T08:47:57Z</time>
      </trkpt>
      <trkpt lat="45.95368" lon="3.68616">
        <ele>1082.8</ele>
        <time>2022-08-29T08:47:58Z</time>
      </trkpt>
      <trkpt lat="45.95368" lon="3.68616">
        <ele>1082.9</ele>
        <time>2022-08-29T08:47:59Z</time>
      </trkpt>
      <trkpt lat="45.95367" lon="3.68615">
        <ele>1083</ele>
        <time>2022-08-29T08:48:00Z</time>
      </trkpt>
      <trkpt lat="45.95366" lon="3.68615">
        <ele>1083.2</ele>
        <time>2022-08-29T08:48:01Z</time>
      </trkpt>
      <trkpt lat="45.95365" lon="3.68614">
        <ele>1083.4</ele>
        <time>2022-08-29T08:48:02Z</time>
      </trkpt>
      <trkpt lat="45.95364" lon="3.68613">
        <ele>1083.5</ele>
        <time>2022-08-29T08:48:03Z</time>
      </trkpt>
      <trkpt lat="45.95363" lon="3.68612">
        <ele>1083.6</ele>
        <time>2022-08-29T08:48:04Z</time>
      </trkpt>
      <trkpt lat="45.95363" lon="3.68611">
        <ele>1083.7</ele>
        <time>2022-08-29T08:48:05Z</time>
      </trkpt>
      <trkpt lat="45.95362" lon="3.6861">
        <ele>1083.8</ele>
        <time>2022-08-29T08:48:06Z</time>
      </trkpt>
      <trkpt lat="45.95362" lon="3.68609">
        <ele>1083.9</ele>
        <time>2022-08-29T08:48:07Z</time>
      </trkpt>
      <trkpt lat="45.95362" lon="3.68609">
        <ele>1084</ele>
        <time>2022-08-29T08:48:08Z</time>
      </trkpt>
      <trkpt lat="45.95363" lon="3.68608">
        <ele>1084</ele>
        <time>2022-08-29T08:48:09Z</time>
      </trkpt>
      <trkpt lat="45.95363" lon="3.68608">
        <ele>1084</ele>
        <time>2022-08-29T08:48:10Z</time>
      </trkpt>
      <trkpt lat="45.95363" lon="3.68608">
        <ele>1084.1</ele>
        <time>2022-08-29T08:48:11Z</time>
      </trkpt>
      <trkpt lat="45.95362" lon="3.68607">
        <ele>1084.1</ele>
        <time>2022-08-29T08:48:12Z</time>
      </trkpt>
      <trkpt lat="45.95362" lon="3.68607">
        <ele>1084.2</ele>
        <time>2022-08-29T08:48:13Z</time>
      </trkpt>
      <trkpt lat="45.95361" lon="3.68606">
        <ele>1084.3</ele>
        <time>2022-08-29T08:48:14Z</time>
      </trkpt>
      <trkpt lat="45.95361" lon="3.68605">
        <ele>1084.4</ele>
        <time>2022-08-29T08:48:15Z</time>
      </trkpt>
      <trkpt lat="45.9536" lon="3.68604">
        <ele>1084.5</ele>
        <time>2022-08-29T08:48:16Z</time>
      </trkpt>
      <trkpt lat="45.9536" lon="3.68604">
        <ele>1084.6</ele>
        <time>2022-08-29T08:48:17Z</time>
      </trkpt>
      <trkpt lat="45.95359" lon="3.68604">
        <ele>1084.7</ele>
        <time>2022-08-29T08:48:18Z</time>
      </trkpt>
      <trkpt lat="45.95359" lon="3.68604">
        <ele>1084.7</ele>
        <time>2022-08-29T08:48:19Z</time>
      </trkpt>
      <trkpt lat="45.95358" lon="3.68604">
        <ele>1084.8</ele>
        <time>2022-08-29T08:48:20Z</time>
      </trkpt>
      <trkpt lat="45.95358" lon="3.68604">
        <ele>1084.8</ele>
        <time>2022-08-29T08:48:21Z</time>
      </trkpt>
      <trkpt lat="45.95356" lon="3.68602">
        <ele>1085.1</ele>
        <time>2022-08-29T08:48:22Z</time>
      </trkpt>
      <trkpt lat="45.95356" lon="3.68601">
        <ele>1085.2</ele>
        <time>2022-08-29T08:48:23Z</time>
      </trkpt>
      <trkpt lat="45.95355" lon="3.68601">
        <ele>1085.3</ele>
        <time>2022-08-29T08:48:24Z</time>
      </trkpt>
      <trkpt lat="45.95353" lon="3.686">
        <ele>1085.6</ele>
        <time>2022-08-29T08:48:25Z</time>
      </trkpt>
      <trkpt lat="45.95352" lon="3.686">
        <ele>1085.7</ele>
        <time>2022-08-29T08:48:26Z</time>
      </trkpt>
      <trkpt lat="45.95351" lon="3.686">
        <ele>1085.9</ele>
        <time>2022-08-29T08:48:27Z</time>
      </trkpt>
      <trkpt lat="45.95349" lon="3.686">
        <ele>1086.1</ele>
        <time>2022-08-29T08:48:28Z</time>
      </trkpt>
      <trkpt lat="45.95348" lon="3.686">
        <ele>1086.3</ele>
        <time>2022-08-29T08:48:29Z</time>
      </trkpt>
      <trkpt lat="45.95347" lon="3.686">
        <ele>1086.4</ele>
        <time>2022-08-29T08:48:30Z</time>
      </trkpt>
      <trkpt lat="45.95346" lon="3.686">
        <ele>1086.6</ele>
        <time>2022-08-29T08:48:31Z</time>
      </trkpt>
      <trkpt lat="45.95345" lon="3.68599">
        <ele>1086.8</ele>
        <time>2022-08-29T08:48:32Z</time>
      </trkpt>
      <trkpt lat="45.95345" lon="3.68598">
        <ele>1086.9</ele>
        <time>2022-08-29T08:48:33Z</time>
      </trkpt>
      <trkpt lat="45.95344" lon="3.68598">
        <ele>1087</ele>
        <time>2022-08-29T08:48:34Z</time>
      </trkpt>
      <trkpt lat="45.95344" lon="3.68598">
        <ele>1087</ele>
        <time>2022-08-29T08:48:35Z</time>
      </trkpt>
      <trkpt lat="45.95344" lon="3.68599">
        <ele>1087.1</ele>
        <time>2022-08-29T08:48:36Z</time>
      </trkpt>
      <trkpt lat="45.95343" lon="3.686">
        <ele>1087.3</ele>
        <time>2022-08-29T08:48:37Z</time>
      </trkpt>
      <trkpt lat="45.95343" lon="3.68602">
        <ele>1087.5</ele>
        <time>2022-08-29T08:48:38Z</time>
      </trkpt>
      <trkpt lat="45.95342" lon="3.68603">
        <ele>1087.7</ele>
        <time>2022-08-29T08:48:39Z</time>
      </trkpt>
      <trkpt lat="45.95341" lon="3.68605">
        <ele>1087.9</ele>
        <time>2022-08-29T08:48:40Z</time>
      </trkpt>
      <trkpt lat="45.95341" lon="3.68606">
        <ele>1088.1</ele>
        <time>2022-08-29T08:48:41Z</time>
      </trkpt>
      <trkpt lat="45.9534" lon="3.68608">
        <ele>1088.3</ele>
        <time>2022-08-29T08:48:42Z</time>
      </trkpt>
      <trkpt lat="45.9534" lon="3.68609">
        <ele>1088.5</ele>
        <time>2022-08-29T08:48:43Z</time>
      </trkpt>
      <trkpt lat="45.9534" lon="3.6861">
        <ele>1088.5</ele>
        <time>2022-08-29T08:48:44Z</time>
      </trkpt>
      <trkpt lat="45.9534" lon="3.68609">
        <ele>1088.6</ele>
        <time>2022-08-29T08:48:45Z</time>
      </trkpt>
      <trkpt lat="45.9534" lon="3.68609">
        <ele>1088.6</ele>
        <time>2022-08-29T08:48:46Z</time>
      </trkpt>
      <trkpt lat="45.9534" lon="3.68608">
        <ele>1088.7</ele>
        <time>2022-08-29T08:48:47Z</time>
      </trkpt>
      <trkpt lat="45.9534" lon="3.68607">
        <ele>1088.9</ele>
        <time>2022-08-29T08:48:48Z</time>
      </trkpt>
      <trkpt lat="45.9534" lon="3.68606">
        <ele>1089</ele>
        <time>2022-08-29T08:48:49Z</time>
      </trkpt>
      <trkpt lat="45.9534" lon="3.68606">
        <ele>1089.1</ele>
        <time>2022-08-29T08:48:50Z</time>
      </trkpt>
      <trkpt lat="45.95339" lon="3.68605">
        <ele>1089.2</ele>
        <time>2022-08-29T08:48:51Z</time>
      </trkpt>
      <trkpt lat="45.95338" lon="3.68604">
        <ele>1089.4</ele>
        <time>2022-08-29T08:48:52Z</time>
      </trkpt>
      <trkpt lat="45.95337" lon="3.68603">
        <ele>1089.6</ele>
        <time>2022-08-29T08:48:53Z</time>
      </trkpt>
      <trkpt lat="45.95337" lon="3.68603">
        <ele>1089.7</ele>
        <time>2022-08-29T08:48:54Z</time>
      </trkpt>
      <trkpt lat="45.95336" lon="3.68602">
        <ele>1089.8</ele>
        <time>2022-08-29T08:48:55Z</time>
      </trkpt>
      <trkpt lat="45.95336" lon="3.68602">
        <ele>1089.9</ele>
        <time>2022-08-29T08:48:56Z</time>
      </trkpt>
      <trkpt lat="45.95335" lon="3.68602">
        <ele>1090</ele>
        <time>2022-08-29T08:48:57Z</time>
      </trkpt>
      <trkpt lat="45.95335" lon="3.68602">
        <ele>1090</ele>
        <time>2022-08-29T08:48:58Z</time>
      </trkpt>
      <trkpt lat="45.95334" lon="3.68604">
        <ele>1090.3</ele>
        <time>2022-08-29T08:48:59Z</time>
      </trkpt>
      <trkpt lat="45.95334" lon="3.68603">
        <ele>1090.4</ele>
        <time>2022-08-29T08:49:00Z</time>
      </trkpt>
      <trkpt lat="45.95333" lon="3.68603">
        <ele>1090.5</ele>
        <time>2022-08-29T08:49:01Z</time>
      </trkpt>
      <trkpt lat="45.95332" lon="3.68602">
        <ele>1090.7</ele>
        <time>2022-08-29T08:49:02Z</time>
      </trkpt>
      <trkpt lat="45.95332" lon="3.68601">
        <ele>1090.9</ele>
        <time>2022-08-29T08:49:03Z</time>
      </trkpt>
      <trkpt lat="45.95331" lon="3.686">
        <ele>1091.1</ele>
        <time>2022-08-29T08:49:04Z</time>
      </trkpt>
      <trkpt lat="45.95329" lon="3.68598">
        <ele>1091.4</ele>
        <time>2022-08-29T08:49:05Z</time>
      </trkpt>
      <trkpt lat="45.95328" lon="3.68598">
        <ele>1091.6</ele>
        <time>2022-08-29T08:49:06Z</time>
      </trkpt>
      <trkpt lat="45.95328" lon="3.68597">
        <ele>1091.8</ele>
        <time>2022-08-29T08:49:07Z</time>
      </trkpt>
      <trkpt lat="45.95324" lon="3.68597">
        <ele>1092.4</ele>
        <time>2022-08-29T08:49:08Z</time>
      </trkpt>
      <trkpt lat="45.95323" lon="3.68598">
        <ele>1092.6</ele>
        <time>2022-08-29T08:49:09Z</time>
      </trkpt>
      <trkpt lat="45.9532" lon="3.68598">
        <ele>1093.2</ele>
        <time>2022-08-29T08:49:10Z</time>
      </trkpt>
      <trkpt lat="45.95319" lon="3.68598">
        <ele>1093.4</ele>
        <time>2022-08-29T08:49:11Z</time>
      </trkpt>
      <trkpt lat="45.95316" lon="3.68597">
        <ele>1094</ele>
        <time>2022-08-29T08:49:12Z</time>
      </trkpt>
      <trkpt lat="45.95315" lon="3.68596">
        <ele>1094.2</ele>
        <time>2022-08-29T08:49:13Z</time>
      </trkpt>
      <trkpt lat="45.95312" lon="3.68595">
        <ele>1094.8</ele>
        <time>2022-08-29T08:49:14Z</time>
      </trkpt>
      <trkpt lat="45.95311" lon="3.68594">
        <ele>1094.9</ele>
        <time>2022-08-29T08:49:15Z</time>
      </trkpt>
      <trkpt lat="45.9531" lon="3.68593">
        <ele>1095.2</ele>
        <time>2022-08-29T08:49:16Z</time>
      </trkpt>
      <trkpt lat="45.95309" lon="3.68592">
        <ele>1095.5</ele>
        <time>2022-08-29T08:49:17Z</time>
      </trkpt>
      <trkpt lat="45.95308" lon="3.6859">
        <ele>1095.8</ele>
        <time>2022-08-29T08:49:18Z</time>
      </trkpt>
      <trkpt lat="45.95308" lon="3.68589">
        <ele>1095.9</ele>
        <time>2022-08-29T08:49:19Z</time>
      </trkpt>
      <trkpt lat="45.95308" lon="3.68587">
        <ele>1096.1</ele>
        <time>2022-08-29T08:49:20Z</time>
      </trkpt>
      <trkpt lat="45.95307" lon="3.68584">
        <ele>1096.5</ele>
        <time>2022-08-29T08:49:21Z</time>
      </trkpt>
      <trkpt lat="45.95307" lon="3.68583">
        <ele>1096.7</ele>
        <time>2022-08-29T08:49:22Z</time>
      </trkpt>
      <trkpt lat="45.95307" lon="3.68582">
        <ele>1096.9</ele>
        <time>2022-08-29T08:49:23Z</time>
      </trkpt>
      <trkpt lat="45.95306" lon="3.6858">
        <ele>1097.1</ele>
        <time>2022-08-29T08:49:24Z</time>
      </trkpt>
      <trkpt lat="45.95305" lon="3.68578">
        <ele>1097.4</ele>
        <time>2022-08-29T08:49:25Z</time>
      </trkpt>
      <trkpt lat="45.95304" lon="3.68578">
        <ele>1097.7</ele>
        <time>2022-08-29T08:49:26Z</time>
      </trkpt>
      <trkpt lat="45.95302" lon="3.68577">
        <ele>1098</ele>
        <time>2022-08-29T08:49:27Z</time>
      </trkpt>
      <trkpt lat="45.95301" lon="3.68576">
        <ele>1098.3</ele>
        <time>2022-08-29T08:49:28Z</time>
      </trkpt>
      <trkpt lat="45.95299" lon="3.68576">
        <ele>1098.5</ele>
        <time>2022-08-29T08:49:29Z</time>
      </trkpt>
      <trkpt lat="45.95298" lon="3.68576">
        <ele>1098.7</ele>
        <time>2022-08-29T08:49:30Z</time>
      </trkpt>
      <trkpt lat="45.95297" lon="3.68575">
        <ele>1098.9</ele>
        <time>2022-08-29T08:49:31Z</time>
      </trkpt>
      <trkpt lat="45.95297" lon="3.68575">
        <ele>1099</ele>
        <time>2022-08-29T08:49:32Z</time>
      </trkpt>
      <trkpt lat="45.95296" lon="3.68574">
        <ele>1099.1</ele>
        <time>2022-08-29T08:49:33Z</time>
      </trkpt>
      <trkpt lat="45.95296" lon="3.68573">
        <ele>1099.3</ele>
        <time>2022-08-29T08:49:34Z</time>
      </trkpt>
      <trkpt lat="45.95296" lon="3.68573">
        <ele>1099.3</ele>
        <time>2022-08-29T08:49:35Z</time>
      </trkpt>
      <trkpt lat="45.95296" lon="3.68573">
        <ele>1099.4</ele>
        <time>2022-08-29T08:49:36Z</time>
      </trkpt>
      <trkpt lat="45.95296" lon="3.68572">
        <ele>1099.4</ele>
        <time>2022-08-29T08:49:37Z</time>
      </trkpt>
      <trkpt lat="45.95295" lon="3.68572">
        <ele>1099.5</ele>
        <time>2022-08-29T08:49:38Z</time>
      </trkpt>
      <trkpt lat="45.95294" lon="3.68572">
        <ele>1099.7</ele>
        <time>2022-08-29T08:49:39Z</time>
      </trkpt>
      <trkpt lat="45.95293" lon="3.68572">
        <ele>1100</ele>
        <time>2022-08-29T08:49:40Z</time>
      </trkpt>
      <trkpt lat="45.95292" lon="3.68572">
        <ele>1100.1</ele>
        <time>2022-08-29T08:49:41Z</time>
      </trkpt>
      <trkpt lat="45.95291" lon="3.68572">
        <ele>1100.3</ele>
        <time>2022-08-29T08:49:42Z</time>
      </trkpt>
      <trkpt lat="45.9529" lon="3.68571">
        <ele>1100.4</ele>
        <time>2022-08-29T08:49:43Z</time>
      </trkpt>
      <trkpt lat="45.95288" lon="3.6857">
        <ele>1100.8</ele>
        <time>2022-08-29T08:49:44Z</time>
      </trkpt>
      <trkpt lat="45.95287" lon="3.6857">
        <ele>1101</ele>
        <time>2022-08-29T08:49:45Z</time>
      </trkpt>
      <trkpt lat="45.95286" lon="3.6857">
        <ele>1101.2</ele>
        <time>2022-08-29T08:49:46Z</time>
      </trkpt>
      <trkpt lat="45.95285" lon="3.68569">
        <ele>1101.4</ele>
        <time>2022-08-29T08:49:47Z</time>
      </trkpt>
      <trkpt lat="45.95284" lon="3.68568">
        <ele>1101.6</ele>
        <time>2022-08-29T08:49:48Z</time>
      </trkpt>
      <trkpt lat="45.95284" lon="3.68567">
        <ele>1101.8</ele>
        <time>2022-08-29T08:49:49Z</time>
      </trkpt>
      <trkpt lat="45.95282" lon="3.68566">
        <ele>1102.2</ele>
        <time>2022-08-29T08:49:50Z</time>
      </trkpt>
      <trkpt lat="45.95281" lon="3.68566">
        <ele>1102.3</ele>
        <time>2022-08-29T08:49:51Z</time>
      </trkpt>
      <trkpt lat="45.9528" lon="3.68565">
        <ele>1102.5</ele>
        <time>2022-08-29T08:49:52Z</time>
      </trkpt>
      <trkpt lat="45.95278" lon="3.68566">
        <ele>1102.9</ele>
        <time>2022-08-29T08:49:53Z</time>
      </trkpt>
      <trkpt lat="45.95277" lon="3.68566">
        <ele>1103</ele>
        <time>2022-08-29T08:49:54Z</time>
      </trkpt>
      <trkpt lat="45.95276" lon="3.68566">
        <ele>1103.2</ele>
        <time>2022-08-29T08:49:55Z</time>
      </trkpt>
      <trkpt lat="45.95275" lon="3.68567">
        <ele>1103.3</ele>
        <time>2022-08-29T08:49:56Z</time>
      </trkpt>
      <trkpt lat="45.95274" lon="3.68567">
        <ele>1103.5</ele>
        <time>2022-08-29T08:49:57Z</time>
      </trkpt>
      <trkpt lat="45.95274" lon="3.68569">
        <ele>1103.7</ele>
        <time>2022-08-29T08:49:58Z</time>
      </trkpt>
      <trkpt lat="45.95273" lon="3.6857">
        <ele>1103.9</ele>
        <time>2022-08-29T08:49:59Z</time>
      </trkpt>
      <trkpt lat="45.95272" lon="3.68571">
        <ele>1104.2</ele>
        <time>2022-08-29T08:50:00Z</time>
      </trkpt>
      <trkpt lat="45.95271" lon="3.68572">
        <ele>1104.3</ele>
        <time>2022-08-29T08:50:01Z</time>
      </trkpt>
      <trkpt lat="45.95271" lon="3.68573">
        <ele>1104.4</ele>
        <time>2022-08-29T08:50:02Z</time>
      </trkpt>
      <trkpt lat="45.9527" lon="3.68573">
        <ele>1104.5</ele>
        <time>2022-08-29T08:50:03Z</time>
      </trkpt>
      <trkpt lat="45.95269" lon="3.68572">
        <ele>1104.7</ele>
        <time>2022-08-29T08:50:04Z</time>
      </trkpt>
      <trkpt lat="45.95268" lon="3.68572">
        <ele>1104.8</ele>
        <time>2022-08-29T08:50:05Z</time>
      </trkpt>
      <trkpt lat="45.95267" lon="3.68571">
        <ele>1105</ele>
        <time>2022-08-29T08:50:06Z</time>
      </trkpt>
      <trkpt lat="45.95266" lon="3.6857">
        <ele>1105.3</ele>
        <time>2022-08-29T08:50:07Z</time>
      </trkpt>
      <trkpt lat="45.95265" lon="3.68569">
        <ele>1105.5</ele>
        <time>2022-08-29T08:50:08Z</time>
      </trkpt>
      <trkpt lat="45.95264" lon="3.68568">
        <ele>1105.8</ele>
        <time>2022-08-29T08:50:09Z</time>
      </trkpt>
      <trkpt lat="45.95263" lon="3.68566">
        <ele>1106</ele>
        <time>2022-08-29T08:50:10Z</time>
      </trkpt>
      <trkpt lat="45.95262" lon="3.68564">
        <ele>1106.2</ele>
        <time>2022-08-29T08:50:11Z</time>
      </trkpt>
      <trkpt lat="45.95261" lon="3.68563">
        <ele>1106.5</ele>
        <time>2022-08-29T08:50:12Z</time>
      </trkpt>
      <trkpt lat="45.95259" lon="3.68561">
        <ele>1106.8</ele>
        <time>2022-08-29T08:50:13Z</time>
      </trkpt>
      <trkpt lat="45.95257" lon="3.68558">
        <ele>1107.2</ele>
        <time>2022-08-29T08:50:14Z</time>
      </trkpt>
      <trkpt lat="45.95256" lon="3.68557">
        <ele>1107.3</ele>
        <time>2022-08-29T08:50:15Z</time>
      </trkpt>
      <trkpt lat="45.95255" lon="3.68556">
        <ele>1107.5</ele>
        <time>2022-08-29T08:50:16Z</time>
      </trkpt>
      <trkpt lat="45.95254" lon="3.68555">
        <ele>1107.7</ele>
        <time>2022-08-29T08:50:17Z</time>
      </trkpt>
      <trkpt lat="45.95253" lon="3.68554">
        <ele>1107.9</ele>
        <time>2022-08-29T08:50:18Z</time>
      </trkpt>
      <trkpt lat="45.95251" lon="3.68554">
        <ele>1108.1</ele>
        <time>2022-08-29T08:50:19Z</time>
      </trkpt>
      <trkpt lat="45.95248" lon="3.68554">
        <ele>1108.5</ele>
        <time>2022-08-29T08:50:20Z</time>
      </trkpt>
      <trkpt lat="45.95247" lon="3.68554">
        <ele>1108.7</ele>
        <time>2022-08-29T08:50:21Z</time>
      </trkpt>
      <trkpt lat="45.95246" lon="3.68555">
        <ele>1108.9</ele>
        <time>2022-08-29T08:50:22Z</time>
      </trkpt>
      <trkpt lat="45.95244" lon="3.68555">
        <ele>1109.1</ele>
        <time>2022-08-29T08:50:23Z</time>
      </trkpt>
      <trkpt lat="45.95244" lon="3.68556">
        <ele>1109.2</ele>
        <time>2022-08-29T08:50:24Z</time>
      </trkpt>
      <trkpt lat="45.95243" lon="3.68556">
        <ele>1109.3</ele>
        <time>2022-08-29T08:50:25Z</time>
      </trkpt>
      <trkpt lat="45.95243" lon="3.68556">
        <ele>1109.4</ele>
        <time>2022-08-29T08:50:26Z</time>
      </trkpt>
      <trkpt lat="45.95242" lon="3.68557">
        <ele>1109.5</ele>
        <time>2022-08-29T08:50:27Z</time>
      </trkpt>
      <trkpt lat="45.95241" lon="3.68557">
        <ele>1109.6</ele>
        <time>2022-08-29T08:50:28Z</time>
      </trkpt>
      <trkpt lat="45.9524" lon="3.68557">
        <ele>1109.7</ele>
        <time>2022-08-29T08:50:29Z</time>
      </trkpt>
      <trkpt lat="45.95239" lon="3.68557">
        <ele>1109.9</ele>
        <time>2022-08-29T08:50:30Z</time>
      </trkpt>
      <trkpt lat="45.95238" lon="3.68557">
        <ele>1110.1</ele>
        <time>2022-08-29T08:50:31Z</time>
      </trkpt>
      <trkpt lat="45.95236" lon="3.68557">
        <ele>1110.3</ele>
        <time>2022-08-29T08:50:32Z</time>
      </trkpt>
      <trkpt lat="45.95235" lon="3.68557">
        <ele>1110.4</ele>
        <time>2022-08-29T08:50:33Z</time>
      </trkpt>
      <trkpt lat="45.95234" lon="3.68556">
        <ele>1110.6</ele>
        <time>2022-08-29T08:50:34Z</time>
      </trkpt>
      <trkpt lat="45.95233" lon="3.68555">
        <ele>1110.7</ele>
        <time>2022-08-29T08:50:35Z</time>
      </trkpt>
      <trkpt lat="45.95233" lon="3.68555">
        <ele>1110.8</ele>
        <time>2022-08-29T08:50:36Z</time>
      </trkpt>
      <trkpt lat="45.95232" lon="3.68554">
        <ele>1110.9</ele>
        <time>2022-08-29T08:50:37Z</time>
      </trkpt>
      <trkpt lat="45.95231" lon="3.68554">
        <ele>1111</ele>
        <time>2022-08-29T08:50:38Z</time>
      </trkpt>
      <trkpt lat="45.9523" lon="3.68554">
        <ele>1111.2</ele>
        <time>2022-08-29T08:50:39Z</time>
      </trkpt>
      <trkpt lat="45.95229" lon="3.68554">
        <ele>1111.3</ele>
        <time>2022-08-29T08:50:40Z</time>
      </trkpt>
      <trkpt lat="45.95229" lon="3.68554">
        <ele>1111.4</ele>
        <time>2022-08-29T08:50:41Z</time>
      </trkpt>
      <trkpt lat="45.95227" lon="3.68552">
        <ele>1111.6</ele>
        <time>2022-08-29T08:50:42Z</time>
      </trkpt>
      <trkpt lat="45.95227" lon="3.68552">
        <ele>1111.7</ele>
        <time>2022-08-29T08:50:43Z</time>
      </trkpt>
      <trkpt lat="45.95226" lon="3.68551">
        <ele>1111.8</ele>
        <time>2022-08-29T08:50:44Z</time>
      </trkpt>
      <trkpt lat="45.95226" lon="3.6855">
        <ele>1111.9</ele>
        <time>2022-08-29T08:50:45Z</time>
      </trkpt>
      <trkpt lat="45.95225" lon="3.68549">
        <ele>1112</ele>
        <time>2022-08-29T08:50:46Z</time>
      </trkpt>
      <trkpt lat="45.95224" lon="3.68549">
        <ele>1112.1</ele>
        <time>2022-08-29T08:50:47Z</time>
      </trkpt>
      <trkpt lat="45.95224" lon="3.68548">
        <ele>1112.2</ele>
        <time>2022-08-29T08:50:48Z</time>
      </trkpt>
      <trkpt lat="45.95223" lon="3.68547">
        <ele>1112.3</ele>
        <time>2022-08-29T08:50:49Z</time>
      </trkpt>
      <trkpt lat="45.95222" lon="3.68547">
        <ele>1112.4</ele>
        <time>2022-08-29T08:50:50Z</time>
      </trkpt>
      <trkpt lat="45.95222" lon="3.68546">
        <ele>1112.6</ele>
        <time>2022-08-29T08:50:51Z</time>
      </trkpt>
      <trkpt lat="45.95221" lon="3.68545">
        <ele>1112.7</ele>
        <time>2022-08-29T08:50:52Z</time>
      </trkpt>
      <trkpt lat="45.95221" lon="3.68544">
        <ele>1112.8</ele>
        <time>2022-08-29T08:50:53Z</time>
      </trkpt>
      <trkpt lat="45.9522" lon="3.68543">
        <ele>1112.9</ele>
        <time>2022-08-29T08:50:54Z</time>
      </trkpt>
      <trkpt lat="45.95219" lon="3.68542">
        <ele>1113</ele>
        <time>2022-08-29T08:50:55Z</time>
      </trkpt>
      <trkpt lat="45.95218" lon="3.68541">
        <ele>1113.2</ele>
        <time>2022-08-29T08:50:56Z</time>
      </trkpt>
      <trkpt lat="45.95218" lon="3.6854">
        <ele>1113.3</ele>
        <time>2022-08-29T08:50:57Z</time>
      </trkpt>
      <trkpt lat="45.95217" lon="3.68538">
        <ele>1113.5</ele>
        <time>2022-08-29T08:50:58Z</time>
      </trkpt>
      <trkpt lat="45.95216" lon="3.68537">
        <ele>1113.7</ele>
        <time>2022-08-29T08:50:59Z</time>
      </trkpt>
      <trkpt lat="45.95216" lon="3.68536">
        <ele>1113.8</ele>
        <time>2022-08-29T08:51:00Z</time>
      </trkpt>
      <trkpt lat="45.95216" lon="3.68534">
        <ele>1114</ele>
        <time>2022-08-29T08:51:01Z</time>
      </trkpt>
      <trkpt lat="45.95215" lon="3.68533">
        <ele>1114.1</ele>
        <time>2022-08-29T08:51:02Z</time>
      </trkpt>
      <trkpt lat="45.95215" lon="3.68531">
        <ele>1114.3</ele>
        <time>2022-08-29T08:51:03Z</time>
      </trkpt>
      <trkpt lat="45.95215" lon="3.6853">
        <ele>1114.4</ele>
        <time>2022-08-29T08:51:04Z</time>
      </trkpt>
      <trkpt lat="45.95214" lon="3.68528">
        <ele>1114.6</ele>
        <time>2022-08-29T08:51:05Z</time>
      </trkpt>
      <trkpt lat="45.95213" lon="3.68526">
        <ele>1114.9</ele>
        <time>2022-08-29T08:51:06Z</time>
      </trkpt>
      <trkpt lat="45.95212" lon="3.68525">
        <ele>1115</ele>
        <time>2022-08-29T08:51:07Z</time>
      </trkpt>
      <trkpt lat="45.95212" lon="3.68524">
        <ele>1115.1</ele>
        <time>2022-08-29T08:51:08Z</time>
      </trkpt>
      <trkpt lat="45.95211" lon="3.68523">
        <ele>1115.3</ele>
        <time>2022-08-29T08:51:09Z</time>
      </trkpt>
      <trkpt lat="45.9521" lon="3.68522">
        <ele>1115.4</ele>
        <time>2022-08-29T08:51:10Z</time>
      </trkpt>
      <trkpt lat="45.95209" lon="3.68521">
        <ele>1115.6</ele>
        <time>2022-08-29T08:51:11Z</time>
      </trkpt>
      <trkpt lat="45.95209" lon="3.68519">
        <ele>1115.7</ele>
        <time>2022-08-29T08:51:12Z</time>
      </trkpt>
      <trkpt lat="45.95208" lon="3.68518">
        <ele>1115.9</ele>
        <time>2022-08-29T08:51:13Z</time>
      </trkpt>
      <trkpt lat="45.95208" lon="3.68516">
        <ele>1116.1</ele>
        <time>2022-08-29T08:51:14Z</time>
      </trkpt>
      <trkpt lat="45.95207" lon="3.68515">
        <ele>1116.3</ele>
        <time>2022-08-29T08:51:15Z</time>
      </trkpt>
      <trkpt lat="45.95206" lon="3.68514">
        <ele>1116.4</ele>
        <time>2022-08-29T08:51:16Z</time>
      </trkpt>
      <trkpt lat="45.95206" lon="3.68512">
        <ele>1116.6</ele>
        <time>2022-08-29T08:51:17Z</time>
      </trkpt>
      <trkpt lat="45.95205" lon="3.68512">
        <ele>1116.7</ele>
        <time>2022-08-29T08:51:18Z</time>
      </trkpt>
      <trkpt lat="45.95204" lon="3.68511">
        <ele>1116.9</ele>
        <time>2022-08-29T08:51:19Z</time>
      </trkpt>
      <trkpt lat="45.95203" lon="3.6851">
        <ele>1117</ele>
        <time>2022-08-29T08:51:20Z</time>
      </trkpt>
      <trkpt lat="45.95203" lon="3.6851">
        <ele>1117.1</ele>
        <time>2022-08-29T08:51:21Z</time>
      </trkpt>
      <trkpt lat="45.95202" lon="3.6851">
        <ele>1117.2</ele>
        <time>2022-08-29T08:51:22Z</time>
      </trkpt>
      <trkpt lat="45.95202" lon="3.6851">
        <ele>1117.3</ele>
        <time>2022-08-29T08:51:23Z</time>
      </trkpt>
      <trkpt lat="45.95201" lon="3.6851">
        <ele>1117.4</ele>
        <time>2022-08-29T08:51:24Z</time>
      </trkpt>
      <trkpt lat="45.952" lon="3.68509">
        <ele>1117.5</ele>
        <time>2022-08-29T08:51:25Z</time>
      </trkpt>
      <trkpt lat="45.95199" lon="3.68509">
        <ele>1117.6</ele>
        <time>2022-08-29T08:51:26Z</time>
      </trkpt>
      <trkpt lat="45.95198" lon="3.68508">
        <ele>1117.8</ele>
        <time>2022-08-29T08:51:27Z</time>
      </trkpt>
      <trkpt lat="45.95198" lon="3.68507">
        <ele>1117.9</ele>
        <time>2022-08-29T08:51:28Z</time>
      </trkpt>
      <trkpt lat="45.95197" lon="3.68507">
        <ele>1118</ele>
        <time>2022-08-29T08:51:29Z</time>
      </trkpt>
      <trkpt lat="45.95196" lon="3.68507">
        <ele>1118.2</ele>
        <time>2022-08-29T08:51:30Z</time>
      </trkpt>
      <trkpt lat="45.95195" lon="3.68506">
        <ele>1118.3</ele>
        <time>2022-08-29T08:51:31Z</time>
      </trkpt>
      <trkpt lat="45.95195" lon="3.68505">
        <ele>1118.4</ele>
        <time>2022-08-29T08:51:32Z</time>
      </trkpt>
      <trkpt lat="45.95194" lon="3.68504">
        <ele>1118.5</ele>
        <time>2022-08-29T08:51:33Z</time>
      </trkpt>
      <trkpt lat="45.95193" lon="3.68503">
        <ele>1118.7</ele>
        <time>2022-08-29T08:51:34Z</time>
      </trkpt>
      <trkpt lat="45.95193" lon="3.68503">
        <ele>1118.8</ele>
        <time>2022-08-29T08:51:35Z</time>
      </trkpt>
      <trkpt lat="45.95192" lon="3.68502">
        <ele>1118.9</ele>
        <time>2022-08-29T08:51:36Z</time>
      </trkpt>
      <trkpt lat="45.95191" lon="3.68501">
        <ele>1119.1</ele>
        <time>2022-08-29T08:51:37Z</time>
      </trkpt>
      <trkpt lat="45.9519" lon="3.685">
        <ele>1119.2</ele>
        <time>2022-08-29T08:51:38Z</time>
      </trkpt>
      <trkpt lat="45.9519" lon="3.685">
        <ele>1119.3</ele>
        <time>2022-08-29T08:51:39Z</time>
      </trkpt>
      <trkpt lat="45.95189" lon="3.68499">
        <ele>1119.5</ele>
        <time>2022-08-29T08:51:40Z</time>
      </trkpt>
      <trkpt lat="45.95188" lon="3.68499">
        <ele>1119.6</ele>
        <time>2022-08-29T08:51:41Z</time>
      </trkpt>
      <trkpt lat="45.95187" lon="3.68498">
        <ele>1119.8</ele>
        <time>2022-08-29T08:51:42Z</time>
      </trkpt>
      <trkpt lat="45.95186" lon="3.68497">
        <ele>1120</ele>
        <time>2022-08-29T08:51:43Z</time>
      </trkpt>
      <trkpt lat="45.95185" lon="3.68495">
        <ele>1120.1</ele>
        <time>2022-08-29T08:51:44Z</time>
      </trkpt>
      <trkpt lat="45.95185" lon="3.68494">
        <ele>1120.3</ele>
        <time>2022-08-29T08:51:45Z</time>
      </trkpt>
      <trkpt lat="45.95184" lon="3.68492">
        <ele>1120.5</ele>
        <time>2022-08-29T08:51:46Z</time>
      </trkpt>
      <trkpt lat="45.95184" lon="3.68491">
        <ele>1120.6</ele>
        <time>2022-08-29T08:51:47Z</time>
      </trkpt>
      <trkpt lat="45.95183" lon="3.68489">
        <ele>1120.8</ele>
        <time>2022-08-29T08:51:48Z</time>
      </trkpt>
      <trkpt lat="45.95183" lon="3.68486">
        <ele>1121.1</ele>
        <time>2022-08-29T08:51:49Z</time>
      </trkpt>
      <trkpt lat="45.95182" lon="3.68485">
        <ele>1121.3</ele>
        <time>2022-08-29T08:51:50Z</time>
      </trkpt>
      <trkpt lat="45.95182" lon="3.68484">
        <ele>1121.4</ele>
        <time>2022-08-29T08:51:51Z</time>
      </trkpt>
      <trkpt lat="45.95182" lon="3.68482">
        <ele>1121.6</ele>
        <time>2022-08-29T08:51:52Z</time>
      </trkpt>
      <trkpt lat="45.95181" lon="3.68481">
        <ele>1121.8</ele>
        <time>2022-08-29T08:51:53Z</time>
      </trkpt>
      <trkpt lat="45.95181" lon="3.68479">
        <ele>1121.9</ele>
        <time>2022-08-29T08:51:54Z</time>
      </trkpt>
      <trkpt lat="45.9518" lon="3.68478">
        <ele>1122.1</ele>
        <time>2022-08-29T08:51:55Z</time>
      </trkpt>
      <trkpt lat="45.95179" lon="3.68477">
        <ele>1122.2</ele>
        <time>2022-08-29T08:51:56Z</time>
      </trkpt>
      <trkpt lat="45.95178" lon="3.68477">
        <ele>1122.4</ele>
        <time>2022-08-29T08:51:57Z</time>
      </trkpt>
      <trkpt lat="45.95176" lon="3.68477">
        <ele>1122.7</ele>
        <time>2022-08-29T08:51:58Z</time>
      </trkpt>
      <trkpt lat="45.95175" lon="3.68477">
        <ele>1122.8</ele>
        <time>2022-08-29T08:51:59Z</time>
      </trkpt>
      <trkpt lat="45.95174" lon="3.68477">
        <ele>1123</ele>
        <time>2022-08-29T08:52:00Z</time>
      </trkpt>
      <trkpt lat="45.95172" lon="3.68477">
        <ele>1123.2</ele>
        <time>2022-08-29T08:52:01Z</time>
      </trkpt>
      <trkpt lat="45.9517" lon="3.68477">
        <ele>1123.5</ele>
        <time>2022-08-29T08:52:02Z</time>
      </trkpt>
      <trkpt lat="45.95169" lon="3.68477">
        <ele>1123.7</ele>
        <time>2022-08-29T08:52:03Z</time>
      </trkpt>
      <trkpt lat="45.95168" lon="3.68478">
        <ele>1123.9</ele>
        <time>2022-08-29T08:52:04Z</time>
      </trkpt>
      <trkpt lat="45.95167" lon="3.68478">
        <ele>1124</ele>
        <time>2022-08-29T08:52:05Z</time>
      </trkpt>
      <trkpt lat="45.95165" lon="3.68478">
        <ele>1124.2</ele>
        <time>2022-08-29T08:52:06Z</time>
      </trkpt>
      <trkpt lat="45.95165" lon="3.68478">
        <ele>1124.3</ele>
        <time>2022-08-29T08:52:07Z</time>
      </trkpt>
      <trkpt lat="45.95164" lon="3.68478">
        <ele>1124.4</ele>
        <time>2022-08-29T08:52:08Z</time>
      </trkpt>
      <trkpt lat="45.95163" lon="3.68477">
        <ele>1124.5</ele>
        <time>2022-08-29T08:52:09Z</time>
      </trkpt>
      <trkpt lat="45.95162" lon="3.68477">
        <ele>1124.6</ele>
        <time>2022-08-29T08:52:10Z</time>
      </trkpt>
      <trkpt lat="45.95162" lon="3.68476">
        <ele>1124.7</ele>
        <time>2022-08-29T08:52:11Z</time>
      </trkpt>
      <trkpt lat="45.95161" lon="3.68476">
        <ele>1124.8</ele>
        <time>2022-08-29T08:52:12Z</time>
      </trkpt>
      <trkpt lat="45.9516" lon="3.68476">
        <ele>1125</ele>
        <time>2022-08-29T08:52:13Z</time>
      </trkpt>
      <trkpt lat="45.95158" lon="3.68476">
        <ele>1125.2</ele>
        <time>2022-08-29T08:52:14Z</time>
      </trkpt>
      <trkpt lat="45.95157" lon="3.68475">
        <ele>1125.3</ele>
        <time>2022-08-29T08:52:15Z</time>
      </trkpt>
      <trkpt lat="45.95156" lon="3.68475">
        <ele>1125.5</ele>
        <time>2022-08-29T08:52:16Z</time>
      </trkpt>
      <trkpt lat="45.95155" lon="3.68475">
        <ele>1125.6</ele>
        <time>2022-08-29T08:52:17Z</time>
      </trkpt>
      <trkpt lat="45.95154" lon="3.68475">
        <ele>1125.7</ele>
        <time>2022-08-29T08:52:18Z</time>
      </trkpt>
      <trkpt lat="45.95153" lon="3.68474">
        <ele>1125.9</ele>
        <time>2022-08-29T08:52:19Z</time>
      </trkpt>
      <trkpt lat="45.95152" lon="3.68474">
        <ele>1126</ele>
        <time>2022-08-29T08:52:20Z</time>
      </trkpt>
      <trkpt lat="45.95151" lon="3.68474">
        <ele>1126.2</ele>
        <time>2022-08-29T08:52:21Z</time>
      </trkpt>
      <trkpt lat="45.9515" lon="3.68473">
        <ele>1126.3</ele>
        <time>2022-08-29T08:52:22Z</time>
      </trkpt>
      <trkpt lat="45.95149" lon="3.68472">
        <ele>1126.4</ele>
        <time>2022-08-29T08:52:23Z</time>
      </trkpt>
      <trkpt lat="45.95148" lon="3.6847">
        <ele>1126.6</ele>
        <time>2022-08-29T08:52:24Z</time>
      </trkpt>
      <trkpt lat="45.95148" lon="3.6847">
        <ele>1126.7</ele>
        <time>2022-08-29T08:52:25Z</time>
      </trkpt>
      <trkpt lat="45.95147" lon="3.68469">
        <ele>1126.8</ele>
        <time>2022-08-29T08:52:26Z</time>
      </trkpt>
      <trkpt lat="45.95146" lon="3.68468">
        <ele>1126.9</ele>
        <time>2022-08-29T08:52:27Z</time>
      </trkpt>
      <trkpt lat="45.95146" lon="3.68467">
        <ele>1127.1</ele>
        <time>2022-08-29T08:52:28Z</time>
      </trkpt>
      <trkpt lat="45.95145" lon="3.68466">
        <ele>1127.2</ele>
        <time>2022-08-29T08:52:29Z</time>
      </trkpt>
      <trkpt lat="45.95144" lon="3.68465">
        <ele>1127.3</ele>
        <time>2022-08-29T08:52:30Z</time>
      </trkpt>
      <trkpt lat="45.95144" lon="3.68464">
        <ele>1127.4</ele>
        <time>2022-08-29T08:52:31Z</time>
      </trkpt>
      <trkpt lat="45.95144" lon="3.68464">
        <ele>1127.5</ele>
        <time>2022-08-29T08:52:32Z</time>
      </trkpt>
      <trkpt lat="45.95144" lon="3.68463">
        <ele>1127.5</ele>
        <time>2022-08-29T08:52:33Z</time>
      </trkpt>
      <trkpt lat="45.95144" lon="3.68462">
        <ele>1127.6</ele>
        <time>2022-08-29T08:52:34Z</time>
      </trkpt>
      <trkpt lat="45.95144" lon="3.68461">
        <ele>1127.7</ele>
        <time>2022-08-29T08:52:35Z</time>
      </trkpt>
      <trkpt lat="45.95144" lon="3.6846">
        <ele>1127.8</ele>
        <time>2022-08-29T08:52:36Z</time>
      </trkpt>
      <trkpt lat="45.95144" lon="3.68459">
        <ele>1127.9</ele>
        <time>2022-08-29T08:52:37Z</time>
      </trkpt>
      <trkpt lat="45.95143" lon="3.68457">
        <ele>1128</ele>
        <time>2022-08-29T08:52:38Z</time>
      </trkpt>
      <trkpt lat="45.95143" lon="3.68455">
        <ele>1128.2</ele>
        <time>2022-08-29T08:52:39Z</time>
      </trkpt>
      <trkpt lat="45.95143" lon="3.68453">
        <ele>1128.4</ele>
        <time>2022-08-29T08:52:40Z</time>
      </trkpt>
      <trkpt lat="45.95141" lon="3.6845">
        <ele>1128.7</ele>
        <time>2022-08-29T08:52:41Z</time>
      </trkpt>
      <trkpt lat="45.95141" lon="3.68449">
        <ele>1128.8</ele>
        <time>2022-08-29T08:52:42Z</time>
      </trkpt>
      <trkpt lat="45.95141" lon="3.68448">
        <ele>1128.9</ele>
        <time>2022-08-29T08:52:43Z</time>
      </trkpt>
      <trkpt lat="45.95139" lon="3.68444">
        <ele>1129.3</ele>
        <time>2022-08-29T08:52:44Z</time>
      </trkpt>
      <trkpt lat="45.95138" lon="3.68443">
        <ele>1129.4</ele>
        <time>2022-08-29T08:52:45Z</time>
      </trkpt>
      <trkpt lat="45.95137" lon="3.68442">
        <ele>1129.6</ele>
        <time>2022-08-29T08:52:46Z</time>
      </trkpt>
      <trkpt lat="45.95136" lon="3.68441">
        <ele>1129.8</ele>
        <time>2022-08-29T08:52:47Z</time>
      </trkpt>
      <trkpt lat="45.95135" lon="3.68439">
        <ele>1129.9</ele>
        <time>2022-08-29T08:52:48Z</time>
      </trkpt>
      <trkpt lat="45.95134" lon="3.68438">
        <ele>1130.1</ele>
        <time>2022-08-29T08:52:49Z</time>
      </trkpt>
      <trkpt lat="45.95134" lon="3.68437">
        <ele>1130.2</ele>
        <time>2022-08-29T08:52:50Z</time>
      </trkpt>
      <trkpt lat="45.95133" lon="3.68436">
        <ele>1130.3</ele>
        <time>2022-08-29T08:52:51Z</time>
      </trkpt>
      <trkpt lat="45.95132" lon="3.68435">
        <ele>1130.4</ele>
        <time>2022-08-29T08:52:52Z</time>
      </trkpt>
      <trkpt lat="45.95131" lon="3.68434">
        <ele>1130.6</ele>
        <time>2022-08-29T08:52:53Z</time>
      </trkpt>
      <trkpt lat="45.95131" lon="3.68433">
        <ele>1130.8</ele>
        <time>2022-08-29T08:52:54Z</time>
      </trkpt>
      <trkpt lat="45.9513" lon="3.68432">
        <ele>1130.9</ele>
        <time>2022-08-29T08:52:55Z</time>
      </trkpt>
      <trkpt lat="45.95128" lon="3.6843">
        <ele>1131.1</ele>
        <time>2022-08-29T08:52:56Z</time>
      </trkpt>
      <trkpt lat="45.95127" lon="3.6843">
        <ele>1131.2</ele>
        <time>2022-08-29T08:52:57Z</time>
      </trkpt>
      <trkpt lat="45.95126" lon="3.68429">
        <ele>1131.3</ele>
        <time>2022-08-29T08:52:58Z</time>
      </trkpt>
      <trkpt lat="45.95125" lon="3.68429">
        <ele>1131.5</ele>
        <time>2022-08-29T08:52:59Z</time>
      </trkpt>
      <trkpt lat="45.95123" lon="3.68429">
        <ele>1131.7</ele>
        <time>2022-08-29T08:53:00Z</time>
      </trkpt>
      <trkpt lat="45.9512" lon="3.68429">
        <ele>1132</ele>
        <time>2022-08-29T08:53:01Z</time>
      </trkpt>
      <trkpt lat="45.95119" lon="3.68429">
        <ele>1132.1</ele>
        <time>2022-08-29T08:53:02Z</time>
      </trkpt>
      <trkpt lat="45.95116" lon="3.6843">
        <ele>1132.5</ele>
        <time>2022-08-29T08:53:03Z</time>
      </trkpt>
      <trkpt lat="45.95115" lon="3.6843">
        <ele>1132.6</ele>
        <time>2022-08-29T08:53:04Z</time>
      </trkpt>
      <trkpt lat="45.95113" lon="3.6843">
        <ele>1132.8</ele>
        <time>2022-08-29T08:53:05Z</time>
      </trkpt>
      <trkpt lat="45.95111" lon="3.6843">
        <ele>1133</ele>
        <time>2022-08-29T08:53:06Z</time>
      </trkpt>
      <trkpt lat="45.9511" lon="3.6843">
        <ele>1133.2</ele>
        <time>2022-08-29T08:53:07Z</time>
      </trkpt>
      <trkpt lat="45.95108" lon="3.6843">
        <ele>1133.4</ele>
        <time>2022-08-29T08:53:08Z</time>
      </trkpt>
      <trkpt lat="45.95106" lon="3.6843">
        <ele>1133.6</ele>
        <time>2022-08-29T08:53:09Z</time>
      </trkpt>
      <trkpt lat="45.95105" lon="3.68429">
        <ele>1133.7</ele>
        <time>2022-08-29T08:53:10Z</time>
      </trkpt>
      <trkpt lat="45.95103" lon="3.68429">
        <ele>1134</ele>
        <time>2022-08-29T08:53:11Z</time>
      </trkpt>
      <trkpt lat="45.95102" lon="3.68429">
        <ele>1134.1</ele>
        <time>2022-08-29T08:53:12Z</time>
      </trkpt>
      <trkpt lat="45.95101" lon="3.68429">
        <ele>1134.2</ele>
        <time>2022-08-29T08:53:13Z</time>
      </trkpt>
      <trkpt lat="45.95099" lon="3.68429">
        <ele>1134.4</ele>
        <time>2022-08-29T08:53:14Z</time>
      </trkpt>
      <trkpt lat="45.95098" lon="3.68429">
        <ele>1134.5</ele>
        <time>2022-08-29T08:53:15Z</time>
      </trkpt>
      <trkpt lat="45.95096" lon="3.68429">
        <ele>1134.8</ele>
        <time>2022-08-29T08:53:16Z</time>
      </trkpt>
      <trkpt lat="45.95095" lon="3.68429">
        <ele>1134.9</ele>
        <time>2022-08-29T08:53:17Z</time>
      </trkpt>
      <trkpt lat="45.95094" lon="3.68429">
        <ele>1135</ele>
        <time>2022-08-29T08:53:18Z</time>
      </trkpt>
      <trkpt lat="45.95093" lon="3.68428">
        <ele>1135.1</ele>
        <time>2022-08-29T08:53:19Z</time>
      </trkpt>
      <trkpt lat="45.95092" lon="3.68428">
        <ele>1135.2</ele>
        <time>2022-08-29T08:53:20Z</time>
      </trkpt>
      <trkpt lat="45.95092" lon="3.68428">
        <ele>1135.3</ele>
        <time>2022-08-29T08:53:21Z</time>
      </trkpt>
      <trkpt lat="45.95091" lon="3.68427">
        <ele>1135.4</ele>
        <time>2022-08-29T08:53:22Z</time>
      </trkpt>
      <trkpt lat="45.95091" lon="3.68426">
        <ele>1135.5</ele>
        <time>2022-08-29T08:53:23Z</time>
      </trkpt>
      <trkpt lat="45.9509" lon="3.68425">
        <ele>1135.6</ele>
        <time>2022-08-29T08:53:24Z</time>
      </trkpt>
      <trkpt lat="45.95089" lon="3.68424">
        <ele>1135.7</ele>
        <time>2022-08-29T08:53:25Z</time>
      </trkpt>
      <trkpt lat="45.95088" lon="3.68424">
        <ele>1135.8</ele>
        <time>2022-08-29T08:53:26Z</time>
      </trkpt>
      <trkpt lat="45.95087" lon="3.68424">
        <ele>1135.9</ele>
        <time>2022-08-29T08:53:27Z</time>
      </trkpt>
      <trkpt lat="45.95087" lon="3.68424">
        <ele>1136.1</ele>
        <time>2022-08-29T08:53:28Z</time>
      </trkpt>
      <trkpt lat="45.95086" lon="3.68425">
        <ele>1136.1</ele>
        <time>2022-08-29T08:53:29Z</time>
      </trkpt>
      <trkpt lat="45.95086" lon="3.68426">
        <ele>1136.2</ele>
        <time>2022-08-29T08:53:30Z</time>
      </trkpt>
      <trkpt lat="45.95085" lon="3.68426">
        <ele>1136.3</ele>
        <time>2022-08-29T08:53:31Z</time>
      </trkpt>
      <trkpt lat="45.95085" lon="3.68426">
        <ele>1136.3</ele>
        <time>2022-08-29T08:53:32Z</time>
      </trkpt>
      <trkpt lat="45.95084" lon="3.68426">
        <ele>1136.4</ele>
        <time>2022-08-29T08:53:33Z</time>
      </trkpt>
      <trkpt lat="45.95084" lon="3.68427">
        <ele>1136.4</ele>
        <time>2022-08-29T08:53:34Z</time>
      </trkpt>
      <trkpt lat="45.95084" lon="3.68427">
        <ele>1136.5</ele>
        <time>2022-08-29T08:53:35Z</time>
      </trkpt>
      <trkpt lat="45.95083" lon="3.68426">
        <ele>1136.5</ele>
        <time>2022-08-29T08:53:36Z</time>
      </trkpt>
      <trkpt lat="45.95083" lon="3.68426">
        <ele>1136.5</ele>
        <time>2022-08-29T08:53:37Z</time>
      </trkpt>
      <trkpt lat="45.95083" lon="3.68426">
        <ele>1136.5</ele>
        <time>2022-08-29T08:53:38Z</time>
      </trkpt>
      <trkpt lat="45.95083" lon="3.68426">
        <ele>1136.6</ele>
        <time>2022-08-29T08:53:39Z</time>
      </trkpt>
      <trkpt lat="45.95082" lon="3.68425">
        <ele>1136.8</ele>
        <time>2022-08-29T08:53:40Z</time>
      </trkpt>
      <trkpt lat="45.95081" lon="3.68424">
        <ele>1136.9</ele>
        <time>2022-08-29T08:53:41Z</time>
      </trkpt>
      <trkpt lat="45.9508" lon="3.68422">
        <ele>1137.2</ele>
        <time>2022-08-29T08:53:42Z</time>
      </trkpt>
      <trkpt lat="45.9508" lon="3.6842">
        <ele>1137.3</ele>
        <time>2022-08-29T08:53:43Z</time>
      </trkpt>
      <trkpt lat="45.95079" lon="3.68419">
        <ele>1137.4</ele>
        <time>2022-08-29T08:53:44Z</time>
      </trkpt>
      <trkpt lat="45.95078" lon="3.68417">
        <ele>1137.6</ele>
        <time>2022-08-29T08:53:45Z</time>
      </trkpt>
      <trkpt lat="45.95077" lon="3.68415">
        <ele>1137.8</ele>
        <time>2022-08-29T08:53:46Z</time>
      </trkpt>
      <trkpt lat="45.95077" lon="3.68413">
        <ele>1138</ele>
        <time>2022-08-29T08:53:47Z</time>
      </trkpt>
      <trkpt lat="45.95076" lon="3.68411">
        <ele>1138.1</ele>
        <time>2022-08-29T08:53:48Z</time>
      </trkpt>
      <trkpt lat="45.95075" lon="3.6841">
        <ele>1138.3</ele>
        <time>2022-08-29T08:53:49Z</time>
      </trkpt>
      <trkpt lat="45.95074" lon="3.68408">
        <ele>1138.5</ele>
        <time>2022-08-29T08:53:50Z</time>
      </trkpt>
      <trkpt lat="45.95074" lon="3.68406">
        <ele>1138.7</ele>
        <time>2022-08-29T08:53:51Z</time>
      </trkpt>
      <trkpt lat="45.95073" lon="3.68404">
        <ele>1138.9</ele>
        <time>2022-08-29T08:53:53Z</time>
      </trkpt>
      <trkpt lat="45.95072" lon="3.68403">
        <ele>1139.1</ele>
        <time>2022-08-29T08:53:54Z</time>
      </trkpt>
      <trkpt lat="45.95071" lon="3.68401">
        <ele>1139.2</ele>
        <time>2022-08-29T08:53:55Z</time>
      </trkpt>
      <trkpt lat="45.95069" lon="3.684">
        <ele>1139.4</ele>
        <time>2022-08-29T08:53:56Z</time>
      </trkpt>
      <trkpt lat="45.95068" lon="3.68399">
        <ele>1139.6</ele>
        <time>2022-08-29T08:53:57Z</time>
      </trkpt>
      <trkpt lat="45.95067" lon="3.68399">
        <ele>1139.7</ele>
        <time>2022-08-29T08:53:58Z</time>
      </trkpt>
      <trkpt lat="45.95066" lon="3.68398">
        <ele>1139.9</ele>
        <time>2022-08-29T08:53:59Z</time>
      </trkpt>
      <trkpt lat="45.95065" lon="3.68398">
        <ele>1140</ele>
        <time>2022-08-29T08:54:00Z</time>
      </trkpt>
      <trkpt lat="45.95064" lon="3.68397">
        <ele>1140.2</ele>
        <time>2022-08-29T08:54:01Z</time>
      </trkpt>
      <trkpt lat="45.95062" lon="3.68396">
        <ele>1140.3</ele>
        <time>2022-08-29T08:54:02Z</time>
      </trkpt>
      <trkpt lat="45.95061" lon="3.68396">
        <ele>1140.5</ele>
        <time>2022-08-29T08:54:03Z</time>
      </trkpt>
      <trkpt lat="45.9506" lon="3.68396">
        <ele>1140.6</ele>
        <time>2022-08-29T08:54:04Z</time>
      </trkpt>
      <trkpt lat="45.95059" lon="3.68396">
        <ele>1140.8</ele>
        <time>2022-08-29T08:54:05Z</time>
      </trkpt>
      <trkpt lat="45.95058" lon="3.68396">
        <ele>1141</ele>
        <time>2022-08-29T08:54:06Z</time>
      </trkpt>
      <trkpt lat="45.95057" lon="3.68397">
        <ele>1141.1</ele>
        <time>2022-08-29T08:54:07Z</time>
      </trkpt>
      <trkpt lat="45.95056" lon="3.68396">
        <ele>1141.2</ele>
        <time>2022-08-29T08:54:08Z</time>
      </trkpt>
      <trkpt lat="45.95055" lon="3.68396">
        <ele>1141.4</ele>
        <time>2022-08-29T08:54:09Z</time>
      </trkpt>
      <trkpt lat="45.95053" lon="3.68393">
        <ele>1141.6</ele>
        <time>2022-08-29T08:54:10Z</time>
      </trkpt>
      <trkpt lat="45.95053" lon="3.68392">
        <ele>1141.8</ele>
        <time>2022-08-29T08:54:12Z</time>
      </trkpt>
      <trkpt lat="45.95053" lon="3.6839">
        <ele>1141.9</ele>
        <time>2022-08-29T08:54:13Z</time>
      </trkpt>
      <trkpt lat="45.95053" lon="3.68389">
        <ele>1142</ele>
        <time>2022-08-29T08:54:14Z</time>
      </trkpt>
      <trkpt lat="45.95052" lon="3.68387">
        <ele>1142.1</ele>
        <time>2022-08-29T08:54:15Z</time>
      </trkpt>
      <trkpt lat="45.95052" lon="3.68386">
        <ele>1142.2</ele>
        <time>2022-08-29T08:54:16Z</time>
      </trkpt>
      <trkpt lat="45.95052" lon="3.68384">
        <ele>1142.3</ele>
        <time>2022-08-29T08:54:17Z</time>
      </trkpt>
      <trkpt lat="45.95052" lon="3.68383">
        <ele>1142.4</ele>
        <time>2022-08-29T08:54:18Z</time>
      </trkpt>
      <trkpt lat="45.95052" lon="3.68383">
        <ele>1142.5</ele>
        <time>2022-08-29T08:54:19Z</time>
      </trkpt>
      <trkpt lat="45.95052" lon="3.68383">
        <ele>1142.5</ele>
        <time>2022-08-29T08:54:20Z</time>
      </trkpt>
      <trkpt lat="45.95051" lon="3.68382">
        <ele>1142.6</ele>
        <time>2022-08-29T08:54:21Z</time>
      </trkpt>
      <trkpt lat="45.9505" lon="3.68382">
        <ele>1142.7</ele>
        <time>2022-08-29T08:54:22Z</time>
      </trkpt>
      <trkpt lat="45.95049" lon="3.68382">
        <ele>1142.8</ele>
        <time>2022-08-29T08:54:23Z</time>
      </trkpt>
      <trkpt lat="45.95048" lon="3.68382">
        <ele>1142.9</ele>
        <time>2022-08-29T08:54:24Z</time>
      </trkpt>
      <trkpt lat="45.95047" lon="3.68381">
        <ele>1143</ele>
        <time>2022-08-29T08:54:25Z</time>
      </trkpt>
      <trkpt lat="45.95045" lon="3.68381">
        <ele>1143.3</ele>
        <time>2022-08-29T08:54:26Z</time>
      </trkpt>
      <trkpt lat="45.95044" lon="3.68381">
        <ele>1143.4</ele>
        <time>2022-08-29T08:54:27Z</time>
      </trkpt>
      <trkpt lat="45.95043" lon="3.6838">
        <ele>1143.5</ele>
        <time>2022-08-29T08:54:28Z</time>
      </trkpt>
      <trkpt lat="45.95041" lon="3.6838">
        <ele>1143.7</ele>
        <time>2022-08-29T08:54:29Z</time>
      </trkpt>
      <trkpt lat="45.9504" lon="3.68379">
        <ele>1143.8</ele>
        <time>2022-08-29T08:54:30Z</time>
      </trkpt>
      <trkpt lat="45.95039" lon="3.68378">
        <ele>1144</ele>
        <time>2022-08-29T08:54:31Z</time>
      </trkpt>
      <trkpt lat="45.95037" lon="3.68377">
        <ele>1144.2</ele>
        <time>2022-08-29T08:54:32Z</time>
      </trkpt>
      <trkpt lat="45.95036" lon="3.68376">
        <ele>1144.4</ele>
        <time>2022-08-29T08:54:33Z</time>
      </trkpt>
      <trkpt lat="45.95034" lon="3.68375">
        <ele>1144.5</ele>
        <time>2022-08-29T08:54:34Z</time>
      </trkpt>
      <trkpt lat="45.95033" lon="3.68374">
        <ele>1144.7</ele>
        <time>2022-08-29T08:54:35Z</time>
      </trkpt>
      <trkpt lat="45.95032" lon="3.68373">
        <ele>1144.9</ele>
        <time>2022-08-29T08:54:36Z</time>
      </trkpt>
      <trkpt lat="45.95031" lon="3.68372">
        <ele>1145</ele>
        <time>2022-08-29T08:54:37Z</time>
      </trkpt>
      <trkpt lat="45.9503" lon="3.68371">
        <ele>1145.1</ele>
        <time>2022-08-29T08:54:38Z</time>
      </trkpt>
      <trkpt lat="45.9503" lon="3.6837">
        <ele>1145.2</ele>
        <time>2022-08-29T08:54:39Z</time>
      </trkpt>
      <trkpt lat="45.95029" lon="3.68369">
        <ele>1145.3</ele>
        <time>2022-08-29T08:54:40Z</time>
      </trkpt>
      <trkpt lat="45.95029" lon="3.68369">
        <ele>1145.3</ele>
        <time>2022-08-29T08:54:41Z</time>
      </trkpt>
      <trkpt lat="45.95029" lon="3.68368">
        <ele>1145.4</ele>
        <time>2022-08-29T08:54:42Z</time>
      </trkpt>
      <trkpt lat="45.95028" lon="3.68368">
        <ele>1145.5</ele>
        <time>2022-08-29T08:54:43Z</time>
      </trkpt>
      <trkpt lat="45.95028" lon="3.68367">
        <ele>1145.5</ele>
        <time>2022-08-29T08:54:44Z</time>
      </trkpt>
      <trkpt lat="45.95028" lon="3.68367">
        <ele>1145.6</ele>
        <time>2022-08-29T08:54:45Z</time>
      </trkpt>
      <trkpt lat="45.95027" lon="3.68366">
        <ele>1145.7</ele>
        <time>2022-08-29T08:54:46Z</time>
      </trkpt>
      <trkpt lat="45.95026" lon="3.68365">
        <ele>1145.7</ele>
        <time>2022-08-29T08:54:47Z</time>
      </trkpt>
      <trkpt lat="45.95026" lon="3.68364">
        <ele>1145.9</ele>
        <time>2022-08-29T08:54:48Z</time>
      </trkpt>
      <trkpt lat="45.95025" lon="3.68364">
        <ele>1145.9</ele>
        <time>2022-08-29T08:54:49Z</time>
      </trkpt>
      <trkpt lat="45.95024" lon="3.68363">
        <ele>1146.1</ele>
        <time>2022-08-29T08:54:50Z</time>
      </trkpt>
      <trkpt lat="45.95024" lon="3.68362">
        <ele>1146.2</ele>
        <time>2022-08-29T08:54:51Z</time>
      </trkpt>
      <trkpt lat="45.95023" lon="3.68361">
        <ele>1146.3</ele>
        <time>2022-08-29T08:54:52Z</time>
      </trkpt>
      <trkpt lat="45.95022" lon="3.6836">
        <ele>1146.4</ele>
        <time>2022-08-29T08:54:53Z</time>
      </trkpt>
      <trkpt lat="45.95022" lon="3.68359">
        <ele>1146.5</ele>
        <time>2022-08-29T08:54:54Z</time>
      </trkpt>
      <trkpt lat="45.95021" lon="3.68358">
        <ele>1146.6</ele>
        <time>2022-08-29T08:54:55Z</time>
      </trkpt>
      <trkpt lat="45.9502" lon="3.68357">
        <ele>1146.7</ele>
        <time>2022-08-29T08:54:56Z</time>
      </trkpt>
      <trkpt lat="45.9502" lon="3.68356">
        <ele>1146.8</ele>
        <time>2022-08-29T08:54:57Z</time>
      </trkpt>
      <trkpt lat="45.95019" lon="3.68355">
        <ele>1146.9</ele>
        <time>2022-08-29T08:54:58Z</time>
      </trkpt>
      <trkpt lat="45.95019" lon="3.68354">
        <ele>1147</ele>
        <time>2022-08-29T08:54:59Z</time>
      </trkpt>
      <trkpt lat="45.95018" lon="3.68354">
        <ele>1147</ele>
        <time>2022-08-29T08:55:00Z</time>
      </trkpt>
      <trkpt lat="45.95018" lon="3.68353">
        <ele>1147.1</ele>
        <time>2022-08-29T08:55:01Z</time>
      </trkpt>
      <trkpt lat="45.95017" lon="3.68352">
        <ele>1147.2</ele>
        <time>2022-08-29T08:55:02Z</time>
      </trkpt>
      <trkpt lat="45.95017" lon="3.68351">
        <ele>1147.2</ele>
        <time>2022-08-29T08:55:03Z</time>
      </trkpt>
      <trkpt lat="45.95017" lon="3.68351">
        <ele>1147.3</ele>
        <time>2022-08-29T08:55:04Z</time>
      </trkpt>
      <trkpt lat="45.95017" lon="3.68351">
        <ele>1147.3</ele>
        <time>2022-08-29T08:55:05Z</time>
      </trkpt>
      <trkpt lat="45.95017" lon="3.68351">
        <ele>1147.3</ele>
        <time>2022-08-29T08:55:06Z</time>
      </trkpt>
      <trkpt lat="45.95017" lon="3.68351">
        <ele>1147.3</ele>
        <time>2022-08-29T08:55:07Z</time>
      </trkpt>
      <trkpt lat="45.95017" lon="3.6835">
        <ele>1147.4</ele>
        <time>2022-08-29T08:55:08Z</time>
      </trkpt>
      <trkpt lat="45.95016" lon="3.6835">
        <ele>1147.4</ele>
        <time>2022-08-29T08:55:09Z</time>
      </trkpt>
      <trkpt lat="45.95016" lon="3.6835">
        <ele>1147.5</ele>
        <time>2022-08-29T08:55:10Z</time>
      </trkpt>
      <trkpt lat="45.95015" lon="3.6835">
        <ele>1147.5</ele>
        <time>2022-08-29T08:55:11Z</time>
      </trkpt>
      <trkpt lat="45.95015" lon="3.6835">
        <ele>1147.5</ele>
        <time>2022-08-29T08:55:12Z</time>
      </trkpt>
      <trkpt lat="45.95015" lon="3.6835">
        <ele>1147.6</ele>
        <time>2022-08-29T08:55:13Z</time>
      </trkpt>
      <trkpt lat="45.95015" lon="3.6835">
        <ele>1147.6</ele>
        <time>2022-08-29T08:55:14Z</time>
      </trkpt>
      <trkpt lat="45.95014" lon="3.6835">
        <ele>1147.6</ele>
        <time>2022-08-29T08:55:15Z</time>
      </trkpt>
      <trkpt lat="45.95014" lon="3.6835">
        <ele>1147.7</ele>
        <time>2022-08-29T08:55:16Z</time>
      </trkpt>
      <trkpt lat="45.95013" lon="3.6835">
        <ele>1147.7</ele>
        <time>2022-08-29T08:55:17Z</time>
      </trkpt>
      <trkpt lat="45.95013" lon="3.68349">
        <ele>1147.8</ele>
        <time>2022-08-29T08:55:18Z</time>
      </trkpt>
      <trkpt lat="45.95013" lon="3.68349">
        <ele>1147.8</ele>
        <time>2022-08-29T08:55:19Z</time>
      </trkpt>
      <trkpt lat="45.95012" lon="3.68349">
        <ele>1147.8</ele>
        <time>2022-08-29T08:55:20Z</time>
      </trkpt>
      <trkpt lat="45.95012" lon="3.68349">
        <ele>1147.9</ele>
        <time>2022-08-29T08:55:21Z</time>
      </trkpt>
      <trkpt lat="45.95012" lon="3.68349">
        <ele>1147.9</ele>
        <time>2022-08-29T08:55:22Z</time>
      </trkpt>
      <trkpt lat="45.95012" lon="3.68349">
        <ele>1147.9</ele>
        <time>2022-08-29T08:55:23Z</time>
      </trkpt>
      <trkpt lat="45.95012" lon="3.68349">
        <ele>1147.9</ele>
        <time>2022-08-29T08:55:24Z</time>
      </trkpt>
      <trkpt lat="45.95012" lon="3.68349">
        <ele>1147.9</ele>
        <time>2022-08-29T08:55:25Z</time>
      </trkpt>
      <trkpt lat="45.95012" lon="3.68349">
        <ele>1147.9</ele>
        <time>2022-08-29T08:55:26Z</time>
      </trkpt>
      <trkpt lat="45.95012" lon="3.68349">
        <ele>1147.9</ele>
        <time>2022-08-29T08:55:27Z</time>
      </trkpt>
      <trkpt lat="45.95012" lon="3.68349">
        <ele>1147.9</ele>
        <time>2022-08-29T08:55:28Z</time>
      </trkpt>
      <trkpt lat="45.95012" lon="3.68349">
        <ele>1147.9</ele>
        <time>2022-08-29T08:55:29Z</time>
      </trkpt>
      <trkpt lat="45.95012" lon="3.68349">
        <ele>1147.9</ele>
        <time>2022-08-29T08:55:30Z</time>
      </trkpt>
      <trkpt lat="45.95011" lon="3.68348">
        <ele>1148</ele>
        <time>2022-08-29T08:55:31Z</time>
      </trkpt>
      <trkpt lat="45.9501" lon="3.68347">
        <ele>1148.2</ele>
        <time>2022-08-29T08:55:32Z</time>
      </trkpt>
      <trkpt lat="45.95009" lon="3.68347">
        <ele>1148.2</ele>
        <time>2022-08-29T08:55:33Z</time>
      </trkpt>
      <trkpt lat="45.95009" lon="3.68346">
        <ele>1148.3</ele>
        <time>2022-08-29T08:55:34Z</time>
      </trkpt>
      <trkpt lat="45.95008" lon="3.68345">
        <ele>1148.4</ele>
        <time>2022-08-29T08:55:35Z</time>
      </trkpt>
      <trkpt lat="45.95007" lon="3.68345">
        <ele>1148.5</ele>
        <time>2022-08-29T08:55:36Z</time>
      </trkpt>
      <trkpt lat="45.95005" lon="3.68343">
        <ele>1148.7</ele>
        <time>2022-08-29T08:55:37Z</time>
      </trkpt>
      <trkpt lat="45.95002" lon="3.68341">
        <ele>1149.1</ele>
        <time>2022-08-29T08:55:38Z</time>
      </trkpt>
      <trkpt lat="45.95001" lon="3.6834">
        <ele>1149.2</ele>
        <time>2022-08-29T08:55:39Z</time>
      </trkpt>
      <trkpt lat="45.94999" lon="3.68338">
        <ele>1149.4</ele>
        <time>2022-08-29T08:55:40Z</time>
      </trkpt>
      <trkpt lat="45.94998" lon="3.68337">
        <ele>1149.5</ele>
        <time>2022-08-29T08:55:41Z</time>
      </trkpt>
      <trkpt lat="45.94997" lon="3.68335">
        <ele>1149.7</ele>
        <time>2022-08-29T08:55:42Z</time>
      </trkpt>
      <trkpt lat="45.94995" lon="3.68334">
        <ele>1149.9</ele>
        <time>2022-08-29T08:55:43Z</time>
      </trkpt>
      <trkpt lat="45.94993" lon="3.68331">
        <ele>1150.2</ele>
        <time>2022-08-29T08:55:44Z</time>
      </trkpt>
      <trkpt lat="45.94993" lon="3.6833">
        <ele>1150.2</ele>
        <time>2022-08-29T08:55:45Z</time>
      </trkpt>
      <trkpt lat="45.94992" lon="3.68328">
        <ele>1150.4</ele>
        <time>2022-08-29T08:55:46Z</time>
      </trkpt>
      <trkpt lat="45.94991" lon="3.68326">
        <ele>1150.5</ele>
        <time>2022-08-29T08:55:47Z</time>
      </trkpt>
      <trkpt lat="45.94991" lon="3.68324">
        <ele>1150.7</ele>
        <time>2022-08-29T08:55:48Z</time>
      </trkpt>
      <trkpt lat="45.9499" lon="3.68323">
        <ele>1150.8</ele>
        <time>2022-08-29T08:55:49Z</time>
      </trkpt>
      <trkpt lat="45.9499" lon="3.6832">
        <ele>1151</ele>
        <time>2022-08-29T08:55:50Z</time>
      </trkpt>
      <trkpt lat="45.9499" lon="3.68319">
        <ele>1151.1</ele>
        <time>2022-08-29T08:55:51Z</time>
      </trkpt>
      <trkpt lat="45.94989" lon="3.68317">
        <ele>1151.2</ele>
        <time>2022-08-29T08:55:52Z</time>
      </trkpt>
      <trkpt lat="45.94989" lon="3.68316">
        <ele>1151.3</ele>
        <time>2022-08-29T08:55:53Z</time>
      </trkpt>
      <trkpt lat="45.94988" lon="3.68315">
        <ele>1151.3</ele>
        <time>2022-08-29T08:55:54Z</time>
      </trkpt>
      <trkpt lat="45.94988" lon="3.68313">
        <ele>1151.5</ele>
        <time>2022-08-29T08:55:55Z</time>
      </trkpt>
      <trkpt lat="45.94987" lon="3.68312">
        <ele>1151.5</ele>
        <time>2022-08-29T08:55:56Z</time>
      </trkpt>
      <trkpt lat="45.94986" lon="3.68311">
        <ele>1151.6</ele>
        <time>2022-08-29T08:55:57Z</time>
      </trkpt>
      <trkpt lat="45.94986" lon="3.6831">
        <ele>1151.7</ele>
        <time>2022-08-29T08:55:58Z</time>
      </trkpt>
      <trkpt lat="45.94985" lon="3.68309">
        <ele>1151.8</ele>
        <time>2022-08-29T08:55:59Z</time>
      </trkpt>
      <trkpt lat="45.94984" lon="3.68307">
        <ele>1151.9</ele>
        <time>2022-08-29T08:56:00Z</time>
      </trkpt>
      <trkpt lat="45.94983" lon="3.68306">
        <ele>1152</ele>
        <time>2022-08-29T08:56:01Z</time>
      </trkpt>
      <trkpt lat="45.94983" lon="3.68305">
        <ele>1152.1</ele>
        <time>2022-08-29T08:56:02Z</time>
      </trkpt>
      <trkpt lat="45.94982" lon="3.68304">
        <ele>1152.2</ele>
        <time>2022-08-29T08:56:03Z</time>
      </trkpt>
      <trkpt lat="45.94981" lon="3.68302">
        <ele>1152.3</ele>
        <time>2022-08-29T08:56:04Z</time>
      </trkpt>
      <trkpt lat="45.9498" lon="3.683">
        <ele>1152.5</ele>
        <time>2022-08-29T08:56:05Z</time>
      </trkpt>
      <trkpt lat="45.94979" lon="3.68299">
        <ele>1152.6</ele>
        <time>2022-08-29T08:56:06Z</time>
      </trkpt>
      <trkpt lat="45.94979" lon="3.68297">
        <ele>1152.7</ele>
        <time>2022-08-29T08:56:07Z</time>
      </trkpt>
      <trkpt lat="45.94978" lon="3.68295">
        <ele>1152.9</ele>
        <time>2022-08-29T08:56:08Z</time>
      </trkpt>
      <trkpt lat="45.94977" lon="3.68293">
        <ele>1153</ele>
        <time>2022-08-29T08:56:09Z</time>
      </trkpt>
      <trkpt lat="45.94974" lon="3.68289">
        <ele>1153.4</ele>
        <time>2022-08-29T08:56:11Z</time>
      </trkpt>
      <trkpt lat="45.94973" lon="3.68289">
        <ele>1153.4</ele>
        <time>2022-08-29T08:56:12Z</time>
      </trkpt>
      <trkpt lat="45.94972" lon="3.68288">
        <ele>1153.5</ele>
        <time>2022-08-29T08:56:13Z</time>
      </trkpt>
      <trkpt lat="45.94971" lon="3.68287">
        <ele>1153.6</ele>
        <time>2022-08-29T08:56:14Z</time>
      </trkpt>
      <trkpt lat="45.9497" lon="3.68286">
        <ele>1153.7</ele>
        <time>2022-08-29T08:56:15Z</time>
      </trkpt>
      <trkpt lat="45.94968" lon="3.68285">
        <ele>1153.9</ele>
        <time>2022-08-29T08:56:17Z</time>
      </trkpt>
      <trkpt lat="45.94966" lon="3.68284">
        <ele>1154.1</ele>
        <time>2022-08-29T08:56:18Z</time>
      </trkpt>
      <trkpt lat="45.94965" lon="3.68283">
        <ele>1154.2</ele>
        <time>2022-08-29T08:56:19Z</time>
      </trkpt>
      <trkpt lat="45.94964" lon="3.68282">
        <ele>1154.3</ele>
        <time>2022-08-29T08:56:20Z</time>
      </trkpt>
      <trkpt lat="45.94964" lon="3.68282">
        <ele>1154.3</ele>
        <time>2022-08-29T08:56:21Z</time>
      </trkpt>
      <trkpt lat="45.94963" lon="3.68281">
        <ele>1154.4</ele>
        <time>2022-08-29T08:56:22Z</time>
      </trkpt>
      <trkpt lat="45.94962" lon="3.6828">
        <ele>1154.5</ele>
        <time>2022-08-29T08:56:23Z</time>
      </trkpt>
      <trkpt lat="45.94961" lon="3.68279">
        <ele>1154.6</ele>
        <time>2022-08-29T08:56:24Z</time>
      </trkpt>
      <trkpt lat="45.9496" lon="3.68279">
        <ele>1154.7</ele>
        <time>2022-08-29T08:56:25Z</time>
      </trkpt>
      <trkpt lat="45.94959" lon="3.68278">
        <ele>1154.8</ele>
        <time>2022-08-29T08:56:26Z</time>
      </trkpt>
      <trkpt lat="45.94958" lon="3.68277">
        <ele>1154.8</ele>
        <time>2022-08-29T08:56:27Z</time>
      </trkpt>
      <trkpt lat="45.94958" lon="3.68277">
        <ele>1154.9</ele>
        <time>2022-08-29T08:56:28Z</time>
      </trkpt>
      <trkpt lat="45.94957" lon="3.68277">
        <ele>1154.9</ele>
        <time>2022-08-29T08:56:29Z</time>
      </trkpt>
      <trkpt lat="45.94956" lon="3.68276">
        <ele>1155</ele>
        <time>2022-08-29T08:56:30Z</time>
      </trkpt>
      <trkpt lat="45.94955" lon="3.68276">
        <ele>1155.1</ele>
        <time>2022-08-29T08:56:31Z</time>
      </trkpt>
      <trkpt lat="45.94954" lon="3.68275">
        <ele>1155.2</ele>
        <time>2022-08-29T08:56:32Z</time>
      </trkpt>
      <trkpt lat="45.94953" lon="3.68274">
        <ele>1155.3</ele>
        <time>2022-08-29T08:56:33Z</time>
      </trkpt>
      <trkpt lat="45.94952" lon="3.68273">
        <ele>1155.4</ele>
        <time>2022-08-29T08:56:34Z</time>
      </trkpt>
      <trkpt lat="45.9495" lon="3.68271">
        <ele>1155.6</ele>
        <time>2022-08-29T08:56:40Z</time>
      </trkpt>
      <trkpt lat="45.94947" lon="3.68268">
        <ele>1155.8</ele>
        <time>2022-08-29T08:56:41Z</time>
      </trkpt>
      <trkpt lat="45.94946" lon="3.68266">
        <ele>1155.9</ele>
        <time>2022-08-29T08:56:42Z</time>
      </trkpt>
      <trkpt lat="45.94945" lon="3.68264">
        <ele>1156</ele>
        <time>2022-08-29T08:56:43Z</time>
      </trkpt>
      <trkpt lat="45.94944" lon="3.68263">
        <ele>1156.1</ele>
        <time>2022-08-29T08:56:44Z</time>
      </trkpt>
      <trkpt lat="45.94943" lon="3.68262">
        <ele>1156.2</ele>
        <time>2022-08-29T08:56:45Z</time>
      </trkpt>
      <trkpt lat="45.94942" lon="3.68262">
        <ele>1156.2</ele>
        <time>2022-08-29T08:56:46Z</time>
      </trkpt>
      <trkpt lat="45.94942" lon="3.68262">
        <ele>1156.3</ele>
        <time>2022-08-29T08:56:47Z</time>
      </trkpt>
      <trkpt lat="45.94941" lon="3.68262">
        <ele>1156.3</ele>
        <time>2022-08-29T08:56:48Z</time>
      </trkpt>
      <trkpt lat="45.9494" lon="3.68261">
        <ele>1156.3</ele>
        <time>2022-08-29T08:56:49Z</time>
      </trkpt>
      <trkpt lat="45.9494" lon="3.68262">
        <ele>1156.4</ele>
        <time>2022-08-29T08:56:50Z</time>
      </trkpt>
      <trkpt lat="45.94939" lon="3.68261">
        <ele>1156.4</ele>
        <time>2022-08-29T08:56:51Z</time>
      </trkpt>
      <trkpt lat="45.94938" lon="3.68261">
        <ele>1156.4</ele>
        <time>2022-08-29T08:56:52Z</time>
      </trkpt>
      <trkpt lat="45.94938" lon="3.68261">
        <ele>1156.4</ele>
        <time>2022-08-29T08:56:53Z</time>
      </trkpt>
      <trkpt lat="45.94937" lon="3.68261">
        <ele>1156.5</ele>
        <time>2022-08-29T08:56:54Z</time>
      </trkpt>
      <trkpt lat="45.94937" lon="3.68262">
        <ele>1156.5</ele>
        <time>2022-08-29T08:56:55Z</time>
      </trkpt>
      <trkpt lat="45.94937" lon="3.68262">
        <ele>1156.5</ele>
        <time>2022-08-29T08:56:56Z</time>
      </trkpt>
      <trkpt lat="45.94936" lon="3.68262">
        <ele>1156.6</ele>
        <time>2022-08-29T08:56:57Z</time>
      </trkpt>
      <trkpt lat="45.94935" lon="3.68262">
        <ele>1156.6</ele>
        <time>2022-08-29T08:56:58Z</time>
      </trkpt>
      <trkpt lat="45.94934" lon="3.68262">
        <ele>1156.6</ele>
        <time>2022-08-29T08:56:59Z</time>
      </trkpt>
      <trkpt lat="45.94934" lon="3.68262">
        <ele>1156.7</ele>
        <time>2022-08-29T08:57:00Z</time>
      </trkpt>
      <trkpt lat="45.94933" lon="3.68262">
        <ele>1156.7</ele>
        <time>2022-08-29T08:57:01Z</time>
      </trkpt>
      <trkpt lat="45.94931" lon="3.6826">
        <ele>1156.8</ele>
        <time>2022-08-29T08:57:02Z</time>
      </trkpt>
      <trkpt lat="45.9493" lon="3.68259">
        <ele>1156.8</ele>
        <time>2022-08-29T08:57:03Z</time>
      </trkpt>
      <trkpt lat="45.94928" lon="3.68257">
        <ele>1157</ele>
        <time>2022-08-29T08:57:04Z</time>
      </trkpt>
      <trkpt lat="45.94927" lon="3.68256">
        <ele>1157</ele>
        <time>2022-08-29T08:57:05Z</time>
      </trkpt>
      <trkpt lat="45.94924" lon="3.68253">
        <ele>1157.2</ele>
        <time>2022-08-29T08:57:06Z</time>
      </trkpt>
      <trkpt lat="45.94923" lon="3.68252">
        <ele>1157.2</ele>
        <time>2022-08-29T08:57:07Z</time>
      </trkpt>
      <trkpt lat="45.94921" lon="3.68249">
        <ele>1157.4</ele>
        <time>2022-08-29T08:57:08Z</time>
      </trkpt>
      <trkpt lat="45.9492" lon="3.68249">
        <ele>1157.4</ele>
        <time>2022-08-29T08:57:09Z</time>
      </trkpt>
      <trkpt lat="45.94918" lon="3.68247">
        <ele>1157.5</ele>
        <time>2022-08-29T08:57:10Z</time>
      </trkpt>
      <trkpt lat="45.94917" lon="3.68246">
        <ele>1157.6</ele>
        <time>2022-08-29T08:57:11Z</time>
      </trkpt>
      <trkpt lat="45.94916" lon="3.68245">
        <ele>1157.7</ele>
        <time>2022-08-29T08:57:12Z</time>
      </trkpt>
      <trkpt lat="45.94914" lon="3.68244">
        <ele>1157.8</ele>
        <time>2022-08-29T08:57:13Z</time>
      </trkpt>
      <trkpt lat="45.94912" lon="3.68243">
        <ele>1157.9</ele>
        <time>2022-08-29T08:57:14Z</time>
      </trkpt>
      <trkpt lat="45.94911" lon="3.68242">
        <ele>1158</ele>
        <time>2022-08-29T08:57:15Z</time>
      </trkpt>
      <trkpt lat="45.9491" lon="3.68241">
        <ele>1158</ele>
        <time>2022-08-29T08:57:16Z</time>
      </trkpt>
      <trkpt lat="45.94909" lon="3.68241">
        <ele>1158.1</ele>
        <time>2022-08-29T08:57:17Z</time>
      </trkpt>
      <trkpt lat="45.94908" lon="3.68241">
        <ele>1158.2</ele>
        <time>2022-08-29T08:57:18Z</time>
      </trkpt>
      <trkpt lat="45.94906" lon="3.6824">
        <ele>1158.3</ele>
        <time>2022-08-29T08:57:19Z</time>
      </trkpt>
      <trkpt lat="45.94905" lon="3.68239">
        <ele>1158.3</ele>
        <time>2022-08-29T08:57:20Z</time>
      </trkpt>
      <trkpt lat="45.94905" lon="3.68238">
        <ele>1158.4</ele>
        <time>2022-08-29T08:57:21Z</time>
      </trkpt>
      <trkpt lat="45.94903" lon="3.68237">
        <ele>1158.4</ele>
        <time>2022-08-29T08:57:22Z</time>
      </trkpt>
      <trkpt lat="45.94902" lon="3.68236">
        <ele>1158.5</ele>
        <time>2022-08-29T08:57:23Z</time>
      </trkpt>
      <trkpt lat="45.94902" lon="3.68236">
        <ele>1158.5</ele>
        <time>2022-08-29T08:57:24Z</time>
      </trkpt>
      <trkpt lat="45.94901" lon="3.68235">
        <ele>1158.6</ele>
        <time>2022-08-29T08:57:25Z</time>
      </trkpt>
      <trkpt lat="45.949" lon="3.68234">
        <ele>1158.6</ele>
        <time>2022-08-29T08:57:26Z</time>
      </trkpt>
      <trkpt lat="45.94899" lon="3.68233">
        <ele>1158.7</ele>
        <time>2022-08-29T08:57:27Z</time>
      </trkpt>
      <trkpt lat="45.94897" lon="3.6823">
        <ele>1158.8</ele>
        <time>2022-08-29T08:57:28Z</time>
      </trkpt>
      <trkpt lat="45.94896" lon="3.68229">
        <ele>1158.8</ele>
        <time>2022-08-29T08:57:29Z</time>
      </trkpt>
      <trkpt lat="45.94896" lon="3.68228">
        <ele>1158.9</ele>
        <time>2022-08-29T08:57:30Z</time>
      </trkpt>
      <trkpt lat="45.94893" lon="3.68225">
        <ele>1159</ele>
        <time>2022-08-29T08:57:31Z</time>
      </trkpt>
      <trkpt lat="45.94893" lon="3.68225">
        <ele>1159</ele>
        <time>2022-08-29T08:57:32Z</time>
      </trkpt>
      <trkpt lat="45.9489" lon="3.68223">
        <ele>1159.1</ele>
        <time>2022-08-29T08:57:33Z</time>
      </trkpt>
      <trkpt lat="45.94889" lon="3.68222">
        <ele>1159.1</ele>
        <time>2022-08-29T08:57:34Z</time>
      </trkpt>
      <trkpt lat="45.94888" lon="3.68221">
        <ele>1159.2</ele>
        <time>2022-08-29T08:57:35Z</time>
      </trkpt>
      <trkpt lat="45.94887" lon="3.6822">
        <ele>1159.2</ele>
        <time>2022-08-29T08:57:36Z</time>
      </trkpt>
      <trkpt lat="45.94885" lon="3.68219">
        <ele>1159.3</ele>
        <time>2022-08-29T08:57:37Z</time>
      </trkpt>
      <trkpt lat="45.94884" lon="3.68218">
        <ele>1159.3</ele>
        <time>2022-08-29T08:57:38Z</time>
      </trkpt>
      <trkpt lat="45.94883" lon="3.68218">
        <ele>1159.3</ele>
        <time>2022-08-29T08:57:39Z</time>
      </trkpt>
      <trkpt lat="45.94882" lon="3.68217">
        <ele>1159.3</ele>
        <time>2022-08-29T08:57:40Z</time>
      </trkpt>
      <trkpt lat="45.94882" lon="3.68217">
        <ele>1159.3</ele>
        <time>2022-08-29T08:57:41Z</time>
      </trkpt>
      <trkpt lat="45.94881" lon="3.68217">
        <ele>1159.3</ele>
        <time>2022-08-29T08:57:42Z</time>
      </trkpt>
      <trkpt lat="45.94881" lon="3.68217">
        <ele>1159.3</ele>
        <time>2022-08-29T08:57:43Z</time>
      </trkpt>
      <trkpt lat="45.9488" lon="3.68217">
        <ele>1159.3</ele>
        <time>2022-08-29T08:57:44Z</time>
      </trkpt>
      <trkpt lat="45.9488" lon="3.68217">
        <ele>1159.3</ele>
        <time>2022-08-29T08:57:45Z</time>
      </trkpt>
      <trkpt lat="45.94879" lon="3.68217">
        <ele>1159.4</ele>
        <time>2022-08-29T08:57:46Z</time>
      </trkpt>
      <trkpt lat="45.94879" lon="3.68216">
        <ele>1159.4</ele>
        <time>2022-08-29T08:57:47Z</time>
      </trkpt>
      <trkpt lat="45.94878" lon="3.68214">
        <ele>1159.4</ele>
        <time>2022-08-29T08:57:48Z</time>
      </trkpt>
      <trkpt lat="45.94877" lon="3.68213">
        <ele>1159.4</ele>
        <time>2022-08-29T08:57:49Z</time>
      </trkpt>
      <trkpt lat="45.94876" lon="3.68211">
        <ele>1159.4</ele>
        <time>2022-08-29T08:57:50Z</time>
      </trkpt>
      <trkpt lat="45.94875" lon="3.6821">
        <ele>1159.4</ele>
        <time>2022-08-29T08:57:51Z</time>
      </trkpt>
      <trkpt lat="45.94873" lon="3.68209">
        <ele>1159.4</ele>
        <time>2022-08-29T08:57:52Z</time>
      </trkpt>
      <trkpt lat="45.94871" lon="3.68208">
        <ele>1159.4</ele>
        <time>2022-08-29T08:57:53Z</time>
      </trkpt>
      <trkpt lat="45.9487" lon="3.68207">
        <ele>1159.4</ele>
        <time>2022-08-29T08:57:54Z</time>
      </trkpt>
      <trkpt lat="45.94868" lon="3.68206">
        <ele>1159.4</ele>
        <time>2022-08-29T08:57:55Z</time>
      </trkpt>
      <trkpt lat="45.94867" lon="3.68205">
        <ele>1159.5</ele>
        <time>2022-08-29T08:57:56Z</time>
      </trkpt>
      <trkpt lat="45.94865" lon="3.68203">
        <ele>1159.5</ele>
        <time>2022-08-29T08:57:57Z</time>
      </trkpt>
      <trkpt lat="45.94864" lon="3.68202">
        <ele>1159.5</ele>
        <time>2022-08-29T08:57:58Z</time>
      </trkpt>
      <trkpt lat="45.94863" lon="3.682">
        <ele>1159.5</ele>
        <time>2022-08-29T08:57:59Z</time>
      </trkpt>
      <trkpt lat="45.94862" lon="3.68197">
        <ele>1159.5</ele>
        <time>2022-08-29T08:58:00Z</time>
      </trkpt>
      <trkpt lat="45.94861" lon="3.68195">
        <ele>1159.5</ele>
        <time>2022-08-29T08:58:01Z</time>
      </trkpt>
      <trkpt lat="45.94861" lon="3.68194">
        <ele>1159.5</ele>
        <time>2022-08-29T08:58:02Z</time>
      </trkpt>
      <trkpt lat="45.94861" lon="3.68191">
        <ele>1159.5</ele>
        <time>2022-08-29T08:58:03Z</time>
      </trkpt>
      <trkpt lat="45.94861" lon="3.68189">
        <ele>1159.5</ele>
        <time>2022-08-29T08:58:04Z</time>
      </trkpt>
      <trkpt lat="45.94861" lon="3.68187">
        <ele>1159.4</ele>
        <time>2022-08-29T08:58:05Z</time>
      </trkpt>
      <trkpt lat="45.94861" lon="3.68185">
        <ele>1159.4</ele>
        <time>2022-08-29T08:58:06Z</time>
      </trkpt>
      <trkpt lat="45.94861" lon="3.68183">
        <ele>1159.4</ele>
        <time>2022-08-29T08:58:07Z</time>
      </trkpt>
      <trkpt lat="45.94861" lon="3.68182">
        <ele>1159.4</ele>
        <time>2022-08-29T08:58:08Z</time>
      </trkpt>
      <trkpt lat="45.94861" lon="3.68181">
        <ele>1159.4</ele>
        <time>2022-08-29T08:58:09Z</time>
      </trkpt>
      <trkpt lat="45.94861" lon="3.68179">
        <ele>1159.4</ele>
        <time>2022-08-29T08:58:10Z</time>
      </trkpt>
      <trkpt lat="45.9486" lon="3.68179">
        <ele>1159.3</ele>
        <time>2022-08-29T08:58:11Z</time>
      </trkpt>
      <trkpt lat="45.94859" lon="3.68178">
        <ele>1159.3</ele>
        <time>2022-08-29T08:58:12Z</time>
      </trkpt>
      <trkpt lat="45.94857" lon="3.68178">
        <ele>1159.3</ele>
        <time>2022-08-29T08:58:13Z</time>
      </trkpt>
      <trkpt lat="45.94856" lon="3.68179">
        <ele>1159.2</ele>
        <time>2022-08-29T08:58:14Z</time>
      </trkpt>
      <trkpt lat="45.94854" lon="3.68179">
        <ele>1159.2</ele>
        <time>2022-08-29T08:58:15Z</time>
      </trkpt>
      <trkpt lat="45.94852" lon="3.68179">
        <ele>1159.1</ele>
        <time>2022-08-29T08:58:16Z</time>
      </trkpt>
      <trkpt lat="45.94849" lon="3.68177">
        <ele>1159.1</ele>
        <time>2022-08-29T08:58:17Z</time>
      </trkpt>
      <trkpt lat="45.94848" lon="3.68177">
        <ele>1159</ele>
        <time>2022-08-29T08:58:18Z</time>
      </trkpt>
      <trkpt lat="45.94847" lon="3.68176">
        <ele>1159</ele>
        <time>2022-08-29T08:58:19Z</time>
      </trkpt>
      <trkpt lat="45.94845" lon="3.68174">
        <ele>1159</ele>
        <time>2022-08-29T08:58:20Z</time>
      </trkpt>
      <trkpt lat="45.94845" lon="3.68173">
        <ele>1158.9</ele>
        <time>2022-08-29T08:58:21Z</time>
      </trkpt>
      <trkpt lat="45.94843" lon="3.68172">
        <ele>1158.9</ele>
        <time>2022-08-29T08:58:22Z</time>
      </trkpt>
      <trkpt lat="45.94842" lon="3.68171">
        <ele>1158.8</ele>
        <time>2022-08-29T08:58:23Z</time>
      </trkpt>
      <trkpt lat="45.94841" lon="3.68171">
        <ele>1158.8</ele>
        <time>2022-08-29T08:58:24Z</time>
      </trkpt>
      <trkpt lat="45.94841" lon="3.68171">
        <ele>1158.8</ele>
        <time>2022-08-29T08:58:25Z</time>
      </trkpt>
      <trkpt lat="45.94839" lon="3.68172">
        <ele>1158.7</ele>
        <time>2022-08-29T08:58:26Z</time>
      </trkpt>
      <trkpt lat="45.94838" lon="3.68172">
        <ele>1158.7</ele>
        <time>2022-08-29T08:58:27Z</time>
      </trkpt>
      <trkpt lat="45.94837" lon="3.68173">
        <ele>1158.6</ele>
        <time>2022-08-29T08:58:28Z</time>
      </trkpt>
      <trkpt lat="45.94836" lon="3.68173">
        <ele>1158.6</ele>
        <time>2022-08-29T08:58:29Z</time>
      </trkpt>
      <trkpt lat="45.94835" lon="3.68174">
        <ele>1158.6</ele>
        <time>2022-08-29T08:58:30Z</time>
      </trkpt>
      <trkpt lat="45.94834" lon="3.68174">
        <ele>1158.5</ele>
        <time>2022-08-29T08:58:31Z</time>
      </trkpt>
      <trkpt lat="45.94833" lon="3.68173">
        <ele>1158.5</ele>
        <time>2022-08-29T08:58:32Z</time>
      </trkpt>
      <trkpt lat="45.94833" lon="3.68173">
        <ele>1158.5</ele>
        <time>2022-08-29T08:58:33Z</time>
      </trkpt>
      <trkpt lat="45.94833" lon="3.68172">
        <ele>1158.5</ele>
        <time>2022-08-29T08:58:34Z</time>
      </trkpt>
      <trkpt lat="45.94832" lon="3.68172">
        <ele>1158.4</ele>
        <time>2022-08-29T08:58:35Z</time>
      </trkpt>
      <trkpt lat="45.94832" lon="3.68171">
        <ele>1158.4</ele>
        <time>2022-08-29T08:58:36Z</time>
      </trkpt>
      <trkpt lat="45.94831" lon="3.68171">
        <ele>1158.4</ele>
        <time>2022-08-29T08:58:37Z</time>
      </trkpt>
      <trkpt lat="45.9483" lon="3.6817">
        <ele>1158.3</ele>
        <time>2022-08-29T08:58:38Z</time>
      </trkpt>
      <trkpt lat="45.94828" lon="3.68168">
        <ele>1158.3</ele>
        <time>2022-08-29T08:58:39Z</time>
      </trkpt>
      <trkpt lat="45.94827" lon="3.68168">
        <ele>1158.2</ele>
        <time>2022-08-29T08:58:40Z</time>
      </trkpt>
      <trkpt lat="45.94826" lon="3.68168">
        <ele>1158.2</ele>
        <time>2022-08-29T08:58:41Z</time>
      </trkpt>
      <trkpt lat="45.94825" lon="3.68168">
        <ele>1158.1</ele>
        <time>2022-08-29T08:58:42Z</time>
      </trkpt>
      <trkpt lat="45.94824" lon="3.68168">
        <ele>1158.1</ele>
        <time>2022-08-29T08:58:43Z</time>
      </trkpt>
      <trkpt lat="45.94822" lon="3.68169">
        <ele>1158</ele>
        <time>2022-08-29T08:58:44Z</time>
      </trkpt>
      <trkpt lat="45.94821" lon="3.68168">
        <ele>1158</ele>
        <time>2022-08-29T08:58:45Z</time>
      </trkpt>
      <trkpt lat="45.94819" lon="3.68168">
        <ele>1157.9</ele>
        <time>2022-08-29T08:58:46Z</time>
      </trkpt>
      <trkpt lat="45.94818" lon="3.68167">
        <ele>1157.8</ele>
        <time>2022-08-29T08:58:47Z</time>
      </trkpt>
      <trkpt lat="45.94816" lon="3.68166">
        <ele>1157.7</ele>
        <time>2022-08-29T08:58:48Z</time>
      </trkpt>
      <trkpt lat="45.94815" lon="3.68166">
        <ele>1157.7</ele>
        <time>2022-08-29T08:58:49Z</time>
      </trkpt>
      <trkpt lat="45.94814" lon="3.68165">
        <ele>1157.6</ele>
        <time>2022-08-29T08:58:50Z</time>
      </trkpt>
      <trkpt lat="45.94812" lon="3.68164">
        <ele>1157.6</ele>
        <time>2022-08-29T08:58:51Z</time>
      </trkpt>
      <trkpt lat="45.94811" lon="3.68163">
        <ele>1157.5</ele>
        <time>2022-08-29T08:58:52Z</time>
      </trkpt>
      <trkpt lat="45.9481" lon="3.68162">
        <ele>1157.4</ele>
        <time>2022-08-29T08:58:53Z</time>
      </trkpt>
      <trkpt lat="45.94808" lon="3.68161">
        <ele>1157.4</ele>
        <time>2022-08-29T08:58:54Z</time>
      </trkpt>
      <trkpt lat="45.94807" lon="3.6816">
        <ele>1157.3</ele>
        <time>2022-08-29T08:58:55Z</time>
      </trkpt>
      <trkpt lat="45.94806" lon="3.68159">
        <ele>1157.2</ele>
        <time>2022-08-29T08:58:56Z</time>
      </trkpt>
      <trkpt lat="45.94805" lon="3.68158">
        <ele>1157.2</ele>
        <time>2022-08-29T08:58:57Z</time>
      </trkpt>
      <trkpt lat="45.94804" lon="3.68158">
        <ele>1157.1</ele>
        <time>2022-08-29T08:58:58Z</time>
      </trkpt>
      <trkpt lat="45.94803" lon="3.68157">
        <ele>1157.1</ele>
        <time>2022-08-29T08:58:59Z</time>
      </trkpt>
      <trkpt lat="45.94801" lon="3.68155">
        <ele>1157</ele>
        <time>2022-08-29T08:59:00Z</time>
      </trkpt>
      <trkpt lat="45.948" lon="3.68154">
        <ele>1156.9</ele>
        <time>2022-08-29T08:59:01Z</time>
      </trkpt>
      <trkpt lat="45.94799" lon="3.68152">
        <ele>1156.8</ele>
        <time>2022-08-29T08:59:02Z</time>
      </trkpt>
      <trkpt lat="45.94798" lon="3.68152">
        <ele>1156.8</ele>
        <time>2022-08-29T08:59:03Z</time>
      </trkpt>
      <trkpt lat="45.94797" lon="3.68151">
        <ele>1156.7</ele>
        <time>2022-08-29T08:59:04Z</time>
      </trkpt>
      <trkpt lat="45.94796" lon="3.68151">
        <ele>1156.7</ele>
        <time>2022-08-29T08:59:05Z</time>
      </trkpt>
      <trkpt lat="45.94795" lon="3.68151">
        <ele>1156.7</ele>
        <time>2022-08-29T08:59:06Z</time>
      </trkpt>
      <trkpt lat="45.94793" lon="3.6815">
        <ele>1156.6</ele>
        <time>2022-08-29T08:59:07Z</time>
      </trkpt>
      <trkpt lat="45.94792" lon="3.68149">
        <ele>1156.5</ele>
        <time>2022-08-29T08:59:08Z</time>
      </trkpt>
      <trkpt lat="45.94792" lon="3.68148">
        <ele>1156.5</ele>
        <time>2022-08-29T08:59:09Z</time>
      </trkpt>
      <trkpt lat="45.9479" lon="3.68144">
        <ele>1156.3</ele>
        <time>2022-08-29T08:59:10Z</time>
      </trkpt>
      <trkpt lat="45.94789" lon="3.68143">
        <ele>1156.3</ele>
        <time>2022-08-29T08:59:11Z</time>
      </trkpt>
      <trkpt lat="45.94788" lon="3.68141">
        <ele>1156.2</ele>
        <time>2022-08-29T08:59:12Z</time>
      </trkpt>
      <trkpt lat="45.94787" lon="3.6814">
        <ele>1156.1</ele>
        <time>2022-08-29T08:59:13Z</time>
      </trkpt>
      <trkpt lat="45.94785" lon="3.6814">
        <ele>1156.1</ele>
        <time>2022-08-29T08:59:14Z</time>
      </trkpt>
      <trkpt lat="45.94784" lon="3.68139">
        <ele>1156</ele>
        <time>2022-08-29T08:59:15Z</time>
      </trkpt>
      <trkpt lat="45.94782" lon="3.68139">
        <ele>1155.9</ele>
        <time>2022-08-29T08:59:16Z</time>
      </trkpt>
      <trkpt lat="45.94781" lon="3.68139">
        <ele>1155.8</ele>
        <time>2022-08-29T08:59:17Z</time>
      </trkpt>
      <trkpt lat="45.94779" lon="3.68138">
        <ele>1155.8</ele>
        <time>2022-08-29T08:59:18Z</time>
      </trkpt>
      <trkpt lat="45.94778" lon="3.68138">
        <ele>1155.7</ele>
        <time>2022-08-29T08:59:19Z</time>
      </trkpt>
      <trkpt lat="45.94775" lon="3.68138">
        <ele>1155.5</ele>
        <time>2022-08-29T08:59:20Z</time>
      </trkpt>
      <trkpt lat="45.94774" lon="3.68138">
        <ele>1155.5</ele>
        <time>2022-08-29T08:59:21Z</time>
      </trkpt>
      <trkpt lat="45.94773" lon="3.68137">
        <ele>1155.4</ele>
        <time>2022-08-29T08:59:22Z</time>
      </trkpt>
      <trkpt lat="45.94771" lon="3.68137">
        <ele>1155.3</ele>
        <time>2022-08-29T08:59:23Z</time>
      </trkpt>
      <trkpt lat="45.9477" lon="3.68137">
        <ele>1155.3</ele>
        <time>2022-08-29T08:59:24Z</time>
      </trkpt>
      <trkpt lat="45.94768" lon="3.68137">
        <ele>1155.2</ele>
        <time>2022-08-29T08:59:25Z</time>
      </trkpt>
      <trkpt lat="45.94766" lon="3.68137">
        <ele>1155.2</ele>
        <time>2022-08-29T08:59:26Z</time>
      </trkpt>
      <trkpt lat="45.94765" lon="3.68137">
        <ele>1155.1</ele>
        <time>2022-08-29T08:59:27Z</time>
      </trkpt>
      <trkpt lat="45.94763" lon="3.68136">
        <ele>1155.1</ele>
        <time>2022-08-29T08:59:28Z</time>
      </trkpt>
      <trkpt lat="45.94762" lon="3.68136">
        <ele>1155</ele>
        <time>2022-08-29T08:59:29Z</time>
      </trkpt>
      <trkpt lat="45.9476" lon="3.68135">
        <ele>1155</ele>
        <time>2022-08-29T08:59:30Z</time>
      </trkpt>
      <trkpt lat="45.94759" lon="3.68134">
        <ele>1155</ele>
        <time>2022-08-29T08:59:31Z</time>
      </trkpt>
      <trkpt lat="45.94758" lon="3.68134">
        <ele>1155</ele>
        <time>2022-08-29T08:59:32Z</time>
      </trkpt>
      <trkpt lat="45.94757" lon="3.68133">
        <ele>1154.9</ele>
        <time>2022-08-29T08:59:33Z</time>
      </trkpt>
      <trkpt lat="45.94755" lon="3.68132">
        <ele>1154.9</ele>
        <time>2022-08-29T08:59:34Z</time>
      </trkpt>
      <trkpt lat="45.94754" lon="3.68131">
        <ele>1154.9</ele>
        <time>2022-08-29T08:59:35Z</time>
      </trkpt>
      <trkpt lat="45.94753" lon="3.68131">
        <ele>1154.9</ele>
        <time>2022-08-29T08:59:36Z</time>
      </trkpt>
      <trkpt lat="45.94752" lon="3.6813">
        <ele>1154.9</ele>
        <time>2022-08-29T08:59:37Z</time>
      </trkpt>
      <trkpt lat="45.94751" lon="3.6813">
        <ele>1154.8</ele>
        <time>2022-08-29T08:59:38Z</time>
      </trkpt>
      <trkpt lat="45.9475" lon="3.68129">
        <ele>1154.8</ele>
        <time>2022-08-29T08:59:39Z</time>
      </trkpt>
      <trkpt lat="45.94749" lon="3.68128">
        <ele>1154.8</ele>
        <time>2022-08-29T08:59:40Z</time>
      </trkpt>
      <trkpt lat="45.94748" lon="3.68128">
        <ele>1154.8</ele>
        <time>2022-08-29T08:59:41Z</time>
      </trkpt>
      <trkpt lat="45.94747" lon="3.68127">
        <ele>1154.8</ele>
        <time>2022-08-29T08:59:42Z</time>
      </trkpt>
      <trkpt lat="45.94746" lon="3.68127">
        <ele>1154.7</ele>
        <time>2022-08-29T08:59:43Z</time>
      </trkpt>
      <trkpt lat="45.94744" lon="3.68126">
        <ele>1154.7</ele>
        <time>2022-08-29T08:59:44Z</time>
      </trkpt>
      <trkpt lat="45.94744" lon="3.68125">
        <ele>1154.7</ele>
        <time>2022-08-29T08:59:45Z</time>
      </trkpt>
      <trkpt lat="45.94743" lon="3.68124">
        <ele>1154.7</ele>
        <time>2022-08-29T08:59:46Z</time>
      </trkpt>
      <trkpt lat="45.94741" lon="3.68123">
        <ele>1154.6</ele>
        <time>2022-08-29T08:59:47Z</time>
      </trkpt>
      <trkpt lat="45.9474" lon="3.68123">
        <ele>1154.6</ele>
        <time>2022-08-29T08:59:48Z</time>
      </trkpt>
      <trkpt lat="45.94739" lon="3.68122">
        <ele>1154.6</ele>
        <time>2022-08-29T08:59:49Z</time>
      </trkpt>
      <trkpt lat="45.94737" lon="3.68122">
        <ele>1154.5</ele>
        <time>2022-08-29T08:59:50Z</time>
      </trkpt>
      <trkpt lat="45.94736" lon="3.68122">
        <ele>1154.5</ele>
        <time>2022-08-29T08:59:51Z</time>
      </trkpt>
      <trkpt lat="45.94735" lon="3.68121">
        <ele>1154.5</ele>
        <time>2022-08-29T08:59:52Z</time>
      </trkpt>
      <trkpt lat="45.94733" lon="3.68121">
        <ele>1154.5</ele>
        <time>2022-08-29T08:59:53Z</time>
      </trkpt>
      <trkpt lat="45.94732" lon="3.68121">
        <ele>1154.5</ele>
        <time>2022-08-29T08:59:54Z</time>
      </trkpt>
      <trkpt lat="45.9473" lon="3.6812">
        <ele>1154.4</ele>
        <time>2022-08-29T08:59:55Z</time>
      </trkpt>
      <trkpt lat="45.94728" lon="3.6812">
        <ele>1154.4</ele>
        <time>2022-08-29T08:59:56Z</time>
      </trkpt>
      <trkpt lat="45.94727" lon="3.68119">
        <ele>1154.4</ele>
        <time>2022-08-29T08:59:57Z</time>
      </trkpt>
      <trkpt lat="45.94725" lon="3.68119">
        <ele>1154.4</ele>
        <time>2022-08-29T08:59:58Z</time>
      </trkpt>
      <trkpt lat="45.94723" lon="3.68118">
        <ele>1154.3</ele>
        <time>2022-08-29T08:59:59Z</time>
      </trkpt>
      <trkpt lat="45.94723" lon="3.68117">
        <ele>1154.3</ele>
        <time>2022-08-29T09:00:00Z</time>
      </trkpt>
      <trkpt lat="45.94722" lon="3.68117">
        <ele>1154.3</ele>
        <time>2022-08-29T09:00:01Z</time>
      </trkpt>
      <trkpt lat="45.94721" lon="3.68116">
        <ele>1154.3</ele>
        <time>2022-08-29T09:00:02Z</time>
      </trkpt>
      <trkpt lat="45.9472" lon="3.68116">
        <ele>1154.3</ele>
        <time>2022-08-29T09:00:03Z</time>
      </trkpt>
      <trkpt lat="45.94719" lon="3.68116">
        <ele>1154.2</ele>
        <time>2022-08-29T09:00:04Z</time>
      </trkpt>
      <trkpt lat="45.94718" lon="3.68115">
        <ele>1154.2</ele>
        <time>2022-08-29T09:00:05Z</time>
      </trkpt>
      <trkpt lat="45.94717" lon="3.68115">
        <ele>1154.1</ele>
        <time>2022-08-29T09:00:06Z</time>
      </trkpt>
      <trkpt lat="45.94716" lon="3.68115">
        <ele>1154.1</ele>
        <time>2022-08-29T09:00:07Z</time>
      </trkpt>
      <trkpt lat="45.94715" lon="3.68114">
        <ele>1154</ele>
        <time>2022-08-29T09:00:08Z</time>
      </trkpt>
      <trkpt lat="45.94713" lon="3.68114">
        <ele>1154</ele>
        <time>2022-08-29T09:00:09Z</time>
      </trkpt>
      <trkpt lat="45.94712" lon="3.68113">
        <ele>1153.9</ele>
        <time>2022-08-29T09:00:10Z</time>
      </trkpt>
      <trkpt lat="45.94711" lon="3.68113">
        <ele>1153.9</ele>
        <time>2022-08-29T09:00:11Z</time>
      </trkpt>
      <trkpt lat="45.9471" lon="3.68113">
        <ele>1153.9</ele>
        <time>2022-08-29T09:00:12Z</time>
      </trkpt>
      <trkpt lat="45.94709" lon="3.68114">
        <ele>1153.8</ele>
        <time>2022-08-29T09:00:13Z</time>
      </trkpt>
      <trkpt lat="45.94707" lon="3.68114">
        <ele>1153.7</ele>
        <time>2022-08-29T09:00:14Z</time>
      </trkpt>
      <trkpt lat="45.94706" lon="3.68115">
        <ele>1153.7</ele>
        <time>2022-08-29T09:00:15Z</time>
      </trkpt>
      <trkpt lat="45.94706" lon="3.68115">
        <ele>1153.7</ele>
        <time>2022-08-29T09:00:16Z</time>
      </trkpt>
      <trkpt lat="45.94703" lon="3.68116">
        <ele>1153.6</ele>
        <time>2022-08-29T09:00:18Z</time>
      </trkpt>
      <trkpt lat="45.94702" lon="3.68116">
        <ele>1153.5</ele>
        <time>2022-08-29T09:00:19Z</time>
      </trkpt>
      <trkpt lat="45.94701" lon="3.68115">
        <ele>1153.5</ele>
        <time>2022-08-29T09:00:20Z</time>
      </trkpt>
      <trkpt lat="45.947" lon="3.68115">
        <ele>1153.5</ele>
        <time>2022-08-29T09:00:21Z</time>
      </trkpt>
      <trkpt lat="45.94699" lon="3.68116">
        <ele>1153.4</ele>
        <time>2022-08-29T09:00:22Z</time>
      </trkpt>
      <trkpt lat="45.94698" lon="3.68116">
        <ele>1153.4</ele>
        <time>2022-08-29T09:00:23Z</time>
      </trkpt>
      <trkpt lat="45.94697" lon="3.68116">
        <ele>1153.3</ele>
        <time>2022-08-29T09:00:24Z</time>
      </trkpt>
      <trkpt lat="45.94696" lon="3.68116">
        <ele>1153.3</ele>
        <time>2022-08-29T09:00:25Z</time>
      </trkpt>
      <trkpt lat="45.94694" lon="3.68117">
        <ele>1153.2</ele>
        <time>2022-08-29T09:00:26Z</time>
      </trkpt>
      <trkpt lat="45.94693" lon="3.68117">
        <ele>1153.2</ele>
        <time>2022-08-29T09:00:27Z</time>
      </trkpt>
      <trkpt lat="45.94691" lon="3.68117">
        <ele>1153.1</ele>
        <time>2022-08-29T09:00:28Z</time>
      </trkpt>
      <trkpt lat="45.9469" lon="3.68118">
        <ele>1153</ele>
        <time>2022-08-29T09:00:29Z</time>
      </trkpt>
      <trkpt lat="45.94688" lon="3.68118">
        <ele>1153</ele>
        <time>2022-08-29T09:00:30Z</time>
      </trkpt>
      <trkpt lat="45.94687" lon="3.68118">
        <ele>1152.9</ele>
        <time>2022-08-29T09:00:31Z</time>
      </trkpt>
      <trkpt lat="45.94686" lon="3.68118">
        <ele>1152.9</ele>
        <time>2022-08-29T09:00:32Z</time>
      </trkpt>
      <trkpt lat="45.94685" lon="3.6812">
        <ele>1152.8</ele>
        <time>2022-08-29T09:00:33Z</time>
      </trkpt>
      <trkpt lat="45.94684" lon="3.6812">
        <ele>1152.8</ele>
        <time>2022-08-29T09:00:34Z</time>
      </trkpt>
      <trkpt lat="45.94683" lon="3.68121">
        <ele>1152.8</ele>
        <time>2022-08-29T09:00:35Z</time>
      </trkpt>
      <trkpt lat="45.94682" lon="3.68122">
        <ele>1152.7</ele>
        <time>2022-08-29T09:00:36Z</time>
      </trkpt>
      <trkpt lat="45.9468" lon="3.68124">
        <ele>1152.6</ele>
        <time>2022-08-29T09:00:37Z</time>
      </trkpt>
      <trkpt lat="45.94679" lon="3.68125">
        <ele>1152.6</ele>
        <time>2022-08-29T09:00:38Z</time>
      </trkpt>
      <trkpt lat="45.94677" lon="3.68126">
        <ele>1152.5</ele>
        <time>2022-08-29T09:00:39Z</time>
      </trkpt>
      <trkpt lat="45.94676" lon="3.68128">
        <ele>1152.5</ele>
        <time>2022-08-29T09:00:40Z</time>
      </trkpt>
      <trkpt lat="45.94674" lon="3.68129">
        <ele>1152.4</ele>
        <time>2022-08-29T09:00:41Z</time>
      </trkpt>
      <trkpt lat="45.94673" lon="3.6813">
        <ele>1152.4</ele>
        <time>2022-08-29T09:00:42Z</time>
      </trkpt>
      <trkpt lat="45.94672" lon="3.68131">
        <ele>1152.3</ele>
        <time>2022-08-29T09:00:43Z</time>
      </trkpt>
      <trkpt lat="45.94671" lon="3.68131">
        <ele>1152.3</ele>
        <time>2022-08-29T09:00:44Z</time>
      </trkpt>
      <trkpt lat="45.9467" lon="3.68131">
        <ele>1152.3</ele>
        <time>2022-08-29T09:00:45Z</time>
      </trkpt>
      <trkpt lat="45.94669" lon="3.68131">
        <ele>1152.2</ele>
        <time>2022-08-29T09:00:46Z</time>
      </trkpt>
      <trkpt lat="45.94669" lon="3.68132">
        <ele>1152.2</ele>
        <time>2022-08-29T09:00:47Z</time>
      </trkpt>
      <trkpt lat="45.94668" lon="3.68132">
        <ele>1152.2</ele>
        <time>2022-08-29T09:00:48Z</time>
      </trkpt>
      <trkpt lat="45.94666" lon="3.68133">
        <ele>1152.1</ele>
        <time>2022-08-29T09:00:49Z</time>
      </trkpt>
      <trkpt lat="45.94665" lon="3.68134">
        <ele>1152.1</ele>
        <time>2022-08-29T09:00:50Z</time>
      </trkpt>
      <trkpt lat="45.94664" lon="3.68134">
        <ele>1152.1</ele>
        <time>2022-08-29T09:00:51Z</time>
      </trkpt>
      <trkpt lat="45.94662" lon="3.68136">
        <ele>1152</ele>
        <time>2022-08-29T09:00:52Z</time>
      </trkpt>
      <trkpt lat="45.94661" lon="3.68137">
        <ele>1152</ele>
        <time>2022-08-29T09:00:53Z</time>
      </trkpt>
      <trkpt lat="45.9466" lon="3.68138">
        <ele>1152</ele>
        <time>2022-08-29T09:00:54Z</time>
      </trkpt>
      <trkpt lat="45.94658" lon="3.6814">
        <ele>1151.9</ele>
        <time>2022-08-29T09:00:55Z</time>
      </trkpt>
      <trkpt lat="45.94657" lon="3.68141">
        <ele>1151.9</ele>
        <time>2022-08-29T09:00:56Z</time>
      </trkpt>
      <trkpt lat="45.94656" lon="3.68143">
        <ele>1151.8</ele>
        <time>2022-08-29T09:00:57Z</time>
      </trkpt>
      <trkpt lat="45.94655" lon="3.68144">
        <ele>1151.8</ele>
        <time>2022-08-29T09:00:58Z</time>
      </trkpt>
      <trkpt lat="45.94654" lon="3.68145">
        <ele>1151.8</ele>
        <time>2022-08-29T09:00:59Z</time>
      </trkpt>
      <trkpt lat="45.94652" lon="3.68146">
        <ele>1151.8</ele>
        <time>2022-08-29T09:01:00Z</time>
      </trkpt>
      <trkpt lat="45.94651" lon="3.68147">
        <ele>1151.7</ele>
        <time>2022-08-29T09:01:01Z</time>
      </trkpt>
      <trkpt lat="45.9465" lon="3.68149">
        <ele>1151.7</ele>
        <time>2022-08-29T09:01:02Z</time>
      </trkpt>
      <trkpt lat="45.94649" lon="3.6815">
        <ele>1151.7</ele>
        <time>2022-08-29T09:01:03Z</time>
      </trkpt>
      <trkpt lat="45.94647" lon="3.68152">
        <ele>1151.6</ele>
        <time>2022-08-29T09:01:04Z</time>
      </trkpt>
      <trkpt lat="45.94646" lon="3.68153">
        <ele>1151.6</ele>
        <time>2022-08-29T09:01:05Z</time>
      </trkpt>
      <trkpt lat="45.94644" lon="3.68155">
        <ele>1151.6</ele>
        <time>2022-08-29T09:01:06Z</time>
      </trkpt>
      <trkpt lat="45.94643" lon="3.68156">
        <ele>1151.6</ele>
        <time>2022-08-29T09:01:07Z</time>
      </trkpt>
      <trkpt lat="45.94642" lon="3.68157">
        <ele>1151.5</ele>
        <time>2022-08-29T09:01:08Z</time>
      </trkpt>
      <trkpt lat="45.94641" lon="3.68158">
        <ele>1151.5</ele>
        <time>2022-08-29T09:01:09Z</time>
      </trkpt>
      <trkpt lat="45.9464" lon="3.68159">
        <ele>1151.5</ele>
        <time>2022-08-29T09:01:10Z</time>
      </trkpt>
      <trkpt lat="45.94638" lon="3.68159">
        <ele>1151.5</ele>
        <time>2022-08-29T09:01:11Z</time>
      </trkpt>
      <trkpt lat="45.94637" lon="3.6816">
        <ele>1151.5</ele>
        <time>2022-08-29T09:01:12Z</time>
      </trkpt>
      <trkpt lat="45.94636" lon="3.68161">
        <ele>1151.4</ele>
        <time>2022-08-29T09:01:13Z</time>
      </trkpt>
      <trkpt lat="45.94635" lon="3.68162">
        <ele>1151.4</ele>
        <time>2022-08-29T09:01:14Z</time>
      </trkpt>
      <trkpt lat="45.94635" lon="3.68162">
        <ele>1151.4</ele>
        <time>2022-08-29T09:01:15Z</time>
      </trkpt>
      <trkpt lat="45.94635" lon="3.68162">
        <ele>1151.4</ele>
        <time>2022-08-29T09:01:16Z</time>
      </trkpt>
      <trkpt lat="45.94634" lon="3.68162">
        <ele>1151.4</ele>
        <time>2022-08-29T09:01:17Z</time>
      </trkpt>
      <trkpt lat="45.94634" lon="3.68162">
        <ele>1151.4</ele>
        <time>2022-08-29T09:01:18Z</time>
      </trkpt>
      <trkpt lat="45.94634" lon="3.68162">
        <ele>1151.4</ele>
        <time>2022-08-29T09:01:19Z</time>
      </trkpt>
      <trkpt lat="45.94634" lon="3.68162">
        <ele>1151.4</ele>
        <time>2022-08-29T09:01:20Z</time>
      </trkpt>
      <trkpt lat="45.94633" lon="3.68162">
        <ele>1151.4</ele>
        <time>2022-08-29T09:01:21Z</time>
      </trkpt>
      <trkpt lat="45.94633" lon="3.68163">
        <ele>1151.4</ele>
        <time>2022-08-29T09:01:22Z</time>
      </trkpt>
      <trkpt lat="45.94632" lon="3.68163">
        <ele>1151.4</ele>
        <time>2022-08-29T09:01:23Z</time>
      </trkpt>
      <trkpt lat="45.94631" lon="3.68164">
        <ele>1151.4</ele>
        <time>2022-08-29T09:01:24Z</time>
      </trkpt>
      <trkpt lat="45.94631" lon="3.68165">
        <ele>1151.4</ele>
        <time>2022-08-29T09:01:25Z</time>
      </trkpt>
      <trkpt lat="45.9463" lon="3.68166">
        <ele>1151.4</ele>
        <time>2022-08-29T09:01:26Z</time>
      </trkpt>
      <trkpt lat="45.9463" lon="3.68167">
        <ele>1151.3</ele>
        <time>2022-08-29T09:01:27Z</time>
      </trkpt>
      <trkpt lat="45.9463" lon="3.68167">
        <ele>1151.3</ele>
        <time>2022-08-29T09:01:28Z</time>
      </trkpt>
      <trkpt lat="45.94629" lon="3.68167">
        <ele>1151.3</ele>
        <time>2022-08-29T09:01:29Z</time>
      </trkpt>
      <trkpt lat="45.94629" lon="3.68166">
        <ele>1151.3</ele>
        <time>2022-08-29T09:01:30Z</time>
      </trkpt>
      <trkpt lat="45.94629" lon="3.68166">
        <ele>1151.3</ele>
        <time>2022-08-29T09:01:31Z</time>
      </trkpt>
      <trkpt lat="45.94629" lon="3.68166">
        <ele>1151.3</ele>
        <time>2022-08-29T09:01:32Z</time>
      </trkpt>
      <trkpt lat="45.9463" lon="3.68166">
        <ele>1151.3</ele>
        <time>2022-08-29T09:01:33Z</time>
      </trkpt>
      <trkpt lat="45.9463" lon="3.68166">
        <ele>1151.3</ele>
        <time>2022-08-29T09:01:34Z</time>
      </trkpt>
      <trkpt lat="45.94631" lon="3.68166">
        <ele>1151.3</ele>
        <time>2022-08-29T09:01:35Z</time>
      </trkpt>
      <trkpt lat="45.94632" lon="3.68166">
        <ele>1151.3</ele>
        <time>2022-08-29T09:01:36Z</time>
      </trkpt>
      <trkpt lat="45.94632" lon="3.68165">
        <ele>1151.3</ele>
        <time>2022-08-29T09:01:37Z</time>
      </trkpt>
      <trkpt lat="45.94633" lon="3.68165">
        <ele>1151.3</ele>
        <time>2022-08-29T09:01:38Z</time>
      </trkpt>
      <trkpt lat="45.94633" lon="3.68165">
        <ele>1151.3</ele>
        <time>2022-08-29T09:01:39Z</time>
      </trkpt>
      <trkpt lat="45.94633" lon="3.68165">
        <ele>1151.3</ele>
        <time>2022-08-29T09:01:40Z</time>
      </trkpt>
      <trkpt lat="45.94633" lon="3.68165">
        <ele>1151.3</ele>
        <time>2022-08-29T09:01:41Z</time>
      </trkpt>
      <trkpt lat="45.94633" lon="3.68165">
        <ele>1151.3</ele>
        <time>2022-08-29T09:01:42Z</time>
      </trkpt>
      <trkpt lat="45.94633" lon="3.68165">
        <ele>1151.3</ele>
        <time>2022-08-29T09:01:43Z</time>
      </trkpt>
      <trkpt lat="45.94633" lon="3.68165">
        <ele>1151.3</ele>
        <time>2022-08-29T09:01:44Z</time>
      </trkpt>
      <trkpt lat="45.94633" lon="3.68164">
        <ele>1151.3</ele>
        <time>2022-08-29T09:01:45Z</time>
      </trkpt>
      <trkpt lat="45.94632" lon="3.68164">
        <ele>1151.3</ele>
        <time>2022-08-29T09:01:46Z</time>
      </trkpt>
      <trkpt lat="45.94632" lon="3.68164">
        <ele>1151.3</ele>
        <time>2022-08-29T09:01:47Z</time>
      </trkpt>
      <trkpt lat="45.94632" lon="3.68164">
        <ele>1151.3</ele>
        <time>2022-08-29T09:01:48Z</time>
      </trkpt>
      <trkpt lat="45.94632" lon="3.68164">
        <ele>1151.3</ele>
        <time>2022-08-29T09:01:49Z</time>
      </trkpt>
      <trkpt lat="45.94632" lon="3.68164">
        <ele>1151.3</ele>
        <time>2022-08-29T09:01:50Z</time>
      </trkpt>
      <trkpt lat="45.94631" lon="3.68165">
        <ele>1151.3</ele>
        <time>2022-08-29T09:01:51Z</time>
      </trkpt>
      <trkpt lat="45.9463" lon="3.68166">
        <ele>1151.3</ele>
        <time>2022-08-29T09:01:52Z</time>
      </trkpt>
      <trkpt lat="45.94629" lon="3.68166">
        <ele>1151.2</ele>
        <time>2022-08-29T09:01:53Z</time>
      </trkpt>
      <trkpt lat="45.94626" lon="3.68167">
        <ele>1151.2</ele>
        <time>2022-08-29T09:01:54Z</time>
      </trkpt>
      <trkpt lat="45.94622" lon="3.68169">
        <ele>1151.2</ele>
        <time>2022-08-29T09:01:55Z</time>
      </trkpt>
      <trkpt lat="45.94619" lon="3.68171">
        <ele>1151.2</ele>
        <time>2022-08-29T09:01:56Z</time>
      </trkpt>
      <trkpt lat="45.94616" lon="3.68172">
        <ele>1151.2</ele>
        <time>2022-08-29T09:01:57Z</time>
      </trkpt>
      <trkpt lat="45.94612" lon="3.68173">
        <ele>1151.2</ele>
        <time>2022-08-29T09:01:58Z</time>
      </trkpt>
      <trkpt lat="45.94609" lon="3.68173">
        <ele>1151.2</ele>
        <time>2022-08-29T09:01:59Z</time>
      </trkpt>
      <trkpt lat="45.94605" lon="3.68173">
        <ele>1151.3</ele>
        <time>2022-08-29T09:02:00Z</time>
      </trkpt>
      <trkpt lat="45.94602" lon="3.68173">
        <ele>1151.3</ele>
        <time>2022-08-29T09:02:01Z</time>
      </trkpt>
      <trkpt lat="45.94601" lon="3.68173">
        <ele>1151.3</ele>
        <time>2022-08-29T09:02:02Z</time>
      </trkpt>
      <trkpt lat="45.946" lon="3.68173">
        <ele>1151.3</ele>
        <time>2022-08-29T09:02:03Z</time>
      </trkpt>
      <trkpt lat="45.94599" lon="3.68174">
        <ele>1151.3</ele>
        <time>2022-08-29T09:02:04Z</time>
      </trkpt>
      <trkpt lat="45.94598" lon="3.68174">
        <ele>1151.3</ele>
        <time>2022-08-29T09:02:05Z</time>
      </trkpt>
      <trkpt lat="45.94596" lon="3.68175">
        <ele>1151.3</ele>
        <time>2022-08-29T09:02:06Z</time>
      </trkpt>
      <trkpt lat="45.94595" lon="3.68175">
        <ele>1151.4</ele>
        <time>2022-08-29T09:02:07Z</time>
      </trkpt>
      <trkpt lat="45.94595" lon="3.68176">
        <ele>1151.4</ele>
        <time>2022-08-29T09:02:08Z</time>
      </trkpt>
      <trkpt lat="45.94593" lon="3.68177">
        <ele>1151.4</ele>
        <time>2022-08-29T09:02:09Z</time>
      </trkpt>
      <trkpt lat="45.94592" lon="3.68177">
        <ele>1151.4</ele>
        <time>2022-08-29T09:02:10Z</time>
      </trkpt>
      <trkpt lat="45.94591" lon="3.68178">
        <ele>1151.4</ele>
        <time>2022-08-29T09:02:11Z</time>
      </trkpt>
      <trkpt lat="45.9459" lon="3.68178">
        <ele>1151.5</ele>
        <time>2022-08-29T09:02:12Z</time>
      </trkpt>
      <trkpt lat="45.94588" lon="3.68179">
        <ele>1151.5</ele>
        <time>2022-08-29T09:02:13Z</time>
      </trkpt>
      <trkpt lat="45.94585" lon="3.6818">
        <ele>1151.5</ele>
        <time>2022-08-29T09:02:14Z</time>
      </trkpt>
      <trkpt lat="45.94584" lon="3.6818">
        <ele>1151.5</ele>
        <time>2022-08-29T09:02:15Z</time>
      </trkpt>
      <trkpt lat="45.94582" lon="3.6818">
        <ele>1151.6</ele>
        <time>2022-08-29T09:02:16Z</time>
      </trkpt>
      <trkpt lat="45.94581" lon="3.68181">
        <ele>1151.6</ele>
        <time>2022-08-29T09:02:17Z</time>
      </trkpt>
      <trkpt lat="45.94579" lon="3.68181">
        <ele>1151.6</ele>
        <time>2022-08-29T09:02:18Z</time>
      </trkpt>
      <trkpt lat="45.94578" lon="3.68181">
        <ele>1151.6</ele>
        <time>2022-08-29T09:02:19Z</time>
      </trkpt>
      <trkpt lat="45.94576" lon="3.68181">
        <ele>1151.7</ele>
        <time>2022-08-29T09:02:20Z</time>
      </trkpt>
      <trkpt lat="45.94575" lon="3.68181">
        <ele>1151.7</ele>
        <time>2022-08-29T09:02:21Z</time>
      </trkpt>
      <trkpt lat="45.94572" lon="3.6818">
        <ele>1151.7</ele>
        <time>2022-08-29T09:02:22Z</time>
      </trkpt>
      <trkpt lat="45.94571" lon="3.6818">
        <ele>1151.7</ele>
        <time>2022-08-29T09:02:23Z</time>
      </trkpt>
      <trkpt lat="45.94569" lon="3.6818">
        <ele>1151.8</ele>
        <time>2022-08-29T09:02:24Z</time>
      </trkpt>
      <trkpt lat="45.94567" lon="3.68179">
        <ele>1151.8</ele>
        <time>2022-08-29T09:02:25Z</time>
      </trkpt>
      <trkpt lat="45.94566" lon="3.68179">
        <ele>1151.8</ele>
        <time>2022-08-29T09:02:26Z</time>
      </trkpt>
      <trkpt lat="45.94564" lon="3.68179">
        <ele>1151.8</ele>
        <time>2022-08-29T09:02:27Z</time>
      </trkpt>
      <trkpt lat="45.94562" lon="3.68178">
        <ele>1151.9</ele>
        <time>2022-08-29T09:02:28Z</time>
      </trkpt>
      <trkpt lat="45.94562" lon="3.68178">
        <ele>1151.9</ele>
        <time>2022-08-29T09:02:29Z</time>
      </trkpt>
      <trkpt lat="45.94561" lon="3.68178">
        <ele>1151.9</ele>
        <time>2022-08-29T09:02:30Z</time>
      </trkpt>
      <trkpt lat="45.94559" lon="3.68176">
        <ele>1151.9</ele>
        <time>2022-08-29T09:02:31Z</time>
      </trkpt>
      <trkpt lat="45.94558" lon="3.68176">
        <ele>1152</ele>
        <time>2022-08-29T09:02:32Z</time>
      </trkpt>
      <trkpt lat="45.94558" lon="3.68175">
        <ele>1152</ele>
        <time>2022-08-29T09:02:33Z</time>
      </trkpt>
      <trkpt lat="45.94556" lon="3.68174">
        <ele>1152</ele>
        <time>2022-08-29T09:02:34Z</time>
      </trkpt>
      <trkpt lat="45.94555" lon="3.68173">
        <ele>1152</ele>
        <time>2022-08-29T09:02:35Z</time>
      </trkpt>
      <trkpt lat="45.94554" lon="3.68173">
        <ele>1152</ele>
        <time>2022-08-29T09:02:36Z</time>
      </trkpt>
      <trkpt lat="45.94552" lon="3.68173">
        <ele>1152.1</ele>
        <time>2022-08-29T09:02:37Z</time>
      </trkpt>
      <trkpt lat="45.94551" lon="3.68172">
        <ele>1152.1</ele>
        <time>2022-08-29T09:02:38Z</time>
      </trkpt>
      <trkpt lat="45.9455" lon="3.68172">
        <ele>1152.1</ele>
        <time>2022-08-29T09:02:39Z</time>
      </trkpt>
      <trkpt lat="45.94549" lon="3.68171">
        <ele>1152.1</ele>
        <time>2022-08-29T09:02:40Z</time>
      </trkpt>
      <trkpt lat="45.94547" lon="3.6817">
        <ele>1152.1</ele>
        <time>2022-08-29T09:02:41Z</time>
      </trkpt>
      <trkpt lat="45.94546" lon="3.68169">
        <ele>1152.2</ele>
        <time>2022-08-29T09:02:42Z</time>
      </trkpt>
      <trkpt lat="45.94544" lon="3.68168">
        <ele>1152.2</ele>
        <time>2022-08-29T09:02:43Z</time>
      </trkpt>
      <trkpt lat="45.94543" lon="3.68167">
        <ele>1152.2</ele>
        <time>2022-08-29T09:02:44Z</time>
      </trkpt>
      <trkpt lat="45.94542" lon="3.68166">
        <ele>1152.2</ele>
        <time>2022-08-29T09:02:45Z</time>
      </trkpt>
      <trkpt lat="45.94537" lon="3.68162">
        <ele>1152.3</ele>
        <time>2022-08-29T09:02:51Z</time>
      </trkpt>
      <trkpt lat="45.94536" lon="3.6816">
        <ele>1152.3</ele>
        <time>2022-08-29T09:02:52Z</time>
      </trkpt>
      <trkpt lat="45.94533" lon="3.68158">
        <ele>1152.4</ele>
        <time>2022-08-29T09:02:53Z</time>
      </trkpt>
      <trkpt lat="45.94532" lon="3.68157">
        <ele>1152.4</ele>
        <time>2022-08-29T09:02:54Z</time>
      </trkpt>
      <trkpt lat="45.94531" lon="3.68156">
        <ele>1152.4</ele>
        <time>2022-08-29T09:02:55Z</time>
      </trkpt>
      <trkpt lat="45.9453" lon="3.68155">
        <ele>1152.4</ele>
        <time>2022-08-29T09:02:56Z</time>
      </trkpt>
      <trkpt lat="45.9453" lon="3.68154">
        <ele>1152.4</ele>
        <time>2022-08-29T09:02:57Z</time>
      </trkpt>
      <trkpt lat="45.94528" lon="3.68153">
        <ele>1152.5</ele>
        <time>2022-08-29T09:02:58Z</time>
      </trkpt>
      <trkpt lat="45.94527" lon="3.68152">
        <ele>1152.5</ele>
        <time>2022-08-29T09:02:59Z</time>
      </trkpt>
      <trkpt lat="45.94526" lon="3.68151">
        <ele>1152.5</ele>
        <time>2022-08-29T09:03:00Z</time>
      </trkpt>
      <trkpt lat="45.94525" lon="3.6815">
        <ele>1152.5</ele>
        <time>2022-08-29T09:03:01Z</time>
      </trkpt>
      <trkpt lat="45.94524" lon="3.68149">
        <ele>1152.5</ele>
        <time>2022-08-29T09:03:02Z</time>
      </trkpt>
      <trkpt lat="45.94522" lon="3.68147">
        <ele>1152.6</ele>
        <time>2022-08-29T09:03:03Z</time>
      </trkpt>
      <trkpt lat="45.94521" lon="3.68147">
        <ele>1152.6</ele>
        <time>2022-08-29T09:03:04Z</time>
      </trkpt>
      <trkpt lat="45.94521" lon="3.68146">
        <ele>1152.6</ele>
        <time>2022-08-29T09:03:05Z</time>
      </trkpt>
      <trkpt lat="45.94519" lon="3.68145">
        <ele>1152.6</ele>
        <time>2022-08-29T09:03:06Z</time>
      </trkpt>
      <trkpt lat="45.94518" lon="3.68144">
        <ele>1152.6</ele>
        <time>2022-08-29T09:03:07Z</time>
      </trkpt>
      <trkpt lat="45.94517" lon="3.68143">
        <ele>1152.7</ele>
        <time>2022-08-29T09:03:08Z</time>
      </trkpt>
      <trkpt lat="45.94515" lon="3.68142">
        <ele>1152.7</ele>
        <time>2022-08-29T09:03:09Z</time>
      </trkpt>
      <trkpt lat="45.94513" lon="3.68141">
        <ele>1152.7</ele>
        <time>2022-08-29T09:03:10Z</time>
      </trkpt>
      <trkpt lat="45.94513" lon="3.6814">
        <ele>1152.7</ele>
        <time>2022-08-29T09:03:11Z</time>
      </trkpt>
      <trkpt lat="45.94512" lon="3.6814">
        <ele>1152.7</ele>
        <time>2022-08-29T09:03:12Z</time>
      </trkpt>
      <trkpt lat="45.9451" lon="3.68139">
        <ele>1152.7</ele>
        <time>2022-08-29T09:03:13Z</time>
      </trkpt>
      <trkpt lat="45.94509" lon="3.68138">
        <ele>1152.7</ele>
        <time>2022-08-29T09:03:14Z</time>
      </trkpt>
      <trkpt lat="45.94508" lon="3.68138">
        <ele>1152.7</ele>
        <time>2022-08-29T09:03:15Z</time>
      </trkpt>
      <trkpt lat="45.94507" lon="3.68136">
        <ele>1152.8</ele>
        <time>2022-08-29T09:03:16Z</time>
      </trkpt>
      <trkpt lat="45.94506" lon="3.68135">
        <ele>1152.8</ele>
        <time>2022-08-29T09:03:17Z</time>
      </trkpt>
      <trkpt lat="45.94505" lon="3.68134">
        <ele>1152.8</ele>
        <time>2022-08-29T09:03:18Z</time>
      </trkpt>
      <trkpt lat="45.94504" lon="3.68133">
        <ele>1152.8</ele>
        <time>2022-08-29T09:03:19Z</time>
      </trkpt>
      <trkpt lat="45.94503" lon="3.68132">
        <ele>1152.8</ele>
        <time>2022-08-29T09:03:20Z</time>
      </trkpt>
      <trkpt lat="45.94502" lon="3.68132">
        <ele>1152.8</ele>
        <time>2022-08-29T09:03:21Z</time>
      </trkpt>
      <trkpt lat="45.94501" lon="3.68131">
        <ele>1152.8</ele>
        <time>2022-08-29T09:03:22Z</time>
      </trkpt>
      <trkpt lat="45.94499" lon="3.68131">
        <ele>1152.8</ele>
        <time>2022-08-29T09:03:23Z</time>
      </trkpt>
      <trkpt lat="45.94498" lon="3.68131">
        <ele>1152.8</ele>
        <time>2022-08-29T09:03:24Z</time>
      </trkpt>
      <trkpt lat="45.94496" lon="3.6813">
        <ele>1152.8</ele>
        <time>2022-08-29T09:03:25Z</time>
      </trkpt>
      <trkpt lat="45.94495" lon="3.6813">
        <ele>1152.8</ele>
        <time>2022-08-29T09:03:26Z</time>
      </trkpt>
      <trkpt lat="45.94494" lon="3.6813">
        <ele>1152.7</ele>
        <time>2022-08-29T09:03:27Z</time>
      </trkpt>
      <trkpt lat="45.94492" lon="3.68128">
        <ele>1152.7</ele>
        <time>2022-08-29T09:03:28Z</time>
      </trkpt>
      <trkpt lat="45.94491" lon="3.68128">
        <ele>1152.7</ele>
        <time>2022-08-29T09:03:29Z</time>
      </trkpt>
      <trkpt lat="45.9449" lon="3.68127">
        <ele>1152.7</ele>
        <time>2022-08-29T09:03:30Z</time>
      </trkpt>
      <trkpt lat="45.94489" lon="3.68125">
        <ele>1152.7</ele>
        <time>2022-08-29T09:03:31Z</time>
      </trkpt>
      <trkpt lat="45.94488" lon="3.68125">
        <ele>1152.7</ele>
        <time>2022-08-29T09:03:32Z</time>
      </trkpt>
      <trkpt lat="45.94487" lon="3.68124">
        <ele>1152.7</ele>
        <time>2022-08-29T09:03:33Z</time>
      </trkpt>
      <trkpt lat="45.94485" lon="3.68123">
        <ele>1152.7</ele>
        <time>2022-08-29T09:03:34Z</time>
      </trkpt>
      <trkpt lat="45.94484" lon="3.68121">
        <ele>1152.7</ele>
        <time>2022-08-29T09:03:35Z</time>
      </trkpt>
      <trkpt lat="45.94483" lon="3.6812">
        <ele>1152.7</ele>
        <time>2022-08-29T09:03:36Z</time>
      </trkpt>
      <trkpt lat="45.94481" lon="3.6812">
        <ele>1152.7</ele>
        <time>2022-08-29T09:03:37Z</time>
      </trkpt>
      <trkpt lat="45.94479" lon="3.68119">
        <ele>1152.7</ele>
        <time>2022-08-29T09:03:38Z</time>
      </trkpt>
      <trkpt lat="45.94478" lon="3.6812">
        <ele>1152.7</ele>
        <time>2022-08-29T09:03:39Z</time>
      </trkpt>
      <trkpt lat="45.94478" lon="3.6812">
        <ele>1152.7</ele>
        <time>2022-08-29T09:03:40Z</time>
      </trkpt>
      <trkpt lat="45.94476" lon="3.6812">
        <ele>1152.7</ele>
        <time>2022-08-29T09:03:41Z</time>
      </trkpt>
      <trkpt lat="45.94475" lon="3.6812">
        <ele>1152.7</ele>
        <time>2022-08-29T09:03:42Z</time>
      </trkpt>
      <trkpt lat="45.94472" lon="3.6812">
        <ele>1152.6</ele>
        <time>2022-08-29T09:03:43Z</time>
      </trkpt>
      <trkpt lat="45.94472" lon="3.6812">
        <ele>1152.6</ele>
        <time>2022-08-29T09:03:44Z</time>
      </trkpt>
      <trkpt lat="45.94471" lon="3.6812">
        <ele>1152.6</ele>
        <time>2022-08-29T09:03:45Z</time>
      </trkpt>
      <trkpt lat="45.9447" lon="3.6812">
        <ele>1152.6</ele>
        <time>2022-08-29T09:03:46Z</time>
      </trkpt>
      <trkpt lat="45.94469" lon="3.68119">
        <ele>1152.6</ele>
        <time>2022-08-29T09:03:47Z</time>
      </trkpt>
      <trkpt lat="45.94468" lon="3.68119">
        <ele>1152.6</ele>
        <time>2022-08-29T09:03:48Z</time>
      </trkpt>
      <trkpt lat="45.94467" lon="3.68119">
        <ele>1152.6</ele>
        <time>2022-08-29T09:03:49Z</time>
      </trkpt>
      <trkpt lat="45.94467" lon="3.68119">
        <ele>1152.6</ele>
        <time>2022-08-29T09:03:50Z</time>
      </trkpt>
      <trkpt lat="45.94466" lon="3.68119">
        <ele>1152.6</ele>
        <time>2022-08-29T09:03:51Z</time>
      </trkpt>
      <trkpt lat="45.94465" lon="3.68119">
        <ele>1152.6</ele>
        <time>2022-08-29T09:03:52Z</time>
      </trkpt>
      <trkpt lat="45.94464" lon="3.68119">
        <ele>1152.5</ele>
        <time>2022-08-29T09:03:53Z</time>
      </trkpt>
      <trkpt lat="45.94464" lon="3.68119">
        <ele>1152.5</ele>
        <time>2022-08-29T09:03:54Z</time>
      </trkpt>
      <trkpt lat="45.94463" lon="3.68118">
        <ele>1152.5</ele>
        <time>2022-08-29T09:03:55Z</time>
      </trkpt>
      <trkpt lat="45.94462" lon="3.68118">
        <ele>1152.5</ele>
        <time>2022-08-29T09:03:56Z</time>
      </trkpt>
      <trkpt lat="45.94461" lon="3.68117">
        <ele>1152.5</ele>
        <time>2022-08-29T09:03:57Z</time>
      </trkpt>
      <trkpt lat="45.9446" lon="3.68118">
        <ele>1152.5</ele>
        <time>2022-08-29T09:03:58Z</time>
      </trkpt>
      <trkpt lat="45.94459" lon="3.68118">
        <ele>1152.5</ele>
        <time>2022-08-29T09:03:59Z</time>
      </trkpt>
      <trkpt lat="45.94459" lon="3.68119">
        <ele>1152.5</ele>
        <time>2022-08-29T09:04:00Z</time>
      </trkpt>
      <trkpt lat="45.94458" lon="3.68119">
        <ele>1152.5</ele>
        <time>2022-08-29T09:04:01Z</time>
      </trkpt>
      <trkpt lat="45.94458" lon="3.6812">
        <ele>1152.5</ele>
        <time>2022-08-29T09:04:02Z</time>
      </trkpt>
      <trkpt lat="45.94457" lon="3.6812">
        <ele>1152.4</ele>
        <time>2022-08-29T09:04:03Z</time>
      </trkpt>
      <trkpt lat="45.94457" lon="3.68121">
        <ele>1152.4</ele>
        <time>2022-08-29T09:04:04Z</time>
      </trkpt>
      <trkpt lat="45.94456" lon="3.68122">
        <ele>1152.4</ele>
        <time>2022-08-29T09:04:05Z</time>
      </trkpt>
      <trkpt lat="45.94456" lon="3.68122">
        <ele>1152.4</ele>
        <time>2022-08-29T09:04:06Z</time>
      </trkpt>
      <trkpt lat="45.94454" lon="3.68123">
        <ele>1152.4</ele>
        <time>2022-08-29T09:04:07Z</time>
      </trkpt>
      <trkpt lat="45.94453" lon="3.68123">
        <ele>1152.4</ele>
        <time>2022-08-29T09:04:08Z</time>
      </trkpt>
      <trkpt lat="45.94451" lon="3.68124">
        <ele>1152.4</ele>
        <time>2022-08-29T09:04:09Z</time>
      </trkpt>
      <trkpt lat="45.94448" lon="3.68125">
        <ele>1152.4</ele>
        <time>2022-08-29T09:04:10Z</time>
      </trkpt>
      <trkpt lat="45.94448" lon="3.68125">
        <ele>1152.4</ele>
        <time>2022-08-29T09:04:11Z</time>
      </trkpt>
      <trkpt lat="45.94446" lon="3.68126">
        <ele>1152.3</ele>
        <time>2022-08-29T09:04:12Z</time>
      </trkpt>
      <trkpt lat="45.94445" lon="3.68126">
        <ele>1152.3</ele>
        <time>2022-08-29T09:04:13Z</time>
      </trkpt>
      <trkpt lat="45.94442" lon="3.68126">
        <ele>1152.3</ele>
        <time>2022-08-29T09:04:14Z</time>
      </trkpt>
      <trkpt lat="45.94442" lon="3.68126">
        <ele>1152.3</ele>
        <time>2022-08-29T09:04:15Z</time>
      </trkpt>
      <trkpt lat="45.94441" lon="3.68126">
        <ele>1152.3</ele>
        <time>2022-08-29T09:04:16Z</time>
      </trkpt>
      <trkpt lat="45.94439" lon="3.68127">
        <ele>1152.3</ele>
        <time>2022-08-29T09:04:17Z</time>
      </trkpt>
      <trkpt lat="45.94438" lon="3.68127">
        <ele>1152.3</ele>
        <time>2022-08-29T09:04:18Z</time>
      </trkpt>
      <trkpt lat="45.94437" lon="3.68128">
        <ele>1152.3</ele>
        <time>2022-08-29T09:04:19Z</time>
      </trkpt>
      <trkpt lat="45.94436" lon="3.68129">
        <ele>1152.3</ele>
        <time>2022-08-29T09:04:20Z</time>
      </trkpt>
      <trkpt lat="45.94435" lon="3.6813">
        <ele>1152.3</ele>
        <time>2022-08-29T09:04:21Z</time>
      </trkpt>
      <trkpt lat="45.94434" lon="3.68131">
        <ele>1152.3</ele>
        <time>2022-08-29T09:04:22Z</time>
      </trkpt>
      <trkpt lat="45.94432" lon="3.68132">
        <ele>1152.3</ele>
        <time>2022-08-29T09:04:23Z</time>
      </trkpt>
      <trkpt lat="45.94431" lon="3.68133">
        <ele>1152.3</ele>
        <time>2022-08-29T09:04:24Z</time>
      </trkpt>
      <trkpt lat="45.94429" lon="3.68134">
        <ele>1152.3</ele>
        <time>2022-08-29T09:04:25Z</time>
      </trkpt>
      <trkpt lat="45.94426" lon="3.68135">
        <ele>1152.3</ele>
        <time>2022-08-29T09:04:26Z</time>
      </trkpt>
      <trkpt lat="45.94425" lon="3.68135">
        <ele>1152.3</ele>
        <time>2022-08-29T09:04:27Z</time>
      </trkpt>
      <trkpt lat="45.94422" lon="3.68136">
        <ele>1152.3</ele>
        <time>2022-08-29T09:04:28Z</time>
      </trkpt>
      <trkpt lat="45.94421" lon="3.68137">
        <ele>1152.3</ele>
        <time>2022-08-29T09:04:29Z</time>
      </trkpt>
      <trkpt lat="45.9442" lon="3.68137">
        <ele>1152.3</ele>
        <time>2022-08-29T09:04:30Z</time>
      </trkpt>
      <trkpt lat="45.94418" lon="3.68138">
        <ele>1152.3</ele>
        <time>2022-08-29T09:04:31Z</time>
      </trkpt>
      <trkpt lat="45.94416" lon="3.68139">
        <ele>1152.3</ele>
        <time>2022-08-29T09:04:32Z</time>
      </trkpt>
      <trkpt lat="45.94416" lon="3.6814">
        <ele>1152.3</ele>
        <time>2022-08-29T09:04:33Z</time>
      </trkpt>
      <trkpt lat="45.94415" lon="3.6814">
        <ele>1152.3</ele>
        <time>2022-08-29T09:04:34Z</time>
      </trkpt>
      <trkpt lat="45.94413" lon="3.68141">
        <ele>1152.3</ele>
        <time>2022-08-29T09:04:35Z</time>
      </trkpt>
      <trkpt lat="45.94412" lon="3.68142">
        <ele>1152.3</ele>
        <time>2022-08-29T09:04:36Z</time>
      </trkpt>
      <trkpt lat="45.94411" lon="3.68142">
        <ele>1152.3</ele>
        <time>2022-08-29T09:04:37Z</time>
      </trkpt>
      <trkpt lat="45.94409" lon="3.68144">
        <ele>1152.3</ele>
        <time>2022-08-29T09:04:38Z</time>
      </trkpt>
      <trkpt lat="45.94408" lon="3.68145">
        <ele>1152.4</ele>
        <time>2022-08-29T09:04:39Z</time>
      </trkpt>
      <trkpt lat="45.94405" lon="3.68147">
        <ele>1152.4</ele>
        <time>2022-08-29T09:04:40Z</time>
      </trkpt>
      <trkpt lat="45.94404" lon="3.68148">
        <ele>1152.4</ele>
        <time>2022-08-29T09:04:41Z</time>
      </trkpt>
      <trkpt lat="45.94401" lon="3.6815">
        <ele>1152.4</ele>
        <time>2022-08-29T09:04:42Z</time>
      </trkpt>
      <trkpt lat="45.944" lon="3.6815">
        <ele>1152.5</ele>
        <time>2022-08-29T09:04:43Z</time>
      </trkpt>
      <trkpt lat="45.94399" lon="3.68151">
        <ele>1152.5</ele>
        <time>2022-08-29T09:04:44Z</time>
      </trkpt>
      <trkpt lat="45.94397" lon="3.68152">
        <ele>1152.5</ele>
        <time>2022-08-29T09:04:45Z</time>
      </trkpt>
      <trkpt lat="45.94396" lon="3.68152">
        <ele>1152.5</ele>
        <time>2022-08-29T09:04:46Z</time>
      </trkpt>
      <trkpt lat="45.94394" lon="3.68152">
        <ele>1152.5</ele>
        <time>2022-08-29T09:04:47Z</time>
      </trkpt>
      <trkpt lat="45.94393" lon="3.68153">
        <ele>1152.6</ele>
        <time>2022-08-29T09:04:48Z</time>
      </trkpt>
      <trkpt lat="45.94392" lon="3.68154">
        <ele>1152.6</ele>
        <time>2022-08-29T09:04:49Z</time>
      </trkpt>
      <trkpt lat="45.94391" lon="3.68154">
        <ele>1152.6</ele>
        <time>2022-08-29T09:04:50Z</time>
      </trkpt>
      <trkpt lat="45.94391" lon="3.68155">
        <ele>1152.6</ele>
        <time>2022-08-29T09:04:51Z</time>
      </trkpt>
      <trkpt lat="45.9439" lon="3.68156">
        <ele>1152.6</ele>
        <time>2022-08-29T09:04:52Z</time>
      </trkpt>
      <trkpt lat="45.94389" lon="3.68157">
        <ele>1152.7</ele>
        <time>2022-08-29T09:04:53Z</time>
      </trkpt>
      <trkpt lat="45.94387" lon="3.68158">
        <ele>1152.7</ele>
        <time>2022-08-29T09:04:54Z</time>
      </trkpt>
      <trkpt lat="45.94386" lon="3.68159">
        <ele>1152.7</ele>
        <time>2022-08-29T09:04:55Z</time>
      </trkpt>
      <trkpt lat="45.94384" lon="3.6816">
        <ele>1152.8</ele>
        <time>2022-08-29T09:04:56Z</time>
      </trkpt>
      <trkpt lat="45.94383" lon="3.6816">
        <ele>1152.8</ele>
        <time>2022-08-29T09:04:57Z</time>
      </trkpt>
      <trkpt lat="45.94382" lon="3.6816">
        <ele>1152.8</ele>
        <time>2022-08-29T09:04:58Z</time>
      </trkpt>
      <trkpt lat="45.94381" lon="3.68161">
        <ele>1152.9</ele>
        <time>2022-08-29T09:04:59Z</time>
      </trkpt>
      <trkpt lat="45.94379" lon="3.68161">
        <ele>1152.9</ele>
        <time>2022-08-29T09:05:00Z</time>
      </trkpt>
      <trkpt lat="45.94377" lon="3.68161">
        <ele>1152.9</ele>
        <time>2022-08-29T09:05:01Z</time>
      </trkpt>
      <trkpt lat="45.94376" lon="3.68161">
        <ele>1153</ele>
        <time>2022-08-29T09:05:02Z</time>
      </trkpt>
      <trkpt lat="45.94376" lon="3.68161">
        <ele>1153</ele>
        <time>2022-08-29T09:05:03Z</time>
      </trkpt>
      <trkpt lat="45.94374" lon="3.6816">
        <ele>1153</ele>
        <time>2022-08-29T09:05:04Z</time>
      </trkpt>
      <trkpt lat="45.94373" lon="3.6816">
        <ele>1153.1</ele>
        <time>2022-08-29T09:05:05Z</time>
      </trkpt>
      <trkpt lat="45.9437" lon="3.6816">
        <ele>1153.2</ele>
        <time>2022-08-29T09:05:06Z</time>
      </trkpt>
      <trkpt lat="45.94369" lon="3.6816">
        <ele>1153.2</ele>
        <time>2022-08-29T09:05:07Z</time>
      </trkpt>
      <trkpt lat="45.94366" lon="3.68161">
        <ele>1153.3</ele>
        <time>2022-08-29T09:05:08Z</time>
      </trkpt>
      <trkpt lat="45.94365" lon="3.68162">
        <ele>1153.3</ele>
        <time>2022-08-29T09:05:09Z</time>
      </trkpt>
      <trkpt lat="45.94362" lon="3.68164">
        <ele>1153.4</ele>
        <time>2022-08-29T09:05:10Z</time>
      </trkpt>
      <trkpt lat="45.94362" lon="3.68165">
        <ele>1153.4</ele>
        <time>2022-08-29T09:05:11Z</time>
      </trkpt>
      <trkpt lat="45.94361" lon="3.68165">
        <ele>1153.5</ele>
        <time>2022-08-29T09:05:12Z</time>
      </trkpt>
      <trkpt lat="45.9436" lon="3.68166">
        <ele>1153.5</ele>
        <time>2022-08-29T09:05:13Z</time>
      </trkpt>
      <trkpt lat="45.94359" lon="3.68167">
        <ele>1153.5</ele>
        <time>2022-08-29T09:05:14Z</time>
      </trkpt>
      <trkpt lat="45.94358" lon="3.68168">
        <ele>1153.6</ele>
        <time>2022-08-29T09:05:15Z</time>
      </trkpt>
      <trkpt lat="45.94356" lon="3.6817">
        <ele>1153.6</ele>
        <time>2022-08-29T09:05:16Z</time>
      </trkpt>
      <trkpt lat="45.94355" lon="3.68171">
        <ele>1153.7</ele>
        <time>2022-08-29T09:05:17Z</time>
      </trkpt>
      <trkpt lat="45.94354" lon="3.68172">
        <ele>1153.7</ele>
        <time>2022-08-29T09:05:18Z</time>
      </trkpt>
      <trkpt lat="45.94353" lon="3.68175">
        <ele>1153.8</ele>
        <time>2022-08-29T09:05:19Z</time>
      </trkpt>
      <trkpt lat="45.94352" lon="3.68176">
        <ele>1153.8</ele>
        <time>2022-08-29T09:05:20Z</time>
      </trkpt>
      <trkpt lat="45.94352" lon="3.68178">
        <ele>1153.8</ele>
        <time>2022-08-29T09:05:21Z</time>
      </trkpt>
      <trkpt lat="45.94352" lon="3.68179">
        <ele>1153.9</ele>
        <time>2022-08-29T09:05:22Z</time>
      </trkpt>
      <trkpt lat="45.94351" lon="3.6818">
        <ele>1153.9</ele>
        <time>2022-08-29T09:05:23Z</time>
      </trkpt>
      <trkpt lat="45.9435" lon="3.68182">
        <ele>1153.9</ele>
        <time>2022-08-29T09:05:24Z</time>
      </trkpt>
      <trkpt lat="45.9435" lon="3.68183">
        <ele>1154</ele>
        <time>2022-08-29T09:05:25Z</time>
      </trkpt>
      <trkpt lat="45.94349" lon="3.68185">
        <ele>1154</ele>
        <time>2022-08-29T09:05:26Z</time>
      </trkpt>
      <trkpt lat="45.94349" lon="3.68186">
        <ele>1154</ele>
        <time>2022-08-29T09:05:27Z</time>
      </trkpt>
      <trkpt lat="45.94348" lon="3.68188">
        <ele>1154.1</ele>
        <time>2022-08-29T09:05:28Z</time>
      </trkpt>
      <trkpt lat="45.94347" lon="3.68189">
        <ele>1154.1</ele>
        <time>2022-08-29T09:05:29Z</time>
      </trkpt>
      <trkpt lat="45.94347" lon="3.68191">
        <ele>1154.1</ele>
        <time>2022-08-29T09:05:30Z</time>
      </trkpt>
      <trkpt lat="45.94346" lon="3.68192">
        <ele>1154.2</ele>
        <time>2022-08-29T09:05:31Z</time>
      </trkpt>
      <trkpt lat="45.94345" lon="3.68194">
        <ele>1154.2</ele>
        <time>2022-08-29T09:05:32Z</time>
      </trkpt>
      <trkpt lat="45.94344" lon="3.68197">
        <ele>1154.2</ele>
        <time>2022-08-29T09:05:33Z</time>
      </trkpt>
      <trkpt lat="45.94344" lon="3.68198">
        <ele>1154.3</ele>
        <time>2022-08-29T09:05:34Z</time>
      </trkpt>
      <trkpt lat="45.94344" lon="3.68199">
        <ele>1154.3</ele>
        <time>2022-08-29T09:05:35Z</time>
      </trkpt>
      <trkpt lat="45.94343" lon="3.68201">
        <ele>1154.3</ele>
        <time>2022-08-29T09:05:36Z</time>
      </trkpt>
      <trkpt lat="45.94342" lon="3.68203">
        <ele>1154.3</ele>
        <time>2022-08-29T09:05:37Z</time>
      </trkpt>
      <trkpt lat="45.94341" lon="3.68205">
        <ele>1154.4</ele>
        <time>2022-08-29T09:05:38Z</time>
      </trkpt>
      <trkpt lat="45.94341" lon="3.68207">
        <ele>1154.4</ele>
        <time>2022-08-29T09:05:39Z</time>
      </trkpt>
      <trkpt lat="45.9434" lon="3.68208">
        <ele>1154.4</ele>
        <time>2022-08-29T09:05:40Z</time>
      </trkpt>
      <trkpt lat="45.94339" lon="3.6821">
        <ele>1154.4</ele>
        <time>2022-08-29T09:05:41Z</time>
      </trkpt>
      <trkpt lat="45.94338" lon="3.68211">
        <ele>1154.5</ele>
        <time>2022-08-29T09:05:42Z</time>
      </trkpt>
      <trkpt lat="45.94337" lon="3.68213">
        <ele>1154.5</ele>
        <time>2022-08-29T09:05:43Z</time>
      </trkpt>
      <trkpt lat="45.94336" lon="3.68214">
        <ele>1154.5</ele>
        <time>2022-08-29T09:05:44Z</time>
      </trkpt>
      <trkpt lat="45.94335" lon="3.68214">
        <ele>1154.5</ele>
        <time>2022-08-29T09:05:45Z</time>
      </trkpt>
      <trkpt lat="45.94334" lon="3.68216">
        <ele>1154.5</ele>
        <time>2022-08-29T09:05:46Z</time>
      </trkpt>
      <trkpt lat="45.94332" lon="3.68217">
        <ele>1154.5</ele>
        <time>2022-08-29T09:05:47Z</time>
      </trkpt>
      <trkpt lat="45.9433" lon="3.68218">
        <ele>1154.6</ele>
        <time>2022-08-29T09:05:48Z</time>
      </trkpt>
      <trkpt lat="45.9433" lon="3.68219">
        <ele>1154.6</ele>
        <time>2022-08-29T09:05:49Z</time>
      </trkpt>
      <trkpt lat="45.94329" lon="3.6822">
        <ele>1154.6</ele>
        <time>2022-08-29T09:05:50Z</time>
      </trkpt>
      <trkpt lat="45.94328" lon="3.68222">
        <ele>1154.6</ele>
        <time>2022-08-29T09:05:51Z</time>
      </trkpt>
      <trkpt lat="45.94327" lon="3.68223">
        <ele>1154.6</ele>
        <time>2022-08-29T09:05:52Z</time>
      </trkpt>
      <trkpt lat="45.94326" lon="3.68225">
        <ele>1154.6</ele>
        <time>2022-08-29T09:05:53Z</time>
      </trkpt>
      <trkpt lat="45.94326" lon="3.68227">
        <ele>1154.6</ele>
        <time>2022-08-29T09:05:54Z</time>
      </trkpt>
      <trkpt lat="45.94325" lon="3.68228">
        <ele>1154.6</ele>
        <time>2022-08-29T09:05:55Z</time>
      </trkpt>
      <trkpt lat="45.94325" lon="3.6823">
        <ele>1154.6</ele>
        <time>2022-08-29T09:05:56Z</time>
      </trkpt>
      <trkpt lat="45.94324" lon="3.68231">
        <ele>1154.6</ele>
        <time>2022-08-29T09:05:57Z</time>
      </trkpt>
      <trkpt lat="45.94324" lon="3.68232">
        <ele>1154.6</ele>
        <time>2022-08-29T09:05:58Z</time>
      </trkpt>
      <trkpt lat="45.94323" lon="3.68234">
        <ele>1154.6</ele>
        <time>2022-08-29T09:05:59Z</time>
      </trkpt>
      <trkpt lat="45.94322" lon="3.68236">
        <ele>1154.6</ele>
        <time>2022-08-29T09:06:00Z</time>
      </trkpt>
      <trkpt lat="45.94322" lon="3.68238">
        <ele>1154.5</ele>
        <time>2022-08-29T09:06:01Z</time>
      </trkpt>
      <trkpt lat="45.94321" lon="3.6824">
        <ele>1154.5</ele>
        <time>2022-08-29T09:06:02Z</time>
      </trkpt>
      <trkpt lat="45.94321" lon="3.68242">
        <ele>1154.5</ele>
        <time>2022-08-29T09:06:03Z</time>
      </trkpt>
      <trkpt lat="45.94321" lon="3.68245">
        <ele>1154.5</ele>
        <time>2022-08-29T09:06:04Z</time>
      </trkpt>
      <trkpt lat="45.94321" lon="3.68247">
        <ele>1154.5</ele>
        <time>2022-08-29T09:06:05Z</time>
      </trkpt>
      <trkpt lat="45.9432" lon="3.68249">
        <ele>1154.4</ele>
        <time>2022-08-29T09:06:06Z</time>
      </trkpt>
      <trkpt lat="45.9432" lon="3.68252">
        <ele>1154.4</ele>
        <time>2022-08-29T09:06:07Z</time>
      </trkpt>
      <trkpt lat="45.94319" lon="3.68253">
        <ele>1154.4</ele>
        <time>2022-08-29T09:06:08Z</time>
      </trkpt>
      <trkpt lat="45.94319" lon="3.68254">
        <ele>1154.4</ele>
        <time>2022-08-29T09:06:09Z</time>
      </trkpt>
      <trkpt lat="45.94318" lon="3.68256">
        <ele>1154.3</ele>
        <time>2022-08-29T09:06:10Z</time>
      </trkpt>
      <trkpt lat="45.94317" lon="3.68258">
        <ele>1154.3</ele>
        <time>2022-08-29T09:06:11Z</time>
      </trkpt>
      <trkpt lat="45.94316" lon="3.68261">
        <ele>1154.2</ele>
        <time>2022-08-29T09:06:12Z</time>
      </trkpt>
      <trkpt lat="45.94315" lon="3.68262">
        <ele>1154.2</ele>
        <time>2022-08-29T09:06:13Z</time>
      </trkpt>
      <trkpt lat="45.94315" lon="3.68262">
        <ele>1154.2</ele>
        <time>2022-08-29T09:06:14Z</time>
      </trkpt>
      <trkpt lat="45.94314" lon="3.68264">
        <ele>1154.2</ele>
        <time>2022-08-29T09:06:15Z</time>
      </trkpt>
      <trkpt lat="45.94313" lon="3.68266">
        <ele>1154.1</ele>
        <time>2022-08-29T09:06:16Z</time>
      </trkpt>
      <trkpt lat="45.94313" lon="3.68268">
        <ele>1154.1</ele>
        <time>2022-08-29T09:06:17Z</time>
      </trkpt>
      <trkpt lat="45.94312" lon="3.68271">
        <ele>1154</ele>
        <time>2022-08-29T09:06:18Z</time>
      </trkpt>
      <trkpt lat="45.94312" lon="3.68273">
        <ele>1154</ele>
        <time>2022-08-29T09:06:19Z</time>
      </trkpt>
      <trkpt lat="45.94312" lon="3.68275">
        <ele>1153.9</ele>
        <time>2022-08-29T09:06:20Z</time>
      </trkpt>
      <trkpt lat="45.94312" lon="3.68278">
        <ele>1153.9</ele>
        <time>2022-08-29T09:06:21Z</time>
      </trkpt>
      <trkpt lat="45.94312" lon="3.6828">
        <ele>1153.8</ele>
        <time>2022-08-29T09:06:22Z</time>
      </trkpt>
      <trkpt lat="45.94312" lon="3.68282">
        <ele>1153.8</ele>
        <time>2022-08-29T09:06:23Z</time>
      </trkpt>
      <trkpt lat="45.94312" lon="3.68284">
        <ele>1153.8</ele>
        <time>2022-08-29T09:06:24Z</time>
      </trkpt>
      <trkpt lat="45.94311" lon="3.68286">
        <ele>1153.7</ele>
        <time>2022-08-29T09:06:25Z</time>
      </trkpt>
      <trkpt lat="45.94311" lon="3.68288">
        <ele>1153.7</ele>
        <time>2022-08-29T09:06:26Z</time>
      </trkpt>
      <trkpt lat="45.94311" lon="3.68289">
        <ele>1153.6</ele>
        <time>2022-08-29T09:06:27Z</time>
      </trkpt>
      <trkpt lat="45.9431" lon="3.68291">
        <ele>1153.6</ele>
        <time>2022-08-29T09:06:28Z</time>
      </trkpt>
      <trkpt lat="45.94308" lon="3.68293">
        <ele>1153.5</ele>
        <time>2022-08-29T09:06:29Z</time>
      </trkpt>
      <trkpt lat="45.94307" lon="3.68293">
        <ele>1153.5</ele>
        <time>2022-08-29T09:06:30Z</time>
      </trkpt>
      <trkpt lat="45.94306" lon="3.68294">
        <ele>1153.5</ele>
        <time>2022-08-29T09:06:31Z</time>
      </trkpt>
      <trkpt lat="45.94304" lon="3.68295">
        <ele>1153.4</ele>
        <time>2022-08-29T09:06:32Z</time>
      </trkpt>
      <trkpt lat="45.94303" lon="3.68296">
        <ele>1153.4</ele>
        <time>2022-08-29T09:06:33Z</time>
      </trkpt>
      <trkpt lat="45.94303" lon="3.68296">
        <ele>1153.4</ele>
        <time>2022-08-29T09:06:34Z</time>
      </trkpt>
      <trkpt lat="45.94302" lon="3.68297">
        <ele>1153.3</ele>
        <time>2022-08-29T09:06:35Z</time>
      </trkpt>
      <trkpt lat="45.94301" lon="3.68298">
        <ele>1153.3</ele>
        <time>2022-08-29T09:06:36Z</time>
      </trkpt>
      <trkpt lat="45.943" lon="3.683">
        <ele>1153.3</ele>
        <time>2022-08-29T09:06:37Z</time>
      </trkpt>
      <trkpt lat="45.94299" lon="3.68301">
        <ele>1153.2</ele>
        <time>2022-08-29T09:06:38Z</time>
      </trkpt>
      <trkpt lat="45.94299" lon="3.68302">
        <ele>1153.2</ele>
        <time>2022-08-29T09:06:39Z</time>
      </trkpt>
      <trkpt lat="45.94298" lon="3.68303">
        <ele>1153.2</ele>
        <time>2022-08-29T09:06:40Z</time>
      </trkpt>
      <trkpt lat="45.94298" lon="3.68304">
        <ele>1153.1</ele>
        <time>2022-08-29T09:06:41Z</time>
      </trkpt>
      <trkpt lat="45.94297" lon="3.68305">
        <ele>1153.1</ele>
        <time>2022-08-29T09:06:42Z</time>
      </trkpt>
      <trkpt lat="45.94297" lon="3.68306">
        <ele>1153.1</ele>
        <time>2022-08-29T09:06:43Z</time>
      </trkpt>
      <trkpt lat="45.94296" lon="3.68307">
        <ele>1153.1</ele>
        <time>2022-08-29T09:06:44Z</time>
      </trkpt>
      <trkpt lat="45.94295" lon="3.68309">
        <ele>1153</ele>
        <time>2022-08-29T09:06:45Z</time>
      </trkpt>
      <trkpt lat="45.94294" lon="3.6831">
        <ele>1153</ele>
        <time>2022-08-29T09:06:46Z</time>
      </trkpt>
      <trkpt lat="45.94294" lon="3.68312">
        <ele>1152.9</ele>
        <time>2022-08-29T09:06:47Z</time>
      </trkpt>
      <trkpt lat="45.94293" lon="3.68313">
        <ele>1152.9</ele>
        <time>2022-08-29T09:06:48Z</time>
      </trkpt>
      <trkpt lat="45.94292" lon="3.68315">
        <ele>1152.8</ele>
        <time>2022-08-29T09:06:49Z</time>
      </trkpt>
      <trkpt lat="45.9429" lon="3.68318">
        <ele>1152.7</ele>
        <time>2022-08-29T09:06:50Z</time>
      </trkpt>
      <trkpt lat="45.94289" lon="3.6832">
        <ele>1152.7</ele>
        <time>2022-08-29T09:06:51Z</time>
      </trkpt>
      <trkpt lat="45.94287" lon="3.68323">
        <ele>1152.6</ele>
        <time>2022-08-29T09:06:52Z</time>
      </trkpt>
      <trkpt lat="45.94287" lon="3.68324">
        <ele>1152.6</ele>
        <time>2022-08-29T09:06:53Z</time>
      </trkpt>
      <trkpt lat="45.94286" lon="3.68325">
        <ele>1152.5</ele>
        <time>2022-08-29T09:06:54Z</time>
      </trkpt>
      <trkpt lat="45.94284" lon="3.68327">
        <ele>1152.5</ele>
        <time>2022-08-29T09:06:55Z</time>
      </trkpt>
      <trkpt lat="45.94283" lon="3.68331">
        <ele>1152.4</ele>
        <time>2022-08-29T09:06:56Z</time>
      </trkpt>
      <trkpt lat="45.94282" lon="3.68332">
        <ele>1152.3</ele>
        <time>2022-08-29T09:06:57Z</time>
      </trkpt>
      <trkpt lat="45.94282" lon="3.68334">
        <ele>1152.3</ele>
        <time>2022-08-29T09:06:58Z</time>
      </trkpt>
      <trkpt lat="45.94281" lon="3.68336">
        <ele>1152.2</ele>
        <time>2022-08-29T09:06:59Z</time>
      </trkpt>
      <trkpt lat="45.9428" lon="3.68341">
        <ele>1152.1</ele>
        <time>2022-08-29T09:07:00Z</time>
      </trkpt>
      <trkpt lat="45.9428" lon="3.68342">
        <ele>1152.1</ele>
        <time>2022-08-29T09:07:01Z</time>
      </trkpt>
      <trkpt lat="45.94279" lon="3.68346">
        <ele>1152</ele>
        <time>2022-08-29T09:07:02Z</time>
      </trkpt>
      <trkpt lat="45.94279" lon="3.68348">
        <ele>1152</ele>
        <time>2022-08-29T09:07:03Z</time>
      </trkpt>
      <trkpt lat="45.94278" lon="3.68352">
        <ele>1151.9</ele>
        <time>2022-08-29T09:07:04Z</time>
      </trkpt>
      <trkpt lat="45.94277" lon="3.68353">
        <ele>1151.9</ele>
        <time>2022-08-29T09:07:05Z</time>
      </trkpt>
      <trkpt lat="45.94277" lon="3.68357">
        <ele>1151.8</ele>
        <time>2022-08-29T09:07:06Z</time>
      </trkpt>
      <trkpt lat="45.94277" lon="3.68358">
        <ele>1151.8</ele>
        <time>2022-08-29T09:07:07Z</time>
      </trkpt>
      <trkpt lat="45.94276" lon="3.68363">
        <ele>1151.8</ele>
        <time>2022-08-29T09:07:08Z</time>
      </trkpt>
      <trkpt lat="45.94276" lon="3.68364">
        <ele>1151.7</ele>
        <time>2022-08-29T09:07:09Z</time>
      </trkpt>
      <trkpt lat="45.94276" lon="3.68369">
        <ele>1151.7</ele>
        <time>2022-08-29T09:07:10Z</time>
      </trkpt>
      <trkpt lat="45.94276" lon="3.6837">
        <ele>1151.7</ele>
        <time>2022-08-29T09:07:11Z</time>
      </trkpt>
      <trkpt lat="45.94275" lon="3.68372">
        <ele>1151.6</ele>
        <time>2022-08-29T09:07:12Z</time>
      </trkpt>
      <trkpt lat="45.94275" lon="3.68375">
        <ele>1151.6</ele>
        <time>2022-08-29T09:07:13Z</time>
      </trkpt>
      <trkpt lat="45.94275" lon="3.68377">
        <ele>1151.6</ele>
        <time>2022-08-29T09:07:14Z</time>
      </trkpt>
      <trkpt lat="45.94275" lon="3.68379">
        <ele>1151.6</ele>
        <time>2022-08-29T09:07:15Z</time>
      </trkpt>
      <trkpt lat="45.94275" lon="3.68381">
        <ele>1151.6</ele>
        <time>2022-08-29T09:07:16Z</time>
      </trkpt>
      <trkpt lat="45.94274" lon="3.68383">
        <ele>1151.6</ele>
        <time>2022-08-29T09:07:17Z</time>
      </trkpt>
      <trkpt lat="45.94274" lon="3.68385">
        <ele>1151.5</ele>
        <time>2022-08-29T09:07:18Z</time>
      </trkpt>
      <trkpt lat="45.94273" lon="3.68387">
        <ele>1151.5</ele>
        <time>2022-08-29T09:07:19Z</time>
      </trkpt>
      <trkpt lat="45.94272" lon="3.68389">
        <ele>1151.5</ele>
        <time>2022-08-29T09:07:20Z</time>
      </trkpt>
      <trkpt lat="45.94271" lon="3.68392">
        <ele>1151.5</ele>
        <time>2022-08-29T09:07:21Z</time>
      </trkpt>
      <trkpt lat="45.94271" lon="3.68396">
        <ele>1151.5</ele>
        <time>2022-08-29T09:07:22Z</time>
      </trkpt>
      <trkpt lat="45.94271" lon="3.68398">
        <ele>1151.5</ele>
        <time>2022-08-29T09:07:23Z</time>
      </trkpt>
      <trkpt lat="45.94271" lon="3.68403">
        <ele>1151.5</ele>
        <time>2022-08-29T09:07:24Z</time>
      </trkpt>
      <trkpt lat="45.94271" lon="3.68404">
        <ele>1151.5</ele>
        <time>2022-08-29T09:07:25Z</time>
      </trkpt>
      <trkpt lat="45.9427" lon="3.68407">
        <ele>1151.5</ele>
        <time>2022-08-29T09:07:26Z</time>
      </trkpt>
      <trkpt lat="45.9427" lon="3.68409">
        <ele>1151.5</ele>
        <time>2022-08-29T09:07:27Z</time>
      </trkpt>
      <trkpt lat="45.94269" lon="3.68411">
        <ele>1151.5</ele>
        <time>2022-08-29T09:07:28Z</time>
      </trkpt>
      <trkpt lat="45.94269" lon="3.68412">
        <ele>1151.6</ele>
        <time>2022-08-29T09:07:29Z</time>
      </trkpt>
      <trkpt lat="45.94268" lon="3.68413">
        <ele>1151.6</ele>
        <time>2022-08-29T09:07:30Z</time>
      </trkpt>
      <trkpt lat="45.94267" lon="3.68418">
        <ele>1151.6</ele>
        <time>2022-08-29T09:07:31Z</time>
      </trkpt>
      <trkpt lat="45.94267" lon="3.68419">
        <ele>1151.7</ele>
        <time>2022-08-29T09:07:32Z</time>
      </trkpt>
      <trkpt lat="45.94267" lon="3.68425">
        <ele>1151.7</ele>
        <time>2022-08-29T09:07:33Z</time>
      </trkpt>
      <trkpt lat="45.94267" lon="3.68427">
        <ele>1151.8</ele>
        <time>2022-08-29T09:07:34Z</time>
      </trkpt>
      <trkpt lat="45.94266" lon="3.68431">
        <ele>1151.8</ele>
        <time>2022-08-29T09:07:35Z</time>
      </trkpt>
      <trkpt lat="45.94266" lon="3.68435">
        <ele>1151.9</ele>
        <time>2022-08-29T09:07:36Z</time>
      </trkpt>
      <trkpt lat="45.94265" lon="3.6844">
        <ele>1152</ele>
        <time>2022-08-29T09:07:37Z</time>
      </trkpt>
      <trkpt lat="45.94265" lon="3.68441">
        <ele>1152</ele>
        <time>2022-08-29T09:07:38Z</time>
      </trkpt>
      <trkpt lat="45.94264" lon="3.68443">
        <ele>1152.1</ele>
        <time>2022-08-29T09:07:39Z</time>
      </trkpt>
      <trkpt lat="45.94263" lon="3.68444">
        <ele>1152.1</ele>
        <time>2022-08-29T09:07:40Z</time>
      </trkpt>
      <trkpt lat="45.94263" lon="3.68445">
        <ele>1152.2</ele>
        <time>2022-08-29T09:07:41Z</time>
      </trkpt>
      <trkpt lat="45.94262" lon="3.68447">
        <ele>1152.2</ele>
        <time>2022-08-29T09:07:42Z</time>
      </trkpt>
      <trkpt lat="45.94261" lon="3.68449">
        <ele>1152.3</ele>
        <time>2022-08-29T09:07:43Z</time>
      </trkpt>
      <trkpt lat="45.9426" lon="3.6845">
        <ele>1152.4</ele>
        <time>2022-08-29T09:07:44Z</time>
      </trkpt>
      <trkpt lat="45.94259" lon="3.68452">
        <ele>1152.5</ele>
        <time>2022-08-29T09:07:45Z</time>
      </trkpt>
      <trkpt lat="45.94258" lon="3.68453">
        <ele>1152.5</ele>
        <time>2022-08-29T09:07:46Z</time>
      </trkpt>
      <trkpt lat="45.94257" lon="3.68454">
        <ele>1152.6</ele>
        <time>2022-08-29T09:07:47Z</time>
      </trkpt>
      <trkpt lat="45.94256" lon="3.68455">
        <ele>1152.6</ele>
        <time>2022-08-29T09:07:48Z</time>
      </trkpt>
      <trkpt lat="45.94256" lon="3.68456">
        <ele>1152.7</ele>
        <time>2022-08-29T09:07:49Z</time>
      </trkpt>
      <trkpt lat="45.94256" lon="3.68457">
        <ele>1152.7</ele>
        <time>2022-08-29T09:07:50Z</time>
      </trkpt>
      <trkpt lat="45.94256" lon="3.68459">
        <ele>1152.8</ele>
        <time>2022-08-29T09:07:51Z</time>
      </trkpt>
      <trkpt lat="45.94256" lon="3.6846">
        <ele>1152.8</ele>
        <time>2022-08-29T09:07:52Z</time>
      </trkpt>
      <trkpt lat="45.94255" lon="3.6846">
        <ele>1152.8</ele>
        <time>2022-08-29T09:07:53Z</time>
      </trkpt>
      <trkpt lat="45.94255" lon="3.6846">
        <ele>1152.8</ele>
        <time>2022-08-29T09:07:54Z</time>
      </trkpt>
      <trkpt lat="45.94255" lon="3.6846">
        <ele>1152.9</ele>
        <time>2022-08-29T09:07:55Z</time>
      </trkpt>
      <trkpt lat="45.94255" lon="3.68461">
        <ele>1152.9</ele>
        <time>2022-08-29T09:07:56Z</time>
      </trkpt>
      <trkpt lat="45.94254" lon="3.68463">
        <ele>1153</ele>
        <time>2022-08-29T09:07:57Z</time>
      </trkpt>
      <trkpt lat="45.94254" lon="3.68465">
        <ele>1153.1</ele>
        <time>2022-08-29T09:07:58Z</time>
      </trkpt>
      <trkpt lat="45.94254" lon="3.68468">
        <ele>1153.2</ele>
        <time>2022-08-29T09:07:59Z</time>
      </trkpt>
      <trkpt lat="45.94254" lon="3.68471">
        <ele>1153.4</ele>
        <time>2022-08-29T09:08:00Z</time>
      </trkpt>
      <trkpt lat="45.94254" lon="3.68472">
        <ele>1153.4</ele>
        <time>2022-08-29T09:08:01Z</time>
      </trkpt>
      <trkpt lat="45.94254" lon="3.68473">
        <ele>1153.5</ele>
        <time>2022-08-29T09:08:02Z</time>
      </trkpt>
      <trkpt lat="45.94253" lon="3.68475">
        <ele>1153.6</ele>
        <time>2022-08-29T09:08:03Z</time>
      </trkpt>
      <trkpt lat="45.94252" lon="3.68477">
        <ele>1153.7</ele>
        <time>2022-08-29T09:08:04Z</time>
      </trkpt>
      <trkpt lat="45.94251" lon="3.68479">
        <ele>1153.8</ele>
        <time>2022-08-29T09:08:05Z</time>
      </trkpt>
      <trkpt lat="45.94251" lon="3.68481">
        <ele>1153.9</ele>
        <time>2022-08-29T09:08:06Z</time>
      </trkpt>
      <trkpt lat="45.9425" lon="3.68482">
        <ele>1154</ele>
        <time>2022-08-29T09:08:07Z</time>
      </trkpt>
      <trkpt lat="45.9425" lon="3.68484">
        <ele>1154.1</ele>
        <time>2022-08-29T09:08:08Z</time>
      </trkpt>
      <trkpt lat="45.94249" lon="3.68487">
        <ele>1154.3</ele>
        <time>2022-08-29T09:08:09Z</time>
      </trkpt>
      <trkpt lat="45.94248" lon="3.68488">
        <ele>1154.4</ele>
        <time>2022-08-29T09:08:10Z</time>
      </trkpt>
      <trkpt lat="45.94248" lon="3.68489">
        <ele>1154.5</ele>
        <time>2022-08-29T09:08:11Z</time>
      </trkpt>
      <trkpt lat="45.94247" lon="3.68491">
        <ele>1154.6</ele>
        <time>2022-08-29T09:08:12Z</time>
      </trkpt>
      <trkpt lat="45.94246" lon="3.68493">
        <ele>1154.7</ele>
        <time>2022-08-29T09:08:13Z</time>
      </trkpt>
      <trkpt lat="45.94245" lon="3.68495">
        <ele>1154.9</ele>
        <time>2022-08-29T09:08:14Z</time>
      </trkpt>
      <trkpt lat="45.94244" lon="3.68496">
        <ele>1155</ele>
        <time>2022-08-29T09:08:15Z</time>
      </trkpt>
      <trkpt lat="45.94243" lon="3.68497">
        <ele>1155.1</ele>
        <time>2022-08-29T09:08:16Z</time>
      </trkpt>
      <trkpt lat="45.94243" lon="3.68499">
        <ele>1155.2</ele>
        <time>2022-08-29T09:08:17Z</time>
      </trkpt>
      <trkpt lat="45.94242" lon="3.685">
        <ele>1155.3</ele>
        <time>2022-08-29T09:08:18Z</time>
      </trkpt>
      <trkpt lat="45.94242" lon="3.68502">
        <ele>1155.4</ele>
        <time>2022-08-29T09:08:19Z</time>
      </trkpt>
      <trkpt lat="45.94242" lon="3.68504">
        <ele>1155.5</ele>
        <time>2022-08-29T09:08:20Z</time>
      </trkpt>
      <trkpt lat="45.94242" lon="3.68505">
        <ele>1155.6</ele>
        <time>2022-08-29T09:08:21Z</time>
      </trkpt>
      <trkpt lat="45.94241" lon="3.68507">
        <ele>1155.8</ele>
        <time>2022-08-29T09:08:22Z</time>
      </trkpt>
      <trkpt lat="45.9424" lon="3.68509">
        <ele>1155.9</ele>
        <time>2022-08-29T09:08:23Z</time>
      </trkpt>
      <trkpt lat="45.94239" lon="3.6851">
        <ele>1156.1</ele>
        <time>2022-08-29T09:08:24Z</time>
      </trkpt>
      <trkpt lat="45.94238" lon="3.68512">
        <ele>1156.2</ele>
        <time>2022-08-29T09:08:25Z</time>
      </trkpt>
      <trkpt lat="45.94238" lon="3.68513">
        <ele>1156.3</ele>
        <time>2022-08-29T09:08:26Z</time>
      </trkpt>
      <trkpt lat="45.94237" lon="3.68514">
        <ele>1156.4</ele>
        <time>2022-08-29T09:08:27Z</time>
      </trkpt>
      <trkpt lat="45.94236" lon="3.68514">
        <ele>1156.6</ele>
        <time>2022-08-29T09:08:28Z</time>
      </trkpt>
      <trkpt lat="45.94234" lon="3.68515">
        <ele>1156.8</ele>
        <time>2022-08-29T09:08:29Z</time>
      </trkpt>
      <trkpt lat="45.94233" lon="3.68515">
        <ele>1156.9</ele>
        <time>2022-08-29T09:08:30Z</time>
      </trkpt>
      <trkpt lat="45.94232" lon="3.68516">
        <ele>1157</ele>
        <time>2022-08-29T09:08:31Z</time>
      </trkpt>
      <trkpt lat="45.94231" lon="3.68516">
        <ele>1157.1</ele>
        <time>2022-08-29T09:08:32Z</time>
      </trkpt>
      <trkpt lat="45.9423" lon="3.68517">
        <ele>1157.2</ele>
        <time>2022-08-29T09:08:33Z</time>
      </trkpt>
      <trkpt lat="45.9423" lon="3.68518">
        <ele>1157.3</ele>
        <time>2022-08-29T09:08:34Z</time>
      </trkpt>
      <trkpt lat="45.94229" lon="3.68521">
        <ele>1157.5</ele>
        <time>2022-08-29T09:08:35Z</time>
      </trkpt>
      <trkpt lat="45.94228" lon="3.68522">
        <ele>1157.6</ele>
        <time>2022-08-29T09:08:36Z</time>
      </trkpt>
      <trkpt lat="45.94228" lon="3.68523">
        <ele>1157.7</ele>
        <time>2022-08-29T09:08:37Z</time>
      </trkpt>
      <trkpt lat="45.94227" lon="3.68525">
        <ele>1157.9</ele>
        <time>2022-08-29T09:08:38Z</time>
      </trkpt>
      <trkpt lat="45.94226" lon="3.68527">
        <ele>1158</ele>
        <time>2022-08-29T09:08:39Z</time>
      </trkpt>
      <trkpt lat="45.94224" lon="3.6853">
        <ele>1158.3</ele>
        <time>2022-08-29T09:08:40Z</time>
      </trkpt>
      <trkpt lat="45.94224" lon="3.68531">
        <ele>1158.5</ele>
        <time>2022-08-29T09:08:41Z</time>
      </trkpt>
      <trkpt lat="45.94222" lon="3.68533">
        <ele>1158.7</ele>
        <time>2022-08-29T09:08:42Z</time>
      </trkpt>
      <trkpt lat="45.94221" lon="3.68534">
        <ele>1158.9</ele>
        <time>2022-08-29T09:08:43Z</time>
      </trkpt>
      <trkpt lat="45.9422" lon="3.68536">
        <ele>1159</ele>
        <time>2022-08-29T09:08:44Z</time>
      </trkpt>
      <trkpt lat="45.9422" lon="3.68537">
        <ele>1159.2</ele>
        <time>2022-08-29T09:08:45Z</time>
      </trkpt>
      <trkpt lat="45.94219" lon="3.68539">
        <ele>1159.3</ele>
        <time>2022-08-29T09:08:46Z</time>
      </trkpt>
      <trkpt lat="45.94219" lon="3.6854">
        <ele>1159.4</ele>
        <time>2022-08-29T09:08:47Z</time>
      </trkpt>
      <trkpt lat="45.94218" lon="3.68541">
        <ele>1159.5</ele>
        <time>2022-08-29T09:08:48Z</time>
      </trkpt>
      <trkpt lat="45.94217" lon="3.68542">
        <ele>1159.7</ele>
        <time>2022-08-29T09:08:49Z</time>
      </trkpt>
      <trkpt lat="45.94217" lon="3.68543">
        <ele>1159.8</ele>
        <time>2022-08-29T09:08:50Z</time>
      </trkpt>
      <trkpt lat="45.94216" lon="3.68544">
        <ele>1159.9</ele>
        <time>2022-08-29T09:08:51Z</time>
      </trkpt>
      <trkpt lat="45.94214" lon="3.68544">
        <ele>1160</ele>
        <time>2022-08-29T09:08:52Z</time>
      </trkpt>
      <trkpt lat="45.94213" lon="3.68545">
        <ele>1160.2</ele>
        <time>2022-08-29T09:08:53Z</time>
      </trkpt>
      <trkpt lat="45.94212" lon="3.68545">
        <ele>1160.4</ele>
        <time>2022-08-29T09:08:54Z</time>
      </trkpt>
      <trkpt lat="45.9421" lon="3.68546">
        <ele>1160.6</ele>
        <time>2022-08-29T09:08:55Z</time>
      </trkpt>
      <trkpt lat="45.94208" lon="3.68547">
        <ele>1160.8</ele>
        <time>2022-08-29T09:08:56Z</time>
      </trkpt>
      <trkpt lat="45.94207" lon="3.68549">
        <ele>1161</ele>
        <time>2022-08-29T09:08:57Z</time>
      </trkpt>
      <trkpt lat="45.94206" lon="3.68549">
        <ele>1161.1</ele>
        <time>2022-08-29T09:08:58Z</time>
      </trkpt>
      <trkpt lat="45.94206" lon="3.6855">
        <ele>1161.2</ele>
        <time>2022-08-29T09:08:59Z</time>
      </trkpt>
      <trkpt lat="45.94205" lon="3.68552">
        <ele>1161.4</ele>
        <time>2022-08-29T09:09:00Z</time>
      </trkpt>
      <trkpt lat="45.94204" lon="3.68554">
        <ele>1161.6</ele>
        <time>2022-08-29T09:09:01Z</time>
      </trkpt>
      <trkpt lat="45.94203" lon="3.68555">
        <ele>1161.7</ele>
        <time>2022-08-29T09:09:02Z</time>
      </trkpt>
      <trkpt lat="45.94203" lon="3.68558">
        <ele>1161.9</ele>
        <time>2022-08-29T09:09:03Z</time>
      </trkpt>
      <trkpt lat="45.94203" lon="3.6856">
        <ele>1162.1</ele>
        <time>2022-08-29T09:09:04Z</time>
      </trkpt>
      <trkpt lat="45.94203" lon="3.68562">
        <ele>1162.2</ele>
        <time>2022-08-29T09:09:05Z</time>
      </trkpt>
      <trkpt lat="45.94203" lon="3.68564">
        <ele>1162.4</ele>
        <time>2022-08-29T09:09:06Z</time>
      </trkpt>
      <trkpt lat="45.94203" lon="3.68566">
        <ele>1162.6</ele>
        <time>2022-08-29T09:09:07Z</time>
      </trkpt>
      <trkpt lat="45.94202" lon="3.68569">
        <ele>1162.8</ele>
        <time>2022-08-29T09:09:08Z</time>
      </trkpt>
      <trkpt lat="45.94201" lon="3.68571">
        <ele>1163</ele>
        <time>2022-08-29T09:09:09Z</time>
      </trkpt>
      <trkpt lat="45.942" lon="3.68573">
        <ele>1163.1</ele>
        <time>2022-08-29T09:09:10Z</time>
      </trkpt>
      <trkpt lat="45.94199" lon="3.68574">
        <ele>1163.3</ele>
        <time>2022-08-29T09:09:11Z</time>
      </trkpt>
      <trkpt lat="45.94198" lon="3.68576">
        <ele>1163.5</ele>
        <time>2022-08-29T09:09:12Z</time>
      </trkpt>
      <trkpt lat="45.94197" lon="3.68577">
        <ele>1163.6</ele>
        <time>2022-08-29T09:09:13Z</time>
      </trkpt>
      <trkpt lat="45.94195" lon="3.68579">
        <ele>1163.8</ele>
        <time>2022-08-29T09:09:14Z</time>
      </trkpt>
      <trkpt lat="45.94195" lon="3.6858">
        <ele>1163.9</ele>
        <time>2022-08-29T09:09:15Z</time>
      </trkpt>
      <trkpt lat="45.94194" lon="3.68581">
        <ele>1164</ele>
        <time>2022-08-29T09:09:16Z</time>
      </trkpt>
      <trkpt lat="45.94193" lon="3.68583">
        <ele>1164.1</ele>
        <time>2022-08-29T09:09:17Z</time>
      </trkpt>
      <trkpt lat="45.94193" lon="3.68584">
        <ele>1164.2</ele>
        <time>2022-08-29T09:09:18Z</time>
      </trkpt>
      <trkpt lat="45.94193" lon="3.68585">
        <ele>1164.3</ele>
        <time>2022-08-29T09:09:19Z</time>
      </trkpt>
      <trkpt lat="45.94193" lon="3.68587">
        <ele>1164.4</ele>
        <time>2022-08-29T09:09:20Z</time>
      </trkpt>
      <trkpt lat="45.94193" lon="3.68588">
        <ele>1164.5</ele>
        <time>2022-08-29T09:09:21Z</time>
      </trkpt>
      <trkpt lat="45.94194" lon="3.6859">
        <ele>1164.6</ele>
        <time>2022-08-29T09:09:22Z</time>
      </trkpt>
      <trkpt lat="45.94194" lon="3.68591">
        <ele>1164.7</ele>
        <time>2022-08-29T09:09:23Z</time>
      </trkpt>
      <trkpt lat="45.94194" lon="3.68593">
        <ele>1164.9</ele>
        <time>2022-08-29T09:09:24Z</time>
      </trkpt>
      <trkpt lat="45.94194" lon="3.68595">
        <ele>1165</ele>
        <time>2022-08-29T09:09:25Z</time>
      </trkpt>
      <trkpt lat="45.94194" lon="3.68596">
        <ele>1165.1</ele>
        <time>2022-08-29T09:09:26Z</time>
      </trkpt>
      <trkpt lat="45.94194" lon="3.68597">
        <ele>1165.1</ele>
        <time>2022-08-29T09:09:27Z</time>
      </trkpt>
      <trkpt lat="45.94193" lon="3.68598">
        <ele>1165.2</ele>
        <time>2022-08-29T09:09:28Z</time>
      </trkpt>
      <trkpt lat="45.94192" lon="3.686">
        <ele>1165.3</ele>
        <time>2022-08-29T09:09:29Z</time>
      </trkpt>
      <trkpt lat="45.94191" lon="3.686">
        <ele>1165.4</ele>
        <time>2022-08-29T09:09:30Z</time>
      </trkpt>
      <trkpt lat="45.94191" lon="3.68601">
        <ele>1165.5</ele>
        <time>2022-08-29T09:09:31Z</time>
      </trkpt>
      <trkpt lat="45.9419" lon="3.68602">
        <ele>1165.5</ele>
        <time>2022-08-29T09:09:32Z</time>
      </trkpt>
      <trkpt lat="45.94189" lon="3.68602">
        <ele>1165.6</ele>
        <time>2022-08-29T09:09:33Z</time>
      </trkpt>
      <trkpt lat="45.94189" lon="3.68603">
        <ele>1165.6</ele>
        <time>2022-08-29T09:09:34Z</time>
      </trkpt>
      <trkpt lat="45.94187" lon="3.68603">
        <ele>1165.8</ele>
        <time>2022-08-29T09:09:35Z</time>
      </trkpt>
      <trkpt lat="45.94186" lon="3.68603">
        <ele>1165.9</ele>
        <time>2022-08-29T09:09:36Z</time>
      </trkpt>
      <trkpt lat="45.94185" lon="3.68603">
        <ele>1165.9</ele>
        <time>2022-08-29T09:09:37Z</time>
      </trkpt>
      <trkpt lat="45.94184" lon="3.68603">
        <ele>1166</ele>
        <time>2022-08-29T09:09:38Z</time>
      </trkpt>
      <trkpt lat="45.94183" lon="3.68603">
        <ele>1166.1</ele>
        <time>2022-08-29T09:09:39Z</time>
      </trkpt>
      <trkpt lat="45.94182" lon="3.68604">
        <ele>1166.1</ele>
        <time>2022-08-29T09:09:40Z</time>
      </trkpt>
      <trkpt lat="45.94181" lon="3.68604">
        <ele>1166.2</ele>
        <time>2022-08-29T09:09:41Z</time>
      </trkpt>
      <trkpt lat="45.9418" lon="3.68604">
        <ele>1166.3</ele>
        <time>2022-08-29T09:09:42Z</time>
      </trkpt>
      <trkpt lat="45.94179" lon="3.68604">
        <ele>1166.4</ele>
        <time>2022-08-29T09:09:43Z</time>
      </trkpt>
      <trkpt lat="45.94177" lon="3.68604">
        <ele>1166.5</ele>
        <time>2022-08-29T09:09:44Z</time>
      </trkpt>
      <trkpt lat="45.94176" lon="3.68605">
        <ele>1166.6</ele>
        <time>2022-08-29T09:09:45Z</time>
      </trkpt>
      <trkpt lat="45.94175" lon="3.68605">
        <ele>1166.6</ele>
        <time>2022-08-29T09:09:46Z</time>
      </trkpt>
      <trkpt lat="45.94174" lon="3.68605">
        <ele>1166.7</ele>
        <time>2022-08-29T09:09:47Z</time>
      </trkpt>
      <trkpt lat="45.94172" lon="3.68606">
        <ele>1166.8</ele>
        <time>2022-08-29T09:09:48Z</time>
      </trkpt>
      <trkpt lat="45.94171" lon="3.68606">
        <ele>1166.9</ele>
        <time>2022-08-29T09:09:49Z</time>
      </trkpt>
      <trkpt lat="45.9417" lon="3.68606">
        <ele>1166.9</ele>
        <time>2022-08-29T09:09:50Z</time>
      </trkpt>
      <trkpt lat="45.94168" lon="3.68606">
        <ele>1167</ele>
        <time>2022-08-29T09:09:51Z</time>
      </trkpt>
      <trkpt lat="45.94167" lon="3.68606">
        <ele>1167</ele>
        <time>2022-08-29T09:09:52Z</time>
      </trkpt>
      <trkpt lat="45.94165" lon="3.68606">
        <ele>1167.1</ele>
        <time>2022-08-29T09:09:53Z</time>
      </trkpt>
      <trkpt lat="45.94163" lon="3.68606">
        <ele>1167.2</ele>
        <time>2022-08-29T09:09:54Z</time>
      </trkpt>
      <trkpt lat="45.94162" lon="3.68607">
        <ele>1167.3</ele>
        <time>2022-08-29T09:09:55Z</time>
      </trkpt>
      <trkpt lat="45.9416" lon="3.68608">
        <ele>1167.3</ele>
        <time>2022-08-29T09:09:56Z</time>
      </trkpt>
      <trkpt lat="45.94159" lon="3.6861">
        <ele>1167.4</ele>
        <time>2022-08-29T09:09:57Z</time>
      </trkpt>
      <trkpt lat="45.94157" lon="3.68612">
        <ele>1167.4</ele>
        <time>2022-08-29T09:09:58Z</time>
      </trkpt>
      <trkpt lat="45.94156" lon="3.68614">
        <ele>1167.5</ele>
        <time>2022-08-29T09:09:59Z</time>
      </trkpt>
      <trkpt lat="45.94155" lon="3.68615">
        <ele>1167.6</ele>
        <time>2022-08-29T09:10:00Z</time>
      </trkpt>
      <trkpt lat="45.94154" lon="3.68617">
        <ele>1167.6</ele>
        <time>2022-08-29T09:10:01Z</time>
      </trkpt>
      <trkpt lat="45.94153" lon="3.68619">
        <ele>1167.7</ele>
        <time>2022-08-29T09:10:02Z</time>
      </trkpt>
      <trkpt lat="45.94152" lon="3.6862">
        <ele>1167.7</ele>
        <time>2022-08-29T09:10:03Z</time>
      </trkpt>
      <trkpt lat="45.94151" lon="3.68622">
        <ele>1167.7</ele>
        <time>2022-08-29T09:10:04Z</time>
      </trkpt>
      <trkpt lat="45.9415" lon="3.68624">
        <ele>1167.8</ele>
        <time>2022-08-29T09:10:05Z</time>
      </trkpt>
      <trkpt lat="45.94149" lon="3.68626">
        <ele>1167.8</ele>
        <time>2022-08-29T09:10:06Z</time>
      </trkpt>
      <trkpt lat="45.94148" lon="3.68627">
        <ele>1167.9</ele>
        <time>2022-08-29T09:10:07Z</time>
      </trkpt>
      <trkpt lat="45.94147" lon="3.68629">
        <ele>1167.9</ele>
        <time>2022-08-29T09:10:08Z</time>
      </trkpt>
      <trkpt lat="45.94146" lon="3.68632">
        <ele>1167.9</ele>
        <time>2022-08-29T09:10:09Z</time>
      </trkpt>
      <trkpt lat="45.94145" lon="3.68633">
        <ele>1167.9</ele>
        <time>2022-08-29T09:10:10Z</time>
      </trkpt>
      <trkpt lat="45.94145" lon="3.68634">
        <ele>1168</ele>
        <time>2022-08-29T09:10:11Z</time>
      </trkpt>
      <trkpt lat="45.94143" lon="3.68635">
        <ele>1168</ele>
        <time>2022-08-29T09:10:12Z</time>
      </trkpt>
      <trkpt lat="45.94142" lon="3.68636">
        <ele>1168</ele>
        <time>2022-08-29T09:10:13Z</time>
      </trkpt>
      <trkpt lat="45.9414" lon="3.68638">
        <ele>1168.1</ele>
        <time>2022-08-29T09:10:14Z</time>
      </trkpt>
      <trkpt lat="45.94139" lon="3.68638">
        <ele>1168.1</ele>
        <time>2022-08-29T09:10:15Z</time>
      </trkpt>
      <trkpt lat="45.94137" lon="3.68638">
        <ele>1168.1</ele>
        <time>2022-08-29T09:10:16Z</time>
      </trkpt>
      <trkpt lat="45.94136" lon="3.68638">
        <ele>1168.2</ele>
        <time>2022-08-29T09:10:17Z</time>
      </trkpt>
      <trkpt lat="45.94136" lon="3.68638">
        <ele>1168.2</ele>
        <time>2022-08-29T09:10:18Z</time>
      </trkpt>
      <trkpt lat="45.94135" lon="3.68639">
        <ele>1168.2</ele>
        <time>2022-08-29T09:10:19Z</time>
      </trkpt>
      <trkpt lat="45.94135" lon="3.68641">
        <ele>1168.2</ele>
        <time>2022-08-29T09:10:20Z</time>
      </trkpt>
      <trkpt lat="45.94134" lon="3.68642">
        <ele>1168.3</ele>
        <time>2022-08-29T09:10:21Z</time>
      </trkpt>
      <trkpt lat="45.94133" lon="3.68644">
        <ele>1168.3</ele>
        <time>2022-08-29T09:10:22Z</time>
      </trkpt>
      <trkpt lat="45.94132" lon="3.68645">
        <ele>1168.3</ele>
        <time>2022-08-29T09:10:23Z</time>
      </trkpt>
      <trkpt lat="45.94131" lon="3.68646">
        <ele>1168.3</ele>
        <time>2022-08-29T09:10:24Z</time>
      </trkpt>
      <trkpt lat="45.9413" lon="3.68648">
        <ele>1168.4</ele>
        <time>2022-08-29T09:10:25Z</time>
      </trkpt>
      <trkpt lat="45.94129" lon="3.68649">
        <ele>1168.4</ele>
        <time>2022-08-29T09:10:26Z</time>
      </trkpt>
      <trkpt lat="45.94128" lon="3.68651">
        <ele>1168.4</ele>
        <time>2022-08-29T09:10:27Z</time>
      </trkpt>
      <trkpt lat="45.94128" lon="3.68652">
        <ele>1168.5</ele>
        <time>2022-08-29T09:10:28Z</time>
      </trkpt>
      <trkpt lat="45.94127" lon="3.68653">
        <ele>1168.5</ele>
        <time>2022-08-29T09:10:29Z</time>
      </trkpt>
      <trkpt lat="45.94126" lon="3.68655">
        <ele>1168.5</ele>
        <time>2022-08-29T09:10:30Z</time>
      </trkpt>
      <trkpt lat="45.94125" lon="3.68657">
        <ele>1168.5</ele>
        <time>2022-08-29T09:10:31Z</time>
      </trkpt>
      <trkpt lat="45.94124" lon="3.68659">
        <ele>1168.6</ele>
        <time>2022-08-29T09:10:32Z</time>
      </trkpt>
      <trkpt lat="45.94124" lon="3.68661">
        <ele>1168.6</ele>
        <time>2022-08-29T09:10:33Z</time>
      </trkpt>
      <trkpt lat="45.94122" lon="3.68664">
        <ele>1168.6</ele>
        <time>2022-08-29T09:10:34Z</time>
      </trkpt>
      <trkpt lat="45.94121" lon="3.68665">
        <ele>1168.7</ele>
        <time>2022-08-29T09:10:35Z</time>
      </trkpt>
      <trkpt lat="45.94118" lon="3.68668">
        <ele>1168.7</ele>
        <time>2022-08-29T09:10:36Z</time>
      </trkpt>
      <trkpt lat="45.94117" lon="3.68669">
        <ele>1168.7</ele>
        <time>2022-08-29T09:10:37Z</time>
      </trkpt>
      <trkpt lat="45.94115" lon="3.68673">
        <ele>1168.8</ele>
        <time>2022-08-29T09:10:38Z</time>
      </trkpt>
      <trkpt lat="45.94114" lon="3.68674">
        <ele>1168.8</ele>
        <time>2022-08-29T09:10:39Z</time>
      </trkpt>
      <trkpt lat="45.94112" lon="3.68678">
        <ele>1168.8</ele>
        <time>2022-08-29T09:10:40Z</time>
      </trkpt>
      <trkpt lat="45.94111" lon="3.68679">
        <ele>1168.8</ele>
        <time>2022-08-29T09:10:41Z</time>
      </trkpt>
      <trkpt lat="45.94109" lon="3.68682">
        <ele>1168.8</ele>
        <time>2022-08-29T09:10:42Z</time>
      </trkpt>
      <trkpt lat="45.94108" lon="3.68683">
        <ele>1168.8</ele>
        <time>2022-08-29T09:10:43Z</time>
      </trkpt>
      <trkpt lat="45.94106" lon="3.68685">
        <ele>1168.9</ele>
        <time>2022-08-29T09:10:44Z</time>
      </trkpt>
      <trkpt lat="45.94106" lon="3.68685">
        <ele>1168.9</ele>
        <time>2022-08-29T09:10:45Z</time>
      </trkpt>
      <trkpt lat="45.94105" lon="3.68686">
        <ele>1168.9</ele>
        <time>2022-08-29T09:10:46Z</time>
      </trkpt>
      <trkpt lat="45.94104" lon="3.68687">
        <ele>1168.9</ele>
        <time>2022-08-29T09:10:47Z</time>
      </trkpt>
      <trkpt lat="45.94103" lon="3.68689">
        <ele>1168.9</ele>
        <time>2022-08-29T09:10:48Z</time>
      </trkpt>
      <trkpt lat="45.94102" lon="3.6869">
        <ele>1168.9</ele>
        <time>2022-08-29T09:10:49Z</time>
      </trkpt>
      <trkpt lat="45.94101" lon="3.68692">
        <ele>1168.9</ele>
        <time>2022-08-29T09:10:50Z</time>
      </trkpt>
      <trkpt lat="45.941" lon="3.68693">
        <ele>1168.9</ele>
        <time>2022-08-29T09:10:51Z</time>
      </trkpt>
      <trkpt lat="45.94099" lon="3.68695">
        <ele>1169</ele>
        <time>2022-08-29T09:10:52Z</time>
      </trkpt>
      <trkpt lat="45.94098" lon="3.68699">
        <ele>1169</ele>
        <time>2022-08-29T09:10:53Z</time>
      </trkpt>
      <trkpt lat="45.94097" lon="3.687">
        <ele>1169</ele>
        <time>2022-08-29T09:10:54Z</time>
      </trkpt>
      <trkpt lat="45.94096" lon="3.68703">
        <ele>1169</ele>
        <time>2022-08-29T09:10:55Z</time>
      </trkpt>
      <trkpt lat="45.94095" lon="3.68705">
        <ele>1169</ele>
        <time>2022-08-29T09:10:56Z</time>
      </trkpt>
      <trkpt lat="45.94095" lon="3.68707">
        <ele>1169</ele>
        <time>2022-08-29T09:10:57Z</time>
      </trkpt>
      <trkpt lat="45.94094" lon="3.68708">
        <ele>1169.1</ele>
        <time>2022-08-29T09:10:58Z</time>
      </trkpt>
      <trkpt lat="45.94094" lon="3.6871">
        <ele>1169.1</ele>
        <time>2022-08-29T09:10:59Z</time>
      </trkpt>
      <trkpt lat="45.94093" lon="3.6871">
        <ele>1169.1</ele>
        <time>2022-08-29T09:11:00Z</time>
      </trkpt>
      <trkpt lat="45.94092" lon="3.68711">
        <ele>1169.1</ele>
        <time>2022-08-29T09:11:01Z</time>
      </trkpt>
      <trkpt lat="45.94091" lon="3.68714">
        <ele>1169.1</ele>
        <time>2022-08-29T09:11:02Z</time>
      </trkpt>
      <trkpt lat="45.9409" lon="3.68716">
        <ele>1169.1</ele>
        <time>2022-08-29T09:11:03Z</time>
      </trkpt>
      <trkpt lat="45.9409" lon="3.68717">
        <ele>1169.1</ele>
        <time>2022-08-29T09:11:04Z</time>
      </trkpt>
      <trkpt lat="45.94089" lon="3.6872">
        <ele>1169.2</ele>
        <time>2022-08-29T09:11:05Z</time>
      </trkpt>
      <trkpt lat="45.94089" lon="3.68722">
        <ele>1169.2</ele>
        <time>2022-08-29T09:11:06Z</time>
      </trkpt>
      <trkpt lat="45.94089" lon="3.68724">
        <ele>1169.2</ele>
        <time>2022-08-29T09:11:07Z</time>
      </trkpt>
      <trkpt lat="45.94088" lon="3.68726">
        <ele>1169.2</ele>
        <time>2022-08-29T09:11:08Z</time>
      </trkpt>
      <trkpt lat="45.94087" lon="3.68728">
        <ele>1169.2</ele>
        <time>2022-08-29T09:11:09Z</time>
      </trkpt>
      <trkpt lat="45.94087" lon="3.68731">
        <ele>1169.2</ele>
        <time>2022-08-29T09:11:10Z</time>
      </trkpt>
      <trkpt lat="45.94086" lon="3.68733">
        <ele>1169.3</ele>
        <time>2022-08-29T09:11:11Z</time>
      </trkpt>
      <trkpt lat="45.94086" lon="3.68736">
        <ele>1169.3</ele>
        <time>2022-08-29T09:11:12Z</time>
      </trkpt>
      <trkpt lat="45.94086" lon="3.68738">
        <ele>1169.3</ele>
        <time>2022-08-29T09:11:13Z</time>
      </trkpt>
      <trkpt lat="45.94086" lon="3.6874">
        <ele>1169.3</ele>
        <time>2022-08-29T09:11:14Z</time>
      </trkpt>
      <trkpt lat="45.94085" lon="3.68743">
        <ele>1169.3</ele>
        <time>2022-08-29T09:11:15Z</time>
      </trkpt>
      <trkpt lat="45.94084" lon="3.68744">
        <ele>1169.4</ele>
        <time>2022-08-29T09:11:16Z</time>
      </trkpt>
      <trkpt lat="45.94083" lon="3.68745">
        <ele>1169.4</ele>
        <time>2022-08-29T09:11:17Z</time>
      </trkpt>
      <trkpt lat="45.94082" lon="3.68748">
        <ele>1169.4</ele>
        <time>2022-08-29T09:11:18Z</time>
      </trkpt>
      <trkpt lat="45.94081" lon="3.6875">
        <ele>1169.4</ele>
        <time>2022-08-29T09:11:19Z</time>
      </trkpt>
      <trkpt lat="45.94079" lon="3.68753">
        <ele>1169.5</ele>
        <time>2022-08-29T09:11:20Z</time>
      </trkpt>
      <trkpt lat="45.94079" lon="3.68755">
        <ele>1169.5</ele>
        <time>2022-08-29T09:11:21Z</time>
      </trkpt>
      <trkpt lat="45.94077" lon="3.68759">
        <ele>1169.6</ele>
        <time>2022-08-29T09:11:22Z</time>
      </trkpt>
      <trkpt lat="45.94077" lon="3.6876">
        <ele>1169.6</ele>
        <time>2022-08-29T09:11:23Z</time>
      </trkpt>
      <trkpt lat="45.94076" lon="3.68762">
        <ele>1169.6</ele>
        <time>2022-08-29T09:11:24Z</time>
      </trkpt>
      <trkpt lat="45.94075" lon="3.68764">
        <ele>1169.6</ele>
        <time>2022-08-29T09:11:25Z</time>
      </trkpt>
      <trkpt lat="45.94075" lon="3.68767">
        <ele>1169.6</ele>
        <time>2022-08-29T09:11:26Z</time>
      </trkpt>
      <trkpt lat="45.94074" lon="3.68768">
        <ele>1169.7</ele>
        <time>2022-08-29T09:11:27Z</time>
      </trkpt>
      <trkpt lat="45.94074" lon="3.68769">
        <ele>1169.7</ele>
        <time>2022-08-29T09:11:28Z</time>
      </trkpt>
      <trkpt lat="45.94073" lon="3.68771">
        <ele>1169.7</ele>
        <time>2022-08-29T09:11:29Z</time>
      </trkpt>
      <trkpt lat="45.94073" lon="3.68772">
        <ele>1169.7</ele>
        <time>2022-08-29T09:11:30Z</time>
      </trkpt>
      <trkpt lat="45.94072" lon="3.68773">
        <ele>1169.7</ele>
        <time>2022-08-29T09:11:31Z</time>
      </trkpt>
      <trkpt lat="45.94071" lon="3.68774">
        <ele>1169.7</ele>
        <time>2022-08-29T09:11:32Z</time>
      </trkpt>
      <trkpt lat="45.94071" lon="3.68775">
        <ele>1169.8</ele>
        <time>2022-08-29T09:11:33Z</time>
      </trkpt>
      <trkpt lat="45.9407" lon="3.68776">
        <ele>1169.8</ele>
        <time>2022-08-29T09:11:34Z</time>
      </trkpt>
      <trkpt lat="45.9407" lon="3.68777">
        <ele>1169.8</ele>
        <time>2022-08-29T09:11:35Z</time>
      </trkpt>
      <trkpt lat="45.94069" lon="3.68779">
        <ele>1169.8</ele>
        <time>2022-08-29T09:11:36Z</time>
      </trkpt>
      <trkpt lat="45.94068" lon="3.6878">
        <ele>1169.8</ele>
        <time>2022-08-29T09:11:37Z</time>
      </trkpt>
      <trkpt lat="45.94068" lon="3.68782">
        <ele>1169.8</ele>
        <time>2022-08-29T09:11:38Z</time>
      </trkpt>
      <trkpt lat="45.94067" lon="3.68784">
        <ele>1169.9</ele>
        <time>2022-08-29T09:11:39Z</time>
      </trkpt>
      <trkpt lat="45.94067" lon="3.68785">
        <ele>1169.9</ele>
        <time>2022-08-29T09:11:40Z</time>
      </trkpt>
      <trkpt lat="45.94067" lon="3.68787">
        <ele>1169.9</ele>
        <time>2022-08-29T09:11:41Z</time>
      </trkpt>
      <trkpt lat="45.94067" lon="3.68788">
        <ele>1169.9</ele>
        <time>2022-08-29T09:11:42Z</time>
      </trkpt>
      <trkpt lat="45.94066" lon="3.6879">
        <ele>1169.9</ele>
        <time>2022-08-29T09:11:43Z</time>
      </trkpt>
      <trkpt lat="45.94065" lon="3.68791">
        <ele>1169.9</ele>
        <time>2022-08-29T09:11:44Z</time>
      </trkpt>
      <trkpt lat="45.94065" lon="3.68791">
        <ele>1169.9</ele>
        <time>2022-08-29T09:11:45Z</time>
      </trkpt>
      <trkpt lat="45.94064" lon="3.68791">
        <ele>1170</ele>
        <time>2022-08-29T09:11:46Z</time>
      </trkpt>
      <trkpt lat="45.94063" lon="3.68791">
        <ele>1170</ele>
        <time>2022-08-29T09:11:47Z</time>
      </trkpt>
      <trkpt lat="45.94062" lon="3.68792">
        <ele>1170</ele>
        <time>2022-08-29T09:11:48Z</time>
      </trkpt>
      <trkpt lat="45.94061" lon="3.68793">
        <ele>1170</ele>
        <time>2022-08-29T09:11:49Z</time>
      </trkpt>
      <trkpt lat="45.9406" lon="3.68793">
        <ele>1170</ele>
        <time>2022-08-29T09:11:50Z</time>
      </trkpt>
      <trkpt lat="45.94059" lon="3.68794">
        <ele>1170</ele>
        <time>2022-08-29T09:11:51Z</time>
      </trkpt>
      <trkpt lat="45.94057" lon="3.68797">
        <ele>1170.1</ele>
        <time>2022-08-29T09:11:52Z</time>
      </trkpt>
      <trkpt lat="45.94056" lon="3.68799">
        <ele>1170.1</ele>
        <time>2022-08-29T09:11:53Z</time>
      </trkpt>
      <trkpt lat="45.94053" lon="3.68801">
        <ele>1170.2</ele>
        <time>2022-08-29T09:11:54Z</time>
      </trkpt>
      <trkpt lat="45.9405" lon="3.68805">
        <ele>1170.2</ele>
        <time>2022-08-29T09:11:55Z</time>
      </trkpt>
      <trkpt lat="45.94049" lon="3.68806">
        <ele>1170.3</ele>
        <time>2022-08-29T09:11:56Z</time>
      </trkpt>
      <trkpt lat="45.94047" lon="3.6881">
        <ele>1170.3</ele>
        <time>2022-08-29T09:11:57Z</time>
      </trkpt>
      <trkpt lat="45.94046" lon="3.68811">
        <ele>1170.3</ele>
        <time>2022-08-29T09:11:58Z</time>
      </trkpt>
      <trkpt lat="45.94044" lon="3.68815">
        <ele>1170.4</ele>
        <time>2022-08-29T09:11:59Z</time>
      </trkpt>
      <trkpt lat="45.94043" lon="3.68816">
        <ele>1170.4</ele>
        <time>2022-08-29T09:12:00Z</time>
      </trkpt>
      <trkpt lat="45.94042" lon="3.68818">
        <ele>1170.4</ele>
        <time>2022-08-29T09:12:01Z</time>
      </trkpt>
      <trkpt lat="45.94041" lon="3.68819">
        <ele>1170.5</ele>
        <time>2022-08-29T09:12:02Z</time>
      </trkpt>
      <trkpt lat="45.9404" lon="3.6882">
        <ele>1170.5</ele>
        <time>2022-08-29T09:12:03Z</time>
      </trkpt>
      <trkpt lat="45.94039" lon="3.68821">
        <ele>1170.5</ele>
        <time>2022-08-29T09:12:04Z</time>
      </trkpt>
      <trkpt lat="45.94038" lon="3.68822">
        <ele>1170.5</ele>
        <time>2022-08-29T09:12:05Z</time>
      </trkpt>
      <trkpt lat="45.94037" lon="3.68824">
        <ele>1170.5</ele>
        <time>2022-08-29T09:12:06Z</time>
      </trkpt>
      <trkpt lat="45.94035" lon="3.68824">
        <ele>1170.5</ele>
        <time>2022-08-29T09:12:07Z</time>
      </trkpt>
      <trkpt lat="45.94033" lon="3.68825">
        <ele>1170.6</ele>
        <time>2022-08-29T09:12:08Z</time>
      </trkpt>
      <trkpt lat="45.94032" lon="3.68825">
        <ele>1170.6</ele>
        <time>2022-08-29T09:12:09Z</time>
      </trkpt>
      <trkpt lat="45.94028" lon="3.68826">
        <ele>1170.6</ele>
        <time>2022-08-29T09:12:10Z</time>
      </trkpt>
      <trkpt lat="45.94027" lon="3.68826">
        <ele>1170.6</ele>
        <time>2022-08-29T09:12:11Z</time>
      </trkpt>
      <trkpt lat="45.94024" lon="3.68828">
        <ele>1170.7</ele>
        <time>2022-08-29T09:12:12Z</time>
      </trkpt>
      <trkpt lat="45.94023" lon="3.68828">
        <ele>1170.7</ele>
        <time>2022-08-29T09:12:13Z</time>
      </trkpt>
      <trkpt lat="45.94022" lon="3.68829">
        <ele>1170.7</ele>
        <time>2022-08-29T09:12:14Z</time>
      </trkpt>
      <trkpt lat="45.9402" lon="3.6883">
        <ele>1170.7</ele>
        <time>2022-08-29T09:12:15Z</time>
      </trkpt>
      <trkpt lat="45.94019" lon="3.68831">
        <ele>1170.7</ele>
        <time>2022-08-29T09:12:16Z</time>
      </trkpt>
      <trkpt lat="45.94018" lon="3.68832">
        <ele>1170.8</ele>
        <time>2022-08-29T09:12:17Z</time>
      </trkpt>
      <trkpt lat="45.94017" lon="3.68834">
        <ele>1170.8</ele>
        <time>2022-08-29T09:12:18Z</time>
      </trkpt>
      <trkpt lat="45.94016" lon="3.68835">
        <ele>1170.8</ele>
        <time>2022-08-29T09:12:19Z</time>
      </trkpt>
      <trkpt lat="45.94015" lon="3.68836">
        <ele>1170.8</ele>
        <time>2022-08-29T09:12:20Z</time>
      </trkpt>
      <trkpt lat="45.94014" lon="3.68837">
        <ele>1170.8</ele>
        <time>2022-08-29T09:12:21Z</time>
      </trkpt>
      <trkpt lat="45.94013" lon="3.68837">
        <ele>1170.9</ele>
        <time>2022-08-29T09:12:22Z</time>
      </trkpt>
      <trkpt lat="45.94011" lon="3.68838">
        <ele>1170.9</ele>
        <time>2022-08-29T09:12:23Z</time>
      </trkpt>
      <trkpt lat="45.9401" lon="3.68839">
        <ele>1170.9</ele>
        <time>2022-08-29T09:12:24Z</time>
      </trkpt>
      <trkpt lat="45.9401" lon="3.6884">
        <ele>1170.9</ele>
        <time>2022-08-29T09:12:25Z</time>
      </trkpt>
      <trkpt lat="45.94008" lon="3.68841">
        <ele>1170.9</ele>
        <time>2022-08-29T09:12:26Z</time>
      </trkpt>
      <trkpt lat="45.94007" lon="3.68842">
        <ele>1170.9</ele>
        <time>2022-08-29T09:12:27Z</time>
      </trkpt>
      <trkpt lat="45.94006" lon="3.68843">
        <ele>1171</ele>
        <time>2022-08-29T09:12:28Z</time>
      </trkpt>
      <trkpt lat="45.94005" lon="3.68843">
        <ele>1171</ele>
        <time>2022-08-29T09:12:29Z</time>
      </trkpt>
      <trkpt lat="45.94004" lon="3.68844">
        <ele>1171</ele>
        <time>2022-08-29T09:12:30Z</time>
      </trkpt>
      <trkpt lat="45.94002" lon="3.68844">
        <ele>1171</ele>
        <time>2022-08-29T09:12:31Z</time>
      </trkpt>
      <trkpt lat="45.94001" lon="3.68844">
        <ele>1171</ele>
        <time>2022-08-29T09:12:32Z</time>
      </trkpt>
      <trkpt lat="45.94" lon="3.68844">
        <ele>1171.1</ele>
        <time>2022-08-29T09:12:33Z</time>
      </trkpt>
      <trkpt lat="45.93998" lon="3.68845">
        <ele>1171.1</ele>
        <time>2022-08-29T09:12:34Z</time>
      </trkpt>
      <trkpt lat="45.93996" lon="3.68846">
        <ele>1171.1</ele>
        <time>2022-08-29T09:12:36Z</time>
      </trkpt>
      <trkpt lat="45.93995" lon="3.68846">
        <ele>1171.2</ele>
        <time>2022-08-29T09:12:37Z</time>
      </trkpt>
      <trkpt lat="45.93994" lon="3.68847">
        <ele>1171.2</ele>
        <time>2022-08-29T09:12:38Z</time>
      </trkpt>
      <trkpt lat="45.93992" lon="3.68848">
        <ele>1171.2</ele>
        <time>2022-08-29T09:12:39Z</time>
      </trkpt>
      <trkpt lat="45.93991" lon="3.68848">
        <ele>1171.2</ele>
        <time>2022-08-29T09:12:40Z</time>
      </trkpt>
      <trkpt lat="45.93989" lon="3.68849">
        <ele>1171.3</ele>
        <time>2022-08-29T09:12:41Z</time>
      </trkpt>
      <trkpt lat="45.93988" lon="3.68849">
        <ele>1171.3</ele>
        <time>2022-08-29T09:12:42Z</time>
      </trkpt>
      <trkpt lat="45.93987" lon="3.68849">
        <ele>1171.3</ele>
        <time>2022-08-29T09:12:43Z</time>
      </trkpt>
      <trkpt lat="45.93986" lon="3.6885">
        <ele>1171.3</ele>
        <time>2022-08-29T09:12:44Z</time>
      </trkpt>
      <trkpt lat="45.93985" lon="3.68851">
        <ele>1171.4</ele>
        <time>2022-08-29T09:12:45Z</time>
      </trkpt>
      <trkpt lat="45.93983" lon="3.68852">
        <ele>1171.4</ele>
        <time>2022-08-29T09:12:46Z</time>
      </trkpt>
      <trkpt lat="45.93982" lon="3.68853">
        <ele>1171.4</ele>
        <time>2022-08-29T09:12:47Z</time>
      </trkpt>
      <trkpt lat="45.9398" lon="3.68855">
        <ele>1171.5</ele>
        <time>2022-08-29T09:12:48Z</time>
      </trkpt>
      <trkpt lat="45.93979" lon="3.68856">
        <ele>1171.5</ele>
        <time>2022-08-29T09:12:49Z</time>
      </trkpt>
      <trkpt lat="45.93976" lon="3.68858">
        <ele>1171.6</ele>
        <time>2022-08-29T09:12:51Z</time>
      </trkpt>
      <trkpt lat="45.93974" lon="3.68858">
        <ele>1171.6</ele>
        <time>2022-08-29T09:12:52Z</time>
      </trkpt>
      <trkpt lat="45.93973" lon="3.68859">
        <ele>1171.6</ele>
        <time>2022-08-29T09:12:53Z</time>
      </trkpt>
      <trkpt lat="45.93972" lon="3.6886">
        <ele>1171.7</ele>
        <time>2022-08-29T09:12:54Z</time>
      </trkpt>
      <trkpt lat="45.93971" lon="3.68861">
        <ele>1171.7</ele>
        <time>2022-08-29T09:12:55Z</time>
      </trkpt>
      <trkpt lat="45.9397" lon="3.68861">
        <ele>1171.7</ele>
        <time>2022-08-29T09:12:56Z</time>
      </trkpt>
      <trkpt lat="45.93968" lon="3.68862">
        <ele>1171.8</ele>
        <time>2022-08-29T09:12:57Z</time>
      </trkpt>
      <trkpt lat="45.93967" lon="3.68863">
        <ele>1171.8</ele>
        <time>2022-08-29T09:12:58Z</time>
      </trkpt>
      <trkpt lat="45.93966" lon="3.68863">
        <ele>1171.8</ele>
        <time>2022-08-29T09:12:59Z</time>
      </trkpt>
      <trkpt lat="45.93964" lon="3.68864">
        <ele>1171.9</ele>
        <time>2022-08-29T09:13:00Z</time>
      </trkpt>
      <trkpt lat="45.93963" lon="3.68865">
        <ele>1171.9</ele>
        <time>2022-08-29T09:13:01Z</time>
      </trkpt>
      <trkpt lat="45.93962" lon="3.68865">
        <ele>1172</ele>
        <time>2022-08-29T09:13:02Z</time>
      </trkpt>
      <trkpt lat="45.93961" lon="3.68865">
        <ele>1172</ele>
        <time>2022-08-29T09:13:03Z</time>
      </trkpt>
      <trkpt lat="45.9396" lon="3.68865">
        <ele>1172</ele>
        <time>2022-08-29T09:13:04Z</time>
      </trkpt>
      <trkpt lat="45.93958" lon="3.68865">
        <ele>1172.1</ele>
        <time>2022-08-29T09:13:05Z</time>
      </trkpt>
      <trkpt lat="45.93957" lon="3.68865">
        <ele>1172.1</ele>
        <time>2022-08-29T09:13:06Z</time>
      </trkpt>
      <trkpt lat="45.93956" lon="3.68866">
        <ele>1172.1</ele>
        <time>2022-08-29T09:13:07Z</time>
      </trkpt>
      <trkpt lat="45.93954" lon="3.68867">
        <ele>1172.2</ele>
        <time>2022-08-29T09:13:08Z</time>
      </trkpt>
      <trkpt lat="45.93954" lon="3.68868">
        <ele>1172.2</ele>
        <time>2022-08-29T09:13:09Z</time>
      </trkpt>
      <trkpt lat="45.93953" lon="3.68868">
        <ele>1172.3</ele>
        <time>2022-08-29T09:13:10Z</time>
      </trkpt>
      <trkpt lat="45.93952" lon="3.68869">
        <ele>1172.3</ele>
        <time>2022-08-29T09:13:11Z</time>
      </trkpt>
      <trkpt lat="45.9395" lon="3.6887">
        <ele>1172.3</ele>
        <time>2022-08-29T09:13:12Z</time>
      </trkpt>
      <trkpt lat="45.93949" lon="3.68871">
        <ele>1172.4</ele>
        <time>2022-08-29T09:13:13Z</time>
      </trkpt>
      <trkpt lat="45.93948" lon="3.68872">
        <ele>1172.5</ele>
        <time>2022-08-29T09:13:14Z</time>
      </trkpt>
      <trkpt lat="45.93946" lon="3.68873">
        <ele>1172.5</ele>
        <time>2022-08-29T09:13:15Z</time>
      </trkpt>
      <trkpt lat="45.93945" lon="3.68874">
        <ele>1172.6</ele>
        <time>2022-08-29T09:13:16Z</time>
      </trkpt>
      <trkpt lat="45.93943" lon="3.68875">
        <ele>1172.6</ele>
        <time>2022-08-29T09:13:17Z</time>
      </trkpt>
      <trkpt lat="45.93942" lon="3.68875">
        <ele>1172.7</ele>
        <time>2022-08-29T09:13:18Z</time>
      </trkpt>
      <trkpt lat="45.93941" lon="3.68876">
        <ele>1172.7</ele>
        <time>2022-08-29T09:13:19Z</time>
      </trkpt>
      <trkpt lat="45.9394" lon="3.68877">
        <ele>1172.7</ele>
        <time>2022-08-29T09:13:20Z</time>
      </trkpt>
      <trkpt lat="45.9394" lon="3.68878">
        <ele>1172.8</ele>
        <time>2022-08-29T09:13:21Z</time>
      </trkpt>
      <trkpt lat="45.93938" lon="3.68879">
        <ele>1172.9</ele>
        <time>2022-08-29T09:13:22Z</time>
      </trkpt>
      <trkpt lat="45.93937" lon="3.6888">
        <ele>1172.9</ele>
        <time>2022-08-29T09:13:23Z</time>
      </trkpt>
      <trkpt lat="45.93936" lon="3.6888">
        <ele>1172.9</ele>
        <time>2022-08-29T09:13:24Z</time>
      </trkpt>
      <trkpt lat="45.93935" lon="3.68881">
        <ele>1173</ele>
        <time>2022-08-29T09:13:25Z</time>
      </trkpt>
      <trkpt lat="45.93934" lon="3.68882">
        <ele>1173.1</ele>
        <time>2022-08-29T09:13:26Z</time>
      </trkpt>
      <trkpt lat="45.93932" lon="3.68883">
        <ele>1173.2</ele>
        <time>2022-08-29T09:13:27Z</time>
      </trkpt>
      <trkpt lat="45.93931" lon="3.68883">
        <ele>1173.2</ele>
        <time>2022-08-29T09:13:28Z</time>
      </trkpt>
      <trkpt lat="45.9393" lon="3.68883">
        <ele>1173.3</ele>
        <time>2022-08-29T09:13:29Z</time>
      </trkpt>
      <trkpt lat="45.93929" lon="3.68883">
        <ele>1173.3</ele>
        <time>2022-08-29T09:13:30Z</time>
      </trkpt>
      <trkpt lat="45.93928" lon="3.68883">
        <ele>1173.4</ele>
        <time>2022-08-29T09:13:31Z</time>
      </trkpt>
      <trkpt lat="45.93927" lon="3.68883">
        <ele>1173.4</ele>
        <time>2022-08-29T09:13:32Z</time>
      </trkpt>
      <trkpt lat="45.93925" lon="3.68883">
        <ele>1173.5</ele>
        <time>2022-08-29T09:13:33Z</time>
      </trkpt>
      <trkpt lat="45.93924" lon="3.68882">
        <ele>1173.6</ele>
        <time>2022-08-29T09:13:34Z</time>
      </trkpt>
      <trkpt lat="45.9392" lon="3.68883">
        <ele>1173.8</ele>
        <time>2022-08-29T09:13:35Z</time>
      </trkpt>
      <trkpt lat="45.93919" lon="3.68884">
        <ele>1173.9</ele>
        <time>2022-08-29T09:13:36Z</time>
      </trkpt>
      <trkpt lat="45.93916" lon="3.68885">
        <ele>1174.1</ele>
        <time>2022-08-29T09:13:37Z</time>
      </trkpt>
      <trkpt lat="45.93915" lon="3.68885">
        <ele>1174.1</ele>
        <time>2022-08-29T09:13:38Z</time>
      </trkpt>
      <trkpt lat="45.93914" lon="3.68886">
        <ele>1174.2</ele>
        <time>2022-08-29T09:13:39Z</time>
      </trkpt>
      <trkpt lat="45.93913" lon="3.68886">
        <ele>1174.2</ele>
        <time>2022-08-29T09:13:40Z</time>
      </trkpt>
      <trkpt lat="45.93912" lon="3.68887">
        <ele>1174.3</ele>
        <time>2022-08-29T09:13:41Z</time>
      </trkpt>
      <trkpt lat="45.93911" lon="3.68888">
        <ele>1174.4</ele>
        <time>2022-08-29T09:13:42Z</time>
      </trkpt>
      <trkpt lat="45.93909" lon="3.68889">
        <ele>1174.5</ele>
        <time>2022-08-29T09:13:43Z</time>
      </trkpt>
      <trkpt lat="45.93908" lon="3.6889">
        <ele>1174.6</ele>
        <time>2022-08-29T09:13:44Z</time>
      </trkpt>
      <trkpt lat="45.93906" lon="3.68891">
        <ele>1174.7</ele>
        <time>2022-08-29T09:13:45Z</time>
      </trkpt>
      <trkpt lat="45.93904" lon="3.68892">
        <ele>1174.9</ele>
        <time>2022-08-29T09:13:46Z</time>
      </trkpt>
      <trkpt lat="45.93903" lon="3.68892">
        <ele>1175</ele>
        <time>2022-08-29T09:13:47Z</time>
      </trkpt>
      <trkpt lat="45.93902" lon="3.68893">
        <ele>1175.1</ele>
        <time>2022-08-29T09:13:48Z</time>
      </trkpt>
      <trkpt lat="45.93901" lon="3.68892">
        <ele>1175.1</ele>
        <time>2022-08-29T09:13:49Z</time>
      </trkpt>
      <trkpt lat="45.93901" lon="3.68892">
        <ele>1175.1</ele>
        <time>2022-08-29T09:13:50Z</time>
      </trkpt>
      <trkpt lat="45.93902" lon="3.68892">
        <ele>1175.1</ele>
        <time>2022-08-29T09:13:51Z</time>
      </trkpt>
      <trkpt lat="45.93902" lon="3.68891">
        <ele>1175.2</ele>
        <time>2022-08-29T09:13:52Z</time>
      </trkpt>
      <trkpt lat="45.93903" lon="3.68891">
        <ele>1175.2</ele>
        <time>2022-08-29T09:13:53Z</time>
      </trkpt>
      <trkpt lat="45.93901" lon="3.68891">
        <ele>1175.4</ele>
        <time>2022-08-29T09:13:54Z</time>
      </trkpt>
      <trkpt lat="45.939" lon="3.68891">
        <ele>1175.5</ele>
        <time>2022-08-29T09:13:55Z</time>
      </trkpt>
      <trkpt lat="45.93899" lon="3.68891">
        <ele>1175.5</ele>
        <time>2022-08-29T09:13:56Z</time>
      </trkpt>
      <trkpt lat="45.93898" lon="3.68891">
        <ele>1175.6</ele>
        <time>2022-08-29T09:13:57Z</time>
      </trkpt>
      <trkpt lat="45.93897" lon="3.68891">
        <ele>1175.7</ele>
        <time>2022-08-29T09:13:58Z</time>
      </trkpt>
      <trkpt lat="45.93897" lon="3.68891">
        <ele>1175.7</ele>
        <time>2022-08-29T09:13:59Z</time>
      </trkpt>
      <trkpt lat="45.93896" lon="3.68891">
        <ele>1175.8</ele>
        <time>2022-08-29T09:14:00Z</time>
      </trkpt>
      <trkpt lat="45.93895" lon="3.68892">
        <ele>1175.9</ele>
        <time>2022-08-29T09:14:01Z</time>
      </trkpt>
      <trkpt lat="45.93894" lon="3.68892">
        <ele>1176</ele>
        <time>2022-08-29T09:14:02Z</time>
      </trkpt>
      <trkpt lat="45.93892" lon="3.68894">
        <ele>1176.1</ele>
        <time>2022-08-29T09:14:03Z</time>
      </trkpt>
      <trkpt lat="45.93891" lon="3.68894">
        <ele>1176.2</ele>
        <time>2022-08-29T09:14:04Z</time>
      </trkpt>
      <trkpt lat="45.9389" lon="3.68895">
        <ele>1176.3</ele>
        <time>2022-08-29T09:14:05Z</time>
      </trkpt>
      <trkpt lat="45.9389" lon="3.68895">
        <ele>1176.3</ele>
        <time>2022-08-29T09:14:06Z</time>
      </trkpt>
      <trkpt lat="45.9389" lon="3.68895">
        <ele>1176.4</ele>
        <time>2022-08-29T09:14:07Z</time>
      </trkpt>
      <trkpt lat="45.93889" lon="3.68895">
        <ele>1176.4</ele>
        <time>2022-08-29T09:14:08Z</time>
      </trkpt>
      <trkpt lat="45.93888" lon="3.68896">
        <ele>1176.5</ele>
        <time>2022-08-29T09:14:09Z</time>
      </trkpt>
      <trkpt lat="45.93886" lon="3.68897">
        <ele>1176.7</ele>
        <time>2022-08-29T09:14:10Z</time>
      </trkpt>
      <trkpt lat="45.93885" lon="3.68897">
        <ele>1176.8</ele>
        <time>2022-08-29T09:14:11Z</time>
      </trkpt>
      <trkpt lat="45.93884" lon="3.68898">
        <ele>1176.8</ele>
        <time>2022-08-29T09:14:12Z</time>
      </trkpt>
      <trkpt lat="45.93882" lon="3.68899">
        <ele>1177</ele>
        <time>2022-08-29T09:14:13Z</time>
      </trkpt>
      <trkpt lat="45.93882" lon="3.68899">
        <ele>1177.1</ele>
        <time>2022-08-29T09:14:14Z</time>
      </trkpt>
      <trkpt lat="45.93881" lon="3.689">
        <ele>1177.2</ele>
        <time>2022-08-29T09:14:15Z</time>
      </trkpt>
      <trkpt lat="45.93879" lon="3.689">
        <ele>1177.3</ele>
        <time>2022-08-29T09:14:16Z</time>
      </trkpt>
      <trkpt lat="45.93878" lon="3.68901">
        <ele>1177.5</ele>
        <time>2022-08-29T09:14:17Z</time>
      </trkpt>
      <trkpt lat="45.93876" lon="3.68903">
        <ele>1177.6</ele>
        <time>2022-08-29T09:14:18Z</time>
      </trkpt>
      <trkpt lat="45.93876" lon="3.68904">
        <ele>1177.7</ele>
        <time>2022-08-29T09:14:19Z</time>
      </trkpt>
      <trkpt lat="45.93875" lon="3.68904">
        <ele>1177.8</ele>
        <time>2022-08-29T09:14:20Z</time>
      </trkpt>
      <trkpt lat="45.93873" lon="3.68905">
        <ele>1178</ele>
        <time>2022-08-29T09:14:21Z</time>
      </trkpt>
      <trkpt lat="45.93872" lon="3.68905">
        <ele>1178.1</ele>
        <time>2022-08-29T09:14:22Z</time>
      </trkpt>
      <trkpt lat="45.93871" lon="3.68905">
        <ele>1178.2</ele>
        <time>2022-08-29T09:14:23Z</time>
      </trkpt>
      <trkpt lat="45.93869" lon="3.68906">
        <ele>1178.4</ele>
        <time>2022-08-29T09:14:24Z</time>
      </trkpt>
      <trkpt lat="45.93868" lon="3.68906">
        <ele>1178.4</ele>
        <time>2022-08-29T09:14:25Z</time>
      </trkpt>
      <trkpt lat="45.93867" lon="3.68906">
        <ele>1178.5</ele>
        <time>2022-08-29T09:14:26Z</time>
      </trkpt>
      <trkpt lat="45.93866" lon="3.68907">
        <ele>1178.7</ele>
        <time>2022-08-29T09:14:27Z</time>
      </trkpt>
      <trkpt lat="45.93865" lon="3.68908">
        <ele>1178.8</ele>
        <time>2022-08-29T09:14:28Z</time>
      </trkpt>
      <trkpt lat="45.93863" lon="3.68909">
        <ele>1179</ele>
        <time>2022-08-29T09:14:29Z</time>
      </trkpt>
      <trkpt lat="45.93862" lon="3.6891">
        <ele>1179.1</ele>
        <time>2022-08-29T09:14:30Z</time>
      </trkpt>
      <trkpt lat="45.9386" lon="3.68911">
        <ele>1179.3</ele>
        <time>2022-08-29T09:14:31Z</time>
      </trkpt>
      <trkpt lat="45.93859" lon="3.68912">
        <ele>1179.4</ele>
        <time>2022-08-29T09:14:32Z</time>
      </trkpt>
      <trkpt lat="45.93858" lon="3.68912">
        <ele>1179.5</ele>
        <time>2022-08-29T09:14:33Z</time>
      </trkpt>
      <trkpt lat="45.93857" lon="3.68913">
        <ele>1179.6</ele>
        <time>2022-08-29T09:14:34Z</time>
      </trkpt>
      <trkpt lat="45.93856" lon="3.68913">
        <ele>1179.8</ele>
        <time>2022-08-29T09:14:35Z</time>
      </trkpt>
      <trkpt lat="45.93855" lon="3.68913">
        <ele>1179.9</ele>
        <time>2022-08-29T09:14:36Z</time>
      </trkpt>
      <trkpt lat="45.93854" lon="3.68913">
        <ele>1179.9</ele>
        <time>2022-08-29T09:14:37Z</time>
      </trkpt>
      <trkpt lat="45.93853" lon="3.68914">
        <ele>1180</ele>
        <time>2022-08-29T09:14:38Z</time>
      </trkpt>
      <trkpt lat="45.93852" lon="3.68914">
        <ele>1180.1</ele>
        <time>2022-08-29T09:14:39Z</time>
      </trkpt>
      <trkpt lat="45.93851" lon="3.68914">
        <ele>1180.2</ele>
        <time>2022-08-29T09:14:40Z</time>
      </trkpt>
      <trkpt lat="45.9385" lon="3.68915">
        <ele>1180.3</ele>
        <time>2022-08-29T09:14:41Z</time>
      </trkpt>
      <trkpt lat="45.93849" lon="3.68916">
        <ele>1180.4</ele>
        <time>2022-08-29T09:14:42Z</time>
      </trkpt>
      <trkpt lat="45.93848" lon="3.68918">
        <ele>1180.6</ele>
        <time>2022-08-29T09:14:43Z</time>
      </trkpt>
      <trkpt lat="45.93847" lon="3.68919">
        <ele>1180.7</ele>
        <time>2022-08-29T09:14:44Z</time>
      </trkpt>
      <trkpt lat="45.93847" lon="3.6892">
        <ele>1180.8</ele>
        <time>2022-08-29T09:14:45Z</time>
      </trkpt>
      <trkpt lat="45.93845" lon="3.68922">
        <ele>1180.9</ele>
        <time>2022-08-29T09:14:46Z</time>
      </trkpt>
      <trkpt lat="45.93845" lon="3.68923">
        <ele>1181</ele>
        <time>2022-08-29T09:14:47Z</time>
      </trkpt>
      <trkpt lat="45.93844" lon="3.68923">
        <ele>1181.1</ele>
        <time>2022-08-29T09:14:48Z</time>
      </trkpt>
      <trkpt lat="45.93843" lon="3.68925">
        <ele>1181.2</ele>
        <time>2022-08-29T09:14:49Z</time>
      </trkpt>
      <trkpt lat="45.93842" lon="3.68925">
        <ele>1181.4</ele>
        <time>2022-08-29T09:14:50Z</time>
      </trkpt>
      <trkpt lat="45.9384" lon="3.68926">
        <ele>1181.5</ele>
        <time>2022-08-29T09:14:51Z</time>
      </trkpt>
      <trkpt lat="45.93839" lon="3.68927">
        <ele>1181.6</ele>
        <time>2022-08-29T09:14:52Z</time>
      </trkpt>
      <trkpt lat="45.93837" lon="3.68928">
        <ele>1181.8</ele>
        <time>2022-08-29T09:14:53Z</time>
      </trkpt>
      <trkpt lat="45.93836" lon="3.68929">
        <ele>1181.9</ele>
        <time>2022-08-29T09:14:54Z</time>
      </trkpt>
      <trkpt lat="45.93835" lon="3.68929">
        <ele>1182</ele>
        <time>2022-08-29T09:14:55Z</time>
      </trkpt>
      <trkpt lat="45.93834" lon="3.6893">
        <ele>1182.1</ele>
        <time>2022-08-29T09:14:56Z</time>
      </trkpt>
      <trkpt lat="45.93832" lon="3.68931">
        <ele>1182.3</ele>
        <time>2022-08-29T09:14:57Z</time>
      </trkpt>
      <trkpt lat="45.9383" lon="3.68932">
        <ele>1182.5</ele>
        <time>2022-08-29T09:14:58Z</time>
      </trkpt>
      <trkpt lat="45.93829" lon="3.68932">
        <ele>1182.6</ele>
        <time>2022-08-29T09:14:59Z</time>
      </trkpt>
      <trkpt lat="45.93828" lon="3.68933">
        <ele>1182.7</ele>
        <time>2022-08-29T09:15:00Z</time>
      </trkpt>
      <trkpt lat="45.93826" lon="3.68933">
        <ele>1182.8</ele>
        <time>2022-08-29T09:15:01Z</time>
      </trkpt>
      <trkpt lat="45.93825" lon="3.68934">
        <ele>1182.9</ele>
        <time>2022-08-29T09:15:02Z</time>
      </trkpt>
      <trkpt lat="45.93823" lon="3.68934">
        <ele>1183.1</ele>
        <time>2022-08-29T09:15:03Z</time>
      </trkpt>
      <trkpt lat="45.9382" lon="3.68934">
        <ele>1183.3</ele>
        <time>2022-08-29T09:15:04Z</time>
      </trkpt>
      <trkpt lat="45.93819" lon="3.68935">
        <ele>1183.4</ele>
        <time>2022-08-29T09:15:05Z</time>
      </trkpt>
      <trkpt lat="45.93817" lon="3.68935">
        <ele>1183.5</ele>
        <time>2022-08-29T09:15:06Z</time>
      </trkpt>
      <trkpt lat="45.93816" lon="3.68935">
        <ele>1183.6</ele>
        <time>2022-08-29T09:15:07Z</time>
      </trkpt>
      <trkpt lat="45.93814" lon="3.68935">
        <ele>1183.8</ele>
        <time>2022-08-29T09:15:08Z</time>
      </trkpt>
      <trkpt lat="45.93813" lon="3.68935">
        <ele>1183.9</ele>
        <time>2022-08-29T09:15:09Z</time>
      </trkpt>
      <trkpt lat="45.93811" lon="3.68936">
        <ele>1184</ele>
        <time>2022-08-29T09:15:10Z</time>
      </trkpt>
      <trkpt lat="45.9381" lon="3.68936">
        <ele>1184</ele>
        <time>2022-08-29T09:15:11Z</time>
      </trkpt>
      <trkpt lat="45.93808" lon="3.68937">
        <ele>1184.1</ele>
        <time>2022-08-29T09:15:12Z</time>
      </trkpt>
      <trkpt lat="45.93807" lon="3.68937">
        <ele>1184.1</ele>
        <time>2022-08-29T09:15:13Z</time>
      </trkpt>
      <trkpt lat="45.93806" lon="3.68937">
        <ele>1184.2</ele>
        <time>2022-08-29T09:15:14Z</time>
      </trkpt>
      <trkpt lat="45.93805" lon="3.68936">
        <ele>1184.2</ele>
        <time>2022-08-29T09:15:15Z</time>
      </trkpt>
      <trkpt lat="45.93805" lon="3.68936">
        <ele>1184.2</ele>
        <time>2022-08-29T09:15:16Z</time>
      </trkpt>
      <trkpt lat="45.93805" lon="3.68936">
        <ele>1184.2</ele>
        <time>2022-08-29T09:15:17Z</time>
      </trkpt>
      <trkpt lat="45.93804" lon="3.68935">
        <ele>1184.3</ele>
        <time>2022-08-29T09:15:18Z</time>
      </trkpt>
      <trkpt lat="45.93804" lon="3.68935">
        <ele>1184.3</ele>
        <time>2022-08-29T09:15:19Z</time>
      </trkpt>
      <trkpt lat="45.93804" lon="3.68934">
        <ele>1184.3</ele>
        <time>2022-08-29T09:15:20Z</time>
      </trkpt>
      <trkpt lat="45.93804" lon="3.68935">
        <ele>1184.3</ele>
        <time>2022-08-29T09:15:21Z</time>
      </trkpt>
      <trkpt lat="45.93804" lon="3.68935">
        <ele>1184.3</ele>
        <time>2022-08-29T09:15:22Z</time>
      </trkpt>
      <trkpt lat="45.93803" lon="3.68935">
        <ele>1184.3</ele>
        <time>2022-08-29T09:15:23Z</time>
      </trkpt>
      <trkpt lat="45.93803" lon="3.68935">
        <ele>1184.3</ele>
        <time>2022-08-29T09:15:24Z</time>
      </trkpt>
      <trkpt lat="45.93803" lon="3.68935">
        <ele>1184.3</ele>
        <time>2022-08-29T09:15:25Z</time>
      </trkpt>
      <trkpt lat="45.93803" lon="3.68936">
        <ele>1184.3</ele>
        <time>2022-08-29T09:15:26Z</time>
      </trkpt>
      <trkpt lat="45.93803" lon="3.68936">
        <ele>1184.3</ele>
        <time>2022-08-29T09:15:27Z</time>
      </trkpt>
      <trkpt lat="45.93803" lon="3.68936">
        <ele>1184.3</ele>
        <time>2022-08-29T09:15:28Z</time>
      </trkpt>
      <trkpt lat="45.93803" lon="3.68936">
        <ele>1184.3</ele>
        <time>2022-08-29T09:15:29Z</time>
      </trkpt>
      <trkpt lat="45.93803" lon="3.68936">
        <ele>1184.3</ele>
        <time>2022-08-29T09:15:30Z</time>
      </trkpt>
      <trkpt lat="45.93803" lon="3.68936">
        <ele>1184.3</ele>
        <time>2022-08-29T09:15:31Z</time>
      </trkpt>
      <trkpt lat="45.93802" lon="3.68937">
        <ele>1184.3</ele>
        <time>2022-08-29T09:15:32Z</time>
      </trkpt>
      <trkpt lat="45.93802" lon="3.68937">
        <ele>1184.3</ele>
        <time>2022-08-29T09:15:33Z</time>
      </trkpt>
      <trkpt lat="45.93802" lon="3.68937">
        <ele>1184.3</ele>
        <time>2022-08-29T09:15:34Z</time>
      </trkpt>
      <trkpt lat="45.93802" lon="3.68937">
        <ele>1184.4</ele>
        <time>2022-08-29T09:15:35Z</time>
      </trkpt>
      <trkpt lat="45.93802" lon="3.68937">
        <ele>1184.4</ele>
        <time>2022-08-29T09:15:36Z</time>
      </trkpt>
      <trkpt lat="45.93802" lon="3.68938">
        <ele>1184.4</ele>
        <time>2022-08-29T09:15:37Z</time>
      </trkpt>
      <trkpt lat="45.93802" lon="3.68938">
        <ele>1184.4</ele>
        <time>2022-08-29T09:15:38Z</time>
      </trkpt>
      <trkpt lat="45.93802" lon="3.68938">
        <ele>1184.4</ele>
        <time>2022-08-29T09:15:39Z</time>
      </trkpt>
      <trkpt lat="45.93802" lon="3.68938">
        <ele>1184.4</ele>
        <time>2022-08-29T09:15:40Z</time>
      </trkpt>
      <trkpt lat="45.93802" lon="3.68938">
        <ele>1184.4</ele>
        <time>2022-08-29T09:15:41Z</time>
      </trkpt>
      <trkpt lat="45.93801" lon="3.68939">
        <ele>1184.4</ele>
        <time>2022-08-29T09:15:42Z</time>
      </trkpt>
      <trkpt lat="45.93801" lon="3.68939">
        <ele>1184.4</ele>
        <time>2022-08-29T09:15:43Z</time>
      </trkpt>
      <trkpt lat="45.93801" lon="3.68939">
        <ele>1184.4</ele>
        <time>2022-08-29T09:15:44Z</time>
      </trkpt>
      <trkpt lat="45.938" lon="3.6894">
        <ele>1184.4</ele>
        <time>2022-08-29T09:15:45Z</time>
      </trkpt>
      <trkpt lat="45.93799" lon="3.68942">
        <ele>1184.5</ele>
        <time>2022-08-29T09:15:46Z</time>
      </trkpt>
      <trkpt lat="45.93798" lon="3.68943">
        <ele>1184.5</ele>
        <time>2022-08-29T09:15:47Z</time>
      </trkpt>
      <trkpt lat="45.93797" lon="3.68944">
        <ele>1184.5</ele>
        <time>2022-08-29T09:15:48Z</time>
      </trkpt>
      <trkpt lat="45.93796" lon="3.68945">
        <ele>1184.6</ele>
        <time>2022-08-29T09:15:49Z</time>
      </trkpt>
      <trkpt lat="45.93794" lon="3.68947">
        <ele>1184.6</ele>
        <time>2022-08-29T09:15:50Z</time>
      </trkpt>
      <trkpt lat="45.93793" lon="3.68947">
        <ele>1184.6</ele>
        <time>2022-08-29T09:15:51Z</time>
      </trkpt>
      <trkpt lat="45.9379" lon="3.68949">
        <ele>1184.7</ele>
        <time>2022-08-29T09:15:52Z</time>
      </trkpt>
      <trkpt lat="45.93789" lon="3.6895">
        <ele>1184.7</ele>
        <time>2022-08-29T09:15:53Z</time>
      </trkpt>
      <trkpt lat="45.93786" lon="3.68952">
        <ele>1184.8</ele>
        <time>2022-08-29T09:15:54Z</time>
      </trkpt>
      <trkpt lat="45.93785" lon="3.68953">
        <ele>1184.8</ele>
        <time>2022-08-29T09:15:55Z</time>
      </trkpt>
      <trkpt lat="45.93783" lon="3.68956">
        <ele>1184.9</ele>
        <time>2022-08-29T09:15:56Z</time>
      </trkpt>
      <trkpt lat="45.93782" lon="3.68956">
        <ele>1185</ele>
        <time>2022-08-29T09:15:57Z</time>
      </trkpt>
      <trkpt lat="45.9378" lon="3.68958">
        <ele>1185.1</ele>
        <time>2022-08-29T09:15:58Z</time>
      </trkpt>
      <trkpt lat="45.93779" lon="3.68959">
        <ele>1185.1</ele>
        <time>2022-08-29T09:15:59Z</time>
      </trkpt>
      <trkpt lat="45.93776" lon="3.68961">
        <ele>1185.2</ele>
        <time>2022-08-29T09:16:00Z</time>
      </trkpt>
      <trkpt lat="45.93775" lon="3.68962">
        <ele>1185.3</ele>
        <time>2022-08-29T09:16:01Z</time>
      </trkpt>
      <trkpt lat="45.93774" lon="3.68963">
        <ele>1185.3</ele>
        <time>2022-08-29T09:16:02Z</time>
      </trkpt>
      <trkpt lat="45.93773" lon="3.68965">
        <ele>1185.4</ele>
        <time>2022-08-29T09:16:03Z</time>
      </trkpt>
      <trkpt lat="45.93772" lon="3.68966">
        <ele>1185.4</ele>
        <time>2022-08-29T09:16:04Z</time>
      </trkpt>
      <trkpt lat="45.93772" lon="3.68968">
        <ele>1185.4</ele>
        <time>2022-08-29T09:16:05Z</time>
      </trkpt>
      <trkpt lat="45.93771" lon="3.6897">
        <ele>1185.5</ele>
        <time>2022-08-29T09:16:06Z</time>
      </trkpt>
      <trkpt lat="45.9377" lon="3.68971">
        <ele>1185.5</ele>
        <time>2022-08-29T09:16:07Z</time>
      </trkpt>
      <trkpt lat="45.9377" lon="3.68972">
        <ele>1185.5</ele>
        <time>2022-08-29T09:16:08Z</time>
      </trkpt>
      <trkpt lat="45.93769" lon="3.68973">
        <ele>1185.6</ele>
        <time>2022-08-29T09:16:09Z</time>
      </trkpt>
      <trkpt lat="45.93768" lon="3.68974">
        <ele>1185.6</ele>
        <time>2022-08-29T09:16:10Z</time>
      </trkpt>
      <trkpt lat="45.93767" lon="3.68975">
        <ele>1185.6</ele>
        <time>2022-08-29T09:16:11Z</time>
      </trkpt>
      <trkpt lat="45.93766" lon="3.68975">
        <ele>1185.6</ele>
        <time>2022-08-29T09:16:12Z</time>
      </trkpt>
      <trkpt lat="45.93765" lon="3.68976">
        <ele>1185.7</ele>
        <time>2022-08-29T09:16:13Z</time>
      </trkpt>
      <trkpt lat="45.93765" lon="3.68977">
        <ele>1185.7</ele>
        <time>2022-08-29T09:16:14Z</time>
      </trkpt>
      <trkpt lat="45.93764" lon="3.68978">
        <ele>1185.7</ele>
        <time>2022-08-29T09:16:15Z</time>
      </trkpt>
      <trkpt lat="45.93763" lon="3.68979">
        <ele>1185.7</ele>
        <time>2022-08-29T09:16:16Z</time>
      </trkpt>
      <trkpt lat="45.93763" lon="3.6898">
        <ele>1185.8</ele>
        <time>2022-08-29T09:16:17Z</time>
      </trkpt>
      <trkpt lat="45.93762" lon="3.68981">
        <ele>1185.8</ele>
        <time>2022-08-29T09:16:18Z</time>
      </trkpt>
      <trkpt lat="45.93762" lon="3.68982">
        <ele>1185.8</ele>
        <time>2022-08-29T09:16:19Z</time>
      </trkpt>
      <trkpt lat="45.93761" lon="3.68984">
        <ele>1185.8</ele>
        <time>2022-08-29T09:16:20Z</time>
      </trkpt>
      <trkpt lat="45.93761" lon="3.68985">
        <ele>1185.9</ele>
        <time>2022-08-29T09:16:21Z</time>
      </trkpt>
      <trkpt lat="45.9376" lon="3.68985">
        <ele>1185.9</ele>
        <time>2022-08-29T09:16:22Z</time>
      </trkpt>
      <trkpt lat="45.9376" lon="3.68985">
        <ele>1185.9</ele>
        <time>2022-08-29T09:16:23Z</time>
      </trkpt>
      <trkpt lat="45.9376" lon="3.68986">
        <ele>1185.9</ele>
        <time>2022-08-29T09:16:24Z</time>
      </trkpt>
      <trkpt lat="45.9376" lon="3.68986">
        <ele>1185.9</ele>
        <time>2022-08-29T09:16:25Z</time>
      </trkpt>
      <trkpt lat="45.9376" lon="3.68986">
        <ele>1185.9</ele>
        <time>2022-08-29T09:16:26Z</time>
      </trkpt>
      <trkpt lat="45.9376" lon="3.68986">
        <ele>1185.9</ele>
        <time>2022-08-29T09:16:27Z</time>
      </trkpt>
      <trkpt lat="45.9376" lon="3.68986">
        <ele>1185.9</ele>
        <time>2022-08-29T09:16:28Z</time>
      </trkpt>
      <trkpt lat="45.9376" lon="3.68987">
        <ele>1185.9</ele>
        <time>2022-08-29T09:16:29Z</time>
      </trkpt>
      <trkpt lat="45.93759" lon="3.68987">
        <ele>1185.9</ele>
        <time>2022-08-29T09:16:30Z</time>
      </trkpt>
      <trkpt lat="45.93759" lon="3.68987">
        <ele>1185.9</ele>
        <time>2022-08-29T09:16:31Z</time>
      </trkpt>
      <trkpt lat="45.93759" lon="3.68987">
        <ele>1185.9</ele>
        <time>2022-08-29T09:16:33Z</time>
      </trkpt>
      <trkpt lat="45.93759" lon="3.68987">
        <ele>1185.9</ele>
        <time>2022-08-29T09:16:34Z</time>
      </trkpt>
      <trkpt lat="45.93759" lon="3.68988">
        <ele>1185.9</ele>
        <time>2022-08-29T09:16:35Z</time>
      </trkpt>
      <trkpt lat="45.93759" lon="3.68988">
        <ele>1185.9</ele>
        <time>2022-08-29T09:16:36Z</time>
      </trkpt>
      <trkpt lat="45.93759" lon="3.68988">
        <ele>1185.9</ele>
        <time>2022-08-29T09:16:37Z</time>
      </trkpt>
      <trkpt lat="45.93759" lon="3.68988">
        <ele>1185.9</ele>
        <time>2022-08-29T09:16:38Z</time>
      </trkpt>
      <trkpt lat="45.93759" lon="3.68988">
        <ele>1185.9</ele>
        <time>2022-08-29T09:16:39Z</time>
      </trkpt>
      <trkpt lat="45.93758" lon="3.68989">
        <ele>1185.9</ele>
        <time>2022-08-29T09:16:40Z</time>
      </trkpt>
      <trkpt lat="45.93757" lon="3.6899">
        <ele>1186</ele>
        <time>2022-08-29T09:16:41Z</time>
      </trkpt>
      <trkpt lat="45.93756" lon="3.68992">
        <ele>1186</ele>
        <time>2022-08-29T09:16:42Z</time>
      </trkpt>
      <trkpt lat="45.93755" lon="3.68993">
        <ele>1186.1</ele>
        <time>2022-08-29T09:16:43Z</time>
      </trkpt>
      <trkpt lat="45.93754" lon="3.68994">
        <ele>1186.1</ele>
        <time>2022-08-29T09:16:44Z</time>
      </trkpt>
      <trkpt lat="45.93751" lon="3.68997">
        <ele>1186.2</ele>
        <time>2022-08-29T09:16:46Z</time>
      </trkpt>
      <trkpt lat="45.9375" lon="3.68998">
        <ele>1186.3</ele>
        <time>2022-08-29T09:16:47Z</time>
      </trkpt>
      <trkpt lat="45.93749" lon="3.68999">
        <ele>1186.4</ele>
        <time>2022-08-29T09:16:48Z</time>
      </trkpt>
      <trkpt lat="45.93748" lon="3.69001">
        <ele>1186.4</ele>
        <time>2022-08-29T09:16:49Z</time>
      </trkpt>
      <trkpt lat="45.93746" lon="3.69003">
        <ele>1186.5</ele>
        <time>2022-08-29T09:16:50Z</time>
      </trkpt>
      <trkpt lat="45.93744" lon="3.69005">
        <ele>1186.7</ele>
        <time>2022-08-29T09:16:51Z</time>
      </trkpt>
      <trkpt lat="45.93743" lon="3.69006">
        <ele>1186.7</ele>
        <time>2022-08-29T09:16:52Z</time>
      </trkpt>
      <trkpt lat="45.93741" lon="3.69007">
        <ele>1186.8</ele>
        <time>2022-08-29T09:16:53Z</time>
      </trkpt>
      <trkpt lat="45.9374" lon="3.69008">
        <ele>1186.9</ele>
        <time>2022-08-29T09:16:54Z</time>
      </trkpt>
      <trkpt lat="45.93738" lon="3.6901">
        <ele>1187</ele>
        <time>2022-08-29T09:16:55Z</time>
      </trkpt>
      <trkpt lat="45.93736" lon="3.69011">
        <ele>1187.1</ele>
        <time>2022-08-29T09:16:56Z</time>
      </trkpt>
      <trkpt lat="45.93735" lon="3.69013">
        <ele>1187.2</ele>
        <time>2022-08-29T09:16:57Z</time>
      </trkpt>
      <trkpt lat="45.93734" lon="3.69014">
        <ele>1187.3</ele>
        <time>2022-08-29T09:16:58Z</time>
      </trkpt>
      <trkpt lat="45.93733" lon="3.69015">
        <ele>1187.3</ele>
        <time>2022-08-29T09:16:59Z</time>
      </trkpt>
      <trkpt lat="45.93731" lon="3.69016">
        <ele>1187.4</ele>
        <time>2022-08-29T09:17:00Z</time>
      </trkpt>
      <trkpt lat="45.9373" lon="3.69018">
        <ele>1187.5</ele>
        <time>2022-08-29T09:17:01Z</time>
      </trkpt>
      <trkpt lat="45.93729" lon="3.69019">
        <ele>1187.6</ele>
        <time>2022-08-29T09:17:02Z</time>
      </trkpt>
      <trkpt lat="45.93728" lon="3.6902">
        <ele>1187.6</ele>
        <time>2022-08-29T09:17:03Z</time>
      </trkpt>
      <trkpt lat="45.93727" lon="3.69021">
        <ele>1187.7</ele>
        <time>2022-08-29T09:17:04Z</time>
      </trkpt>
      <trkpt lat="45.93726" lon="3.69024">
        <ele>1187.8</ele>
        <time>2022-08-29T09:17:05Z</time>
      </trkpt>
      <trkpt lat="45.93725" lon="3.69025">
        <ele>1187.9</ele>
        <time>2022-08-29T09:17:06Z</time>
      </trkpt>
      <trkpt lat="45.93725" lon="3.69026">
        <ele>1187.9</ele>
        <time>2022-08-29T09:17:07Z</time>
      </trkpt>
      <trkpt lat="45.93724" lon="3.69028">
        <ele>1188</ele>
        <time>2022-08-29T09:17:08Z</time>
      </trkpt>
      <trkpt lat="45.93722" lon="3.69032">
        <ele>1188.1</ele>
        <time>2022-08-29T09:17:10Z</time>
      </trkpt>
      <trkpt lat="45.93721" lon="3.69034">
        <ele>1188.2</ele>
        <time>2022-08-29T09:17:11Z</time>
      </trkpt>
      <trkpt lat="45.93719" lon="3.69035">
        <ele>1188.3</ele>
        <time>2022-08-29T09:17:12Z</time>
      </trkpt>
      <trkpt lat="45.93718" lon="3.69036">
        <ele>1188.4</ele>
        <time>2022-08-29T09:17:13Z</time>
      </trkpt>
      <trkpt lat="45.93718" lon="3.69037">
        <ele>1188.4</ele>
        <time>2022-08-29T09:17:14Z</time>
      </trkpt>
      <trkpt lat="45.93717" lon="3.69038">
        <ele>1188.5</ele>
        <time>2022-08-29T09:17:15Z</time>
      </trkpt>
      <trkpt lat="45.93716" lon="3.69039">
        <ele>1188.6</ele>
        <time>2022-08-29T09:17:16Z</time>
      </trkpt>
      <trkpt lat="45.93715" lon="3.6904">
        <ele>1188.6</ele>
        <time>2022-08-29T09:17:17Z</time>
      </trkpt>
      <trkpt lat="45.93715" lon="3.69041">
        <ele>1188.6</ele>
        <time>2022-08-29T09:17:18Z</time>
      </trkpt>
      <trkpt lat="45.93714" lon="3.69042">
        <ele>1188.7</ele>
        <time>2022-08-29T09:17:19Z</time>
      </trkpt>
      <trkpt lat="45.93713" lon="3.69043">
        <ele>1188.8</ele>
        <time>2022-08-29T09:17:20Z</time>
      </trkpt>
      <trkpt lat="45.93712" lon="3.69043">
        <ele>1188.8</ele>
        <time>2022-08-29T09:17:21Z</time>
      </trkpt>
      <trkpt lat="45.93711" lon="3.69044">
        <ele>1188.9</ele>
        <time>2022-08-29T09:17:22Z</time>
      </trkpt>
      <trkpt lat="45.9371" lon="3.69045">
        <ele>1188.9</ele>
        <time>2022-08-29T09:17:23Z</time>
      </trkpt>
      <trkpt lat="45.93709" lon="3.69046">
        <ele>1189</ele>
        <time>2022-08-29T09:17:24Z</time>
      </trkpt>
      <trkpt lat="45.93708" lon="3.69048">
        <ele>1189.1</ele>
        <time>2022-08-29T09:17:25Z</time>
      </trkpt>
      <trkpt lat="45.93707" lon="3.69049">
        <ele>1189.1</ele>
        <time>2022-08-29T09:17:26Z</time>
      </trkpt>
      <trkpt lat="45.93706" lon="3.6905">
        <ele>1189.2</ele>
        <time>2022-08-29T09:17:27Z</time>
      </trkpt>
      <trkpt lat="45.93704" lon="3.69053">
        <ele>1189.3</ele>
        <time>2022-08-29T09:17:29Z</time>
      </trkpt>
      <trkpt lat="45.93703" lon="3.69055">
        <ele>1189.4</ele>
        <time>2022-08-29T09:17:30Z</time>
      </trkpt>
      <trkpt lat="45.93703" lon="3.69057">
        <ele>1189.5</ele>
        <time>2022-08-29T09:17:31Z</time>
      </trkpt>
      <trkpt lat="45.93702" lon="3.69059">
        <ele>1189.6</ele>
        <time>2022-08-29T09:17:32Z</time>
      </trkpt>
      <trkpt lat="45.93701" lon="3.6906">
        <ele>1189.6</ele>
        <time>2022-08-29T09:17:33Z</time>
      </trkpt>
      <trkpt lat="45.937" lon="3.69063">
        <ele>1189.8</ele>
        <time>2022-08-29T09:17:34Z</time>
      </trkpt>
      <trkpt lat="45.93699" lon="3.69064">
        <ele>1189.8</ele>
        <time>2022-08-29T09:17:35Z</time>
      </trkpt>
      <trkpt lat="45.93699" lon="3.69065">
        <ele>1189.8</ele>
        <time>2022-08-29T09:17:36Z</time>
      </trkpt>
      <trkpt lat="45.93698" lon="3.69068">
        <ele>1190</ele>
        <time>2022-08-29T09:17:37Z</time>
      </trkpt>
      <trkpt lat="45.93697" lon="3.69069">
        <ele>1190</ele>
        <time>2022-08-29T09:17:38Z</time>
      </trkpt>
      <trkpt lat="45.93697" lon="3.6907">
        <ele>1190</ele>
        <time>2022-08-29T09:17:39Z</time>
      </trkpt>
      <trkpt lat="45.93696" lon="3.69071">
        <ele>1190.1</ele>
        <time>2022-08-29T09:17:40Z</time>
      </trkpt>
      <trkpt lat="45.93696" lon="3.69073">
        <ele>1190.2</ele>
        <time>2022-08-29T09:17:41Z</time>
      </trkpt>
      <trkpt lat="45.93695" lon="3.69075">
        <ele>1190.3</ele>
        <time>2022-08-29T09:17:42Z</time>
      </trkpt>
      <trkpt lat="45.93695" lon="3.69076">
        <ele>1190.3</ele>
        <time>2022-08-29T09:17:43Z</time>
      </trkpt>
      <trkpt lat="45.93694" lon="3.69078">
        <ele>1190.4</ele>
        <time>2022-08-29T09:17:44Z</time>
      </trkpt>
      <trkpt lat="45.93694" lon="3.69079">
        <ele>1190.4</ele>
        <time>2022-08-29T09:17:45Z</time>
      </trkpt>
      <trkpt lat="45.93693" lon="3.6908">
        <ele>1190.5</ele>
        <time>2022-08-29T09:17:46Z</time>
      </trkpt>
      <trkpt lat="45.93693" lon="3.69082">
        <ele>1190.5</ele>
        <time>2022-08-29T09:17:47Z</time>
      </trkpt>
      <trkpt lat="45.93692" lon="3.69083">
        <ele>1190.6</ele>
        <time>2022-08-29T09:17:48Z</time>
      </trkpt>
      <trkpt lat="45.93693" lon="3.69085">
        <ele>1190.6</ele>
        <time>2022-08-29T09:17:49Z</time>
      </trkpt>
      <trkpt lat="45.93693" lon="3.69087">
        <ele>1190.7</ele>
        <time>2022-08-29T09:17:50Z</time>
      </trkpt>
      <trkpt lat="45.93693" lon="3.69088">
        <ele>1190.8</ele>
        <time>2022-08-29T09:17:51Z</time>
      </trkpt>
      <trkpt lat="45.93692" lon="3.6909">
        <ele>1190.8</ele>
        <time>2022-08-29T09:17:52Z</time>
      </trkpt>
      <trkpt lat="45.93692" lon="3.69093">
        <ele>1190.9</ele>
        <time>2022-08-29T09:17:53Z</time>
      </trkpt>
      <trkpt lat="45.93692" lon="3.69095">
        <ele>1191</ele>
        <time>2022-08-29T09:17:54Z</time>
      </trkpt>
      <trkpt lat="45.93692" lon="3.69097">
        <ele>1191</ele>
        <time>2022-08-29T09:17:55Z</time>
      </trkpt>
      <trkpt lat="45.93692" lon="3.69098">
        <ele>1191.1</ele>
        <time>2022-08-29T09:17:56Z</time>
      </trkpt>
      <trkpt lat="45.93691" lon="3.69099">
        <ele>1191.1</ele>
        <time>2022-08-29T09:17:57Z</time>
      </trkpt>
      <trkpt lat="45.93691" lon="3.691">
        <ele>1191.2</ele>
        <time>2022-08-29T09:17:58Z</time>
      </trkpt>
      <trkpt lat="45.93691" lon="3.69102">
        <ele>1191.2</ele>
        <time>2022-08-29T09:17:59Z</time>
      </trkpt>
      <trkpt lat="45.9369" lon="3.69103">
        <ele>1191.3</ele>
        <time>2022-08-29T09:18:00Z</time>
      </trkpt>
      <trkpt lat="45.9369" lon="3.69105">
        <ele>1191.3</ele>
        <time>2022-08-29T09:18:01Z</time>
      </trkpt>
      <trkpt lat="45.93689" lon="3.69107">
        <ele>1191.4</ele>
        <time>2022-08-29T09:18:02Z</time>
      </trkpt>
      <trkpt lat="45.93688" lon="3.69109">
        <ele>1191.5</ele>
        <time>2022-08-29T09:18:03Z</time>
      </trkpt>
      <trkpt lat="45.93687" lon="3.69111">
        <ele>1191.6</ele>
        <time>2022-08-29T09:18:04Z</time>
      </trkpt>
      <trkpt lat="45.93687" lon="3.69113">
        <ele>1191.6</ele>
        <time>2022-08-29T09:18:05Z</time>
      </trkpt>
      <trkpt lat="45.93686" lon="3.69115">
        <ele>1191.7</ele>
        <time>2022-08-29T09:18:06Z</time>
      </trkpt>
      <trkpt lat="45.93685" lon="3.69117">
        <ele>1191.8</ele>
        <time>2022-08-29T09:18:07Z</time>
      </trkpt>
      <trkpt lat="45.93685" lon="3.69119">
        <ele>1191.8</ele>
        <time>2022-08-29T09:18:08Z</time>
      </trkpt>
      <trkpt lat="45.93684" lon="3.69121">
        <ele>1191.9</ele>
        <time>2022-08-29T09:18:09Z</time>
      </trkpt>
      <trkpt lat="45.93684" lon="3.69123">
        <ele>1192</ele>
        <time>2022-08-29T09:18:10Z</time>
      </trkpt>
      <trkpt lat="45.93684" lon="3.69125">
        <ele>1192</ele>
        <time>2022-08-29T09:18:11Z</time>
      </trkpt>
      <trkpt lat="45.93683" lon="3.69127">
        <ele>1192.1</ele>
        <time>2022-08-29T09:18:12Z</time>
      </trkpt>
      <trkpt lat="45.93683" lon="3.6913">
        <ele>1192.2</ele>
        <time>2022-08-29T09:18:13Z</time>
      </trkpt>
      <trkpt lat="45.93683" lon="3.69132">
        <ele>1192.2</ele>
        <time>2022-08-29T09:18:14Z</time>
      </trkpt>
      <trkpt lat="45.93683" lon="3.69134">
        <ele>1192.3</ele>
        <time>2022-08-29T09:18:15Z</time>
      </trkpt>
      <trkpt lat="45.93682" lon="3.69136">
        <ele>1192.3</ele>
        <time>2022-08-29T09:18:16Z</time>
      </trkpt>
      <trkpt lat="45.93682" lon="3.69139">
        <ele>1192.4</ele>
        <time>2022-08-29T09:18:17Z</time>
      </trkpt>
      <trkpt lat="45.93681" lon="3.69141">
        <ele>1192.5</ele>
        <time>2022-08-29T09:18:18Z</time>
      </trkpt>
      <trkpt lat="45.93681" lon="3.69142">
        <ele>1192.5</ele>
        <time>2022-08-29T09:18:19Z</time>
      </trkpt>
      <trkpt lat="45.9368" lon="3.69145">
        <ele>1192.6</ele>
        <time>2022-08-29T09:18:20Z</time>
      </trkpt>
      <trkpt lat="45.9368" lon="3.69146">
        <ele>1192.6</ele>
        <time>2022-08-29T09:18:21Z</time>
      </trkpt>
      <trkpt lat="45.93679" lon="3.69147">
        <ele>1192.7</ele>
        <time>2022-08-29T09:18:22Z</time>
      </trkpt>
      <trkpt lat="45.93679" lon="3.69149">
        <ele>1192.7</ele>
        <time>2022-08-29T09:18:23Z</time>
      </trkpt>
      <trkpt lat="45.93678" lon="3.69151">
        <ele>1192.8</ele>
        <time>2022-08-29T09:18:24Z</time>
      </trkpt>
      <trkpt lat="45.93677" lon="3.69155">
        <ele>1192.9</ele>
        <time>2022-08-29T09:18:25Z</time>
      </trkpt>
      <trkpt lat="45.93677" lon="3.69156">
        <ele>1192.9</ele>
        <time>2022-08-29T09:18:26Z</time>
      </trkpt>
      <trkpt lat="45.93677" lon="3.69161">
        <ele>1193</ele>
        <time>2022-08-29T09:18:27Z</time>
      </trkpt>
      <trkpt lat="45.93678" lon="3.69162">
        <ele>1193.1</ele>
        <time>2022-08-29T09:18:28Z</time>
      </trkpt>
      <trkpt lat="45.93679" lon="3.69166">
        <ele>1193.2</ele>
        <time>2022-08-29T09:18:29Z</time>
      </trkpt>
      <trkpt lat="45.93679" lon="3.69167">
        <ele>1193.2</ele>
        <time>2022-08-29T09:18:30Z</time>
      </trkpt>
      <trkpt lat="45.9368" lon="3.69169">
        <ele>1193.3</ele>
        <time>2022-08-29T09:18:31Z</time>
      </trkpt>
      <trkpt lat="45.93681" lon="3.69171">
        <ele>1193.3</ele>
        <time>2022-08-29T09:18:32Z</time>
      </trkpt>
      <trkpt lat="45.93681" lon="3.69173">
        <ele>1193.4</ele>
        <time>2022-08-29T09:18:33Z</time>
      </trkpt>
      <trkpt lat="45.93681" lon="3.69174">
        <ele>1193.4</ele>
        <time>2022-08-29T09:18:34Z</time>
      </trkpt>
      <trkpt lat="45.93681" lon="3.69176">
        <ele>1193.5</ele>
        <time>2022-08-29T09:18:35Z</time>
      </trkpt>
      <trkpt lat="45.93682" lon="3.69179">
        <ele>1193.5</ele>
        <time>2022-08-29T09:18:36Z</time>
      </trkpt>
      <trkpt lat="45.93682" lon="3.6918">
        <ele>1193.6</ele>
        <time>2022-08-29T09:18:37Z</time>
      </trkpt>
      <trkpt lat="45.93682" lon="3.69181">
        <ele>1193.6</ele>
        <time>2022-08-29T09:18:38Z</time>
      </trkpt>
      <trkpt lat="45.93682" lon="3.69183">
        <ele>1193.7</ele>
        <time>2022-08-29T09:18:39Z</time>
      </trkpt>
      <trkpt lat="45.93682" lon="3.69185">
        <ele>1193.7</ele>
        <time>2022-08-29T09:18:40Z</time>
      </trkpt>
      <trkpt lat="45.93682" lon="3.69187">
        <ele>1193.8</ele>
        <time>2022-08-29T09:18:41Z</time>
      </trkpt>
      <trkpt lat="45.93683" lon="3.6919">
        <ele>1193.8</ele>
        <time>2022-08-29T09:18:42Z</time>
      </trkpt>
      <trkpt lat="45.93683" lon="3.69192">
        <ele>1193.8</ele>
        <time>2022-08-29T09:18:43Z</time>
      </trkpt>
      <trkpt lat="45.93683" lon="3.69194">
        <ele>1193.9</ele>
        <time>2022-08-29T09:18:44Z</time>
      </trkpt>
      <trkpt lat="45.93683" lon="3.69197">
        <ele>1194</ele>
        <time>2022-08-29T09:18:45Z</time>
      </trkpt>
      <trkpt lat="45.93683" lon="3.69198">
        <ele>1194</ele>
        <time>2022-08-29T09:18:46Z</time>
      </trkpt>
      <trkpt lat="45.93682" lon="3.69199">
        <ele>1194</ele>
        <time>2022-08-29T09:18:47Z</time>
      </trkpt>
      <trkpt lat="45.93682" lon="3.69201">
        <ele>1194</ele>
        <time>2022-08-29T09:18:48Z</time>
      </trkpt>
      <trkpt lat="45.9368" lon="3.69202">
        <ele>1194.1</ele>
        <time>2022-08-29T09:18:49Z</time>
      </trkpt>
      <trkpt lat="45.9368" lon="3.69204">
        <ele>1194.1</ele>
        <time>2022-08-29T09:18:50Z</time>
      </trkpt>
      <trkpt lat="45.93679" lon="3.69206">
        <ele>1194.1</ele>
        <time>2022-08-29T09:18:51Z</time>
      </trkpt>
      <trkpt lat="45.93678" lon="3.69208">
        <ele>1194.2</ele>
        <time>2022-08-29T09:18:52Z</time>
      </trkpt>
      <trkpt lat="45.93677" lon="3.6921">
        <ele>1194.2</ele>
        <time>2022-08-29T09:18:53Z</time>
      </trkpt>
      <trkpt lat="45.93676" lon="3.69212">
        <ele>1194.3</ele>
        <time>2022-08-29T09:18:54Z</time>
      </trkpt>
      <trkpt lat="45.93676" lon="3.69215">
        <ele>1194.3</ele>
        <time>2022-08-29T09:18:55Z</time>
      </trkpt>
      <trkpt lat="45.93675" lon="3.69218">
        <ele>1194.4</ele>
        <time>2022-08-29T09:18:56Z</time>
      </trkpt>
      <trkpt lat="45.93674" lon="3.69219">
        <ele>1194.4</ele>
        <time>2022-08-29T09:18:57Z</time>
      </trkpt>
      <trkpt lat="45.93673" lon="3.69223">
        <ele>1194.4</ele>
        <time>2022-08-29T09:18:58Z</time>
      </trkpt>
      <trkpt lat="45.93673" lon="3.69224">
        <ele>1194.4</ele>
        <time>2022-08-29T09:18:59Z</time>
      </trkpt>
      <trkpt lat="45.93673" lon="3.69227">
        <ele>1194.5</ele>
        <time>2022-08-29T09:19:00Z</time>
      </trkpt>
      <trkpt lat="45.93673" lon="3.69229">
        <ele>1194.5</ele>
        <time>2022-08-29T09:19:01Z</time>
      </trkpt>
      <trkpt lat="45.93673" lon="3.69232">
        <ele>1194.6</ele>
        <time>2022-08-29T09:19:02Z</time>
      </trkpt>
      <trkpt lat="45.93673" lon="3.69233">
        <ele>1194.6</ele>
        <time>2022-08-29T09:19:03Z</time>
      </trkpt>
      <trkpt lat="45.93672" lon="3.69234">
        <ele>1194.6</ele>
        <time>2022-08-29T09:19:04Z</time>
      </trkpt>
      <trkpt lat="45.93672" lon="3.69238">
        <ele>1194.7</ele>
        <time>2022-08-29T09:19:05Z</time>
      </trkpt>
      <trkpt lat="45.93672" lon="3.69239">
        <ele>1194.7</ele>
        <time>2022-08-29T09:19:06Z</time>
      </trkpt>
      <trkpt lat="45.93673" lon="3.69241">
        <ele>1194.7</ele>
        <time>2022-08-29T09:19:07Z</time>
      </trkpt>
      <trkpt lat="45.93673" lon="3.69244">
        <ele>1194.8</ele>
        <time>2022-08-29T09:19:08Z</time>
      </trkpt>
      <trkpt lat="45.93673" lon="3.69246">
        <ele>1194.8</ele>
        <time>2022-08-29T09:19:09Z</time>
      </trkpt>
      <trkpt lat="45.93673" lon="3.69249">
        <ele>1194.9</ele>
        <time>2022-08-29T09:19:10Z</time>
      </trkpt>
      <trkpt lat="45.93672" lon="3.69253">
        <ele>1195</ele>
        <time>2022-08-29T09:19:11Z</time>
      </trkpt>
      <trkpt lat="45.93671" lon="3.69254">
        <ele>1195</ele>
        <time>2022-08-29T09:19:12Z</time>
      </trkpt>
      <trkpt lat="45.93671" lon="3.69256">
        <ele>1195</ele>
        <time>2022-08-29T09:19:13Z</time>
      </trkpt>
      <trkpt lat="45.9367" lon="3.69258">
        <ele>1195.1</ele>
        <time>2022-08-29T09:19:14Z</time>
      </trkpt>
      <trkpt lat="45.93669" lon="3.69259">
        <ele>1195.1</ele>
        <time>2022-08-29T09:19:15Z</time>
      </trkpt>
      <trkpt lat="45.93668" lon="3.69261">
        <ele>1195.2</ele>
        <time>2022-08-29T09:19:16Z</time>
      </trkpt>
      <trkpt lat="45.93668" lon="3.69262">
        <ele>1195.2</ele>
        <time>2022-08-29T09:19:17Z</time>
      </trkpt>
      <trkpt lat="45.93667" lon="3.69263">
        <ele>1195.2</ele>
        <time>2022-08-29T09:19:18Z</time>
      </trkpt>
      <trkpt lat="45.93667" lon="3.69264">
        <ele>1195.2</ele>
        <time>2022-08-29T09:19:19Z</time>
      </trkpt>
      <trkpt lat="45.93667" lon="3.69265">
        <ele>1195.3</ele>
        <time>2022-08-29T09:19:20Z</time>
      </trkpt>
      <trkpt lat="45.93667" lon="3.69267">
        <ele>1195.3</ele>
        <time>2022-08-29T09:19:21Z</time>
      </trkpt>
      <trkpt lat="45.93667" lon="3.69268">
        <ele>1195.3</ele>
        <time>2022-08-29T09:19:22Z</time>
      </trkpt>
      <trkpt lat="45.93668" lon="3.6927">
        <ele>1195.4</ele>
        <time>2022-08-29T09:19:23Z</time>
      </trkpt>
      <trkpt lat="45.93668" lon="3.69273">
        <ele>1195.4</ele>
        <time>2022-08-29T09:19:24Z</time>
      </trkpt>
      <trkpt lat="45.93668" lon="3.69275">
        <ele>1195.5</ele>
        <time>2022-08-29T09:19:25Z</time>
      </trkpt>
      <trkpt lat="45.93668" lon="3.69277">
        <ele>1195.5</ele>
        <time>2022-08-29T09:19:26Z</time>
      </trkpt>
      <trkpt lat="45.93668" lon="3.69279">
        <ele>1195.6</ele>
        <time>2022-08-29T09:19:27Z</time>
      </trkpt>
      <trkpt lat="45.93667" lon="3.69282">
        <ele>1195.6</ele>
        <time>2022-08-29T09:19:28Z</time>
      </trkpt>
      <trkpt lat="45.93667" lon="3.69283">
        <ele>1195.6</ele>
        <time>2022-08-29T09:19:29Z</time>
      </trkpt>
      <trkpt lat="45.93667" lon="3.69284">
        <ele>1195.7</ele>
        <time>2022-08-29T09:19:30Z</time>
      </trkpt>
      <trkpt lat="45.93667" lon="3.69287">
        <ele>1195.7</ele>
        <time>2022-08-29T09:19:31Z</time>
      </trkpt>
      <trkpt lat="45.93666" lon="3.69288">
        <ele>1195.7</ele>
        <time>2022-08-29T09:19:32Z</time>
      </trkpt>
      <trkpt lat="45.93666" lon="3.69289">
        <ele>1195.8</ele>
        <time>2022-08-29T09:19:33Z</time>
      </trkpt>
      <trkpt lat="45.93666" lon="3.6929">
        <ele>1195.8</ele>
        <time>2022-08-29T09:19:34Z</time>
      </trkpt>
      <trkpt lat="45.93666" lon="3.69292">
        <ele>1195.8</ele>
        <time>2022-08-29T09:19:35Z</time>
      </trkpt>
      <trkpt lat="45.93666" lon="3.69294">
        <ele>1195.8</ele>
        <time>2022-08-29T09:19:36Z</time>
      </trkpt>
      <trkpt lat="45.93666" lon="3.69296">
        <ele>1195.9</ele>
        <time>2022-08-29T09:19:37Z</time>
      </trkpt>
      <trkpt lat="45.93666" lon="3.69298">
        <ele>1195.9</ele>
        <time>2022-08-29T09:19:38Z</time>
      </trkpt>
      <trkpt lat="45.93666" lon="3.69302">
        <ele>1195.9</ele>
        <time>2022-08-29T09:19:39Z</time>
      </trkpt>
      <trkpt lat="45.93666" lon="3.69304">
        <ele>1196</ele>
        <time>2022-08-29T09:19:40Z</time>
      </trkpt>
      <trkpt lat="45.93666" lon="3.69308">
        <ele>1196</ele>
        <time>2022-08-29T09:19:41Z</time>
      </trkpt>
      <trkpt lat="45.93666" lon="3.6931">
        <ele>1196</ele>
        <time>2022-08-29T09:19:42Z</time>
      </trkpt>
      <trkpt lat="45.93666" lon="3.69314">
        <ele>1196</ele>
        <time>2022-08-29T09:19:43Z</time>
      </trkpt>
      <trkpt lat="45.93666" lon="3.69316">
        <ele>1196</ele>
        <time>2022-08-29T09:19:44Z</time>
      </trkpt>
      <trkpt lat="45.93667" lon="3.69318">
        <ele>1196</ele>
        <time>2022-08-29T09:19:45Z</time>
      </trkpt>
      <trkpt lat="45.93667" lon="3.6932">
        <ele>1196.1</ele>
        <time>2022-08-29T09:19:46Z</time>
      </trkpt>
      <trkpt lat="45.93668" lon="3.69322">
        <ele>1196.1</ele>
        <time>2022-08-29T09:19:47Z</time>
      </trkpt>
      <trkpt lat="45.93668" lon="3.69325">
        <ele>1196.1</ele>
        <time>2022-08-29T09:19:48Z</time>
      </trkpt>
      <trkpt lat="45.93669" lon="3.69327">
        <ele>1196.1</ele>
        <time>2022-08-29T09:19:49Z</time>
      </trkpt>
      <trkpt lat="45.93669" lon="3.69329">
        <ele>1196.1</ele>
        <time>2022-08-29T09:19:50Z</time>
      </trkpt>
      <trkpt lat="45.93669" lon="3.69332">
        <ele>1196.1</ele>
        <time>2022-08-29T09:19:51Z</time>
      </trkpt>
      <trkpt lat="45.9367" lon="3.69334">
        <ele>1196.1</ele>
        <time>2022-08-29T09:19:52Z</time>
      </trkpt>
      <trkpt lat="45.9367" lon="3.69336">
        <ele>1196.1</ele>
        <time>2022-08-29T09:19:53Z</time>
      </trkpt>
      <trkpt lat="45.9367" lon="3.69338">
        <ele>1196</ele>
        <time>2022-08-29T09:19:54Z</time>
      </trkpt>
      <trkpt lat="45.9367" lon="3.69342">
        <ele>1196</ele>
        <time>2022-08-29T09:19:55Z</time>
      </trkpt>
      <trkpt lat="45.9367" lon="3.69344">
        <ele>1196</ele>
        <time>2022-08-29T09:19:56Z</time>
      </trkpt>
      <trkpt lat="45.9367" lon="3.69346">
        <ele>1196</ele>
        <time>2022-08-29T09:19:57Z</time>
      </trkpt>
      <trkpt lat="45.9367" lon="3.69348">
        <ele>1196</ele>
        <time>2022-08-29T09:19:58Z</time>
      </trkpt>
      <trkpt lat="45.93671" lon="3.69351">
        <ele>1196</ele>
        <time>2022-08-29T09:19:59Z</time>
      </trkpt>
      <trkpt lat="45.93672" lon="3.69353">
        <ele>1196</ele>
        <time>2022-08-29T09:20:00Z</time>
      </trkpt>
      <trkpt lat="45.93672" lon="3.69355">
        <ele>1196</ele>
        <time>2022-08-29T09:20:01Z</time>
      </trkpt>
      <trkpt lat="45.93673" lon="3.69356">
        <ele>1196</ele>
        <time>2022-08-29T09:20:02Z</time>
      </trkpt>
      <trkpt lat="45.93673" lon="3.69358">
        <ele>1196</ele>
        <time>2022-08-29T09:20:03Z</time>
      </trkpt>
      <trkpt lat="45.93674" lon="3.69359">
        <ele>1196</ele>
        <time>2022-08-29T09:20:04Z</time>
      </trkpt>
      <trkpt lat="45.93674" lon="3.6936">
        <ele>1196</ele>
        <time>2022-08-29T09:20:05Z</time>
      </trkpt>
      <trkpt lat="45.93674" lon="3.69363">
        <ele>1196</ele>
        <time>2022-08-29T09:20:06Z</time>
      </trkpt>
      <trkpt lat="45.93675" lon="3.69364">
        <ele>1196</ele>
        <time>2022-08-29T09:20:07Z</time>
      </trkpt>
      <trkpt lat="45.93675" lon="3.69366">
        <ele>1196</ele>
        <time>2022-08-29T09:20:08Z</time>
      </trkpt>
      <trkpt lat="45.93675" lon="3.69368">
        <ele>1196</ele>
        <time>2022-08-29T09:20:09Z</time>
      </trkpt>
      <trkpt lat="45.93675" lon="3.6937">
        <ele>1195.9</ele>
        <time>2022-08-29T09:20:10Z</time>
      </trkpt>
      <trkpt lat="45.93675" lon="3.69372">
        <ele>1195.9</ele>
        <time>2022-08-29T09:20:11Z</time>
      </trkpt>
      <trkpt lat="45.93676" lon="3.69374">
        <ele>1195.9</ele>
        <time>2022-08-29T09:20:12Z</time>
      </trkpt>
      <trkpt lat="45.93676" lon="3.69376">
        <ele>1195.9</ele>
        <time>2022-08-29T09:20:13Z</time>
      </trkpt>
      <trkpt lat="45.93677" lon="3.69378">
        <ele>1195.9</ele>
        <time>2022-08-29T09:20:14Z</time>
      </trkpt>
      <trkpt lat="45.93678" lon="3.6938">
        <ele>1195.9</ele>
        <time>2022-08-29T09:20:15Z</time>
      </trkpt>
      <trkpt lat="45.93678" lon="3.69382">
        <ele>1195.9</ele>
        <time>2022-08-29T09:20:16Z</time>
      </trkpt>
      <trkpt lat="45.93678" lon="3.69384">
        <ele>1195.9</ele>
        <time>2022-08-29T09:20:17Z</time>
      </trkpt>
      <trkpt lat="45.93678" lon="3.69386">
        <ele>1195.9</ele>
        <time>2022-08-29T09:20:18Z</time>
      </trkpt>
      <trkpt lat="45.93678" lon="3.69388">
        <ele>1195.9</ele>
        <time>2022-08-29T09:20:19Z</time>
      </trkpt>
      <trkpt lat="45.93679" lon="3.69391">
        <ele>1195.9</ele>
        <time>2022-08-29T09:20:20Z</time>
      </trkpt>
      <trkpt lat="45.93679" lon="3.69392">
        <ele>1195.9</ele>
        <time>2022-08-29T09:20:21Z</time>
      </trkpt>
      <trkpt lat="45.93679" lon="3.69394">
        <ele>1195.8</ele>
        <time>2022-08-29T09:20:22Z</time>
      </trkpt>
      <trkpt lat="45.93679" lon="3.69396">
        <ele>1195.8</ele>
        <time>2022-08-29T09:20:23Z</time>
      </trkpt>
      <trkpt lat="45.93679" lon="3.69397">
        <ele>1195.8</ele>
        <time>2022-08-29T09:20:24Z</time>
      </trkpt>
      <trkpt lat="45.93679" lon="3.694">
        <ele>1195.8</ele>
        <time>2022-08-29T09:20:25Z</time>
      </trkpt>
      <trkpt lat="45.93679" lon="3.69402">
        <ele>1195.8</ele>
        <time>2022-08-29T09:20:26Z</time>
      </trkpt>
      <trkpt lat="45.93678" lon="3.69404">
        <ele>1195.8</ele>
        <time>2022-08-29T09:20:27Z</time>
      </trkpt>
      <trkpt lat="45.93678" lon="3.69406">
        <ele>1195.7</ele>
        <time>2022-08-29T09:20:28Z</time>
      </trkpt>
      <trkpt lat="45.93678" lon="3.69408">
        <ele>1195.7</ele>
        <time>2022-08-29T09:20:29Z</time>
      </trkpt>
      <trkpt lat="45.93678" lon="3.69411">
        <ele>1195.7</ele>
        <time>2022-08-29T09:20:30Z</time>
      </trkpt>
      <trkpt lat="45.93678" lon="3.69412">
        <ele>1195.7</ele>
        <time>2022-08-29T09:20:31Z</time>
      </trkpt>
      <trkpt lat="45.93678" lon="3.69414">
        <ele>1195.7</ele>
        <time>2022-08-29T09:20:32Z</time>
      </trkpt>
      <trkpt lat="45.93677" lon="3.69415">
        <ele>1195.7</ele>
        <time>2022-08-29T09:20:33Z</time>
      </trkpt>
      <trkpt lat="45.93677" lon="3.69417">
        <ele>1195.6</ele>
        <time>2022-08-29T09:20:34Z</time>
      </trkpt>
      <trkpt lat="45.93677" lon="3.69419">
        <ele>1195.6</ele>
        <time>2022-08-29T09:20:35Z</time>
      </trkpt>
      <trkpt lat="45.93676" lon="3.6942">
        <ele>1195.6</ele>
        <time>2022-08-29T09:20:36Z</time>
      </trkpt>
      <trkpt lat="45.93676" lon="3.69422">
        <ele>1195.6</ele>
        <time>2022-08-29T09:20:37Z</time>
      </trkpt>
      <trkpt lat="45.93675" lon="3.69425">
        <ele>1195.6</ele>
        <time>2022-08-29T09:20:38Z</time>
      </trkpt>
      <trkpt lat="45.93675" lon="3.69426">
        <ele>1195.6</ele>
        <time>2022-08-29T09:20:39Z</time>
      </trkpt>
      <trkpt lat="45.93675" lon="3.69428">
        <ele>1195.6</ele>
        <time>2022-08-29T09:20:40Z</time>
      </trkpt>
      <trkpt lat="45.93675" lon="3.69429">
        <ele>1195.6</ele>
        <time>2022-08-29T09:20:41Z</time>
      </trkpt>
      <trkpt lat="45.93674" lon="3.69431">
        <ele>1195.6</ele>
        <time>2022-08-29T09:20:42Z</time>
      </trkpt>
      <trkpt lat="45.93674" lon="3.69432">
        <ele>1195.5</ele>
        <time>2022-08-29T09:20:43Z</time>
      </trkpt>
      <trkpt lat="45.93673" lon="3.69435">
        <ele>1195.5</ele>
        <time>2022-08-29T09:20:44Z</time>
      </trkpt>
      <trkpt lat="45.93673" lon="3.69436">
        <ele>1195.5</ele>
        <time>2022-08-29T09:20:45Z</time>
      </trkpt>
      <trkpt lat="45.93673" lon="3.69437">
        <ele>1195.5</ele>
        <time>2022-08-29T09:20:46Z</time>
      </trkpt>
      <trkpt lat="45.93672" lon="3.6944">
        <ele>1195.5</ele>
        <time>2022-08-29T09:20:47Z</time>
      </trkpt>
      <trkpt lat="45.93672" lon="3.69442">
        <ele>1195.5</ele>
        <time>2022-08-29T09:20:48Z</time>
      </trkpt>
      <trkpt lat="45.93672" lon="3.69443">
        <ele>1195.5</ele>
        <time>2022-08-29T09:20:49Z</time>
      </trkpt>
      <trkpt lat="45.93671" lon="3.69445">
        <ele>1195.5</ele>
        <time>2022-08-29T09:20:50Z</time>
      </trkpt>
      <trkpt lat="45.93671" lon="3.69447">
        <ele>1195.5</ele>
        <time>2022-08-29T09:20:51Z</time>
      </trkpt>
      <trkpt lat="45.93671" lon="3.69449">
        <ele>1195.5</ele>
        <time>2022-08-29T09:20:52Z</time>
      </trkpt>
      <trkpt lat="45.93671" lon="3.6945">
        <ele>1195.5</ele>
        <time>2022-08-29T09:20:53Z</time>
      </trkpt>
      <trkpt lat="45.93671" lon="3.69452">
        <ele>1195.5</ele>
        <time>2022-08-29T09:20:54Z</time>
      </trkpt>
      <trkpt lat="45.9367" lon="3.69453">
        <ele>1195.5</ele>
        <time>2022-08-29T09:20:55Z</time>
      </trkpt>
      <trkpt lat="45.9367" lon="3.69455">
        <ele>1195.5</ele>
        <time>2022-08-29T09:20:56Z</time>
      </trkpt>
      <trkpt lat="45.9367" lon="3.69456">
        <ele>1195.5</ele>
        <time>2022-08-29T09:20:57Z</time>
      </trkpt>
      <trkpt lat="45.9367" lon="3.69459">
        <ele>1195.5</ele>
        <time>2022-08-29T09:20:58Z</time>
      </trkpt>
      <trkpt lat="45.9367" lon="3.69461">
        <ele>1195.5</ele>
        <time>2022-08-29T09:20:59Z</time>
      </trkpt>
      <trkpt lat="45.9367" lon="3.69462">
        <ele>1195.5</ele>
        <time>2022-08-29T09:21:00Z</time>
      </trkpt>
      <trkpt lat="45.93669" lon="3.69464">
        <ele>1195.5</ele>
        <time>2022-08-29T09:21:01Z</time>
      </trkpt>
      <trkpt lat="45.93669" lon="3.69465">
        <ele>1195.5</ele>
        <time>2022-08-29T09:21:02Z</time>
      </trkpt>
      <trkpt lat="45.93669" lon="3.69467">
        <ele>1195.5</ele>
        <time>2022-08-29T09:21:03Z</time>
      </trkpt>
      <trkpt lat="45.9367" lon="3.6947">
        <ele>1195.5</ele>
        <time>2022-08-29T09:21:04Z</time>
      </trkpt>
      <trkpt lat="45.9367" lon="3.69471">
        <ele>1195.5</ele>
        <time>2022-08-29T09:21:05Z</time>
      </trkpt>
      <trkpt lat="45.9367" lon="3.69472">
        <ele>1195.5</ele>
        <time>2022-08-29T09:21:06Z</time>
      </trkpt>
      <trkpt lat="45.9367" lon="3.69474">
        <ele>1195.5</ele>
        <time>2022-08-29T09:21:07Z</time>
      </trkpt>
      <trkpt lat="45.9367" lon="3.69476">
        <ele>1195.5</ele>
        <time>2022-08-29T09:21:08Z</time>
      </trkpt>
      <trkpt lat="45.9367" lon="3.69477">
        <ele>1195.5</ele>
        <time>2022-08-29T09:21:09Z</time>
      </trkpt>
      <trkpt lat="45.9367" lon="3.69479">
        <ele>1195.5</ele>
        <time>2022-08-29T09:21:10Z</time>
      </trkpt>
      <trkpt lat="45.9367" lon="3.6948">
        <ele>1195.5</ele>
        <time>2022-08-29T09:21:11Z</time>
      </trkpt>
      <trkpt lat="45.9367" lon="3.69482">
        <ele>1195.5</ele>
        <time>2022-08-29T09:21:12Z</time>
      </trkpt>
      <trkpt lat="45.9367" lon="3.69484">
        <ele>1195.4</ele>
        <time>2022-08-29T09:21:14Z</time>
      </trkpt>
      <trkpt lat="45.9367" lon="3.69487">
        <ele>1195.4</ele>
        <time>2022-08-29T09:21:15Z</time>
      </trkpt>
      <trkpt lat="45.9367" lon="3.69489">
        <ele>1195.4</ele>
        <time>2022-08-29T09:21:16Z</time>
      </trkpt>
      <trkpt lat="45.9367" lon="3.69491">
        <ele>1195.4</ele>
        <time>2022-08-29T09:21:17Z</time>
      </trkpt>
      <trkpt lat="45.9367" lon="3.69493">
        <ele>1195.4</ele>
        <time>2022-08-29T09:21:18Z</time>
      </trkpt>
      <trkpt lat="45.9367" lon="3.69495">
        <ele>1195.4</ele>
        <time>2022-08-29T09:21:19Z</time>
      </trkpt>
      <trkpt lat="45.93671" lon="3.69497">
        <ele>1195.4</ele>
        <time>2022-08-29T09:21:20Z</time>
      </trkpt>
      <trkpt lat="45.93671" lon="3.69499">
        <ele>1195.4</ele>
        <time>2022-08-29T09:21:21Z</time>
      </trkpt>
      <trkpt lat="45.93671" lon="3.69503">
        <ele>1195.3</ele>
        <time>2022-08-29T09:21:22Z</time>
      </trkpt>
      <trkpt lat="45.93671" lon="3.69504">
        <ele>1195.3</ele>
        <time>2022-08-29T09:21:23Z</time>
      </trkpt>
      <trkpt lat="45.93671" lon="3.69505">
        <ele>1195.3</ele>
        <time>2022-08-29T09:21:24Z</time>
      </trkpt>
      <trkpt lat="45.9367" lon="3.69507">
        <ele>1195.3</ele>
        <time>2022-08-29T09:21:25Z</time>
      </trkpt>
      <trkpt lat="45.9367" lon="3.69509">
        <ele>1195.3</ele>
        <time>2022-08-29T09:21:26Z</time>
      </trkpt>
      <trkpt lat="45.93669" lon="3.69511">
        <ele>1195.3</ele>
        <time>2022-08-29T09:21:27Z</time>
      </trkpt>
      <trkpt lat="45.93669" lon="3.69513">
        <ele>1195.3</ele>
        <time>2022-08-29T09:21:28Z</time>
      </trkpt>
      <trkpt lat="45.93668" lon="3.69515">
        <ele>1195.2</ele>
        <time>2022-08-29T09:21:29Z</time>
      </trkpt>
      <trkpt lat="45.93668" lon="3.69517">
        <ele>1195.2</ele>
        <time>2022-08-29T09:21:30Z</time>
      </trkpt>
      <trkpt lat="45.93666" lon="3.69524">
        <ele>1195.1</ele>
        <time>2022-08-29T09:21:31Z</time>
      </trkpt>
      <trkpt lat="45.93665" lon="3.69529">
        <ele>1195.1</ele>
        <time>2022-08-29T09:21:38Z</time>
      </trkpt>
      <trkpt lat="45.93664" lon="3.69533">
        <ele>1195.1</ele>
        <time>2022-08-29T09:21:39Z</time>
      </trkpt>
      <trkpt lat="45.93662" lon="3.69538">
        <ele>1195.1</ele>
        <time>2022-08-29T09:21:40Z</time>
      </trkpt>
      <trkpt lat="45.93662" lon="3.69539">
        <ele>1195.1</ele>
        <time>2022-08-29T09:21:41Z</time>
      </trkpt>
      <trkpt lat="45.93661" lon="3.69542">
        <ele>1195.1</ele>
        <time>2022-08-29T09:21:42Z</time>
      </trkpt>
      <trkpt lat="45.93661" lon="3.69544">
        <ele>1195.1</ele>
        <time>2022-08-29T09:21:43Z</time>
      </trkpt>
      <trkpt lat="45.9366" lon="3.69546">
        <ele>1195.1</ele>
        <time>2022-08-29T09:21:44Z</time>
      </trkpt>
      <trkpt lat="45.93659" lon="3.69548">
        <ele>1195.1</ele>
        <time>2022-08-29T09:21:45Z</time>
      </trkpt>
      <trkpt lat="45.93658" lon="3.6955">
        <ele>1195.1</ele>
        <time>2022-08-29T09:21:46Z</time>
      </trkpt>
      <trkpt lat="45.93657" lon="3.69552">
        <ele>1195.1</ele>
        <time>2022-08-29T09:21:47Z</time>
      </trkpt>
      <trkpt lat="45.93657" lon="3.69554">
        <ele>1195.1</ele>
        <time>2022-08-29T09:21:48Z</time>
      </trkpt>
      <trkpt lat="45.93656" lon="3.69556">
        <ele>1195.1</ele>
        <time>2022-08-29T09:21:49Z</time>
      </trkpt>
      <trkpt lat="45.93655" lon="3.69558">
        <ele>1195.1</ele>
        <time>2022-08-29T09:21:50Z</time>
      </trkpt>
      <trkpt lat="45.93654" lon="3.6956">
        <ele>1195.1</ele>
        <time>2022-08-29T09:21:51Z</time>
      </trkpt>
      <trkpt lat="45.93653" lon="3.69562">
        <ele>1195.1</ele>
        <time>2022-08-29T09:21:52Z</time>
      </trkpt>
      <trkpt lat="45.93653" lon="3.69564">
        <ele>1195.1</ele>
        <time>2022-08-29T09:21:53Z</time>
      </trkpt>
      <trkpt lat="45.93652" lon="3.69566">
        <ele>1195.1</ele>
        <time>2022-08-29T09:21:54Z</time>
      </trkpt>
      <trkpt lat="45.93651" lon="3.69568">
        <ele>1195.1</ele>
        <time>2022-08-29T09:21:55Z</time>
      </trkpt>
      <trkpt lat="45.9365" lon="3.69569">
        <ele>1195.1</ele>
        <time>2022-08-29T09:21:56Z</time>
      </trkpt>
      <trkpt lat="45.9365" lon="3.69571">
        <ele>1195.1</ele>
        <time>2022-08-29T09:21:57Z</time>
      </trkpt>
      <trkpt lat="45.93649" lon="3.69574">
        <ele>1195.1</ele>
        <time>2022-08-29T09:21:58Z</time>
      </trkpt>
      <trkpt lat="45.93648" lon="3.69575">
        <ele>1195.1</ele>
        <time>2022-08-29T09:21:59Z</time>
      </trkpt>
      <trkpt lat="45.93648" lon="3.69576">
        <ele>1195.1</ele>
        <time>2022-08-29T09:22:00Z</time>
      </trkpt>
      <trkpt lat="45.93647" lon="3.69579">
        <ele>1195.2</ele>
        <time>2022-08-29T09:22:01Z</time>
      </trkpt>
      <trkpt lat="45.93647" lon="3.6958">
        <ele>1195.2</ele>
        <time>2022-08-29T09:22:02Z</time>
      </trkpt>
      <trkpt lat="45.93646" lon="3.69581">
        <ele>1195.2</ele>
        <time>2022-08-29T09:22:03Z</time>
      </trkpt>
      <trkpt lat="45.93645" lon="3.69583">
        <ele>1195.2</ele>
        <time>2022-08-29T09:22:04Z</time>
      </trkpt>
      <trkpt lat="45.93644" lon="3.69583">
        <ele>1195.2</ele>
        <time>2022-08-29T09:22:05Z</time>
      </trkpt>
      <trkpt lat="45.93643" lon="3.69584">
        <ele>1195.2</ele>
        <time>2022-08-29T09:22:06Z</time>
      </trkpt>
      <trkpt lat="45.93641" lon="3.69585">
        <ele>1195.2</ele>
        <time>2022-08-29T09:22:07Z</time>
      </trkpt>
      <trkpt lat="45.93641" lon="3.69585">
        <ele>1195.2</ele>
        <time>2022-08-29T09:22:08Z</time>
      </trkpt>
      <trkpt lat="45.9364" lon="3.69585">
        <ele>1195.3</ele>
        <time>2022-08-29T09:22:09Z</time>
      </trkpt>
      <trkpt lat="45.93639" lon="3.69586">
        <ele>1195.3</ele>
        <time>2022-08-29T09:22:10Z</time>
      </trkpt>
      <trkpt lat="45.93638" lon="3.69587">
        <ele>1195.3</ele>
        <time>2022-08-29T09:22:11Z</time>
      </trkpt>
      <trkpt lat="45.93637" lon="3.69587">
        <ele>1195.3</ele>
        <time>2022-08-29T09:22:12Z</time>
      </trkpt>
      <trkpt lat="45.93636" lon="3.69588">
        <ele>1195.3</ele>
        <time>2022-08-29T09:22:13Z</time>
      </trkpt>
      <trkpt lat="45.93635" lon="3.69588">
        <ele>1195.3</ele>
        <time>2022-08-29T09:22:14Z</time>
      </trkpt>
      <trkpt lat="45.93634" lon="3.69589">
        <ele>1195.4</ele>
        <time>2022-08-29T09:22:15Z</time>
      </trkpt>
      <trkpt lat="45.93632" lon="3.69591">
        <ele>1195.4</ele>
        <time>2022-08-29T09:22:16Z</time>
      </trkpt>
      <trkpt lat="45.93631" lon="3.69592">
        <ele>1195.4</ele>
        <time>2022-08-29T09:22:17Z</time>
      </trkpt>
      <trkpt lat="45.93631" lon="3.69592">
        <ele>1195.4</ele>
        <time>2022-08-29T09:22:18Z</time>
      </trkpt>
      <trkpt lat="45.93629" lon="3.69594">
        <ele>1195.5</ele>
        <time>2022-08-29T09:22:19Z</time>
      </trkpt>
      <trkpt lat="45.93628" lon="3.69595">
        <ele>1195.5</ele>
        <time>2022-08-29T09:22:20Z</time>
      </trkpt>
      <trkpt lat="45.93628" lon="3.69595">
        <ele>1195.5</ele>
        <time>2022-08-29T09:22:21Z</time>
      </trkpt>
      <trkpt lat="45.93627" lon="3.69596">
        <ele>1195.5</ele>
        <time>2022-08-29T09:22:22Z</time>
      </trkpt>
      <trkpt lat="45.93625" lon="3.69598">
        <ele>1195.6</ele>
        <time>2022-08-29T09:22:24Z</time>
      </trkpt>
      <trkpt lat="45.93624" lon="3.69598">
        <ele>1195.6</ele>
        <time>2022-08-29T09:22:25Z</time>
      </trkpt>
      <trkpt lat="45.93624" lon="3.69599">
        <ele>1195.6</ele>
        <time>2022-08-29T09:22:26Z</time>
      </trkpt>
      <trkpt lat="45.93623" lon="3.696">
        <ele>1195.6</ele>
        <time>2022-08-29T09:22:27Z</time>
      </trkpt>
      <trkpt lat="45.93622" lon="3.69602">
        <ele>1195.6</ele>
        <time>2022-08-29T09:22:28Z</time>
      </trkpt>
      <trkpt lat="45.93621" lon="3.69603">
        <ele>1195.7</ele>
        <time>2022-08-29T09:22:29Z</time>
      </trkpt>
      <trkpt lat="45.9362" lon="3.69604">
        <ele>1195.7</ele>
        <time>2022-08-29T09:22:30Z</time>
      </trkpt>
      <trkpt lat="45.93619" lon="3.69605">
        <ele>1195.7</ele>
        <time>2022-08-29T09:22:31Z</time>
      </trkpt>
      <trkpt lat="45.93618" lon="3.69606">
        <ele>1195.7</ele>
        <time>2022-08-29T09:22:32Z</time>
      </trkpt>
      <trkpt lat="45.93617" lon="3.69607">
        <ele>1195.8</ele>
        <time>2022-08-29T09:22:33Z</time>
      </trkpt>
      <trkpt lat="45.93616" lon="3.69608">
        <ele>1195.8</ele>
        <time>2022-08-29T09:22:34Z</time>
      </trkpt>
      <trkpt lat="45.93615" lon="3.69609">
        <ele>1195.8</ele>
        <time>2022-08-29T09:22:35Z</time>
      </trkpt>
      <trkpt lat="45.93615" lon="3.6961">
        <ele>1195.8</ele>
        <time>2022-08-29T09:22:36Z</time>
      </trkpt>
      <trkpt lat="45.93613" lon="3.69611">
        <ele>1195.9</ele>
        <time>2022-08-29T09:22:37Z</time>
      </trkpt>
      <trkpt lat="45.93612" lon="3.69612">
        <ele>1195.9</ele>
        <time>2022-08-29T09:22:38Z</time>
      </trkpt>
      <trkpt lat="45.93612" lon="3.69613">
        <ele>1195.9</ele>
        <time>2022-08-29T09:22:39Z</time>
      </trkpt>
      <trkpt lat="45.9361" lon="3.69615">
        <ele>1195.9</ele>
        <time>2022-08-29T09:22:40Z</time>
      </trkpt>
      <trkpt lat="45.93609" lon="3.69615">
        <ele>1195.9</ele>
        <time>2022-08-29T09:22:41Z</time>
      </trkpt>
      <trkpt lat="45.93609" lon="3.69616">
        <ele>1196</ele>
        <time>2022-08-29T09:22:42Z</time>
      </trkpt>
      <trkpt lat="45.93608" lon="3.69618">
        <ele>1196</ele>
        <time>2022-08-29T09:22:43Z</time>
      </trkpt>
      <trkpt lat="45.93607" lon="3.6962">
        <ele>1196</ele>
        <time>2022-08-29T09:22:44Z</time>
      </trkpt>
      <trkpt lat="45.93606" lon="3.69621">
        <ele>1196</ele>
        <time>2022-08-29T09:22:45Z</time>
      </trkpt>
      <trkpt lat="45.93605" lon="3.69623">
        <ele>1196.1</ele>
        <time>2022-08-29T09:22:46Z</time>
      </trkpt>
      <trkpt lat="45.93604" lon="3.69624">
        <ele>1196.1</ele>
        <time>2022-08-29T09:22:47Z</time>
      </trkpt>
      <trkpt lat="45.93603" lon="3.69625">
        <ele>1196.1</ele>
        <time>2022-08-29T09:22:48Z</time>
      </trkpt>
      <trkpt lat="45.93601" lon="3.69627">
        <ele>1196.2</ele>
        <time>2022-08-29T09:22:49Z</time>
      </trkpt>
      <trkpt lat="45.936" lon="3.69628">
        <ele>1196.2</ele>
        <time>2022-08-29T09:22:50Z</time>
      </trkpt>
      <trkpt lat="45.93599" lon="3.69628">
        <ele>1196.2</ele>
        <time>2022-08-29T09:22:51Z</time>
      </trkpt>
      <trkpt lat="45.93598" lon="3.69629">
        <ele>1196.2</ele>
        <time>2022-08-29T09:22:52Z</time>
      </trkpt>
      <trkpt lat="45.93597" lon="3.69631">
        <ele>1196.3</ele>
        <time>2022-08-29T09:22:53Z</time>
      </trkpt>
      <trkpt lat="45.93595" lon="3.69632">
        <ele>1196.3</ele>
        <time>2022-08-29T09:22:54Z</time>
      </trkpt>
      <trkpt lat="45.93594" lon="3.69633">
        <ele>1196.4</ele>
        <time>2022-08-29T09:22:55Z</time>
      </trkpt>
      <trkpt lat="45.93592" lon="3.69636">
        <ele>1196.4</ele>
        <time>2022-08-29T09:22:56Z</time>
      </trkpt>
      <trkpt lat="45.93592" lon="3.69637">
        <ele>1196.5</ele>
        <time>2022-08-29T09:22:57Z</time>
      </trkpt>
      <trkpt lat="45.93591" lon="3.69638">
        <ele>1196.5</ele>
        <time>2022-08-29T09:22:58Z</time>
      </trkpt>
      <trkpt lat="45.9359" lon="3.6964">
        <ele>1196.6</ele>
        <time>2022-08-29T09:22:59Z</time>
      </trkpt>
      <trkpt lat="45.93589" lon="3.69641">
        <ele>1196.6</ele>
        <time>2022-08-29T09:23:00Z</time>
      </trkpt>
      <trkpt lat="45.93589" lon="3.69642">
        <ele>1196.6</ele>
        <time>2022-08-29T09:23:01Z</time>
      </trkpt>
      <trkpt lat="45.93588" lon="3.69643">
        <ele>1196.7</ele>
        <time>2022-08-29T09:23:02Z</time>
      </trkpt>
      <trkpt lat="45.93587" lon="3.69645">
        <ele>1196.7</ele>
        <time>2022-08-29T09:23:03Z</time>
      </trkpt>
      <trkpt lat="45.93586" lon="3.69646">
        <ele>1196.8</ele>
        <time>2022-08-29T09:23:04Z</time>
      </trkpt>
      <trkpt lat="45.93585" lon="3.69648">
        <ele>1196.9</ele>
        <time>2022-08-29T09:23:05Z</time>
      </trkpt>
      <trkpt lat="45.93584" lon="3.6965">
        <ele>1196.9</ele>
        <time>2022-08-29T09:23:06Z</time>
      </trkpt>
      <trkpt lat="45.93582" lon="3.69651">
        <ele>1197</ele>
        <time>2022-08-29T09:23:07Z</time>
      </trkpt>
      <trkpt lat="45.93581" lon="3.69652">
        <ele>1197</ele>
        <time>2022-08-29T09:23:08Z</time>
      </trkpt>
      <trkpt lat="45.9358" lon="3.69653">
        <ele>1197.1</ele>
        <time>2022-08-29T09:23:09Z</time>
      </trkpt>
      <trkpt lat="45.93579" lon="3.69653">
        <ele>1197.1</ele>
        <time>2022-08-29T09:23:10Z</time>
      </trkpt>
      <trkpt lat="45.93577" lon="3.69655">
        <ele>1197.2</ele>
        <time>2022-08-29T09:23:11Z</time>
      </trkpt>
      <trkpt lat="45.93577" lon="3.69656">
        <ele>1197.2</ele>
        <time>2022-08-29T09:23:12Z</time>
      </trkpt>
      <trkpt lat="45.93576" lon="3.69657">
        <ele>1197.3</ele>
        <time>2022-08-29T09:23:13Z</time>
      </trkpt>
      <trkpt lat="45.93574" lon="3.6966">
        <ele>1197.4</ele>
        <time>2022-08-29T09:23:14Z</time>
      </trkpt>
      <trkpt lat="45.93574" lon="3.69661">
        <ele>1197.4</ele>
        <time>2022-08-29T09:23:15Z</time>
      </trkpt>
      <trkpt lat="45.93572" lon="3.69663">
        <ele>1197.5</ele>
        <time>2022-08-29T09:23:16Z</time>
      </trkpt>
      <trkpt lat="45.93571" lon="3.69664">
        <ele>1197.5</ele>
        <time>2022-08-29T09:23:17Z</time>
      </trkpt>
      <trkpt lat="45.9357" lon="3.69665">
        <ele>1197.6</ele>
        <time>2022-08-29T09:23:18Z</time>
      </trkpt>
      <trkpt lat="45.93569" lon="3.69666">
        <ele>1197.6</ele>
        <time>2022-08-29T09:23:19Z</time>
      </trkpt>
      <trkpt lat="45.93568" lon="3.69667">
        <ele>1197.7</ele>
        <time>2022-08-29T09:23:20Z</time>
      </trkpt>
      <trkpt lat="45.93568" lon="3.69668">
        <ele>1197.7</ele>
        <time>2022-08-29T09:23:21Z</time>
      </trkpt>
      <trkpt lat="45.93567" lon="3.69668">
        <ele>1197.7</ele>
        <time>2022-08-29T09:23:22Z</time>
      </trkpt>
      <trkpt lat="45.93566" lon="3.69669">
        <ele>1197.8</ele>
        <time>2022-08-29T09:23:23Z</time>
      </trkpt>
      <trkpt lat="45.93565" lon="3.69671">
        <ele>1197.8</ele>
        <time>2022-08-29T09:23:24Z</time>
      </trkpt>
      <trkpt lat="45.93563" lon="3.69672">
        <ele>1197.9</ele>
        <time>2022-08-29T09:23:25Z</time>
      </trkpt>
      <trkpt lat="45.93561" lon="3.69674">
        <ele>1198</ele>
        <time>2022-08-29T09:23:26Z</time>
      </trkpt>
      <trkpt lat="45.9356" lon="3.69675">
        <ele>1198.1</ele>
        <time>2022-08-29T09:23:27Z</time>
      </trkpt>
      <trkpt lat="45.93558" lon="3.69677">
        <ele>1198.2</ele>
        <time>2022-08-29T09:23:28Z</time>
      </trkpt>
      <trkpt lat="45.93557" lon="3.69678">
        <ele>1198.2</ele>
        <time>2022-08-29T09:23:29Z</time>
      </trkpt>
      <trkpt lat="45.93556" lon="3.69679">
        <ele>1198.3</ele>
        <time>2022-08-29T09:23:30Z</time>
      </trkpt>
      <trkpt lat="45.93554" lon="3.6968">
        <ele>1198.3</ele>
        <time>2022-08-29T09:23:31Z</time>
      </trkpt>
      <trkpt lat="45.93553" lon="3.69681">
        <ele>1198.4</ele>
        <time>2022-08-29T09:23:32Z</time>
      </trkpt>
      <trkpt lat="45.93552" lon="3.69683">
        <ele>1198.4</ele>
        <time>2022-08-29T09:23:33Z</time>
      </trkpt>
      <trkpt lat="45.93551" lon="3.69685">
        <ele>1198.5</ele>
        <time>2022-08-29T09:23:34Z</time>
      </trkpt>
      <trkpt lat="45.93551" lon="3.69686">
        <ele>1198.5</ele>
        <time>2022-08-29T09:23:35Z</time>
      </trkpt>
      <trkpt lat="45.9355" lon="3.69687">
        <ele>1198.5</ele>
        <time>2022-08-29T09:23:36Z</time>
      </trkpt>
      <trkpt lat="45.93549" lon="3.69689">
        <ele>1198.6</ele>
        <time>2022-08-29T09:23:37Z</time>
      </trkpt>
      <trkpt lat="45.93547" lon="3.6969">
        <ele>1198.6</ele>
        <time>2022-08-29T09:23:38Z</time>
      </trkpt>
      <trkpt lat="45.93546" lon="3.69691">
        <ele>1198.6</ele>
        <time>2022-08-29T09:23:39Z</time>
      </trkpt>
      <trkpt lat="45.93544" lon="3.69693">
        <ele>1198.7</ele>
        <time>2022-08-29T09:23:40Z</time>
      </trkpt>
      <trkpt lat="45.93543" lon="3.69694">
        <ele>1198.7</ele>
        <time>2022-08-29T09:23:41Z</time>
      </trkpt>
      <trkpt lat="45.93542" lon="3.69696">
        <ele>1198.7</ele>
        <time>2022-08-29T09:23:42Z</time>
      </trkpt>
      <trkpt lat="45.93542" lon="3.69698">
        <ele>1198.7</ele>
        <time>2022-08-29T09:23:43Z</time>
      </trkpt>
      <trkpt lat="45.93541" lon="3.69699">
        <ele>1198.7</ele>
        <time>2022-08-29T09:23:44Z</time>
      </trkpt>
      <trkpt lat="45.9354" lon="3.69701">
        <ele>1198.7</ele>
        <time>2022-08-29T09:23:45Z</time>
      </trkpt>
      <trkpt lat="45.9354" lon="3.69702">
        <ele>1198.7</ele>
        <time>2022-08-29T09:23:46Z</time>
      </trkpt>
      <trkpt lat="45.93539" lon="3.69703">
        <ele>1198.7</ele>
        <time>2022-08-29T09:23:47Z</time>
      </trkpt>
      <trkpt lat="45.93539" lon="3.69703">
        <ele>1198.7</ele>
        <time>2022-08-29T09:23:48Z</time>
      </trkpt>
      <trkpt lat="45.93539" lon="3.69704">
        <ele>1198.7</ele>
        <time>2022-08-29T09:23:49Z</time>
      </trkpt>
      <trkpt lat="45.93538" lon="3.69705">
        <ele>1198.7</ele>
        <time>2022-08-29T09:23:50Z</time>
      </trkpt>
      <trkpt lat="45.93537" lon="3.69706">
        <ele>1198.7</ele>
        <time>2022-08-29T09:23:51Z</time>
      </trkpt>
      <trkpt lat="45.93534" lon="3.69708">
        <ele>1198.7</ele>
        <time>2022-08-29T09:23:52Z</time>
      </trkpt>
      <trkpt lat="45.93533" lon="3.69709">
        <ele>1198.6</ele>
        <time>2022-08-29T09:23:53Z</time>
      </trkpt>
      <trkpt lat="45.9353" lon="3.69712">
        <ele>1198.6</ele>
        <time>2022-08-29T09:23:54Z</time>
      </trkpt>
      <trkpt lat="45.93529" lon="3.69713">
        <ele>1198.5</ele>
        <time>2022-08-29T09:23:55Z</time>
      </trkpt>
      <trkpt lat="45.93526" lon="3.69715">
        <ele>1198.5</ele>
        <time>2022-08-29T09:23:56Z</time>
      </trkpt>
      <trkpt lat="45.93526" lon="3.69716">
        <ele>1198.4</ele>
        <time>2022-08-29T09:23:57Z</time>
      </trkpt>
      <trkpt lat="45.93525" lon="3.69717">
        <ele>1198.4</ele>
        <time>2022-08-29T09:23:58Z</time>
      </trkpt>
      <trkpt lat="45.93524" lon="3.69719">
        <ele>1198.3</ele>
        <time>2022-08-29T09:23:59Z</time>
      </trkpt>
      <trkpt lat="45.93523" lon="3.69721">
        <ele>1198.3</ele>
        <time>2022-08-29T09:24:00Z</time>
      </trkpt>
      <trkpt lat="45.93522" lon="3.69723">
        <ele>1198.2</ele>
        <time>2022-08-29T09:24:01Z</time>
      </trkpt>
      <trkpt lat="45.93521" lon="3.69724">
        <ele>1198.2</ele>
        <time>2022-08-29T09:24:02Z</time>
      </trkpt>
      <trkpt lat="45.9352" lon="3.69726">
        <ele>1198.2</ele>
        <time>2022-08-29T09:24:03Z</time>
      </trkpt>
      <trkpt lat="45.93519" lon="3.69728">
        <ele>1198.1</ele>
        <time>2022-08-29T09:24:04Z</time>
      </trkpt>
      <trkpt lat="45.93518" lon="3.69729">
        <ele>1198.1</ele>
        <time>2022-08-29T09:24:05Z</time>
      </trkpt>
      <trkpt lat="45.93517" lon="3.69731">
        <ele>1198</ele>
        <time>2022-08-29T09:24:06Z</time>
      </trkpt>
      <trkpt lat="45.93516" lon="3.69733">
        <ele>1197.9</ele>
        <time>2022-08-29T09:24:07Z</time>
      </trkpt>
      <trkpt lat="45.93515" lon="3.69734">
        <ele>1197.9</ele>
        <time>2022-08-29T09:24:08Z</time>
      </trkpt>
      <trkpt lat="45.93514" lon="3.69736">
        <ele>1197.8</ele>
        <time>2022-08-29T09:24:09Z</time>
      </trkpt>
      <trkpt lat="45.93513" lon="3.69738">
        <ele>1197.8</ele>
        <time>2022-08-29T09:24:10Z</time>
      </trkpt>
      <trkpt lat="45.93512" lon="3.6974">
        <ele>1197.7</ele>
        <time>2022-08-29T09:24:11Z</time>
      </trkpt>
      <trkpt lat="45.93511" lon="3.69741">
        <ele>1197.6</ele>
        <time>2022-08-29T09:24:12Z</time>
      </trkpt>
      <trkpt lat="45.93509" lon="3.69743">
        <ele>1197.5</ele>
        <time>2022-08-29T09:24:13Z</time>
      </trkpt>
      <trkpt lat="45.93508" lon="3.69745">
        <ele>1197.4</ele>
        <time>2022-08-29T09:24:14Z</time>
      </trkpt>
      <trkpt lat="45.93507" lon="3.69747">
        <ele>1197.3</ele>
        <time>2022-08-29T09:24:15Z</time>
      </trkpt>
      <trkpt lat="45.93506" lon="3.69749">
        <ele>1197.3</ele>
        <time>2022-08-29T09:24:16Z</time>
      </trkpt>
      <trkpt lat="45.93506" lon="3.6975">
        <ele>1197.2</ele>
        <time>2022-08-29T09:24:17Z</time>
      </trkpt>
      <trkpt lat="45.93505" lon="3.69752">
        <ele>1197.1</ele>
        <time>2022-08-29T09:24:18Z</time>
      </trkpt>
      <trkpt lat="45.93505" lon="3.69754">
        <ele>1197</ele>
        <time>2022-08-29T09:24:19Z</time>
      </trkpt>
      <trkpt lat="45.93504" lon="3.69755">
        <ele>1197</ele>
        <time>2022-08-29T09:24:20Z</time>
      </trkpt>
      <trkpt lat="45.93504" lon="3.69756">
        <ele>1196.9</ele>
        <time>2022-08-29T09:24:21Z</time>
      </trkpt>
      <trkpt lat="45.93503" lon="3.69757">
        <ele>1196.9</ele>
        <time>2022-08-29T09:24:22Z</time>
      </trkpt>
      <trkpt lat="45.93503" lon="3.69758">
        <ele>1196.8</ele>
        <time>2022-08-29T09:24:23Z</time>
      </trkpt>
      <trkpt lat="45.93503" lon="3.69759">
        <ele>1196.8</ele>
        <time>2022-08-29T09:24:24Z</time>
      </trkpt>
      <trkpt lat="45.93502" lon="3.69762">
        <ele>1196.7</ele>
        <time>2022-08-29T09:24:25Z</time>
      </trkpt>
      <trkpt lat="45.93502" lon="3.69763">
        <ele>1196.6</ele>
        <time>2022-08-29T09:24:26Z</time>
      </trkpt>
      <trkpt lat="45.93502" lon="3.69764">
        <ele>1196.5</ele>
        <time>2022-08-29T09:24:27Z</time>
      </trkpt>
      <trkpt lat="45.93501" lon="3.69766">
        <ele>1196.4</ele>
        <time>2022-08-29T09:24:28Z</time>
      </trkpt>
      <trkpt lat="45.93501" lon="3.69769">
        <ele>1196.3</ele>
        <time>2022-08-29T09:24:29Z</time>
      </trkpt>
      <trkpt lat="45.93501" lon="3.69771">
        <ele>1196.2</ele>
        <time>2022-08-29T09:24:30Z</time>
      </trkpt>
      <trkpt lat="45.935" lon="3.69772">
        <ele>1196.1</ele>
        <time>2022-08-29T09:24:31Z</time>
      </trkpt>
      <trkpt lat="45.935" lon="3.69774">
        <ele>1196.1</ele>
        <time>2022-08-29T09:24:32Z</time>
      </trkpt>
      <trkpt lat="45.93499" lon="3.69775">
        <ele>1196</ele>
        <time>2022-08-29T09:24:33Z</time>
      </trkpt>
      <trkpt lat="45.93499" lon="3.69776">
        <ele>1196</ele>
        <time>2022-08-29T09:24:34Z</time>
      </trkpt>
      <trkpt lat="45.93499" lon="3.69776">
        <ele>1195.9</ele>
        <time>2022-08-29T09:24:35Z</time>
      </trkpt>
      <trkpt lat="45.93499" lon="3.69777">
        <ele>1195.9</ele>
        <time>2022-08-29T09:24:36Z</time>
      </trkpt>
      <trkpt lat="45.93499" lon="3.69777">
        <ele>1195.9</ele>
        <time>2022-08-29T09:24:37Z</time>
      </trkpt>
      <trkpt lat="45.93499" lon="3.69777">
        <ele>1195.9</ele>
        <time>2022-08-29T09:24:38Z</time>
      </trkpt>
      <trkpt lat="45.93499" lon="3.69778">
        <ele>1195.8</ele>
        <time>2022-08-29T09:24:39Z</time>
      </trkpt>
      <trkpt lat="45.93499" lon="3.69778">
        <ele>1195.8</ele>
        <time>2022-08-29T09:24:40Z</time>
      </trkpt>
      <trkpt lat="45.93499" lon="3.69778">
        <ele>1195.8</ele>
        <time>2022-08-29T09:24:41Z</time>
      </trkpt>
      <trkpt lat="45.93499" lon="3.69778">
        <ele>1195.8</ele>
        <time>2022-08-29T09:24:42Z</time>
      </trkpt>
      <trkpt lat="45.935" lon="3.69778">
        <ele>1195.8</ele>
        <time>2022-08-29T09:24:43Z</time>
      </trkpt>
      <trkpt lat="45.935" lon="3.69777">
        <ele>1195.7</ele>
        <time>2022-08-29T09:24:45Z</time>
      </trkpt>
      <trkpt lat="45.93501" lon="3.69777">
        <ele>1195.7</ele>
        <time>2022-08-29T09:24:46Z</time>
      </trkpt>
      <trkpt lat="45.93501" lon="3.69777">
        <ele>1195.7</ele>
        <time>2022-08-29T09:24:47Z</time>
      </trkpt>
      <trkpt lat="45.93501" lon="3.69777">
        <ele>1195.7</ele>
        <time>2022-08-29T09:24:48Z</time>
      </trkpt>
      <trkpt lat="45.93501" lon="3.69776">
        <ele>1195.6</ele>
        <time>2022-08-29T09:24:49Z</time>
      </trkpt>
      <trkpt lat="45.93501" lon="3.69776">
        <ele>1195.6</ele>
        <time>2022-08-29T09:24:50Z</time>
      </trkpt>
      <trkpt lat="45.93501" lon="3.69776">
        <ele>1195.6</ele>
        <time>2022-08-29T09:24:51Z</time>
      </trkpt>
      <trkpt lat="45.93501" lon="3.69776">
        <ele>1195.6</ele>
        <time>2022-08-29T09:24:52Z</time>
      </trkpt>
      <trkpt lat="45.93501" lon="3.69776">
        <ele>1195.6</ele>
        <time>2022-08-29T09:24:53Z</time>
      </trkpt>
      <trkpt lat="45.93501" lon="3.69776">
        <ele>1195.6</ele>
        <time>2022-08-29T09:24:54Z</time>
      </trkpt>
      <trkpt lat="45.93501" lon="3.69777">
        <ele>1195.6</ele>
        <time>2022-08-29T09:24:55Z</time>
      </trkpt>
      <trkpt lat="45.93501" lon="3.69777">
        <ele>1195.6</ele>
        <time>2022-08-29T09:24:56Z</time>
      </trkpt>
      <trkpt lat="45.93501" lon="3.69777">
        <ele>1195.6</ele>
        <time>2022-08-29T09:24:57Z</time>
      </trkpt>
      <trkpt lat="45.93501" lon="3.69777">
        <ele>1195.6</ele>
        <time>2022-08-29T09:24:58Z</time>
      </trkpt>
      <trkpt lat="45.93501" lon="3.69777">
        <ele>1195.6</ele>
        <time>2022-08-29T09:24:59Z</time>
      </trkpt>
      <trkpt lat="45.93501" lon="3.69777">
        <ele>1195.6</ele>
        <time>2022-08-29T09:25:00Z</time>
      </trkpt>
      <trkpt lat="45.93501" lon="3.69777">
        <ele>1195.6</ele>
        <time>2022-08-29T09:25:01Z</time>
      </trkpt>
      <trkpt lat="45.93501" lon="3.69777">
        <ele>1195.6</ele>
        <time>2022-08-29T09:25:02Z</time>
      </trkpt>
      <trkpt lat="45.93501" lon="3.69777">
        <ele>1195.6</ele>
        <time>2022-08-29T09:25:03Z</time>
      </trkpt>
      <trkpt lat="45.93501" lon="3.69777">
        <ele>1195.6</ele>
        <time>2022-08-29T09:25:04Z</time>
      </trkpt>
      <trkpt lat="45.93501" lon="3.69779">
        <ele>1195.4</ele>
        <time>2022-08-29T09:25:05Z</time>
      </trkpt>
      <trkpt lat="45.935" lon="3.69781">
        <ele>1195.3</ele>
        <time>2022-08-29T09:25:06Z</time>
      </trkpt>
      <trkpt lat="45.93499" lon="3.69782">
        <ele>1195.2</ele>
        <time>2022-08-29T09:25:07Z</time>
      </trkpt>
      <trkpt lat="45.93499" lon="3.69783">
        <ele>1195.1</ele>
        <time>2022-08-29T09:25:08Z</time>
      </trkpt>
      <trkpt lat="45.93498" lon="3.69785">
        <ele>1195</ele>
        <time>2022-08-29T09:25:09Z</time>
      </trkpt>
      <trkpt lat="45.93496" lon="3.69787">
        <ele>1194.9</ele>
        <time>2022-08-29T09:25:10Z</time>
      </trkpt>
      <trkpt lat="45.93494" lon="3.6979">
        <ele>1194.6</ele>
        <time>2022-08-29T09:25:11Z</time>
      </trkpt>
      <trkpt lat="45.93493" lon="3.69791">
        <ele>1194.5</ele>
        <time>2022-08-29T09:25:12Z</time>
      </trkpt>
      <trkpt lat="45.93492" lon="3.69795">
        <ele>1194.3</ele>
        <time>2022-08-29T09:25:13Z</time>
      </trkpt>
      <trkpt lat="45.93491" lon="3.69796">
        <ele>1194.2</ele>
        <time>2022-08-29T09:25:14Z</time>
      </trkpt>
      <trkpt lat="45.9349" lon="3.69801">
        <ele>1193.9</ele>
        <time>2022-08-29T09:25:15Z</time>
      </trkpt>
      <trkpt lat="45.93489" lon="3.69802">
        <ele>1193.8</ele>
        <time>2022-08-29T09:25:16Z</time>
      </trkpt>
      <trkpt lat="45.93488" lon="3.69806">
        <ele>1193.6</ele>
        <time>2022-08-29T09:25:17Z</time>
      </trkpt>
      <trkpt lat="45.93488" lon="3.69807">
        <ele>1193.5</ele>
        <time>2022-08-29T09:25:18Z</time>
      </trkpt>
      <trkpt lat="45.93486" lon="3.69811">
        <ele>1193.2</ele>
        <time>2022-08-29T09:25:19Z</time>
      </trkpt>
      <trkpt lat="45.93485" lon="3.69812">
        <ele>1193.1</ele>
        <time>2022-08-29T09:25:20Z</time>
      </trkpt>
      <trkpt lat="45.93484" lon="3.69814">
        <ele>1192.9</ele>
        <time>2022-08-29T09:25:21Z</time>
      </trkpt>
      <trkpt lat="45.93483" lon="3.69816">
        <ele>1192.8</ele>
        <time>2022-08-29T09:25:22Z</time>
      </trkpt>
      <trkpt lat="45.93482" lon="3.69818">
        <ele>1192.7</ele>
        <time>2022-08-29T09:25:23Z</time>
      </trkpt>
      <trkpt lat="45.93481" lon="3.6982">
        <ele>1192.5</ele>
        <time>2022-08-29T09:25:24Z</time>
      </trkpt>
      <trkpt lat="45.9348" lon="3.69822">
        <ele>1192.4</ele>
        <time>2022-08-29T09:25:25Z</time>
      </trkpt>
      <trkpt lat="45.9348" lon="3.69824">
        <ele>1192.3</ele>
        <time>2022-08-29T09:25:26Z</time>
      </trkpt>
      <trkpt lat="45.93479" lon="3.69826">
        <ele>1192.2</ele>
        <time>2022-08-29T09:25:27Z</time>
      </trkpt>
      <trkpt lat="45.93478" lon="3.69828">
        <ele>1192</ele>
        <time>2022-08-29T09:25:28Z</time>
      </trkpt>
      <trkpt lat="45.93478" lon="3.69832">
        <ele>1191.8</ele>
        <time>2022-08-29T09:25:29Z</time>
      </trkpt>
      <trkpt lat="45.93478" lon="3.69833">
        <ele>1191.7</ele>
        <time>2022-08-29T09:25:30Z</time>
      </trkpt>
      <trkpt lat="45.93478" lon="3.69837">
        <ele>1191.5</ele>
        <time>2022-08-29T09:25:31Z</time>
      </trkpt>
      <trkpt lat="45.93478" lon="3.69839">
        <ele>1191.5</ele>
        <time>2022-08-29T09:25:32Z</time>
      </trkpt>
      <trkpt lat="45.93478" lon="3.69843">
        <ele>1191.2</ele>
        <time>2022-08-29T09:25:33Z</time>
      </trkpt>
      <trkpt lat="45.93478" lon="3.69844">
        <ele>1191.2</ele>
        <time>2022-08-29T09:25:34Z</time>
      </trkpt>
      <trkpt lat="45.93478" lon="3.69847">
        <ele>1191.1</ele>
        <time>2022-08-29T09:25:35Z</time>
      </trkpt>
      <trkpt lat="45.93477" lon="3.69848">
        <ele>1191</ele>
        <time>2022-08-29T09:25:36Z</time>
      </trkpt>
      <trkpt lat="45.93477" lon="3.6985">
        <ele>1190.9</ele>
        <time>2022-08-29T09:25:37Z</time>
      </trkpt>
      <trkpt lat="45.93477" lon="3.69851">
        <ele>1190.9</ele>
        <time>2022-08-29T09:25:38Z</time>
      </trkpt>
      <trkpt lat="45.93476" lon="3.69853">
        <ele>1190.8</ele>
        <time>2022-08-29T09:25:39Z</time>
      </trkpt>
      <trkpt lat="45.93475" lon="3.69855">
        <ele>1190.7</ele>
        <time>2022-08-29T09:25:40Z</time>
      </trkpt>
      <trkpt lat="45.93475" lon="3.69856">
        <ele>1190.6</ele>
        <time>2022-08-29T09:25:41Z</time>
      </trkpt>
      <trkpt lat="45.93474" lon="3.69858">
        <ele>1190.6</ele>
        <time>2022-08-29T09:25:42Z</time>
      </trkpt>
      <trkpt lat="45.93474" lon="3.6986">
        <ele>1190.5</ele>
        <time>2022-08-29T09:25:43Z</time>
      </trkpt>
      <trkpt lat="45.93474" lon="3.69862">
        <ele>1190.4</ele>
        <time>2022-08-29T09:25:44Z</time>
      </trkpt>
      <trkpt lat="45.93473" lon="3.69864">
        <ele>1190.4</ele>
        <time>2022-08-29T09:25:45Z</time>
      </trkpt>
      <trkpt lat="45.93473" lon="3.69867">
        <ele>1190.3</ele>
        <time>2022-08-29T09:25:46Z</time>
      </trkpt>
      <trkpt lat="45.93473" lon="3.69869">
        <ele>1190.2</ele>
        <time>2022-08-29T09:25:47Z</time>
      </trkpt>
      <trkpt lat="45.93473" lon="3.69871">
        <ele>1190.2</ele>
        <time>2022-08-29T09:25:48Z</time>
      </trkpt>
      <trkpt lat="45.93473" lon="3.69874">
        <ele>1190.1</ele>
        <time>2022-08-29T09:25:49Z</time>
      </trkpt>
      <trkpt lat="45.93473" lon="3.69876">
        <ele>1190.1</ele>
        <time>2022-08-29T09:25:50Z</time>
      </trkpt>
      <trkpt lat="45.93474" lon="3.69879">
        <ele>1190</ele>
        <time>2022-08-29T09:25:51Z</time>
      </trkpt>
      <trkpt lat="45.93474" lon="3.69881">
        <ele>1190</ele>
        <time>2022-08-29T09:25:52Z</time>
      </trkpt>
      <trkpt lat="45.93475" lon="3.69884">
        <ele>1189.9</ele>
        <time>2022-08-29T09:25:53Z</time>
      </trkpt>
      <trkpt lat="45.93475" lon="3.69886">
        <ele>1189.9</ele>
        <time>2022-08-29T09:25:54Z</time>
      </trkpt>
      <trkpt lat="45.93475" lon="3.69889">
        <ele>1189.8</ele>
        <time>2022-08-29T09:25:55Z</time>
      </trkpt>
      <trkpt lat="45.93476" lon="3.69891">
        <ele>1189.8</ele>
        <time>2022-08-29T09:25:56Z</time>
      </trkpt>
      <trkpt lat="45.93476" lon="3.69893">
        <ele>1189.8</ele>
        <time>2022-08-29T09:25:57Z</time>
      </trkpt>
      <trkpt lat="45.93476" lon="3.69894">
        <ele>1189.8</ele>
        <time>2022-08-29T09:25:58Z</time>
      </trkpt>
      <trkpt lat="45.93477" lon="3.69895">
        <ele>1189.8</ele>
        <time>2022-08-29T09:25:59Z</time>
      </trkpt>
      <trkpt lat="45.93477" lon="3.69897">
        <ele>1189.7</ele>
        <time>2022-08-29T09:26:00Z</time>
      </trkpt>
      <trkpt lat="45.93477" lon="3.69898">
        <ele>1189.7</ele>
        <time>2022-08-29T09:26:01Z</time>
      </trkpt>
      <trkpt lat="45.93476" lon="3.69898">
        <ele>1189.7</ele>
        <time>2022-08-29T09:26:02Z</time>
      </trkpt>
      <trkpt lat="45.93476" lon="3.69899">
        <ele>1189.7</ele>
        <time>2022-08-29T09:26:03Z</time>
      </trkpt>
      <trkpt lat="45.93476" lon="3.69899">
        <ele>1189.7</ele>
        <time>2022-08-29T09:26:04Z</time>
      </trkpt>
      <trkpt lat="45.93476" lon="3.699">
        <ele>1189.7</ele>
        <time>2022-08-29T09:26:05Z</time>
      </trkpt>
      <trkpt lat="45.93475" lon="3.699">
        <ele>1189.7</ele>
        <time>2022-08-29T09:26:06Z</time>
      </trkpt>
      <trkpt lat="45.93475" lon="3.699">
        <ele>1189.7</ele>
        <time>2022-08-29T09:26:07Z</time>
      </trkpt>
      <trkpt lat="45.93475" lon="3.699">
        <ele>1189.7</ele>
        <time>2022-08-29T09:26:08Z</time>
      </trkpt>
      <trkpt lat="45.93475" lon="3.699">
        <ele>1189.7</ele>
        <time>2022-08-29T09:26:09Z</time>
      </trkpt>
      <trkpt lat="45.93475" lon="3.699">
        <ele>1189.7</ele>
        <time>2022-08-29T09:26:10Z</time>
      </trkpt>
      <trkpt lat="45.93475" lon="3.699">
        <ele>1189.7</ele>
        <time>2022-08-29T09:26:11Z</time>
      </trkpt>
      <trkpt lat="45.93475" lon="3.699">
        <ele>1189.7</ele>
        <time>2022-08-29T09:26:12Z</time>
      </trkpt>
      <trkpt lat="45.93475" lon="3.699">
        <ele>1189.7</ele>
        <time>2022-08-29T09:26:13Z</time>
      </trkpt>
      <trkpt lat="45.93475" lon="3.699">
        <ele>1189.7</ele>
        <time>2022-08-29T09:26:14Z</time>
      </trkpt>
      <trkpt lat="45.93475" lon="3.69901">
        <ele>1189.7</ele>
        <time>2022-08-29T09:26:15Z</time>
      </trkpt>
      <trkpt lat="45.93475" lon="3.69901">
        <ele>1189.7</ele>
        <time>2022-08-29T09:26:16Z</time>
      </trkpt>
      <trkpt lat="45.93475" lon="3.69901">
        <ele>1189.7</ele>
        <time>2022-08-29T09:26:17Z</time>
      </trkpt>
      <trkpt lat="45.93475" lon="3.69901">
        <ele>1189.7</ele>
        <time>2022-08-29T09:26:18Z</time>
      </trkpt>
      <trkpt lat="45.93475" lon="3.69901">
        <ele>1189.7</ele>
        <time>2022-08-29T09:26:19Z</time>
      </trkpt>
      <trkpt lat="45.93475" lon="3.69901">
        <ele>1189.7</ele>
        <time>2022-08-29T09:26:20Z</time>
      </trkpt>
      <trkpt lat="45.93475" lon="3.69901">
        <ele>1189.7</ele>
        <time>2022-08-29T09:26:21Z</time>
      </trkpt>
      <trkpt lat="45.93475" lon="3.69901">
        <ele>1189.7</ele>
        <time>2022-08-29T09:26:22Z</time>
      </trkpt>
      <trkpt lat="45.93475" lon="3.69901">
        <ele>1189.7</ele>
        <time>2022-08-29T09:26:23Z</time>
      </trkpt>
      <trkpt lat="45.93475" lon="3.69901">
        <ele>1189.7</ele>
        <time>2022-08-29T09:26:24Z</time>
      </trkpt>
      <trkpt lat="45.93475" lon="3.69901">
        <ele>1189.7</ele>
        <time>2022-08-29T09:26:25Z</time>
      </trkpt>
      <trkpt lat="45.93475" lon="3.69901">
        <ele>1189.7</ele>
        <time>2022-08-29T09:26:26Z</time>
      </trkpt>
      <trkpt lat="45.93475" lon="3.69901">
        <ele>1189.7</ele>
        <time>2022-08-29T09:26:27Z</time>
      </trkpt>
      <trkpt lat="45.93475" lon="3.69901">
        <ele>1189.7</ele>
        <time>2022-08-29T09:26:28Z</time>
      </trkpt>
      <trkpt lat="45.93475" lon="3.69901">
        <ele>1189.7</ele>
        <time>2022-08-29T09:26:29Z</time>
      </trkpt>
      <trkpt lat="45.93475" lon="3.69901">
        <ele>1189.7</ele>
        <time>2022-08-29T09:26:30Z</time>
      </trkpt>
      <trkpt lat="45.93475" lon="3.69901">
        <ele>1189.7</ele>
        <time>2022-08-29T09:26:31Z</time>
      </trkpt>
      <trkpt lat="45.93475" lon="3.69901">
        <ele>1189.7</ele>
        <time>2022-08-29T09:26:32Z</time>
      </trkpt>
      <trkpt lat="45.93475" lon="3.69901">
        <ele>1189.7</ele>
        <time>2022-08-29T09:26:33Z</time>
      </trkpt>
      <trkpt lat="45.93475" lon="3.69901">
        <ele>1189.7</ele>
        <time>2022-08-29T09:26:34Z</time>
      </trkpt>
      <trkpt lat="45.93475" lon="3.69901">
        <ele>1189.7</ele>
        <time>2022-08-29T09:26:35Z</time>
      </trkpt>
      <trkpt lat="45.93475" lon="3.69901">
        <ele>1189.7</ele>
        <time>2022-08-29T09:26:36Z</time>
      </trkpt>
      <trkpt lat="45.93475" lon="3.69901">
        <ele>1189.7</ele>
        <time>2022-08-29T09:26:37Z</time>
      </trkpt>
      <trkpt lat="45.93475" lon="3.69902">
        <ele>1189.7</ele>
        <time>2022-08-29T09:26:38Z</time>
      </trkpt>
      <trkpt lat="45.93475" lon="3.69902">
        <ele>1189.7</ele>
        <time>2022-08-29T09:26:39Z</time>
      </trkpt>
      <trkpt lat="45.93475" lon="3.69902">
        <ele>1189.7</ele>
        <time>2022-08-29T09:26:40Z</time>
      </trkpt>
      <trkpt lat="45.93475" lon="3.69902">
        <ele>1189.7</ele>
        <time>2022-08-29T09:26:41Z</time>
      </trkpt>
      <trkpt lat="45.93475" lon="3.69902">
        <ele>1189.7</ele>
        <time>2022-08-29T09:26:42Z</time>
      </trkpt>
      <trkpt lat="45.93475" lon="3.69902">
        <ele>1189.7</ele>
        <time>2022-08-29T09:26:43Z</time>
      </trkpt>
      <trkpt lat="45.93475" lon="3.69902">
        <ele>1189.7</ele>
        <time>2022-08-29T09:26:44Z</time>
      </trkpt>
      <trkpt lat="45.93475" lon="3.69902">
        <ele>1189.7</ele>
        <time>2022-08-29T09:26:45Z</time>
      </trkpt>
      <trkpt lat="45.93475" lon="3.69902">
        <ele>1189.7</ele>
        <time>2022-08-29T09:26:46Z</time>
      </trkpt>
      <trkpt lat="45.93475" lon="3.69902">
        <ele>1189.7</ele>
        <time>2022-08-29T09:26:47Z</time>
      </trkpt>
      <trkpt lat="45.93474" lon="3.69902">
        <ele>1189.7</ele>
        <time>2022-08-29T09:26:48Z</time>
      </trkpt>
      <trkpt lat="45.93474" lon="3.69902">
        <ele>1189.7</ele>
        <time>2022-08-29T09:26:49Z</time>
      </trkpt>
      <trkpt lat="45.93474" lon="3.69902">
        <ele>1189.7</ele>
        <time>2022-08-29T09:26:50Z</time>
      </trkpt>
      <trkpt lat="45.93474" lon="3.69902">
        <ele>1189.7</ele>
        <time>2022-08-29T09:26:51Z</time>
      </trkpt>
      <trkpt lat="45.93474" lon="3.69902">
        <ele>1189.7</ele>
        <time>2022-08-29T09:26:52Z</time>
      </trkpt>
      <trkpt lat="45.93474" lon="3.69902">
        <ele>1189.7</ele>
        <time>2022-08-29T09:26:53Z</time>
      </trkpt>
      <trkpt lat="45.93474" lon="3.69902">
        <ele>1189.7</ele>
        <time>2022-08-29T09:26:54Z</time>
      </trkpt>
      <trkpt lat="45.93474" lon="3.69902">
        <ele>1189.7</ele>
        <time>2022-08-29T09:26:55Z</time>
      </trkpt>
      <trkpt lat="45.93474" lon="3.69902">
        <ele>1189.7</ele>
        <time>2022-08-29T09:26:56Z</time>
      </trkpt>
      <trkpt lat="45.93474" lon="3.69902">
        <ele>1189.7</ele>
        <time>2022-08-29T09:26:57Z</time>
      </trkpt>
      <trkpt lat="45.93474" lon="3.69902">
        <ele>1189.7</ele>
        <time>2022-08-29T09:26:58Z</time>
      </trkpt>
      <trkpt lat="45.93474" lon="3.69902">
        <ele>1189.7</ele>
        <time>2022-08-29T09:26:59Z</time>
      </trkpt>
      <trkpt lat="45.93474" lon="3.69902">
        <ele>1189.7</ele>
        <time>2022-08-29T09:27:00Z</time>
      </trkpt>
      <trkpt lat="45.93474" lon="3.69903">
        <ele>1189.7</ele>
        <time>2022-08-29T09:27:01Z</time>
      </trkpt>
      <trkpt lat="45.93474" lon="3.69903">
        <ele>1189.7</ele>
        <time>2022-08-29T09:27:02Z</time>
      </trkpt>
      <trkpt lat="45.93474" lon="3.69903">
        <ele>1189.7</ele>
        <time>2022-08-29T09:27:03Z</time>
      </trkpt>
      <trkpt lat="45.93474" lon="3.69903">
        <ele>1189.7</ele>
        <time>2022-08-29T09:27:04Z</time>
      </trkpt>
      <trkpt lat="45.93474" lon="3.69903">
        <ele>1189.7</ele>
        <time>2022-08-29T09:27:05Z</time>
      </trkpt>
      <trkpt lat="45.93474" lon="3.69903">
        <ele>1189.7</ele>
        <time>2022-08-29T09:27:06Z</time>
      </trkpt>
      <trkpt lat="45.93474" lon="3.69903">
        <ele>1189.7</ele>
        <time>2022-08-29T09:27:07Z</time>
      </trkpt>
      <trkpt lat="45.93474" lon="3.69903">
        <ele>1189.7</ele>
        <time>2022-08-29T09:27:08Z</time>
      </trkpt>
      <trkpt lat="45.93474" lon="3.69903">
        <ele>1189.6</ele>
        <time>2022-08-29T09:27:09Z</time>
      </trkpt>
      <trkpt lat="45.93474" lon="3.69903">
        <ele>1189.6</ele>
        <time>2022-08-29T09:27:10Z</time>
      </trkpt>
      <trkpt lat="45.93474" lon="3.69903">
        <ele>1189.6</ele>
        <time>2022-08-29T09:27:11Z</time>
      </trkpt>
      <trkpt lat="45.93474" lon="3.69903">
        <ele>1189.6</ele>
        <time>2022-08-29T09:27:12Z</time>
      </trkpt>
      <trkpt lat="45.93474" lon="3.69903">
        <ele>1189.6</ele>
        <time>2022-08-29T09:27:13Z</time>
      </trkpt>
      <trkpt lat="45.93474" lon="3.69903">
        <ele>1189.6</ele>
        <time>2022-08-29T09:27:14Z</time>
      </trkpt>
      <trkpt lat="45.93474" lon="3.69903">
        <ele>1189.6</ele>
        <time>2022-08-29T09:27:15Z</time>
      </trkpt>
      <trkpt lat="45.93474" lon="3.69903">
        <ele>1189.6</ele>
        <time>2022-08-29T09:27:16Z</time>
      </trkpt>
      <trkpt lat="45.93474" lon="3.69903">
        <ele>1189.6</ele>
        <time>2022-08-29T09:27:17Z</time>
      </trkpt>
      <trkpt lat="45.93474" lon="3.69903">
        <ele>1189.6</ele>
        <time>2022-08-29T09:27:18Z</time>
      </trkpt>
      <trkpt lat="45.93474" lon="3.69903">
        <ele>1189.6</ele>
        <time>2022-08-29T09:27:19Z</time>
      </trkpt>
      <trkpt lat="45.93474" lon="3.69903">
        <ele>1189.6</ele>
        <time>2022-08-29T09:27:20Z</time>
      </trkpt>
      <trkpt lat="45.93474" lon="3.69903">
        <ele>1189.6</ele>
        <time>2022-08-29T09:27:21Z</time>
      </trkpt>
      <trkpt lat="45.93474" lon="3.69903">
        <ele>1189.6</ele>
        <time>2022-08-29T09:27:22Z</time>
      </trkpt>
      <trkpt lat="45.93474" lon="3.69904">
        <ele>1189.6</ele>
        <time>2022-08-29T09:27:23Z</time>
      </trkpt>
      <trkpt lat="45.93474" lon="3.69904">
        <ele>1189.6</ele>
        <time>2022-08-29T09:27:24Z</time>
      </trkpt>
      <trkpt lat="45.93474" lon="3.69904">
        <ele>1189.6</ele>
        <time>2022-08-29T09:27:25Z</time>
      </trkpt>
      <trkpt lat="45.93474" lon="3.69904">
        <ele>1189.6</ele>
        <time>2022-08-29T09:27:26Z</time>
      </trkpt>
      <trkpt lat="45.93474" lon="3.69904">
        <ele>1189.6</ele>
        <time>2022-08-29T09:27:27Z</time>
      </trkpt>
      <trkpt lat="45.93474" lon="3.69904">
        <ele>1189.6</ele>
        <time>2022-08-29T09:27:28Z</time>
      </trkpt>
      <trkpt lat="45.93474" lon="3.69904">
        <ele>1189.6</ele>
        <time>2022-08-29T09:27:29Z</time>
      </trkpt>
      <trkpt lat="45.93474" lon="3.69904">
        <ele>1189.6</ele>
        <time>2022-08-29T09:27:30Z</time>
      </trkpt>
      <trkpt lat="45.93474" lon="3.69904">
        <ele>1189.6</ele>
        <time>2022-08-29T09:27:31Z</time>
      </trkpt>
      <trkpt lat="45.93474" lon="3.69904">
        <ele>1189.6</ele>
        <time>2022-08-29T09:27:32Z</time>
      </trkpt>
      <trkpt lat="45.93474" lon="3.69904">
        <ele>1189.6</ele>
        <time>2022-08-29T09:27:33Z</time>
      </trkpt>
      <trkpt lat="45.93474" lon="3.69904">
        <ele>1189.6</ele>
        <time>2022-08-29T09:27:34Z</time>
      </trkpt>
      <trkpt lat="45.93474" lon="3.69904">
        <ele>1189.6</ele>
        <time>2022-08-29T09:27:35Z</time>
      </trkpt>
      <trkpt lat="45.93474" lon="3.69904">
        <ele>1189.6</ele>
        <time>2022-08-29T09:27:36Z</time>
      </trkpt>
      <trkpt lat="45.93474" lon="3.69904">
        <ele>1189.6</ele>
        <time>2022-08-29T09:27:37Z</time>
      </trkpt>
      <trkpt lat="45.93474" lon="3.69904">
        <ele>1189.6</ele>
        <time>2022-08-29T09:27:38Z</time>
      </trkpt>
      <trkpt lat="45.93474" lon="3.69909">
        <ele>1189.6</ele>
        <time>2022-08-29T09:27:39Z</time>
      </trkpt>
      <trkpt lat="45.93474" lon="3.69911">
        <ele>1189.6</ele>
        <time>2022-08-29T09:27:40Z</time>
      </trkpt>
      <trkpt lat="45.93474" lon="3.69917">
        <ele>1189.6</ele>
        <time>2022-08-29T09:27:41Z</time>
      </trkpt>
      <trkpt lat="45.93475" lon="3.69919">
        <ele>1189.6</ele>
        <time>2022-08-29T09:27:42Z</time>
      </trkpt>
      <trkpt lat="45.93476" lon="3.69923">
        <ele>1189.7</ele>
        <time>2022-08-29T09:27:43Z</time>
      </trkpt>
      <trkpt lat="45.93477" lon="3.69928">
        <ele>1189.7</ele>
        <time>2022-08-29T09:27:44Z</time>
      </trkpt>
      <trkpt lat="45.93479" lon="3.69933">
        <ele>1189.7</ele>
        <time>2022-08-29T09:27:45Z</time>
      </trkpt>
      <trkpt lat="45.9348" lon="3.69937">
        <ele>1189.8</ele>
        <time>2022-08-29T09:27:46Z</time>
      </trkpt>
      <trkpt lat="45.93481" lon="3.69942">
        <ele>1189.9</ele>
        <time>2022-08-29T09:27:47Z</time>
      </trkpt>
      <trkpt lat="45.93483" lon="3.69946">
        <ele>1189.9</ele>
        <time>2022-08-29T09:27:48Z</time>
      </trkpt>
      <trkpt lat="45.93484" lon="3.69947">
        <ele>1190</ele>
        <time>2022-08-29T09:27:49Z</time>
      </trkpt>
      <trkpt lat="45.93485" lon="3.69949">
        <ele>1190</ele>
        <time>2022-08-29T09:27:50Z</time>
      </trkpt>
      <trkpt lat="45.93485" lon="3.6995">
        <ele>1190</ele>
        <time>2022-08-29T09:27:51Z</time>
      </trkpt>
      <trkpt lat="45.93486" lon="3.6995">
        <ele>1190</ele>
        <time>2022-08-29T09:27:52Z</time>
      </trkpt>
      <trkpt lat="45.93486" lon="3.6995">
        <ele>1190.1</ele>
        <time>2022-08-29T09:27:53Z</time>
      </trkpt>
      <trkpt lat="45.93486" lon="3.69951">
        <ele>1190.1</ele>
        <time>2022-08-29T09:27:54Z</time>
      </trkpt>
      <trkpt lat="45.93487" lon="3.69952">
        <ele>1190.1</ele>
        <time>2022-08-29T09:27:55Z</time>
      </trkpt>
      <trkpt lat="45.93487" lon="3.69953">
        <ele>1190.1</ele>
        <time>2022-08-29T09:27:56Z</time>
      </trkpt>
      <trkpt lat="45.93487" lon="3.69954">
        <ele>1190.1</ele>
        <time>2022-08-29T09:27:57Z</time>
      </trkpt>
      <trkpt lat="45.93487" lon="3.69955">
        <ele>1190.1</ele>
        <time>2022-08-29T09:27:58Z</time>
      </trkpt>
      <trkpt lat="45.93487" lon="3.69955">
        <ele>1190.1</ele>
        <time>2022-08-29T09:27:59Z</time>
      </trkpt>
      <trkpt lat="45.93487" lon="3.69958">
        <ele>1190.2</ele>
        <time>2022-08-29T09:28:00Z</time>
      </trkpt>
      <trkpt lat="45.93487" lon="3.6996">
        <ele>1190.2</ele>
        <time>2022-08-29T09:28:01Z</time>
      </trkpt>
      <trkpt lat="45.93487" lon="3.69962">
        <ele>1190.3</ele>
        <time>2022-08-29T09:28:02Z</time>
      </trkpt>
      <trkpt lat="45.93488" lon="3.69965">
        <ele>1190.3</ele>
        <time>2022-08-29T09:28:03Z</time>
      </trkpt>
      <trkpt lat="45.93489" lon="3.6997">
        <ele>1190.4</ele>
        <time>2022-08-29T09:28:04Z</time>
      </trkpt>
      <trkpt lat="45.93489" lon="3.69972">
        <ele>1190.5</ele>
        <time>2022-08-29T09:28:05Z</time>
      </trkpt>
      <trkpt lat="45.9349" lon="3.69976">
        <ele>1190.6</ele>
        <time>2022-08-29T09:28:06Z</time>
      </trkpt>
      <trkpt lat="45.93491" lon="3.6998">
        <ele>1190.7</ele>
        <time>2022-08-29T09:28:07Z</time>
      </trkpt>
      <trkpt lat="45.93491" lon="3.69984">
        <ele>1190.8</ele>
        <time>2022-08-29T09:28:08Z</time>
      </trkpt>
      <trkpt lat="45.93491" lon="3.69986">
        <ele>1190.8</ele>
        <time>2022-08-29T09:28:09Z</time>
      </trkpt>
      <trkpt lat="45.9349" lon="3.69988">
        <ele>1190.9</ele>
        <time>2022-08-29T09:28:10Z</time>
      </trkpt>
      <trkpt lat="45.9349" lon="3.6999">
        <ele>1190.9</ele>
        <time>2022-08-29T09:28:11Z</time>
      </trkpt>
      <trkpt lat="45.9349" lon="3.69991">
        <ele>1191</ele>
        <time>2022-08-29T09:28:12Z</time>
      </trkpt>
      <trkpt lat="45.9349" lon="3.69991">
        <ele>1191</ele>
        <time>2022-08-29T09:28:13Z</time>
      </trkpt>
      <trkpt lat="45.9349" lon="3.69992">
        <ele>1191</ele>
        <time>2022-08-29T09:28:14Z</time>
      </trkpt>
      <trkpt lat="45.9349" lon="3.69993">
        <ele>1191</ele>
        <time>2022-08-29T09:28:15Z</time>
      </trkpt>
      <trkpt lat="45.9349" lon="3.69994">
        <ele>1191.1</ele>
        <time>2022-08-29T09:28:16Z</time>
      </trkpt>
      <trkpt lat="45.9349" lon="3.69996">
        <ele>1191.1</ele>
        <time>2022-08-29T09:28:17Z</time>
      </trkpt>
      <trkpt lat="45.9349" lon="3.69998">
        <ele>1191.2</ele>
        <time>2022-08-29T09:28:18Z</time>
      </trkpt>
      <trkpt lat="45.9349" lon="3.70001">
        <ele>1191.3</ele>
        <time>2022-08-29T09:28:19Z</time>
      </trkpt>
      <trkpt lat="45.9349" lon="3.70003">
        <ele>1191.4</ele>
        <time>2022-08-29T09:28:20Z</time>
      </trkpt>
      <trkpt lat="45.9349" lon="3.70007">
        <ele>1191.6</ele>
        <time>2022-08-29T09:28:21Z</time>
      </trkpt>
      <trkpt lat="45.9349" lon="3.70009">
        <ele>1191.7</ele>
        <time>2022-08-29T09:28:22Z</time>
      </trkpt>
      <trkpt lat="45.9349" lon="3.70011">
        <ele>1191.8</ele>
        <time>2022-08-29T09:28:23Z</time>
      </trkpt>
      <trkpt lat="45.9349" lon="3.70013">
        <ele>1191.8</ele>
        <time>2022-08-29T09:28:24Z</time>
      </trkpt>
      <trkpt lat="45.9349" lon="3.70015">
        <ele>1191.9</ele>
        <time>2022-08-29T09:28:25Z</time>
      </trkpt>
      <trkpt lat="45.93489" lon="3.70016">
        <ele>1191.9</ele>
        <time>2022-08-29T09:28:26Z</time>
      </trkpt>
      <trkpt lat="45.93489" lon="3.70017">
        <ele>1192</ele>
        <time>2022-08-29T09:28:27Z</time>
      </trkpt>
      <trkpt lat="45.93489" lon="3.70018">
        <ele>1192</ele>
        <time>2022-08-29T09:28:28Z</time>
      </trkpt>
      <trkpt lat="45.93489" lon="3.70019">
        <ele>1192</ele>
        <time>2022-08-29T09:28:29Z</time>
      </trkpt>
      <trkpt lat="45.93489" lon="3.70021">
        <ele>1192.1</ele>
        <time>2022-08-29T09:28:30Z</time>
      </trkpt>
      <trkpt lat="45.93488" lon="3.70023">
        <ele>1192.2</ele>
        <time>2022-08-29T09:28:31Z</time>
      </trkpt>
      <trkpt lat="45.93487" lon="3.70027">
        <ele>1192.3</ele>
        <time>2022-08-29T09:28:32Z</time>
      </trkpt>
      <trkpt lat="45.93487" lon="3.70028">
        <ele>1192.4</ele>
        <time>2022-08-29T09:28:33Z</time>
      </trkpt>
      <trkpt lat="45.93485" lon="3.70033">
        <ele>1192.5</ele>
        <time>2022-08-29T09:28:34Z</time>
      </trkpt>
      <trkpt lat="45.93485" lon="3.70034">
        <ele>1192.6</ele>
        <time>2022-08-29T09:28:35Z</time>
      </trkpt>
      <trkpt lat="45.93484" lon="3.70036">
        <ele>1192.6</ele>
        <time>2022-08-29T09:28:36Z</time>
      </trkpt>
      <trkpt lat="45.93483" lon="3.70037">
        <ele>1192.7</ele>
        <time>2022-08-29T09:28:37Z</time>
      </trkpt>
      <trkpt lat="45.93483" lon="3.70038">
        <ele>1192.7</ele>
        <time>2022-08-29T09:28:38Z</time>
      </trkpt>
      <trkpt lat="45.93483" lon="3.70038">
        <ele>1192.7</ele>
        <time>2022-08-29T09:28:39Z</time>
      </trkpt>
      <trkpt lat="45.93482" lon="3.70039">
        <ele>1192.7</ele>
        <time>2022-08-29T09:28:40Z</time>
      </trkpt>
      <trkpt lat="45.93482" lon="3.7004">
        <ele>1192.7</ele>
        <time>2022-08-29T09:28:41Z</time>
      </trkpt>
      <trkpt lat="45.93481" lon="3.70041">
        <ele>1192.8</ele>
        <time>2022-08-29T09:28:42Z</time>
      </trkpt>
      <trkpt lat="45.9348" lon="3.70043">
        <ele>1192.8</ele>
        <time>2022-08-29T09:28:43Z</time>
      </trkpt>
      <trkpt lat="45.93479" lon="3.70045">
        <ele>1192.9</ele>
        <time>2022-08-29T09:28:44Z</time>
      </trkpt>
      <trkpt lat="45.93478" lon="3.70049">
        <ele>1192.9</ele>
        <time>2022-08-29T09:28:45Z</time>
      </trkpt>
      <trkpt lat="45.93478" lon="3.7005">
        <ele>1193</ele>
        <time>2022-08-29T09:28:46Z</time>
      </trkpt>
      <trkpt lat="45.93477" lon="3.70055">
        <ele>1193.1</ele>
        <time>2022-08-29T09:28:47Z</time>
      </trkpt>
      <trkpt lat="45.93477" lon="3.70056">
        <ele>1193.1</ele>
        <time>2022-08-29T09:28:48Z</time>
      </trkpt>
      <trkpt lat="45.93477" lon="3.70058">
        <ele>1193.1</ele>
        <time>2022-08-29T09:28:49Z</time>
      </trkpt>
      <trkpt lat="45.93477" lon="3.70059">
        <ele>1193.1</ele>
        <time>2022-08-29T09:28:50Z</time>
      </trkpt>
      <trkpt lat="45.93477" lon="3.7006">
        <ele>1193.2</ele>
        <time>2022-08-29T09:28:51Z</time>
      </trkpt>
      <trkpt lat="45.93477" lon="3.70062">
        <ele>1193.2</ele>
        <time>2022-08-29T09:28:52Z</time>
      </trkpt>
      <trkpt lat="45.93477" lon="3.70063">
        <ele>1193.2</ele>
        <time>2022-08-29T09:28:53Z</time>
      </trkpt>
      <trkpt lat="45.93477" lon="3.70065">
        <ele>1193.2</ele>
        <time>2022-08-29T09:28:54Z</time>
      </trkpt>
      <trkpt lat="45.93477" lon="3.70066">
        <ele>1193.2</ele>
        <time>2022-08-29T09:28:55Z</time>
      </trkpt>
      <trkpt lat="45.93477" lon="3.70068">
        <ele>1193.3</ele>
        <time>2022-08-29T09:28:56Z</time>
      </trkpt>
      <trkpt lat="45.93476" lon="3.7007">
        <ele>1193.3</ele>
        <time>2022-08-29T09:28:57Z</time>
      </trkpt>
      <trkpt lat="45.93475" lon="3.70074">
        <ele>1193.4</ele>
        <time>2022-08-29T09:28:58Z</time>
      </trkpt>
      <trkpt lat="45.93475" lon="3.70075">
        <ele>1193.4</ele>
        <time>2022-08-29T09:28:59Z</time>
      </trkpt>
      <trkpt lat="45.93474" lon="3.7008">
        <ele>1193.5</ele>
        <time>2022-08-29T09:29:00Z</time>
      </trkpt>
      <trkpt lat="45.93474" lon="3.70081">
        <ele>1193.5</ele>
        <time>2022-08-29T09:29:01Z</time>
      </trkpt>
      <trkpt lat="45.93473" lon="3.70083">
        <ele>1193.5</ele>
        <time>2022-08-29T09:29:02Z</time>
      </trkpt>
      <trkpt lat="45.93473" lon="3.70085">
        <ele>1193.6</ele>
        <time>2022-08-29T09:29:03Z</time>
      </trkpt>
      <trkpt lat="45.93473" lon="3.70086">
        <ele>1193.6</ele>
        <time>2022-08-29T09:29:04Z</time>
      </trkpt>
      <trkpt lat="45.93473" lon="3.70087">
        <ele>1193.6</ele>
        <time>2022-08-29T09:29:06Z</time>
      </trkpt>
      <trkpt lat="45.93473" lon="3.70088">
        <ele>1193.6</ele>
        <time>2022-08-29T09:29:07Z</time>
      </trkpt>
      <trkpt lat="45.93473" lon="3.70088">
        <ele>1193.6</ele>
        <time>2022-08-29T09:29:08Z</time>
      </trkpt>
      <trkpt lat="45.93473" lon="3.70089">
        <ele>1193.7</ele>
        <time>2022-08-29T09:29:09Z</time>
      </trkpt>
      <trkpt lat="45.93473" lon="3.70093">
        <ele>1193.7</ele>
        <time>2022-08-29T09:29:10Z</time>
      </trkpt>
      <trkpt lat="45.93473" lon="3.70094">
        <ele>1193.8</ele>
        <time>2022-08-29T09:29:11Z</time>
      </trkpt>
      <trkpt lat="45.93473" lon="3.70095">
        <ele>1193.8</ele>
        <time>2022-08-29T09:29:12Z</time>
      </trkpt>
      <trkpt lat="45.93473" lon="3.70098">
        <ele>1193.8</ele>
        <time>2022-08-29T09:29:13Z</time>
      </trkpt>
      <trkpt lat="45.93472" lon="3.701">
        <ele>1193.9</ele>
        <time>2022-08-29T09:29:14Z</time>
      </trkpt>
      <trkpt lat="45.93472" lon="3.70102">
        <ele>1193.9</ele>
        <time>2022-08-29T09:29:15Z</time>
      </trkpt>
      <trkpt lat="45.93473" lon="3.70104">
        <ele>1194</ele>
        <time>2022-08-29T09:29:16Z</time>
      </trkpt>
      <trkpt lat="45.93473" lon="3.70107">
        <ele>1194</ele>
        <time>2022-08-29T09:29:17Z</time>
      </trkpt>
      <trkpt lat="45.93474" lon="3.70108">
        <ele>1194.1</ele>
        <time>2022-08-29T09:29:18Z</time>
      </trkpt>
      <trkpt lat="45.93474" lon="3.7011">
        <ele>1194.1</ele>
        <time>2022-08-29T09:29:19Z</time>
      </trkpt>
      <trkpt lat="45.93474" lon="3.70111">
        <ele>1194.1</ele>
        <time>2022-08-29T09:29:20Z</time>
      </trkpt>
      <trkpt lat="45.93473" lon="3.70112">
        <ele>1194.2</ele>
        <time>2022-08-29T09:29:21Z</time>
      </trkpt>
      <trkpt lat="45.93473" lon="3.70113">
        <ele>1194.2</ele>
        <time>2022-08-29T09:29:22Z</time>
      </trkpt>
      <trkpt lat="45.93473" lon="3.70114">
        <ele>1194.2</ele>
        <time>2022-08-29T09:29:23Z</time>
      </trkpt>
      <trkpt lat="45.93473" lon="3.70117">
        <ele>1194.2</ele>
        <time>2022-08-29T09:29:24Z</time>
      </trkpt>
      <trkpt lat="45.93472" lon="3.70119">
        <ele>1194.3</ele>
        <time>2022-08-29T09:29:25Z</time>
      </trkpt>
      <trkpt lat="45.93471" lon="3.70121">
        <ele>1194.3</ele>
        <time>2022-08-29T09:29:26Z</time>
      </trkpt>
      <trkpt lat="45.9347" lon="3.70123">
        <ele>1194.3</ele>
        <time>2022-08-29T09:29:27Z</time>
      </trkpt>
      <trkpt lat="45.9347" lon="3.70125">
        <ele>1194.3</ele>
        <time>2022-08-29T09:29:28Z</time>
      </trkpt>
      <trkpt lat="45.9347" lon="3.70128">
        <ele>1194.4</ele>
        <time>2022-08-29T09:29:29Z</time>
      </trkpt>
      <trkpt lat="45.9347" lon="3.70132">
        <ele>1194.4</ele>
        <time>2022-08-29T09:29:30Z</time>
      </trkpt>
      <trkpt lat="45.9347" lon="3.70133">
        <ele>1194.4</ele>
        <time>2022-08-29T09:29:31Z</time>
      </trkpt>
      <trkpt lat="45.93469" lon="3.70136">
        <ele>1194.4</ele>
        <time>2022-08-29T09:29:32Z</time>
      </trkpt>
      <trkpt lat="45.93469" lon="3.70138">
        <ele>1194.4</ele>
        <time>2022-08-29T09:29:33Z</time>
      </trkpt>
      <trkpt lat="45.93469" lon="3.7014">
        <ele>1194.4</ele>
        <time>2022-08-29T09:29:34Z</time>
      </trkpt>
      <trkpt lat="45.93469" lon="3.70141">
        <ele>1194.4</ele>
        <time>2022-08-29T09:29:35Z</time>
      </trkpt>
      <trkpt lat="45.93469" lon="3.70143">
        <ele>1194.4</ele>
        <time>2022-08-29T09:29:36Z</time>
      </trkpt>
      <trkpt lat="45.93468" lon="3.70145">
        <ele>1194.4</ele>
        <time>2022-08-29T09:29:37Z</time>
      </trkpt>
      <trkpt lat="45.93468" lon="3.70146">
        <ele>1194.4</ele>
        <time>2022-08-29T09:29:38Z</time>
      </trkpt>
      <trkpt lat="45.93468" lon="3.70147">
        <ele>1194.4</ele>
        <time>2022-08-29T09:29:39Z</time>
      </trkpt>
      <trkpt lat="45.93468" lon="3.70148">
        <ele>1194.4</ele>
        <time>2022-08-29T09:29:40Z</time>
      </trkpt>
      <trkpt lat="45.93468" lon="3.70152">
        <ele>1194.4</ele>
        <time>2022-08-29T09:29:41Z</time>
      </trkpt>
      <trkpt lat="45.93468" lon="3.70153">
        <ele>1194.4</ele>
        <time>2022-08-29T09:29:42Z</time>
      </trkpt>
      <trkpt lat="45.93468" lon="3.70156">
        <ele>1194.4</ele>
        <time>2022-08-29T09:29:43Z</time>
      </trkpt>
      <trkpt lat="45.93469" lon="3.70158">
        <ele>1194.4</ele>
        <time>2022-08-29T09:29:44Z</time>
      </trkpt>
      <trkpt lat="45.93469" lon="3.7016">
        <ele>1194.4</ele>
        <time>2022-08-29T09:29:45Z</time>
      </trkpt>
      <trkpt lat="45.93468" lon="3.70163">
        <ele>1194.4</ele>
        <time>2022-08-29T09:29:46Z</time>
      </trkpt>
      <trkpt lat="45.93468" lon="3.70168">
        <ele>1194.5</ele>
        <time>2022-08-29T09:29:47Z</time>
      </trkpt>
      <trkpt lat="45.93468" lon="3.70169">
        <ele>1194.5</ele>
        <time>2022-08-29T09:29:48Z</time>
      </trkpt>
      <trkpt lat="45.93468" lon="3.70174">
        <ele>1194.5</ele>
        <time>2022-08-29T09:29:49Z</time>
      </trkpt>
      <trkpt lat="45.93467" lon="3.70178">
        <ele>1194.5</ele>
        <time>2022-08-29T09:29:50Z</time>
      </trkpt>
      <trkpt lat="45.93467" lon="3.70182">
        <ele>1194.5</ele>
        <time>2022-08-29T09:29:51Z</time>
      </trkpt>
      <trkpt lat="45.93467" lon="3.70187">
        <ele>1194.5</ele>
        <time>2022-08-29T09:29:52Z</time>
      </trkpt>
      <trkpt lat="45.93467" lon="3.70188">
        <ele>1194.5</ele>
        <time>2022-08-29T09:29:53Z</time>
      </trkpt>
      <trkpt lat="45.93467" lon="3.7019">
        <ele>1194.5</ele>
        <time>2022-08-29T09:29:54Z</time>
      </trkpt>
      <trkpt lat="45.93467" lon="3.70192">
        <ele>1194.5</ele>
        <time>2022-08-29T09:29:55Z</time>
      </trkpt>
      <trkpt lat="45.93467" lon="3.70192">
        <ele>1194.5</ele>
        <time>2022-08-29T09:29:56Z</time>
      </trkpt>
      <trkpt lat="45.93467" lon="3.70193">
        <ele>1194.5</ele>
        <time>2022-08-29T09:29:57Z</time>
      </trkpt>
      <trkpt lat="45.93467" lon="3.70194">
        <ele>1194.5</ele>
        <time>2022-08-29T09:29:58Z</time>
      </trkpt>
      <trkpt lat="45.93466" lon="3.70195">
        <ele>1194.5</ele>
        <time>2022-08-29T09:29:59Z</time>
      </trkpt>
      <trkpt lat="45.93466" lon="3.70197">
        <ele>1194.5</ele>
        <time>2022-08-29T09:30:00Z</time>
      </trkpt>
      <trkpt lat="45.93466" lon="3.70199">
        <ele>1194.5</ele>
        <time>2022-08-29T09:30:01Z</time>
      </trkpt>
      <trkpt lat="45.93466" lon="3.70201">
        <ele>1194.5</ele>
        <time>2022-08-29T09:30:02Z</time>
      </trkpt>
      <trkpt lat="45.93466" lon="3.70203">
        <ele>1194.5</ele>
        <time>2022-08-29T09:30:03Z</time>
      </trkpt>
      <trkpt lat="45.93465" lon="3.70205">
        <ele>1194.5</ele>
        <time>2022-08-29T09:30:04Z</time>
      </trkpt>
      <trkpt lat="45.93465" lon="3.70207">
        <ele>1194.5</ele>
        <time>2022-08-29T09:30:05Z</time>
      </trkpt>
      <trkpt lat="45.93465" lon="3.7021">
        <ele>1194.5</ele>
        <time>2022-08-29T09:30:06Z</time>
      </trkpt>
      <trkpt lat="45.93464" lon="3.70215">
        <ele>1194.5</ele>
        <time>2022-08-29T09:30:07Z</time>
      </trkpt>
      <trkpt lat="45.93464" lon="3.70216">
        <ele>1194.5</ele>
        <time>2022-08-29T09:30:08Z</time>
      </trkpt>
      <trkpt lat="45.93464" lon="3.70222">
        <ele>1194.5</ele>
        <time>2022-08-29T09:30:09Z</time>
      </trkpt>
      <trkpt lat="45.93464" lon="3.70224">
        <ele>1194.5</ele>
        <time>2022-08-29T09:30:10Z</time>
      </trkpt>
      <trkpt lat="45.93464" lon="3.70228">
        <ele>1194.5</ele>
        <time>2022-08-29T09:30:11Z</time>
      </trkpt>
      <trkpt lat="45.93464" lon="3.70229">
        <ele>1194.5</ele>
        <time>2022-08-29T09:30:12Z</time>
      </trkpt>
      <trkpt lat="45.93464" lon="3.7023">
        <ele>1194.5</ele>
        <time>2022-08-29T09:30:13Z</time>
      </trkpt>
      <trkpt lat="45.93464" lon="3.70231">
        <ele>1194.5</ele>
        <time>2022-08-29T09:30:14Z</time>
      </trkpt>
      <trkpt lat="45.93463" lon="3.70232">
        <ele>1194.5</ele>
        <time>2022-08-29T09:30:15Z</time>
      </trkpt>
      <trkpt lat="45.93463" lon="3.70232">
        <ele>1194.5</ele>
        <time>2022-08-29T09:30:16Z</time>
      </trkpt>
      <trkpt lat="45.93462" lon="3.70232">
        <ele>1194.5</ele>
        <time>2022-08-29T09:30:17Z</time>
      </trkpt>
      <trkpt lat="45.9346" lon="3.70233">
        <ele>1194.5</ele>
        <time>2022-08-29T09:30:18Z</time>
      </trkpt>
      <trkpt lat="45.93459" lon="3.70234">
        <ele>1194.5</ele>
        <time>2022-08-29T09:30:19Z</time>
      </trkpt>
      <trkpt lat="45.93459" lon="3.70235">
        <ele>1194.5</ele>
        <time>2022-08-29T09:30:20Z</time>
      </trkpt>
      <trkpt lat="45.93458" lon="3.70236">
        <ele>1194.5</ele>
        <time>2022-08-29T09:30:21Z</time>
      </trkpt>
      <trkpt lat="45.93457" lon="3.70238">
        <ele>1194.5</ele>
        <time>2022-08-29T09:30:22Z</time>
      </trkpt>
      <trkpt lat="45.93456" lon="3.70241">
        <ele>1194.5</ele>
        <time>2022-08-29T09:30:23Z</time>
      </trkpt>
      <trkpt lat="45.93456" lon="3.70243">
        <ele>1194.5</ele>
        <time>2022-08-29T09:30:24Z</time>
      </trkpt>
      <trkpt lat="45.93455" lon="3.70244">
        <ele>1194.5</ele>
        <time>2022-08-29T09:30:25Z</time>
      </trkpt>
      <trkpt lat="45.93455" lon="3.70249">
        <ele>1194.4</ele>
        <time>2022-08-29T09:30:26Z</time>
      </trkpt>
      <trkpt lat="45.93456" lon="3.70251">
        <ele>1194.4</ele>
        <time>2022-08-29T09:30:27Z</time>
      </trkpt>
      <trkpt lat="45.93456" lon="3.70255">
        <ele>1194.4</ele>
        <time>2022-08-29T09:30:28Z</time>
      </trkpt>
      <trkpt lat="45.93456" lon="3.70257">
        <ele>1194.5</ele>
        <time>2022-08-29T09:30:29Z</time>
      </trkpt>
      <trkpt lat="45.93456" lon="3.70259">
        <ele>1194.5</ele>
        <time>2022-08-29T09:30:30Z</time>
      </trkpt>
      <trkpt lat="45.93457" lon="3.7026">
        <ele>1194.5</ele>
        <time>2022-08-29T09:30:31Z</time>
      </trkpt>
      <trkpt lat="45.93456" lon="3.70262">
        <ele>1194.5</ele>
        <time>2022-08-29T09:30:32Z</time>
      </trkpt>
      <trkpt lat="45.93456" lon="3.70263">
        <ele>1194.5</ele>
        <time>2022-08-29T09:30:33Z</time>
      </trkpt>
      <trkpt lat="45.93456" lon="3.70263">
        <ele>1194.5</ele>
        <time>2022-08-29T09:30:34Z</time>
      </trkpt>
      <trkpt lat="45.93456" lon="3.70264">
        <ele>1194.5</ele>
        <time>2022-08-29T09:30:35Z</time>
      </trkpt>
      <trkpt lat="45.93455" lon="3.70266">
        <ele>1194.5</ele>
        <time>2022-08-29T09:30:36Z</time>
      </trkpt>
      <trkpt lat="45.93455" lon="3.70267">
        <ele>1194.5</ele>
        <time>2022-08-29T09:30:37Z</time>
      </trkpt>
      <trkpt lat="45.93454" lon="3.70269">
        <ele>1194.5</ele>
        <time>2022-08-29T09:30:38Z</time>
      </trkpt>
      <trkpt lat="45.93454" lon="3.70271">
        <ele>1194.6</ele>
        <time>2022-08-29T09:30:39Z</time>
      </trkpt>
      <trkpt lat="45.93453" lon="3.70272">
        <ele>1194.6</ele>
        <time>2022-08-29T09:30:40Z</time>
      </trkpt>
      <trkpt lat="45.93452" lon="3.70274">
        <ele>1194.6</ele>
        <time>2022-08-29T09:30:41Z</time>
      </trkpt>
      <trkpt lat="45.93451" lon="3.70276">
        <ele>1194.6</ele>
        <time>2022-08-29T09:30:42Z</time>
      </trkpt>
      <trkpt lat="45.9345" lon="3.70281">
        <ele>1194.7</ele>
        <time>2022-08-29T09:30:43Z</time>
      </trkpt>
      <trkpt lat="45.9345" lon="3.70282">
        <ele>1194.7</ele>
        <time>2022-08-29T09:30:44Z</time>
      </trkpt>
      <trkpt lat="45.93449" lon="3.70287">
        <ele>1194.8</ele>
        <time>2022-08-29T09:30:45Z</time>
      </trkpt>
      <trkpt lat="45.93449" lon="3.70289">
        <ele>1194.8</ele>
        <time>2022-08-29T09:30:46Z</time>
      </trkpt>
      <trkpt lat="45.93449" lon="3.70291">
        <ele>1194.8</ele>
        <time>2022-08-29T09:30:47Z</time>
      </trkpt>
      <trkpt lat="45.93449" lon="3.70294">
        <ele>1194.9</ele>
        <time>2022-08-29T09:30:48Z</time>
      </trkpt>
      <trkpt lat="45.93448" lon="3.70297">
        <ele>1194.9</ele>
        <time>2022-08-29T09:30:49Z</time>
      </trkpt>
      <trkpt lat="45.93448" lon="3.70298">
        <ele>1194.9</ele>
        <time>2022-08-29T09:30:50Z</time>
      </trkpt>
      <trkpt lat="45.93448" lon="3.70299">
        <ele>1194.9</ele>
        <time>2022-08-29T09:30:51Z</time>
      </trkpt>
      <trkpt lat="45.93447" lon="3.70301">
        <ele>1195</ele>
        <time>2022-08-29T09:30:52Z</time>
      </trkpt>
      <trkpt lat="45.93446" lon="3.70302">
        <ele>1195</ele>
        <time>2022-08-29T09:30:53Z</time>
      </trkpt>
      <trkpt lat="45.93445" lon="3.70304">
        <ele>1195</ele>
        <time>2022-08-29T09:30:54Z</time>
      </trkpt>
      <trkpt lat="45.93445" lon="3.70306">
        <ele>1195.1</ele>
        <time>2022-08-29T09:30:55Z</time>
      </trkpt>
      <trkpt lat="45.93444" lon="3.70308">
        <ele>1195.1</ele>
        <time>2022-08-29T09:30:56Z</time>
      </trkpt>
      <trkpt lat="45.93444" lon="3.7031">
        <ele>1195.1</ele>
        <time>2022-08-29T09:30:57Z</time>
      </trkpt>
      <trkpt lat="45.93443" lon="3.70312">
        <ele>1195.1</ele>
        <time>2022-08-29T09:30:58Z</time>
      </trkpt>
      <trkpt lat="45.93443" lon="3.70314">
        <ele>1195.2</ele>
        <time>2022-08-29T09:30:59Z</time>
      </trkpt>
      <trkpt lat="45.93443" lon="3.70316">
        <ele>1195.2</ele>
        <time>2022-08-29T09:31:00Z</time>
      </trkpt>
      <trkpt lat="45.93443" lon="3.70318">
        <ele>1195.2</ele>
        <time>2022-08-29T09:31:01Z</time>
      </trkpt>
      <trkpt lat="45.93443" lon="3.7032">
        <ele>1195.3</ele>
        <time>2022-08-29T09:31:02Z</time>
      </trkpt>
      <trkpt lat="45.93442" lon="3.70322">
        <ele>1195.3</ele>
        <time>2022-08-29T09:31:03Z</time>
      </trkpt>
      <trkpt lat="45.93442" lon="3.70324">
        <ele>1195.3</ele>
        <time>2022-08-29T09:31:04Z</time>
      </trkpt>
      <trkpt lat="45.93442" lon="3.70326">
        <ele>1195.4</ele>
        <time>2022-08-29T09:31:05Z</time>
      </trkpt>
      <trkpt lat="45.93442" lon="3.70327">
        <ele>1195.4</ele>
        <time>2022-08-29T09:31:06Z</time>
      </trkpt>
      <trkpt lat="45.93441" lon="3.70329">
        <ele>1195.4</ele>
        <time>2022-08-29T09:31:07Z</time>
      </trkpt>
      <trkpt lat="45.93441" lon="3.7033">
        <ele>1195.4</ele>
        <time>2022-08-29T09:31:08Z</time>
      </trkpt>
      <trkpt lat="45.9344" lon="3.70331">
        <ele>1195.5</ele>
        <time>2022-08-29T09:31:09Z</time>
      </trkpt>
      <trkpt lat="45.9344" lon="3.70333">
        <ele>1195.5</ele>
        <time>2022-08-29T09:31:10Z</time>
      </trkpt>
      <trkpt lat="45.9344" lon="3.70334">
        <ele>1195.5</ele>
        <time>2022-08-29T09:31:11Z</time>
      </trkpt>
      <trkpt lat="45.93439" lon="3.70335">
        <ele>1195.5</ele>
        <time>2022-08-29T09:31:12Z</time>
      </trkpt>
      <trkpt lat="45.93439" lon="3.70337">
        <ele>1195.6</ele>
        <time>2022-08-29T09:31:13Z</time>
      </trkpt>
      <trkpt lat="45.93439" lon="3.70338">
        <ele>1195.6</ele>
        <time>2022-08-29T09:31:14Z</time>
      </trkpt>
      <trkpt lat="45.93438" lon="3.7034">
        <ele>1195.6</ele>
        <time>2022-08-29T09:31:15Z</time>
      </trkpt>
      <trkpt lat="45.93438" lon="3.70343">
        <ele>1195.7</ele>
        <time>2022-08-29T09:31:16Z</time>
      </trkpt>
      <trkpt lat="45.93438" lon="3.70344">
        <ele>1195.7</ele>
        <time>2022-08-29T09:31:17Z</time>
      </trkpt>
      <trkpt lat="45.93438" lon="3.70345">
        <ele>1195.7</ele>
        <time>2022-08-29T09:31:18Z</time>
      </trkpt>
      <trkpt lat="45.93438" lon="3.70347">
        <ele>1195.8</ele>
        <time>2022-08-29T09:31:19Z</time>
      </trkpt>
      <trkpt lat="45.93438" lon="3.70349">
        <ele>1195.8</ele>
        <time>2022-08-29T09:31:20Z</time>
      </trkpt>
      <trkpt lat="45.93437" lon="3.7035">
        <ele>1195.8</ele>
        <time>2022-08-29T09:31:21Z</time>
      </trkpt>
      <trkpt lat="45.93437" lon="3.70351">
        <ele>1195.8</ele>
        <time>2022-08-29T09:31:22Z</time>
      </trkpt>
      <trkpt lat="45.93436" lon="3.70352">
        <ele>1195.9</ele>
        <time>2022-08-29T09:31:23Z</time>
      </trkpt>
      <trkpt lat="45.93436" lon="3.70354">
        <ele>1195.9</ele>
        <time>2022-08-29T09:31:24Z</time>
      </trkpt>
      <trkpt lat="45.93435" lon="3.70355">
        <ele>1195.9</ele>
        <time>2022-08-29T09:31:25Z</time>
      </trkpt>
      <trkpt lat="45.93435" lon="3.70357">
        <ele>1196</ele>
        <time>2022-08-29T09:31:26Z</time>
      </trkpt>
      <trkpt lat="45.93434" lon="3.70359">
        <ele>1196</ele>
        <time>2022-08-29T09:31:27Z</time>
      </trkpt>
      <trkpt lat="45.93434" lon="3.70361">
        <ele>1196.1</ele>
        <time>2022-08-29T09:31:28Z</time>
      </trkpt>
      <trkpt lat="45.93434" lon="3.70363">
        <ele>1196.1</ele>
        <time>2022-08-29T09:31:29Z</time>
      </trkpt>
      <trkpt lat="45.93434" lon="3.70365">
        <ele>1196.2</ele>
        <time>2022-08-29T09:31:30Z</time>
      </trkpt>
      <trkpt lat="45.93433" lon="3.70367">
        <ele>1196.2</ele>
        <time>2022-08-29T09:31:31Z</time>
      </trkpt>
      <trkpt lat="45.93433" lon="3.70369">
        <ele>1196.3</ele>
        <time>2022-08-29T09:31:32Z</time>
      </trkpt>
      <trkpt lat="45.93432" lon="3.70372">
        <ele>1196.4</ele>
        <time>2022-08-29T09:31:34Z</time>
      </trkpt>
      <trkpt lat="45.93432" lon="3.70373">
        <ele>1196.4</ele>
        <time>2022-08-29T09:31:35Z</time>
      </trkpt>
      <trkpt lat="45.93431" lon="3.70375">
        <ele>1196.4</ele>
        <time>2022-08-29T09:31:36Z</time>
      </trkpt>
      <trkpt lat="45.93431" lon="3.70378">
        <ele>1196.5</ele>
        <time>2022-08-29T09:31:37Z</time>
      </trkpt>
      <trkpt lat="45.9343" lon="3.70379">
        <ele>1196.5</ele>
        <time>2022-08-29T09:31:38Z</time>
      </trkpt>
      <trkpt lat="45.9343" lon="3.7038">
        <ele>1196.6</ele>
        <time>2022-08-29T09:31:39Z</time>
      </trkpt>
      <trkpt lat="45.93429" lon="3.70383">
        <ele>1196.6</ele>
        <time>2022-08-29T09:31:40Z</time>
      </trkpt>
      <trkpt lat="45.93429" lon="3.70384">
        <ele>1196.6</ele>
        <time>2022-08-29T09:31:41Z</time>
      </trkpt>
      <trkpt lat="45.93429" lon="3.70385">
        <ele>1196.7</ele>
        <time>2022-08-29T09:31:42Z</time>
      </trkpt>
      <trkpt lat="45.93428" lon="3.70387">
        <ele>1196.7</ele>
        <time>2022-08-29T09:31:43Z</time>
      </trkpt>
      <trkpt lat="45.93427" lon="3.70388">
        <ele>1196.7</ele>
        <time>2022-08-29T09:31:44Z</time>
      </trkpt>
      <trkpt lat="45.93426" lon="3.7039">
        <ele>1196.8</ele>
        <time>2022-08-29T09:31:45Z</time>
      </trkpt>
      <trkpt lat="45.93426" lon="3.70392">
        <ele>1196.8</ele>
        <time>2022-08-29T09:31:46Z</time>
      </trkpt>
      <trkpt lat="45.93425" lon="3.70394">
        <ele>1196.8</ele>
        <time>2022-08-29T09:31:47Z</time>
      </trkpt>
      <trkpt lat="45.93425" lon="3.70396">
        <ele>1196.9</ele>
        <time>2022-08-29T09:31:48Z</time>
      </trkpt>
      <trkpt lat="45.93424" lon="3.70397">
        <ele>1196.9</ele>
        <time>2022-08-29T09:31:49Z</time>
      </trkpt>
      <trkpt lat="45.93424" lon="3.70399">
        <ele>1196.9</ele>
        <time>2022-08-29T09:31:50Z</time>
      </trkpt>
      <trkpt lat="45.93423" lon="3.704">
        <ele>1197</ele>
        <time>2022-08-29T09:31:51Z</time>
      </trkpt>
      <trkpt lat="45.93423" lon="3.70403">
        <ele>1197</ele>
        <time>2022-08-29T09:31:52Z</time>
      </trkpt>
      <trkpt lat="45.93422" lon="3.70404">
        <ele>1197</ele>
        <time>2022-08-29T09:31:53Z</time>
      </trkpt>
      <trkpt lat="45.93422" lon="3.70405">
        <ele>1197</ele>
        <time>2022-08-29T09:31:54Z</time>
      </trkpt>
      <trkpt lat="45.93422" lon="3.70407">
        <ele>1197.1</ele>
        <time>2022-08-29T09:31:55Z</time>
      </trkpt>
      <trkpt lat="45.93421" lon="3.70409">
        <ele>1197.1</ele>
        <time>2022-08-29T09:31:56Z</time>
      </trkpt>
      <trkpt lat="45.93421" lon="3.70411">
        <ele>1197.1</ele>
        <time>2022-08-29T09:31:57Z</time>
      </trkpt>
      <trkpt lat="45.9342" lon="3.70413">
        <ele>1197.2</ele>
        <time>2022-08-29T09:31:58Z</time>
      </trkpt>
      <trkpt lat="45.9342" lon="3.70415">
        <ele>1197.2</ele>
        <time>2022-08-29T09:31:59Z</time>
      </trkpt>
      <trkpt lat="45.93419" lon="3.70416">
        <ele>1197.2</ele>
        <time>2022-08-29T09:32:00Z</time>
      </trkpt>
      <trkpt lat="45.93419" lon="3.70418">
        <ele>1197.3</ele>
        <time>2022-08-29T09:32:01Z</time>
      </trkpt>
      <trkpt lat="45.93418" lon="3.7042">
        <ele>1197.3</ele>
        <time>2022-08-29T09:32:02Z</time>
      </trkpt>
      <trkpt lat="45.93417" lon="3.70423">
        <ele>1197.4</ele>
        <time>2022-08-29T09:32:03Z</time>
      </trkpt>
      <trkpt lat="45.93417" lon="3.70424">
        <ele>1197.4</ele>
        <time>2022-08-29T09:32:04Z</time>
      </trkpt>
      <trkpt lat="45.93417" lon="3.70426">
        <ele>1197.4</ele>
        <time>2022-08-29T09:32:05Z</time>
      </trkpt>
      <trkpt lat="45.93416" lon="3.70427">
        <ele>1197.4</ele>
        <time>2022-08-29T09:32:06Z</time>
      </trkpt>
      <trkpt lat="45.93415" lon="3.70429">
        <ele>1197.5</ele>
        <time>2022-08-29T09:32:07Z</time>
      </trkpt>
      <trkpt lat="45.93415" lon="3.70431">
        <ele>1197.5</ele>
        <time>2022-08-29T09:32:08Z</time>
      </trkpt>
      <trkpt lat="45.93414" lon="3.70433">
        <ele>1197.5</ele>
        <time>2022-08-29T09:32:09Z</time>
      </trkpt>
      <trkpt lat="45.93413" lon="3.70434">
        <ele>1197.6</ele>
        <time>2022-08-29T09:32:10Z</time>
      </trkpt>
      <trkpt lat="45.93413" lon="3.70436">
        <ele>1197.6</ele>
        <time>2022-08-29T09:32:11Z</time>
      </trkpt>
      <trkpt lat="45.93412" lon="3.70437">
        <ele>1197.6</ele>
        <time>2022-08-29T09:32:12Z</time>
      </trkpt>
      <trkpt lat="45.93412" lon="3.70438">
        <ele>1197.7</ele>
        <time>2022-08-29T09:32:13Z</time>
      </trkpt>
      <trkpt lat="45.93411" lon="3.7044">
        <ele>1197.7</ele>
        <time>2022-08-29T09:32:14Z</time>
      </trkpt>
      <trkpt lat="45.9341" lon="3.70441">
        <ele>1197.7</ele>
        <time>2022-08-29T09:32:15Z</time>
      </trkpt>
      <trkpt lat="45.9341" lon="3.70444">
        <ele>1197.8</ele>
        <time>2022-08-29T09:32:16Z</time>
      </trkpt>
      <trkpt lat="45.93409" lon="3.70445">
        <ele>1197.8</ele>
        <time>2022-08-29T09:32:17Z</time>
      </trkpt>
      <trkpt lat="45.93409" lon="3.70446">
        <ele>1197.8</ele>
        <time>2022-08-29T09:32:18Z</time>
      </trkpt>
      <trkpt lat="45.93409" lon="3.70448">
        <ele>1197.9</ele>
        <time>2022-08-29T09:32:19Z</time>
      </trkpt>
      <trkpt lat="45.93408" lon="3.7045">
        <ele>1197.9</ele>
        <time>2022-08-29T09:32:20Z</time>
      </trkpt>
      <trkpt lat="45.93408" lon="3.70451">
        <ele>1197.9</ele>
        <time>2022-08-29T09:32:21Z</time>
      </trkpt>
      <trkpt lat="45.93407" lon="3.70452">
        <ele>1198</ele>
        <time>2022-08-29T09:32:22Z</time>
      </trkpt>
      <trkpt lat="45.93406" lon="3.70454">
        <ele>1198</ele>
        <time>2022-08-29T09:32:23Z</time>
      </trkpt>
      <trkpt lat="45.93406" lon="3.70455">
        <ele>1198</ele>
        <time>2022-08-29T09:32:24Z</time>
      </trkpt>
      <trkpt lat="45.93406" lon="3.70456">
        <ele>1198.1</ele>
        <time>2022-08-29T09:32:25Z</time>
      </trkpt>
      <trkpt lat="45.93405" lon="3.70458">
        <ele>1198.1</ele>
        <time>2022-08-29T09:32:26Z</time>
      </trkpt>
      <trkpt lat="45.93405" lon="3.70459">
        <ele>1198.1</ele>
        <time>2022-08-29T09:32:27Z</time>
      </trkpt>
      <trkpt lat="45.93405" lon="3.70461">
        <ele>1198.1</ele>
        <time>2022-08-29T09:32:28Z</time>
      </trkpt>
      <trkpt lat="45.93405" lon="3.70463">
        <ele>1198.2</ele>
        <time>2022-08-29T09:32:29Z</time>
      </trkpt>
      <trkpt lat="45.93405" lon="3.70464">
        <ele>1198.2</ele>
        <time>2022-08-29T09:32:30Z</time>
      </trkpt>
      <trkpt lat="45.93404" lon="3.70467">
        <ele>1198.2</ele>
        <time>2022-08-29T09:32:31Z</time>
      </trkpt>
      <trkpt lat="45.93404" lon="3.70468">
        <ele>1198.2</ele>
        <time>2022-08-29T09:32:32Z</time>
      </trkpt>
      <trkpt lat="45.93404" lon="3.70469">
        <ele>1198.3</ele>
        <time>2022-08-29T09:32:33Z</time>
      </trkpt>
      <trkpt lat="45.93403" lon="3.70473">
        <ele>1198.3</ele>
        <time>2022-08-29T09:32:34Z</time>
      </trkpt>
      <trkpt lat="45.93403" lon="3.70474">
        <ele>1198.3</ele>
        <time>2022-08-29T09:32:35Z</time>
      </trkpt>
      <trkpt lat="45.93401" lon="3.70478">
        <ele>1198.4</ele>
        <time>2022-08-29T09:32:36Z</time>
      </trkpt>
      <trkpt lat="45.93401" lon="3.70479">
        <ele>1198.4</ele>
        <time>2022-08-29T09:32:37Z</time>
      </trkpt>
      <trkpt lat="45.934" lon="3.70483">
        <ele>1198.5</ele>
        <time>2022-08-29T09:32:38Z</time>
      </trkpt>
      <trkpt lat="45.934" lon="3.70485">
        <ele>1198.5</ele>
        <time>2022-08-29T09:32:39Z</time>
      </trkpt>
      <trkpt lat="45.93399" lon="3.70489">
        <ele>1198.6</ele>
        <time>2022-08-29T09:32:40Z</time>
      </trkpt>
      <trkpt lat="45.93399" lon="3.7049">
        <ele>1198.6</ele>
        <time>2022-08-29T09:32:41Z</time>
      </trkpt>
      <trkpt lat="45.93398" lon="3.70493">
        <ele>1198.6</ele>
        <time>2022-08-29T09:32:42Z</time>
      </trkpt>
      <trkpt lat="45.93397" lon="3.70494">
        <ele>1198.6</ele>
        <time>2022-08-29T09:32:43Z</time>
      </trkpt>
      <trkpt lat="45.93397" lon="3.70495">
        <ele>1198.6</ele>
        <time>2022-08-29T09:32:44Z</time>
      </trkpt>
      <trkpt lat="45.93396" lon="3.70496">
        <ele>1198.7</ele>
        <time>2022-08-29T09:32:45Z</time>
      </trkpt>
      <trkpt lat="45.93395" lon="3.70498">
        <ele>1198.7</ele>
        <time>2022-08-29T09:32:46Z</time>
      </trkpt>
      <trkpt lat="45.93394" lon="3.705">
        <ele>1198.7</ele>
        <time>2022-08-29T09:32:47Z</time>
      </trkpt>
      <trkpt lat="45.93393" lon="3.70502">
        <ele>1198.7</ele>
        <time>2022-08-29T09:32:48Z</time>
      </trkpt>
      <trkpt lat="45.93393" lon="3.70504">
        <ele>1198.8</ele>
        <time>2022-08-29T09:32:49Z</time>
      </trkpt>
      <trkpt lat="45.93392" lon="3.70506">
        <ele>1198.8</ele>
        <time>2022-08-29T09:32:50Z</time>
      </trkpt>
      <trkpt lat="45.9339" lon="3.70509">
        <ele>1198.8</ele>
        <time>2022-08-29T09:32:51Z</time>
      </trkpt>
      <trkpt lat="45.93389" lon="3.7051">
        <ele>1198.8</ele>
        <time>2022-08-29T09:32:52Z</time>
      </trkpt>
      <trkpt lat="45.93387" lon="3.70513">
        <ele>1198.8</ele>
        <time>2022-08-29T09:32:53Z</time>
      </trkpt>
      <trkpt lat="45.93386" lon="3.70514">
        <ele>1198.8</ele>
        <time>2022-08-29T09:32:54Z</time>
      </trkpt>
      <trkpt lat="45.93385" lon="3.70517">
        <ele>1198.8</ele>
        <time>2022-08-29T09:32:55Z</time>
      </trkpt>
      <trkpt lat="45.93384" lon="3.70518">
        <ele>1198.8</ele>
        <time>2022-08-29T09:32:56Z</time>
      </trkpt>
      <trkpt lat="45.93383" lon="3.7052">
        <ele>1198.8</ele>
        <time>2022-08-29T09:32:57Z</time>
      </trkpt>
      <trkpt lat="45.93383" lon="3.70522">
        <ele>1198.8</ele>
        <time>2022-08-29T09:32:58Z</time>
      </trkpt>
      <trkpt lat="45.93382" lon="3.70524">
        <ele>1198.8</ele>
        <time>2022-08-29T09:32:59Z</time>
      </trkpt>
      <trkpt lat="45.93381" lon="3.70525">
        <ele>1198.8</ele>
        <time>2022-08-29T09:33:00Z</time>
      </trkpt>
      <trkpt lat="45.9338" lon="3.70527">
        <ele>1198.8</ele>
        <time>2022-08-29T09:33:01Z</time>
      </trkpt>
      <trkpt lat="45.93379" lon="3.70528">
        <ele>1198.8</ele>
        <time>2022-08-29T09:33:02Z</time>
      </trkpt>
      <trkpt lat="45.93378" lon="3.70529">
        <ele>1198.8</ele>
        <time>2022-08-29T09:33:03Z</time>
      </trkpt>
      <trkpt lat="45.93376" lon="3.70531">
        <ele>1198.9</ele>
        <time>2022-08-29T09:33:04Z</time>
      </trkpt>
      <trkpt lat="45.93374" lon="3.70534">
        <ele>1198.9</ele>
        <time>2022-08-29T09:33:05Z</time>
      </trkpt>
      <trkpt lat="45.93374" lon="3.70535">
        <ele>1198.9</ele>
        <time>2022-08-29T09:33:06Z</time>
      </trkpt>
      <trkpt lat="45.93372" lon="3.70538">
        <ele>1198.9</ele>
        <time>2022-08-29T09:33:07Z</time>
      </trkpt>
      <trkpt lat="45.93371" lon="3.70539">
        <ele>1198.9</ele>
        <time>2022-08-29T09:33:08Z</time>
      </trkpt>
      <trkpt lat="45.93369" lon="3.70543">
        <ele>1199.3</ele>
        <time>2022-08-29T09:33:09Z</time>
      </trkpt>
      <trkpt lat="45.93368" lon="3.70544">
        <ele>1199.4</ele>
        <time>2022-08-29T09:33:10Z</time>
      </trkpt>
      <trkpt lat="45.93366" lon="3.70548">
        <ele>1199.7</ele>
        <time>2022-08-29T09:33:11Z</time>
      </trkpt>
      <trkpt lat="45.93365" lon="3.70549">
        <ele>1199.8</ele>
        <time>2022-08-29T09:33:12Z</time>
      </trkpt>
      <trkpt lat="45.93364" lon="3.70551">
        <ele>1200</ele>
        <time>2022-08-29T09:33:13Z</time>
      </trkpt>
      <trkpt lat="45.93364" lon="3.70552">
        <ele>1200.1</ele>
        <time>2022-08-29T09:33:14Z</time>
      </trkpt>
      <trkpt lat="45.93364" lon="3.70552">
        <ele>1200.1</ele>
        <time>2022-08-29T09:33:15Z</time>
      </trkpt>
      <trkpt lat="45.93364" lon="3.70552">
        <ele>1200.1</ele>
        <time>2022-08-29T09:33:16Z</time>
      </trkpt>
      <trkpt lat="45.93364" lon="3.70552">
        <ele>1200.1</ele>
        <time>2022-08-29T09:33:17Z</time>
      </trkpt>
      <trkpt lat="45.93364" lon="3.70552">
        <ele>1200.1</ele>
        <time>2022-08-29T09:33:18Z</time>
      </trkpt>
      <trkpt lat="45.93364" lon="3.70552">
        <ele>1200.2</ele>
        <time>2022-08-29T09:33:19Z</time>
      </trkpt>
      <trkpt lat="45.93363" lon="3.70552">
        <ele>1200.2</ele>
        <time>2022-08-29T09:33:20Z</time>
      </trkpt>
      <trkpt lat="45.93363" lon="3.70551">
        <ele>1200.2</ele>
        <time>2022-08-29T09:33:21Z</time>
      </trkpt>
      <trkpt lat="45.93363" lon="3.70551">
        <ele>1200.3</ele>
        <time>2022-08-29T09:33:22Z</time>
      </trkpt>
      <trkpt lat="45.93362" lon="3.7055">
        <ele>1200.4</ele>
        <time>2022-08-29T09:33:23Z</time>
      </trkpt>
      <trkpt lat="45.93362" lon="3.70549">
        <ele>1200.4</ele>
        <time>2022-08-29T09:33:24Z</time>
      </trkpt>
      <trkpt lat="45.93361" lon="3.70548">
        <ele>1200.5</ele>
        <time>2022-08-29T09:33:25Z</time>
      </trkpt>
      <trkpt lat="45.93361" lon="3.70547">
        <ele>1200.6</ele>
        <time>2022-08-29T09:33:26Z</time>
      </trkpt>
      <trkpt lat="45.93359" lon="3.70546">
        <ele>1200.8</ele>
        <time>2022-08-29T09:33:27Z</time>
      </trkpt>
      <trkpt lat="45.93358" lon="3.70545">
        <ele>1200.9</ele>
        <time>2022-08-29T09:33:28Z</time>
      </trkpt>
      <trkpt lat="45.93356" lon="3.70545">
        <ele>1201.1</ele>
        <time>2022-08-29T09:33:29Z</time>
      </trkpt>
      <trkpt lat="45.93355" lon="3.70545">
        <ele>1201.2</ele>
        <time>2022-08-29T09:33:30Z</time>
      </trkpt>
      <trkpt lat="45.93354" lon="3.70544">
        <ele>1201.3</ele>
        <time>2022-08-29T09:33:31Z</time>
      </trkpt>
      <trkpt lat="45.93353" lon="3.70544">
        <ele>1201.3</ele>
        <time>2022-08-29T09:33:32Z</time>
      </trkpt>
      <trkpt lat="45.93352" lon="3.70543">
        <ele>1201.4</ele>
        <time>2022-08-29T09:33:33Z</time>
      </trkpt>
      <trkpt lat="45.93352" lon="3.70541">
        <ele>1201.5</ele>
        <time>2022-08-29T09:33:34Z</time>
      </trkpt>
      <trkpt lat="45.9335" lon="3.7054">
        <ele>1201.7</ele>
        <time>2022-08-29T09:33:35Z</time>
      </trkpt>
      <trkpt lat="45.93348" lon="3.70538">
        <ele>1201.9</ele>
        <time>2022-08-29T09:33:36Z</time>
      </trkpt>
      <trkpt lat="45.93347" lon="3.70537">
        <ele>1202</ele>
        <time>2022-08-29T09:33:37Z</time>
      </trkpt>
      <trkpt lat="45.93346" lon="3.70537">
        <ele>1202.1</ele>
        <time>2022-08-29T09:33:38Z</time>
      </trkpt>
      <trkpt lat="45.93345" lon="3.70536">
        <ele>1202.2</ele>
        <time>2022-08-29T09:33:39Z</time>
      </trkpt>
      <trkpt lat="45.93344" lon="3.70536">
        <ele>1202.3</ele>
        <time>2022-08-29T09:33:40Z</time>
      </trkpt>
      <trkpt lat="45.93342" lon="3.70535">
        <ele>1202.5</ele>
        <time>2022-08-29T09:33:41Z</time>
      </trkpt>
      <trkpt lat="45.93341" lon="3.70535">
        <ele>1202.6</ele>
        <time>2022-08-29T09:33:42Z</time>
      </trkpt>
      <trkpt lat="45.9334" lon="3.70534">
        <ele>1202.7</ele>
        <time>2022-08-29T09:33:43Z</time>
      </trkpt>
      <trkpt lat="45.93339" lon="3.70533">
        <ele>1202.9</ele>
        <time>2022-08-29T09:33:44Z</time>
      </trkpt>
      <trkpt lat="45.93338" lon="3.70532">
        <ele>1203.1</ele>
        <time>2022-08-29T09:33:45Z</time>
      </trkpt>
      <trkpt lat="45.93336" lon="3.70531">
        <ele>1203.2</ele>
        <time>2022-08-29T09:33:46Z</time>
      </trkpt>
      <trkpt lat="45.93335" lon="3.7053">
        <ele>1203.4</ele>
        <time>2022-08-29T09:33:47Z</time>
      </trkpt>
      <trkpt lat="45.93334" lon="3.7053">
        <ele>1203.6</ele>
        <time>2022-08-29T09:33:48Z</time>
      </trkpt>
      <trkpt lat="45.93332" lon="3.7053">
        <ele>1203.7</ele>
        <time>2022-08-29T09:33:49Z</time>
      </trkpt>
      <trkpt lat="45.93331" lon="3.7053">
        <ele>1203.9</ele>
        <time>2022-08-29T09:33:50Z</time>
      </trkpt>
      <trkpt lat="45.9333" lon="3.70531">
        <ele>1204.1</ele>
        <time>2022-08-29T09:33:51Z</time>
      </trkpt>
      <trkpt lat="45.93328" lon="3.70532">
        <ele>1204.2</ele>
        <time>2022-08-29T09:33:52Z</time>
      </trkpt>
      <trkpt lat="45.93327" lon="3.70532">
        <ele>1204.4</ele>
        <time>2022-08-29T09:33:53Z</time>
      </trkpt>
      <trkpt lat="45.93326" lon="3.70533">
        <ele>1204.6</ele>
        <time>2022-08-29T09:33:54Z</time>
      </trkpt>
      <trkpt lat="45.93325" lon="3.70533">
        <ele>1204.8</ele>
        <time>2022-08-29T09:33:55Z</time>
      </trkpt>
      <trkpt lat="45.93322" lon="3.70533">
        <ele>1205.1</ele>
        <time>2022-08-29T09:33:57Z</time>
      </trkpt>
      <trkpt lat="45.9332" lon="3.70534">
        <ele>1205.3</ele>
        <time>2022-08-29T09:33:58Z</time>
      </trkpt>
      <trkpt lat="45.93319" lon="3.70534">
        <ele>1205.5</ele>
        <time>2022-08-29T09:33:59Z</time>
      </trkpt>
      <trkpt lat="45.93318" lon="3.70534">
        <ele>1205.7</ele>
        <time>2022-08-29T09:34:00Z</time>
      </trkpt>
      <trkpt lat="45.93317" lon="3.70534">
        <ele>1205.9</ele>
        <time>2022-08-29T09:34:01Z</time>
      </trkpt>
      <trkpt lat="45.93316" lon="3.70534">
        <ele>1206</ele>
        <time>2022-08-29T09:34:02Z</time>
      </trkpt>
      <trkpt lat="45.93315" lon="3.70534">
        <ele>1206.1</ele>
        <time>2022-08-29T09:34:03Z</time>
      </trkpt>
      <trkpt lat="45.93315" lon="3.70534">
        <ele>1206.1</ele>
        <time>2022-08-29T09:34:04Z</time>
      </trkpt>
      <trkpt lat="45.93314" lon="3.70534">
        <ele>1206.2</ele>
        <time>2022-08-29T09:34:05Z</time>
      </trkpt>
      <trkpt lat="45.93314" lon="3.70534">
        <ele>1206.3</ele>
        <time>2022-08-29T09:34:06Z</time>
      </trkpt>
      <trkpt lat="45.93313" lon="3.70534">
        <ele>1206.4</ele>
        <time>2022-08-29T09:34:07Z</time>
      </trkpt>
      <trkpt lat="45.93312" lon="3.70533">
        <ele>1206.6</ele>
        <time>2022-08-29T09:34:08Z</time>
      </trkpt>
      <trkpt lat="45.93311" lon="3.70533">
        <ele>1206.7</ele>
        <time>2022-08-29T09:34:09Z</time>
      </trkpt>
      <trkpt lat="45.9331" lon="3.70532">
        <ele>1206.9</ele>
        <time>2022-08-29T09:34:10Z</time>
      </trkpt>
      <trkpt lat="45.93309" lon="3.70532">
        <ele>1207.1</ele>
        <time>2022-08-29T09:34:11Z</time>
      </trkpt>
      <trkpt lat="45.93308" lon="3.70532">
        <ele>1207.2</ele>
        <time>2022-08-29T09:34:12Z</time>
      </trkpt>
      <trkpt lat="45.93307" lon="3.70531">
        <ele>1207.3</ele>
        <time>2022-08-29T09:34:13Z</time>
      </trkpt>
      <trkpt lat="45.93306" lon="3.7053">
        <ele>1207.5</ele>
        <time>2022-08-29T09:34:14Z</time>
      </trkpt>
      <trkpt lat="45.93305" lon="3.7053">
        <ele>1207.6</ele>
        <time>2022-08-29T09:34:15Z</time>
      </trkpt>
      <trkpt lat="45.93304" lon="3.70529">
        <ele>1207.7</ele>
        <time>2022-08-29T09:34:16Z</time>
      </trkpt>
      <trkpt lat="45.93304" lon="3.70528">
        <ele>1207.9</ele>
        <time>2022-08-29T09:34:17Z</time>
      </trkpt>
      <trkpt lat="45.93303" lon="3.70527">
        <ele>1208</ele>
        <time>2022-08-29T09:34:18Z</time>
      </trkpt>
      <trkpt lat="45.93302" lon="3.70526">
        <ele>1208.1</ele>
        <time>2022-08-29T09:34:19Z</time>
      </trkpt>
      <trkpt lat="45.93301" lon="3.70525">
        <ele>1208.3</ele>
        <time>2022-08-29T09:34:20Z</time>
      </trkpt>
      <trkpt lat="45.93301" lon="3.70524">
        <ele>1208.4</ele>
        <time>2022-08-29T09:34:21Z</time>
      </trkpt>
      <trkpt lat="45.93301" lon="3.70523">
        <ele>1208.5</ele>
        <time>2022-08-29T09:34:22Z</time>
      </trkpt>
      <trkpt lat="45.933" lon="3.70522">
        <ele>1208.6</ele>
        <time>2022-08-29T09:34:23Z</time>
      </trkpt>
      <trkpt lat="45.933" lon="3.7052">
        <ele>1208.8</ele>
        <time>2022-08-29T09:34:24Z</time>
      </trkpt>
      <trkpt lat="45.93299" lon="3.70519">
        <ele>1208.9</ele>
        <time>2022-08-29T09:34:25Z</time>
      </trkpt>
      <trkpt lat="45.93298" lon="3.70517">
        <ele>1209.1</ele>
        <time>2022-08-29T09:34:26Z</time>
      </trkpt>
      <trkpt lat="45.93298" lon="3.70517">
        <ele>1209.2</ele>
        <time>2022-08-29T09:34:27Z</time>
      </trkpt>
      <trkpt lat="45.93297" lon="3.70516">
        <ele>1209.3</ele>
        <time>2022-08-29T09:34:28Z</time>
      </trkpt>
      <trkpt lat="45.93296" lon="3.70515">
        <ele>1209.5</ele>
        <time>2022-08-29T09:34:29Z</time>
      </trkpt>
      <trkpt lat="45.93295" lon="3.70515">
        <ele>1209.7</ele>
        <time>2022-08-29T09:34:30Z</time>
      </trkpt>
      <trkpt lat="45.93293" lon="3.70515">
        <ele>1209.9</ele>
        <time>2022-08-29T09:34:31Z</time>
      </trkpt>
      <trkpt lat="45.93291" lon="3.70514">
        <ele>1210.1</ele>
        <time>2022-08-29T09:34:32Z</time>
      </trkpt>
      <trkpt lat="45.9329" lon="3.70514">
        <ele>1210.4</ele>
        <time>2022-08-29T09:34:33Z</time>
      </trkpt>
      <trkpt lat="45.93288" lon="3.70514">
        <ele>1210.6</ele>
        <time>2022-08-29T09:34:34Z</time>
      </trkpt>
      <trkpt lat="45.93286" lon="3.70513">
        <ele>1211</ele>
        <time>2022-08-29T09:34:35Z</time>
      </trkpt>
      <trkpt lat="45.93285" lon="3.70513">
        <ele>1211.1</ele>
        <time>2022-08-29T09:34:36Z</time>
      </trkpt>
      <trkpt lat="45.93284" lon="3.70512">
        <ele>1211.2</ele>
        <time>2022-08-29T09:34:37Z</time>
      </trkpt>
      <trkpt lat="45.93283" lon="3.7051">
        <ele>1211.5</ele>
        <time>2022-08-29T09:34:38Z</time>
      </trkpt>
      <trkpt lat="45.93283" lon="3.70509">
        <ele>1211.7</ele>
        <time>2022-08-29T09:34:39Z</time>
      </trkpt>
      <trkpt lat="45.93282" lon="3.70508">
        <ele>1211.8</ele>
        <time>2022-08-29T09:34:40Z</time>
      </trkpt>
      <trkpt lat="45.93281" lon="3.70507">
        <ele>1212</ele>
        <time>2022-08-29T09:34:41Z</time>
      </trkpt>
      <trkpt lat="45.9328" lon="3.70506">
        <ele>1212.3</ele>
        <time>2022-08-29T09:34:42Z</time>
      </trkpt>
      <trkpt lat="45.93278" lon="3.70504">
        <ele>1212.6</ele>
        <time>2022-08-29T09:34:43Z</time>
      </trkpt>
      <trkpt lat="45.93278" lon="3.70503">
        <ele>1212.8</ele>
        <time>2022-08-29T09:34:44Z</time>
      </trkpt>
      <trkpt lat="45.93277" lon="3.70503">
        <ele>1212.9</ele>
        <time>2022-08-29T09:34:45Z</time>
      </trkpt>
      <trkpt lat="45.93276" lon="3.70501">
        <ele>1213.2</ele>
        <time>2022-08-29T09:34:46Z</time>
      </trkpt>
      <trkpt lat="45.93275" lon="3.70499">
        <ele>1213.5</ele>
        <time>2022-08-29T09:34:47Z</time>
      </trkpt>
      <trkpt lat="45.93274" lon="3.70498">
        <ele>1213.7</ele>
        <time>2022-08-29T09:34:48Z</time>
      </trkpt>
      <trkpt lat="45.93273" lon="3.70496">
        <ele>1214</ele>
        <time>2022-08-29T09:34:49Z</time>
      </trkpt>
      <trkpt lat="45.93271" lon="3.70494">
        <ele>1214.3</ele>
        <time>2022-08-29T09:34:50Z</time>
      </trkpt>
      <trkpt lat="45.93271" lon="3.70493">
        <ele>1214.5</ele>
        <time>2022-08-29T09:34:51Z</time>
      </trkpt>
      <trkpt lat="45.9327" lon="3.70492">
        <ele>1214.6</ele>
        <time>2022-08-29T09:34:52Z</time>
      </trkpt>
      <trkpt lat="45.93269" lon="3.70491">
        <ele>1214.8</ele>
        <time>2022-08-29T09:34:53Z</time>
      </trkpt>
      <trkpt lat="45.93268" lon="3.7049">
        <ele>1215</ele>
        <time>2022-08-29T09:34:54Z</time>
      </trkpt>
      <trkpt lat="45.93268" lon="3.7049">
        <ele>1215.1</ele>
        <time>2022-08-29T09:34:55Z</time>
      </trkpt>
      <trkpt lat="45.93267" lon="3.70489">
        <ele>1215.2</ele>
        <time>2022-08-29T09:34:56Z</time>
      </trkpt>
      <trkpt lat="45.93267" lon="3.70489">
        <ele>1215.3</ele>
        <time>2022-08-29T09:34:57Z</time>
      </trkpt>
      <trkpt lat="45.93267" lon="3.70487">
        <ele>1215.4</ele>
        <time>2022-08-29T09:34:58Z</time>
      </trkpt>
      <trkpt lat="45.93266" lon="3.70486">
        <ele>1215.6</ele>
        <time>2022-08-29T09:34:59Z</time>
      </trkpt>
      <trkpt lat="45.93266" lon="3.70485">
        <ele>1215.7</ele>
        <time>2022-08-29T09:35:00Z</time>
      </trkpt>
      <trkpt lat="45.93266" lon="3.70484">
        <ele>1215.8</ele>
        <time>2022-08-29T09:35:01Z</time>
      </trkpt>
      <trkpt lat="45.93265" lon="3.70484">
        <ele>1215.9</ele>
        <time>2022-08-29T09:35:02Z</time>
      </trkpt>
      <trkpt lat="45.93264" lon="3.70483">
        <ele>1216.1</ele>
        <time>2022-08-29T09:35:03Z</time>
      </trkpt>
      <trkpt lat="45.93264" lon="3.70483">
        <ele>1216.2</ele>
        <time>2022-08-29T09:35:04Z</time>
      </trkpt>
      <trkpt lat="45.93263" lon="3.70483">
        <ele>1216.4</ele>
        <time>2022-08-29T09:35:05Z</time>
      </trkpt>
      <trkpt lat="45.93262" lon="3.70483">
        <ele>1216.5</ele>
        <time>2022-08-29T09:35:06Z</time>
      </trkpt>
      <trkpt lat="45.93261" lon="3.70483">
        <ele>1216.7</ele>
        <time>2022-08-29T09:35:07Z</time>
      </trkpt>
      <trkpt lat="45.9326" lon="3.70483">
        <ele>1216.8</ele>
        <time>2022-08-29T09:35:08Z</time>
      </trkpt>
      <trkpt lat="45.93259" lon="3.70483">
        <ele>1216.9</ele>
        <time>2022-08-29T09:35:09Z</time>
      </trkpt>
      <trkpt lat="45.93258" lon="3.70482">
        <ele>1217</ele>
        <time>2022-08-29T09:35:10Z</time>
      </trkpt>
      <trkpt lat="45.93257" lon="3.70481">
        <ele>1217.2</ele>
        <time>2022-08-29T09:35:11Z</time>
      </trkpt>
      <trkpt lat="45.93256" lon="3.7048">
        <ele>1217.4</ele>
        <time>2022-08-29T09:35:12Z</time>
      </trkpt>
      <trkpt lat="45.93255" lon="3.7048">
        <ele>1217.6</ele>
        <time>2022-08-29T09:35:13Z</time>
      </trkpt>
      <trkpt lat="45.93254" lon="3.70479">
        <ele>1217.7</ele>
        <time>2022-08-29T09:35:14Z</time>
      </trkpt>
      <trkpt lat="45.93253" lon="3.70479">
        <ele>1217.9</ele>
        <time>2022-08-29T09:35:15Z</time>
      </trkpt>
      <trkpt lat="45.93252" lon="3.70479">
        <ele>1218</ele>
        <time>2022-08-29T09:35:16Z</time>
      </trkpt>
      <trkpt lat="45.93252" lon="3.70478">
        <ele>1218.1</ele>
        <time>2022-08-29T09:35:17Z</time>
      </trkpt>
      <trkpt lat="45.93251" lon="3.70477">
        <ele>1218.2</ele>
        <time>2022-08-29T09:35:18Z</time>
      </trkpt>
      <trkpt lat="45.93251" lon="3.70476">
        <ele>1218.3</ele>
        <time>2022-08-29T09:35:19Z</time>
      </trkpt>
      <trkpt lat="45.93251" lon="3.70475">
        <ele>1218.4</ele>
        <time>2022-08-29T09:35:20Z</time>
      </trkpt>
      <trkpt lat="45.93251" lon="3.70473">
        <ele>1218.6</ele>
        <time>2022-08-29T09:35:21Z</time>
      </trkpt>
      <trkpt lat="45.93251" lon="3.7047">
        <ele>1218.8</ele>
        <time>2022-08-29T09:35:22Z</time>
      </trkpt>
      <trkpt lat="45.93251" lon="3.70469">
        <ele>1218.9</ele>
        <time>2022-08-29T09:35:23Z</time>
      </trkpt>
      <trkpt lat="45.93251" lon="3.70468">
        <ele>1219</ele>
        <time>2022-08-29T09:35:24Z</time>
      </trkpt>
      <trkpt lat="45.93252" lon="3.70467">
        <ele>1219.1</ele>
        <time>2022-08-29T09:35:25Z</time>
      </trkpt>
      <trkpt lat="45.93252" lon="3.70465">
        <ele>1219.3</ele>
        <time>2022-08-29T09:35:26Z</time>
      </trkpt>
      <trkpt lat="45.93252" lon="3.70464">
        <ele>1219.4</ele>
        <time>2022-08-29T09:35:27Z</time>
      </trkpt>
      <trkpt lat="45.93252" lon="3.70462">
        <ele>1219.6</ele>
        <time>2022-08-29T09:35:28Z</time>
      </trkpt>
      <trkpt lat="45.93252" lon="3.7046">
        <ele>1219.7</ele>
        <time>2022-08-29T09:35:29Z</time>
      </trkpt>
      <trkpt lat="45.93252" lon="3.70459">
        <ele>1219.8</ele>
        <time>2022-08-29T09:35:30Z</time>
      </trkpt>
      <trkpt lat="45.93252" lon="3.70457">
        <ele>1220</ele>
        <time>2022-08-29T09:35:31Z</time>
      </trkpt>
      <trkpt lat="45.93252" lon="3.70456">
        <ele>1220.1</ele>
        <time>2022-08-29T09:35:32Z</time>
      </trkpt>
      <trkpt lat="45.93251" lon="3.70454">
        <ele>1220.2</ele>
        <time>2022-08-29T09:35:33Z</time>
      </trkpt>
      <trkpt lat="45.93251" lon="3.70453">
        <ele>1220.3</ele>
        <time>2022-08-29T09:35:34Z</time>
      </trkpt>
      <trkpt lat="45.9325" lon="3.70453">
        <ele>1220.4</ele>
        <time>2022-08-29T09:35:35Z</time>
      </trkpt>
      <trkpt lat="45.9325" lon="3.70452">
        <ele>1220.5</ele>
        <time>2022-08-29T09:35:36Z</time>
      </trkpt>
      <trkpt lat="45.93249" lon="3.70451">
        <ele>1220.6</ele>
        <time>2022-08-29T09:35:37Z</time>
      </trkpt>
      <trkpt lat="45.93249" lon="3.7045">
        <ele>1220.6</ele>
        <time>2022-08-29T09:35:38Z</time>
      </trkpt>
      <trkpt lat="45.93248" lon="3.70449">
        <ele>1220.7</ele>
        <time>2022-08-29T09:35:39Z</time>
      </trkpt>
      <trkpt lat="45.93248" lon="3.70447">
        <ele>1220.8</ele>
        <time>2022-08-29T09:35:40Z</time>
      </trkpt>
      <trkpt lat="45.93248" lon="3.70445">
        <ele>1221</ele>
        <time>2022-08-29T09:35:41Z</time>
      </trkpt>
      <trkpt lat="45.93247" lon="3.70444">
        <ele>1221.1</ele>
        <time>2022-08-29T09:35:42Z</time>
      </trkpt>
      <trkpt lat="45.93247" lon="3.70443">
        <ele>1221.1</ele>
        <time>2022-08-29T09:35:43Z</time>
      </trkpt>
      <trkpt lat="45.93247" lon="3.70442">
        <ele>1221.2</ele>
        <time>2022-08-29T09:35:44Z</time>
      </trkpt>
      <trkpt lat="45.93246" lon="3.70441">
        <ele>1221.3</ele>
        <time>2022-08-29T09:35:45Z</time>
      </trkpt>
      <trkpt lat="45.93246" lon="3.7044">
        <ele>1221.4</ele>
        <time>2022-08-29T09:35:46Z</time>
      </trkpt>
      <trkpt lat="45.93246" lon="3.70439">
        <ele>1221.4</ele>
        <time>2022-08-29T09:35:47Z</time>
      </trkpt>
      <trkpt lat="45.93245" lon="3.70438">
        <ele>1221.5</ele>
        <time>2022-08-29T09:35:48Z</time>
      </trkpt>
      <trkpt lat="45.93244" lon="3.70437">
        <ele>1221.6</ele>
        <time>2022-08-29T09:35:49Z</time>
      </trkpt>
      <trkpt lat="45.93243" lon="3.70437">
        <ele>1221.7</ele>
        <time>2022-08-29T09:35:50Z</time>
      </trkpt>
      <trkpt lat="45.93242" lon="3.70436">
        <ele>1221.8</ele>
        <time>2022-08-29T09:35:51Z</time>
      </trkpt>
      <trkpt lat="45.9324" lon="3.70435">
        <ele>1222</ele>
        <time>2022-08-29T09:35:52Z</time>
      </trkpt>
      <trkpt lat="45.93239" lon="3.70435">
        <ele>1222.1</ele>
        <time>2022-08-29T09:35:53Z</time>
      </trkpt>
      <trkpt lat="45.93238" lon="3.70435">
        <ele>1222.2</ele>
        <time>2022-08-29T09:35:54Z</time>
      </trkpt>
      <trkpt lat="45.93236" lon="3.70434">
        <ele>1222.4</ele>
        <time>2022-08-29T09:35:55Z</time>
      </trkpt>
      <trkpt lat="45.93235" lon="3.70433">
        <ele>1222.5</ele>
        <time>2022-08-29T09:35:56Z</time>
      </trkpt>
      <trkpt lat="45.93233" lon="3.70432">
        <ele>1222.7</ele>
        <time>2022-08-29T09:35:57Z</time>
      </trkpt>
      <trkpt lat="45.93232" lon="3.70431">
        <ele>1222.9</ele>
        <time>2022-08-29T09:35:58Z</time>
      </trkpt>
      <trkpt lat="45.93231" lon="3.70429">
        <ele>1223.1</ele>
        <time>2022-08-29T09:35:59Z</time>
      </trkpt>
      <trkpt lat="45.93231" lon="3.70427">
        <ele>1223.2</ele>
        <time>2022-08-29T09:36:00Z</time>
      </trkpt>
      <trkpt lat="45.9323" lon="3.70426">
        <ele>1223.3</ele>
        <time>2022-08-29T09:36:01Z</time>
      </trkpt>
      <trkpt lat="45.9323" lon="3.70424">
        <ele>1223.5</ele>
        <time>2022-08-29T09:36:02Z</time>
      </trkpt>
      <trkpt lat="45.9323" lon="3.70422">
        <ele>1223.7</ele>
        <time>2022-08-29T09:36:03Z</time>
      </trkpt>
      <trkpt lat="45.9323" lon="3.70419">
        <ele>1223.9</ele>
        <time>2022-08-29T09:36:04Z</time>
      </trkpt>
      <trkpt lat="45.9323" lon="3.70417">
        <ele>1224.1</ele>
        <time>2022-08-29T09:36:05Z</time>
      </trkpt>
      <trkpt lat="45.9323" lon="3.70415">
        <ele>1224.3</ele>
        <time>2022-08-29T09:36:06Z</time>
      </trkpt>
      <trkpt lat="45.9323" lon="3.70413">
        <ele>1224.4</ele>
        <time>2022-08-29T09:36:07Z</time>
      </trkpt>
      <trkpt lat="45.9323" lon="3.70412">
        <ele>1224.5</ele>
        <time>2022-08-29T09:36:08Z</time>
      </trkpt>
      <trkpt lat="45.9323" lon="3.70411">
        <ele>1224.6</ele>
        <time>2022-08-29T09:36:09Z</time>
      </trkpt>
      <trkpt lat="45.93229" lon="3.70409">
        <ele>1224.8</ele>
        <time>2022-08-29T09:36:10Z</time>
      </trkpt>
      <trkpt lat="45.93229" lon="3.70407">
        <ele>1224.9</ele>
        <time>2022-08-29T09:36:11Z</time>
      </trkpt>
      <trkpt lat="45.93229" lon="3.70406">
        <ele>1225</ele>
        <time>2022-08-29T09:36:12Z</time>
      </trkpt>
      <trkpt lat="45.93229" lon="3.70404">
        <ele>1225.1</ele>
        <time>2022-08-29T09:36:13Z</time>
      </trkpt>
      <trkpt lat="45.93229" lon="3.70402">
        <ele>1225.2</ele>
        <time>2022-08-29T09:36:14Z</time>
      </trkpt>
      <trkpt lat="45.9323" lon="3.704">
        <ele>1225.4</ele>
        <time>2022-08-29T09:36:15Z</time>
      </trkpt>
      <trkpt lat="45.9323" lon="3.70398">
        <ele>1225.5</ele>
        <time>2022-08-29T09:36:16Z</time>
      </trkpt>
      <trkpt lat="45.9323" lon="3.70397">
        <ele>1225.6</ele>
        <time>2022-08-29T09:36:17Z</time>
      </trkpt>
      <trkpt lat="45.9323" lon="3.70395">
        <ele>1225.7</ele>
        <time>2022-08-29T09:36:18Z</time>
      </trkpt>
      <trkpt lat="45.93229" lon="3.70394">
        <ele>1225.8</ele>
        <time>2022-08-29T09:36:19Z</time>
      </trkpt>
      <trkpt lat="45.93229" lon="3.70392">
        <ele>1225.9</ele>
        <time>2022-08-29T09:36:20Z</time>
      </trkpt>
      <trkpt lat="45.93228" lon="3.7039">
        <ele>1226.1</ele>
        <time>2022-08-29T09:36:21Z</time>
      </trkpt>
      <trkpt lat="45.93227" lon="3.70389">
        <ele>1226.2</ele>
        <time>2022-08-29T09:36:22Z</time>
      </trkpt>
      <trkpt lat="45.93227" lon="3.70388">
        <ele>1226.2</ele>
        <time>2022-08-29T09:36:23Z</time>
      </trkpt>
      <trkpt lat="45.93226" lon="3.70387">
        <ele>1226.3</ele>
        <time>2022-08-29T09:36:24Z</time>
      </trkpt>
      <trkpt lat="45.93225" lon="3.70385">
        <ele>1226.4</ele>
        <time>2022-08-29T09:36:25Z</time>
      </trkpt>
      <trkpt lat="45.93225" lon="3.70384">
        <ele>1226.5</ele>
        <time>2022-08-29T09:36:26Z</time>
      </trkpt>
      <trkpt lat="45.93224" lon="3.70381">
        <ele>1226.7</ele>
        <time>2022-08-29T09:36:27Z</time>
      </trkpt>
      <trkpt lat="45.93224" lon="3.70379">
        <ele>1226.8</ele>
        <time>2022-08-29T09:36:28Z</time>
      </trkpt>
      <trkpt lat="45.93224" lon="3.70376">
        <ele>1227</ele>
        <time>2022-08-29T09:36:29Z</time>
      </trkpt>
      <trkpt lat="45.93225" lon="3.70374">
        <ele>1227.1</ele>
        <time>2022-08-29T09:36:30Z</time>
      </trkpt>
      <trkpt lat="45.93225" lon="3.70368">
        <ele>1227.5</ele>
        <time>2022-08-29T09:36:31Z</time>
      </trkpt>
      <trkpt lat="45.93225" lon="3.70366">
        <ele>1227.6</ele>
        <time>2022-08-29T09:36:32Z</time>
      </trkpt>
      <trkpt lat="45.93225" lon="3.70362">
        <ele>1227.8</ele>
        <time>2022-08-29T09:36:33Z</time>
      </trkpt>
      <trkpt lat="45.93225" lon="3.70361">
        <ele>1227.9</ele>
        <time>2022-08-29T09:36:34Z</time>
      </trkpt>
      <trkpt lat="45.93225" lon="3.70358">
        <ele>1228.1</ele>
        <time>2022-08-29T09:36:35Z</time>
      </trkpt>
      <trkpt lat="45.93225" lon="3.70356">
        <ele>1228.2</ele>
        <time>2022-08-29T09:36:36Z</time>
      </trkpt>
      <trkpt lat="45.93225" lon="3.70354">
        <ele>1228.3</ele>
        <time>2022-08-29T09:36:37Z</time>
      </trkpt>
      <trkpt lat="45.93225" lon="3.70353">
        <ele>1228.4</ele>
        <time>2022-08-29T09:36:38Z</time>
      </trkpt>
      <trkpt lat="45.93224" lon="3.70351">
        <ele>1228.4</ele>
        <time>2022-08-29T09:36:39Z</time>
      </trkpt>
      <trkpt lat="45.93224" lon="3.7035">
        <ele>1228.5</ele>
        <time>2022-08-29T09:36:40Z</time>
      </trkpt>
      <trkpt lat="45.93224" lon="3.70348">
        <ele>1228.6</ele>
        <time>2022-08-29T09:36:41Z</time>
      </trkpt>
      <trkpt lat="45.93224" lon="3.70346">
        <ele>1228.7</ele>
        <time>2022-08-29T09:36:42Z</time>
      </trkpt>
      <trkpt lat="45.93223" lon="3.70344">
        <ele>1228.8</ele>
        <time>2022-08-29T09:36:43Z</time>
      </trkpt>
      <trkpt lat="45.93223" lon="3.70342">
        <ele>1228.9</ele>
        <time>2022-08-29T09:36:44Z</time>
      </trkpt>
      <trkpt lat="45.93223" lon="3.7034">
        <ele>1229</ele>
        <time>2022-08-29T09:36:45Z</time>
      </trkpt>
      <trkpt lat="45.93223" lon="3.70338">
        <ele>1229</ele>
        <time>2022-08-29T09:36:46Z</time>
      </trkpt>
      <trkpt lat="45.93224" lon="3.70335">
        <ele>1229.2</ele>
        <time>2022-08-29T09:36:47Z</time>
      </trkpt>
      <trkpt lat="45.93224" lon="3.70333">
        <ele>1229.3</ele>
        <time>2022-08-29T09:36:48Z</time>
      </trkpt>
      <trkpt lat="45.93225" lon="3.7033">
        <ele>1229.4</ele>
        <time>2022-08-29T09:36:49Z</time>
      </trkpt>
      <trkpt lat="45.93225" lon="3.70329">
        <ele>1229.4</ele>
        <time>2022-08-29T09:36:50Z</time>
      </trkpt>
      <trkpt lat="45.93225" lon="3.70328">
        <ele>1229.5</ele>
        <time>2022-08-29T09:36:51Z</time>
      </trkpt>
      <trkpt lat="45.93225" lon="3.70326">
        <ele>1229.5</ele>
        <time>2022-08-29T09:36:52Z</time>
      </trkpt>
      <trkpt lat="45.93226" lon="3.70324">
        <ele>1229.6</ele>
        <time>2022-08-29T09:36:53Z</time>
      </trkpt>
      <trkpt lat="45.93226" lon="3.70323">
        <ele>1229.7</ele>
        <time>2022-08-29T09:36:54Z</time>
      </trkpt>
      <trkpt lat="45.93227" lon="3.70321">
        <ele>1229.7</ele>
        <time>2022-08-29T09:36:55Z</time>
      </trkpt>
      <trkpt lat="45.93227" lon="3.70319">
        <ele>1229.8</ele>
        <time>2022-08-29T09:36:56Z</time>
      </trkpt>
      <trkpt lat="45.93227" lon="3.70317">
        <ele>1229.8</ele>
        <time>2022-08-29T09:36:57Z</time>
      </trkpt>
      <trkpt lat="45.93227" lon="3.70315">
        <ele>1229.9</ele>
        <time>2022-08-29T09:36:58Z</time>
      </trkpt>
      <trkpt lat="45.93228" lon="3.70313">
        <ele>1229.9</ele>
        <time>2022-08-29T09:36:59Z</time>
      </trkpt>
      <trkpt lat="45.93228" lon="3.70312">
        <ele>1229.9</ele>
        <time>2022-08-29T09:37:00Z</time>
      </trkpt>
      <trkpt lat="45.93227" lon="3.7031">
        <ele>1230</ele>
        <time>2022-08-29T09:37:01Z</time>
      </trkpt>
      <trkpt lat="45.93227" lon="3.70309">
        <ele>1230</ele>
        <time>2022-08-29T09:37:02Z</time>
      </trkpt>
      <trkpt lat="45.93226" lon="3.70307">
        <ele>1230</ele>
        <time>2022-08-29T09:37:03Z</time>
      </trkpt>
      <trkpt lat="45.93226" lon="3.70305">
        <ele>1230.1</ele>
        <time>2022-08-29T09:37:04Z</time>
      </trkpt>
      <trkpt lat="45.93225" lon="3.70304">
        <ele>1230.1</ele>
        <time>2022-08-29T09:37:05Z</time>
      </trkpt>
      <trkpt lat="45.93225" lon="3.70302">
        <ele>1230.1</ele>
        <time>2022-08-29T09:37:06Z</time>
      </trkpt>
      <trkpt lat="45.93225" lon="3.70301">
        <ele>1230.2</ele>
        <time>2022-08-29T09:37:07Z</time>
      </trkpt>
      <trkpt lat="45.93224" lon="3.70298">
        <ele>1230.2</ele>
        <time>2022-08-29T09:37:08Z</time>
      </trkpt>
      <trkpt lat="45.93224" lon="3.70297">
        <ele>1230.2</ele>
        <time>2022-08-29T09:37:09Z</time>
      </trkpt>
      <trkpt lat="45.93224" lon="3.70296">
        <ele>1230.3</ele>
        <time>2022-08-29T09:37:10Z</time>
      </trkpt>
      <trkpt lat="45.93224" lon="3.70294">
        <ele>1230.3</ele>
        <time>2022-08-29T09:37:11Z</time>
      </trkpt>
      <trkpt lat="45.93223" lon="3.70293">
        <ele>1230.4</ele>
        <time>2022-08-29T09:37:12Z</time>
      </trkpt>
      <trkpt lat="45.93223" lon="3.70291">
        <ele>1230.4</ele>
        <time>2022-08-29T09:37:13Z</time>
      </trkpt>
      <trkpt lat="45.93223" lon="3.7029">
        <ele>1230.4</ele>
        <time>2022-08-29T09:37:14Z</time>
      </trkpt>
      <trkpt lat="45.93223" lon="3.70289">
        <ele>1230.5</ele>
        <time>2022-08-29T09:37:15Z</time>
      </trkpt>
      <trkpt lat="45.93223" lon="3.70288">
        <ele>1230.5</ele>
        <time>2022-08-29T09:37:16Z</time>
      </trkpt>
      <trkpt lat="45.93224" lon="3.70286">
        <ele>1230.6</ele>
        <time>2022-08-29T09:37:17Z</time>
      </trkpt>
      <trkpt lat="45.93224" lon="3.70284">
        <ele>1230.6</ele>
        <time>2022-08-29T09:37:18Z</time>
      </trkpt>
      <trkpt lat="45.93225" lon="3.70283">
        <ele>1230.7</ele>
        <time>2022-08-29T09:37:19Z</time>
      </trkpt>
      <trkpt lat="45.93226" lon="3.7028">
        <ele>1230.8</ele>
        <time>2022-08-29T09:37:20Z</time>
      </trkpt>
      <trkpt lat="45.93226" lon="3.70279">
        <ele>1230.8</ele>
        <time>2022-08-29T09:37:21Z</time>
      </trkpt>
      <trkpt lat="45.93227" lon="3.70278">
        <ele>1230.9</ele>
        <time>2022-08-29T09:37:22Z</time>
      </trkpt>
      <trkpt lat="45.93227" lon="3.70275">
        <ele>1231</ele>
        <time>2022-08-29T09:37:23Z</time>
      </trkpt>
      <trkpt lat="45.93227" lon="3.70274">
        <ele>1231</ele>
        <time>2022-08-29T09:37:24Z</time>
      </trkpt>
      <trkpt lat="45.93228" lon="3.70273">
        <ele>1231.1</ele>
        <time>2022-08-29T09:37:25Z</time>
      </trkpt>
      <trkpt lat="45.93228" lon="3.70272">
        <ele>1231.1</ele>
        <time>2022-08-29T09:37:26Z</time>
      </trkpt>
      <trkpt lat="45.93228" lon="3.7027">
        <ele>1231.2</ele>
        <time>2022-08-29T09:37:27Z</time>
      </trkpt>
      <trkpt lat="45.93228" lon="3.70268">
        <ele>1231.2</ele>
        <time>2022-08-29T09:37:28Z</time>
      </trkpt>
      <trkpt lat="45.93228" lon="3.70267">
        <ele>1231.3</ele>
        <time>2022-08-29T09:37:29Z</time>
      </trkpt>
      <trkpt lat="45.93228" lon="3.70265">
        <ele>1231.3</ele>
        <time>2022-08-29T09:37:30Z</time>
      </trkpt>
      <trkpt lat="45.93227" lon="3.70264">
        <ele>1231.4</ele>
        <time>2022-08-29T09:37:31Z</time>
      </trkpt>
      <trkpt lat="45.93227" lon="3.70262">
        <ele>1231.4</ele>
        <time>2022-08-29T09:37:32Z</time>
      </trkpt>
      <trkpt lat="45.93226" lon="3.7026">
        <ele>1231.5</ele>
        <time>2022-08-29T09:37:33Z</time>
      </trkpt>
      <trkpt lat="45.93226" lon="3.70257">
        <ele>1231.6</ele>
        <time>2022-08-29T09:37:34Z</time>
      </trkpt>
      <trkpt lat="45.93226" lon="3.70255">
        <ele>1231.6</ele>
        <time>2022-08-29T09:37:35Z</time>
      </trkpt>
      <trkpt lat="45.93226" lon="3.70254">
        <ele>1231.6</ele>
        <time>2022-08-29T09:37:36Z</time>
      </trkpt>
      <trkpt lat="45.93226" lon="3.70253">
        <ele>1231.7</ele>
        <time>2022-08-29T09:37:37Z</time>
      </trkpt>
      <trkpt lat="45.93226" lon="3.7025">
        <ele>1231.7</ele>
        <time>2022-08-29T09:37:38Z</time>
      </trkpt>
      <trkpt lat="45.93226" lon="3.70248">
        <ele>1231.8</ele>
        <time>2022-08-29T09:37:39Z</time>
      </trkpt>
      <trkpt lat="45.93226" lon="3.70246">
        <ele>1231.8</ele>
        <time>2022-08-29T09:37:40Z</time>
      </trkpt>
      <trkpt lat="45.93226" lon="3.70244">
        <ele>1231.8</ele>
        <time>2022-08-29T09:37:41Z</time>
      </trkpt>
      <trkpt lat="45.93226" lon="3.70242">
        <ele>1231.9</ele>
        <time>2022-08-29T09:37:42Z</time>
      </trkpt>
      <trkpt lat="45.93225" lon="3.70238">
        <ele>1232</ele>
        <time>2022-08-29T09:37:43Z</time>
      </trkpt>
      <trkpt lat="45.93225" lon="3.70237">
        <ele>1232</ele>
        <time>2022-08-29T09:37:44Z</time>
      </trkpt>
      <trkpt lat="45.93224" lon="3.70235">
        <ele>1232</ele>
        <time>2022-08-29T09:37:45Z</time>
      </trkpt>
      <trkpt lat="45.93224" lon="3.70233">
        <ele>1232</ele>
        <time>2022-08-29T09:37:46Z</time>
      </trkpt>
      <trkpt lat="45.93223" lon="3.7023">
        <ele>1232.1</ele>
        <time>2022-08-29T09:37:47Z</time>
      </trkpt>
      <trkpt lat="45.93223" lon="3.70229">
        <ele>1232.1</ele>
        <time>2022-08-29T09:37:48Z</time>
      </trkpt>
      <trkpt lat="45.93223" lon="3.70228">
        <ele>1232.1</ele>
        <time>2022-08-29T09:37:49Z</time>
      </trkpt>
      <trkpt lat="45.93223" lon="3.70225">
        <ele>1232.2</ele>
        <time>2022-08-29T09:37:50Z</time>
      </trkpt>
      <trkpt lat="45.93223" lon="3.70223">
        <ele>1232.2</ele>
        <time>2022-08-29T09:37:51Z</time>
      </trkpt>
      <trkpt lat="45.93223" lon="3.70222">
        <ele>1232.2</ele>
        <time>2022-08-29T09:37:52Z</time>
      </trkpt>
      <trkpt lat="45.93223" lon="3.7022">
        <ele>1232.3</ele>
        <time>2022-08-29T09:37:53Z</time>
      </trkpt>
      <trkpt lat="45.93224" lon="3.70218">
        <ele>1232.3</ele>
        <time>2022-08-29T09:37:54Z</time>
      </trkpt>
      <trkpt lat="45.93224" lon="3.70216">
        <ele>1232.3</ele>
        <time>2022-08-29T09:37:55Z</time>
      </trkpt>
      <trkpt lat="45.93225" lon="3.70214">
        <ele>1232.4</ele>
        <time>2022-08-29T09:37:56Z</time>
      </trkpt>
      <trkpt lat="45.93226" lon="3.7021">
        <ele>1232.5</ele>
        <time>2022-08-29T09:37:57Z</time>
      </trkpt>
      <trkpt lat="45.93226" lon="3.70208">
        <ele>1232.5</ele>
        <time>2022-08-29T09:37:58Z</time>
      </trkpt>
      <trkpt lat="45.93227" lon="3.70206">
        <ele>1232.6</ele>
        <time>2022-08-29T09:37:59Z</time>
      </trkpt>
      <trkpt lat="45.93227" lon="3.70204">
        <ele>1232.6</ele>
        <time>2022-08-29T09:38:00Z</time>
      </trkpt>
      <trkpt lat="45.93227" lon="3.70202">
        <ele>1232.6</ele>
        <time>2022-08-29T09:38:01Z</time>
      </trkpt>
      <trkpt lat="45.93227" lon="3.702">
        <ele>1232.7</ele>
        <time>2022-08-29T09:38:02Z</time>
      </trkpt>
      <trkpt lat="45.93226" lon="3.70197">
        <ele>1232.7</ele>
        <time>2022-08-29T09:38:03Z</time>
      </trkpt>
      <trkpt lat="45.93225" lon="3.70196">
        <ele>1232.8</ele>
        <time>2022-08-29T09:38:04Z</time>
      </trkpt>
      <trkpt lat="45.93224" lon="3.70193">
        <ele>1232.8</ele>
        <time>2022-08-29T09:38:05Z</time>
      </trkpt>
      <trkpt lat="45.93224" lon="3.70192">
        <ele>1232.8</ele>
        <time>2022-08-29T09:38:06Z</time>
      </trkpt>
      <trkpt lat="45.93223" lon="3.70191">
        <ele>1232.8</ele>
        <time>2022-08-29T09:38:07Z</time>
      </trkpt>
      <trkpt lat="45.93223" lon="3.7019">
        <ele>1232.9</ele>
        <time>2022-08-29T09:38:08Z</time>
      </trkpt>
      <trkpt lat="45.93222" lon="3.70188">
        <ele>1232.9</ele>
        <time>2022-08-29T09:38:09Z</time>
      </trkpt>
      <trkpt lat="45.93222" lon="3.70187">
        <ele>1232.9</ele>
        <time>2022-08-29T09:38:10Z</time>
      </trkpt>
      <trkpt lat="45.93221" lon="3.70184">
        <ele>1233</ele>
        <time>2022-08-29T09:38:11Z</time>
      </trkpt>
      <trkpt lat="45.93221" lon="3.70183">
        <ele>1233</ele>
        <time>2022-08-29T09:38:12Z</time>
      </trkpt>
      <trkpt lat="45.93221" lon="3.70181">
        <ele>1233</ele>
        <time>2022-08-29T09:38:13Z</time>
      </trkpt>
      <trkpt lat="45.93221" lon="3.7018">
        <ele>1233</ele>
        <time>2022-08-29T09:38:14Z</time>
      </trkpt>
      <trkpt lat="45.93221" lon="3.70179">
        <ele>1233</ele>
        <time>2022-08-29T09:38:15Z</time>
      </trkpt>
      <trkpt lat="45.93221" lon="3.70178">
        <ele>1233</ele>
        <time>2022-08-29T09:38:16Z</time>
      </trkpt>
      <trkpt lat="45.93221" lon="3.70177">
        <ele>1233</ele>
        <time>2022-08-29T09:38:17Z</time>
      </trkpt>
      <trkpt lat="45.93221" lon="3.70176">
        <ele>1233</ele>
        <time>2022-08-29T09:38:18Z</time>
      </trkpt>
      <trkpt lat="45.93221" lon="3.70175">
        <ele>1233.1</ele>
        <time>2022-08-29T09:38:19Z</time>
      </trkpt>
      <trkpt lat="45.93221" lon="3.70173">
        <ele>1233.1</ele>
        <time>2022-08-29T09:38:20Z</time>
      </trkpt>
      <trkpt lat="45.93222" lon="3.7017">
        <ele>1233.1</ele>
        <time>2022-08-29T09:38:21Z</time>
      </trkpt>
      <trkpt lat="45.93222" lon="3.70168">
        <ele>1233.1</ele>
        <time>2022-08-29T09:38:22Z</time>
      </trkpt>
      <trkpt lat="45.93222" lon="3.70167">
        <ele>1233.1</ele>
        <time>2022-08-29T09:38:23Z</time>
      </trkpt>
      <trkpt lat="45.93223" lon="3.70166">
        <ele>1233.1</ele>
        <time>2022-08-29T09:38:24Z</time>
      </trkpt>
      <trkpt lat="45.93223" lon="3.70164">
        <ele>1233.1</ele>
        <time>2022-08-29T09:38:25Z</time>
      </trkpt>
      <trkpt lat="45.93222" lon="3.70162">
        <ele>1233.1</ele>
        <time>2022-08-29T09:38:26Z</time>
      </trkpt>
      <trkpt lat="45.93221" lon="3.70159">
        <ele>1233.2</ele>
        <time>2022-08-29T09:38:27Z</time>
      </trkpt>
      <trkpt lat="45.9322" lon="3.70158">
        <ele>1233.2</ele>
        <time>2022-08-29T09:38:28Z</time>
      </trkpt>
      <trkpt lat="45.9322" lon="3.70156">
        <ele>1233.2</ele>
        <time>2022-08-29T09:38:29Z</time>
      </trkpt>
      <trkpt lat="45.93219" lon="3.70154">
        <ele>1233.2</ele>
        <time>2022-08-29T09:38:30Z</time>
      </trkpt>
      <trkpt lat="45.93218" lon="3.7015">
        <ele>1233.3</ele>
        <time>2022-08-29T09:38:31Z</time>
      </trkpt>
      <trkpt lat="45.93217" lon="3.70149">
        <ele>1233.3</ele>
        <time>2022-08-29T09:38:32Z</time>
      </trkpt>
      <trkpt lat="45.93217" lon="3.70146">
        <ele>1233.3</ele>
        <time>2022-08-29T09:38:33Z</time>
      </trkpt>
      <trkpt lat="45.93216" lon="3.70144">
        <ele>1233.3</ele>
        <time>2022-08-29T09:38:34Z</time>
      </trkpt>
      <trkpt lat="45.93216" lon="3.70141">
        <ele>1233.4</ele>
        <time>2022-08-29T09:38:35Z</time>
      </trkpt>
      <trkpt lat="45.93215" lon="3.7014">
        <ele>1233.4</ele>
        <time>2022-08-29T09:38:36Z</time>
      </trkpt>
      <trkpt lat="45.93215" lon="3.70139">
        <ele>1233.4</ele>
        <time>2022-08-29T09:38:37Z</time>
      </trkpt>
      <trkpt lat="45.93214" lon="3.70137">
        <ele>1233.4</ele>
        <time>2022-08-29T09:38:38Z</time>
      </trkpt>
      <trkpt lat="45.93214" lon="3.70134">
        <ele>1233.5</ele>
        <time>2022-08-29T09:38:39Z</time>
      </trkpt>
      <trkpt lat="45.93213" lon="3.70132">
        <ele>1233.5</ele>
        <time>2022-08-29T09:38:40Z</time>
      </trkpt>
      <trkpt lat="45.93212" lon="3.70131">
        <ele>1233.5</ele>
        <time>2022-08-29T09:38:41Z</time>
      </trkpt>
      <trkpt lat="45.9321" lon="3.70129">
        <ele>1233.6</ele>
        <time>2022-08-29T09:38:42Z</time>
      </trkpt>
      <trkpt lat="45.9321" lon="3.70128">
        <ele>1233.6</ele>
        <time>2022-08-29T09:38:43Z</time>
      </trkpt>
      <trkpt lat="45.93209" lon="3.70128">
        <ele>1233.6</ele>
        <time>2022-08-29T09:38:44Z</time>
      </trkpt>
      <trkpt lat="45.93208" lon="3.70125">
        <ele>1233.6</ele>
        <time>2022-08-29T09:38:45Z</time>
      </trkpt>
      <trkpt lat="45.93207" lon="3.70124">
        <ele>1233.7</ele>
        <time>2022-08-29T09:38:46Z</time>
      </trkpt>
      <trkpt lat="45.93207" lon="3.70123">
        <ele>1233.7</ele>
        <time>2022-08-29T09:38:47Z</time>
      </trkpt>
      <trkpt lat="45.93206" lon="3.70121">
        <ele>1233.7</ele>
        <time>2022-08-29T09:38:48Z</time>
      </trkpt>
      <trkpt lat="45.93205" lon="3.7012">
        <ele>1233.7</ele>
        <time>2022-08-29T09:38:49Z</time>
      </trkpt>
      <trkpt lat="45.93204" lon="3.70119">
        <ele>1233.7</ele>
        <time>2022-08-29T09:38:50Z</time>
      </trkpt>
      <trkpt lat="45.93203" lon="3.70118">
        <ele>1233.8</ele>
        <time>2022-08-29T09:38:51Z</time>
      </trkpt>
      <trkpt lat="45.93201" lon="3.70116">
        <ele>1233.8</ele>
        <time>2022-08-29T09:38:52Z</time>
      </trkpt>
      <trkpt lat="45.932" lon="3.70115">
        <ele>1233.8</ele>
        <time>2022-08-29T09:38:53Z</time>
      </trkpt>
      <trkpt lat="45.93198" lon="3.70113">
        <ele>1233.9</ele>
        <time>2022-08-29T09:38:54Z</time>
      </trkpt>
      <trkpt lat="45.93197" lon="3.70112">
        <ele>1233.9</ele>
        <time>2022-08-29T09:38:55Z</time>
      </trkpt>
      <trkpt lat="45.93196" lon="3.70111">
        <ele>1233.9</ele>
        <time>2022-08-29T09:38:56Z</time>
      </trkpt>
      <trkpt lat="45.93195" lon="3.7011">
        <ele>1233.9</ele>
        <time>2022-08-29T09:38:57Z</time>
      </trkpt>
      <trkpt lat="45.93195" lon="3.70108">
        <ele>1233.9</ele>
        <time>2022-08-29T09:38:58Z</time>
      </trkpt>
      <trkpt lat="45.93194" lon="3.70107">
        <ele>1233.9</ele>
        <time>2022-08-29T09:38:59Z</time>
      </trkpt>
      <trkpt lat="45.93193" lon="3.70107">
        <ele>1233.9</ele>
        <time>2022-08-29T09:39:00Z</time>
      </trkpt>
      <trkpt lat="45.93193" lon="3.70106">
        <ele>1233.9</ele>
        <time>2022-08-29T09:39:01Z</time>
      </trkpt>
      <trkpt lat="45.93192" lon="3.70106">
        <ele>1233.9</ele>
        <time>2022-08-29T09:39:02Z</time>
      </trkpt>
      <trkpt lat="45.93192" lon="3.70105">
        <ele>1234</ele>
        <time>2022-08-29T09:39:03Z</time>
      </trkpt>
      <trkpt lat="45.93191" lon="3.70104">
        <ele>1234</ele>
        <time>2022-08-29T09:39:04Z</time>
      </trkpt>
      <trkpt lat="45.9319" lon="3.70103">
        <ele>1234</ele>
        <time>2022-08-29T09:39:05Z</time>
      </trkpt>
      <trkpt lat="45.93189" lon="3.70102">
        <ele>1234</ele>
        <time>2022-08-29T09:39:06Z</time>
      </trkpt>
      <trkpt lat="45.93188" lon="3.70101">
        <ele>1234</ele>
        <time>2022-08-29T09:39:07Z</time>
      </trkpt>
      <trkpt lat="45.93187" lon="3.70099">
        <ele>1234</ele>
        <time>2022-08-29T09:39:08Z</time>
      </trkpt>
      <trkpt lat="45.93186" lon="3.70097">
        <ele>1233.9</ele>
        <time>2022-08-29T09:39:09Z</time>
      </trkpt>
      <trkpt lat="45.93185" lon="3.70095">
        <ele>1233.9</ele>
        <time>2022-08-29T09:39:10Z</time>
      </trkpt>
      <trkpt lat="45.93184" lon="3.70092">
        <ele>1233.9</ele>
        <time>2022-08-29T09:39:11Z</time>
      </trkpt>
      <trkpt lat="45.93183" lon="3.70091">
        <ele>1233.9</ele>
        <time>2022-08-29T09:39:12Z</time>
      </trkpt>
      <trkpt lat="45.93182" lon="3.70087">
        <ele>1233.8</ele>
        <time>2022-08-29T09:39:13Z</time>
      </trkpt>
      <trkpt lat="45.93181" lon="3.70085">
        <ele>1233.8</ele>
        <time>2022-08-29T09:39:14Z</time>
      </trkpt>
      <trkpt lat="45.9318" lon="3.70083">
        <ele>1233.8</ele>
        <time>2022-08-29T09:39:15Z</time>
      </trkpt>
      <trkpt lat="45.93179" lon="3.70082">
        <ele>1233.8</ele>
        <time>2022-08-29T09:39:16Z</time>
      </trkpt>
      <trkpt lat="45.93178" lon="3.7008">
        <ele>1233.8</ele>
        <time>2022-08-29T09:39:17Z</time>
      </trkpt>
      <trkpt lat="45.93176" lon="3.70079">
        <ele>1233.8</ele>
        <time>2022-08-29T09:39:18Z</time>
      </trkpt>
      <trkpt lat="45.93175" lon="3.70077">
        <ele>1233.8</ele>
        <time>2022-08-29T09:39:19Z</time>
      </trkpt>
      <trkpt lat="45.93174" lon="3.70076">
        <ele>1233.8</ele>
        <time>2022-08-29T09:39:20Z</time>
      </trkpt>
      <trkpt lat="45.93173" lon="3.70074">
        <ele>1233.8</ele>
        <time>2022-08-29T09:39:21Z</time>
      </trkpt>
      <trkpt lat="45.93172" lon="3.70073">
        <ele>1233.8</ele>
        <time>2022-08-29T09:39:22Z</time>
      </trkpt>
      <trkpt lat="45.9317" lon="3.70071">
        <ele>1233.8</ele>
        <time>2022-08-29T09:39:23Z</time>
      </trkpt>
      <trkpt lat="45.9317" lon="3.7007">
        <ele>1233.8</ele>
        <time>2022-08-29T09:39:24Z</time>
      </trkpt>
      <trkpt lat="45.93169" lon="3.70069">
        <ele>1233.8</ele>
        <time>2022-08-29T09:39:25Z</time>
      </trkpt>
      <trkpt lat="45.93168" lon="3.70068">
        <ele>1233.8</ele>
        <time>2022-08-29T09:39:26Z</time>
      </trkpt>
      <trkpt lat="45.93167" lon="3.70067">
        <ele>1233.8</ele>
        <time>2022-08-29T09:39:27Z</time>
      </trkpt>
      <trkpt lat="45.93165" lon="3.70066">
        <ele>1233.8</ele>
        <time>2022-08-29T09:39:28Z</time>
      </trkpt>
      <trkpt lat="45.93164" lon="3.70065">
        <ele>1233.8</ele>
        <time>2022-08-29T09:39:29Z</time>
      </trkpt>
      <trkpt lat="45.93163" lon="3.70064">
        <ele>1233.8</ele>
        <time>2022-08-29T09:39:30Z</time>
      </trkpt>
      <trkpt lat="45.93161" lon="3.70063">
        <ele>1233.9</ele>
        <time>2022-08-29T09:39:31Z</time>
      </trkpt>
      <trkpt lat="45.9316" lon="3.70062">
        <ele>1233.9</ele>
        <time>2022-08-29T09:39:32Z</time>
      </trkpt>
      <trkpt lat="45.93159" lon="3.7006">
        <ele>1233.9</ele>
        <time>2022-08-29T09:39:33Z</time>
      </trkpt>
      <trkpt lat="45.93156" lon="3.70057">
        <ele>1233.9</ele>
        <time>2022-08-29T09:39:34Z</time>
      </trkpt>
      <trkpt lat="45.93155" lon="3.70056">
        <ele>1233.9</ele>
        <time>2022-08-29T09:39:35Z</time>
      </trkpt>
      <trkpt lat="45.93154" lon="3.70054">
        <ele>1234</ele>
        <time>2022-08-29T09:39:36Z</time>
      </trkpt>
      <trkpt lat="45.93153" lon="3.70053">
        <ele>1234</ele>
        <time>2022-08-29T09:39:37Z</time>
      </trkpt>
      <trkpt lat="45.93151" lon="3.70052">
        <ele>1234</ele>
        <time>2022-08-29T09:39:38Z</time>
      </trkpt>
      <trkpt lat="45.9315" lon="3.7005">
        <ele>1234</ele>
        <time>2022-08-29T09:39:39Z</time>
      </trkpt>
      <trkpt lat="45.93149" lon="3.70049">
        <ele>1234</ele>
        <time>2022-08-29T09:39:40Z</time>
      </trkpt>
      <trkpt lat="45.93147" lon="3.70047">
        <ele>1234.1</ele>
        <time>2022-08-29T09:39:41Z</time>
      </trkpt>
      <trkpt lat="45.93146" lon="3.70046">
        <ele>1234.1</ele>
        <time>2022-08-29T09:39:42Z</time>
      </trkpt>
      <trkpt lat="45.93145" lon="3.70045">
        <ele>1234.1</ele>
        <time>2022-08-29T09:39:43Z</time>
      </trkpt>
      <trkpt lat="45.93144" lon="3.70045">
        <ele>1234.1</ele>
        <time>2022-08-29T09:39:44Z</time>
      </trkpt>
      <trkpt lat="45.93144" lon="3.70044">
        <ele>1234.1</ele>
        <time>2022-08-29T09:39:45Z</time>
      </trkpt>
      <trkpt lat="45.93143" lon="3.70044">
        <ele>1234.1</ele>
        <time>2022-08-29T09:39:46Z</time>
      </trkpt>
      <trkpt lat="45.93142" lon="3.70043">
        <ele>1234.1</ele>
        <time>2022-08-29T09:39:47Z</time>
      </trkpt>
      <trkpt lat="45.9314" lon="3.70042">
        <ele>1234.2</ele>
        <time>2022-08-29T09:39:48Z</time>
      </trkpt>
      <trkpt lat="45.93139" lon="3.70041">
        <ele>1234.2</ele>
        <time>2022-08-29T09:39:49Z</time>
      </trkpt>
      <trkpt lat="45.93139" lon="3.7004">
        <ele>1234.2</ele>
        <time>2022-08-29T09:39:50Z</time>
      </trkpt>
      <trkpt lat="45.93136" lon="3.70038">
        <ele>1234.2</ele>
        <time>2022-08-29T09:39:51Z</time>
      </trkpt>
      <trkpt lat="45.93134" lon="3.70037">
        <ele>1234.3</ele>
        <time>2022-08-29T09:39:53Z</time>
      </trkpt>
      <trkpt lat="45.93131" lon="3.70034">
        <ele>1234.3</ele>
        <time>2022-08-29T09:40:02Z</time>
      </trkpt>
      <trkpt lat="45.93129" lon="3.70033">
        <ele>1234.4</ele>
        <time>2022-08-29T09:40:03Z</time>
      </trkpt>
      <trkpt lat="45.93128" lon="3.70032">
        <ele>1234.4</ele>
        <time>2022-08-29T09:40:04Z</time>
      </trkpt>
      <trkpt lat="45.93127" lon="3.70031">
        <ele>1234.4</ele>
        <time>2022-08-29T09:40:05Z</time>
      </trkpt>
      <trkpt lat="45.93126" lon="3.70029">
        <ele>1234.4</ele>
        <time>2022-08-29T09:40:06Z</time>
      </trkpt>
      <trkpt lat="45.93125" lon="3.70027">
        <ele>1234.4</ele>
        <time>2022-08-29T09:40:07Z</time>
      </trkpt>
      <trkpt lat="45.93123" lon="3.70025">
        <ele>1234.5</ele>
        <time>2022-08-29T09:40:08Z</time>
      </trkpt>
      <trkpt lat="45.93121" lon="3.70022">
        <ele>1234.5</ele>
        <time>2022-08-29T09:40:09Z</time>
      </trkpt>
      <trkpt lat="45.93121" lon="3.70021">
        <ele>1234.5</ele>
        <time>2022-08-29T09:40:10Z</time>
      </trkpt>
      <trkpt lat="45.93118" lon="3.70019">
        <ele>1234.5</ele>
        <time>2022-08-29T09:40:11Z</time>
      </trkpt>
      <trkpt lat="45.93117" lon="3.70018">
        <ele>1234.5</ele>
        <time>2022-08-29T09:40:12Z</time>
      </trkpt>
      <trkpt lat="45.93115" lon="3.70017">
        <ele>1234.5</ele>
        <time>2022-08-29T09:40:13Z</time>
      </trkpt>
      <trkpt lat="45.93114" lon="3.70016">
        <ele>1234.5</ele>
        <time>2022-08-29T09:40:14Z</time>
      </trkpt>
      <trkpt lat="45.93113" lon="3.70015">
        <ele>1234.5</ele>
        <time>2022-08-29T09:40:15Z</time>
      </trkpt>
      <trkpt lat="45.93111" lon="3.70014">
        <ele>1234.5</ele>
        <time>2022-08-29T09:40:16Z</time>
      </trkpt>
      <trkpt lat="45.93108" lon="3.70012">
        <ele>1234.5</ele>
        <time>2022-08-29T09:40:17Z</time>
      </trkpt>
      <trkpt lat="45.93108" lon="3.70011">
        <ele>1234.5</ele>
        <time>2022-08-29T09:40:18Z</time>
      </trkpt>
      <trkpt lat="45.93106" lon="3.7001">
        <ele>1234.5</ele>
        <time>2022-08-29T09:40:19Z</time>
      </trkpt>
      <trkpt lat="45.93105" lon="3.70008">
        <ele>1234.5</ele>
        <time>2022-08-29T09:40:20Z</time>
      </trkpt>
      <trkpt lat="45.93104" lon="3.70007">
        <ele>1234.5</ele>
        <time>2022-08-29T09:40:21Z</time>
      </trkpt>
      <trkpt lat="45.93103" lon="3.70006">
        <ele>1234.5</ele>
        <time>2022-08-29T09:40:22Z</time>
      </trkpt>
      <trkpt lat="45.93101" lon="3.70004">
        <ele>1234.5</ele>
        <time>2022-08-29T09:40:23Z</time>
      </trkpt>
      <trkpt lat="45.93101" lon="3.70003">
        <ele>1234.5</ele>
        <time>2022-08-29T09:40:24Z</time>
      </trkpt>
      <trkpt lat="45.931" lon="3.70002">
        <ele>1234.5</ele>
        <time>2022-08-29T09:40:25Z</time>
      </trkpt>
      <trkpt lat="45.93099" lon="3.70001">
        <ele>1234.5</ele>
        <time>2022-08-29T09:40:26Z</time>
      </trkpt>
      <trkpt lat="45.93097" lon="3.69998">
        <ele>1234.4</ele>
        <time>2022-08-29T09:40:28Z</time>
      </trkpt>
      <trkpt lat="45.93096" lon="3.69995">
        <ele>1234.4</ele>
        <time>2022-08-29T09:40:29Z</time>
      </trkpt>
      <trkpt lat="45.93096" lon="3.69994">
        <ele>1234.4</ele>
        <time>2022-08-29T09:40:30Z</time>
      </trkpt>
      <trkpt lat="45.93095" lon="3.69993">
        <ele>1234.4</ele>
        <time>2022-08-29T09:40:31Z</time>
      </trkpt>
      <trkpt lat="45.93095" lon="3.69992">
        <ele>1234.4</ele>
        <time>2022-08-29T09:40:32Z</time>
      </trkpt>
      <trkpt lat="45.93095" lon="3.6999">
        <ele>1234.4</ele>
        <time>2022-08-29T09:40:33Z</time>
      </trkpt>
      <trkpt lat="45.93094" lon="3.69989">
        <ele>1234.4</ele>
        <time>2022-08-29T09:40:34Z</time>
      </trkpt>
      <trkpt lat="45.93094" lon="3.69987">
        <ele>1234.4</ele>
        <time>2022-08-29T09:40:35Z</time>
      </trkpt>
      <trkpt lat="45.93094" lon="3.69986">
        <ele>1234.3</ele>
        <time>2022-08-29T09:40:36Z</time>
      </trkpt>
      <trkpt lat="45.93094" lon="3.69984">
        <ele>1234.3</ele>
        <time>2022-08-29T09:40:37Z</time>
      </trkpt>
      <trkpt lat="45.93094" lon="3.69983">
        <ele>1234.2</ele>
        <time>2022-08-29T09:40:38Z</time>
      </trkpt>
      <trkpt lat="45.93095" lon="3.69982">
        <ele>1234.2</ele>
        <time>2022-08-29T09:40:39Z</time>
      </trkpt>
      <trkpt lat="45.93095" lon="3.69981">
        <ele>1234.1</ele>
        <time>2022-08-29T09:40:40Z</time>
      </trkpt>
      <trkpt lat="45.93096" lon="3.69978">
        <ele>1234.1</ele>
        <time>2022-08-29T09:40:41Z</time>
      </trkpt>
      <trkpt lat="45.93096" lon="3.69977">
        <ele>1234.1</ele>
        <time>2022-08-29T09:40:42Z</time>
      </trkpt>
      <trkpt lat="45.93097" lon="3.69976">
        <ele>1234.1</ele>
        <time>2022-08-29T09:40:43Z</time>
      </trkpt>
      <trkpt lat="45.93097" lon="3.69974">
        <ele>1234.1</ele>
        <time>2022-08-29T09:40:44Z</time>
      </trkpt>
      <trkpt lat="45.93097" lon="3.69971">
        <ele>1234.1</ele>
        <time>2022-08-29T09:40:45Z</time>
      </trkpt>
      <trkpt lat="45.93098" lon="3.6997">
        <ele>1234.1</ele>
        <time>2022-08-29T09:40:46Z</time>
      </trkpt>
      <trkpt lat="45.93099" lon="3.69967">
        <ele>1234</ele>
        <time>2022-08-29T09:40:47Z</time>
      </trkpt>
      <trkpt lat="45.931" lon="3.69965">
        <ele>1234</ele>
        <time>2022-08-29T09:40:48Z</time>
      </trkpt>
      <trkpt lat="45.931" lon="3.69964">
        <ele>1234</ele>
        <time>2022-08-29T09:40:49Z</time>
      </trkpt>
      <trkpt lat="45.93101" lon="3.69963">
        <ele>1234</ele>
        <time>2022-08-29T09:40:50Z</time>
      </trkpt>
      <trkpt lat="45.93102" lon="3.69961">
        <ele>1233.9</ele>
        <time>2022-08-29T09:40:51Z</time>
      </trkpt>
      <trkpt lat="45.93103" lon="3.6996">
        <ele>1233.9</ele>
        <time>2022-08-29T09:40:52Z</time>
      </trkpt>
      <trkpt lat="45.93103" lon="3.69959">
        <ele>1233.9</ele>
        <time>2022-08-29T09:40:53Z</time>
      </trkpt>
      <trkpt lat="45.93104" lon="3.69958">
        <ele>1233.8</ele>
        <time>2022-08-29T09:40:54Z</time>
      </trkpt>
      <trkpt lat="45.93105" lon="3.69956">
        <ele>1233.8</ele>
        <time>2022-08-29T09:40:55Z</time>
      </trkpt>
      <trkpt lat="45.93107" lon="3.69954">
        <ele>1233.7</ele>
        <time>2022-08-29T09:40:56Z</time>
      </trkpt>
      <trkpt lat="45.93108" lon="3.69952">
        <ele>1233.7</ele>
        <time>2022-08-29T09:40:57Z</time>
      </trkpt>
      <trkpt lat="45.93109" lon="3.69951">
        <ele>1233.6</ele>
        <time>2022-08-29T09:40:58Z</time>
      </trkpt>
      <trkpt lat="45.9311" lon="3.6995">
        <ele>1233.6</ele>
        <time>2022-08-29T09:40:59Z</time>
      </trkpt>
      <trkpt lat="45.93112" lon="3.69949">
        <ele>1233.6</ele>
        <time>2022-08-29T09:41:00Z</time>
      </trkpt>
      <trkpt lat="45.93113" lon="3.69948">
        <ele>1233.5</ele>
        <time>2022-08-29T09:41:01Z</time>
      </trkpt>
      <trkpt lat="45.93115" lon="3.69946">
        <ele>1233.4</ele>
        <time>2022-08-29T09:41:02Z</time>
      </trkpt>
      <trkpt lat="45.93116" lon="3.69945">
        <ele>1233.4</ele>
        <time>2022-08-29T09:41:03Z</time>
      </trkpt>
      <trkpt lat="45.93117" lon="3.69945">
        <ele>1233.4</ele>
        <time>2022-08-29T09:41:04Z</time>
      </trkpt>
      <trkpt lat="45.93118" lon="3.69944">
        <ele>1233.4</ele>
        <time>2022-08-29T09:41:05Z</time>
      </trkpt>
      <trkpt lat="45.93118" lon="3.69944">
        <ele>1233.4</ele>
        <time>2022-08-29T09:41:06Z</time>
      </trkpt>
      <trkpt lat="45.93119" lon="3.69943">
        <ele>1233.4</ele>
        <time>2022-08-29T09:41:07Z</time>
      </trkpt>
      <trkpt lat="45.93119" lon="3.69941">
        <ele>1233.3</ele>
        <time>2022-08-29T09:41:08Z</time>
      </trkpt>
      <trkpt lat="45.9312" lon="3.69939">
        <ele>1233.3</ele>
        <time>2022-08-29T09:41:09Z</time>
      </trkpt>
      <trkpt lat="45.9312" lon="3.69938">
        <ele>1233.3</ele>
        <time>2022-08-29T09:41:10Z</time>
      </trkpt>
      <trkpt lat="45.93123" lon="3.69934">
        <ele>1233.3</ele>
        <time>2022-08-29T09:41:11Z</time>
      </trkpt>
      <trkpt lat="45.93124" lon="3.69932">
        <ele>1233.2</ele>
        <time>2022-08-29T09:41:12Z</time>
      </trkpt>
      <trkpt lat="45.93126" lon="3.69929">
        <ele>1233.2</ele>
        <time>2022-08-29T09:41:13Z</time>
      </trkpt>
      <trkpt lat="45.93127" lon="3.69927">
        <ele>1233.2</ele>
        <time>2022-08-29T09:41:14Z</time>
      </trkpt>
      <trkpt lat="45.93129" lon="3.69925">
        <ele>1233.2</ele>
        <time>2022-08-29T09:41:15Z</time>
      </trkpt>
      <trkpt lat="45.9313" lon="3.69923">
        <ele>1233.2</ele>
        <time>2022-08-29T09:41:16Z</time>
      </trkpt>
      <trkpt lat="45.9313" lon="3.69921">
        <ele>1233.2</ele>
        <time>2022-08-29T09:41:17Z</time>
      </trkpt>
      <trkpt lat="45.93131" lon="3.69916">
        <ele>1233.2</ele>
        <time>2022-08-29T09:41:18Z</time>
      </trkpt>
      <trkpt lat="45.93132" lon="3.69914">
        <ele>1233.2</ele>
        <time>2022-08-29T09:41:19Z</time>
      </trkpt>
      <trkpt lat="45.93133" lon="3.6991">
        <ele>1233.2</ele>
        <time>2022-08-29T09:41:20Z</time>
      </trkpt>
      <trkpt lat="45.93133" lon="3.69909">
        <ele>1233.3</ele>
        <time>2022-08-29T09:41:21Z</time>
      </trkpt>
      <trkpt lat="45.93133" lon="3.69907">
        <ele>1233.3</ele>
        <time>2022-08-29T09:41:22Z</time>
      </trkpt>
      <trkpt lat="45.93133" lon="3.69905">
        <ele>1233.3</ele>
        <time>2022-08-29T09:41:23Z</time>
      </trkpt>
      <trkpt lat="45.93132" lon="3.69904">
        <ele>1233.3</ele>
        <time>2022-08-29T09:41:24Z</time>
      </trkpt>
      <trkpt lat="45.93131" lon="3.69902">
        <ele>1233.3</ele>
        <time>2022-08-29T09:41:25Z</time>
      </trkpt>
      <trkpt lat="45.93131" lon="3.699">
        <ele>1233.4</ele>
        <time>2022-08-29T09:41:26Z</time>
      </trkpt>
      <trkpt lat="45.93131" lon="3.69898">
        <ele>1233.4</ele>
        <time>2022-08-29T09:41:27Z</time>
      </trkpt>
      <trkpt lat="45.93131" lon="3.69896">
        <ele>1233.4</ele>
        <time>2022-08-29T09:41:28Z</time>
      </trkpt>
      <trkpt lat="45.93131" lon="3.69894">
        <ele>1233.5</ele>
        <time>2022-08-29T09:41:29Z</time>
      </trkpt>
      <trkpt lat="45.93131" lon="3.69891">
        <ele>1233.5</ele>
        <time>2022-08-29T09:41:30Z</time>
      </trkpt>
      <trkpt lat="45.93132" lon="3.69887">
        <ele>1233.6</ele>
        <time>2022-08-29T09:41:31Z</time>
      </trkpt>
      <trkpt lat="45.93132" lon="3.69886">
        <ele>1233.7</ele>
        <time>2022-08-29T09:41:32Z</time>
      </trkpt>
      <trkpt lat="45.93135" lon="3.69883">
        <ele>1233.8</ele>
        <time>2022-08-29T09:41:33Z</time>
      </trkpt>
      <trkpt lat="45.93135" lon="3.69882">
        <ele>1233.9</ele>
        <time>2022-08-29T09:41:34Z</time>
      </trkpt>
      <trkpt lat="45.93136" lon="3.69882">
        <ele>1233.9</ele>
        <time>2022-08-29T09:41:35Z</time>
      </trkpt>
      <trkpt lat="45.93137" lon="3.69881">
        <ele>1234</ele>
        <time>2022-08-29T09:41:36Z</time>
      </trkpt>
      <trkpt lat="45.93138" lon="3.69881">
        <ele>1234</ele>
        <time>2022-08-29T09:41:37Z</time>
      </trkpt>
      <trkpt lat="45.93138" lon="3.6988">
        <ele>1234</ele>
        <time>2022-08-29T09:41:38Z</time>
      </trkpt>
      <trkpt lat="45.93138" lon="3.69879">
        <ele>1234.1</ele>
        <time>2022-08-29T09:41:39Z</time>
      </trkpt>
      <trkpt lat="45.93138" lon="3.69878">
        <ele>1234.1</ele>
        <time>2022-08-29T09:41:40Z</time>
      </trkpt>
      <trkpt lat="45.93138" lon="3.69876">
        <ele>1234.2</ele>
        <time>2022-08-29T09:41:41Z</time>
      </trkpt>
      <trkpt lat="45.93138" lon="3.69875">
        <ele>1234.2</ele>
        <time>2022-08-29T09:41:42Z</time>
      </trkpt>
      <trkpt lat="45.93137" lon="3.69873">
        <ele>1234.3</ele>
        <time>2022-08-29T09:41:43Z</time>
      </trkpt>
      <trkpt lat="45.93136" lon="3.69871">
        <ele>1234.4</ele>
        <time>2022-08-29T09:41:44Z</time>
      </trkpt>
      <trkpt lat="45.93136" lon="3.69869">
        <ele>1234.6</ele>
        <time>2022-08-29T09:41:45Z</time>
      </trkpt>
      <trkpt lat="45.93135" lon="3.69866">
        <ele>1234.7</ele>
        <time>2022-08-29T09:41:46Z</time>
      </trkpt>
      <trkpt lat="45.93135" lon="3.69864">
        <ele>1234.9</ele>
        <time>2022-08-29T09:41:47Z</time>
      </trkpt>
      <trkpt lat="45.93134" lon="3.69862">
        <ele>1235</ele>
        <time>2022-08-29T09:41:48Z</time>
      </trkpt>
      <trkpt lat="45.93134" lon="3.6986">
        <ele>1235.1</ele>
        <time>2022-08-29T09:41:49Z</time>
      </trkpt>
      <trkpt lat="45.93133" lon="3.69858">
        <ele>1235.3</ele>
        <time>2022-08-29T09:41:50Z</time>
      </trkpt>
      <trkpt lat="45.93132" lon="3.69855">
        <ele>1235.6</ele>
        <time>2022-08-29T09:41:51Z</time>
      </trkpt>
      <trkpt lat="45.93131" lon="3.69854">
        <ele>1235.7</ele>
        <time>2022-08-29T09:41:52Z</time>
      </trkpt>
      <trkpt lat="45.9313" lon="3.69852">
        <ele>1235.9</ele>
        <time>2022-08-29T09:41:53Z</time>
      </trkpt>
      <trkpt lat="45.9313" lon="3.69851">
        <ele>1236</ele>
        <time>2022-08-29T09:41:54Z</time>
      </trkpt>
      <trkpt lat="45.93129" lon="3.6985">
        <ele>1236.2</ele>
        <time>2022-08-29T09:41:55Z</time>
      </trkpt>
      <trkpt lat="45.93128" lon="3.69849">
        <ele>1236.3</ele>
        <time>2022-08-29T09:41:56Z</time>
      </trkpt>
      <trkpt lat="45.93128" lon="3.69847">
        <ele>1236.4</ele>
        <time>2022-08-29T09:41:57Z</time>
      </trkpt>
      <trkpt lat="45.93127" lon="3.69846">
        <ele>1236.6</ele>
        <time>2022-08-29T09:41:58Z</time>
      </trkpt>
      <trkpt lat="45.93126" lon="3.69844">
        <ele>1236.8</ele>
        <time>2022-08-29T09:41:59Z</time>
      </trkpt>
      <trkpt lat="45.93125" lon="3.69843">
        <ele>1237</ele>
        <time>2022-08-29T09:42:00Z</time>
      </trkpt>
      <trkpt lat="45.93124" lon="3.69841">
        <ele>1237.2</ele>
        <time>2022-08-29T09:42:01Z</time>
      </trkpt>
      <trkpt lat="45.93124" lon="3.6984">
        <ele>1237.4</ele>
        <time>2022-08-29T09:42:02Z</time>
      </trkpt>
      <trkpt lat="45.93123" lon="3.69839">
        <ele>1237.5</ele>
        <time>2022-08-29T09:42:03Z</time>
      </trkpt>
      <trkpt lat="45.93122" lon="3.69838">
        <ele>1237.7</ele>
        <time>2022-08-29T09:42:04Z</time>
      </trkpt>
      <trkpt lat="45.93121" lon="3.69836">
        <ele>1237.9</ele>
        <time>2022-08-29T09:42:05Z</time>
      </trkpt>
      <trkpt lat="45.93121" lon="3.69835">
        <ele>1238.1</ele>
        <time>2022-08-29T09:42:06Z</time>
      </trkpt>
      <trkpt lat="45.9312" lon="3.69834">
        <ele>1238.3</ele>
        <time>2022-08-29T09:42:07Z</time>
      </trkpt>
      <trkpt lat="45.93119" lon="3.69833">
        <ele>1238.5</ele>
        <time>2022-08-29T09:42:08Z</time>
      </trkpt>
      <trkpt lat="45.93118" lon="3.69832">
        <ele>1238.7</ele>
        <time>2022-08-29T09:42:09Z</time>
      </trkpt>
      <trkpt lat="45.93117" lon="3.6983">
        <ele>1238.9</ele>
        <time>2022-08-29T09:42:10Z</time>
      </trkpt>
      <trkpt lat="45.93116" lon="3.6983">
        <ele>1239.1</ele>
        <time>2022-08-29T09:42:11Z</time>
      </trkpt>
      <trkpt lat="45.93115" lon="3.69829">
        <ele>1239.3</ele>
        <time>2022-08-29T09:42:12Z</time>
      </trkpt>
      <trkpt lat="45.93115" lon="3.69828">
        <ele>1239.4</ele>
        <time>2022-08-29T09:42:13Z</time>
      </trkpt>
      <trkpt lat="45.93114" lon="3.69827">
        <ele>1239.6</ele>
        <time>2022-08-29T09:42:14Z</time>
      </trkpt>
      <trkpt lat="45.93113" lon="3.69825">
        <ele>1239.9</ele>
        <time>2022-08-29T09:42:15Z</time>
      </trkpt>
      <trkpt lat="45.93112" lon="3.69824">
        <ele>1240.1</ele>
        <time>2022-08-29T09:42:16Z</time>
      </trkpt>
      <trkpt lat="45.93112" lon="3.69822">
        <ele>1240.4</ele>
        <time>2022-08-29T09:42:17Z</time>
      </trkpt>
      <trkpt lat="45.93111" lon="3.69821">
        <ele>1240.6</ele>
        <time>2022-08-29T09:42:18Z</time>
      </trkpt>
      <trkpt lat="45.93111" lon="3.69819">
        <ele>1240.8</ele>
        <time>2022-08-29T09:42:19Z</time>
      </trkpt>
      <trkpt lat="45.93111" lon="3.69817">
        <ele>1241</ele>
        <time>2022-08-29T09:42:20Z</time>
      </trkpt>
      <trkpt lat="45.93111" lon="3.69816">
        <ele>1241.2</ele>
        <time>2022-08-29T09:42:21Z</time>
      </trkpt>
      <trkpt lat="45.9311" lon="3.69814">
        <ele>1241.4</ele>
        <time>2022-08-29T09:42:22Z</time>
      </trkpt>
      <trkpt lat="45.9311" lon="3.69813">
        <ele>1241.6</ele>
        <time>2022-08-29T09:42:23Z</time>
      </trkpt>
      <trkpt lat="45.9311" lon="3.69812">
        <ele>1241.8</ele>
        <time>2022-08-29T09:42:24Z</time>
      </trkpt>
      <trkpt lat="45.9311" lon="3.6981">
        <ele>1241.9</ele>
        <time>2022-08-29T09:42:25Z</time>
      </trkpt>
      <trkpt lat="45.93109" lon="3.69809">
        <ele>1242.1</ele>
        <time>2022-08-29T09:42:26Z</time>
      </trkpt>
      <trkpt lat="45.93108" lon="3.69808">
        <ele>1242.4</ele>
        <time>2022-08-29T09:42:27Z</time>
      </trkpt>
      <trkpt lat="45.93107" lon="3.69806">
        <ele>1242.6</ele>
        <time>2022-08-29T09:42:28Z</time>
      </trkpt>
      <trkpt lat="45.93107" lon="3.69805">
        <ele>1242.8</ele>
        <time>2022-08-29T09:42:29Z</time>
      </trkpt>
      <trkpt lat="45.93107" lon="3.69803">
        <ele>1243.1</ele>
        <time>2022-08-29T09:42:30Z</time>
      </trkpt>
      <trkpt lat="45.93106" lon="3.69802">
        <ele>1243.3</ele>
        <time>2022-08-29T09:42:31Z</time>
      </trkpt>
      <trkpt lat="45.93106" lon="3.69801">
        <ele>1243.5</ele>
        <time>2022-08-29T09:42:32Z</time>
      </trkpt>
      <trkpt lat="45.93106" lon="3.69799">
        <ele>1243.6</ele>
        <time>2022-08-29T09:42:33Z</time>
      </trkpt>
      <trkpt lat="45.93107" lon="3.69798">
        <ele>1243.8</ele>
        <time>2022-08-29T09:42:34Z</time>
      </trkpt>
      <trkpt lat="45.93107" lon="3.69797">
        <ele>1244</ele>
        <time>2022-08-29T09:42:35Z</time>
      </trkpt>
      <trkpt lat="45.93108" lon="3.69796">
        <ele>1244.1</ele>
        <time>2022-08-29T09:42:36Z</time>
      </trkpt>
      <trkpt lat="45.93108" lon="3.69795">
        <ele>1244.4</ele>
        <time>2022-08-29T09:42:37Z</time>
      </trkpt>
      <trkpt lat="45.93108" lon="3.69793">
        <ele>1244.6</ele>
        <time>2022-08-29T09:42:38Z</time>
      </trkpt>
      <trkpt lat="45.93109" lon="3.69791">
        <ele>1245</ele>
        <time>2022-08-29T09:42:39Z</time>
      </trkpt>
      <trkpt lat="45.93109" lon="3.69789">
        <ele>1245.3</ele>
        <time>2022-08-29T09:42:40Z</time>
      </trkpt>
      <trkpt lat="45.93109" lon="3.69786">
        <ele>1245.6</ele>
        <time>2022-08-29T09:42:41Z</time>
      </trkpt>
      <trkpt lat="45.93109" lon="3.69784">
        <ele>1245.9</ele>
        <time>2022-08-29T09:42:42Z</time>
      </trkpt>
      <trkpt lat="45.93109" lon="3.69783">
        <ele>1246.2</ele>
        <time>2022-08-29T09:42:43Z</time>
      </trkpt>
      <trkpt lat="45.93109" lon="3.69781">
        <ele>1246.4</ele>
        <time>2022-08-29T09:42:44Z</time>
      </trkpt>
      <trkpt lat="45.93109" lon="3.6978">
        <ele>1246.5</ele>
        <time>2022-08-29T09:42:45Z</time>
      </trkpt>
      <trkpt lat="45.93109" lon="3.69779">
        <ele>1246.8</ele>
        <time>2022-08-29T09:42:46Z</time>
      </trkpt>
      <trkpt lat="45.93109" lon="3.69777">
        <ele>1247.1</ele>
        <time>2022-08-29T09:42:47Z</time>
      </trkpt>
      <trkpt lat="45.93109" lon="3.69774">
        <ele>1247.5</ele>
        <time>2022-08-29T09:42:48Z</time>
      </trkpt>
      <trkpt lat="45.93109" lon="3.69772">
        <ele>1247.8</ele>
        <time>2022-08-29T09:42:49Z</time>
      </trkpt>
      <trkpt lat="45.93109" lon="3.69769">
        <ele>1248.3</ele>
        <time>2022-08-29T09:42:50Z</time>
      </trkpt>
      <trkpt lat="45.93109" lon="3.69768">
        <ele>1248.5</ele>
        <time>2022-08-29T09:42:51Z</time>
      </trkpt>
      <trkpt lat="45.93109" lon="3.69767">
        <ele>1248.6</ele>
        <time>2022-08-29T09:42:52Z</time>
      </trkpt>
      <trkpt lat="45.93109" lon="3.69765">
        <ele>1248.8</ele>
        <time>2022-08-29T09:42:53Z</time>
      </trkpt>
      <trkpt lat="45.93109" lon="3.69764">
        <ele>1249</ele>
        <time>2022-08-29T09:42:54Z</time>
      </trkpt>
      <trkpt lat="45.93108" lon="3.69764">
        <ele>1249.1</ele>
        <time>2022-08-29T09:42:55Z</time>
      </trkpt>
      <trkpt lat="45.93108" lon="3.69763">
        <ele>1249.2</ele>
        <time>2022-08-29T09:42:56Z</time>
      </trkpt>
      <trkpt lat="45.93107" lon="3.69762">
        <ele>1249.4</ele>
        <time>2022-08-29T09:42:57Z</time>
      </trkpt>
      <trkpt lat="45.93107" lon="3.69761">
        <ele>1249.7</ele>
        <time>2022-08-29T09:42:58Z</time>
      </trkpt>
      <trkpt lat="45.93106" lon="3.69759">
        <ele>1249.9</ele>
        <time>2022-08-29T09:42:59Z</time>
      </trkpt>
      <trkpt lat="45.93106" lon="3.69757">
        <ele>1250.1</ele>
        <time>2022-08-29T09:43:00Z</time>
      </trkpt>
      <trkpt lat="45.93105" lon="3.69756">
        <ele>1250.3</ele>
        <time>2022-08-29T09:43:01Z</time>
      </trkpt>
      <trkpt lat="45.93105" lon="3.69755">
        <ele>1250.5</ele>
        <time>2022-08-29T09:43:02Z</time>
      </trkpt>
      <trkpt lat="45.93104" lon="3.69753">
        <ele>1250.8</ele>
        <time>2022-08-29T09:43:03Z</time>
      </trkpt>
      <trkpt lat="45.93102" lon="3.69752">
        <ele>1251.1</ele>
        <time>2022-08-29T09:43:04Z</time>
      </trkpt>
      <trkpt lat="45.93099" lon="3.6975">
        <ele>1251.6</ele>
        <time>2022-08-29T09:43:05Z</time>
      </trkpt>
      <trkpt lat="45.93098" lon="3.69749">
        <ele>1251.8</ele>
        <time>2022-08-29T09:43:06Z</time>
      </trkpt>
      <trkpt lat="45.93096" lon="3.69748">
        <ele>1252.2</ele>
        <time>2022-08-29T09:43:07Z</time>
      </trkpt>
      <trkpt lat="45.93095" lon="3.69748">
        <ele>1252.4</ele>
        <time>2022-08-29T09:43:08Z</time>
      </trkpt>
      <trkpt lat="45.93094" lon="3.69747">
        <ele>1252.6</ele>
        <time>2022-08-29T09:43:09Z</time>
      </trkpt>
      <trkpt lat="45.93092" lon="3.69746">
        <ele>1252.8</ele>
        <time>2022-08-29T09:43:10Z</time>
      </trkpt>
      <trkpt lat="45.93091" lon="3.69745">
        <ele>1253</ele>
        <time>2022-08-29T09:43:11Z</time>
      </trkpt>
      <trkpt lat="45.9309" lon="3.69744">
        <ele>1253.2</ele>
        <time>2022-08-29T09:43:12Z</time>
      </trkpt>
      <trkpt lat="45.93089" lon="3.69743">
        <ele>1253.4</ele>
        <time>2022-08-29T09:43:13Z</time>
      </trkpt>
      <trkpt lat="45.93088" lon="3.69743">
        <ele>1253.5</ele>
        <time>2022-08-29T09:43:14Z</time>
      </trkpt>
      <trkpt lat="45.93088" lon="3.69742">
        <ele>1253.6</ele>
        <time>2022-08-29T09:43:15Z</time>
      </trkpt>
      <trkpt lat="45.93087" lon="3.6974">
        <ele>1253.8</ele>
        <time>2022-08-29T09:43:16Z</time>
      </trkpt>
      <trkpt lat="45.93086" lon="3.69738">
        <ele>1254.1</ele>
        <time>2022-08-29T09:43:17Z</time>
      </trkpt>
      <trkpt lat="45.93085" lon="3.69736">
        <ele>1254.3</ele>
        <time>2022-08-29T09:43:18Z</time>
      </trkpt>
      <trkpt lat="45.93084" lon="3.69734">
        <ele>1254.5</ele>
        <time>2022-08-29T09:43:19Z</time>
      </trkpt>
      <trkpt lat="45.93084" lon="3.69732">
        <ele>1254.7</ele>
        <time>2022-08-29T09:43:20Z</time>
      </trkpt>
      <trkpt lat="45.93084" lon="3.69731">
        <ele>1254.8</ele>
        <time>2022-08-29T09:43:21Z</time>
      </trkpt>
      <trkpt lat="45.93083" lon="3.6973">
        <ele>1254.9</ele>
        <time>2022-08-29T09:43:22Z</time>
      </trkpt>
      <trkpt lat="45.93083" lon="3.69729">
        <ele>1255</ele>
        <time>2022-08-29T09:43:23Z</time>
      </trkpt>
      <trkpt lat="45.93082" lon="3.69728">
        <ele>1255.2</ele>
        <time>2022-08-29T09:43:24Z</time>
      </trkpt>
      <trkpt lat="45.93081" lon="3.69728">
        <ele>1255.3</ele>
        <time>2022-08-29T09:43:25Z</time>
      </trkpt>
      <trkpt lat="45.9308" lon="3.69727">
        <ele>1255.4</ele>
        <time>2022-08-29T09:43:26Z</time>
      </trkpt>
      <trkpt lat="45.93079" lon="3.69725">
        <ele>1255.7</ele>
        <time>2022-08-29T09:43:27Z</time>
      </trkpt>
      <trkpt lat="45.93078" lon="3.69724">
        <ele>1255.8</ele>
        <time>2022-08-29T09:43:28Z</time>
      </trkpt>
      <trkpt lat="45.93077" lon="3.69722">
        <ele>1255.9</ele>
        <time>2022-08-29T09:43:29Z</time>
      </trkpt>
      <trkpt lat="45.93076" lon="3.69721">
        <ele>1256.1</ele>
        <time>2022-08-29T09:43:30Z</time>
      </trkpt>
      <trkpt lat="45.93075" lon="3.69719">
        <ele>1256.3</ele>
        <time>2022-08-29T09:43:31Z</time>
      </trkpt>
      <trkpt lat="45.93074" lon="3.69718">
        <ele>1256.4</ele>
        <time>2022-08-29T09:43:32Z</time>
      </trkpt>
      <trkpt lat="45.93074" lon="3.69717">
        <ele>1256.5</ele>
        <time>2022-08-29T09:43:33Z</time>
      </trkpt>
      <trkpt lat="45.93073" lon="3.69716">
        <ele>1256.6</ele>
        <time>2022-08-29T09:43:34Z</time>
      </trkpt>
      <trkpt lat="45.93071" lon="3.69712">
        <ele>1257</ele>
        <time>2022-08-29T09:43:35Z</time>
      </trkpt>
      <trkpt lat="45.93071" lon="3.69711">
        <ele>1257.1</ele>
        <time>2022-08-29T09:43:36Z</time>
      </trkpt>
      <trkpt lat="45.9307" lon="3.69709">
        <ele>1257.2</ele>
        <time>2022-08-29T09:43:37Z</time>
      </trkpt>
      <trkpt lat="45.93069" lon="3.69708">
        <ele>1257.3</ele>
        <time>2022-08-29T09:43:38Z</time>
      </trkpt>
      <trkpt lat="45.93069" lon="3.69707">
        <ele>1257.4</ele>
        <time>2022-08-29T09:43:39Z</time>
      </trkpt>
      <trkpt lat="45.93069" lon="3.69707">
        <ele>1257.5</ele>
        <time>2022-08-29T09:43:40Z</time>
      </trkpt>
      <trkpt lat="45.93067" lon="3.69704">
        <ele>1257.7</ele>
        <time>2022-08-29T09:43:41Z</time>
      </trkpt>
      <trkpt lat="45.93066" lon="3.69702">
        <ele>1257.8</ele>
        <time>2022-08-29T09:43:42Z</time>
      </trkpt>
      <trkpt lat="45.93065" lon="3.69701">
        <ele>1258</ele>
        <time>2022-08-29T09:43:43Z</time>
      </trkpt>
      <trkpt lat="45.93065" lon="3.697">
        <ele>1258.2</ele>
        <time>2022-08-29T09:43:44Z</time>
      </trkpt>
      <trkpt lat="45.93064" lon="3.69699">
        <ele>1258.2</ele>
        <time>2022-08-29T09:43:45Z</time>
      </trkpt>
      <trkpt lat="45.93062" lon="3.69698">
        <ele>1258.5</ele>
        <time>2022-08-29T09:43:46Z</time>
      </trkpt>
      <trkpt lat="45.93061" lon="3.69697">
        <ele>1258.6</ele>
        <time>2022-08-29T09:43:47Z</time>
      </trkpt>
      <trkpt lat="45.9306" lon="3.69697">
        <ele>1258.7</ele>
        <time>2022-08-29T09:43:48Z</time>
      </trkpt>
      <trkpt lat="45.93059" lon="3.69696">
        <ele>1258.8</ele>
        <time>2022-08-29T09:43:49Z</time>
      </trkpt>
      <trkpt lat="45.93059" lon="3.69696">
        <ele>1258.9</ele>
        <time>2022-08-29T09:43:50Z</time>
      </trkpt>
      <trkpt lat="45.93059" lon="3.69696">
        <ele>1258.9</ele>
        <time>2022-08-29T09:43:51Z</time>
      </trkpt>
      <trkpt lat="45.93058" lon="3.69696">
        <ele>1258.9</ele>
        <time>2022-08-29T09:43:52Z</time>
      </trkpt>
      <trkpt lat="45.93058" lon="3.69696">
        <ele>1259</ele>
        <time>2022-08-29T09:43:53Z</time>
      </trkpt>
      <trkpt lat="45.93058" lon="3.69696">
        <ele>1259</ele>
        <time>2022-08-29T09:43:54Z</time>
      </trkpt>
      <trkpt lat="45.93057" lon="3.69696">
        <ele>1259.1</ele>
        <time>2022-08-29T09:43:55Z</time>
      </trkpt>
      <trkpt lat="45.93057" lon="3.69695">
        <ele>1259.1</ele>
        <time>2022-08-29T09:43:56Z</time>
      </trkpt>
      <trkpt lat="45.93057" lon="3.69695">
        <ele>1259.2</ele>
        <time>2022-08-29T09:43:57Z</time>
      </trkpt>
      <trkpt lat="45.93056" lon="3.69694">
        <ele>1259.2</ele>
        <time>2022-08-29T09:43:58Z</time>
      </trkpt>
      <trkpt lat="45.93056" lon="3.69694">
        <ele>1259.3</ele>
        <time>2022-08-29T09:43:59Z</time>
      </trkpt>
      <trkpt lat="45.93055" lon="3.69694">
        <ele>1259.4</ele>
        <time>2022-08-29T09:44:00Z</time>
      </trkpt>
      <trkpt lat="45.93054" lon="3.69693">
        <ele>1259.6</ele>
        <time>2022-08-29T09:44:01Z</time>
      </trkpt>
      <trkpt lat="45.93053" lon="3.69692">
        <ele>1259.7</ele>
        <time>2022-08-29T09:44:02Z</time>
      </trkpt>
      <trkpt lat="45.93052" lon="3.69692">
        <ele>1259.8</ele>
        <time>2022-08-29T09:44:03Z</time>
      </trkpt>
      <trkpt lat="45.93051" lon="3.69692">
        <ele>1260</ele>
        <time>2022-08-29T09:44:04Z</time>
      </trkpt>
      <trkpt lat="45.9305" lon="3.69692">
        <ele>1260</ele>
        <time>2022-08-29T09:44:05Z</time>
      </trkpt>
      <trkpt lat="45.93049" lon="3.69692">
        <ele>1260.1</ele>
        <time>2022-08-29T09:44:06Z</time>
      </trkpt>
      <trkpt lat="45.93049" lon="3.69692">
        <ele>1260.2</ele>
        <time>2022-08-29T09:44:07Z</time>
      </trkpt>
      <trkpt lat="45.93048" lon="3.69692">
        <ele>1260.3</ele>
        <time>2022-08-29T09:44:08Z</time>
      </trkpt>
      <trkpt lat="45.93047" lon="3.69691">
        <ele>1260.4</ele>
        <time>2022-08-29T09:44:09Z</time>
      </trkpt>
      <trkpt lat="45.93047" lon="3.6969">
        <ele>1260.6</ele>
        <time>2022-08-29T09:44:10Z</time>
      </trkpt>
      <trkpt lat="45.93046" lon="3.69688">
        <ele>1260.7</ele>
        <time>2022-08-29T09:44:11Z</time>
      </trkpt>
      <trkpt lat="45.93046" lon="3.69688">
        <ele>1260.7</ele>
        <time>2022-08-29T09:44:12Z</time>
      </trkpt>
      <trkpt lat="45.93046" lon="3.69687">
        <ele>1260.8</ele>
        <time>2022-08-29T09:44:13Z</time>
      </trkpt>
      <trkpt lat="45.93045" lon="3.69686">
        <ele>1260.9</ele>
        <time>2022-08-29T09:44:14Z</time>
      </trkpt>
      <trkpt lat="45.93044" lon="3.69685">
        <ele>1261</ele>
        <time>2022-08-29T09:44:15Z</time>
      </trkpt>
      <trkpt lat="45.93043" lon="3.69684">
        <ele>1261.3</ele>
        <time>2022-08-29T09:44:16Z</time>
      </trkpt>
      <trkpt lat="45.93042" lon="3.69683">
        <ele>1261.4</ele>
        <time>2022-08-29T09:44:17Z</time>
      </trkpt>
      <trkpt lat="45.93041" lon="3.69682">
        <ele>1261.6</ele>
        <time>2022-08-29T09:44:18Z</time>
      </trkpt>
      <trkpt lat="45.9304" lon="3.69679">
        <ele>1261.9</ele>
        <time>2022-08-29T09:44:19Z</time>
      </trkpt>
      <trkpt lat="45.93039" lon="3.69678">
        <ele>1262.1</ele>
        <time>2022-08-29T09:44:20Z</time>
      </trkpt>
      <trkpt lat="45.93036" lon="3.69674">
        <ele>1262.6</ele>
        <time>2022-08-29T09:44:21Z</time>
      </trkpt>
      <trkpt lat="45.93036" lon="3.69673">
        <ele>1262.7</ele>
        <time>2022-08-29T09:44:22Z</time>
      </trkpt>
      <trkpt lat="45.93034" lon="3.69671">
        <ele>1263</ele>
        <time>2022-08-29T09:44:23Z</time>
      </trkpt>
      <trkpt lat="45.93034" lon="3.69669">
        <ele>1263.3</ele>
        <time>2022-08-29T09:44:24Z</time>
      </trkpt>
      <trkpt lat="45.93033" lon="3.69667">
        <ele>1263.4</ele>
        <time>2022-08-29T09:44:25Z</time>
      </trkpt>
      <trkpt lat="45.93033" lon="3.69666">
        <ele>1263.6</ele>
        <time>2022-08-29T09:44:26Z</time>
      </trkpt>
      <trkpt lat="45.93033" lon="3.69664">
        <ele>1263.8</ele>
        <time>2022-08-29T09:44:27Z</time>
      </trkpt>
      <trkpt lat="45.93033" lon="3.69663">
        <ele>1263.9</ele>
        <time>2022-08-29T09:44:28Z</time>
      </trkpt>
      <trkpt lat="45.93033" lon="3.69661">
        <ele>1264.1</ele>
        <time>2022-08-29T09:44:29Z</time>
      </trkpt>
      <trkpt lat="45.93034" lon="3.6966">
        <ele>1264.2</ele>
        <time>2022-08-29T09:44:30Z</time>
      </trkpt>
      <trkpt lat="45.93034" lon="3.6966">
        <ele>1264.3</ele>
        <time>2022-08-29T09:44:31Z</time>
      </trkpt>
      <trkpt lat="45.93035" lon="3.69659">
        <ele>1264.5</ele>
        <time>2022-08-29T09:44:32Z</time>
      </trkpt>
      <trkpt lat="45.93036" lon="3.6966">
        <ele>1264.6</ele>
        <time>2022-08-29T09:44:33Z</time>
      </trkpt>
      <trkpt lat="45.93036" lon="3.69659">
        <ele>1264.7</ele>
        <time>2022-08-29T09:44:34Z</time>
      </trkpt>
      <trkpt lat="45.93037" lon="3.69659">
        <ele>1264.7</ele>
        <time>2022-08-29T09:44:35Z</time>
      </trkpt>
      <trkpt lat="45.93037" lon="3.69659">
        <ele>1264.8</ele>
        <time>2022-08-29T09:44:36Z</time>
      </trkpt>
      <trkpt lat="45.93038" lon="3.69659">
        <ele>1264.9</ele>
        <time>2022-08-29T09:44:37Z</time>
      </trkpt>
      <trkpt lat="45.93038" lon="3.69658">
        <ele>1265</ele>
        <time>2022-08-29T09:44:38Z</time>
      </trkpt>
      <trkpt lat="45.93039" lon="3.69658">
        <ele>1265.2</ele>
        <time>2022-08-29T09:44:39Z</time>
      </trkpt>
      <trkpt lat="45.9304" lon="3.69658">
        <ele>1265.4</ele>
        <time>2022-08-29T09:44:40Z</time>
      </trkpt>
      <trkpt lat="45.93041" lon="3.69658">
        <ele>1265.5</ele>
        <time>2022-08-29T09:44:41Z</time>
      </trkpt>
      <trkpt lat="45.93042" lon="3.69658">
        <ele>1265.6</ele>
        <time>2022-08-29T09:44:42Z</time>
      </trkpt>
      <trkpt lat="45.93043" lon="3.69657">
        <ele>1265.8</ele>
        <time>2022-08-29T09:44:43Z</time>
      </trkpt>
      <trkpt lat="45.93044" lon="3.69656">
        <ele>1266</ele>
        <time>2022-08-29T09:44:44Z</time>
      </trkpt>
      <trkpt lat="45.93045" lon="3.69656">
        <ele>1266.2</ele>
        <time>2022-08-29T09:44:45Z</time>
      </trkpt>
      <trkpt lat="45.93047" lon="3.69654">
        <ele>1266.5</ele>
        <time>2022-08-29T09:44:46Z</time>
      </trkpt>
      <trkpt lat="45.93048" lon="3.69653">
        <ele>1266.6</ele>
        <time>2022-08-29T09:44:47Z</time>
      </trkpt>
      <trkpt lat="45.93048" lon="3.69652">
        <ele>1266.7</ele>
        <time>2022-08-29T09:44:48Z</time>
      </trkpt>
      <trkpt lat="45.93049" lon="3.69651">
        <ele>1267</ele>
        <time>2022-08-29T09:44:49Z</time>
      </trkpt>
      <trkpt lat="45.9305" lon="3.69649">
        <ele>1267.1</ele>
        <time>2022-08-29T09:44:50Z</time>
      </trkpt>
      <trkpt lat="45.93051" lon="3.69647">
        <ele>1267.4</ele>
        <time>2022-08-29T09:44:51Z</time>
      </trkpt>
      <trkpt lat="45.93052" lon="3.69646">
        <ele>1267.5</ele>
        <time>2022-08-29T09:44:52Z</time>
      </trkpt>
      <trkpt lat="45.93052" lon="3.69645">
        <ele>1267.7</ele>
        <time>2022-08-29T09:44:53Z</time>
      </trkpt>
      <trkpt lat="45.93053" lon="3.69643">
        <ele>1267.8</ele>
        <time>2022-08-29T09:44:54Z</time>
      </trkpt>
      <trkpt lat="45.93053" lon="3.69642">
        <ele>1268</ele>
        <time>2022-08-29T09:44:55Z</time>
      </trkpt>
      <trkpt lat="45.93053" lon="3.6964">
        <ele>1268.1</ele>
        <time>2022-08-29T09:44:56Z</time>
      </trkpt>
      <trkpt lat="45.93053" lon="3.69638">
        <ele>1268.3</ele>
        <time>2022-08-29T09:44:57Z</time>
      </trkpt>
      <trkpt lat="45.93052" lon="3.69636">
        <ele>1268.5</ele>
        <time>2022-08-29T09:44:58Z</time>
      </trkpt>
      <trkpt lat="45.93051" lon="3.69635">
        <ele>1268.7</ele>
        <time>2022-08-29T09:44:59Z</time>
      </trkpt>
      <trkpt lat="45.9305" lon="3.69633">
        <ele>1268.9</ele>
        <time>2022-08-29T09:45:00Z</time>
      </trkpt>
      <trkpt lat="45.9305" lon="3.69632">
        <ele>1269</ele>
        <time>2022-08-29T09:45:01Z</time>
      </trkpt>
      <trkpt lat="45.93049" lon="3.69631">
        <ele>1269.1</ele>
        <time>2022-08-29T09:45:02Z</time>
      </trkpt>
      <trkpt lat="45.93048" lon="3.69629">
        <ele>1269.4</ele>
        <time>2022-08-29T09:45:03Z</time>
      </trkpt>
      <trkpt lat="45.93047" lon="3.69627">
        <ele>1269.6</ele>
        <time>2022-08-29T09:45:04Z</time>
      </trkpt>
      <trkpt lat="45.93046" lon="3.69625">
        <ele>1269.9</ele>
        <time>2022-08-29T09:45:05Z</time>
      </trkpt>
      <trkpt lat="45.93044" lon="3.69622">
        <ele>1270.2</ele>
        <time>2022-08-29T09:45:06Z</time>
      </trkpt>
      <trkpt lat="45.93044" lon="3.69621">
        <ele>1270.4</ele>
        <time>2022-08-29T09:45:07Z</time>
      </trkpt>
      <trkpt lat="45.93043" lon="3.6962">
        <ele>1270.5</ele>
        <time>2022-08-29T09:45:08Z</time>
      </trkpt>
      <trkpt lat="45.93042" lon="3.69617">
        <ele>1270.8</ele>
        <time>2022-08-29T09:45:09Z</time>
      </trkpt>
      <trkpt lat="45.93042" lon="3.69615">
        <ele>1271</ele>
        <time>2022-08-29T09:45:10Z</time>
      </trkpt>
      <trkpt lat="45.93041" lon="3.69614">
        <ele>1271.2</ele>
        <time>2022-08-29T09:45:11Z</time>
      </trkpt>
      <trkpt lat="45.93042" lon="3.69612">
        <ele>1271.4</ele>
        <time>2022-08-29T09:45:12Z</time>
      </trkpt>
      <trkpt lat="45.93042" lon="3.6961">
        <ele>1271.6</ele>
        <time>2022-08-29T09:45:13Z</time>
      </trkpt>
      <trkpt lat="45.93043" lon="3.69607">
        <ele>1271.9</ele>
        <time>2022-08-29T09:45:14Z</time>
      </trkpt>
      <trkpt lat="45.93043" lon="3.69605">
        <ele>1272.1</ele>
        <time>2022-08-29T09:45:15Z</time>
      </trkpt>
      <trkpt lat="45.93044" lon="3.69603">
        <ele>1272.4</ele>
        <time>2022-08-29T09:45:16Z</time>
      </trkpt>
      <trkpt lat="45.93044" lon="3.69602">
        <ele>1272.5</ele>
        <time>2022-08-29T09:45:17Z</time>
      </trkpt>
      <trkpt lat="45.93044" lon="3.69601">
        <ele>1272.6</ele>
        <time>2022-08-29T09:45:18Z</time>
      </trkpt>
      <trkpt lat="45.93044" lon="3.696">
        <ele>1272.8</ele>
        <time>2022-08-29T09:45:19Z</time>
      </trkpt>
      <trkpt lat="45.93043" lon="3.69597">
        <ele>1273</ele>
        <time>2022-08-29T09:45:20Z</time>
      </trkpt>
      <trkpt lat="45.93043" lon="3.69596">
        <ele>1273.2</ele>
        <time>2022-08-29T09:45:21Z</time>
      </trkpt>
      <trkpt lat="45.93043" lon="3.69595">
        <ele>1273.2</ele>
        <time>2022-08-29T09:45:22Z</time>
      </trkpt>
      <trkpt lat="45.93043" lon="3.69594">
        <ele>1273.3</ele>
        <time>2022-08-29T09:45:23Z</time>
      </trkpt>
      <trkpt lat="45.93043" lon="3.69593">
        <ele>1273.4</ele>
        <time>2022-08-29T09:45:24Z</time>
      </trkpt>
      <trkpt lat="45.93043" lon="3.69593">
        <ele>1273.5</ele>
        <time>2022-08-29T09:45:25Z</time>
      </trkpt>
      <trkpt lat="45.93043" lon="3.69592">
        <ele>1273.6</ele>
        <time>2022-08-29T09:45:26Z</time>
      </trkpt>
      <trkpt lat="45.93043" lon="3.69591">
        <ele>1273.6</ele>
        <time>2022-08-29T09:45:27Z</time>
      </trkpt>
      <trkpt lat="45.93043" lon="3.6959">
        <ele>1273.8</ele>
        <time>2022-08-29T09:45:28Z</time>
      </trkpt>
      <trkpt lat="45.93043" lon="3.69588">
        <ele>1274</ele>
        <time>2022-08-29T09:45:29Z</time>
      </trkpt>
      <trkpt lat="45.93042" lon="3.69587">
        <ele>1274.2</ele>
        <time>2022-08-29T09:45:30Z</time>
      </trkpt>
      <trkpt lat="45.93042" lon="3.69585">
        <ele>1274.3</ele>
        <time>2022-08-29T09:45:31Z</time>
      </trkpt>
      <trkpt lat="45.93042" lon="3.69584">
        <ele>1274.5</ele>
        <time>2022-08-29T09:45:32Z</time>
      </trkpt>
      <trkpt lat="45.93042" lon="3.69582">
        <ele>1274.7</ele>
        <time>2022-08-29T09:45:33Z</time>
      </trkpt>
      <trkpt lat="45.93042" lon="3.69579">
        <ele>1274.9</ele>
        <time>2022-08-29T09:45:34Z</time>
      </trkpt>
      <trkpt lat="45.93043" lon="3.69577">
        <ele>1275.1</ele>
        <time>2022-08-29T09:45:35Z</time>
      </trkpt>
      <trkpt lat="45.93044" lon="3.69574">
        <ele>1275.5</ele>
        <time>2022-08-29T09:45:36Z</time>
      </trkpt>
      <trkpt lat="45.93044" lon="3.69573">
        <ele>1275.6</ele>
        <time>2022-08-29T09:45:37Z</time>
      </trkpt>
      <trkpt lat="45.93045" lon="3.69572">
        <ele>1275.7</ele>
        <time>2022-08-29T09:45:38Z</time>
      </trkpt>
      <trkpt lat="45.93045" lon="3.6957">
        <ele>1275.9</ele>
        <time>2022-08-29T09:45:39Z</time>
      </trkpt>
      <trkpt lat="45.93046" lon="3.69569">
        <ele>1276</ele>
        <time>2022-08-29T09:45:40Z</time>
      </trkpt>
      <trkpt lat="45.93046" lon="3.69568">
        <ele>1276.1</ele>
        <time>2022-08-29T09:45:41Z</time>
      </trkpt>
      <trkpt lat="45.93047" lon="3.69567">
        <ele>1276.3</ele>
        <time>2022-08-29T09:45:42Z</time>
      </trkpt>
      <trkpt lat="45.93047" lon="3.69567">
        <ele>1276.3</ele>
        <time>2022-08-29T09:45:43Z</time>
      </trkpt>
      <trkpt lat="45.93048" lon="3.69566">
        <ele>1276.4</ele>
        <time>2022-08-29T09:45:44Z</time>
      </trkpt>
      <trkpt lat="45.93049" lon="3.69566">
        <ele>1276.5</ele>
        <time>2022-08-29T09:45:45Z</time>
      </trkpt>
      <trkpt lat="45.93049" lon="3.69566">
        <ele>1276.6</ele>
        <time>2022-08-29T09:45:46Z</time>
      </trkpt>
      <trkpt lat="45.9305" lon="3.69565">
        <ele>1276.7</ele>
        <time>2022-08-29T09:45:47Z</time>
      </trkpt>
      <trkpt lat="45.9305" lon="3.69563">
        <ele>1276.9</ele>
        <time>2022-08-29T09:45:48Z</time>
      </trkpt>
      <trkpt lat="45.9305" lon="3.69562">
        <ele>1277</ele>
        <time>2022-08-29T09:45:49Z</time>
      </trkpt>
      <trkpt lat="45.9305" lon="3.69561">
        <ele>1277.1</ele>
        <time>2022-08-29T09:45:50Z</time>
      </trkpt>
      <trkpt lat="45.9305" lon="3.6956">
        <ele>1277.1</ele>
        <time>2022-08-29T09:45:51Z</time>
      </trkpt>
      <trkpt lat="45.9305" lon="3.69559">
        <ele>1277.2</ele>
        <time>2022-08-29T09:45:52Z</time>
      </trkpt>
      <trkpt lat="45.9305" lon="3.69557">
        <ele>1277.3</ele>
        <time>2022-08-29T09:45:53Z</time>
      </trkpt>
      <trkpt lat="45.9305" lon="3.69554">
        <ele>1277.6</ele>
        <time>2022-08-29T09:45:54Z</time>
      </trkpt>
      <trkpt lat="45.9305" lon="3.69553">
        <ele>1277.7</ele>
        <time>2022-08-29T09:45:55Z</time>
      </trkpt>
      <trkpt lat="45.93049" lon="3.69552">
        <ele>1277.8</ele>
        <time>2022-08-29T09:45:56Z</time>
      </trkpt>
      <trkpt lat="45.93049" lon="3.69551">
        <ele>1277.9</ele>
        <time>2022-08-29T09:45:57Z</time>
      </trkpt>
      <trkpt lat="45.93049" lon="3.69549">
        <ele>1278</ele>
        <time>2022-08-29T09:45:58Z</time>
      </trkpt>
      <trkpt lat="45.93048" lon="3.69547">
        <ele>1278.2</ele>
        <time>2022-08-29T09:45:59Z</time>
      </trkpt>
      <trkpt lat="45.93048" lon="3.69545">
        <ele>1278.3</ele>
        <time>2022-08-29T09:46:00Z</time>
      </trkpt>
      <trkpt lat="45.93048" lon="3.69543">
        <ele>1278.5</ele>
        <time>2022-08-29T09:46:01Z</time>
      </trkpt>
      <trkpt lat="45.93048" lon="3.69542">
        <ele>1278.6</ele>
        <time>2022-08-29T09:46:02Z</time>
      </trkpt>
      <trkpt lat="45.93048" lon="3.69541">
        <ele>1278.6</ele>
        <time>2022-08-29T09:46:03Z</time>
      </trkpt>
      <trkpt lat="45.93049" lon="3.6954">
        <ele>1278.7</ele>
        <time>2022-08-29T09:46:04Z</time>
      </trkpt>
      <trkpt lat="45.93049" lon="3.69539">
        <ele>1278.8</ele>
        <time>2022-08-29T09:46:05Z</time>
      </trkpt>
      <trkpt lat="45.9305" lon="3.69538">
        <ele>1278.9</ele>
        <time>2022-08-29T09:46:06Z</time>
      </trkpt>
      <trkpt lat="45.9305" lon="3.69536">
        <ele>1279</ele>
        <time>2022-08-29T09:46:07Z</time>
      </trkpt>
      <trkpt lat="45.93051" lon="3.69535">
        <ele>1279.1</ele>
        <time>2022-08-29T09:46:08Z</time>
      </trkpt>
      <trkpt lat="45.93051" lon="3.69534">
        <ele>1279.2</ele>
        <time>2022-08-29T09:46:09Z</time>
      </trkpt>
      <trkpt lat="45.93052" lon="3.69533">
        <ele>1279.3</ele>
        <time>2022-08-29T09:46:10Z</time>
      </trkpt>
      <trkpt lat="45.93052" lon="3.69532">
        <ele>1279.4</ele>
        <time>2022-08-29T09:46:11Z</time>
      </trkpt>
      <trkpt lat="45.93052" lon="3.69531">
        <ele>1279.5</ele>
        <time>2022-08-29T09:46:12Z</time>
      </trkpt>
      <trkpt lat="45.93052" lon="3.69529">
        <ele>1279.6</ele>
        <time>2022-08-29T09:46:13Z</time>
      </trkpt>
      <trkpt lat="45.93052" lon="3.69528">
        <ele>1279.7</ele>
        <time>2022-08-29T09:46:14Z</time>
      </trkpt>
      <trkpt lat="45.93052" lon="3.69527">
        <ele>1279.8</ele>
        <time>2022-08-29T09:46:15Z</time>
      </trkpt>
      <trkpt lat="45.93052" lon="3.69525">
        <ele>1279.9</ele>
        <time>2022-08-29T09:46:16Z</time>
      </trkpt>
      <trkpt lat="45.93053" lon="3.69524">
        <ele>1280</ele>
        <time>2022-08-29T09:46:17Z</time>
      </trkpt>
      <trkpt lat="45.93053" lon="3.69522">
        <ele>1280.2</ele>
        <time>2022-08-29T09:46:18Z</time>
      </trkpt>
      <trkpt lat="45.93053" lon="3.69521">
        <ele>1280.3</ele>
        <time>2022-08-29T09:46:19Z</time>
      </trkpt>
      <trkpt lat="45.93053" lon="3.69519">
        <ele>1280.4</ele>
        <time>2022-08-29T09:46:20Z</time>
      </trkpt>
      <trkpt lat="45.93053" lon="3.69518">
        <ele>1280.5</ele>
        <time>2022-08-29T09:46:21Z</time>
      </trkpt>
      <trkpt lat="45.93053" lon="3.69516">
        <ele>1280.7</ele>
        <time>2022-08-29T09:46:22Z</time>
      </trkpt>
      <trkpt lat="45.93053" lon="3.69515">
        <ele>1280.7</ele>
        <time>2022-08-29T09:46:23Z</time>
      </trkpt>
      <trkpt lat="45.93053" lon="3.69513">
        <ele>1280.8</ele>
        <time>2022-08-29T09:46:24Z</time>
      </trkpt>
      <trkpt lat="45.93053" lon="3.69512">
        <ele>1280.9</ele>
        <time>2022-08-29T09:46:25Z</time>
      </trkpt>
      <trkpt lat="45.93053" lon="3.69509">
        <ele>1281.1</ele>
        <time>2022-08-29T09:46:26Z</time>
      </trkpt>
      <trkpt lat="45.93053" lon="3.69508">
        <ele>1281.2</ele>
        <time>2022-08-29T09:46:27Z</time>
      </trkpt>
      <trkpt lat="45.93053" lon="3.69507">
        <ele>1281.3</ele>
        <time>2022-08-29T09:46:28Z</time>
      </trkpt>
      <trkpt lat="45.93053" lon="3.69505">
        <ele>1281.4</ele>
        <time>2022-08-29T09:46:29Z</time>
      </trkpt>
      <trkpt lat="45.93053" lon="3.69503">
        <ele>1281.6</ele>
        <time>2022-08-29T09:46:30Z</time>
      </trkpt>
      <trkpt lat="45.93053" lon="3.695">
        <ele>1281.7</ele>
        <time>2022-08-29T09:46:31Z</time>
      </trkpt>
      <trkpt lat="45.93053" lon="3.69499">
        <ele>1281.8</ele>
        <time>2022-08-29T09:46:32Z</time>
      </trkpt>
      <trkpt lat="45.93054" lon="3.69496">
        <ele>1282</ele>
        <time>2022-08-29T09:46:33Z</time>
      </trkpt>
      <trkpt lat="45.93054" lon="3.69494">
        <ele>1282.1</ele>
        <time>2022-08-29T09:46:34Z</time>
      </trkpt>
      <trkpt lat="45.93054" lon="3.69493">
        <ele>1282.2</ele>
        <time>2022-08-29T09:46:35Z</time>
      </trkpt>
      <trkpt lat="45.93055" lon="3.69491">
        <ele>1282.4</ele>
        <time>2022-08-29T09:46:36Z</time>
      </trkpt>
      <trkpt lat="45.93055" lon="3.69489">
        <ele>1282.5</ele>
        <time>2022-08-29T09:46:37Z</time>
      </trkpt>
      <trkpt lat="45.93055" lon="3.69487">
        <ele>1282.6</ele>
        <time>2022-08-29T09:46:38Z</time>
      </trkpt>
      <trkpt lat="45.93055" lon="3.69486">
        <ele>1282.6</ele>
        <time>2022-08-29T09:46:39Z</time>
      </trkpt>
      <trkpt lat="45.93055" lon="3.69484">
        <ele>1282.7</ele>
        <time>2022-08-29T09:46:40Z</time>
      </trkpt>
      <trkpt lat="45.93056" lon="3.69482">
        <ele>1282.8</ele>
        <time>2022-08-29T09:46:41Z</time>
      </trkpt>
      <trkpt lat="45.93056" lon="3.6948">
        <ele>1283</ele>
        <time>2022-08-29T09:46:42Z</time>
      </trkpt>
      <trkpt lat="45.93058" lon="3.69476">
        <ele>1283.2</ele>
        <time>2022-08-29T09:46:43Z</time>
      </trkpt>
      <trkpt lat="45.93058" lon="3.69475">
        <ele>1283.3</ele>
        <time>2022-08-29T09:46:44Z</time>
      </trkpt>
      <trkpt lat="45.93059" lon="3.69474">
        <ele>1283.3</ele>
        <time>2022-08-29T09:46:45Z</time>
      </trkpt>
      <trkpt lat="45.93059" lon="3.69472">
        <ele>1283.4</ele>
        <time>2022-08-29T09:46:46Z</time>
      </trkpt>
      <trkpt lat="45.9306" lon="3.69471">
        <ele>1283.5</ele>
        <time>2022-08-29T09:46:47Z</time>
      </trkpt>
      <trkpt lat="45.93061" lon="3.69471">
        <ele>1283.6</ele>
        <time>2022-08-29T09:46:48Z</time>
      </trkpt>
      <trkpt lat="45.93062" lon="3.6947">
        <ele>1283.6</ele>
        <time>2022-08-29T09:46:49Z</time>
      </trkpt>
      <trkpt lat="45.93063" lon="3.69469">
        <ele>1283.7</ele>
        <time>2022-08-29T09:46:50Z</time>
      </trkpt>
      <trkpt lat="45.93064" lon="3.69468">
        <ele>1283.9</ele>
        <time>2022-08-29T09:46:51Z</time>
      </trkpt>
      <trkpt lat="45.93065" lon="3.69466">
        <ele>1284</ele>
        <time>2022-08-29T09:46:52Z</time>
      </trkpt>
      <trkpt lat="45.93066" lon="3.69464">
        <ele>1284.1</ele>
        <time>2022-08-29T09:46:53Z</time>
      </trkpt>
      <trkpt lat="45.93066" lon="3.69462">
        <ele>1284.2</ele>
        <time>2022-08-29T09:46:54Z</time>
      </trkpt>
      <trkpt lat="45.93066" lon="3.69461">
        <ele>1284.3</ele>
        <time>2022-08-29T09:46:55Z</time>
      </trkpt>
      <trkpt lat="45.93066" lon="3.69459">
        <ele>1284.3</ele>
        <time>2022-08-29T09:46:56Z</time>
      </trkpt>
      <trkpt lat="45.93066" lon="3.69458">
        <ele>1284.4</ele>
        <time>2022-08-29T09:46:57Z</time>
      </trkpt>
      <trkpt lat="45.93066" lon="3.69455">
        <ele>1284.6</ele>
        <time>2022-08-29T09:46:58Z</time>
      </trkpt>
      <trkpt lat="45.93067" lon="3.69454">
        <ele>1284.6</ele>
        <time>2022-08-29T09:46:59Z</time>
      </trkpt>
      <trkpt lat="45.93067" lon="3.69453">
        <ele>1284.7</ele>
        <time>2022-08-29T09:47:00Z</time>
      </trkpt>
      <trkpt lat="45.93069" lon="3.69449">
        <ele>1284.9</ele>
        <time>2022-08-29T09:47:01Z</time>
      </trkpt>
      <trkpt lat="45.9307" lon="3.69448">
        <ele>1285</ele>
        <time>2022-08-29T09:47:02Z</time>
      </trkpt>
      <trkpt lat="45.93071" lon="3.69445">
        <ele>1285.1</ele>
        <time>2022-08-29T09:47:03Z</time>
      </trkpt>
      <trkpt lat="45.93071" lon="3.69444">
        <ele>1285.2</ele>
        <time>2022-08-29T09:47:04Z</time>
      </trkpt>
      <trkpt lat="45.93072" lon="3.69443">
        <ele>1285.2</ele>
        <time>2022-08-29T09:47:05Z</time>
      </trkpt>
      <trkpt lat="45.93073" lon="3.69441">
        <ele>1285.4</ele>
        <time>2022-08-29T09:47:06Z</time>
      </trkpt>
      <trkpt lat="45.93073" lon="3.69439">
        <ele>1285.4</ele>
        <time>2022-08-29T09:47:07Z</time>
      </trkpt>
      <trkpt lat="45.93074" lon="3.69438">
        <ele>1285.5</ele>
        <time>2022-08-29T09:47:08Z</time>
      </trkpt>
      <trkpt lat="45.93075" lon="3.69434">
        <ele>1285.6</ele>
        <time>2022-08-29T09:47:09Z</time>
      </trkpt>
      <trkpt lat="45.93076" lon="3.69433">
        <ele>1285.7</ele>
        <time>2022-08-29T09:47:10Z</time>
      </trkpt>
      <trkpt lat="45.93077" lon="3.69431">
        <ele>1285.7</ele>
        <time>2022-08-29T09:47:11Z</time>
      </trkpt>
      <trkpt lat="45.93077" lon="3.6943">
        <ele>1285.8</ele>
        <time>2022-08-29T09:47:12Z</time>
      </trkpt>
      <trkpt lat="45.93077" lon="3.69429">
        <ele>1285.8</ele>
        <time>2022-08-29T09:47:13Z</time>
      </trkpt>
      <trkpt lat="45.93077" lon="3.69428">
        <ele>1285.8</ele>
        <time>2022-08-29T09:47:14Z</time>
      </trkpt>
      <trkpt lat="45.93078" lon="3.69428">
        <ele>1285.9</ele>
        <time>2022-08-29T09:47:15Z</time>
      </trkpt>
      <trkpt lat="45.93078" lon="3.69427">
        <ele>1285.9</ele>
        <time>2022-08-29T09:47:16Z</time>
      </trkpt>
      <trkpt lat="45.93078" lon="3.69426">
        <ele>1285.9</ele>
        <time>2022-08-29T09:47:17Z</time>
      </trkpt>
      <trkpt lat="45.93079" lon="3.69425">
        <ele>1285.9</ele>
        <time>2022-08-29T09:47:18Z</time>
      </trkpt>
      <trkpt lat="45.93079" lon="3.69424">
        <ele>1286</ele>
        <time>2022-08-29T09:47:19Z</time>
      </trkpt>
      <trkpt lat="45.9308" lon="3.69422">
        <ele>1286</ele>
        <time>2022-08-29T09:47:20Z</time>
      </trkpt>
      <trkpt lat="45.9308" lon="3.69421">
        <ele>1286.1</ele>
        <time>2022-08-29T09:47:21Z</time>
      </trkpt>
      <trkpt lat="45.93069" lon="3.694">
        <ele>1285.7</ele>
        <time>2022-08-29T09:54:01Z</time>
      </trkpt>
      <trkpt lat="45.93068" lon="3.694">
        <ele>1285.6</ele>
        <time>2022-08-29T09:54:02Z</time>
      </trkpt>
      <trkpt lat="45.93068" lon="3.69399">
        <ele>1285.6</ele>
        <time>2022-08-29T09:54:03Z</time>
      </trkpt>
      <trkpt lat="45.93067" lon="3.69397">
        <ele>1285.5</ele>
        <time>2022-08-29T09:54:04Z</time>
      </trkpt>
      <trkpt lat="45.93066" lon="3.69396">
        <ele>1285.5</ele>
        <time>2022-08-29T09:54:05Z</time>
      </trkpt>
      <trkpt lat="45.93066" lon="3.69395">
        <ele>1285.4</ele>
        <time>2022-08-29T09:54:06Z</time>
      </trkpt>
      <trkpt lat="45.93065" lon="3.69393">
        <ele>1285.4</ele>
        <time>2022-08-29T09:54:07Z</time>
      </trkpt>
      <trkpt lat="45.93064" lon="3.69392">
        <ele>1285.3</ele>
        <time>2022-08-29T09:54:08Z</time>
      </trkpt>
      <trkpt lat="45.93063" lon="3.69391">
        <ele>1285.2</ele>
        <time>2022-08-29T09:54:09Z</time>
      </trkpt>
      <trkpt lat="45.93062" lon="3.69391">
        <ele>1285.2</ele>
        <time>2022-08-29T09:54:10Z</time>
      </trkpt>
      <trkpt lat="45.93062" lon="3.6939">
        <ele>1285.1</ele>
        <time>2022-08-29T09:54:11Z</time>
      </trkpt>
      <trkpt lat="45.9306" lon="3.6939">
        <ele>1285.1</ele>
        <time>2022-08-29T09:54:12Z</time>
      </trkpt>
      <trkpt lat="45.93059" lon="3.6939">
        <ele>1285</ele>
        <time>2022-08-29T09:54:13Z</time>
      </trkpt>
      <trkpt lat="45.93058" lon="3.6939">
        <ele>1284.9</ele>
        <time>2022-08-29T09:54:14Z</time>
      </trkpt>
      <trkpt lat="45.93057" lon="3.6939">
        <ele>1284.9</ele>
        <time>2022-08-29T09:54:15Z</time>
      </trkpt>
      <trkpt lat="45.93056" lon="3.6939">
        <ele>1284.8</ele>
        <time>2022-08-29T09:54:16Z</time>
      </trkpt>
      <trkpt lat="45.93055" lon="3.6939">
        <ele>1284.7</ele>
        <time>2022-08-29T09:54:17Z</time>
      </trkpt>
      <trkpt lat="45.93054" lon="3.6939">
        <ele>1284.6</ele>
        <time>2022-08-29T09:54:18Z</time>
      </trkpt>
      <trkpt lat="45.93053" lon="3.6939">
        <ele>1284.6</ele>
        <time>2022-08-29T09:54:19Z</time>
      </trkpt>
      <trkpt lat="45.93052" lon="3.6939">
        <ele>1284.5</ele>
        <time>2022-08-29T09:54:20Z</time>
      </trkpt>
      <trkpt lat="45.93051" lon="3.6939">
        <ele>1284.4</ele>
        <time>2022-08-29T09:54:21Z</time>
      </trkpt>
      <trkpt lat="45.9305" lon="3.69391">
        <ele>1284.4</ele>
        <time>2022-08-29T09:54:22Z</time>
      </trkpt>
      <trkpt lat="45.9305" lon="3.69392">
        <ele>1284.3</ele>
        <time>2022-08-29T09:54:23Z</time>
      </trkpt>
      <trkpt lat="45.9305" lon="3.69392">
        <ele>1284.3</ele>
        <time>2022-08-29T09:54:24Z</time>
      </trkpt>
      <trkpt lat="45.9305" lon="3.69392">
        <ele>1284.3</ele>
        <time>2022-08-29T09:54:25Z</time>
      </trkpt>
      <trkpt lat="45.93051" lon="3.69393">
        <ele>1284.3</ele>
        <time>2022-08-29T09:54:26Z</time>
      </trkpt>
      <trkpt lat="45.93051" lon="3.69393">
        <ele>1284.3</ele>
        <time>2022-08-29T09:54:27Z</time>
      </trkpt>
      <trkpt lat="45.93051" lon="3.69393">
        <ele>1284.2</ele>
        <time>2022-08-29T09:54:28Z</time>
      </trkpt>
      <trkpt lat="45.93051" lon="3.69393">
        <ele>1284.2</ele>
        <time>2022-08-29T09:54:29Z</time>
      </trkpt>
      <trkpt lat="45.93051" lon="3.69393">
        <ele>1284.2</ele>
        <time>2022-08-29T09:54:30Z</time>
      </trkpt>
      <trkpt lat="45.9305" lon="3.69393">
        <ele>1284.2</ele>
        <time>2022-08-29T09:54:31Z</time>
      </trkpt>
      <trkpt lat="45.93049" lon="3.69394">
        <ele>1284</ele>
        <time>2022-08-29T09:54:32Z</time>
      </trkpt>
      <trkpt lat="45.93047" lon="3.69395">
        <ele>1283.9</ele>
        <time>2022-08-29T09:54:33Z</time>
      </trkpt>
      <trkpt lat="45.93046" lon="3.69396">
        <ele>1283.7</ele>
        <time>2022-08-29T09:54:34Z</time>
      </trkpt>
      <trkpt lat="45.93044" lon="3.69397">
        <ele>1283.5</ele>
        <time>2022-08-29T09:54:35Z</time>
      </trkpt>
      <trkpt lat="45.93043" lon="3.69398">
        <ele>1283.4</ele>
        <time>2022-08-29T09:54:36Z</time>
      </trkpt>
      <trkpt lat="45.93042" lon="3.69399">
        <ele>1283.2</ele>
        <time>2022-08-29T09:54:37Z</time>
      </trkpt>
      <trkpt lat="45.9304" lon="3.694">
        <ele>1283</ele>
        <time>2022-08-29T09:54:38Z</time>
      </trkpt>
      <trkpt lat="45.93039" lon="3.69401">
        <ele>1282.8</ele>
        <time>2022-08-29T09:54:39Z</time>
      </trkpt>
      <trkpt lat="45.93036" lon="3.69402">
        <ele>1282.4</ele>
        <time>2022-08-29T09:54:40Z</time>
      </trkpt>
      <trkpt lat="45.93035" lon="3.69402">
        <ele>1282.3</ele>
        <time>2022-08-29T09:54:41Z</time>
      </trkpt>
      <trkpt lat="45.93034" lon="3.69403">
        <ele>1282</ele>
        <time>2022-08-29T09:54:42Z</time>
      </trkpt>
      <trkpt lat="45.93032" lon="3.69402">
        <ele>1281.8</ele>
        <time>2022-08-29T09:54:43Z</time>
      </trkpt>
      <trkpt lat="45.9303" lon="3.69402">
        <ele>1281.4</ele>
        <time>2022-08-29T09:54:44Z</time>
      </trkpt>
      <trkpt lat="45.9303" lon="3.69401">
        <ele>1281.3</ele>
        <time>2022-08-29T09:54:45Z</time>
      </trkpt>
      <trkpt lat="45.93029" lon="3.69401">
        <ele>1281.1</ele>
        <time>2022-08-29T09:54:46Z</time>
      </trkpt>
      <trkpt lat="45.93027" lon="3.694">
        <ele>1280.8</ele>
        <time>2022-08-29T09:54:47Z</time>
      </trkpt>
      <trkpt lat="45.93026" lon="3.69399">
        <ele>1280.6</ele>
        <time>2022-08-29T09:54:48Z</time>
      </trkpt>
      <trkpt lat="45.93024" lon="3.69396">
        <ele>1280</ele>
        <time>2022-08-29T09:54:49Z</time>
      </trkpt>
      <trkpt lat="45.93023" lon="3.69396">
        <ele>1279.8</ele>
        <time>2022-08-29T09:54:50Z</time>
      </trkpt>
      <trkpt lat="45.93021" lon="3.69394">
        <ele>1279.5</ele>
        <time>2022-08-29T09:54:51Z</time>
      </trkpt>
      <trkpt lat="45.9302" lon="3.69393">
        <ele>1279.2</ele>
        <time>2022-08-29T09:54:52Z</time>
      </trkpt>
      <trkpt lat="45.93018" lon="3.69392">
        <ele>1278.8</ele>
        <time>2022-08-29T09:54:53Z</time>
      </trkpt>
      <trkpt lat="45.93017" lon="3.69392">
        <ele>1278.7</ele>
        <time>2022-08-29T09:54:54Z</time>
      </trkpt>
      <trkpt lat="45.93017" lon="3.69391">
        <ele>1278.5</ele>
        <time>2022-08-29T09:54:55Z</time>
      </trkpt>
      <trkpt lat="45.93016" lon="3.69392">
        <ele>1278.3</ele>
        <time>2022-08-29T09:54:56Z</time>
      </trkpt>
      <trkpt lat="45.93015" lon="3.69392">
        <ele>1278.1</ele>
        <time>2022-08-29T09:54:57Z</time>
      </trkpt>
      <trkpt lat="45.93014" lon="3.69393">
        <ele>1277.9</ele>
        <time>2022-08-29T09:54:58Z</time>
      </trkpt>
      <trkpt lat="45.93013" lon="3.69393">
        <ele>1277.6</ele>
        <time>2022-08-29T09:54:59Z</time>
      </trkpt>
      <trkpt lat="45.93011" lon="3.69393">
        <ele>1277.4</ele>
        <time>2022-08-29T09:55:00Z</time>
      </trkpt>
      <trkpt lat="45.9301" lon="3.69393">
        <ele>1277.2</ele>
        <time>2022-08-29T09:55:01Z</time>
      </trkpt>
      <trkpt lat="45.93009" lon="3.69393">
        <ele>1277</ele>
        <time>2022-08-29T09:55:02Z</time>
      </trkpt>
      <trkpt lat="45.93009" lon="3.69393">
        <ele>1276.9</ele>
        <time>2022-08-29T09:55:03Z</time>
      </trkpt>
      <trkpt lat="45.93008" lon="3.69393">
        <ele>1276.7</ele>
        <time>2022-08-29T09:55:04Z</time>
      </trkpt>
      <trkpt lat="45.93007" lon="3.69394">
        <ele>1276.5</ele>
        <time>2022-08-29T09:55:05Z</time>
      </trkpt>
      <trkpt lat="45.93006" lon="3.69394">
        <ele>1276.2</ele>
        <time>2022-08-29T09:55:06Z</time>
      </trkpt>
      <trkpt lat="45.93005" lon="3.69393">
        <ele>1276</ele>
        <time>2022-08-29T09:55:07Z</time>
      </trkpt>
      <trkpt lat="45.93004" lon="3.69392">
        <ele>1275.7</ele>
        <time>2022-08-29T09:55:08Z</time>
      </trkpt>
      <trkpt lat="45.93002" lon="3.6939">
        <ele>1275.3</ele>
        <time>2022-08-29T09:55:09Z</time>
      </trkpt>
      <trkpt lat="45.93002" lon="3.6939">
        <ele>1275.1</ele>
        <time>2022-08-29T09:55:10Z</time>
      </trkpt>
      <trkpt lat="45.93001" lon="3.69389">
        <ele>1274.9</ele>
        <time>2022-08-29T09:55:11Z</time>
      </trkpt>
      <trkpt lat="45.92999" lon="3.69388">
        <ele>1274.5</ele>
        <time>2022-08-29T09:55:12Z</time>
      </trkpt>
      <trkpt lat="45.92998" lon="3.69388">
        <ele>1274.2</ele>
        <time>2022-08-29T09:55:13Z</time>
      </trkpt>
      <trkpt lat="45.92997" lon="3.69389">
        <ele>1274.1</ele>
        <time>2022-08-29T09:55:14Z</time>
      </trkpt>
      <trkpt lat="45.92996" lon="3.69389">
        <ele>1273.9</ele>
        <time>2022-08-29T09:55:15Z</time>
      </trkpt>
      <trkpt lat="45.92995" lon="3.69389">
        <ele>1273.6</ele>
        <time>2022-08-29T09:55:16Z</time>
      </trkpt>
      <trkpt lat="45.92994" lon="3.69389">
        <ele>1273.4</ele>
        <time>2022-08-29T09:55:17Z</time>
      </trkpt>
      <trkpt lat="45.92994" lon="3.69389">
        <ele>1273.2</ele>
        <time>2022-08-29T09:55:18Z</time>
      </trkpt>
      <trkpt lat="45.92993" lon="3.6939">
        <ele>1273.1</ele>
        <time>2022-08-29T09:55:19Z</time>
      </trkpt>
      <trkpt lat="45.92992" lon="3.6939">
        <ele>1272.9</ele>
        <time>2022-08-29T09:55:20Z</time>
      </trkpt>
      <trkpt lat="45.92991" lon="3.6939">
        <ele>1272.7</ele>
        <time>2022-08-29T09:55:21Z</time>
      </trkpt>
      <trkpt lat="45.9299" lon="3.69391">
        <ele>1272.4</ele>
        <time>2022-08-29T09:55:22Z</time>
      </trkpt>
      <trkpt lat="45.92989" lon="3.69392">
        <ele>1270.9</ele>
        <time>2022-08-29T09:55:23Z</time>
      </trkpt>
      <trkpt lat="45.92988" lon="3.69392">
        <ele>1270.7</ele>
        <time>2022-08-29T09:55:24Z</time>
      </trkpt>
      <trkpt lat="45.92986" lon="3.69393">
        <ele>1270.3</ele>
        <time>2022-08-29T09:55:25Z</time>
      </trkpt>
      <trkpt lat="45.92985" lon="3.69393">
        <ele>1270.1</ele>
        <time>2022-08-29T09:55:26Z</time>
      </trkpt>
      <trkpt lat="45.92984" lon="3.69393">
        <ele>1270</ele>
        <time>2022-08-29T09:55:27Z</time>
      </trkpt>
      <trkpt lat="45.92983" lon="3.69393">
        <ele>1269.9</ele>
        <time>2022-08-29T09:55:28Z</time>
      </trkpt>
      <trkpt lat="45.92983" lon="3.69393">
        <ele>1269.7</ele>
        <time>2022-08-29T09:55:29Z</time>
      </trkpt>
      <trkpt lat="45.92982" lon="3.69392">
        <ele>1269.6</ele>
        <time>2022-08-29T09:55:30Z</time>
      </trkpt>
      <trkpt lat="45.92982" lon="3.69392">
        <ele>1269.6</ele>
        <time>2022-08-29T09:55:31Z</time>
      </trkpt>
      <trkpt lat="45.92982" lon="3.69391">
        <ele>1269.5</ele>
        <time>2022-08-29T09:55:32Z</time>
      </trkpt>
      <trkpt lat="45.92981" lon="3.69391">
        <ele>1269.3</ele>
        <time>2022-08-29T09:55:33Z</time>
      </trkpt>
      <trkpt lat="45.9298" lon="3.6939">
        <ele>1269.1</ele>
        <time>2022-08-29T09:55:34Z</time>
      </trkpt>
      <trkpt lat="45.92979" lon="3.6939">
        <ele>1269</ele>
        <time>2022-08-29T09:55:35Z</time>
      </trkpt>
      <trkpt lat="45.92979" lon="3.6939">
        <ele>1268.9</ele>
        <time>2022-08-29T09:55:36Z</time>
      </trkpt>
      <trkpt lat="45.92978" lon="3.6939">
        <ele>1268.8</ele>
        <time>2022-08-29T09:55:37Z</time>
      </trkpt>
      <trkpt lat="45.92977" lon="3.69389">
        <ele>1268.6</ele>
        <time>2022-08-29T09:55:38Z</time>
      </trkpt>
      <trkpt lat="45.92977" lon="3.69389">
        <ele>1268.5</ele>
        <time>2022-08-29T09:55:39Z</time>
      </trkpt>
      <trkpt lat="45.92976" lon="3.69388">
        <ele>1268.3</ele>
        <time>2022-08-29T09:55:40Z</time>
      </trkpt>
      <trkpt lat="45.92975" lon="3.69388">
        <ele>1268.2</ele>
        <time>2022-08-29T09:55:41Z</time>
      </trkpt>
      <trkpt lat="45.92974" lon="3.69388">
        <ele>1268</ele>
        <time>2022-08-29T09:55:42Z</time>
      </trkpt>
      <trkpt lat="45.92973" lon="3.69388">
        <ele>1267.9</ele>
        <time>2022-08-29T09:55:43Z</time>
      </trkpt>
      <trkpt lat="45.92971" lon="3.69388">
        <ele>1267.5</ele>
        <time>2022-08-29T09:55:44Z</time>
      </trkpt>
      <trkpt lat="45.9297" lon="3.69388">
        <ele>1267.4</ele>
        <time>2022-08-29T09:55:45Z</time>
      </trkpt>
      <trkpt lat="45.92969" lon="3.69388">
        <ele>1267.2</ele>
        <time>2022-08-29T09:55:46Z</time>
      </trkpt>
      <trkpt lat="45.92968" lon="3.69388">
        <ele>1267</ele>
        <time>2022-08-29T09:55:47Z</time>
      </trkpt>
      <trkpt lat="45.92968" lon="3.69388">
        <ele>1267</ele>
        <time>2022-08-29T09:55:48Z</time>
      </trkpt>
      <trkpt lat="45.92967" lon="3.69387">
        <ele>1266.8</ele>
        <time>2022-08-29T09:55:49Z</time>
      </trkpt>
      <trkpt lat="45.92966" lon="3.69387">
        <ele>1266.7</ele>
        <time>2022-08-29T09:55:50Z</time>
      </trkpt>
      <trkpt lat="45.92965" lon="3.69386">
        <ele>1266.5</ele>
        <time>2022-08-29T09:55:51Z</time>
      </trkpt>
      <trkpt lat="45.92964" lon="3.69385">
        <ele>1266.3</ele>
        <time>2022-08-29T09:55:52Z</time>
      </trkpt>
      <trkpt lat="45.92963" lon="3.69385">
        <ele>1266.1</ele>
        <time>2022-08-29T09:55:53Z</time>
      </trkpt>
      <trkpt lat="45.92963" lon="3.69384">
        <ele>1265.9</ele>
        <time>2022-08-29T09:55:54Z</time>
      </trkpt>
      <trkpt lat="45.92962" lon="3.69384">
        <ele>1265.8</ele>
        <time>2022-08-29T09:55:55Z</time>
      </trkpt>
      <trkpt lat="45.92961" lon="3.69384">
        <ele>1265.6</ele>
        <time>2022-08-29T09:55:56Z</time>
      </trkpt>
      <trkpt lat="45.9296" lon="3.69384">
        <ele>1265.4</ele>
        <time>2022-08-29T09:55:57Z</time>
      </trkpt>
      <trkpt lat="45.92959" lon="3.69384">
        <ele>1265.2</ele>
        <time>2022-08-29T09:55:58Z</time>
      </trkpt>
      <trkpt lat="45.92958" lon="3.69385">
        <ele>1265</ele>
        <time>2022-08-29T09:55:59Z</time>
      </trkpt>
      <trkpt lat="45.92957" lon="3.69385">
        <ele>1264.8</ele>
        <time>2022-08-29T09:56:00Z</time>
      </trkpt>
      <trkpt lat="45.92956" lon="3.69386">
        <ele>1264.7</ele>
        <time>2022-08-29T09:56:01Z</time>
      </trkpt>
      <trkpt lat="45.92955" lon="3.69387">
        <ele>1264.5</ele>
        <time>2022-08-29T09:56:02Z</time>
      </trkpt>
      <trkpt lat="45.92953" lon="3.69387">
        <ele>1264.1</ele>
        <time>2022-08-29T09:56:03Z</time>
      </trkpt>
      <trkpt lat="45.92952" lon="3.69387">
        <ele>1263.9</ele>
        <time>2022-08-29T09:56:04Z</time>
      </trkpt>
      <trkpt lat="45.92951" lon="3.69388">
        <ele>1263.8</ele>
        <time>2022-08-29T09:56:05Z</time>
      </trkpt>
      <trkpt lat="45.92951" lon="3.69388">
        <ele>1263.6</ele>
        <time>2022-08-29T09:56:06Z</time>
      </trkpt>
      <trkpt lat="45.9295" lon="3.69388">
        <ele>1263.5</ele>
        <time>2022-08-29T09:56:07Z</time>
      </trkpt>
      <trkpt lat="45.92949" lon="3.69388">
        <ele>1263.4</ele>
        <time>2022-08-29T09:56:08Z</time>
      </trkpt>
      <trkpt lat="45.92949" lon="3.69388">
        <ele>1263.3</ele>
        <time>2022-08-29T09:56:09Z</time>
      </trkpt>
      <trkpt lat="45.92949" lon="3.69387">
        <ele>1263.3</ele>
        <time>2022-08-29T09:56:10Z</time>
      </trkpt>
      <trkpt lat="45.92948" lon="3.69387">
        <ele>1263.2</ele>
        <time>2022-08-29T09:56:11Z</time>
      </trkpt>
      <trkpt lat="45.92947" lon="3.69387">
        <ele>1263</ele>
        <time>2022-08-29T09:56:12Z</time>
      </trkpt>
      <trkpt lat="45.92947" lon="3.69386">
        <ele>1262.9</ele>
        <time>2022-08-29T09:56:13Z</time>
      </trkpt>
      <trkpt lat="45.92946" lon="3.69386">
        <ele>1262.7</ele>
        <time>2022-08-29T09:56:14Z</time>
      </trkpt>
      <trkpt lat="45.92944" lon="3.69385">
        <ele>1262.4</ele>
        <time>2022-08-29T09:56:15Z</time>
      </trkpt>
      <trkpt lat="45.92944" lon="3.69385">
        <ele>1262.3</ele>
        <time>2022-08-29T09:56:16Z</time>
      </trkpt>
      <trkpt lat="45.92943" lon="3.69385">
        <ele>1262.2</ele>
        <time>2022-08-29T09:56:17Z</time>
      </trkpt>
      <trkpt lat="45.92942" lon="3.69385">
        <ele>1262</ele>
        <time>2022-08-29T09:56:18Z</time>
      </trkpt>
      <trkpt lat="45.92941" lon="3.69385">
        <ele>1261.9</ele>
        <time>2022-08-29T09:56:19Z</time>
      </trkpt>
      <trkpt lat="45.9294" lon="3.69385">
        <ele>1261.7</ele>
        <time>2022-08-29T09:56:20Z</time>
      </trkpt>
      <trkpt lat="45.92939" lon="3.69385">
        <ele>1261.6</ele>
        <time>2022-08-29T09:56:21Z</time>
      </trkpt>
      <trkpt lat="45.92939" lon="3.69386">
        <ele>1261.5</ele>
        <time>2022-08-29T09:56:22Z</time>
      </trkpt>
      <trkpt lat="45.92938" lon="3.69387">
        <ele>1261.3</ele>
        <time>2022-08-29T09:56:23Z</time>
      </trkpt>
      <trkpt lat="45.92938" lon="3.69387">
        <ele>1261.2</ele>
        <time>2022-08-29T09:56:24Z</time>
      </trkpt>
      <trkpt lat="45.92937" lon="3.69387">
        <ele>1261.2</ele>
        <time>2022-08-29T09:56:25Z</time>
      </trkpt>
      <trkpt lat="45.92937" lon="3.69388">
        <ele>1261.1</ele>
        <time>2022-08-29T09:56:26Z</time>
      </trkpt>
      <trkpt lat="45.92937" lon="3.69388">
        <ele>1261.1</ele>
        <time>2022-08-29T09:56:27Z</time>
      </trkpt>
      <trkpt lat="45.92937" lon="3.69388">
        <ele>1261.1</ele>
        <time>2022-08-29T09:56:28Z</time>
      </trkpt>
      <trkpt lat="45.92937" lon="3.69388">
        <ele>1261.1</ele>
        <time>2022-08-29T09:56:29Z</time>
      </trkpt>
      <trkpt lat="45.92937" lon="3.69388">
        <ele>1261</ele>
        <time>2022-08-29T09:56:30Z</time>
      </trkpt>
      <trkpt lat="45.92937" lon="3.69388">
        <ele>1260.9</ele>
        <time>2022-08-29T09:56:31Z</time>
      </trkpt>
      <trkpt lat="45.92936" lon="3.69388">
        <ele>1260.8</ele>
        <time>2022-08-29T09:56:32Z</time>
      </trkpt>
      <trkpt lat="45.92936" lon="3.69388">
        <ele>1260.8</ele>
        <time>2022-08-29T09:56:33Z</time>
      </trkpt>
      <trkpt lat="45.92935" lon="3.69388">
        <ele>1260.7</ele>
        <time>2022-08-29T09:56:34Z</time>
      </trkpt>
      <trkpt lat="45.92934" lon="3.69388">
        <ele>1260.5</ele>
        <time>2022-08-29T09:56:35Z</time>
      </trkpt>
      <trkpt lat="45.92933" lon="3.69388">
        <ele>1260.4</ele>
        <time>2022-08-29T09:56:36Z</time>
      </trkpt>
      <trkpt lat="45.92932" lon="3.69388">
        <ele>1260.1</ele>
        <time>2022-08-29T09:56:37Z</time>
      </trkpt>
      <trkpt lat="45.92931" lon="3.69388">
        <ele>1260</ele>
        <time>2022-08-29T09:56:38Z</time>
      </trkpt>
      <trkpt lat="45.9293" lon="3.69388">
        <ele>1259.8</ele>
        <time>2022-08-29T09:56:39Z</time>
      </trkpt>
      <trkpt lat="45.92929" lon="3.69388">
        <ele>1259.7</ele>
        <time>2022-08-29T09:56:40Z</time>
      </trkpt>
      <trkpt lat="45.92929" lon="3.69388">
        <ele>1259.6</ele>
        <time>2022-08-29T09:56:41Z</time>
      </trkpt>
      <trkpt lat="45.92928" lon="3.69388">
        <ele>1259.5</ele>
        <time>2022-08-29T09:56:42Z</time>
      </trkpt>
      <trkpt lat="45.92927" lon="3.69387">
        <ele>1259.4</ele>
        <time>2022-08-29T09:56:43Z</time>
      </trkpt>
      <trkpt lat="45.92927" lon="3.69387">
        <ele>1259.3</ele>
        <time>2022-08-29T09:56:44Z</time>
      </trkpt>
      <trkpt lat="45.92926" lon="3.69386">
        <ele>1259.2</ele>
        <time>2022-08-29T09:56:45Z</time>
      </trkpt>
      <trkpt lat="45.92925" lon="3.69386">
        <ele>1259.1</ele>
        <time>2022-08-29T09:56:46Z</time>
      </trkpt>
      <trkpt lat="45.92924" lon="3.69386">
        <ele>1259</ele>
        <time>2022-08-29T09:56:47Z</time>
      </trkpt>
      <trkpt lat="45.92924" lon="3.69387">
        <ele>1258.8</ele>
        <time>2022-08-29T09:56:48Z</time>
      </trkpt>
      <trkpt lat="45.92923" lon="3.69388">
        <ele>1258.7</ele>
        <time>2022-08-29T09:56:49Z</time>
      </trkpt>
      <trkpt lat="45.92922" lon="3.69389">
        <ele>1258.6</ele>
        <time>2022-08-29T09:56:50Z</time>
      </trkpt>
      <trkpt lat="45.92922" lon="3.6939">
        <ele>1258.4</ele>
        <time>2022-08-29T09:56:51Z</time>
      </trkpt>
      <trkpt lat="45.92921" lon="3.69391">
        <ele>1258.2</ele>
        <time>2022-08-29T09:56:52Z</time>
      </trkpt>
      <trkpt lat="45.9292" lon="3.69391">
        <ele>1258.1</ele>
        <time>2022-08-29T09:56:53Z</time>
      </trkpt>
      <trkpt lat="45.92919" lon="3.69392">
        <ele>1257.9</ele>
        <time>2022-08-29T09:56:54Z</time>
      </trkpt>
      <trkpt lat="45.92918" lon="3.69393">
        <ele>1257.8</ele>
        <time>2022-08-29T09:56:55Z</time>
      </trkpt>
      <trkpt lat="45.92918" lon="3.69394">
        <ele>1257.6</ele>
        <time>2022-08-29T09:56:56Z</time>
      </trkpt>
      <trkpt lat="45.92917" lon="3.69395">
        <ele>1257.5</ele>
        <time>2022-08-29T09:56:57Z</time>
      </trkpt>
      <trkpt lat="45.92916" lon="3.69396">
        <ele>1257.3</ele>
        <time>2022-08-29T09:56:58Z</time>
      </trkpt>
      <trkpt lat="45.92915" lon="3.69397">
        <ele>1257.1</ele>
        <time>2022-08-29T09:56:59Z</time>
      </trkpt>
      <trkpt lat="45.92914" lon="3.69399">
        <ele>1256.8</ele>
        <time>2022-08-29T09:57:00Z</time>
      </trkpt>
      <trkpt lat="45.92913" lon="3.69399">
        <ele>1256.7</ele>
        <time>2022-08-29T09:57:01Z</time>
      </trkpt>
      <trkpt lat="45.92912" lon="3.694">
        <ele>1256.6</ele>
        <time>2022-08-29T09:57:02Z</time>
      </trkpt>
      <trkpt lat="45.92911" lon="3.69401">
        <ele>1256.3</ele>
        <time>2022-08-29T09:57:03Z</time>
      </trkpt>
      <trkpt lat="45.9291" lon="3.69403">
        <ele>1256</ele>
        <time>2022-08-29T09:57:04Z</time>
      </trkpt>
      <trkpt lat="45.92908" lon="3.69405">
        <ele>1255.6</ele>
        <time>2022-08-29T09:57:05Z</time>
      </trkpt>
      <trkpt lat="45.92907" lon="3.69406">
        <ele>1255.4</ele>
        <time>2022-08-29T09:57:06Z</time>
      </trkpt>
      <trkpt lat="45.92903" lon="3.69408">
        <ele>1254.8</ele>
        <time>2022-08-29T09:57:07Z</time>
      </trkpt>
      <trkpt lat="45.92902" lon="3.69408">
        <ele>1254.7</ele>
        <time>2022-08-29T09:57:08Z</time>
      </trkpt>
      <trkpt lat="45.92899" lon="3.69408">
        <ele>1254.2</ele>
        <time>2022-08-29T09:57:09Z</time>
      </trkpt>
      <trkpt lat="45.92898" lon="3.69407">
        <ele>1253.9</ele>
        <time>2022-08-29T09:57:10Z</time>
      </trkpt>
      <trkpt lat="45.92897" lon="3.69407">
        <ele>1253.8</ele>
        <time>2022-08-29T09:57:11Z</time>
      </trkpt>
      <trkpt lat="45.92896" lon="3.69406">
        <ele>1253.6</ele>
        <time>2022-08-29T09:57:12Z</time>
      </trkpt>
      <trkpt lat="45.92896" lon="3.69405">
        <ele>1253.5</ele>
        <time>2022-08-29T09:57:13Z</time>
      </trkpt>
      <trkpt lat="45.92895" lon="3.69405">
        <ele>1253.4</ele>
        <time>2022-08-29T09:57:14Z</time>
      </trkpt>
      <trkpt lat="45.92895" lon="3.69404">
        <ele>1253.3</ele>
        <time>2022-08-29T09:57:15Z</time>
      </trkpt>
      <trkpt lat="45.92895" lon="3.69403">
        <ele>1253.2</ele>
        <time>2022-08-29T09:57:16Z</time>
      </trkpt>
      <trkpt lat="45.92895" lon="3.69402">
        <ele>1253.1</ele>
        <time>2022-08-29T09:57:17Z</time>
      </trkpt>
      <trkpt lat="45.92895" lon="3.69401">
        <ele>1252.9</ele>
        <time>2022-08-29T09:57:18Z</time>
      </trkpt>
      <trkpt lat="45.92896" lon="3.69399">
        <ele>1252.8</ele>
        <time>2022-08-29T09:57:19Z</time>
      </trkpt>
      <trkpt lat="45.92896" lon="3.69398">
        <ele>1252.6</ele>
        <time>2022-08-29T09:57:20Z</time>
      </trkpt>
      <trkpt lat="45.92896" lon="3.69397">
        <ele>1252.5</ele>
        <time>2022-08-29T09:57:21Z</time>
      </trkpt>
      <trkpt lat="45.92897" lon="3.69397">
        <ele>1252.4</ele>
        <time>2022-08-29T09:57:22Z</time>
      </trkpt>
      <trkpt lat="45.92897" lon="3.69396">
        <ele>1252.3</ele>
        <time>2022-08-29T09:57:23Z</time>
      </trkpt>
      <trkpt lat="45.92897" lon="3.69396">
        <ele>1252.2</ele>
        <time>2022-08-29T09:57:24Z</time>
      </trkpt>
      <trkpt lat="45.92898" lon="3.69396">
        <ele>1252.1</ele>
        <time>2022-08-29T09:57:25Z</time>
      </trkpt>
      <trkpt lat="45.92898" lon="3.69395">
        <ele>1252.1</ele>
        <time>2022-08-29T09:57:26Z</time>
      </trkpt>
      <trkpt lat="45.92898" lon="3.69395">
        <ele>1252</ele>
        <time>2022-08-29T09:57:27Z</time>
      </trkpt>
      <trkpt lat="45.92899" lon="3.69395">
        <ele>1252</ele>
        <time>2022-08-29T09:57:28Z</time>
      </trkpt>
      <trkpt lat="45.92899" lon="3.69395">
        <ele>1252</ele>
        <time>2022-08-29T09:57:29Z</time>
      </trkpt>
      <trkpt lat="45.92899" lon="3.69395">
        <ele>1251.9</ele>
        <time>2022-08-29T09:57:30Z</time>
      </trkpt>
      <trkpt lat="45.92899" lon="3.69396">
        <ele>1251.9</ele>
        <time>2022-08-29T09:57:31Z</time>
      </trkpt>
      <trkpt lat="45.92899" lon="3.69396">
        <ele>1251.9</ele>
        <time>2022-08-29T09:57:32Z</time>
      </trkpt>
      <trkpt lat="45.92899" lon="3.69396">
        <ele>1251.9</ele>
        <time>2022-08-29T09:57:33Z</time>
      </trkpt>
      <trkpt lat="45.92899" lon="3.69396">
        <ele>1251.9</ele>
        <time>2022-08-29T09:57:34Z</time>
      </trkpt>
      <trkpt lat="45.92899" lon="3.69396">
        <ele>1251.9</ele>
        <time>2022-08-29T09:57:35Z</time>
      </trkpt>
      <trkpt lat="45.92899" lon="3.69396">
        <ele>1251.9</ele>
        <time>2022-08-29T09:57:36Z</time>
      </trkpt>
      <trkpt lat="45.92899" lon="3.69396">
        <ele>1251.9</ele>
        <time>2022-08-29T09:57:37Z</time>
      </trkpt>
      <trkpt lat="45.92899" lon="3.69396">
        <ele>1251.9</ele>
        <time>2022-08-29T09:57:38Z</time>
      </trkpt>
      <trkpt lat="45.92899" lon="3.69396">
        <ele>1251.9</ele>
        <time>2022-08-29T09:57:39Z</time>
      </trkpt>
      <trkpt lat="45.92899" lon="3.69396">
        <ele>1251.8</ele>
        <time>2022-08-29T09:57:40Z</time>
      </trkpt>
      <trkpt lat="45.92899" lon="3.69396">
        <ele>1251.8</ele>
        <time>2022-08-29T09:57:41Z</time>
      </trkpt>
      <trkpt lat="45.92899" lon="3.69396">
        <ele>1251.8</ele>
        <time>2022-08-29T09:57:42Z</time>
      </trkpt>
      <trkpt lat="45.929" lon="3.69396">
        <ele>1251.8</ele>
        <time>2022-08-29T09:57:43Z</time>
      </trkpt>
      <trkpt lat="45.929" lon="3.69396">
        <ele>1251.8</ele>
        <time>2022-08-29T09:57:44Z</time>
      </trkpt>
      <trkpt lat="45.929" lon="3.69396">
        <ele>1251.8</ele>
        <time>2022-08-29T09:57:45Z</time>
      </trkpt>
      <trkpt lat="45.929" lon="3.69396">
        <ele>1251.8</ele>
        <time>2022-08-29T09:57:46Z</time>
      </trkpt>
      <trkpt lat="45.929" lon="3.69396">
        <ele>1251.7</ele>
        <time>2022-08-29T09:57:47Z</time>
      </trkpt>
      <trkpt lat="45.929" lon="3.69396">
        <ele>1251.7</ele>
        <time>2022-08-29T09:57:49Z</time>
      </trkpt>
      <trkpt lat="45.929" lon="3.69396">
        <ele>1251.7</ele>
        <time>2022-08-29T09:57:50Z</time>
      </trkpt>
      <trkpt lat="45.929" lon="3.69396">
        <ele>1251.7</ele>
        <time>2022-08-29T09:57:51Z</time>
      </trkpt>
      <trkpt lat="45.929" lon="3.69396">
        <ele>1251.7</ele>
        <time>2022-08-29T09:57:52Z</time>
      </trkpt>
      <trkpt lat="45.929" lon="3.69396">
        <ele>1251.7</ele>
        <time>2022-08-29T09:57:53Z</time>
      </trkpt>
      <trkpt lat="45.929" lon="3.69396">
        <ele>1251.7</ele>
        <time>2022-08-29T09:57:54Z</time>
      </trkpt>
      <trkpt lat="45.929" lon="3.69396">
        <ele>1251.7</ele>
        <time>2022-08-29T09:57:55Z</time>
      </trkpt>
      <trkpt lat="45.929" lon="3.69396">
        <ele>1251.7</ele>
        <time>2022-08-29T09:57:56Z</time>
      </trkpt>
      <trkpt lat="45.929" lon="3.69396">
        <ele>1251.6</ele>
        <time>2022-08-29T09:57:57Z</time>
      </trkpt>
      <trkpt lat="45.929" lon="3.69396">
        <ele>1251.6</ele>
        <time>2022-08-29T09:57:58Z</time>
      </trkpt>
      <trkpt lat="45.929" lon="3.69396">
        <ele>1251.6</ele>
        <time>2022-08-29T09:57:59Z</time>
      </trkpt>
      <trkpt lat="45.929" lon="3.69396">
        <ele>1251.6</ele>
        <time>2022-08-29T09:58:00Z</time>
      </trkpt>
      <trkpt lat="45.929" lon="3.69396">
        <ele>1251.6</ele>
        <time>2022-08-29T09:58:01Z</time>
      </trkpt>
      <trkpt lat="45.929" lon="3.69396">
        <ele>1251.6</ele>
        <time>2022-08-29T09:58:02Z</time>
      </trkpt>
      <trkpt lat="45.929" lon="3.69396">
        <ele>1251.6</ele>
        <time>2022-08-29T09:58:03Z</time>
      </trkpt>
      <trkpt lat="45.929" lon="3.69396">
        <ele>1251.6</ele>
        <time>2022-08-29T09:58:04Z</time>
      </trkpt>
      <trkpt lat="45.929" lon="3.69396">
        <ele>1251.6</ele>
        <time>2022-08-29T09:58:05Z</time>
      </trkpt>
      <trkpt lat="45.929" lon="3.69396">
        <ele>1251.6</ele>
        <time>2022-08-29T09:58:06Z</time>
      </trkpt>
      <trkpt lat="45.929" lon="3.69396">
        <ele>1251.6</ele>
        <time>2022-08-29T09:58:07Z</time>
      </trkpt>
      <trkpt lat="45.929" lon="3.69396">
        <ele>1251.6</ele>
        <time>2022-08-29T09:58:08Z</time>
      </trkpt>
      <trkpt lat="45.929" lon="3.69396">
        <ele>1251.6</ele>
        <time>2022-08-29T09:58:09Z</time>
      </trkpt>
      <trkpt lat="45.929" lon="3.69396">
        <ele>1251.6</ele>
        <time>2022-08-29T09:58:10Z</time>
      </trkpt>
      <trkpt lat="45.929" lon="3.69396">
        <ele>1251.6</ele>
        <time>2022-08-29T09:58:11Z</time>
      </trkpt>
      <trkpt lat="45.929" lon="3.69396">
        <ele>1251.6</ele>
        <time>2022-08-29T09:58:12Z</time>
      </trkpt>
      <trkpt lat="45.929" lon="3.69396">
        <ele>1251.6</ele>
        <time>2022-08-29T09:58:13Z</time>
      </trkpt>
      <trkpt lat="45.929" lon="3.69396">
        <ele>1251.6</ele>
        <time>2022-08-29T09:58:14Z</time>
      </trkpt>
      <trkpt lat="45.929" lon="3.69396">
        <ele>1251.6</ele>
        <time>2022-08-29T09:58:15Z</time>
      </trkpt>
      <trkpt lat="45.929" lon="3.69396">
        <ele>1251.6</ele>
        <time>2022-08-29T09:58:16Z</time>
      </trkpt>
      <trkpt lat="45.929" lon="3.69396">
        <ele>1251.6</ele>
        <time>2022-08-29T09:58:17Z</time>
      </trkpt>
      <trkpt lat="45.929" lon="3.69396">
        <ele>1251.5</ele>
        <time>2022-08-29T09:58:18Z</time>
      </trkpt>
      <trkpt lat="45.929" lon="3.69396">
        <ele>1251.5</ele>
        <time>2022-08-29T09:58:19Z</time>
      </trkpt>
      <trkpt lat="45.929" lon="3.69396">
        <ele>1251.5</ele>
        <time>2022-08-29T09:58:20Z</time>
      </trkpt>
      <trkpt lat="45.929" lon="3.69396">
        <ele>1251.5</ele>
        <time>2022-08-29T09:58:21Z</time>
      </trkpt>
      <trkpt lat="45.929" lon="3.69396">
        <ele>1251.5</ele>
        <time>2022-08-29T09:58:22Z</time>
      </trkpt>
      <trkpt lat="45.929" lon="3.69396">
        <ele>1251.5</ele>
        <time>2022-08-29T09:58:23Z</time>
      </trkpt>
      <trkpt lat="45.929" lon="3.69396">
        <ele>1251.5</ele>
        <time>2022-08-29T09:58:24Z</time>
      </trkpt>
      <trkpt lat="45.92899" lon="3.69396">
        <ele>1251.4</ele>
        <time>2022-08-29T09:58:25Z</time>
      </trkpt>
      <trkpt lat="45.92898" lon="3.69395">
        <ele>1251.2</ele>
        <time>2022-08-29T09:58:26Z</time>
      </trkpt>
      <trkpt lat="45.92897" lon="3.69395">
        <ele>1251</ele>
        <time>2022-08-29T09:58:27Z</time>
      </trkpt>
      <trkpt lat="45.92896" lon="3.69394">
        <ele>1250.8</ele>
        <time>2022-08-29T09:58:28Z</time>
      </trkpt>
      <trkpt lat="45.92895" lon="3.69392">
        <ele>1250.6</ele>
        <time>2022-08-29T09:58:29Z</time>
      </trkpt>
      <trkpt lat="45.92894" lon="3.69391">
        <ele>1250.3</ele>
        <time>2022-08-29T09:58:30Z</time>
      </trkpt>
      <trkpt lat="45.92894" lon="3.69389">
        <ele>1250.1</ele>
        <time>2022-08-29T09:58:31Z</time>
      </trkpt>
      <trkpt lat="45.92893" lon="3.69387">
        <ele>1249.8</ele>
        <time>2022-08-29T09:58:32Z</time>
      </trkpt>
      <trkpt lat="45.92893" lon="3.69385">
        <ele>1249.6</ele>
        <time>2022-08-29T09:58:33Z</time>
      </trkpt>
      <trkpt lat="45.92891" lon="3.69381">
        <ele>1249.2</ele>
        <time>2022-08-29T09:58:34Z</time>
      </trkpt>
      <trkpt lat="45.9289" lon="3.6938">
        <ele>1249</ele>
        <time>2022-08-29T09:58:35Z</time>
      </trkpt>
      <trkpt lat="45.92889" lon="3.69378">
        <ele>1248.7</ele>
        <time>2022-08-29T09:58:36Z</time>
      </trkpt>
      <trkpt lat="45.92888" lon="3.69376">
        <ele>1248.5</ele>
        <time>2022-08-29T09:58:37Z</time>
      </trkpt>
      <trkpt lat="45.92887" lon="3.69375">
        <ele>1248.3</ele>
        <time>2022-08-29T09:58:38Z</time>
      </trkpt>
      <trkpt lat="45.92886" lon="3.69374">
        <ele>1248.1</ele>
        <time>2022-08-29T09:58:39Z</time>
      </trkpt>
      <trkpt lat="45.92885" lon="3.69373">
        <ele>1247.9</ele>
        <time>2022-08-29T09:58:40Z</time>
      </trkpt>
      <trkpt lat="45.92884" lon="3.69373">
        <ele>1247.8</ele>
        <time>2022-08-29T09:58:41Z</time>
      </trkpt>
      <trkpt lat="45.92884" lon="3.69373">
        <ele>1247.7</ele>
        <time>2022-08-29T09:58:42Z</time>
      </trkpt>
      <trkpt lat="45.92884" lon="3.69373">
        <ele>1247.7</ele>
        <time>2022-08-29T09:58:43Z</time>
      </trkpt>
      <trkpt lat="45.92883" lon="3.69373">
        <ele>1247.6</ele>
        <time>2022-08-29T09:58:44Z</time>
      </trkpt>
      <trkpt lat="45.92882" lon="3.69373">
        <ele>1247.5</ele>
        <time>2022-08-29T09:58:45Z</time>
      </trkpt>
      <trkpt lat="45.92882" lon="3.69373">
        <ele>1247.4</ele>
        <time>2022-08-29T09:58:46Z</time>
      </trkpt>
      <trkpt lat="45.92881" lon="3.69373">
        <ele>1247.3</ele>
        <time>2022-08-29T09:58:47Z</time>
      </trkpt>
      <trkpt lat="45.9288" lon="3.69373">
        <ele>1247.2</ele>
        <time>2022-08-29T09:58:48Z</time>
      </trkpt>
      <trkpt lat="45.9288" lon="3.69373">
        <ele>1247.1</ele>
        <time>2022-08-29T09:58:49Z</time>
      </trkpt>
      <trkpt lat="45.92877" lon="3.69372">
        <ele>1246.7</ele>
        <time>2022-08-29T09:58:50Z</time>
      </trkpt>
      <trkpt lat="45.92877" lon="3.69372">
        <ele>1246.6</ele>
        <time>2022-08-29T09:58:51Z</time>
      </trkpt>
      <trkpt lat="45.92876" lon="3.69372">
        <ele>1246.5</ele>
        <time>2022-08-29T09:58:52Z</time>
      </trkpt>
      <trkpt lat="45.92874" lon="3.69371">
        <ele>1246.2</ele>
        <time>2022-08-29T09:58:53Z</time>
      </trkpt>
      <trkpt lat="45.92873" lon="3.6937">
        <ele>1246</ele>
        <time>2022-08-29T09:58:54Z</time>
      </trkpt>
      <trkpt lat="45.92872" lon="3.6937">
        <ele>1245.8</ele>
        <time>2022-08-29T09:58:55Z</time>
      </trkpt>
      <trkpt lat="45.92871" lon="3.69369">
        <ele>1245.7</ele>
        <time>2022-08-29T09:58:56Z</time>
      </trkpt>
      <trkpt lat="45.9287" lon="3.69369">
        <ele>1245.5</ele>
        <time>2022-08-29T09:58:57Z</time>
      </trkpt>
      <trkpt lat="45.92869" lon="3.69368">
        <ele>1245.4</ele>
        <time>2022-08-29T09:58:58Z</time>
      </trkpt>
      <trkpt lat="45.92868" lon="3.69368">
        <ele>1244.9</ele>
        <time>2022-08-29T09:58:59Z</time>
      </trkpt>
      <trkpt lat="45.92867" lon="3.69368">
        <ele>1244.8</ele>
        <time>2022-08-29T09:59:00Z</time>
      </trkpt>
      <trkpt lat="45.92866" lon="3.69368">
        <ele>1244.7</ele>
        <time>2022-08-29T09:59:01Z</time>
      </trkpt>
      <trkpt lat="45.92866" lon="3.69369">
        <ele>1244.5</ele>
        <time>2022-08-29T09:59:02Z</time>
      </trkpt>
      <trkpt lat="45.92865" lon="3.6937">
        <ele>1244.4</ele>
        <time>2022-08-29T09:59:03Z</time>
      </trkpt>
      <trkpt lat="45.92864" lon="3.69371">
        <ele>1244.2</ele>
        <time>2022-08-29T09:59:04Z</time>
      </trkpt>
      <trkpt lat="45.92863" lon="3.69372">
        <ele>1244</ele>
        <time>2022-08-29T09:59:05Z</time>
      </trkpt>
      <trkpt lat="45.92862" lon="3.69373">
        <ele>1243.9</ele>
        <time>2022-08-29T09:59:06Z</time>
      </trkpt>
      <trkpt lat="45.92861" lon="3.69373">
        <ele>1243.8</ele>
        <time>2022-08-29T09:59:07Z</time>
      </trkpt>
      <trkpt lat="45.9286" lon="3.69373">
        <ele>1243.7</ele>
        <time>2022-08-29T09:59:08Z</time>
      </trkpt>
      <trkpt lat="45.9286" lon="3.69374">
        <ele>1243.6</ele>
        <time>2022-08-29T09:59:09Z</time>
      </trkpt>
      <trkpt lat="45.92859" lon="3.69374">
        <ele>1243.5</ele>
        <time>2022-08-29T09:59:10Z</time>
      </trkpt>
      <trkpt lat="45.92858" lon="3.69374">
        <ele>1243.4</ele>
        <time>2022-08-29T09:59:11Z</time>
      </trkpt>
      <trkpt lat="45.92858" lon="3.69373">
        <ele>1243.3</ele>
        <time>2022-08-29T09:59:12Z</time>
      </trkpt>
      <trkpt lat="45.92857" lon="3.69373">
        <ele>1243.2</ele>
        <time>2022-08-29T09:59:13Z</time>
      </trkpt>
      <trkpt lat="45.92857" lon="3.69372">
        <ele>1243.1</ele>
        <time>2022-08-29T09:59:14Z</time>
      </trkpt>
      <trkpt lat="45.92857" lon="3.69371">
        <ele>1243</ele>
        <time>2022-08-29T09:59:15Z</time>
      </trkpt>
      <trkpt lat="45.92856" lon="3.6937">
        <ele>1242.9</ele>
        <time>2022-08-29T09:59:16Z</time>
      </trkpt>
      <trkpt lat="45.92856" lon="3.6937">
        <ele>1242.8</ele>
        <time>2022-08-29T09:59:17Z</time>
      </trkpt>
      <trkpt lat="45.92856" lon="3.69369">
        <ele>1242.8</ele>
        <time>2022-08-29T09:59:18Z</time>
      </trkpt>
      <trkpt lat="45.92855" lon="3.69369">
        <ele>1242.7</ele>
        <time>2022-08-29T09:59:19Z</time>
      </trkpt>
      <trkpt lat="45.92855" lon="3.69369">
        <ele>1242.7</ele>
        <time>2022-08-29T09:59:20Z</time>
      </trkpt>
      <trkpt lat="45.92855" lon="3.69369">
        <ele>1242.6</ele>
        <time>2022-08-29T09:59:21Z</time>
      </trkpt>
      <trkpt lat="45.92855" lon="3.6937">
        <ele>1242.6</ele>
        <time>2022-08-29T09:59:22Z</time>
      </trkpt>
      <trkpt lat="45.92855" lon="3.6937">
        <ele>1242.6</ele>
        <time>2022-08-29T09:59:23Z</time>
      </trkpt>
      <trkpt lat="45.92855" lon="3.6937">
        <ele>1242.5</ele>
        <time>2022-08-29T09:59:24Z</time>
      </trkpt>
      <trkpt lat="45.92855" lon="3.6937">
        <ele>1242.5</ele>
        <time>2022-08-29T09:59:25Z</time>
      </trkpt>
      <trkpt lat="45.92855" lon="3.6937">
        <ele>1242.5</ele>
        <time>2022-08-29T09:59:26Z</time>
      </trkpt>
      <trkpt lat="45.92854" lon="3.6937">
        <ele>1242.5</ele>
        <time>2022-08-29T09:59:27Z</time>
      </trkpt>
      <trkpt lat="45.92854" lon="3.6937">
        <ele>1242.5</ele>
        <time>2022-08-29T09:59:28Z</time>
      </trkpt>
      <trkpt lat="45.92854" lon="3.6937">
        <ele>1242.5</ele>
        <time>2022-08-29T09:59:29Z</time>
      </trkpt>
      <trkpt lat="45.92854" lon="3.6937">
        <ele>1242.4</ele>
        <time>2022-08-29T09:59:30Z</time>
      </trkpt>
      <trkpt lat="45.92854" lon="3.6937">
        <ele>1242.4</ele>
        <time>2022-08-29T09:59:31Z</time>
      </trkpt>
      <trkpt lat="45.92854" lon="3.69369">
        <ele>1242.4</ele>
        <time>2022-08-29T09:59:32Z</time>
      </trkpt>
      <trkpt lat="45.92854" lon="3.69369">
        <ele>1242.3</ele>
        <time>2022-08-29T09:59:33Z</time>
      </trkpt>
      <trkpt lat="45.92853" lon="3.69369">
        <ele>1242.2</ele>
        <time>2022-08-29T09:59:34Z</time>
      </trkpt>
      <trkpt lat="45.92853" lon="3.69369">
        <ele>1242.2</ele>
        <time>2022-08-29T09:59:35Z</time>
      </trkpt>
      <trkpt lat="45.92852" lon="3.69369">
        <ele>1242.1</ele>
        <time>2022-08-29T09:59:36Z</time>
      </trkpt>
      <trkpt lat="45.92852" lon="3.69368">
        <ele>1242</ele>
        <time>2022-08-29T09:59:37Z</time>
      </trkpt>
      <trkpt lat="45.92852" lon="3.69368">
        <ele>1242</ele>
        <time>2022-08-29T09:59:38Z</time>
      </trkpt>
      <trkpt lat="45.92852" lon="3.69368">
        <ele>1242</ele>
        <time>2022-08-29T09:59:39Z</time>
      </trkpt>
      <trkpt lat="45.92851" lon="3.69368">
        <ele>1241.9</ele>
        <time>2022-08-29T09:59:40Z</time>
      </trkpt>
      <trkpt lat="45.92851" lon="3.69367">
        <ele>1241.8</ele>
        <time>2022-08-29T09:59:41Z</time>
      </trkpt>
      <trkpt lat="45.92851" lon="3.69367">
        <ele>1241.8</ele>
        <time>2022-08-29T09:59:42Z</time>
      </trkpt>
      <trkpt lat="45.9285" lon="3.69367">
        <ele>1241.7</ele>
        <time>2022-08-29T09:59:43Z</time>
      </trkpt>
      <trkpt lat="45.9285" lon="3.69367">
        <ele>1241.7</ele>
        <time>2022-08-29T09:59:44Z</time>
      </trkpt>
      <trkpt lat="45.9285" lon="3.69367">
        <ele>1241.6</ele>
        <time>2022-08-29T09:59:45Z</time>
      </trkpt>
      <trkpt lat="45.92849" lon="3.69366">
        <ele>1241.5</ele>
        <time>2022-08-29T09:59:46Z</time>
      </trkpt>
      <trkpt lat="45.92848" lon="3.69366">
        <ele>1241.4</ele>
        <time>2022-08-29T09:59:47Z</time>
      </trkpt>
      <trkpt lat="45.92847" lon="3.69367">
        <ele>1241.3</ele>
        <time>2022-08-29T09:59:48Z</time>
      </trkpt>
      <trkpt lat="45.92846" lon="3.69366">
        <ele>1237.1</ele>
        <time>2022-08-29T09:59:49Z</time>
      </trkpt>
      <trkpt lat="45.92844" lon="3.69366">
        <ele>1236.4</ele>
        <time>2022-08-29T09:59:50Z</time>
      </trkpt>
      <trkpt lat="45.92843" lon="3.69367">
        <ele>1236</ele>
        <time>2022-08-29T09:59:51Z</time>
      </trkpt>
      <trkpt lat="45.92843" lon="3.69367">
        <ele>1235.7</ele>
        <time>2022-08-29T09:59:52Z</time>
      </trkpt>
      <trkpt lat="45.9284" lon="3.69367">
        <ele>1234.9</ele>
        <time>2022-08-29T09:59:53Z</time>
      </trkpt>
      <trkpt lat="45.92839" lon="3.69368">
        <ele>1234.5</ele>
        <time>2022-08-29T09:59:54Z</time>
      </trkpt>
      <trkpt lat="45.92838" lon="3.69368">
        <ele>1234.2</ele>
        <time>2022-08-29T09:59:55Z</time>
      </trkpt>
      <trkpt lat="45.92837" lon="3.69368">
        <ele>1233.6</ele>
        <time>2022-08-29T09:59:56Z</time>
      </trkpt>
      <trkpt lat="45.92835" lon="3.69368">
        <ele>1233.1</ele>
        <time>2022-08-29T09:59:57Z</time>
      </trkpt>
      <trkpt lat="45.92833" lon="3.69368">
        <ele>1232.5</ele>
        <time>2022-08-29T09:59:58Z</time>
      </trkpt>
      <trkpt lat="45.92832" lon="3.69368">
        <ele>1232.1</ele>
        <time>2022-08-29T09:59:59Z</time>
      </trkpt>
      <trkpt lat="45.9283" lon="3.69368">
        <ele>1231.5</ele>
        <time>2022-08-29T10:00:00Z</time>
      </trkpt>
      <trkpt lat="45.92828" lon="3.69368">
        <ele>1231.1</ele>
        <time>2022-08-29T10:00:01Z</time>
      </trkpt>
      <trkpt lat="45.92826" lon="3.69368">
        <ele>1230.6</ele>
        <time>2022-08-29T10:00:02Z</time>
      </trkpt>
      <trkpt lat="45.92825" lon="3.69368">
        <ele>1230.2</ele>
        <time>2022-08-29T10:00:03Z</time>
      </trkpt>
      <trkpt lat="45.92823" lon="3.69369">
        <ele>1229.8</ele>
        <time>2022-08-29T10:00:04Z</time>
      </trkpt>
      <trkpt lat="45.92822" lon="3.69369">
        <ele>1229.4</ele>
        <time>2022-08-29T10:00:05Z</time>
      </trkpt>
      <trkpt lat="45.92821" lon="3.69369">
        <ele>1229.1</ele>
        <time>2022-08-29T10:00:06Z</time>
      </trkpt>
      <trkpt lat="45.9282" lon="3.69369">
        <ele>1228.8</ele>
        <time>2022-08-29T10:00:07Z</time>
      </trkpt>
      <trkpt lat="45.92819" lon="3.69369">
        <ele>1228.6</ele>
        <time>2022-08-29T10:00:08Z</time>
      </trkpt>
      <trkpt lat="45.92818" lon="3.69369">
        <ele>1228.3</ele>
        <time>2022-08-29T10:00:09Z</time>
      </trkpt>
      <trkpt lat="45.92817" lon="3.69368">
        <ele>1228.1</ele>
        <time>2022-08-29T10:00:10Z</time>
      </trkpt>
      <trkpt lat="45.92816" lon="3.69368">
        <ele>1227.8</ele>
        <time>2022-08-29T10:00:11Z</time>
      </trkpt>
      <trkpt lat="45.92815" lon="3.69367">
        <ele>1227.5</ele>
        <time>2022-08-29T10:00:12Z</time>
      </trkpt>
      <trkpt lat="45.92814" lon="3.69367">
        <ele>1227.2</ele>
        <time>2022-08-29T10:00:13Z</time>
      </trkpt>
      <trkpt lat="45.92813" lon="3.69366">
        <ele>1226.9</ele>
        <time>2022-08-29T10:00:14Z</time>
      </trkpt>
      <trkpt lat="45.92812" lon="3.69366">
        <ele>1226.6</ele>
        <time>2022-08-29T10:00:15Z</time>
      </trkpt>
      <trkpt lat="45.92811" lon="3.69366">
        <ele>1226.3</ele>
        <time>2022-08-29T10:00:16Z</time>
      </trkpt>
      <trkpt lat="45.9281" lon="3.69365">
        <ele>1225.9</ele>
        <time>2022-08-29T10:00:17Z</time>
      </trkpt>
      <trkpt lat="45.92808" lon="3.69365">
        <ele>1225.3</ele>
        <time>2022-08-29T10:00:18Z</time>
      </trkpt>
      <trkpt lat="45.92807" lon="3.69365">
        <ele>1225.1</ele>
        <time>2022-08-29T10:00:19Z</time>
      </trkpt>
      <trkpt lat="45.92806" lon="3.69365">
        <ele>1224.8</ele>
        <time>2022-08-29T10:00:20Z</time>
      </trkpt>
      <trkpt lat="45.92805" lon="3.69365">
        <ele>1224.5</ele>
        <time>2022-08-29T10:00:21Z</time>
      </trkpt>
      <trkpt lat="45.92804" lon="3.69365">
        <ele>1224.2</ele>
        <time>2022-08-29T10:00:22Z</time>
      </trkpt>
      <trkpt lat="45.92803" lon="3.69366">
        <ele>1223.9</ele>
        <time>2022-08-29T10:00:23Z</time>
      </trkpt>
      <trkpt lat="45.92801" lon="3.69367">
        <ele>1223.3</ele>
        <time>2022-08-29T10:00:24Z</time>
      </trkpt>
      <trkpt lat="45.928" lon="3.69367">
        <ele>1223</ele>
        <time>2022-08-29T10:00:25Z</time>
      </trkpt>
      <trkpt lat="45.92799" lon="3.69368">
        <ele>1222.7</ele>
        <time>2022-08-29T10:00:26Z</time>
      </trkpt>
      <trkpt lat="45.92797" lon="3.69368">
        <ele>1222.3</ele>
        <time>2022-08-29T10:00:27Z</time>
      </trkpt>
      <trkpt lat="45.92796" lon="3.69369">
        <ele>1222</ele>
        <time>2022-08-29T10:00:28Z</time>
      </trkpt>
      <trkpt lat="45.92795" lon="3.6937">
        <ele>1221.5</ele>
        <time>2022-08-29T10:00:29Z</time>
      </trkpt>
      <trkpt lat="45.92793" lon="3.69371">
        <ele>1221.1</ele>
        <time>2022-08-29T10:00:30Z</time>
      </trkpt>
      <trkpt lat="45.9279" lon="3.69372">
        <ele>1220.4</ele>
        <time>2022-08-29T10:00:31Z</time>
      </trkpt>
      <trkpt lat="45.92789" lon="3.69372">
        <ele>1220.2</ele>
        <time>2022-08-29T10:00:32Z</time>
      </trkpt>
      <trkpt lat="45.92785" lon="3.69372">
        <ele>1219.4</ele>
        <time>2022-08-29T10:00:34Z</time>
      </trkpt>
      <trkpt lat="45.92782" lon="3.69372">
        <ele>1218.8</ele>
        <time>2022-08-29T10:00:35Z</time>
      </trkpt>
      <trkpt lat="45.92781" lon="3.69372">
        <ele>1218.7</ele>
        <time>2022-08-29T10:00:36Z</time>
      </trkpt>
      <trkpt lat="45.9278" lon="3.69372">
        <ele>1218.4</ele>
        <time>2022-08-29T10:00:37Z</time>
      </trkpt>
      <trkpt lat="45.92778" lon="3.69372">
        <ele>1218.1</ele>
        <time>2022-08-29T10:00:38Z</time>
      </trkpt>
      <trkpt lat="45.92777" lon="3.69372">
        <ele>1217.8</ele>
        <time>2022-08-29T10:00:39Z</time>
      </trkpt>
      <trkpt lat="45.92775" lon="3.69371">
        <ele>1217.5</ele>
        <time>2022-08-29T10:00:40Z</time>
      </trkpt>
      <trkpt lat="45.92773" lon="3.69371">
        <ele>1217.2</ele>
        <time>2022-08-29T10:00:41Z</time>
      </trkpt>
      <trkpt lat="45.92772" lon="3.69371">
        <ele>1216.9</ele>
        <time>2022-08-29T10:00:42Z</time>
      </trkpt>
      <trkpt lat="45.92769" lon="3.69371">
        <ele>1216.4</ele>
        <time>2022-08-29T10:00:43Z</time>
      </trkpt>
      <trkpt lat="45.92768" lon="3.69371">
        <ele>1216.2</ele>
        <time>2022-08-29T10:00:44Z</time>
      </trkpt>
      <trkpt lat="45.92766" lon="3.69371">
        <ele>1215.9</ele>
        <time>2022-08-29T10:00:45Z</time>
      </trkpt>
      <trkpt lat="45.92765" lon="3.69371">
        <ele>1215.7</ele>
        <time>2022-08-29T10:00:46Z</time>
      </trkpt>
      <trkpt lat="45.92764" lon="3.69371">
        <ele>1215.4</ele>
        <time>2022-08-29T10:00:47Z</time>
      </trkpt>
      <trkpt lat="45.92763" lon="3.69372">
        <ele>1215.3</ele>
        <time>2022-08-29T10:00:48Z</time>
      </trkpt>
      <trkpt lat="45.92762" lon="3.69372">
        <ele>1215.2</ele>
        <time>2022-08-29T10:00:49Z</time>
      </trkpt>
      <trkpt lat="45.92762" lon="3.69373">
        <ele>1215.1</ele>
        <time>2022-08-29T10:00:50Z</time>
      </trkpt>
      <trkpt lat="45.92762" lon="3.69373">
        <ele>1215</ele>
        <time>2022-08-29T10:00:51Z</time>
      </trkpt>
      <trkpt lat="45.92761" lon="3.69373">
        <ele>1214.8</ele>
        <time>2022-08-29T10:00:52Z</time>
      </trkpt>
      <trkpt lat="45.9276" lon="3.69373">
        <ele>1214.7</ele>
        <time>2022-08-29T10:00:53Z</time>
      </trkpt>
      <trkpt lat="45.92759" lon="3.69373">
        <ele>1214.5</ele>
        <time>2022-08-29T10:00:54Z</time>
      </trkpt>
      <trkpt lat="45.92759" lon="3.69373">
        <ele>1214.4</ele>
        <time>2022-08-29T10:00:55Z</time>
      </trkpt>
      <trkpt lat="45.92758" lon="3.69373">
        <ele>1214.2</ele>
        <time>2022-08-29T10:00:56Z</time>
      </trkpt>
      <trkpt lat="45.92757" lon="3.69373">
        <ele>1214</ele>
        <time>2022-08-29T10:00:57Z</time>
      </trkpt>
      <trkpt lat="45.92755" lon="3.69373">
        <ele>1213.8</ele>
        <time>2022-08-29T10:00:58Z</time>
      </trkpt>
      <trkpt lat="45.92754" lon="3.69373">
        <ele>1213.6</ele>
        <time>2022-08-29T10:00:59Z</time>
      </trkpt>
      <trkpt lat="45.92753" lon="3.69373">
        <ele>1213.4</ele>
        <time>2022-08-29T10:01:00Z</time>
      </trkpt>
      <trkpt lat="45.92752" lon="3.69372">
        <ele>1213.2</ele>
        <time>2022-08-29T10:01:01Z</time>
      </trkpt>
      <trkpt lat="45.92752" lon="3.69372">
        <ele>1213</ele>
        <time>2022-08-29T10:01:02Z</time>
      </trkpt>
      <trkpt lat="45.92751" lon="3.69372">
        <ele>1212.9</ele>
        <time>2022-08-29T10:01:03Z</time>
      </trkpt>
      <trkpt lat="45.9275" lon="3.69372">
        <ele>1212.8</ele>
        <time>2022-08-29T10:01:04Z</time>
      </trkpt>
      <trkpt lat="45.92749" lon="3.69371">
        <ele>1212.6</ele>
        <time>2022-08-29T10:01:05Z</time>
      </trkpt>
      <trkpt lat="45.92748" lon="3.69371">
        <ele>1212.4</ele>
        <time>2022-08-29T10:01:06Z</time>
      </trkpt>
      <trkpt lat="45.92747" lon="3.69371">
        <ele>1212.2</ele>
        <time>2022-08-29T10:01:07Z</time>
      </trkpt>
      <trkpt lat="45.92745" lon="3.6937">
        <ele>1212</ele>
        <time>2022-08-29T10:01:08Z</time>
      </trkpt>
      <trkpt lat="45.92744" lon="3.69369">
        <ele>1211.7</ele>
        <time>2022-08-29T10:01:09Z</time>
      </trkpt>
      <trkpt lat="45.92743" lon="3.69369">
        <ele>1211.6</ele>
        <time>2022-08-29T10:01:10Z</time>
      </trkpt>
      <trkpt lat="45.92742" lon="3.69368">
        <ele>1211.4</ele>
        <time>2022-08-29T10:01:11Z</time>
      </trkpt>
      <trkpt lat="45.92741" lon="3.69368">
        <ele>1211.2</ele>
        <time>2022-08-29T10:01:12Z</time>
      </trkpt>
      <trkpt lat="45.92739" lon="3.69367">
        <ele>1211</ele>
        <time>2022-08-29T10:01:13Z</time>
      </trkpt>
      <trkpt lat="45.92735" lon="3.69366">
        <ele>1210.5</ele>
        <time>2022-08-29T10:01:14Z</time>
      </trkpt>
      <trkpt lat="45.92732" lon="3.69366">
        <ele>1210</ele>
        <time>2022-08-29T10:01:15Z</time>
      </trkpt>
      <trkpt lat="45.92731" lon="3.69366">
        <ele>1209.8</ele>
        <time>2022-08-29T10:01:16Z</time>
      </trkpt>
      <trkpt lat="45.92728" lon="3.69365">
        <ele>1209.3</ele>
        <time>2022-08-29T10:01:17Z</time>
      </trkpt>
      <trkpt lat="45.92727" lon="3.69365">
        <ele>1209.2</ele>
        <time>2022-08-29T10:01:18Z</time>
      </trkpt>
      <trkpt lat="45.92725" lon="3.69365">
        <ele>1209</ele>
        <time>2022-08-29T10:01:19Z</time>
      </trkpt>
      <trkpt lat="45.92724" lon="3.69364">
        <ele>1208.7</ele>
        <time>2022-08-29T10:01:20Z</time>
      </trkpt>
      <trkpt lat="45.92722" lon="3.69363">
        <ele>1208.5</ele>
        <time>2022-08-29T10:01:21Z</time>
      </trkpt>
      <trkpt lat="45.92721" lon="3.69363">
        <ele>1208.2</ele>
        <time>2022-08-29T10:01:22Z</time>
      </trkpt>
      <trkpt lat="45.92719" lon="3.69363">
        <ele>1207.9</ele>
        <time>2022-08-29T10:01:23Z</time>
      </trkpt>
      <trkpt lat="45.92718" lon="3.69363">
        <ele>1207.8</ele>
        <time>2022-08-29T10:01:24Z</time>
      </trkpt>
      <trkpt lat="45.92717" lon="3.69363">
        <ele>1207.6</ele>
        <time>2022-08-29T10:01:25Z</time>
      </trkpt>
      <trkpt lat="45.92715" lon="3.69363">
        <ele>1207.4</ele>
        <time>2022-08-29T10:01:26Z</time>
      </trkpt>
      <trkpt lat="45.92713" lon="3.69364">
        <ele>1207.1</ele>
        <time>2022-08-29T10:01:27Z</time>
      </trkpt>
      <trkpt lat="45.92712" lon="3.69364">
        <ele>1206.8</ele>
        <time>2022-08-29T10:01:28Z</time>
      </trkpt>
      <trkpt lat="45.9271" lon="3.69363">
        <ele>1206.6</ele>
        <time>2022-08-29T10:01:29Z</time>
      </trkpt>
      <trkpt lat="45.92709" lon="3.69358">
        <ele>1206.1</ele>
        <time>2022-08-29T10:01:30Z</time>
      </trkpt>
      <trkpt lat="45.92709" lon="3.69357">
        <ele>1206</ele>
        <time>2022-08-29T10:01:31Z</time>
      </trkpt>
      <trkpt lat="45.92709" lon="3.69354">
        <ele>1205.7</ele>
        <time>2022-08-29T10:01:32Z</time>
      </trkpt>
      <trkpt lat="45.92709" lon="3.69352">
        <ele>1205.5</ele>
        <time>2022-08-29T10:01:33Z</time>
      </trkpt>
      <trkpt lat="45.92709" lon="3.69349">
        <ele>1205.2</ele>
        <time>2022-08-29T10:01:34Z</time>
      </trkpt>
      <trkpt lat="45.92709" lon="3.69347">
        <ele>1205.1</ele>
        <time>2022-08-29T10:01:35Z</time>
      </trkpt>
      <trkpt lat="45.92709" lon="3.69346">
        <ele>1205</ele>
        <time>2022-08-29T10:01:36Z</time>
      </trkpt>
      <trkpt lat="45.92708" lon="3.69344">
        <ele>1204.8</ele>
        <time>2022-08-29T10:01:37Z</time>
      </trkpt>
      <trkpt lat="45.92708" lon="3.69342">
        <ele>1204.7</ele>
        <time>2022-08-29T10:01:38Z</time>
      </trkpt>
      <trkpt lat="45.92708" lon="3.6934">
        <ele>1204.6</ele>
        <time>2022-08-29T10:01:39Z</time>
      </trkpt>
      <trkpt lat="45.92708" lon="3.69337">
        <ele>1204.6</ele>
        <time>2022-08-29T10:01:40Z</time>
      </trkpt>
      <trkpt lat="45.92707" lon="3.69335">
        <ele>1204.5</ele>
        <time>2022-08-29T10:01:41Z</time>
      </trkpt>
      <trkpt lat="45.92707" lon="3.69333">
        <ele>1204.4</ele>
        <time>2022-08-29T10:01:42Z</time>
      </trkpt>
      <trkpt lat="45.92707" lon="3.6933">
        <ele>1204.3</ele>
        <time>2022-08-29T10:01:43Z</time>
      </trkpt>
      <trkpt lat="45.92707" lon="3.69329">
        <ele>1204.2</ele>
        <time>2022-08-29T10:01:44Z</time>
      </trkpt>
      <trkpt lat="45.92708" lon="3.69327">
        <ele>1204.2</ele>
        <time>2022-08-29T10:01:45Z</time>
      </trkpt>
      <trkpt lat="45.92708" lon="3.69326">
        <ele>1204.1</ele>
        <time>2022-08-29T10:01:46Z</time>
      </trkpt>
      <trkpt lat="45.92708" lon="3.69325">
        <ele>1204.1</ele>
        <time>2022-08-29T10:01:47Z</time>
      </trkpt>
      <trkpt lat="45.92708" lon="3.69323">
        <ele>1204</ele>
        <time>2022-08-29T10:01:48Z</time>
      </trkpt>
      <trkpt lat="45.92708" lon="3.69322">
        <ele>1204</ele>
        <time>2022-08-29T10:01:49Z</time>
      </trkpt>
      <trkpt lat="45.92708" lon="3.6932">
        <ele>1203.9</ele>
        <time>2022-08-29T10:01:50Z</time>
      </trkpt>
      <trkpt lat="45.92708" lon="3.69319">
        <ele>1203.8</ele>
        <time>2022-08-29T10:01:51Z</time>
      </trkpt>
      <trkpt lat="45.92708" lon="3.69318">
        <ele>1203.8</ele>
        <time>2022-08-29T10:01:52Z</time>
      </trkpt>
      <trkpt lat="45.92707" lon="3.69317">
        <ele>1203.7</ele>
        <time>2022-08-29T10:01:53Z</time>
      </trkpt>
      <trkpt lat="45.92707" lon="3.69315">
        <ele>1203.7</ele>
        <time>2022-08-29T10:01:54Z</time>
      </trkpt>
      <trkpt lat="45.92707" lon="3.69314">
        <ele>1203.6</ele>
        <time>2022-08-29T10:01:55Z</time>
      </trkpt>
      <trkpt lat="45.92707" lon="3.69313">
        <ele>1203.6</ele>
        <time>2022-08-29T10:01:56Z</time>
      </trkpt>
      <trkpt lat="45.92708" lon="3.69312">
        <ele>1203.5</ele>
        <time>2022-08-29T10:01:57Z</time>
      </trkpt>
      <trkpt lat="45.92708" lon="3.6931">
        <ele>1203.5</ele>
        <time>2022-08-29T10:01:58Z</time>
      </trkpt>
      <trkpt lat="45.92708" lon="3.69309">
        <ele>1203.4</ele>
        <time>2022-08-29T10:01:59Z</time>
      </trkpt>
      <trkpt lat="45.92708" lon="3.69307">
        <ele>1203.3</ele>
        <time>2022-08-29T10:02:00Z</time>
      </trkpt>
      <trkpt lat="45.92708" lon="3.69305">
        <ele>1203.3</ele>
        <time>2022-08-29T10:02:01Z</time>
      </trkpt>
      <trkpt lat="45.92708" lon="3.69304">
        <ele>1203.2</ele>
        <time>2022-08-29T10:02:02Z</time>
      </trkpt>
      <trkpt lat="45.92708" lon="3.69302">
        <ele>1203.1</ele>
        <time>2022-08-29T10:02:03Z</time>
      </trkpt>
      <trkpt lat="45.92708" lon="3.69301">
        <ele>1203.1</ele>
        <time>2022-08-29T10:02:04Z</time>
      </trkpt>
      <trkpt lat="45.92709" lon="3.69298">
        <ele>1202.9</ele>
        <time>2022-08-29T10:02:05Z</time>
      </trkpt>
      <trkpt lat="45.92709" lon="3.69297">
        <ele>1202.9</ele>
        <time>2022-08-29T10:02:06Z</time>
      </trkpt>
      <trkpt lat="45.92709" lon="3.69295">
        <ele>1202.8</ele>
        <time>2022-08-29T10:02:07Z</time>
      </trkpt>
      <trkpt lat="45.9271" lon="3.69294">
        <ele>1202.8</ele>
        <time>2022-08-29T10:02:08Z</time>
      </trkpt>
      <trkpt lat="45.9271" lon="3.69292">
        <ele>1202.7</ele>
        <time>2022-08-29T10:02:09Z</time>
      </trkpt>
      <trkpt lat="45.9271" lon="3.69291">
        <ele>1202.6</ele>
        <time>2022-08-29T10:02:10Z</time>
      </trkpt>
      <trkpt lat="45.9271" lon="3.6929">
        <ele>1202.6</ele>
        <time>2022-08-29T10:02:11Z</time>
      </trkpt>
      <trkpt lat="45.9271" lon="3.69288">
        <ele>1202.5</ele>
        <time>2022-08-29T10:02:12Z</time>
      </trkpt>
      <trkpt lat="45.9271" lon="3.69287">
        <ele>1202.5</ele>
        <time>2022-08-29T10:02:13Z</time>
      </trkpt>
      <trkpt lat="45.9271" lon="3.69285">
        <ele>1202.4</ele>
        <time>2022-08-29T10:02:14Z</time>
      </trkpt>
      <trkpt lat="45.9271" lon="3.69284">
        <ele>1202.4</ele>
        <time>2022-08-29T10:02:15Z</time>
      </trkpt>
      <trkpt lat="45.9271" lon="3.69282">
        <ele>1202.3</ele>
        <time>2022-08-29T10:02:16Z</time>
      </trkpt>
      <trkpt lat="45.9271" lon="3.69281">
        <ele>1202.2</ele>
        <time>2022-08-29T10:02:17Z</time>
      </trkpt>
      <trkpt lat="45.9271" lon="3.6928">
        <ele>1202.2</ele>
        <time>2022-08-29T10:02:18Z</time>
      </trkpt>
      <trkpt lat="45.92711" lon="3.69278">
        <ele>1202.1</ele>
        <time>2022-08-29T10:02:19Z</time>
      </trkpt>
      <trkpt lat="45.92711" lon="3.69277">
        <ele>1202.1</ele>
        <time>2022-08-29T10:02:20Z</time>
      </trkpt>
      <trkpt lat="45.92711" lon="3.69276">
        <ele>1202</ele>
        <time>2022-08-29T10:02:21Z</time>
      </trkpt>
      <trkpt lat="45.92711" lon="3.69274">
        <ele>1201.9</ele>
        <time>2022-08-29T10:02:22Z</time>
      </trkpt>
      <trkpt lat="45.92711" lon="3.69273">
        <ele>1201.9</ele>
        <time>2022-08-29T10:02:23Z</time>
      </trkpt>
      <trkpt lat="45.9271" lon="3.69272">
        <ele>1201.8</ele>
        <time>2022-08-29T10:02:24Z</time>
      </trkpt>
      <trkpt lat="45.9271" lon="3.69271">
        <ele>1201.8</ele>
        <time>2022-08-29T10:02:25Z</time>
      </trkpt>
      <trkpt lat="45.9271" lon="3.6927">
        <ele>1201.8</ele>
        <time>2022-08-29T10:02:26Z</time>
      </trkpt>
      <trkpt lat="45.92709" lon="3.69269">
        <ele>1201.7</ele>
        <time>2022-08-29T10:02:27Z</time>
      </trkpt>
      <trkpt lat="45.92709" lon="3.69267">
        <ele>1201.6</ele>
        <time>2022-08-29T10:02:28Z</time>
      </trkpt>
      <trkpt lat="45.92709" lon="3.69266">
        <ele>1201.6</ele>
        <time>2022-08-29T10:02:29Z</time>
      </trkpt>
      <trkpt lat="45.92709" lon="3.69264">
        <ele>1201.5</ele>
        <time>2022-08-29T10:02:30Z</time>
      </trkpt>
      <trkpt lat="45.92708" lon="3.6926">
        <ele>1201.3</ele>
        <time>2022-08-29T10:02:36Z</time>
      </trkpt>
      <trkpt lat="45.92706" lon="3.69253">
        <ele>1200.9</ele>
        <time>2022-08-29T10:02:38Z</time>
      </trkpt>
      <trkpt lat="45.92705" lon="3.6925">
        <ele>1200.8</ele>
        <time>2022-08-29T10:02:39Z</time>
      </trkpt>
      <trkpt lat="45.92704" lon="3.69248">
        <ele>1200.7</ele>
        <time>2022-08-29T10:02:40Z</time>
      </trkpt>
      <trkpt lat="45.92704" lon="3.69247">
        <ele>1200.6</ele>
        <time>2022-08-29T10:02:41Z</time>
      </trkpt>
      <trkpt lat="45.92704" lon="3.69245">
        <ele>1200.5</ele>
        <time>2022-08-29T10:02:42Z</time>
      </trkpt>
      <trkpt lat="45.92703" lon="3.69244">
        <ele>1200.4</ele>
        <time>2022-08-29T10:02:43Z</time>
      </trkpt>
      <trkpt lat="45.92703" lon="3.69244">
        <ele>1200.4</ele>
        <time>2022-08-29T10:02:44Z</time>
      </trkpt>
      <trkpt lat="45.92703" lon="3.69243">
        <ele>1200.3</ele>
        <time>2022-08-29T10:02:45Z</time>
      </trkpt>
      <trkpt lat="45.92702" lon="3.69242">
        <ele>1200.3</ele>
        <time>2022-08-29T10:02:46Z</time>
      </trkpt>
      <trkpt lat="45.92702" lon="3.69242">
        <ele>1200.2</ele>
        <time>2022-08-29T10:02:47Z</time>
      </trkpt>
      <trkpt lat="45.92702" lon="3.69241">
        <ele>1200.2</ele>
        <time>2022-08-29T10:02:48Z</time>
      </trkpt>
      <trkpt lat="45.92702" lon="3.69239">
        <ele>1200.1</ele>
        <time>2022-08-29T10:02:49Z</time>
      </trkpt>
      <trkpt lat="45.92702" lon="3.69238">
        <ele>1200</ele>
        <time>2022-08-29T10:02:50Z</time>
      </trkpt>
      <trkpt lat="45.92702" lon="3.69236">
        <ele>1199.9</ele>
        <time>2022-08-29T10:02:51Z</time>
      </trkpt>
      <trkpt lat="45.92702" lon="3.69234">
        <ele>1199.8</ele>
        <time>2022-08-29T10:02:52Z</time>
      </trkpt>
      <trkpt lat="45.92702" lon="3.69232">
        <ele>1199.7</ele>
        <time>2022-08-29T10:02:53Z</time>
      </trkpt>
      <trkpt lat="45.92702" lon="3.69231">
        <ele>1199.6</ele>
        <time>2022-08-29T10:02:54Z</time>
      </trkpt>
      <trkpt lat="45.92702" lon="3.6923">
        <ele>1199.5</ele>
        <time>2022-08-29T10:02:55Z</time>
      </trkpt>
      <trkpt lat="45.92702" lon="3.69229">
        <ele>1199.5</ele>
        <time>2022-08-29T10:02:56Z</time>
      </trkpt>
      <trkpt lat="45.92701" lon="3.69227">
        <ele>1199.4</ele>
        <time>2022-08-29T10:02:57Z</time>
      </trkpt>
      <trkpt lat="45.92701" lon="3.69226">
        <ele>1199.3</ele>
        <time>2022-08-29T10:02:58Z</time>
      </trkpt>
      <trkpt lat="45.92701" lon="3.69226">
        <ele>1199.3</ele>
        <time>2022-08-29T10:02:59Z</time>
      </trkpt>
      <trkpt lat="45.92702" lon="3.69225">
        <ele>1199.3</ele>
        <time>2022-08-29T10:03:00Z</time>
      </trkpt>
      <trkpt lat="45.92702" lon="3.69225">
        <ele>1199.2</ele>
        <time>2022-08-29T10:03:01Z</time>
      </trkpt>
      <trkpt lat="45.92702" lon="3.69225">
        <ele>1199.2</ele>
        <time>2022-08-29T10:03:02Z</time>
      </trkpt>
      <trkpt lat="45.92702" lon="3.69225">
        <ele>1199.2</ele>
        <time>2022-08-29T10:03:03Z</time>
      </trkpt>
      <trkpt lat="45.92702" lon="3.69225">
        <ele>1199.2</ele>
        <time>2022-08-29T10:03:04Z</time>
      </trkpt>
      <trkpt lat="45.92702" lon="3.69225">
        <ele>1199.2</ele>
        <time>2022-08-29T10:03:05Z</time>
      </trkpt>
      <trkpt lat="45.92702" lon="3.69225">
        <ele>1199.2</ele>
        <time>2022-08-29T10:03:06Z</time>
      </trkpt>
      <trkpt lat="45.92702" lon="3.69225">
        <ele>1199.2</ele>
        <time>2022-08-29T10:03:07Z</time>
      </trkpt>
      <trkpt lat="45.92702" lon="3.69225">
        <ele>1199.2</ele>
        <time>2022-08-29T10:03:08Z</time>
      </trkpt>
      <trkpt lat="45.92702" lon="3.69225">
        <ele>1199.2</ele>
        <time>2022-08-29T10:03:09Z</time>
      </trkpt>
      <trkpt lat="45.92702" lon="3.69225">
        <ele>1199.2</ele>
        <time>2022-08-29T10:03:10Z</time>
      </trkpt>
      <trkpt lat="45.92702" lon="3.69225">
        <ele>1199.2</ele>
        <time>2022-08-29T10:03:11Z</time>
      </trkpt>
      <trkpt lat="45.92702" lon="3.69226">
        <ele>1199.1</ele>
        <time>2022-08-29T10:03:12Z</time>
      </trkpt>
      <trkpt lat="45.92702" lon="3.69226">
        <ele>1199.1</ele>
        <time>2022-08-29T10:03:13Z</time>
      </trkpt>
      <trkpt lat="45.92702" lon="3.69226">
        <ele>1199.1</ele>
        <time>2022-08-29T10:03:14Z</time>
      </trkpt>
      <trkpt lat="45.92702" lon="3.69226">
        <ele>1199.1</ele>
        <time>2022-08-29T10:03:15Z</time>
      </trkpt>
      <trkpt lat="45.92702" lon="3.69226">
        <ele>1199.1</ele>
        <time>2022-08-29T10:03:16Z</time>
      </trkpt>
      <trkpt lat="45.92702" lon="3.69227">
        <ele>1199.1</ele>
        <time>2022-08-29T10:03:17Z</time>
      </trkpt>
      <trkpt lat="45.92702" lon="3.69227">
        <ele>1199.1</ele>
        <time>2022-08-29T10:03:18Z</time>
      </trkpt>
      <trkpt lat="45.92702" lon="3.69227">
        <ele>1199.1</ele>
        <time>2022-08-29T10:03:19Z</time>
      </trkpt>
      <trkpt lat="45.92702" lon="3.69227">
        <ele>1199</ele>
        <time>2022-08-29T10:03:20Z</time>
      </trkpt>
      <trkpt lat="45.92702" lon="3.69227">
        <ele>1199</ele>
        <time>2022-08-29T10:03:21Z</time>
      </trkpt>
      <trkpt lat="45.92702" lon="3.69227">
        <ele>1199</ele>
        <time>2022-08-29T10:03:22Z</time>
      </trkpt>
      <trkpt lat="45.92702" lon="3.69227">
        <ele>1199</ele>
        <time>2022-08-29T10:03:23Z</time>
      </trkpt>
      <trkpt lat="45.92702" lon="3.69227">
        <ele>1199</ele>
        <time>2022-08-29T10:03:24Z</time>
      </trkpt>
      <trkpt lat="45.92702" lon="3.69227">
        <ele>1199</ele>
        <time>2022-08-29T10:03:25Z</time>
      </trkpt>
      <trkpt lat="45.92702" lon="3.69227">
        <ele>1199</ele>
        <time>2022-08-29T10:03:26Z</time>
      </trkpt>
      <trkpt lat="45.92702" lon="3.69227">
        <ele>1199</ele>
        <time>2022-08-29T10:03:27Z</time>
      </trkpt>
      <trkpt lat="45.92702" lon="3.69227">
        <ele>1199</ele>
        <time>2022-08-29T10:03:28Z</time>
      </trkpt>
      <trkpt lat="45.92702" lon="3.69227">
        <ele>1199</ele>
        <time>2022-08-29T10:03:29Z</time>
      </trkpt>
      <trkpt lat="45.92702" lon="3.69227">
        <ele>1199</ele>
        <time>2022-08-29T10:03:30Z</time>
      </trkpt>
      <trkpt lat="45.92702" lon="3.69227">
        <ele>1199</ele>
        <time>2022-08-29T10:03:31Z</time>
      </trkpt>
      <trkpt lat="45.92704" lon="3.69228">
        <ele>1198.9</ele>
        <time>2022-08-29T10:03:32Z</time>
      </trkpt>
      <trkpt lat="45.92704" lon="3.6923">
        <ele>1198.8</ele>
        <time>2022-08-29T10:03:33Z</time>
      </trkpt>
      <trkpt lat="45.92704" lon="3.69231">
        <ele>1198.7</ele>
        <time>2022-08-29T10:03:34Z</time>
      </trkpt>
      <trkpt lat="45.92705" lon="3.69233">
        <ele>1198.6</ele>
        <time>2022-08-29T10:03:35Z</time>
      </trkpt>
      <trkpt lat="45.92705" lon="3.69234">
        <ele>1198.5</ele>
        <time>2022-08-29T10:03:36Z</time>
      </trkpt>
      <trkpt lat="45.92705" lon="3.69237">
        <ele>1198.3</ele>
        <time>2022-08-29T10:03:37Z</time>
      </trkpt>
      <trkpt lat="45.92705" lon="3.69238">
        <ele>1198.4</ele>
        <time>2022-08-29T10:03:38Z</time>
      </trkpt>
      <trkpt lat="45.92706" lon="3.6924">
        <ele>1198.5</ele>
        <time>2022-08-29T10:03:39Z</time>
      </trkpt>
      <trkpt lat="45.92706" lon="3.69244">
        <ele>1198.9</ele>
        <time>2022-08-29T10:03:40Z</time>
      </trkpt>
      <trkpt lat="45.92706" lon="3.69245">
        <ele>1199</ele>
        <time>2022-08-29T10:03:41Z</time>
      </trkpt>
      <trkpt lat="45.92706" lon="3.69247">
        <ele>1199.1</ele>
        <time>2022-08-29T10:03:42Z</time>
      </trkpt>
      <trkpt lat="45.92706" lon="3.69249">
        <ele>1199.3</ele>
        <time>2022-08-29T10:03:43Z</time>
      </trkpt>
      <trkpt lat="45.92707" lon="3.69251">
        <ele>1199.4</ele>
        <time>2022-08-29T10:03:44Z</time>
      </trkpt>
      <trkpt lat="45.92707" lon="3.69253">
        <ele>1199.6</ele>
        <time>2022-08-29T10:03:45Z</time>
      </trkpt>
      <trkpt lat="45.92707" lon="3.69255">
        <ele>1199.8</ele>
        <time>2022-08-29T10:03:46Z</time>
      </trkpt>
      <trkpt lat="45.92708" lon="3.69258">
        <ele>1199.9</ele>
        <time>2022-08-29T10:03:47Z</time>
      </trkpt>
      <trkpt lat="45.92708" lon="3.69259">
        <ele>1200.1</ele>
        <time>2022-08-29T10:03:48Z</time>
      </trkpt>
      <trkpt lat="45.92708" lon="3.69261">
        <ele>1200.2</ele>
        <time>2022-08-29T10:03:49Z</time>
      </trkpt>
      <trkpt lat="45.92709" lon="3.69262">
        <ele>1200.3</ele>
        <time>2022-08-29T10:03:50Z</time>
      </trkpt>
      <trkpt lat="45.92709" lon="3.69264">
        <ele>1200.5</ele>
        <time>2022-08-29T10:03:51Z</time>
      </trkpt>
      <trkpt lat="45.92709" lon="3.69266">
        <ele>1200.6</ele>
        <time>2022-08-29T10:03:52Z</time>
      </trkpt>
      <trkpt lat="45.92709" lon="3.6927">
        <ele>1200.8</ele>
        <time>2022-08-29T10:03:53Z</time>
      </trkpt>
      <trkpt lat="45.92709" lon="3.69271">
        <ele>1200.9</ele>
        <time>2022-08-29T10:03:54Z</time>
      </trkpt>
      <trkpt lat="45.92709" lon="3.69272">
        <ele>1201</ele>
        <time>2022-08-29T10:03:55Z</time>
      </trkpt>
      <trkpt lat="45.92709" lon="3.69275">
        <ele>1201.2</ele>
        <time>2022-08-29T10:03:56Z</time>
      </trkpt>
      <trkpt lat="45.92709" lon="3.69276">
        <ele>1201.2</ele>
        <time>2022-08-29T10:03:57Z</time>
      </trkpt>
      <trkpt lat="45.92709" lon="3.69277">
        <ele>1201.3</ele>
        <time>2022-08-29T10:03:58Z</time>
      </trkpt>
      <trkpt lat="45.9271" lon="3.69279">
        <ele>1201.4</ele>
        <time>2022-08-29T10:03:59Z</time>
      </trkpt>
      <trkpt lat="45.9271" lon="3.69281">
        <ele>1201.5</ele>
        <time>2022-08-29T10:04:00Z</time>
      </trkpt>
      <trkpt lat="45.9271" lon="3.69282">
        <ele>1201.6</ele>
        <time>2022-08-29T10:04:01Z</time>
      </trkpt>
      <trkpt lat="45.9271" lon="3.69284">
        <ele>1201.7</ele>
        <time>2022-08-29T10:04:02Z</time>
      </trkpt>
      <trkpt lat="45.92711" lon="3.69286">
        <ele>1201.8</ele>
        <time>2022-08-29T10:04:03Z</time>
      </trkpt>
      <trkpt lat="45.92711" lon="3.69288">
        <ele>1201.9</ele>
        <time>2022-08-29T10:04:04Z</time>
      </trkpt>
      <trkpt lat="45.92711" lon="3.69291">
        <ele>1202.1</ele>
        <time>2022-08-29T10:04:05Z</time>
      </trkpt>
      <trkpt lat="45.92711" lon="3.69293">
        <ele>1202.2</ele>
        <time>2022-08-29T10:04:06Z</time>
      </trkpt>
      <trkpt lat="45.92711" lon="3.69296">
        <ele>1202.3</ele>
        <time>2022-08-29T10:04:07Z</time>
      </trkpt>
      <trkpt lat="45.92711" lon="3.69298">
        <ele>1202.4</ele>
        <time>2022-08-29T10:04:08Z</time>
      </trkpt>
      <trkpt lat="45.92711" lon="3.693">
        <ele>1202.6</ele>
        <time>2022-08-29T10:04:09Z</time>
      </trkpt>
      <trkpt lat="45.92711" lon="3.69303">
        <ele>1202.7</ele>
        <time>2022-08-29T10:04:10Z</time>
      </trkpt>
      <trkpt lat="45.9271" lon="3.69305">
        <ele>1202.8</ele>
        <time>2022-08-29T10:04:11Z</time>
      </trkpt>
      <trkpt lat="45.9271" lon="3.69308">
        <ele>1203</ele>
        <time>2022-08-29T10:04:12Z</time>
      </trkpt>
      <trkpt lat="45.9271" lon="3.6931">
        <ele>1203.1</ele>
        <time>2022-08-29T10:04:13Z</time>
      </trkpt>
      <trkpt lat="45.9271" lon="3.69312">
        <ele>1203.2</ele>
        <time>2022-08-29T10:04:14Z</time>
      </trkpt>
      <trkpt lat="45.9271" lon="3.69314">
        <ele>1203.3</ele>
        <time>2022-08-29T10:04:15Z</time>
      </trkpt>
      <trkpt lat="45.9271" lon="3.69316">
        <ele>1203.4</ele>
        <time>2022-08-29T10:04:16Z</time>
      </trkpt>
      <trkpt lat="45.9271" lon="3.69317">
        <ele>1203.5</ele>
        <time>2022-08-29T10:04:17Z</time>
      </trkpt>
      <trkpt lat="45.9271" lon="3.69319">
        <ele>1203.6</ele>
        <time>2022-08-29T10:04:18Z</time>
      </trkpt>
      <trkpt lat="45.9271" lon="3.69321">
        <ele>1203.7</ele>
        <time>2022-08-29T10:04:19Z</time>
      </trkpt>
      <trkpt lat="45.9271" lon="3.69322">
        <ele>1203.7</ele>
        <time>2022-08-29T10:04:20Z</time>
      </trkpt>
      <trkpt lat="45.92709" lon="3.69324">
        <ele>1203.8</ele>
        <time>2022-08-29T10:04:21Z</time>
      </trkpt>
      <trkpt lat="45.92709" lon="3.69327">
        <ele>1204</ele>
        <time>2022-08-29T10:04:22Z</time>
      </trkpt>
      <trkpt lat="45.92709" lon="3.69328">
        <ele>1204.1</ele>
        <time>2022-08-29T10:04:23Z</time>
      </trkpt>
      <trkpt lat="45.92709" lon="3.69329">
        <ele>1204.1</ele>
        <time>2022-08-29T10:04:24Z</time>
      </trkpt>
      <trkpt lat="45.92709" lon="3.69331">
        <ele>1204.2</ele>
        <time>2022-08-29T10:04:25Z</time>
      </trkpt>
      <trkpt lat="45.92709" lon="3.69333">
        <ele>1204.3</ele>
        <time>2022-08-29T10:04:26Z</time>
      </trkpt>
      <trkpt lat="45.92709" lon="3.69335">
        <ele>1204.4</ele>
        <time>2022-08-29T10:04:27Z</time>
      </trkpt>
      <trkpt lat="45.92709" lon="3.69337">
        <ele>1204.5</ele>
        <time>2022-08-29T10:04:28Z</time>
      </trkpt>
      <trkpt lat="45.92709" lon="3.69339">
        <ele>1204.6</ele>
        <time>2022-08-29T10:04:29Z</time>
      </trkpt>
      <trkpt lat="45.92709" lon="3.69341">
        <ele>1204.7</ele>
        <time>2022-08-29T10:04:30Z</time>
      </trkpt>
      <trkpt lat="45.92709" lon="3.69343">
        <ele>1204.8</ele>
        <time>2022-08-29T10:04:31Z</time>
      </trkpt>
      <trkpt lat="45.92709" lon="3.69345">
        <ele>1205</ele>
        <time>2022-08-29T10:04:32Z</time>
      </trkpt>
      <trkpt lat="45.9271" lon="3.69347">
        <ele>1205.1</ele>
        <time>2022-08-29T10:04:33Z</time>
      </trkpt>
      <trkpt lat="45.9271" lon="3.69349">
        <ele>1205.3</ele>
        <time>2022-08-29T10:04:34Z</time>
      </trkpt>
      <trkpt lat="45.9271" lon="3.69351">
        <ele>1205.4</ele>
        <time>2022-08-29T10:04:35Z</time>
      </trkpt>
      <trkpt lat="45.92711" lon="3.69353">
        <ele>1205.6</ele>
        <time>2022-08-29T10:04:36Z</time>
      </trkpt>
      <trkpt lat="45.92711" lon="3.69355">
        <ele>1205.7</ele>
        <time>2022-08-29T10:04:37Z</time>
      </trkpt>
      <trkpt lat="45.92711" lon="3.69358">
        <ele>1205.9</ele>
        <time>2022-08-29T10:04:38Z</time>
      </trkpt>
      <trkpt lat="45.92711" lon="3.69359">
        <ele>1206.1</ele>
        <time>2022-08-29T10:04:39Z</time>
      </trkpt>
      <trkpt lat="45.92712" lon="3.69362">
        <ele>1206.2</ele>
        <time>2022-08-29T10:04:40Z</time>
      </trkpt>
      <trkpt lat="45.92712" lon="3.69364">
        <ele>1206.4</ele>
        <time>2022-08-29T10:04:41Z</time>
      </trkpt>
      <trkpt lat="45.92712" lon="3.69366">
        <ele>1206.5</ele>
        <time>2022-08-29T10:04:42Z</time>
      </trkpt>
      <trkpt lat="45.92712" lon="3.69367">
        <ele>1206.6</ele>
        <time>2022-08-29T10:04:43Z</time>
      </trkpt>
      <trkpt lat="45.92712" lon="3.69369">
        <ele>1206.7</ele>
        <time>2022-08-29T10:04:44Z</time>
      </trkpt>
      <trkpt lat="45.92712" lon="3.69371">
        <ele>1206.9</ele>
        <time>2022-08-29T10:04:45Z</time>
      </trkpt>
      <trkpt lat="45.92712" lon="3.69373">
        <ele>1207.1</ele>
        <time>2022-08-29T10:04:46Z</time>
      </trkpt>
      <trkpt lat="45.92713" lon="3.69375">
        <ele>1207.2</ele>
        <time>2022-08-29T10:04:47Z</time>
      </trkpt>
      <trkpt lat="45.92713" lon="3.69377">
        <ele>1207.4</ele>
        <time>2022-08-29T10:04:48Z</time>
      </trkpt>
      <trkpt lat="45.92712" lon="3.6938">
        <ele>1207.6</ele>
        <time>2022-08-29T10:04:49Z</time>
      </trkpt>
      <trkpt lat="45.92712" lon="3.69382">
        <ele>1207.7</ele>
        <time>2022-08-29T10:04:50Z</time>
      </trkpt>
      <trkpt lat="45.92711" lon="3.69385">
        <ele>1207.9</ele>
        <time>2022-08-29T10:04:51Z</time>
      </trkpt>
      <trkpt lat="45.9271" lon="3.69387">
        <ele>1208</ele>
        <time>2022-08-29T10:04:52Z</time>
      </trkpt>
      <trkpt lat="45.9271" lon="3.69389">
        <ele>1208.1</ele>
        <time>2022-08-29T10:04:53Z</time>
      </trkpt>
      <trkpt lat="45.92709" lon="3.69391">
        <ele>1208.3</ele>
        <time>2022-08-29T10:04:54Z</time>
      </trkpt>
      <trkpt lat="45.92708" lon="3.69393">
        <ele>1208.4</ele>
        <time>2022-08-29T10:04:55Z</time>
      </trkpt>
      <trkpt lat="45.92708" lon="3.69394">
        <ele>1208.4</ele>
        <time>2022-08-29T10:04:56Z</time>
      </trkpt>
      <trkpt lat="45.92708" lon="3.69396">
        <ele>1208.5</ele>
        <time>2022-08-29T10:04:57Z</time>
      </trkpt>
      <trkpt lat="45.92708" lon="3.69398">
        <ele>1208.6</ele>
        <time>2022-08-29T10:04:58Z</time>
      </trkpt>
      <trkpt lat="45.92708" lon="3.69399">
        <ele>1208.6</ele>
        <time>2022-08-29T10:04:59Z</time>
      </trkpt>
      <trkpt lat="45.92707" lon="3.69399">
        <ele>1208.6</ele>
        <time>2022-08-29T10:05:00Z</time>
      </trkpt>
      <trkpt lat="45.92707" lon="3.694">
        <ele>1208.7</ele>
        <time>2022-08-29T10:05:01Z</time>
      </trkpt>
      <trkpt lat="45.92707" lon="3.694">
        <ele>1208.7</ele>
        <time>2022-08-29T10:05:02Z</time>
      </trkpt>
      <trkpt lat="45.92707" lon="3.69401">
        <ele>1208.7</ele>
        <time>2022-08-29T10:05:03Z</time>
      </trkpt>
      <trkpt lat="45.92708" lon="3.69402">
        <ele>1208.7</ele>
        <time>2022-08-29T10:05:04Z</time>
      </trkpt>
      <trkpt lat="45.92707" lon="3.69404">
        <ele>1208.8</ele>
        <time>2022-08-29T10:05:05Z</time>
      </trkpt>
      <trkpt lat="45.92707" lon="3.69405">
        <ele>1208.8</ele>
        <time>2022-08-29T10:05:06Z</time>
      </trkpt>
      <trkpt lat="45.92707" lon="3.69406">
        <ele>1208.9</ele>
        <time>2022-08-29T10:05:07Z</time>
      </trkpt>
      <trkpt lat="45.92706" lon="3.69408">
        <ele>1208.9</ele>
        <time>2022-08-29T10:05:08Z</time>
      </trkpt>
      <trkpt lat="45.92706" lon="3.69409">
        <ele>1209</ele>
        <time>2022-08-29T10:05:09Z</time>
      </trkpt>
      <trkpt lat="45.92705" lon="3.6941">
        <ele>1209</ele>
        <time>2022-08-29T10:05:10Z</time>
      </trkpt>
      <trkpt lat="45.92705" lon="3.69411">
        <ele>1209.1</ele>
        <time>2022-08-29T10:05:11Z</time>
      </trkpt>
      <trkpt lat="45.92705" lon="3.69412">
        <ele>1209.1</ele>
        <time>2022-08-29T10:05:12Z</time>
      </trkpt>
      <trkpt lat="45.92704" lon="3.69413">
        <ele>1209.2</ele>
        <time>2022-08-29T10:05:13Z</time>
      </trkpt>
      <trkpt lat="45.92704" lon="3.69414">
        <ele>1209.2</ele>
        <time>2022-08-29T10:05:14Z</time>
      </trkpt>
      <trkpt lat="45.92702" lon="3.69416">
        <ele>1209.3</ele>
        <time>2022-08-29T10:05:15Z</time>
      </trkpt>
      <trkpt lat="45.92701" lon="3.69417">
        <ele>1209.3</ele>
        <time>2022-08-29T10:05:16Z</time>
      </trkpt>
      <trkpt lat="45.92701" lon="3.69417">
        <ele>1209.3</ele>
        <time>2022-08-29T10:05:17Z</time>
      </trkpt>
      <trkpt lat="45.927" lon="3.69418">
        <ele>1209.4</ele>
        <time>2022-08-29T10:05:18Z</time>
      </trkpt>
      <trkpt lat="45.92699" lon="3.69419">
        <ele>1209.4</ele>
        <time>2022-08-29T10:05:19Z</time>
      </trkpt>
      <trkpt lat="45.92698" lon="3.6942">
        <ele>1209.5</ele>
        <time>2022-08-29T10:05:20Z</time>
      </trkpt>
      <trkpt lat="45.92697" lon="3.69422">
        <ele>1209.5</ele>
        <time>2022-08-29T10:05:21Z</time>
      </trkpt>
      <trkpt lat="45.92697" lon="3.69424">
        <ele>1209.5</ele>
        <time>2022-08-29T10:05:22Z</time>
      </trkpt>
      <trkpt lat="45.92697" lon="3.69425">
        <ele>1209.6</ele>
        <time>2022-08-29T10:05:23Z</time>
      </trkpt>
      <trkpt lat="45.92696" lon="3.69426">
        <ele>1209.6</ele>
        <time>2022-08-29T10:05:24Z</time>
      </trkpt>
      <trkpt lat="45.92696" lon="3.69428">
        <ele>1209.6</ele>
        <time>2022-08-29T10:05:25Z</time>
      </trkpt>
      <trkpt lat="45.92696" lon="3.6943">
        <ele>1209.6</ele>
        <time>2022-08-29T10:05:26Z</time>
      </trkpt>
      <trkpt lat="45.92696" lon="3.69432">
        <ele>1209.7</ele>
        <time>2022-08-29T10:05:27Z</time>
      </trkpt>
      <trkpt lat="45.92695" lon="3.69434">
        <ele>1209.7</ele>
        <time>2022-08-29T10:05:28Z</time>
      </trkpt>
      <trkpt lat="45.92695" lon="3.69436">
        <ele>1209.7</ele>
        <time>2022-08-29T10:05:29Z</time>
      </trkpt>
      <trkpt lat="45.92695" lon="3.69438">
        <ele>1209.7</ele>
        <time>2022-08-29T10:05:30Z</time>
      </trkpt>
      <trkpt lat="45.92694" lon="3.69441">
        <ele>1209.7</ele>
        <time>2022-08-29T10:05:31Z</time>
      </trkpt>
      <trkpt lat="45.92695" lon="3.69443">
        <ele>1209.7</ele>
        <time>2022-08-29T10:05:32Z</time>
      </trkpt>
      <trkpt lat="45.92695" lon="3.69445">
        <ele>1209.7</ele>
        <time>2022-08-29T10:05:33Z</time>
      </trkpt>
      <trkpt lat="45.92695" lon="3.69448">
        <ele>1209.7</ele>
        <time>2022-08-29T10:05:34Z</time>
      </trkpt>
      <trkpt lat="45.92695" lon="3.69451">
        <ele>1209.7</ele>
        <time>2022-08-29T10:05:35Z</time>
      </trkpt>
      <trkpt lat="45.92695" lon="3.69452">
        <ele>1209.7</ele>
        <time>2022-08-29T10:05:36Z</time>
      </trkpt>
      <trkpt lat="45.92695" lon="3.69454">
        <ele>1209.6</ele>
        <time>2022-08-29T10:05:37Z</time>
      </trkpt>
      <trkpt lat="45.92696" lon="3.69456">
        <ele>1209.6</ele>
        <time>2022-08-29T10:05:38Z</time>
      </trkpt>
      <trkpt lat="45.92696" lon="3.69458">
        <ele>1209.6</ele>
        <time>2022-08-29T10:05:39Z</time>
      </trkpt>
      <trkpt lat="45.92697" lon="3.6946">
        <ele>1209.6</ele>
        <time>2022-08-29T10:05:40Z</time>
      </trkpt>
      <trkpt lat="45.92697" lon="3.69463">
        <ele>1209.5</ele>
        <time>2022-08-29T10:05:41Z</time>
      </trkpt>
      <trkpt lat="45.92698" lon="3.69465">
        <ele>1209.5</ele>
        <time>2022-08-29T10:05:42Z</time>
      </trkpt>
      <trkpt lat="45.92699" lon="3.69467">
        <ele>1209.5</ele>
        <time>2022-08-29T10:05:43Z</time>
      </trkpt>
      <trkpt lat="45.927" lon="3.6947">
        <ele>1209.5</ele>
        <time>2022-08-29T10:05:44Z</time>
      </trkpt>
      <trkpt lat="45.927" lon="3.69472">
        <ele>1209.4</ele>
        <time>2022-08-29T10:05:45Z</time>
      </trkpt>
      <trkpt lat="45.92701" lon="3.69474">
        <ele>1209.4</ele>
        <time>2022-08-29T10:05:46Z</time>
      </trkpt>
      <trkpt lat="45.92702" lon="3.69476">
        <ele>1209.4</ele>
        <time>2022-08-29T10:05:47Z</time>
      </trkpt>
      <trkpt lat="45.92704" lon="3.69479">
        <ele>1209.4</ele>
        <time>2022-08-29T10:05:48Z</time>
      </trkpt>
      <trkpt lat="45.92704" lon="3.6948">
        <ele>1209.4</ele>
        <time>2022-08-29T10:05:49Z</time>
      </trkpt>
      <trkpt lat="45.92706" lon="3.69484">
        <ele>1209.4</ele>
        <time>2022-08-29T10:05:50Z</time>
      </trkpt>
      <trkpt lat="45.92707" lon="3.69485">
        <ele>1209.4</ele>
        <time>2022-08-29T10:05:51Z</time>
      </trkpt>
      <trkpt lat="45.92708" lon="3.69488">
        <ele>1209.4</ele>
        <time>2022-08-29T10:05:52Z</time>
      </trkpt>
      <trkpt lat="45.92709" lon="3.69489">
        <ele>1209.4</ele>
        <time>2022-08-29T10:05:53Z</time>
      </trkpt>
      <trkpt lat="45.92711" lon="3.69493">
        <ele>1209.5</ele>
        <time>2022-08-29T10:05:54Z</time>
      </trkpt>
      <trkpt lat="45.92712" lon="3.69494">
        <ele>1209.5</ele>
        <time>2022-08-29T10:05:55Z</time>
      </trkpt>
      <trkpt lat="45.92713" lon="3.69498">
        <ele>1209.5</ele>
        <time>2022-08-29T10:05:56Z</time>
      </trkpt>
      <trkpt lat="45.92713" lon="3.695">
        <ele>1209.6</ele>
        <time>2022-08-29T10:05:57Z</time>
      </trkpt>
      <trkpt lat="45.92714" lon="3.69503">
        <ele>1209.6</ele>
        <time>2022-08-29T10:05:58Z</time>
      </trkpt>
      <trkpt lat="45.92715" lon="3.69505">
        <ele>1209.7</ele>
        <time>2022-08-29T10:05:59Z</time>
      </trkpt>
      <trkpt lat="45.92715" lon="3.69507">
        <ele>1209.7</ele>
        <time>2022-08-29T10:06:00Z</time>
      </trkpt>
      <trkpt lat="45.92716" lon="3.69509">
        <ele>1209.8</ele>
        <time>2022-08-29T10:06:01Z</time>
      </trkpt>
      <trkpt lat="45.92717" lon="3.69512">
        <ele>1209.8</ele>
        <time>2022-08-29T10:06:02Z</time>
      </trkpt>
      <trkpt lat="45.92717" lon="3.69513">
        <ele>1209.9</ele>
        <time>2022-08-29T10:06:03Z</time>
      </trkpt>
      <trkpt lat="45.92717" lon="3.69514">
        <ele>1209.9</ele>
        <time>2022-08-29T10:06:04Z</time>
      </trkpt>
      <trkpt lat="45.92718" lon="3.69517">
        <ele>1210</ele>
        <time>2022-08-29T10:06:05Z</time>
      </trkpt>
      <trkpt lat="45.92719" lon="3.69518">
        <ele>1210</ele>
        <time>2022-08-29T10:06:06Z</time>
      </trkpt>
      <trkpt lat="45.92719" lon="3.69519">
        <ele>1210</ele>
        <time>2022-08-29T10:06:07Z</time>
      </trkpt>
      <trkpt lat="45.9272" lon="3.69521">
        <ele>1210.1</ele>
        <time>2022-08-29T10:06:08Z</time>
      </trkpt>
      <trkpt lat="45.92721" lon="3.69522">
        <ele>1210.1</ele>
        <time>2022-08-29T10:06:09Z</time>
      </trkpt>
      <trkpt lat="45.92722" lon="3.69524">
        <ele>1210.2</ele>
        <time>2022-08-29T10:06:10Z</time>
      </trkpt>
      <trkpt lat="45.92723" lon="3.69526">
        <ele>1210.2</ele>
        <time>2022-08-29T10:06:11Z</time>
      </trkpt>
      <trkpt lat="45.92724" lon="3.6953">
        <ele>1210.3</ele>
        <time>2022-08-29T10:06:12Z</time>
      </trkpt>
      <trkpt lat="45.92724" lon="3.69531">
        <ele>1210.4</ele>
        <time>2022-08-29T10:06:13Z</time>
      </trkpt>
      <trkpt lat="45.92725" lon="3.69534">
        <ele>1210.4</ele>
        <time>2022-08-29T10:06:14Z</time>
      </trkpt>
      <trkpt lat="45.92725" lon="3.69536">
        <ele>1210.5</ele>
        <time>2022-08-29T10:06:15Z</time>
      </trkpt>
      <trkpt lat="45.92726" lon="3.69538">
        <ele>1210.5</ele>
        <time>2022-08-29T10:06:16Z</time>
      </trkpt>
      <trkpt lat="45.92727" lon="3.69539">
        <ele>1210.6</ele>
        <time>2022-08-29T10:06:17Z</time>
      </trkpt>
      <trkpt lat="45.92727" lon="3.69541">
        <ele>1210.5</ele>
        <time>2022-08-29T10:06:18Z</time>
      </trkpt>
      <trkpt lat="45.92728" lon="3.69543">
        <ele>1210.4</ele>
        <time>2022-08-29T10:06:19Z</time>
      </trkpt>
      <trkpt lat="45.92728" lon="3.69545">
        <ele>1210.3</ele>
        <time>2022-08-29T10:06:20Z</time>
      </trkpt>
      <trkpt lat="45.92728" lon="3.69546">
        <ele>1210.3</ele>
        <time>2022-08-29T10:06:21Z</time>
      </trkpt>
      <trkpt lat="45.92729" lon="3.69548">
        <ele>1210.2</ele>
        <time>2022-08-29T10:06:22Z</time>
      </trkpt>
      <trkpt lat="45.92729" lon="3.69549">
        <ele>1210.1</ele>
        <time>2022-08-29T10:06:23Z</time>
      </trkpt>
      <trkpt lat="45.9273" lon="3.6955">
        <ele>1210.1</ele>
        <time>2022-08-29T10:06:24Z</time>
      </trkpt>
      <trkpt lat="45.92731" lon="3.69553">
        <ele>1209.9</ele>
        <time>2022-08-29T10:06:25Z</time>
      </trkpt>
      <trkpt lat="45.92732" lon="3.69554">
        <ele>1209.8</ele>
        <time>2022-08-29T10:06:26Z</time>
      </trkpt>
      <trkpt lat="45.92733" lon="3.69555">
        <ele>1209.8</ele>
        <time>2022-08-29T10:06:27Z</time>
      </trkpt>
      <trkpt lat="45.92734" lon="3.69556">
        <ele>1209.7</ele>
        <time>2022-08-29T10:06:28Z</time>
      </trkpt>
      <trkpt lat="45.92735" lon="3.69558">
        <ele>1209.6</ele>
        <time>2022-08-29T10:06:29Z</time>
      </trkpt>
      <trkpt lat="45.92736" lon="3.69561">
        <ele>1209.4</ele>
        <time>2022-08-29T10:06:30Z</time>
      </trkpt>
      <trkpt lat="45.92737" lon="3.69562">
        <ele>1209.3</ele>
        <time>2022-08-29T10:06:31Z</time>
      </trkpt>
      <trkpt lat="45.92738" lon="3.69564">
        <ele>1209.2</ele>
        <time>2022-08-29T10:06:32Z</time>
      </trkpt>
      <trkpt lat="45.92739" lon="3.69565">
        <ele>1209.1</ele>
        <time>2022-08-29T10:06:33Z</time>
      </trkpt>
      <trkpt lat="45.92741" lon="3.69568">
        <ele>1208.9</ele>
        <time>2022-08-29T10:06:34Z</time>
      </trkpt>
      <trkpt lat="45.92742" lon="3.6957">
        <ele>1208.8</ele>
        <time>2022-08-29T10:06:35Z</time>
      </trkpt>
      <trkpt lat="45.92745" lon="3.69572">
        <ele>1208.6</ele>
        <time>2022-08-29T10:06:36Z</time>
      </trkpt>
      <trkpt lat="45.92746" lon="3.69573">
        <ele>1208.5</ele>
        <time>2022-08-29T10:06:37Z</time>
      </trkpt>
      <trkpt lat="45.92747" lon="3.69574">
        <ele>1208.4</ele>
        <time>2022-08-29T10:06:38Z</time>
      </trkpt>
      <trkpt lat="45.92747" lon="3.69573">
        <ele>1208.4</ele>
        <time>2022-08-29T10:06:39Z</time>
      </trkpt>
      <trkpt lat="45.92748" lon="3.69574">
        <ele>1208.4</ele>
        <time>2022-08-29T10:06:40Z</time>
      </trkpt>
      <trkpt lat="45.92748" lon="3.69574">
        <ele>1208.4</ele>
        <time>2022-08-29T10:06:41Z</time>
      </trkpt>
      <trkpt lat="45.92748" lon="3.69574">
        <ele>1208.4</ele>
        <time>2022-08-29T10:06:42Z</time>
      </trkpt>
      <trkpt lat="45.92748" lon="3.69573">
        <ele>1208.4</ele>
        <time>2022-08-29T10:06:43Z</time>
      </trkpt>
      <trkpt lat="45.92748" lon="3.69573">
        <ele>1208.3</ele>
        <time>2022-08-29T10:06:44Z</time>
      </trkpt>
      <trkpt lat="45.92748" lon="3.69573">
        <ele>1208.3</ele>
        <time>2022-08-29T10:06:45Z</time>
      </trkpt>
      <trkpt lat="45.92749" lon="3.69573">
        <ele>1208.3</ele>
        <time>2022-08-29T10:06:46Z</time>
      </trkpt>
      <trkpt lat="45.92749" lon="3.69573">
        <ele>1208.2</ele>
        <time>2022-08-29T10:06:47Z</time>
      </trkpt>
      <trkpt lat="45.9275" lon="3.69574">
        <ele>1208.2</ele>
        <time>2022-08-29T10:06:48Z</time>
      </trkpt>
      <trkpt lat="45.9275" lon="3.69573">
        <ele>1208.2</ele>
        <time>2022-08-29T10:06:49Z</time>
      </trkpt>
      <trkpt lat="45.9275" lon="3.69573">
        <ele>1208.2</ele>
        <time>2022-08-29T10:06:50Z</time>
      </trkpt>
      <trkpt lat="45.9275" lon="3.69574">
        <ele>1208.2</ele>
        <time>2022-08-29T10:06:51Z</time>
      </trkpt>
      <trkpt lat="45.92751" lon="3.69575">
        <ele>1208.1</ele>
        <time>2022-08-29T10:06:52Z</time>
      </trkpt>
      <trkpt lat="45.92752" lon="3.69576">
        <ele>1208</ele>
        <time>2022-08-29T10:06:53Z</time>
      </trkpt>
      <trkpt lat="45.92753" lon="3.69578">
        <ele>1207.9</ele>
        <time>2022-08-29T10:06:54Z</time>
      </trkpt>
      <trkpt lat="45.92754" lon="3.69579">
        <ele>1207.8</ele>
        <time>2022-08-29T10:06:55Z</time>
      </trkpt>
      <trkpt lat="45.92755" lon="3.69581">
        <ele>1207.7</ele>
        <time>2022-08-29T10:06:56Z</time>
      </trkpt>
      <trkpt lat="45.92756" lon="3.69583">
        <ele>1207.6</ele>
        <time>2022-08-29T10:06:57Z</time>
      </trkpt>
      <trkpt lat="45.92758" lon="3.69587">
        <ele>1207.4</ele>
        <time>2022-08-29T10:06:58Z</time>
      </trkpt>
      <trkpt lat="45.92758" lon="3.69588">
        <ele>1207.3</ele>
        <time>2022-08-29T10:06:59Z</time>
      </trkpt>
      <trkpt lat="45.9276" lon="3.69592">
        <ele>1207.1</ele>
        <time>2022-08-29T10:07:00Z</time>
      </trkpt>
      <trkpt lat="45.9276" lon="3.69593">
        <ele>1207</ele>
        <time>2022-08-29T10:07:01Z</time>
      </trkpt>
      <trkpt lat="45.92762" lon="3.69598">
        <ele>1206.8</ele>
        <time>2022-08-29T10:07:02Z</time>
      </trkpt>
      <trkpt lat="45.92763" lon="3.69599">
        <ele>1206.7</ele>
        <time>2022-08-29T10:07:03Z</time>
      </trkpt>
      <trkpt lat="45.92765" lon="3.69602">
        <ele>1206.5</ele>
        <time>2022-08-29T10:07:04Z</time>
      </trkpt>
      <trkpt lat="45.92768" lon="3.69605">
        <ele>1206.4</ele>
        <time>2022-08-29T10:07:05Z</time>
      </trkpt>
      <trkpt lat="45.92769" lon="3.69605">
        <ele>1206.3</ele>
        <time>2022-08-29T10:07:06Z</time>
      </trkpt>
      <trkpt lat="45.92772" lon="3.69607">
        <ele>1206.2</ele>
        <time>2022-08-29T10:07:07Z</time>
      </trkpt>
      <trkpt lat="45.92773" lon="3.69607">
        <ele>1206.1</ele>
        <time>2022-08-29T10:07:08Z</time>
      </trkpt>
      <trkpt lat="45.92776" lon="3.69608">
        <ele>1206</ele>
        <time>2022-08-29T10:07:09Z</time>
      </trkpt>
      <trkpt lat="45.92777" lon="3.69609">
        <ele>1206</ele>
        <time>2022-08-29T10:07:10Z</time>
      </trkpt>
      <trkpt lat="45.92778" lon="3.6961">
        <ele>1205.9</ele>
        <time>2022-08-29T10:07:11Z</time>
      </trkpt>
      <trkpt lat="45.92779" lon="3.69612">
        <ele>1205.9</ele>
        <time>2022-08-29T10:07:12Z</time>
      </trkpt>
      <trkpt lat="45.92781" lon="3.69614">
        <ele>1205.8</ele>
        <time>2022-08-29T10:07:13Z</time>
      </trkpt>
      <trkpt lat="45.92781" lon="3.69615">
        <ele>1205.8</ele>
        <time>2022-08-29T10:07:14Z</time>
      </trkpt>
      <trkpt lat="45.92781" lon="3.69616">
        <ele>1205.8</ele>
        <time>2022-08-29T10:07:15Z</time>
      </trkpt>
      <trkpt lat="45.92782" lon="3.69618">
        <ele>1205.8</ele>
        <time>2022-08-29T10:07:16Z</time>
      </trkpt>
      <trkpt lat="45.92783" lon="3.6962">
        <ele>1205.8</ele>
        <time>2022-08-29T10:07:17Z</time>
      </trkpt>
      <trkpt lat="45.92784" lon="3.69621">
        <ele>1205.7</ele>
        <time>2022-08-29T10:07:18Z</time>
      </trkpt>
      <trkpt lat="45.92784" lon="3.69623">
        <ele>1205.7</ele>
        <time>2022-08-29T10:07:19Z</time>
      </trkpt>
      <trkpt lat="45.92785" lon="3.69624">
        <ele>1205.7</ele>
        <time>2022-08-29T10:07:20Z</time>
      </trkpt>
      <trkpt lat="45.92786" lon="3.69626">
        <ele>1205.7</ele>
        <time>2022-08-29T10:07:21Z</time>
      </trkpt>
      <trkpt lat="45.92787" lon="3.69628">
        <ele>1205.7</ele>
        <time>2022-08-29T10:07:22Z</time>
      </trkpt>
      <trkpt lat="45.92788" lon="3.69629">
        <ele>1205.6</ele>
        <time>2022-08-29T10:07:23Z</time>
      </trkpt>
      <trkpt lat="45.92789" lon="3.69631">
        <ele>1205.6</ele>
        <time>2022-08-29T10:07:24Z</time>
      </trkpt>
      <trkpt lat="45.9279" lon="3.69633">
        <ele>1205.6</ele>
        <time>2022-08-29T10:07:25Z</time>
      </trkpt>
      <trkpt lat="45.92791" lon="3.69635">
        <ele>1205.6</ele>
        <time>2022-08-29T10:07:26Z</time>
      </trkpt>
      <trkpt lat="45.92792" lon="3.69637">
        <ele>1205.6</ele>
        <time>2022-08-29T10:07:27Z</time>
      </trkpt>
      <trkpt lat="45.92793" lon="3.69639">
        <ele>1205.6</ele>
        <time>2022-08-29T10:07:28Z</time>
      </trkpt>
      <trkpt lat="45.92794" lon="3.6964">
        <ele>1205.5</ele>
        <time>2022-08-29T10:07:29Z</time>
      </trkpt>
      <trkpt lat="45.92794" lon="3.69641">
        <ele>1205.5</ele>
        <time>2022-08-29T10:07:30Z</time>
      </trkpt>
      <trkpt lat="45.92795" lon="3.69643">
        <ele>1205.5</ele>
        <time>2022-08-29T10:07:31Z</time>
      </trkpt>
      <trkpt lat="45.92796" lon="3.69645">
        <ele>1205.5</ele>
        <time>2022-08-29T10:07:32Z</time>
      </trkpt>
      <trkpt lat="45.92797" lon="3.69647">
        <ele>1205.5</ele>
        <time>2022-08-29T10:07:33Z</time>
      </trkpt>
      <trkpt lat="45.92798" lon="3.69648">
        <ele>1205.5</ele>
        <time>2022-08-29T10:07:34Z</time>
      </trkpt>
      <trkpt lat="45.92799" lon="3.6965">
        <ele>1205.4</ele>
        <time>2022-08-29T10:07:35Z</time>
      </trkpt>
      <trkpt lat="45.928" lon="3.69652">
        <ele>1205.4</ele>
        <time>2022-08-29T10:07:36Z</time>
      </trkpt>
      <trkpt lat="45.92802" lon="3.69655">
        <ele>1205.4</ele>
        <time>2022-08-29T10:07:37Z</time>
      </trkpt>
      <trkpt lat="45.92803" lon="3.69655">
        <ele>1205.3</ele>
        <time>2022-08-29T10:07:38Z</time>
      </trkpt>
      <trkpt lat="45.92804" lon="3.69657">
        <ele>1205.3</ele>
        <time>2022-08-29T10:07:39Z</time>
      </trkpt>
      <trkpt lat="45.92805" lon="3.69659">
        <ele>1205.2</ele>
        <time>2022-08-29T10:07:40Z</time>
      </trkpt>
      <trkpt lat="45.92806" lon="3.69661">
        <ele>1205.2</ele>
        <time>2022-08-29T10:07:41Z</time>
      </trkpt>
      <trkpt lat="45.92807" lon="3.69663">
        <ele>1205.2</ele>
        <time>2022-08-29T10:07:42Z</time>
      </trkpt>
      <trkpt lat="45.92808" lon="3.69664">
        <ele>1205.1</ele>
        <time>2022-08-29T10:07:43Z</time>
      </trkpt>
      <trkpt lat="45.92808" lon="3.69666">
        <ele>1205.1</ele>
        <time>2022-08-29T10:07:44Z</time>
      </trkpt>
      <trkpt lat="45.92809" lon="3.69669">
        <ele>1205</ele>
        <time>2022-08-29T10:07:45Z</time>
      </trkpt>
      <trkpt lat="45.92809" lon="3.6967">
        <ele>1205</ele>
        <time>2022-08-29T10:07:46Z</time>
      </trkpt>
      <trkpt lat="45.92809" lon="3.69671">
        <ele>1204.9</ele>
        <time>2022-08-29T10:07:47Z</time>
      </trkpt>
      <trkpt lat="45.92809" lon="3.69673">
        <ele>1204.9</ele>
        <time>2022-08-29T10:07:48Z</time>
      </trkpt>
      <trkpt lat="45.92809" lon="3.69674">
        <ele>1204.9</ele>
        <time>2022-08-29T10:07:49Z</time>
      </trkpt>
      <trkpt lat="45.92809" lon="3.69675">
        <ele>1204.8</ele>
        <time>2022-08-29T10:07:50Z</time>
      </trkpt>
      <trkpt lat="45.92809" lon="3.69677">
        <ele>1204.8</ele>
        <time>2022-08-29T10:07:51Z</time>
      </trkpt>
      <trkpt lat="45.9281" lon="3.69678">
        <ele>1204.8</ele>
        <time>2022-08-29T10:07:52Z</time>
      </trkpt>
      <trkpt lat="45.9281" lon="3.69679">
        <ele>1204.7</ele>
        <time>2022-08-29T10:07:53Z</time>
      </trkpt>
      <trkpt lat="45.9281" lon="3.6968">
        <ele>1204.7</ele>
        <time>2022-08-29T10:07:54Z</time>
      </trkpt>
      <trkpt lat="45.9281" lon="3.69682">
        <ele>1204.7</ele>
        <time>2022-08-29T10:07:55Z</time>
      </trkpt>
      <trkpt lat="45.92811" lon="3.69683">
        <ele>1204.6</ele>
        <time>2022-08-29T10:07:56Z</time>
      </trkpt>
      <trkpt lat="45.92811" lon="3.69685">
        <ele>1204.6</ele>
        <time>2022-08-29T10:07:57Z</time>
      </trkpt>
      <trkpt lat="45.92812" lon="3.69686">
        <ele>1204.5</ele>
        <time>2022-08-29T10:07:58Z</time>
      </trkpt>
      <trkpt lat="45.92812" lon="3.69688">
        <ele>1204.5</ele>
        <time>2022-08-29T10:07:59Z</time>
      </trkpt>
      <trkpt lat="45.92813" lon="3.6969">
        <ele>1204.4</ele>
        <time>2022-08-29T10:08:00Z</time>
      </trkpt>
      <trkpt lat="45.92814" lon="3.69692">
        <ele>1204.4</ele>
        <time>2022-08-29T10:08:01Z</time>
      </trkpt>
      <trkpt lat="45.92814" lon="3.69694">
        <ele>1204.3</ele>
        <time>2022-08-29T10:08:02Z</time>
      </trkpt>
      <trkpt lat="45.92815" lon="3.69696">
        <ele>1204.3</ele>
        <time>2022-08-29T10:08:03Z</time>
      </trkpt>
      <trkpt lat="45.92815" lon="3.69698">
        <ele>1204.2</ele>
        <time>2022-08-29T10:08:04Z</time>
      </trkpt>
      <trkpt lat="45.92816" lon="3.697">
        <ele>1204.2</ele>
        <time>2022-08-29T10:08:05Z</time>
      </trkpt>
      <trkpt lat="45.92816" lon="3.69702">
        <ele>1204.2</ele>
        <time>2022-08-29T10:08:06Z</time>
      </trkpt>
      <trkpt lat="45.92816" lon="3.69704">
        <ele>1204.1</ele>
        <time>2022-08-29T10:08:07Z</time>
      </trkpt>
      <trkpt lat="45.92817" lon="3.69707">
        <ele>1204.1</ele>
        <time>2022-08-29T10:08:09Z</time>
      </trkpt>
      <trkpt lat="45.92817" lon="3.69709">
        <ele>1204.1</ele>
        <time>2022-08-29T10:08:10Z</time>
      </trkpt>
      <trkpt lat="45.92818" lon="3.6971">
        <ele>1204</ele>
        <time>2022-08-29T10:08:11Z</time>
      </trkpt>
      <trkpt lat="45.92818" lon="3.69711">
        <ele>1204</ele>
        <time>2022-08-29T10:08:12Z</time>
      </trkpt>
      <trkpt lat="45.92819" lon="3.69713">
        <ele>1204</ele>
        <time>2022-08-29T10:08:13Z</time>
      </trkpt>
      <trkpt lat="45.92819" lon="3.69715">
        <ele>1204</ele>
        <time>2022-08-29T10:08:14Z</time>
      </trkpt>
      <trkpt lat="45.9282" lon="3.69715">
        <ele>1204</ele>
        <time>2022-08-29T10:08:15Z</time>
      </trkpt>
      <trkpt lat="45.9282" lon="3.69716">
        <ele>1204</ele>
        <time>2022-08-29T10:08:16Z</time>
      </trkpt>
      <trkpt lat="45.92821" lon="3.69717">
        <ele>1203.9</ele>
        <time>2022-08-29T10:08:17Z</time>
      </trkpt>
      <trkpt lat="45.92821" lon="3.69719">
        <ele>1203.9</ele>
        <time>2022-08-29T10:08:18Z</time>
      </trkpt>
      <trkpt lat="45.92821" lon="3.69722">
        <ele>1203.9</ele>
        <time>2022-08-29T10:08:20Z</time>
      </trkpt>
      <trkpt lat="45.92821" lon="3.69725">
        <ele>1203.9</ele>
        <time>2022-08-29T10:08:21Z</time>
      </trkpt>
      <trkpt lat="45.92821" lon="3.69727">
        <ele>1203.9</ele>
        <time>2022-08-29T10:08:22Z</time>
      </trkpt>
      <trkpt lat="45.92821" lon="3.69728">
        <ele>1203.9</ele>
        <time>2022-08-29T10:08:23Z</time>
      </trkpt>
      <trkpt lat="45.92821" lon="3.6973">
        <ele>1203.9</ele>
        <time>2022-08-29T10:08:24Z</time>
      </trkpt>
      <trkpt lat="45.92821" lon="3.69733">
        <ele>1203.8</ele>
        <time>2022-08-29T10:08:25Z</time>
      </trkpt>
      <trkpt lat="45.92821" lon="3.69735">
        <ele>1203.8</ele>
        <time>2022-08-29T10:08:26Z</time>
      </trkpt>
      <trkpt lat="45.92821" lon="3.69737">
        <ele>1203.8</ele>
        <time>2022-08-29T10:08:27Z</time>
      </trkpt>
      <trkpt lat="45.92822" lon="3.6974">
        <ele>1203.8</ele>
        <time>2022-08-29T10:08:28Z</time>
      </trkpt>
      <trkpt lat="45.92822" lon="3.69741">
        <ele>1203.8</ele>
        <time>2022-08-29T10:08:29Z</time>
      </trkpt>
      <trkpt lat="45.92822" lon="3.69742">
        <ele>1203.8</ele>
        <time>2022-08-29T10:08:30Z</time>
      </trkpt>
      <trkpt lat="45.92823" lon="3.69744">
        <ele>1203.8</ele>
        <time>2022-08-29T10:08:31Z</time>
      </trkpt>
      <trkpt lat="45.92823" lon="3.69746">
        <ele>1203.8</ele>
        <time>2022-08-29T10:08:32Z</time>
      </trkpt>
      <trkpt lat="45.92823" lon="3.69748">
        <ele>1203.8</ele>
        <time>2022-08-29T10:08:33Z</time>
      </trkpt>
      <trkpt lat="45.92824" lon="3.6975">
        <ele>1203.8</ele>
        <time>2022-08-29T10:08:34Z</time>
      </trkpt>
      <trkpt lat="45.92825" lon="3.69753">
        <ele>1203.8</ele>
        <time>2022-08-29T10:08:35Z</time>
      </trkpt>
      <trkpt lat="45.92826" lon="3.69755">
        <ele>1203.7</ele>
        <time>2022-08-29T10:08:36Z</time>
      </trkpt>
      <trkpt lat="45.92826" lon="3.69758">
        <ele>1203.7</ele>
        <time>2022-08-29T10:08:37Z</time>
      </trkpt>
      <trkpt lat="45.92827" lon="3.69759">
        <ele>1203.7</ele>
        <time>2022-08-29T10:08:38Z</time>
      </trkpt>
      <trkpt lat="45.92827" lon="3.6976">
        <ele>1203.7</ele>
        <time>2022-08-29T10:08:39Z</time>
      </trkpt>
      <trkpt lat="45.92827" lon="3.69763">
        <ele>1203.7</ele>
        <time>2022-08-29T10:08:40Z</time>
      </trkpt>
      <trkpt lat="45.92828" lon="3.69764">
        <ele>1203.6</ele>
        <time>2022-08-29T10:08:41Z</time>
      </trkpt>
      <trkpt lat="45.92828" lon="3.69766">
        <ele>1203.6</ele>
        <time>2022-08-29T10:08:42Z</time>
      </trkpt>
      <trkpt lat="45.92828" lon="3.69767">
        <ele>1203.6</ele>
        <time>2022-08-29T10:08:43Z</time>
      </trkpt>
      <trkpt lat="45.92827" lon="3.69769">
        <ele>1203.6</ele>
        <time>2022-08-29T10:08:44Z</time>
      </trkpt>
      <trkpt lat="45.92827" lon="3.6977">
        <ele>1203.6</ele>
        <time>2022-08-29T10:08:45Z</time>
      </trkpt>
      <trkpt lat="45.92827" lon="3.69772">
        <ele>1203.6</ele>
        <time>2022-08-29T10:08:46Z</time>
      </trkpt>
      <trkpt lat="45.92827" lon="3.69774">
        <ele>1203.5</ele>
        <time>2022-08-29T10:08:47Z</time>
      </trkpt>
      <trkpt lat="45.92827" lon="3.69775">
        <ele>1203.5</ele>
        <time>2022-08-29T10:08:48Z</time>
      </trkpt>
      <trkpt lat="45.92828" lon="3.69778">
        <ele>1203.4</ele>
        <time>2022-08-29T10:08:49Z</time>
      </trkpt>
      <trkpt lat="45.92828" lon="3.6978">
        <ele>1203.4</ele>
        <time>2022-08-29T10:08:50Z</time>
      </trkpt>
      <trkpt lat="45.92829" lon="3.69781">
        <ele>1203.4</ele>
        <time>2022-08-29T10:08:51Z</time>
      </trkpt>
      <trkpt lat="45.9283" lon="3.69783">
        <ele>1203.3</ele>
        <time>2022-08-29T10:08:52Z</time>
      </trkpt>
      <trkpt lat="45.92831" lon="3.69785">
        <ele>1203.2</ele>
        <time>2022-08-29T10:08:54Z</time>
      </trkpt>
      <trkpt lat="45.92832" lon="3.69791">
        <ele>1203.1</ele>
        <time>2022-08-29T10:08:55Z</time>
      </trkpt>
      <trkpt lat="45.92832" lon="3.69795">
        <ele>1202.9</ele>
        <time>2022-08-29T10:08:56Z</time>
      </trkpt>
      <trkpt lat="45.92832" lon="3.69797">
        <ele>1202.9</ele>
        <time>2022-08-29T10:08:57Z</time>
      </trkpt>
      <trkpt lat="45.92831" lon="3.69801">
        <ele>1202.7</ele>
        <time>2022-08-29T10:08:58Z</time>
      </trkpt>
      <trkpt lat="45.9283" lon="3.69803">
        <ele>1202.7</ele>
        <time>2022-08-29T10:08:59Z</time>
      </trkpt>
      <trkpt lat="45.92829" lon="3.69805">
        <ele>1202.6</ele>
        <time>2022-08-29T10:09:00Z</time>
      </trkpt>
      <trkpt lat="45.92829" lon="3.69807">
        <ele>1202.5</ele>
        <time>2022-08-29T10:09:01Z</time>
      </trkpt>
      <trkpt lat="45.92828" lon="3.69808">
        <ele>1202.4</ele>
        <time>2022-08-29T10:09:02Z</time>
      </trkpt>
      <trkpt lat="45.92828" lon="3.69809">
        <ele>1202.3</ele>
        <time>2022-08-29T10:09:03Z</time>
      </trkpt>
      <trkpt lat="45.92828" lon="3.69811">
        <ele>1202.2</ele>
        <time>2022-08-29T10:09:04Z</time>
      </trkpt>
      <trkpt lat="45.92827" lon="3.69812">
        <ele>1202.2</ele>
        <time>2022-08-29T10:09:05Z</time>
      </trkpt>
      <trkpt lat="45.92827" lon="3.69813">
        <ele>1202.1</ele>
        <time>2022-08-29T10:09:06Z</time>
      </trkpt>
      <trkpt lat="45.92826" lon="3.69814">
        <ele>1202</ele>
        <time>2022-08-29T10:09:07Z</time>
      </trkpt>
      <trkpt lat="45.92826" lon="3.69816">
        <ele>1202</ele>
        <time>2022-08-29T10:09:08Z</time>
      </trkpt>
      <trkpt lat="45.92825" lon="3.69817">
        <ele>1201.9</ele>
        <time>2022-08-29T10:09:09Z</time>
      </trkpt>
      <trkpt lat="45.92824" lon="3.69818">
        <ele>1201.8</ele>
        <time>2022-08-29T10:09:10Z</time>
      </trkpt>
      <trkpt lat="45.92824" lon="3.6982">
        <ele>1201.7</ele>
        <time>2022-08-29T10:09:11Z</time>
      </trkpt>
      <trkpt lat="45.92823" lon="3.69822">
        <ele>1201.6</ele>
        <time>2022-08-29T10:09:12Z</time>
      </trkpt>
      <trkpt lat="45.92822" lon="3.69826">
        <ele>1201.5</ele>
        <time>2022-08-29T10:09:13Z</time>
      </trkpt>
      <trkpt lat="45.92822" lon="3.69827">
        <ele>1201.4</ele>
        <time>2022-08-29T10:09:14Z</time>
      </trkpt>
      <trkpt lat="45.92821" lon="3.6983">
        <ele>1201.3</ele>
        <time>2022-08-29T10:09:15Z</time>
      </trkpt>
      <trkpt lat="45.92821" lon="3.69832">
        <ele>1201.3</ele>
        <time>2022-08-29T10:09:16Z</time>
      </trkpt>
      <trkpt lat="45.92822" lon="3.69834">
        <ele>1201.2</ele>
        <time>2022-08-29T10:09:17Z</time>
      </trkpt>
      <trkpt lat="45.92822" lon="3.69836">
        <ele>1201.1</ele>
        <time>2022-08-29T10:09:18Z</time>
      </trkpt>
      <trkpt lat="45.92822" lon="3.69839">
        <ele>1201.1</ele>
        <time>2022-08-29T10:09:19Z</time>
      </trkpt>
      <trkpt lat="45.92823" lon="3.69841">
        <ele>1201</ele>
        <time>2022-08-29T10:09:20Z</time>
      </trkpt>
      <trkpt lat="45.92824" lon="3.69847">
        <ele>1200.8</ele>
        <time>2022-08-29T10:09:21Z</time>
      </trkpt>
      <trkpt lat="45.92824" lon="3.69849">
        <ele>1200.8</ele>
        <time>2022-08-29T10:09:22Z</time>
      </trkpt>
      <trkpt lat="45.92824" lon="3.69853">
        <ele>1200.6</ele>
        <time>2022-08-29T10:09:23Z</time>
      </trkpt>
      <trkpt lat="45.92825" lon="3.69857">
        <ele>1200.5</ele>
        <time>2022-08-29T10:09:24Z</time>
      </trkpt>
      <trkpt lat="45.92825" lon="3.69858">
        <ele>1200.5</ele>
        <time>2022-08-29T10:09:25Z</time>
      </trkpt>
      <trkpt lat="45.92825" lon="3.6986">
        <ele>1200.4</ele>
        <time>2022-08-29T10:09:26Z</time>
      </trkpt>
      <trkpt lat="45.92824" lon="3.69861">
        <ele>1200.4</ele>
        <time>2022-08-29T10:09:27Z</time>
      </trkpt>
      <trkpt lat="45.92824" lon="3.69862">
        <ele>1200.4</ele>
        <time>2022-08-29T10:09:28Z</time>
      </trkpt>
      <trkpt lat="45.92825" lon="3.69864">
        <ele>1200.3</ele>
        <time>2022-08-29T10:09:29Z</time>
      </trkpt>
      <trkpt lat="45.92825" lon="3.69865">
        <ele>1200.3</ele>
        <time>2022-08-29T10:09:30Z</time>
      </trkpt>
      <trkpt lat="45.92825" lon="3.69867">
        <ele>1200.2</ele>
        <time>2022-08-29T10:09:31Z</time>
      </trkpt>
      <trkpt lat="45.92826" lon="3.69868">
        <ele>1200.2</ele>
        <time>2022-08-29T10:09:32Z</time>
      </trkpt>
      <trkpt lat="45.92826" lon="3.69871">
        <ele>1200.1</ele>
        <time>2022-08-29T10:09:33Z</time>
      </trkpt>
      <trkpt lat="45.92826" lon="3.69872">
        <ele>1200.1</ele>
        <time>2022-08-29T10:09:34Z</time>
      </trkpt>
      <trkpt lat="45.92826" lon="3.69873">
        <ele>1200</ele>
        <time>2022-08-29T10:09:35Z</time>
      </trkpt>
      <trkpt lat="45.92826" lon="3.69875">
        <ele>1200</ele>
        <time>2022-08-29T10:09:36Z</time>
      </trkpt>
      <trkpt lat="45.92827" lon="3.69878">
        <ele>1199.9</ele>
        <time>2022-08-29T10:09:37Z</time>
      </trkpt>
      <trkpt lat="45.92827" lon="3.69881">
        <ele>1199.8</ele>
        <time>2022-08-29T10:09:38Z</time>
      </trkpt>
      <trkpt lat="45.92827" lon="3.69883">
        <ele>1199.7</ele>
        <time>2022-08-29T10:09:39Z</time>
      </trkpt>
      <trkpt lat="45.92828" lon="3.69887">
        <ele>1199.6</ele>
        <time>2022-08-29T10:09:40Z</time>
      </trkpt>
      <trkpt lat="45.92828" lon="3.69889">
        <ele>1199.5</ele>
        <time>2022-08-29T10:09:41Z</time>
      </trkpt>
      <trkpt lat="45.92827" lon="3.69894">
        <ele>1199.4</ele>
        <time>2022-08-29T10:09:42Z</time>
      </trkpt>
      <trkpt lat="45.92827" lon="3.69895">
        <ele>1199.4</ele>
        <time>2022-08-29T10:09:43Z</time>
      </trkpt>
      <trkpt lat="45.92827" lon="3.69897">
        <ele>1199.3</ele>
        <time>2022-08-29T10:09:44Z</time>
      </trkpt>
      <trkpt lat="45.92826" lon="3.69898">
        <ele>1199.3</ele>
        <time>2022-08-29T10:09:45Z</time>
      </trkpt>
      <trkpt lat="45.92826" lon="3.699">
        <ele>1199.3</ele>
        <time>2022-08-29T10:09:46Z</time>
      </trkpt>
      <trkpt lat="45.92827" lon="3.699">
        <ele>1199.2</ele>
        <time>2022-08-29T10:09:47Z</time>
      </trkpt>
      <trkpt lat="45.92827" lon="3.69901">
        <ele>1199.2</ele>
        <time>2022-08-29T10:09:48Z</time>
      </trkpt>
      <trkpt lat="45.92827" lon="3.69902">
        <ele>1199.2</ele>
        <time>2022-08-29T10:09:49Z</time>
      </trkpt>
      <trkpt lat="45.92828" lon="3.69903">
        <ele>1199.2</ele>
        <time>2022-08-29T10:09:50Z</time>
      </trkpt>
      <trkpt lat="45.92828" lon="3.69905">
        <ele>1199.1</ele>
        <time>2022-08-29T10:09:51Z</time>
      </trkpt>
      <trkpt lat="45.92828" lon="3.69908">
        <ele>1199</ele>
        <time>2022-08-29T10:09:52Z</time>
      </trkpt>
      <trkpt lat="45.92829" lon="3.69912">
        <ele>1198.9</ele>
        <time>2022-08-29T10:09:53Z</time>
      </trkpt>
      <trkpt lat="45.9283" lon="3.69913">
        <ele>1198.9</ele>
        <time>2022-08-29T10:09:54Z</time>
      </trkpt>
      <trkpt lat="45.9283" lon="3.69917">
        <ele>1198.8</ele>
        <time>2022-08-29T10:09:55Z</time>
      </trkpt>
      <trkpt lat="45.92831" lon="3.69918">
        <ele>1198.8</ele>
        <time>2022-08-29T10:09:56Z</time>
      </trkpt>
      <trkpt lat="45.92831" lon="3.6992">
        <ele>1198.7</ele>
        <time>2022-08-29T10:09:57Z</time>
      </trkpt>
      <trkpt lat="45.92832" lon="3.69923">
        <ele>1198.6</ele>
        <time>2022-08-29T10:09:58Z</time>
      </trkpt>
      <trkpt lat="45.92834" lon="3.69926">
        <ele>1198.5</ele>
        <time>2022-08-29T10:09:59Z</time>
      </trkpt>
      <trkpt lat="45.92834" lon="3.69928">
        <ele>1198.5</ele>
        <time>2022-08-29T10:10:00Z</time>
      </trkpt>
      <trkpt lat="45.92836" lon="3.69932">
        <ele>1198.4</ele>
        <time>2022-08-29T10:10:01Z</time>
      </trkpt>
      <trkpt lat="45.92836" lon="3.69934">
        <ele>1198.3</ele>
        <time>2022-08-29T10:10:02Z</time>
      </trkpt>
      <trkpt lat="45.92837" lon="3.69936">
        <ele>1198.3</ele>
        <time>2022-08-29T10:10:03Z</time>
      </trkpt>
      <trkpt lat="45.92838" lon="3.69938">
        <ele>1198.2</ele>
        <time>2022-08-29T10:10:04Z</time>
      </trkpt>
      <trkpt lat="45.92838" lon="3.6994">
        <ele>1198.2</ele>
        <time>2022-08-29T10:10:05Z</time>
      </trkpt>
      <trkpt lat="45.92838" lon="3.69941">
        <ele>1198.1</ele>
        <time>2022-08-29T10:10:06Z</time>
      </trkpt>
      <trkpt lat="45.92838" lon="3.69942">
        <ele>1198.1</ele>
        <time>2022-08-29T10:10:07Z</time>
      </trkpt>
      <trkpt lat="45.92839" lon="3.69943">
        <ele>1198.1</ele>
        <time>2022-08-29T10:10:08Z</time>
      </trkpt>
      <trkpt lat="45.92839" lon="3.69944">
        <ele>1198</ele>
        <time>2022-08-29T10:10:09Z</time>
      </trkpt>
      <trkpt lat="45.92839" lon="3.69945">
        <ele>1198</ele>
        <time>2022-08-29T10:10:10Z</time>
      </trkpt>
      <trkpt lat="45.92839" lon="3.69946">
        <ele>1198</ele>
        <time>2022-08-29T10:10:11Z</time>
      </trkpt>
      <trkpt lat="45.9284" lon="3.69949">
        <ele>1197.9</ele>
        <time>2022-08-29T10:10:12Z</time>
      </trkpt>
      <trkpt lat="45.9284" lon="3.69951">
        <ele>1197.8</ele>
        <time>2022-08-29T10:10:13Z</time>
      </trkpt>
      <trkpt lat="45.92841" lon="3.69952">
        <ele>1197.8</ele>
        <time>2022-08-29T10:10:14Z</time>
      </trkpt>
      <trkpt lat="45.92842" lon="3.69955">
        <ele>1197.6</ele>
        <time>2022-08-29T10:10:15Z</time>
      </trkpt>
      <trkpt lat="45.92843" lon="3.69957">
        <ele>1197.6</ele>
        <time>2022-08-29T10:10:16Z</time>
      </trkpt>
      <trkpt lat="45.92844" lon="3.69959">
        <ele>1197.5</ele>
        <time>2022-08-29T10:10:17Z</time>
      </trkpt>
      <trkpt lat="45.92844" lon="3.69961">
        <ele>1197.4</ele>
        <time>2022-08-29T10:10:18Z</time>
      </trkpt>
      <trkpt lat="45.92845" lon="3.69963">
        <ele>1197.3</ele>
        <time>2022-08-29T10:10:19Z</time>
      </trkpt>
      <trkpt lat="45.92845" lon="3.69965">
        <ele>1197.2</ele>
        <time>2022-08-29T10:10:20Z</time>
      </trkpt>
      <trkpt lat="45.92845" lon="3.69968">
        <ele>1197.1</ele>
        <time>2022-08-29T10:10:21Z</time>
      </trkpt>
      <trkpt lat="45.92845" lon="3.69969">
        <ele>1197</ele>
        <time>2022-08-29T10:10:22Z</time>
      </trkpt>
      <trkpt lat="45.92845" lon="3.69971">
        <ele>1197</ele>
        <time>2022-08-29T10:10:23Z</time>
      </trkpt>
      <trkpt lat="45.92845" lon="3.69973">
        <ele>1196.8</ele>
        <time>2022-08-29T10:10:24Z</time>
      </trkpt>
      <trkpt lat="45.92845" lon="3.69975">
        <ele>1196.8</ele>
        <time>2022-08-29T10:10:25Z</time>
      </trkpt>
      <trkpt lat="45.92846" lon="3.69978">
        <ele>1196.6</ele>
        <time>2022-08-29T10:10:26Z</time>
      </trkpt>
      <trkpt lat="45.92846" lon="3.69979">
        <ele>1196.5</ele>
        <time>2022-08-29T10:10:27Z</time>
      </trkpt>
      <trkpt lat="45.92846" lon="3.6998">
        <ele>1196.4</ele>
        <time>2022-08-29T10:10:28Z</time>
      </trkpt>
      <trkpt lat="45.92848" lon="3.69982">
        <ele>1196.2</ele>
        <time>2022-08-29T10:10:29Z</time>
      </trkpt>
      <trkpt lat="45.92848" lon="3.69983">
        <ele>1196.2</ele>
        <time>2022-08-29T10:10:30Z</time>
      </trkpt>
      <trkpt lat="45.92848" lon="3.69984">
        <ele>1196.1</ele>
        <time>2022-08-29T10:10:31Z</time>
      </trkpt>
      <trkpt lat="45.92849" lon="3.69986">
        <ele>1196</ele>
        <time>2022-08-29T10:10:32Z</time>
      </trkpt>
      <trkpt lat="45.9285" lon="3.69988">
        <ele>1195.8</ele>
        <time>2022-08-29T10:10:33Z</time>
      </trkpt>
      <trkpt lat="45.92851" lon="3.6999">
        <ele>1195.6</ele>
        <time>2022-08-29T10:10:34Z</time>
      </trkpt>
      <trkpt lat="45.92852" lon="3.69991">
        <ele>1195.5</ele>
        <time>2022-08-29T10:10:35Z</time>
      </trkpt>
      <trkpt lat="45.92852" lon="3.69992">
        <ele>1195.4</ele>
        <time>2022-08-29T10:10:36Z</time>
      </trkpt>
      <trkpt lat="45.92853" lon="3.69995">
        <ele>1195.2</ele>
        <time>2022-08-29T10:10:37Z</time>
      </trkpt>
      <trkpt lat="45.92854" lon="3.69996">
        <ele>1195.1</ele>
        <time>2022-08-29T10:10:38Z</time>
      </trkpt>
      <trkpt lat="45.92854" lon="3.69997">
        <ele>1195</ele>
        <time>2022-08-29T10:10:39Z</time>
      </trkpt>
      <trkpt lat="45.92855" lon="3.69998">
        <ele>1194.8</ele>
        <time>2022-08-29T10:10:40Z</time>
      </trkpt>
      <trkpt lat="45.92856" lon="3.69999">
        <ele>1194.7</ele>
        <time>2022-08-29T10:10:41Z</time>
      </trkpt>
      <trkpt lat="45.92857" lon="3.7">
        <ele>1194.5</ele>
        <time>2022-08-29T10:10:42Z</time>
      </trkpt>
      <trkpt lat="45.92858" lon="3.70001">
        <ele>1194.4</ele>
        <time>2022-08-29T10:10:43Z</time>
      </trkpt>
      <trkpt lat="45.92859" lon="3.70002">
        <ele>1194.2</ele>
        <time>2022-08-29T10:10:44Z</time>
      </trkpt>
      <trkpt lat="45.9286" lon="3.70003">
        <ele>1194.1</ele>
        <time>2022-08-29T10:10:45Z</time>
      </trkpt>
      <trkpt lat="45.9286" lon="3.70004">
        <ele>1194</ele>
        <time>2022-08-29T10:10:46Z</time>
      </trkpt>
      <trkpt lat="45.92861" lon="3.70005">
        <ele>1193.9</ele>
        <time>2022-08-29T10:10:47Z</time>
      </trkpt>
      <trkpt lat="45.92862" lon="3.70005">
        <ele>1193.8</ele>
        <time>2022-08-29T10:10:48Z</time>
      </trkpt>
      <trkpt lat="45.92862" lon="3.70006">
        <ele>1193.7</ele>
        <time>2022-08-29T10:10:49Z</time>
      </trkpt>
      <trkpt lat="45.92864" lon="3.70008">
        <ele>1193.4</ele>
        <time>2022-08-29T10:10:50Z</time>
      </trkpt>
      <trkpt lat="45.92865" lon="3.70009">
        <ele>1193.3</ele>
        <time>2022-08-29T10:10:51Z</time>
      </trkpt>
      <trkpt lat="45.92865" lon="3.7001">
        <ele>1193.2</ele>
        <time>2022-08-29T10:10:52Z</time>
      </trkpt>
      <trkpt lat="45.92866" lon="3.70011">
        <ele>1193</ele>
        <time>2022-08-29T10:10:53Z</time>
      </trkpt>
      <trkpt lat="45.92867" lon="3.70012">
        <ele>1192.8</ele>
        <time>2022-08-29T10:10:54Z</time>
      </trkpt>
      <trkpt lat="45.92868" lon="3.70013">
        <ele>1192.7</ele>
        <time>2022-08-29T10:10:55Z</time>
      </trkpt>
      <trkpt lat="45.92869" lon="3.70013">
        <ele>1192.6</ele>
        <time>2022-08-29T10:10:56Z</time>
      </trkpt>
      <trkpt lat="45.9287" lon="3.70015">
        <ele>1192.4</ele>
        <time>2022-08-29T10:10:57Z</time>
      </trkpt>
      <trkpt lat="45.9287" lon="3.70016">
        <ele>1192.3</ele>
        <time>2022-08-29T10:10:58Z</time>
      </trkpt>
      <trkpt lat="45.92872" lon="3.70018">
        <ele>1192</ele>
        <time>2022-08-29T10:10:59Z</time>
      </trkpt>
      <trkpt lat="45.92872" lon="3.70019">
        <ele>1191.9</ele>
        <time>2022-08-29T10:11:00Z</time>
      </trkpt>
      <trkpt lat="45.92872" lon="3.7002">
        <ele>1191.8</ele>
        <time>2022-08-29T10:11:01Z</time>
      </trkpt>
      <trkpt lat="45.92873" lon="3.70022">
        <ele>1191.6</ele>
        <time>2022-08-29T10:11:02Z</time>
      </trkpt>
      <trkpt lat="45.92874" lon="3.70023">
        <ele>1191.5</ele>
        <time>2022-08-29T10:11:03Z</time>
      </trkpt>
      <trkpt lat="45.92874" lon="3.70023">
        <ele>1191.4</ele>
        <time>2022-08-29T10:11:04Z</time>
      </trkpt>
      <trkpt lat="45.92875" lon="3.70024">
        <ele>1191.2</ele>
        <time>2022-08-29T10:11:05Z</time>
      </trkpt>
      <trkpt lat="45.92876" lon="3.70024">
        <ele>1191.1</ele>
        <time>2022-08-29T10:11:06Z</time>
      </trkpt>
      <trkpt lat="45.92876" lon="3.70024">
        <ele>1191.1</ele>
        <time>2022-08-29T10:11:07Z</time>
      </trkpt>
      <trkpt lat="45.92877" lon="3.70025">
        <ele>1191</ele>
        <time>2022-08-29T10:11:08Z</time>
      </trkpt>
      <trkpt lat="45.92878" lon="3.70025">
        <ele>1190.8</ele>
        <time>2022-08-29T10:11:09Z</time>
      </trkpt>
      <trkpt lat="45.92879" lon="3.70026">
        <ele>1190.7</ele>
        <time>2022-08-29T10:11:10Z</time>
      </trkpt>
      <trkpt lat="45.9288" lon="3.70026">
        <ele>1190.6</ele>
        <time>2022-08-29T10:11:11Z</time>
      </trkpt>
      <trkpt lat="45.9288" lon="3.70026">
        <ele>1190.5</ele>
        <time>2022-08-29T10:11:12Z</time>
      </trkpt>
      <trkpt lat="45.92882" lon="3.70028">
        <ele>1190.2</ele>
        <time>2022-08-29T10:11:13Z</time>
      </trkpt>
      <trkpt lat="45.92883" lon="3.70029">
        <ele>1190.1</ele>
        <time>2022-08-29T10:11:14Z</time>
      </trkpt>
      <trkpt lat="45.92883" lon="3.7003">
        <ele>1190</ele>
        <time>2022-08-29T10:11:15Z</time>
      </trkpt>
      <trkpt lat="45.92884" lon="3.70032">
        <ele>1189.8</ele>
        <time>2022-08-29T10:11:16Z</time>
      </trkpt>
      <trkpt lat="45.92884" lon="3.70034">
        <ele>1189.6</ele>
        <time>2022-08-29T10:11:17Z</time>
      </trkpt>
      <trkpt lat="45.92884" lon="3.70037">
        <ele>1189.4</ele>
        <time>2022-08-29T10:11:18Z</time>
      </trkpt>
      <trkpt lat="45.92883" lon="3.70039">
        <ele>1189.3</ele>
        <time>2022-08-29T10:11:19Z</time>
      </trkpt>
      <trkpt lat="45.92883" lon="3.70041">
        <ele>1189.1</ele>
        <time>2022-08-29T10:11:20Z</time>
      </trkpt>
      <trkpt lat="45.92882" lon="3.70043">
        <ele>1188.9</ele>
        <time>2022-08-29T10:11:21Z</time>
      </trkpt>
      <trkpt lat="45.92882" lon="3.70045">
        <ele>1188.8</ele>
        <time>2022-08-29T10:11:22Z</time>
      </trkpt>
      <trkpt lat="45.92882" lon="3.70046">
        <ele>1188.6</ele>
        <time>2022-08-29T10:11:23Z</time>
      </trkpt>
      <trkpt lat="45.92882" lon="3.70048">
        <ele>1188.5</ele>
        <time>2022-08-29T10:11:24Z</time>
      </trkpt>
      <trkpt lat="45.92882" lon="3.70049">
        <ele>1188.4</ele>
        <time>2022-08-29T10:11:25Z</time>
      </trkpt>
      <trkpt lat="45.92882" lon="3.70051">
        <ele>1188.3</ele>
        <time>2022-08-29T10:11:26Z</time>
      </trkpt>
      <trkpt lat="45.92882" lon="3.70053">
        <ele>1188.2</ele>
        <time>2022-08-29T10:11:27Z</time>
      </trkpt>
      <trkpt lat="45.92882" lon="3.70054">
        <ele>1188.1</ele>
        <time>2022-08-29T10:11:28Z</time>
      </trkpt>
      <trkpt lat="45.92882" lon="3.70056">
        <ele>1188</ele>
        <time>2022-08-29T10:11:29Z</time>
      </trkpt>
      <trkpt lat="45.92881" lon="3.70057">
        <ele>1187.9</ele>
        <time>2022-08-29T10:11:30Z</time>
      </trkpt>
      <trkpt lat="45.92881" lon="3.70058">
        <ele>1187.8</ele>
        <time>2022-08-29T10:11:31Z</time>
      </trkpt>
      <trkpt lat="45.92881" lon="3.70059">
        <ele>1187.8</ele>
        <time>2022-08-29T10:11:32Z</time>
      </trkpt>
      <trkpt lat="45.92881" lon="3.7006">
        <ele>1187.7</ele>
        <time>2022-08-29T10:11:33Z</time>
      </trkpt>
      <trkpt lat="45.92881" lon="3.70061">
        <ele>1187.7</ele>
        <time>2022-08-29T10:11:34Z</time>
      </trkpt>
      <trkpt lat="45.92881" lon="3.70062">
        <ele>1187.6</ele>
        <time>2022-08-29T10:11:35Z</time>
      </trkpt>
      <trkpt lat="45.92881" lon="3.70063">
        <ele>1187.5</ele>
        <time>2022-08-29T10:11:36Z</time>
      </trkpt>
      <trkpt lat="45.92881" lon="3.70064">
        <ele>1187.5</ele>
        <time>2022-08-29T10:11:37Z</time>
      </trkpt>
      <trkpt lat="45.92881" lon="3.70066">
        <ele>1187.4</ele>
        <time>2022-08-29T10:11:38Z</time>
      </trkpt>
      <trkpt lat="45.92882" lon="3.70069">
        <ele>1187.2</ele>
        <time>2022-08-29T10:11:39Z</time>
      </trkpt>
      <trkpt lat="45.92882" lon="3.7007">
        <ele>1187.2</ele>
        <time>2022-08-29T10:11:40Z</time>
      </trkpt>
      <trkpt lat="45.92882" lon="3.70071">
        <ele>1187.1</ele>
        <time>2022-08-29T10:11:41Z</time>
      </trkpt>
      <trkpt lat="45.92882" lon="3.70073">
        <ele>1187</ele>
        <time>2022-08-29T10:11:42Z</time>
      </trkpt>
      <trkpt lat="45.92881" lon="3.70075">
        <ele>1187</ele>
        <time>2022-08-29T10:11:43Z</time>
      </trkpt>
      <trkpt lat="45.92881" lon="3.70076">
        <ele>1186.9</ele>
        <time>2022-08-29T10:11:44Z</time>
      </trkpt>
      <trkpt lat="45.92881" lon="3.70078">
        <ele>1186.8</ele>
        <time>2022-08-29T10:11:45Z</time>
      </trkpt>
      <trkpt lat="45.92881" lon="3.7008">
        <ele>1186.7</ele>
        <time>2022-08-29T10:11:46Z</time>
      </trkpt>
      <trkpt lat="45.92882" lon="3.70082">
        <ele>1186.6</ele>
        <time>2022-08-29T10:11:47Z</time>
      </trkpt>
      <trkpt lat="45.92882" lon="3.70083">
        <ele>1186.6</ele>
        <time>2022-08-29T10:11:48Z</time>
      </trkpt>
      <trkpt lat="45.92882" lon="3.70085">
        <ele>1186.5</ele>
        <time>2022-08-29T10:11:49Z</time>
      </trkpt>
      <trkpt lat="45.92882" lon="3.70086">
        <ele>1186.4</ele>
        <time>2022-08-29T10:11:50Z</time>
      </trkpt>
      <trkpt lat="45.92882" lon="3.70089">
        <ele>1186.3</ele>
        <time>2022-08-29T10:11:51Z</time>
      </trkpt>
      <trkpt lat="45.92881" lon="3.7009">
        <ele>1186.2</ele>
        <time>2022-08-29T10:11:52Z</time>
      </trkpt>
      <trkpt lat="45.92881" lon="3.70092">
        <ele>1186.2</ele>
        <time>2022-08-29T10:11:53Z</time>
      </trkpt>
      <trkpt lat="45.92881" lon="3.70093">
        <ele>1186.1</ele>
        <time>2022-08-29T10:11:54Z</time>
      </trkpt>
      <trkpt lat="45.92881" lon="3.70094">
        <ele>1186</ele>
        <time>2022-08-29T10:11:55Z</time>
      </trkpt>
      <trkpt lat="45.92881" lon="3.70096">
        <ele>1185.9</ele>
        <time>2022-08-29T10:11:56Z</time>
      </trkpt>
      <trkpt lat="45.92881" lon="3.70098">
        <ele>1185.8</ele>
        <time>2022-08-29T10:11:57Z</time>
      </trkpt>
      <trkpt lat="45.92881" lon="3.70101">
        <ele>1185.7</ele>
        <time>2022-08-29T10:11:58Z</time>
      </trkpt>
      <trkpt lat="45.9288" lon="3.70103">
        <ele>1185.6</ele>
        <time>2022-08-29T10:11:59Z</time>
      </trkpt>
      <trkpt lat="45.9288" lon="3.70105">
        <ele>1185.5</ele>
        <time>2022-08-29T10:12:00Z</time>
      </trkpt>
      <trkpt lat="45.9288" lon="3.7011">
        <ele>1185.3</ele>
        <time>2022-08-29T10:12:01Z</time>
      </trkpt>
      <trkpt lat="45.9288" lon="3.70111">
        <ele>1185.2</ele>
        <time>2022-08-29T10:12:02Z</time>
      </trkpt>
      <trkpt lat="45.92879" lon="3.70115">
        <ele>1185</ele>
        <time>2022-08-29T10:12:03Z</time>
      </trkpt>
      <trkpt lat="45.92879" lon="3.70116">
        <ele>1185</ele>
        <time>2022-08-29T10:12:04Z</time>
      </trkpt>
      <trkpt lat="45.92878" lon="3.70121">
        <ele>1184.7</ele>
        <time>2022-08-29T10:12:05Z</time>
      </trkpt>
      <trkpt lat="45.92878" lon="3.70122">
        <ele>1184.6</ele>
        <time>2022-08-29T10:12:06Z</time>
      </trkpt>
      <trkpt lat="45.92877" lon="3.70127">
        <ele>1184.4</ele>
        <time>2022-08-29T10:12:07Z</time>
      </trkpt>
      <trkpt lat="45.92876" lon="3.70128">
        <ele>1184.3</ele>
        <time>2022-08-29T10:12:08Z</time>
      </trkpt>
      <trkpt lat="45.92875" lon="3.70132">
        <ele>1184</ele>
        <time>2022-08-29T10:12:09Z</time>
      </trkpt>
      <trkpt lat="45.92874" lon="3.70133">
        <ele>1184</ele>
        <time>2022-08-29T10:12:10Z</time>
      </trkpt>
      <trkpt lat="45.92873" lon="3.70135">
        <ele>1183.8</ele>
        <time>2022-08-29T10:12:11Z</time>
      </trkpt>
      <trkpt lat="45.92872" lon="3.70136">
        <ele>1183.7</ele>
        <time>2022-08-29T10:12:12Z</time>
      </trkpt>
      <trkpt lat="45.92871" lon="3.70138">
        <ele>1183.6</ele>
        <time>2022-08-29T10:12:13Z</time>
      </trkpt>
      <trkpt lat="45.92871" lon="3.7014">
        <ele>1183.5</ele>
        <time>2022-08-29T10:12:14Z</time>
      </trkpt>
      <trkpt lat="45.9287" lon="3.70141">
        <ele>1183.3</ele>
        <time>2022-08-29T10:12:15Z</time>
      </trkpt>
      <trkpt lat="45.92869" lon="3.70143">
        <ele>1183.2</ele>
        <time>2022-08-29T10:12:16Z</time>
      </trkpt>
      <trkpt lat="45.92869" lon="3.70145">
        <ele>1183.1</ele>
        <time>2022-08-29T10:12:17Z</time>
      </trkpt>
      <trkpt lat="45.92869" lon="3.70147">
        <ele>1183</ele>
        <time>2022-08-29T10:12:18Z</time>
      </trkpt>
      <trkpt lat="45.92868" lon="3.70148">
        <ele>1182.9</ele>
        <time>2022-08-29T10:12:19Z</time>
      </trkpt>
      <trkpt lat="45.92868" lon="3.7015">
        <ele>1182.8</ele>
        <time>2022-08-29T10:12:20Z</time>
      </trkpt>
      <trkpt lat="45.92869" lon="3.70152">
        <ele>1182.7</ele>
        <time>2022-08-29T10:12:21Z</time>
      </trkpt>
      <trkpt lat="45.92869" lon="3.70153">
        <ele>1182.6</ele>
        <time>2022-08-29T10:12:22Z</time>
      </trkpt>
      <trkpt lat="45.92868" lon="3.70154">
        <ele>1182.5</ele>
        <time>2022-08-29T10:12:23Z</time>
      </trkpt>
      <trkpt lat="45.92868" lon="3.70156">
        <ele>1182.4</ele>
        <time>2022-08-29T10:12:24Z</time>
      </trkpt>
      <trkpt lat="45.92868" lon="3.70158">
        <ele>1182.3</ele>
        <time>2022-08-29T10:12:25Z</time>
      </trkpt>
      <trkpt lat="45.92868" lon="3.7016">
        <ele>1182.1</ele>
        <time>2022-08-29T10:12:26Z</time>
      </trkpt>
      <trkpt lat="45.92867" lon="3.70162">
        <ele>1182</ele>
        <time>2022-08-29T10:12:27Z</time>
      </trkpt>
      <trkpt lat="45.92866" lon="3.70164">
        <ele>1181.9</ele>
        <time>2022-08-29T10:12:28Z</time>
      </trkpt>
      <trkpt lat="45.92865" lon="3.70165">
        <ele>1181.8</ele>
        <time>2022-08-29T10:12:29Z</time>
      </trkpt>
      <trkpt lat="45.92865" lon="3.70167">
        <ele>1181.7</ele>
        <time>2022-08-29T10:12:30Z</time>
      </trkpt>
      <trkpt lat="45.92864" lon="3.7017">
        <ele>1181.5</ele>
        <time>2022-08-29T10:12:31Z</time>
      </trkpt>
      <trkpt lat="45.92863" lon="3.70174">
        <ele>1181.3</ele>
        <time>2022-08-29T10:12:32Z</time>
      </trkpt>
      <trkpt lat="45.92862" lon="3.70175">
        <ele>1181.2</ele>
        <time>2022-08-29T10:12:33Z</time>
      </trkpt>
      <trkpt lat="45.92861" lon="3.70178">
        <ele>1181.1</ele>
        <time>2022-08-29T10:12:34Z</time>
      </trkpt>
      <trkpt lat="45.92861" lon="3.7018">
        <ele>1181</ele>
        <time>2022-08-29T10:12:35Z</time>
      </trkpt>
      <trkpt lat="45.92861" lon="3.70182">
        <ele>1180.9</ele>
        <time>2022-08-29T10:12:36Z</time>
      </trkpt>
      <trkpt lat="45.92861" lon="3.70183">
        <ele>1180.8</ele>
        <time>2022-08-29T10:12:37Z</time>
      </trkpt>
      <trkpt lat="45.92861" lon="3.70185">
        <ele>1180.7</ele>
        <time>2022-08-29T10:12:38Z</time>
      </trkpt>
      <trkpt lat="45.92861" lon="3.70186">
        <ele>1180.6</ele>
        <time>2022-08-29T10:12:39Z</time>
      </trkpt>
      <trkpt lat="45.92861" lon="3.70188">
        <ele>1180.6</ele>
        <time>2022-08-29T10:12:40Z</time>
      </trkpt>
      <trkpt lat="45.92861" lon="3.70189">
        <ele>1180.5</ele>
        <time>2022-08-29T10:12:41Z</time>
      </trkpt>
      <trkpt lat="45.9286" lon="3.7019">
        <ele>1180.5</ele>
        <time>2022-08-29T10:12:42Z</time>
      </trkpt>
      <trkpt lat="45.92859" lon="3.70192">
        <ele>1180.4</ele>
        <time>2022-08-29T10:12:43Z</time>
      </trkpt>
      <trkpt lat="45.92859" lon="3.70193">
        <ele>1180.3</ele>
        <time>2022-08-29T10:12:44Z</time>
      </trkpt>
      <trkpt lat="45.92858" lon="3.70195">
        <ele>1180.2</ele>
        <time>2022-08-29T10:12:45Z</time>
      </trkpt>
      <trkpt lat="45.92857" lon="3.70198">
        <ele>1180.1</ele>
        <time>2022-08-29T10:12:46Z</time>
      </trkpt>
      <trkpt lat="45.92856" lon="3.702">
        <ele>1180</ele>
        <time>2022-08-29T10:12:47Z</time>
      </trkpt>
      <trkpt lat="45.92855" lon="3.70201">
        <ele>1179.9</ele>
        <time>2022-08-29T10:12:48Z</time>
      </trkpt>
      <trkpt lat="45.92853" lon="3.70204">
        <ele>1179.8</ele>
        <time>2022-08-29T10:12:49Z</time>
      </trkpt>
      <trkpt lat="45.92853" lon="3.70205">
        <ele>1179.8</ele>
        <time>2022-08-29T10:12:50Z</time>
      </trkpt>
      <trkpt lat="45.92852" lon="3.70206">
        <ele>1179.7</ele>
        <time>2022-08-29T10:12:51Z</time>
      </trkpt>
      <trkpt lat="45.92852" lon="3.70208">
        <ele>1179.7</ele>
        <time>2022-08-29T10:12:52Z</time>
      </trkpt>
      <trkpt lat="45.92851" lon="3.7021">
        <ele>1179.6</ele>
        <time>2022-08-29T10:12:53Z</time>
      </trkpt>
      <trkpt lat="45.9285" lon="3.70212">
        <ele>1179.5</ele>
        <time>2022-08-29T10:12:54Z</time>
      </trkpt>
      <trkpt lat="45.9285" lon="3.70214">
        <ele>1179.4</ele>
        <time>2022-08-29T10:12:55Z</time>
      </trkpt>
      <trkpt lat="45.92849" lon="3.70216">
        <ele>1179.4</ele>
        <time>2022-08-29T10:12:56Z</time>
      </trkpt>
      <trkpt lat="45.92849" lon="3.70218">
        <ele>1179.3</ele>
        <time>2022-08-29T10:12:57Z</time>
      </trkpt>
      <trkpt lat="45.92849" lon="3.7022">
        <ele>1179.2</ele>
        <time>2022-08-29T10:12:58Z</time>
      </trkpt>
      <trkpt lat="45.92849" lon="3.70223">
        <ele>1179.1</ele>
        <time>2022-08-29T10:12:59Z</time>
      </trkpt>
      <trkpt lat="45.92849" lon="3.70224">
        <ele>1179.1</ele>
        <time>2022-08-29T10:13:00Z</time>
      </trkpt>
      <trkpt lat="45.92849" lon="3.70225">
        <ele>1179</ele>
        <time>2022-08-29T10:13:01Z</time>
      </trkpt>
      <trkpt lat="45.92849" lon="3.70226">
        <ele>1179</ele>
        <time>2022-08-29T10:13:02Z</time>
      </trkpt>
      <trkpt lat="45.92849" lon="3.70228">
        <ele>1179</ele>
        <time>2022-08-29T10:13:03Z</time>
      </trkpt>
      <trkpt lat="45.92849" lon="3.70229">
        <ele>1178.9</ele>
        <time>2022-08-29T10:13:04Z</time>
      </trkpt>
      <trkpt lat="45.92849" lon="3.70231">
        <ele>1178.9</ele>
        <time>2022-08-29T10:13:05Z</time>
      </trkpt>
      <trkpt lat="45.92849" lon="3.70232">
        <ele>1178.8</ele>
        <time>2022-08-29T10:13:06Z</time>
      </trkpt>
      <trkpt lat="45.92848" lon="3.70233">
        <ele>1178.8</ele>
        <time>2022-08-29T10:13:07Z</time>
      </trkpt>
      <trkpt lat="45.92847" lon="3.70234">
        <ele>1178.7</ele>
        <time>2022-08-29T10:13:08Z</time>
      </trkpt>
      <trkpt lat="45.92847" lon="3.70236">
        <ele>1178.6</ele>
        <time>2022-08-29T10:13:09Z</time>
      </trkpt>
      <trkpt lat="45.92846" lon="3.70237">
        <ele>1178.6</ele>
        <time>2022-08-29T10:13:10Z</time>
      </trkpt>
      <trkpt lat="45.92845" lon="3.70239">
        <ele>1178.5</ele>
        <time>2022-08-29T10:13:11Z</time>
      </trkpt>
      <trkpt lat="45.92845" lon="3.7024">
        <ele>1178.5</ele>
        <time>2022-08-29T10:13:12Z</time>
      </trkpt>
      <trkpt lat="45.92844" lon="3.70242">
        <ele>1178.4</ele>
        <time>2022-08-29T10:13:13Z</time>
      </trkpt>
      <trkpt lat="45.92844" lon="3.70244">
        <ele>1178.3</ele>
        <time>2022-08-29T10:13:14Z</time>
      </trkpt>
      <trkpt lat="45.92843" lon="3.70246">
        <ele>1178.2</ele>
        <time>2022-08-29T10:13:15Z</time>
      </trkpt>
      <trkpt lat="45.92842" lon="3.70248">
        <ele>1178.1</ele>
        <time>2022-08-29T10:13:16Z</time>
      </trkpt>
      <trkpt lat="45.92841" lon="3.70249">
        <ele>1178.1</ele>
        <time>2022-08-29T10:13:17Z</time>
      </trkpt>
      <trkpt lat="45.9284" lon="3.70251">
        <ele>1178</ele>
        <time>2022-08-29T10:13:18Z</time>
      </trkpt>
      <trkpt lat="45.92839" lon="3.70254">
        <ele>1177.8</ele>
        <time>2022-08-29T10:13:19Z</time>
      </trkpt>
      <trkpt lat="45.92839" lon="3.70255">
        <ele>1177.8</ele>
        <time>2022-08-29T10:13:20Z</time>
      </trkpt>
      <trkpt lat="45.92839" lon="3.70257">
        <ele>1177.7</ele>
        <time>2022-08-29T10:13:21Z</time>
      </trkpt>
      <trkpt lat="45.92838" lon="3.7026">
        <ele>1177.6</ele>
        <time>2022-08-29T10:13:22Z</time>
      </trkpt>
      <trkpt lat="45.92838" lon="3.70261">
        <ele>1177.5</ele>
        <time>2022-08-29T10:13:23Z</time>
      </trkpt>
      <trkpt lat="45.92838" lon="3.70262">
        <ele>1177.5</ele>
        <time>2022-08-29T10:13:24Z</time>
      </trkpt>
      <trkpt lat="45.92838" lon="3.70266">
        <ele>1177.3</ele>
        <time>2022-08-29T10:13:25Z</time>
      </trkpt>
      <trkpt lat="45.92837" lon="3.70267">
        <ele>1177.3</ele>
        <time>2022-08-29T10:13:26Z</time>
      </trkpt>
      <trkpt lat="45.92837" lon="3.70268">
        <ele>1177.2</ele>
        <time>2022-08-29T10:13:27Z</time>
      </trkpt>
      <trkpt lat="45.92837" lon="3.70271">
        <ele>1177.1</ele>
        <time>2022-08-29T10:13:28Z</time>
      </trkpt>
      <trkpt lat="45.92837" lon="3.70273">
        <ele>1177</ele>
        <time>2022-08-29T10:13:29Z</time>
      </trkpt>
      <trkpt lat="45.92836" lon="3.70275">
        <ele>1176.9</ele>
        <time>2022-08-29T10:13:30Z</time>
      </trkpt>
      <trkpt lat="45.92836" lon="3.70277">
        <ele>1176.8</ele>
        <time>2022-08-29T10:13:31Z</time>
      </trkpt>
      <trkpt lat="45.92836" lon="3.70279">
        <ele>1176.7</ele>
        <time>2022-08-29T10:13:32Z</time>
      </trkpt>
      <trkpt lat="45.92835" lon="3.7028">
        <ele>1176.6</ele>
        <time>2022-08-29T10:13:33Z</time>
      </trkpt>
      <trkpt lat="45.92835" lon="3.70281">
        <ele>1176.6</ele>
        <time>2022-08-29T10:13:34Z</time>
      </trkpt>
      <trkpt lat="45.92835" lon="3.70282">
        <ele>1176.5</ele>
        <time>2022-08-29T10:13:35Z</time>
      </trkpt>
      <trkpt lat="45.92834" lon="3.70283">
        <ele>1176.4</ele>
        <time>2022-08-29T10:13:36Z</time>
      </trkpt>
      <trkpt lat="45.92833" lon="3.70284">
        <ele>1176.3</ele>
        <time>2022-08-29T10:13:37Z</time>
      </trkpt>
      <trkpt lat="45.92832" lon="3.70287">
        <ele>1176.1</ele>
        <time>2022-08-29T10:13:38Z</time>
      </trkpt>
      <trkpt lat="45.92832" lon="3.70288">
        <ele>1176.1</ele>
        <time>2022-08-29T10:13:39Z</time>
      </trkpt>
      <trkpt lat="45.92832" lon="3.70289">
        <ele>1176</ele>
        <time>2022-08-29T10:13:40Z</time>
      </trkpt>
      <trkpt lat="45.92831" lon="3.70291">
        <ele>1175.9</ele>
        <time>2022-08-29T10:13:41Z</time>
      </trkpt>
      <trkpt lat="45.92831" lon="3.70293">
        <ele>1175.7</ele>
        <time>2022-08-29T10:13:42Z</time>
      </trkpt>
      <trkpt lat="45.92831" lon="3.70295">
        <ele>1175.6</ele>
        <time>2022-08-29T10:13:43Z</time>
      </trkpt>
      <trkpt lat="45.9283" lon="3.70298">
        <ele>1175.5</ele>
        <time>2022-08-29T10:13:44Z</time>
      </trkpt>
      <trkpt lat="45.9283" lon="3.70302">
        <ele>1175.2</ele>
        <time>2022-08-29T10:13:45Z</time>
      </trkpt>
      <trkpt lat="45.9283" lon="3.70304">
        <ele>1175</ele>
        <time>2022-08-29T10:13:46Z</time>
      </trkpt>
      <trkpt lat="45.92829" lon="3.70307">
        <ele>1174.8</ele>
        <time>2022-08-29T10:13:47Z</time>
      </trkpt>
      <trkpt lat="45.92829" lon="3.7031">
        <ele>1174.6</ele>
        <time>2022-08-29T10:13:48Z</time>
      </trkpt>
      <trkpt lat="45.92829" lon="3.70313">
        <ele>1174.4</ele>
        <time>2022-08-29T10:13:49Z</time>
      </trkpt>
      <trkpt lat="45.92829" lon="3.70314">
        <ele>1174.3</ele>
        <time>2022-08-29T10:13:50Z</time>
      </trkpt>
      <trkpt lat="45.92829" lon="3.70316">
        <ele>1174.2</ele>
        <time>2022-08-29T10:13:51Z</time>
      </trkpt>
      <trkpt lat="45.92829" lon="3.70317">
        <ele>1174</ele>
        <time>2022-08-29T10:13:52Z</time>
      </trkpt>
      <trkpt lat="45.92829" lon="3.70321">
        <ele>1173.8</ele>
        <time>2022-08-29T10:13:53Z</time>
      </trkpt>
      <trkpt lat="45.92829" lon="3.70322">
        <ele>1173.7</ele>
        <time>2022-08-29T10:13:54Z</time>
      </trkpt>
      <trkpt lat="45.92829" lon="3.70323">
        <ele>1173.6</ele>
        <time>2022-08-29T10:13:55Z</time>
      </trkpt>
      <trkpt lat="45.92828" lon="3.70325">
        <ele>1173.4</ele>
        <time>2022-08-29T10:13:56Z</time>
      </trkpt>
      <trkpt lat="45.92828" lon="3.70327">
        <ele>1173.3</ele>
        <time>2022-08-29T10:13:57Z</time>
      </trkpt>
      <trkpt lat="45.92829" lon="3.70331">
        <ele>1173</ele>
        <time>2022-08-29T10:13:58Z</time>
      </trkpt>
      <trkpt lat="45.92829" lon="3.70332">
        <ele>1172.9</ele>
        <time>2022-08-29T10:13:59Z</time>
      </trkpt>
      <trkpt lat="45.92829" lon="3.70334">
        <ele>1172.8</ele>
        <time>2022-08-29T10:14:00Z</time>
      </trkpt>
      <trkpt lat="45.92829" lon="3.70336">
        <ele>1172.6</ele>
        <time>2022-08-29T10:14:01Z</time>
      </trkpt>
      <trkpt lat="45.92829" lon="3.70338">
        <ele>1172.4</ele>
        <time>2022-08-29T10:14:02Z</time>
      </trkpt>
      <trkpt lat="45.9283" lon="3.70341">
        <ele>1172.1</ele>
        <time>2022-08-29T10:14:03Z</time>
      </trkpt>
      <trkpt lat="45.9283" lon="3.70343">
        <ele>1171.9</ele>
        <time>2022-08-29T10:14:04Z</time>
      </trkpt>
      <trkpt lat="45.9283" lon="3.70346">
        <ele>1171.6</ele>
        <time>2022-08-29T10:14:05Z</time>
      </trkpt>
      <trkpt lat="45.9283" lon="3.70347">
        <ele>1171.5</ele>
        <time>2022-08-29T10:14:06Z</time>
      </trkpt>
      <trkpt lat="45.9283" lon="3.70349">
        <ele>1171.4</ele>
        <time>2022-08-29T10:14:07Z</time>
      </trkpt>
      <trkpt lat="45.92829" lon="3.7035">
        <ele>1171.2</ele>
        <time>2022-08-29T10:14:08Z</time>
      </trkpt>
      <trkpt lat="45.92829" lon="3.70352">
        <ele>1171</ele>
        <time>2022-08-29T10:14:09Z</time>
      </trkpt>
      <trkpt lat="45.92828" lon="3.70354">
        <ele>1170.9</ele>
        <time>2022-08-29T10:14:10Z</time>
      </trkpt>
      <trkpt lat="45.92828" lon="3.70355">
        <ele>1170.7</ele>
        <time>2022-08-29T10:14:11Z</time>
      </trkpt>
      <trkpt lat="45.92828" lon="3.70357">
        <ele>1170.6</ele>
        <time>2022-08-29T10:14:12Z</time>
      </trkpt>
      <trkpt lat="45.92827" lon="3.70358">
        <ele>1170.4</ele>
        <time>2022-08-29T10:14:13Z</time>
      </trkpt>
      <trkpt lat="45.92826" lon="3.70361">
        <ele>1170.2</ele>
        <time>2022-08-29T10:14:14Z</time>
      </trkpt>
      <trkpt lat="45.92825" lon="3.70363">
        <ele>1170</ele>
        <time>2022-08-29T10:14:15Z</time>
      </trkpt>
      <trkpt lat="45.92824" lon="3.70365">
        <ele>1169.8</ele>
        <time>2022-08-29T10:14:16Z</time>
      </trkpt>
      <trkpt lat="45.92824" lon="3.70367">
        <ele>1169.6</ele>
        <time>2022-08-29T10:14:17Z</time>
      </trkpt>
      <trkpt lat="45.92824" lon="3.70369">
        <ele>1169.5</ele>
        <time>2022-08-29T10:14:18Z</time>
      </trkpt>
      <trkpt lat="45.92824" lon="3.70369">
        <ele>1169.4</ele>
        <time>2022-08-29T10:14:19Z</time>
      </trkpt>
      <trkpt lat="45.92824" lon="3.7037">
        <ele>1169.4</ele>
        <time>2022-08-29T10:14:20Z</time>
      </trkpt>
      <trkpt lat="45.92824" lon="3.7037">
        <ele>1169.4</ele>
        <time>2022-08-29T10:14:21Z</time>
      </trkpt>
      <trkpt lat="45.92825" lon="3.70371">
        <ele>1169.3</ele>
        <time>2022-08-29T10:14:22Z</time>
      </trkpt>
      <trkpt lat="45.92825" lon="3.70372">
        <ele>1169.2</ele>
        <time>2022-08-29T10:14:23Z</time>
      </trkpt>
      <trkpt lat="45.92826" lon="3.70374">
        <ele>1169</ele>
        <time>2022-08-29T10:14:24Z</time>
      </trkpt>
      <trkpt lat="45.92826" lon="3.70376">
        <ele>1168.9</ele>
        <time>2022-08-29T10:14:25Z</time>
      </trkpt>
      <trkpt lat="45.92826" lon="3.70378">
        <ele>1168.8</ele>
        <time>2022-08-29T10:14:26Z</time>
      </trkpt>
      <trkpt lat="45.92826" lon="3.7038">
        <ele>1168.7</ele>
        <time>2022-08-29T10:14:27Z</time>
      </trkpt>
      <trkpt lat="45.92825" lon="3.70383">
        <ele>1168.5</ele>
        <time>2022-08-29T10:14:28Z</time>
      </trkpt>
      <trkpt lat="45.92824" lon="3.70385">
        <ele>1168.4</ele>
        <time>2022-08-29T10:14:29Z</time>
      </trkpt>
      <trkpt lat="45.92824" lon="3.70386">
        <ele>1168.3</ele>
        <time>2022-08-29T10:14:30Z</time>
      </trkpt>
      <trkpt lat="45.92823" lon="3.7039">
        <ele>1168.1</ele>
        <time>2022-08-29T10:14:31Z</time>
      </trkpt>
      <trkpt lat="45.92823" lon="3.70392">
        <ele>1168.1</ele>
        <time>2022-08-29T10:14:32Z</time>
      </trkpt>
      <trkpt lat="45.92822" lon="3.70394">
        <ele>1168</ele>
        <time>2022-08-29T10:14:33Z</time>
      </trkpt>
      <trkpt lat="45.92822" lon="3.70395">
        <ele>1168</ele>
        <time>2022-08-29T10:14:34Z</time>
      </trkpt>
      <trkpt lat="45.92822" lon="3.70395">
        <ele>1167.9</ele>
        <time>2022-08-29T10:14:35Z</time>
      </trkpt>
      <trkpt lat="45.92822" lon="3.70396">
        <ele>1167.9</ele>
        <time>2022-08-29T10:14:36Z</time>
      </trkpt>
      <trkpt lat="45.92822" lon="3.70397">
        <ele>1167.9</ele>
        <time>2022-08-29T10:14:37Z</time>
      </trkpt>
      <trkpt lat="45.92822" lon="3.70398">
        <ele>1167.8</ele>
        <time>2022-08-29T10:14:38Z</time>
      </trkpt>
      <trkpt lat="45.92822" lon="3.704">
        <ele>1167.8</ele>
        <time>2022-08-29T10:14:39Z</time>
      </trkpt>
      <trkpt lat="45.92822" lon="3.70401">
        <ele>1167.7</ele>
        <time>2022-08-29T10:14:40Z</time>
      </trkpt>
      <trkpt lat="45.92822" lon="3.70403">
        <ele>1167.7</ele>
        <time>2022-08-29T10:14:41Z</time>
      </trkpt>
      <trkpt lat="45.92821" lon="3.70406">
        <ele>1167.6</ele>
        <time>2022-08-29T10:14:42Z</time>
      </trkpt>
      <trkpt lat="45.92821" lon="3.70408">
        <ele>1167.6</ele>
        <time>2022-08-29T10:14:43Z</time>
      </trkpt>
      <trkpt lat="45.92822" lon="3.7041">
        <ele>1167.5</ele>
        <time>2022-08-29T10:14:44Z</time>
      </trkpt>
      <trkpt lat="45.92822" lon="3.70413">
        <ele>1167.4</ele>
        <time>2022-08-29T10:14:45Z</time>
      </trkpt>
      <trkpt lat="45.92823" lon="3.70414">
        <ele>1167.4</ele>
        <time>2022-08-29T10:14:46Z</time>
      </trkpt>
      <trkpt lat="45.92823" lon="3.70415">
        <ele>1167.4</ele>
        <time>2022-08-29T10:14:47Z</time>
      </trkpt>
      <trkpt lat="45.92824" lon="3.70417">
        <ele>1167.4</ele>
        <time>2022-08-29T10:14:48Z</time>
      </trkpt>
      <trkpt lat="45.92824" lon="3.70419">
        <ele>1167.4</ele>
        <time>2022-08-29T10:14:49Z</time>
      </trkpt>
      <trkpt lat="45.92824" lon="3.7042">
        <ele>1167.3</ele>
        <time>2022-08-29T10:14:50Z</time>
      </trkpt>
      <trkpt lat="45.92825" lon="3.70421">
        <ele>1167.3</ele>
        <time>2022-08-29T10:14:51Z</time>
      </trkpt>
      <trkpt lat="45.92825" lon="3.70424">
        <ele>1167.3</ele>
        <time>2022-08-29T10:14:52Z</time>
      </trkpt>
      <trkpt lat="45.92825" lon="3.70425">
        <ele>1167.3</ele>
        <time>2022-08-29T10:14:53Z</time>
      </trkpt>
      <trkpt lat="45.92825" lon="3.70427">
        <ele>1167.3</ele>
        <time>2022-08-29T10:14:54Z</time>
      </trkpt>
      <trkpt lat="45.92825" lon="3.7043">
        <ele>1167.3</ele>
        <time>2022-08-29T10:14:55Z</time>
      </trkpt>
      <trkpt lat="45.92825" lon="3.70432">
        <ele>1167.3</ele>
        <time>2022-08-29T10:14:56Z</time>
      </trkpt>
      <trkpt lat="45.92825" lon="3.70434">
        <ele>1167.3</ele>
        <time>2022-08-29T10:14:57Z</time>
      </trkpt>
      <trkpt lat="45.92825" lon="3.70437">
        <ele>1167.3</ele>
        <time>2022-08-29T10:14:58Z</time>
      </trkpt>
      <trkpt lat="45.92825" lon="3.70441">
        <ele>1167.3</ele>
        <time>2022-08-29T10:14:59Z</time>
      </trkpt>
      <trkpt lat="45.92825" lon="3.70442">
        <ele>1167.3</ele>
        <time>2022-08-29T10:15:00Z</time>
      </trkpt>
      <trkpt lat="45.92826" lon="3.70444">
        <ele>1167.3</ele>
        <time>2022-08-29T10:15:01Z</time>
      </trkpt>
      <trkpt lat="45.92826" lon="3.70446">
        <ele>1167.3</ele>
        <time>2022-08-29T10:15:02Z</time>
      </trkpt>
      <trkpt lat="45.92827" lon="3.70448">
        <ele>1167.4</ele>
        <time>2022-08-29T10:15:03Z</time>
      </trkpt>
      <trkpt lat="45.92827" lon="3.7045">
        <ele>1167.4</ele>
        <time>2022-08-29T10:15:04Z</time>
      </trkpt>
      <trkpt lat="45.92827" lon="3.70453">
        <ele>1167.4</ele>
        <time>2022-08-29T10:15:05Z</time>
      </trkpt>
      <trkpt lat="45.92827" lon="3.70454">
        <ele>1167.4</ele>
        <time>2022-08-29T10:15:06Z</time>
      </trkpt>
      <trkpt lat="45.92827" lon="3.70456">
        <ele>1167.4</ele>
        <time>2022-08-29T10:15:07Z</time>
      </trkpt>
      <trkpt lat="45.92827" lon="3.70457">
        <ele>1167.5</ele>
        <time>2022-08-29T10:15:08Z</time>
      </trkpt>
      <trkpt lat="45.92827" lon="3.70459">
        <ele>1167.5</ele>
        <time>2022-08-29T10:15:09Z</time>
      </trkpt>
      <trkpt lat="45.92828" lon="3.70461">
        <ele>1167.5</ele>
        <time>2022-08-29T10:15:11Z</time>
      </trkpt>
      <trkpt lat="45.92828" lon="3.70464">
        <ele>1167.6</ele>
        <time>2022-08-29T10:15:12Z</time>
      </trkpt>
      <trkpt lat="45.92829" lon="3.70465">
        <ele>1167.6</ele>
        <time>2022-08-29T10:15:13Z</time>
      </trkpt>
      <trkpt lat="45.92829" lon="3.70467">
        <ele>1167.6</ele>
        <time>2022-08-29T10:15:14Z</time>
      </trkpt>
      <trkpt lat="45.92829" lon="3.70468">
        <ele>1167.7</ele>
        <time>2022-08-29T10:15:15Z</time>
      </trkpt>
      <trkpt lat="45.92829" lon="3.7047">
        <ele>1167.7</ele>
        <time>2022-08-29T10:15:16Z</time>
      </trkpt>
      <trkpt lat="45.92829" lon="3.70473">
        <ele>1167.7</ele>
        <time>2022-08-29T10:15:17Z</time>
      </trkpt>
      <trkpt lat="45.92829" lon="3.70474">
        <ele>1167.8</ele>
        <time>2022-08-29T10:15:18Z</time>
      </trkpt>
      <trkpt lat="45.92829" lon="3.70475">
        <ele>1167.8</ele>
        <time>2022-08-29T10:15:19Z</time>
      </trkpt>
      <trkpt lat="45.92829" lon="3.70477">
        <ele>1167.8</ele>
        <time>2022-08-29T10:15:20Z</time>
      </trkpt>
      <trkpt lat="45.92829" lon="3.70479">
        <ele>1167.9</ele>
        <time>2022-08-29T10:15:21Z</time>
      </trkpt>
      <trkpt lat="45.92829" lon="3.70482">
        <ele>1167.9</ele>
        <time>2022-08-29T10:15:22Z</time>
      </trkpt>
      <trkpt lat="45.92829" lon="3.70484">
        <ele>1168</ele>
        <time>2022-08-29T10:15:23Z</time>
      </trkpt>
      <trkpt lat="45.9283" lon="3.70486">
        <ele>1168</ele>
        <time>2022-08-29T10:15:24Z</time>
      </trkpt>
      <trkpt lat="45.9283" lon="3.70489">
        <ele>1168.1</ele>
        <time>2022-08-29T10:15:25Z</time>
      </trkpt>
      <trkpt lat="45.9283" lon="3.70491">
        <ele>1168.1</ele>
        <time>2022-08-29T10:15:26Z</time>
      </trkpt>
      <trkpt lat="45.9283" lon="3.70493">
        <ele>1168.2</ele>
        <time>2022-08-29T10:15:27Z</time>
      </trkpt>
      <trkpt lat="45.9283" lon="3.70496">
        <ele>1168.2</ele>
        <time>2022-08-29T10:15:28Z</time>
      </trkpt>
      <trkpt lat="45.9283" lon="3.70498">
        <ele>1168.2</ele>
        <time>2022-08-29T10:15:29Z</time>
      </trkpt>
      <trkpt lat="45.9283" lon="3.705">
        <ele>1168.3</ele>
        <time>2022-08-29T10:15:30Z</time>
      </trkpt>
      <trkpt lat="45.9283" lon="3.70502">
        <ele>1168.3</ele>
        <time>2022-08-29T10:15:31Z</time>
      </trkpt>
      <trkpt lat="45.9283" lon="3.70504">
        <ele>1168.4</ele>
        <time>2022-08-29T10:15:32Z</time>
      </trkpt>
      <trkpt lat="45.9283" lon="3.70506">
        <ele>1168.4</ele>
        <time>2022-08-29T10:15:33Z</time>
      </trkpt>
      <trkpt lat="45.9283" lon="3.70508">
        <ele>1168.5</ele>
        <time>2022-08-29T10:15:34Z</time>
      </trkpt>
      <trkpt lat="45.9283" lon="3.7051">
        <ele>1168.5</ele>
        <time>2022-08-29T10:15:35Z</time>
      </trkpt>
      <trkpt lat="45.92829" lon="3.70512">
        <ele>1168.6</ele>
        <time>2022-08-29T10:15:36Z</time>
      </trkpt>
      <trkpt lat="45.92829" lon="3.70514">
        <ele>1168.6</ele>
        <time>2022-08-29T10:15:37Z</time>
      </trkpt>
      <trkpt lat="45.92829" lon="3.70516">
        <ele>1168.7</ele>
        <time>2022-08-29T10:15:38Z</time>
      </trkpt>
      <trkpt lat="45.92828" lon="3.70517">
        <ele>1168.8</ele>
        <time>2022-08-29T10:15:39Z</time>
      </trkpt>
      <trkpt lat="45.92828" lon="3.70519">
        <ele>1168.8</ele>
        <time>2022-08-29T10:15:40Z</time>
      </trkpt>
      <trkpt lat="45.92828" lon="3.7052">
        <ele>1168.8</ele>
        <time>2022-08-29T10:15:41Z</time>
      </trkpt>
      <trkpt lat="45.92827" lon="3.70521">
        <ele>1168.9</ele>
        <time>2022-08-29T10:15:42Z</time>
      </trkpt>
      <trkpt lat="45.92826" lon="3.70522">
        <ele>1168.9</ele>
        <time>2022-08-29T10:15:43Z</time>
      </trkpt>
      <trkpt lat="45.92826" lon="3.70524">
        <ele>1169</ele>
        <time>2022-08-29T10:15:44Z</time>
      </trkpt>
      <trkpt lat="45.92825" lon="3.70525">
        <ele>1169</ele>
        <time>2022-08-29T10:15:45Z</time>
      </trkpt>
      <trkpt lat="45.92824" lon="3.70526">
        <ele>1169.1</ele>
        <time>2022-08-29T10:15:46Z</time>
      </trkpt>
      <trkpt lat="45.92824" lon="3.70528">
        <ele>1169.1</ele>
        <time>2022-08-29T10:15:47Z</time>
      </trkpt>
      <trkpt lat="45.92824" lon="3.70531">
        <ele>1169.2</ele>
        <time>2022-08-29T10:15:48Z</time>
      </trkpt>
      <trkpt lat="45.92824" lon="3.70533">
        <ele>1169.3</ele>
        <time>2022-08-29T10:15:49Z</time>
      </trkpt>
      <trkpt lat="45.92824" lon="3.70535">
        <ele>1169.3</ele>
        <time>2022-08-29T10:15:50Z</time>
      </trkpt>
      <trkpt lat="45.92824" lon="3.70538">
        <ele>1169.4</ele>
        <time>2022-08-29T10:15:51Z</time>
      </trkpt>
      <trkpt lat="45.92824" lon="3.70539">
        <ele>1169.4</ele>
        <time>2022-08-29T10:15:52Z</time>
      </trkpt>
      <trkpt lat="45.92824" lon="3.7054">
        <ele>1169.5</ele>
        <time>2022-08-29T10:15:53Z</time>
      </trkpt>
      <trkpt lat="45.92825" lon="3.70542">
        <ele>1169.5</ele>
        <time>2022-08-29T10:15:54Z</time>
      </trkpt>
      <trkpt lat="45.92825" lon="3.70544">
        <ele>1169.6</ele>
        <time>2022-08-29T10:15:55Z</time>
      </trkpt>
      <trkpt lat="45.92825" lon="3.70547">
        <ele>1169.6</ele>
        <time>2022-08-29T10:15:56Z</time>
      </trkpt>
      <trkpt lat="45.92826" lon="3.70549">
        <ele>1169.7</ele>
        <time>2022-08-29T10:15:57Z</time>
      </trkpt>
      <trkpt lat="45.92826" lon="3.70551">
        <ele>1169.8</ele>
        <time>2022-08-29T10:15:58Z</time>
      </trkpt>
      <trkpt lat="45.92827" lon="3.70553">
        <ele>1169.8</ele>
        <time>2022-08-29T10:15:59Z</time>
      </trkpt>
      <trkpt lat="45.92828" lon="3.70554">
        <ele>1169.9</ele>
        <time>2022-08-29T10:16:00Z</time>
      </trkpt>
      <trkpt lat="45.92829" lon="3.70556">
        <ele>1170</ele>
        <time>2022-08-29T10:16:01Z</time>
      </trkpt>
      <trkpt lat="45.9283" lon="3.70558">
        <ele>1170</ele>
        <time>2022-08-29T10:16:02Z</time>
      </trkpt>
      <trkpt lat="45.9283" lon="3.7056">
        <ele>1170.1</ele>
        <time>2022-08-29T10:16:03Z</time>
      </trkpt>
      <trkpt lat="45.92831" lon="3.70562">
        <ele>1170.2</ele>
        <time>2022-08-29T10:16:04Z</time>
      </trkpt>
      <trkpt lat="45.92831" lon="3.70564">
        <ele>1170.2</ele>
        <time>2022-08-29T10:16:05Z</time>
      </trkpt>
      <trkpt lat="45.92832" lon="3.70565">
        <ele>1170.3</ele>
        <time>2022-08-29T10:16:06Z</time>
      </trkpt>
      <trkpt lat="45.92832" lon="3.70567">
        <ele>1170.3</ele>
        <time>2022-08-29T10:16:07Z</time>
      </trkpt>
      <trkpt lat="45.92832" lon="3.70568">
        <ele>1170.4</ele>
        <time>2022-08-29T10:16:08Z</time>
      </trkpt>
      <trkpt lat="45.92833" lon="3.7057">
        <ele>1170.4</ele>
        <time>2022-08-29T10:16:09Z</time>
      </trkpt>
      <trkpt lat="45.92833" lon="3.7057">
        <ele>1170.4</ele>
        <time>2022-08-29T10:16:10Z</time>
      </trkpt>
      <trkpt lat="45.92833" lon="3.70571">
        <ele>1170.5</ele>
        <time>2022-08-29T10:16:11Z</time>
      </trkpt>
      <trkpt lat="45.92832" lon="3.70572">
        <ele>1170.5</ele>
        <time>2022-08-29T10:16:12Z</time>
      </trkpt>
      <trkpt lat="45.92832" lon="3.70573">
        <ele>1170.5</ele>
        <time>2022-08-29T10:16:13Z</time>
      </trkpt>
      <trkpt lat="45.92833" lon="3.70574">
        <ele>1170.6</ele>
        <time>2022-08-29T10:16:14Z</time>
      </trkpt>
      <trkpt lat="45.92833" lon="3.70575">
        <ele>1170.6</ele>
        <time>2022-08-29T10:16:15Z</time>
      </trkpt>
      <trkpt lat="45.92833" lon="3.70576">
        <ele>1170.6</ele>
        <time>2022-08-29T10:16:16Z</time>
      </trkpt>
      <trkpt lat="45.92834" lon="3.70578">
        <ele>1170.7</ele>
        <time>2022-08-29T10:16:17Z</time>
      </trkpt>
      <trkpt lat="45.92835" lon="3.70582">
        <ele>1170.8</ele>
        <time>2022-08-29T10:16:19Z</time>
      </trkpt>
      <trkpt lat="45.92835" lon="3.70584">
        <ele>1170.9</ele>
        <time>2022-08-29T10:16:20Z</time>
      </trkpt>
      <trkpt lat="45.92546" lon="3.71143">
        <ele>1181.7</ele>
        <time>2022-08-29T10:23:32Z</time>
      </trkpt>
      <trkpt lat="45.9255" lon="3.71156">
        <ele>1181.5</ele>
        <time>2022-08-29T10:23:34Z</time>
      </trkpt>
      <trkpt lat="45.92551" lon="3.71162">
        <ele>1181.4</ele>
        <time>2022-08-29T10:23:35Z</time>
      </trkpt>
      <trkpt lat="45.92552" lon="3.71164">
        <ele>1181.3</ele>
        <time>2022-08-29T10:23:36Z</time>
      </trkpt>
      <trkpt lat="45.92553" lon="3.71167">
        <ele>1181.3</ele>
        <time>2022-08-29T10:23:37Z</time>
      </trkpt>
      <trkpt lat="45.92554" lon="3.71168">
        <ele>1181.2</ele>
        <time>2022-08-29T10:23:38Z</time>
      </trkpt>
      <trkpt lat="45.92554" lon="3.7117">
        <ele>1181.2</ele>
        <time>2022-08-29T10:23:39Z</time>
      </trkpt>
      <trkpt lat="45.92555" lon="3.71172">
        <ele>1181.2</ele>
        <time>2022-08-29T10:23:40Z</time>
      </trkpt>
      <trkpt lat="45.92555" lon="3.71174">
        <ele>1181.1</ele>
        <time>2022-08-29T10:23:41Z</time>
      </trkpt>
      <trkpt lat="45.92555" lon="3.71175">
        <ele>1181.1</ele>
        <time>2022-08-29T10:23:42Z</time>
      </trkpt>
      <trkpt lat="45.92555" lon="3.71176">
        <ele>1181.1</ele>
        <time>2022-08-29T10:23:43Z</time>
      </trkpt>
      <trkpt lat="45.92555" lon="3.71177">
        <ele>1181.1</ele>
        <time>2022-08-29T10:23:44Z</time>
      </trkpt>
      <trkpt lat="45.92554" lon="3.71177">
        <ele>1181.1</ele>
        <time>2022-08-29T10:23:45Z</time>
      </trkpt>
      <trkpt lat="45.92554" lon="3.71177">
        <ele>1181.1</ele>
        <time>2022-08-29T10:23:46Z</time>
      </trkpt>
      <trkpt lat="45.92554" lon="3.71178">
        <ele>1181</ele>
        <time>2022-08-29T10:23:47Z</time>
      </trkpt>
      <trkpt lat="45.92554" lon="3.71177">
        <ele>1181</ele>
        <time>2022-08-29T10:23:48Z</time>
      </trkpt>
      <trkpt lat="45.92554" lon="3.71177">
        <ele>1181</ele>
        <time>2022-08-29T10:23:49Z</time>
      </trkpt>
      <trkpt lat="45.92554" lon="3.71177">
        <ele>1181</ele>
        <time>2022-08-29T10:23:50Z</time>
      </trkpt>
      <trkpt lat="45.92555" lon="3.71177">
        <ele>1181</ele>
        <time>2022-08-29T10:23:51Z</time>
      </trkpt>
      <trkpt lat="45.92556" lon="3.71177">
        <ele>1181</ele>
        <time>2022-08-29T10:23:52Z</time>
      </trkpt>
      <trkpt lat="45.92556" lon="3.71178">
        <ele>1181</ele>
        <time>2022-08-29T10:23:53Z</time>
      </trkpt>
      <trkpt lat="45.92557" lon="3.71178">
        <ele>1180.9</ele>
        <time>2022-08-29T10:23:54Z</time>
      </trkpt>
      <trkpt lat="45.92557" lon="3.71178">
        <ele>1180.9</ele>
        <time>2022-08-29T10:23:55Z</time>
      </trkpt>
      <trkpt lat="45.92556" lon="3.71179">
        <ele>1180.9</ele>
        <time>2022-08-29T10:23:56Z</time>
      </trkpt>
      <trkpt lat="45.92556" lon="3.71179">
        <ele>1180.9</ele>
        <time>2022-08-29T10:23:57Z</time>
      </trkpt>
      <trkpt lat="45.92556" lon="3.71179">
        <ele>1180.9</ele>
        <time>2022-08-29T10:23:58Z</time>
      </trkpt>
      <trkpt lat="45.92555" lon="3.7118">
        <ele>1180.9</ele>
        <time>2022-08-29T10:23:59Z</time>
      </trkpt>
      <trkpt lat="45.92555" lon="3.71181">
        <ele>1180.9</ele>
        <time>2022-08-29T10:24:00Z</time>
      </trkpt>
      <trkpt lat="45.92554" lon="3.71182">
        <ele>1180.8</ele>
        <time>2022-08-29T10:24:01Z</time>
      </trkpt>
      <trkpt lat="45.92553" lon="3.71183">
        <ele>1180.8</ele>
        <time>2022-08-29T10:24:02Z</time>
      </trkpt>
      <trkpt lat="45.92553" lon="3.71184">
        <ele>1180.8</ele>
        <time>2022-08-29T10:24:03Z</time>
      </trkpt>
      <trkpt lat="45.92553" lon="3.71185">
        <ele>1180.7</ele>
        <time>2022-08-29T10:24:04Z</time>
      </trkpt>
      <trkpt lat="45.92552" lon="3.71187">
        <ele>1180.7</ele>
        <time>2022-08-29T10:24:05Z</time>
      </trkpt>
      <trkpt lat="45.92552" lon="3.7119">
        <ele>1180.7</ele>
        <time>2022-08-29T10:24:06Z</time>
      </trkpt>
      <trkpt lat="45.92551" lon="3.71193">
        <ele>1180.6</ele>
        <time>2022-08-29T10:24:07Z</time>
      </trkpt>
      <trkpt lat="45.92551" lon="3.71194">
        <ele>1180.6</ele>
        <time>2022-08-29T10:24:08Z</time>
      </trkpt>
      <trkpt lat="45.92551" lon="3.71195">
        <ele>1180.5</ele>
        <time>2022-08-29T10:24:09Z</time>
      </trkpt>
      <trkpt lat="45.92551" lon="3.71196">
        <ele>1180.5</ele>
        <time>2022-08-29T10:24:10Z</time>
      </trkpt>
      <trkpt lat="45.92551" lon="3.71198">
        <ele>1180.5</ele>
        <time>2022-08-29T10:24:11Z</time>
      </trkpt>
      <trkpt lat="45.9255" lon="3.712">
        <ele>1180.4</ele>
        <time>2022-08-29T10:24:12Z</time>
      </trkpt>
      <trkpt lat="45.9255" lon="3.71202">
        <ele>1180.4</ele>
        <time>2022-08-29T10:24:13Z</time>
      </trkpt>
      <trkpt lat="45.9255" lon="3.71204">
        <ele>1180.4</ele>
        <time>2022-08-29T10:24:14Z</time>
      </trkpt>
      <trkpt lat="45.9255" lon="3.71206">
        <ele>1180.3</ele>
        <time>2022-08-29T10:24:15Z</time>
      </trkpt>
      <trkpt lat="45.9255" lon="3.71208">
        <ele>1180.3</ele>
        <time>2022-08-29T10:24:16Z</time>
      </trkpt>
      <trkpt lat="45.9255" lon="3.7121">
        <ele>1180.2</ele>
        <time>2022-08-29T10:24:17Z</time>
      </trkpt>
      <trkpt lat="45.92549" lon="3.71212">
        <ele>1180.2</ele>
        <time>2022-08-29T10:24:18Z</time>
      </trkpt>
      <trkpt lat="45.92549" lon="3.71214">
        <ele>1180.1</ele>
        <time>2022-08-29T10:24:19Z</time>
      </trkpt>
      <trkpt lat="45.92548" lon="3.71216">
        <ele>1180.1</ele>
        <time>2022-08-29T10:24:20Z</time>
      </trkpt>
      <trkpt lat="45.92547" lon="3.71219">
        <ele>1180</ele>
        <time>2022-08-29T10:24:21Z</time>
      </trkpt>
      <trkpt lat="45.92546" lon="3.7122">
        <ele>1180</ele>
        <time>2022-08-29T10:24:22Z</time>
      </trkpt>
      <trkpt lat="45.92546" lon="3.71221">
        <ele>1180</ele>
        <time>2022-08-29T10:24:23Z</time>
      </trkpt>
      <trkpt lat="45.92545" lon="3.71222">
        <ele>1179.9</ele>
        <time>2022-08-29T10:24:24Z</time>
      </trkpt>
      <trkpt lat="45.92544" lon="3.71222">
        <ele>1179.9</ele>
        <time>2022-08-29T10:24:25Z</time>
      </trkpt>
      <trkpt lat="45.92543" lon="3.71223">
        <ele>1179.9</ele>
        <time>2022-08-29T10:24:26Z</time>
      </trkpt>
      <trkpt lat="45.92542" lon="3.71225">
        <ele>1179.8</ele>
        <time>2022-08-29T10:24:27Z</time>
      </trkpt>
      <trkpt lat="45.92542" lon="3.71226">
        <ele>1179.8</ele>
        <time>2022-08-29T10:24:28Z</time>
      </trkpt>
      <trkpt lat="45.92541" lon="3.71227">
        <ele>1179.8</ele>
        <time>2022-08-29T10:24:29Z</time>
      </trkpt>
      <trkpt lat="45.92541" lon="3.71228">
        <ele>1179.8</ele>
        <time>2022-08-29T10:24:30Z</time>
      </trkpt>
      <trkpt lat="45.92541" lon="3.7123">
        <ele>1179.7</ele>
        <time>2022-08-29T10:24:31Z</time>
      </trkpt>
      <trkpt lat="45.92541" lon="3.71232">
        <ele>1179.7</ele>
        <time>2022-08-29T10:24:32Z</time>
      </trkpt>
      <trkpt lat="45.92541" lon="3.71235">
        <ele>1179.6</ele>
        <time>2022-08-29T10:24:33Z</time>
      </trkpt>
      <trkpt lat="45.92542" lon="3.71237">
        <ele>1179.6</ele>
        <time>2022-08-29T10:24:34Z</time>
      </trkpt>
      <trkpt lat="45.92543" lon="3.71239">
        <ele>1179.5</ele>
        <time>2022-08-29T10:24:35Z</time>
      </trkpt>
      <trkpt lat="45.92544" lon="3.71241">
        <ele>1179.5</ele>
        <time>2022-08-29T10:24:36Z</time>
      </trkpt>
      <trkpt lat="45.92544" lon="3.71244">
        <ele>1179.4</ele>
        <time>2022-08-29T10:24:37Z</time>
      </trkpt>
      <trkpt lat="45.92545" lon="3.71246">
        <ele>1179.4</ele>
        <time>2022-08-29T10:24:38Z</time>
      </trkpt>
      <trkpt lat="45.92545" lon="3.71249">
        <ele>1179.3</ele>
        <time>2022-08-29T10:24:39Z</time>
      </trkpt>
      <trkpt lat="45.92545" lon="3.71251">
        <ele>1179.3</ele>
        <time>2022-08-29T10:24:40Z</time>
      </trkpt>
      <trkpt lat="45.92544" lon="3.71254">
        <ele>1179.2</ele>
        <time>2022-08-29T10:24:41Z</time>
      </trkpt>
      <trkpt lat="45.92544" lon="3.71255">
        <ele>1179.2</ele>
        <time>2022-08-29T10:24:42Z</time>
      </trkpt>
      <trkpt lat="45.92543" lon="3.71256">
        <ele>1179.2</ele>
        <time>2022-08-29T10:24:43Z</time>
      </trkpt>
      <trkpt lat="45.92543" lon="3.71258">
        <ele>1179.2</ele>
        <time>2022-08-29T10:24:44Z</time>
      </trkpt>
      <trkpt lat="45.92543" lon="3.71259">
        <ele>1179.1</ele>
        <time>2022-08-29T10:24:45Z</time>
      </trkpt>
      <trkpt lat="45.92542" lon="3.71261">
        <ele>1179.1</ele>
        <time>2022-08-29T10:24:46Z</time>
      </trkpt>
      <trkpt lat="45.92542" lon="3.71262">
        <ele>1179.1</ele>
        <time>2022-08-29T10:24:47Z</time>
      </trkpt>
      <trkpt lat="45.92541" lon="3.71264">
        <ele>1179.1</ele>
        <time>2022-08-29T10:24:48Z</time>
      </trkpt>
      <trkpt lat="45.92541" lon="3.71265">
        <ele>1179</ele>
        <time>2022-08-29T10:24:49Z</time>
      </trkpt>
      <trkpt lat="45.9254" lon="3.71268">
        <ele>1179</ele>
        <time>2022-08-29T10:24:50Z</time>
      </trkpt>
      <trkpt lat="45.9254" lon="3.71269">
        <ele>1179</ele>
        <time>2022-08-29T10:24:51Z</time>
      </trkpt>
      <trkpt lat="45.92539" lon="3.7127">
        <ele>1178.9</ele>
        <time>2022-08-29T10:24:52Z</time>
      </trkpt>
      <trkpt lat="45.92539" lon="3.71273">
        <ele>1178.9</ele>
        <time>2022-08-29T10:24:53Z</time>
      </trkpt>
      <trkpt lat="45.92538" lon="3.71275">
        <ele>1178.8</ele>
        <time>2022-08-29T10:24:54Z</time>
      </trkpt>
      <trkpt lat="45.92537" lon="3.71277">
        <ele>1178.8</ele>
        <time>2022-08-29T10:24:55Z</time>
      </trkpt>
      <trkpt lat="45.92536" lon="3.71278">
        <ele>1178.8</ele>
        <time>2022-08-29T10:24:56Z</time>
      </trkpt>
      <trkpt lat="45.92535" lon="3.7128">
        <ele>1178.7</ele>
        <time>2022-08-29T10:24:57Z</time>
      </trkpt>
      <trkpt lat="45.92535" lon="3.71282">
        <ele>1178.7</ele>
        <time>2022-08-29T10:24:58Z</time>
      </trkpt>
      <trkpt lat="45.92534" lon="3.71285">
        <ele>1178.6</ele>
        <time>2022-08-29T10:24:59Z</time>
      </trkpt>
      <trkpt lat="45.92534" lon="3.71286">
        <ele>1178.6</ele>
        <time>2022-08-29T10:25:00Z</time>
      </trkpt>
      <trkpt lat="45.92534" lon="3.71288">
        <ele>1178.6</ele>
        <time>2022-08-29T10:25:01Z</time>
      </trkpt>
      <trkpt lat="45.92534" lon="3.7129">
        <ele>1178.5</ele>
        <time>2022-08-29T10:25:02Z</time>
      </trkpt>
      <trkpt lat="45.92534" lon="3.71293">
        <ele>1178.5</ele>
        <time>2022-08-29T10:25:03Z</time>
      </trkpt>
      <trkpt lat="45.92534" lon="3.71295">
        <ele>1178.5</ele>
        <time>2022-08-29T10:25:04Z</time>
      </trkpt>
      <trkpt lat="45.92534" lon="3.71296">
        <ele>1178.4</ele>
        <time>2022-08-29T10:25:05Z</time>
      </trkpt>
      <trkpt lat="45.92534" lon="3.71299">
        <ele>1178.4</ele>
        <time>2022-08-29T10:25:06Z</time>
      </trkpt>
      <trkpt lat="45.92533" lon="3.713">
        <ele>1178.4</ele>
        <time>2022-08-29T10:25:07Z</time>
      </trkpt>
      <trkpt lat="45.92533" lon="3.71302">
        <ele>1178.3</ele>
        <time>2022-08-29T10:25:08Z</time>
      </trkpt>
      <trkpt lat="45.92533" lon="3.71304">
        <ele>1178.3</ele>
        <time>2022-08-29T10:25:09Z</time>
      </trkpt>
      <trkpt lat="45.92532" lon="3.71306">
        <ele>1178.2</ele>
        <time>2022-08-29T10:25:10Z</time>
      </trkpt>
      <trkpt lat="45.92532" lon="3.71308">
        <ele>1178.2</ele>
        <time>2022-08-29T10:25:11Z</time>
      </trkpt>
      <trkpt lat="45.92532" lon="3.7131">
        <ele>1178.2</ele>
        <time>2022-08-29T10:25:12Z</time>
      </trkpt>
      <trkpt lat="45.92531" lon="3.71312">
        <ele>1178.1</ele>
        <time>2022-08-29T10:25:13Z</time>
      </trkpt>
      <trkpt lat="45.92531" lon="3.71314">
        <ele>1178.1</ele>
        <time>2022-08-29T10:25:14Z</time>
      </trkpt>
      <trkpt lat="45.9253" lon="3.71316">
        <ele>1178.1</ele>
        <time>2022-08-29T10:25:15Z</time>
      </trkpt>
      <trkpt lat="45.9253" lon="3.71318">
        <ele>1178</ele>
        <time>2022-08-29T10:25:16Z</time>
      </trkpt>
      <trkpt lat="45.9253" lon="3.7132">
        <ele>1178</ele>
        <time>2022-08-29T10:25:17Z</time>
      </trkpt>
      <trkpt lat="45.9253" lon="3.71322">
        <ele>1177.9</ele>
        <time>2022-08-29T10:25:18Z</time>
      </trkpt>
      <trkpt lat="45.92529" lon="3.71324">
        <ele>1177.9</ele>
        <time>2022-08-29T10:25:19Z</time>
      </trkpt>
      <trkpt lat="45.92529" lon="3.71327">
        <ele>1177.9</ele>
        <time>2022-08-29T10:25:20Z</time>
      </trkpt>
      <trkpt lat="45.92529" lon="3.71329">
        <ele>1177.8</ele>
        <time>2022-08-29T10:25:21Z</time>
      </trkpt>
      <trkpt lat="45.92529" lon="3.71331">
        <ele>1177.8</ele>
        <time>2022-08-29T10:25:22Z</time>
      </trkpt>
      <trkpt lat="45.92528" lon="3.71333">
        <ele>1177.8</ele>
        <time>2022-08-29T10:25:23Z</time>
      </trkpt>
      <trkpt lat="45.92528" lon="3.71335">
        <ele>1177.7</ele>
        <time>2022-08-29T10:25:24Z</time>
      </trkpt>
      <trkpt lat="45.92528" lon="3.71337">
        <ele>1177.7</ele>
        <time>2022-08-29T10:25:25Z</time>
      </trkpt>
      <trkpt lat="45.92527" lon="3.71339">
        <ele>1177.6</ele>
        <time>2022-08-29T10:25:26Z</time>
      </trkpt>
      <trkpt lat="45.92527" lon="3.71341">
        <ele>1177.6</ele>
        <time>2022-08-29T10:25:27Z</time>
      </trkpt>
      <trkpt lat="45.92526" lon="3.71343">
        <ele>1177.5</ele>
        <time>2022-08-29T10:25:28Z</time>
      </trkpt>
      <trkpt lat="45.92526" lon="3.71345">
        <ele>1177.5</ele>
        <time>2022-08-29T10:25:29Z</time>
      </trkpt>
      <trkpt lat="45.92526" lon="3.71348">
        <ele>1177.5</ele>
        <time>2022-08-29T10:25:30Z</time>
      </trkpt>
      <trkpt lat="45.92526" lon="3.7135">
        <ele>1177.4</ele>
        <time>2022-08-29T10:25:31Z</time>
      </trkpt>
      <trkpt lat="45.92525" lon="3.71352">
        <ele>1177.4</ele>
        <time>2022-08-29T10:25:32Z</time>
      </trkpt>
      <trkpt lat="45.92525" lon="3.71355">
        <ele>1177.3</ele>
        <time>2022-08-29T10:25:33Z</time>
      </trkpt>
      <trkpt lat="45.92525" lon="3.71356">
        <ele>1177.3</ele>
        <time>2022-08-29T10:25:34Z</time>
      </trkpt>
      <trkpt lat="45.92525" lon="3.71357">
        <ele>1177.2</ele>
        <time>2022-08-29T10:25:35Z</time>
      </trkpt>
      <trkpt lat="45.92524" lon="3.7136">
        <ele>1177.1</ele>
        <time>2022-08-29T10:25:36Z</time>
      </trkpt>
      <trkpt lat="45.92524" lon="3.71362">
        <ele>1177.1</ele>
        <time>2022-08-29T10:25:37Z</time>
      </trkpt>
      <trkpt lat="45.92524" lon="3.71363">
        <ele>1177.1</ele>
        <time>2022-08-29T10:25:38Z</time>
      </trkpt>
      <trkpt lat="45.92523" lon="3.71365">
        <ele>1177</ele>
        <time>2022-08-29T10:25:39Z</time>
      </trkpt>
      <trkpt lat="45.92523" lon="3.71366">
        <ele>1177</ele>
        <time>2022-08-29T10:25:40Z</time>
      </trkpt>
      <trkpt lat="45.92522" lon="3.71368">
        <ele>1176.9</ele>
        <time>2022-08-29T10:25:41Z</time>
      </trkpt>
      <trkpt lat="45.92522" lon="3.7137">
        <ele>1176.8</ele>
        <time>2022-08-29T10:25:42Z</time>
      </trkpt>
      <trkpt lat="45.92521" lon="3.71372">
        <ele>1176.8</ele>
        <time>2022-08-29T10:25:43Z</time>
      </trkpt>
      <trkpt lat="45.9252" lon="3.71373">
        <ele>1176.7</ele>
        <time>2022-08-29T10:25:44Z</time>
      </trkpt>
      <trkpt lat="45.92519" lon="3.71375">
        <ele>1176.6</ele>
        <time>2022-08-29T10:25:45Z</time>
      </trkpt>
      <trkpt lat="45.92518" lon="3.71377">
        <ele>1176.6</ele>
        <time>2022-08-29T10:25:46Z</time>
      </trkpt>
      <trkpt lat="45.92518" lon="3.71378">
        <ele>1176.5</ele>
        <time>2022-08-29T10:25:47Z</time>
      </trkpt>
      <trkpt lat="45.92517" lon="3.7138">
        <ele>1176.4</ele>
        <time>2022-08-29T10:25:48Z</time>
      </trkpt>
      <trkpt lat="45.92515" lon="3.71381">
        <ele>1176.4</ele>
        <time>2022-08-29T10:25:49Z</time>
      </trkpt>
      <trkpt lat="45.92514" lon="3.71382">
        <ele>1176.3</ele>
        <time>2022-08-29T10:25:50Z</time>
      </trkpt>
      <trkpt lat="45.92513" lon="3.71382">
        <ele>1176.3</ele>
        <time>2022-08-29T10:25:51Z</time>
      </trkpt>
      <trkpt lat="45.92512" lon="3.71382">
        <ele>1176.2</ele>
        <time>2022-08-29T10:25:52Z</time>
      </trkpt>
      <trkpt lat="45.92511" lon="3.71384">
        <ele>1176.1</ele>
        <time>2022-08-29T10:25:53Z</time>
      </trkpt>
      <trkpt lat="45.9251" lon="3.71385">
        <ele>1176</ele>
        <time>2022-08-29T10:25:54Z</time>
      </trkpt>
      <trkpt lat="45.92508" lon="3.71387">
        <ele>1175.9</ele>
        <time>2022-08-29T10:25:55Z</time>
      </trkpt>
      <trkpt lat="45.92507" lon="3.71389">
        <ele>1175.8</ele>
        <time>2022-08-29T10:25:56Z</time>
      </trkpt>
      <trkpt lat="45.92507" lon="3.71391">
        <ele>1175.8</ele>
        <time>2022-08-29T10:25:57Z</time>
      </trkpt>
      <trkpt lat="45.92507" lon="3.71393">
        <ele>1175.7</ele>
        <time>2022-08-29T10:25:58Z</time>
      </trkpt>
      <trkpt lat="45.92506" lon="3.71395">
        <ele>1175.6</ele>
        <time>2022-08-29T10:25:59Z</time>
      </trkpt>
      <trkpt lat="45.92506" lon="3.71398">
        <ele>1175.5</ele>
        <time>2022-08-29T10:26:00Z</time>
      </trkpt>
      <trkpt lat="45.92507" lon="3.714">
        <ele>1175.4</ele>
        <time>2022-08-29T10:26:01Z</time>
      </trkpt>
      <trkpt lat="45.92507" lon="3.71402">
        <ele>1175.3</ele>
        <time>2022-08-29T10:26:02Z</time>
      </trkpt>
      <trkpt lat="45.92507" lon="3.71405">
        <ele>1175.2</ele>
        <time>2022-08-29T10:26:03Z</time>
      </trkpt>
      <trkpt lat="45.92508" lon="3.71407">
        <ele>1175.1</ele>
        <time>2022-08-29T10:26:04Z</time>
      </trkpt>
      <trkpt lat="45.92508" lon="3.71409">
        <ele>1175.1</ele>
        <time>2022-08-29T10:26:05Z</time>
      </trkpt>
      <trkpt lat="45.92508" lon="3.71412">
        <ele>1174.9</ele>
        <time>2022-08-29T10:26:06Z</time>
      </trkpt>
      <trkpt lat="45.92508" lon="3.71413">
        <ele>1174.9</ele>
        <time>2022-08-29T10:26:07Z</time>
      </trkpt>
      <trkpt lat="45.92508" lon="3.71414">
        <ele>1174.8</ele>
        <time>2022-08-29T10:26:08Z</time>
      </trkpt>
      <trkpt lat="45.92508" lon="3.71417">
        <ele>1174.7</ele>
        <time>2022-08-29T10:26:09Z</time>
      </trkpt>
      <trkpt lat="45.92508" lon="3.71418">
        <ele>1174.6</ele>
        <time>2022-08-29T10:26:10Z</time>
      </trkpt>
      <trkpt lat="45.92508" lon="3.7142">
        <ele>1174.6</ele>
        <time>2022-08-29T10:26:11Z</time>
      </trkpt>
      <trkpt lat="45.92508" lon="3.71421">
        <ele>1174.5</ele>
        <time>2022-08-29T10:26:12Z</time>
      </trkpt>
      <trkpt lat="45.92508" lon="3.71423">
        <ele>1174.5</ele>
        <time>2022-08-29T10:26:13Z</time>
      </trkpt>
      <trkpt lat="45.92508" lon="3.71424">
        <ele>1174.4</ele>
        <time>2022-08-29T10:26:14Z</time>
      </trkpt>
      <trkpt lat="45.92508" lon="3.71426">
        <ele>1174.3</ele>
        <time>2022-08-29T10:26:15Z</time>
      </trkpt>
      <trkpt lat="45.92507" lon="3.71427">
        <ele>1174.3</ele>
        <time>2022-08-29T10:26:16Z</time>
      </trkpt>
      <trkpt lat="45.92507" lon="3.71429">
        <ele>1174.2</ele>
        <time>2022-08-29T10:26:17Z</time>
      </trkpt>
      <trkpt lat="45.92506" lon="3.71432">
        <ele>1174</ele>
        <time>2022-08-29T10:26:18Z</time>
      </trkpt>
      <trkpt lat="45.92506" lon="3.71434">
        <ele>1174</ele>
        <time>2022-08-29T10:26:19Z</time>
      </trkpt>
      <trkpt lat="45.92506" lon="3.71435">
        <ele>1173.9</ele>
        <time>2022-08-29T10:26:20Z</time>
      </trkpt>
      <trkpt lat="45.92505" lon="3.71437">
        <ele>1173.8</ele>
        <time>2022-08-29T10:26:21Z</time>
      </trkpt>
      <trkpt lat="45.92504" lon="3.71439">
        <ele>1173.7</ele>
        <time>2022-08-29T10:26:22Z</time>
      </trkpt>
      <trkpt lat="45.92504" lon="3.7144">
        <ele>1173.6</ele>
        <time>2022-08-29T10:26:23Z</time>
      </trkpt>
      <trkpt lat="45.92503" lon="3.71441">
        <ele>1173.6</ele>
        <time>2022-08-29T10:26:24Z</time>
      </trkpt>
      <trkpt lat="45.92502" lon="3.71442">
        <ele>1173.5</ele>
        <time>2022-08-29T10:26:25Z</time>
      </trkpt>
      <trkpt lat="45.92501" lon="3.71443">
        <ele>1173.5</ele>
        <time>2022-08-29T10:26:26Z</time>
      </trkpt>
      <trkpt lat="45.925" lon="3.71444">
        <ele>1173.4</ele>
        <time>2022-08-29T10:26:27Z</time>
      </trkpt>
      <trkpt lat="45.92499" lon="3.71444">
        <ele>1173.3</ele>
        <time>2022-08-29T10:26:28Z</time>
      </trkpt>
      <trkpt lat="45.92498" lon="3.71445">
        <ele>1173.2</ele>
        <time>2022-08-29T10:26:29Z</time>
      </trkpt>
      <trkpt lat="45.92497" lon="3.71447">
        <ele>1173.1</ele>
        <time>2022-08-29T10:26:30Z</time>
      </trkpt>
      <trkpt lat="45.92496" lon="3.71448">
        <ele>1173</ele>
        <time>2022-08-29T10:26:31Z</time>
      </trkpt>
      <trkpt lat="45.92494" lon="3.7145">
        <ele>1172.9</ele>
        <time>2022-08-29T10:26:32Z</time>
      </trkpt>
      <trkpt lat="45.92492" lon="3.71453">
        <ele>1172.7</ele>
        <time>2022-08-29T10:26:33Z</time>
      </trkpt>
      <trkpt lat="45.92492" lon="3.71454">
        <ele>1172.6</ele>
        <time>2022-08-29T10:26:34Z</time>
      </trkpt>
      <trkpt lat="45.9249" lon="3.71457">
        <ele>1172.4</ele>
        <time>2022-08-29T10:26:35Z</time>
      </trkpt>
      <trkpt lat="45.92489" lon="3.71458">
        <ele>1172.3</ele>
        <time>2022-08-29T10:26:36Z</time>
      </trkpt>
      <trkpt lat="45.92487" lon="3.7146">
        <ele>1172.2</ele>
        <time>2022-08-29T10:26:37Z</time>
      </trkpt>
      <trkpt lat="45.92486" lon="3.71461">
        <ele>1172.1</ele>
        <time>2022-08-29T10:26:38Z</time>
      </trkpt>
      <trkpt lat="45.92484" lon="3.71462">
        <ele>1171.9</ele>
        <time>2022-08-29T10:26:39Z</time>
      </trkpt>
      <trkpt lat="45.92483" lon="3.71463">
        <ele>1171.8</ele>
        <time>2022-08-29T10:26:40Z</time>
      </trkpt>
      <trkpt lat="45.92483" lon="3.71463">
        <ele>1171.8</ele>
        <time>2022-08-29T10:26:41Z</time>
      </trkpt>
      <trkpt lat="45.92482" lon="3.71464">
        <ele>1171.7</ele>
        <time>2022-08-29T10:26:42Z</time>
      </trkpt>
      <trkpt lat="45.92481" lon="3.71464">
        <ele>1171.6</ele>
        <time>2022-08-29T10:26:43Z</time>
      </trkpt>
      <trkpt lat="45.92481" lon="3.71466">
        <ele>1171.6</ele>
        <time>2022-08-29T10:26:44Z</time>
      </trkpt>
      <trkpt lat="45.9248" lon="3.71467">
        <ele>1171.5</ele>
        <time>2022-08-29T10:26:45Z</time>
      </trkpt>
      <trkpt lat="45.9248" lon="3.71468">
        <ele>1171.4</ele>
        <time>2022-08-29T10:26:46Z</time>
      </trkpt>
      <trkpt lat="45.9248" lon="3.7147">
        <ele>1171.3</ele>
        <time>2022-08-29T10:26:47Z</time>
      </trkpt>
      <trkpt lat="45.9248" lon="3.71471">
        <ele>1171.3</ele>
        <time>2022-08-29T10:26:48Z</time>
      </trkpt>
      <trkpt lat="45.92479" lon="3.71472">
        <ele>1171.2</ele>
        <time>2022-08-29T10:26:49Z</time>
      </trkpt>
      <trkpt lat="45.92479" lon="3.71474">
        <ele>1171.1</ele>
        <time>2022-08-29T10:26:50Z</time>
      </trkpt>
      <trkpt lat="45.92478" lon="3.71475">
        <ele>1171</ele>
        <time>2022-08-29T10:26:51Z</time>
      </trkpt>
      <trkpt lat="45.92478" lon="3.71475">
        <ele>1171</ele>
        <time>2022-08-29T10:26:52Z</time>
      </trkpt>
      <trkpt lat="45.92477" lon="3.71476">
        <ele>1170.9</ele>
        <time>2022-08-29T10:26:53Z</time>
      </trkpt>
      <trkpt lat="45.92476" lon="3.71477">
        <ele>1170.8</ele>
        <time>2022-08-29T10:26:54Z</time>
      </trkpt>
      <trkpt lat="45.92475" lon="3.71478">
        <ele>1170.7</ele>
        <time>2022-08-29T10:26:55Z</time>
      </trkpt>
      <trkpt lat="45.92475" lon="3.71478">
        <ele>1170.7</ele>
        <time>2022-08-29T10:26:56Z</time>
      </trkpt>
      <trkpt lat="45.92474" lon="3.71479">
        <ele>1170.6</ele>
        <time>2022-08-29T10:26:57Z</time>
      </trkpt>
      <trkpt lat="45.92474" lon="3.71478">
        <ele>1170.6</ele>
        <time>2022-08-29T10:26:58Z</time>
      </trkpt>
      <trkpt lat="45.92473" lon="3.71478">
        <ele>1170.5</ele>
        <time>2022-08-29T10:26:59Z</time>
      </trkpt>
      <trkpt lat="45.92473" lon="3.71478">
        <ele>1170.5</ele>
        <time>2022-08-29T10:27:00Z</time>
      </trkpt>
      <trkpt lat="45.92473" lon="3.71478">
        <ele>1170.5</ele>
        <time>2022-08-29T10:27:01Z</time>
      </trkpt>
      <trkpt lat="45.92472" lon="3.71477">
        <ele>1170.4</ele>
        <time>2022-08-29T10:27:02Z</time>
      </trkpt>
      <trkpt lat="45.92472" lon="3.71477">
        <ele>1170.4</ele>
        <time>2022-08-29T10:27:03Z</time>
      </trkpt>
      <trkpt lat="45.92472" lon="3.71476">
        <ele>1170.3</ele>
        <time>2022-08-29T10:27:04Z</time>
      </trkpt>
      <trkpt lat="45.92473" lon="3.71476">
        <ele>1170.3</ele>
        <time>2022-08-29T10:27:05Z</time>
      </trkpt>
      <trkpt lat="45.92473" lon="3.71476">
        <ele>1170.3</ele>
        <time>2022-08-29T10:27:06Z</time>
      </trkpt>
      <trkpt lat="45.92474" lon="3.71476">
        <ele>1170.2</ele>
        <time>2022-08-29T10:27:07Z</time>
      </trkpt>
      <trkpt lat="45.92475" lon="3.71476">
        <ele>1170.1</ele>
        <time>2022-08-29T10:27:08Z</time>
      </trkpt>
      <trkpt lat="45.92476" lon="3.71476">
        <ele>1170</ele>
        <time>2022-08-29T10:27:09Z</time>
      </trkpt>
      <trkpt lat="45.92476" lon="3.71476">
        <ele>1170</ele>
        <time>2022-08-29T10:27:10Z</time>
      </trkpt>
      <trkpt lat="45.92477" lon="3.71476">
        <ele>1169.9</ele>
        <time>2022-08-29T10:27:11Z</time>
      </trkpt>
      <trkpt lat="45.92477" lon="3.71476">
        <ele>1169.8</ele>
        <time>2022-08-29T10:27:12Z</time>
      </trkpt>
      <trkpt lat="45.92476" lon="3.71475">
        <ele>1169.7</ele>
        <time>2022-08-29T10:27:13Z</time>
      </trkpt>
      <trkpt lat="45.92475" lon="3.71474">
        <ele>1169.6</ele>
        <time>2022-08-29T10:27:14Z</time>
      </trkpt>
      <trkpt lat="45.92474" lon="3.71473">
        <ele>1169.4</ele>
        <time>2022-08-29T10:27:15Z</time>
      </trkpt>
      <trkpt lat="45.92473" lon="3.71474">
        <ele>1169.3</ele>
        <time>2022-08-29T10:27:16Z</time>
      </trkpt>
      <trkpt lat="45.92473" lon="3.71475">
        <ele>1169.2</ele>
        <time>2022-08-29T10:27:17Z</time>
      </trkpt>
      <trkpt lat="45.92474" lon="3.71476">
        <ele>1169.2</ele>
        <time>2022-08-29T10:27:18Z</time>
      </trkpt>
      <trkpt lat="45.92474" lon="3.71476">
        <ele>1169.1</ele>
        <time>2022-08-29T10:27:19Z</time>
      </trkpt>
      <trkpt lat="45.92475" lon="3.71477">
        <ele>1169</ele>
        <time>2022-08-29T10:27:20Z</time>
      </trkpt>
      <trkpt lat="45.92475" lon="3.71478">
        <ele>1168.9</ele>
        <time>2022-08-29T10:27:21Z</time>
      </trkpt>
      <trkpt lat="45.92477" lon="3.71479">
        <ele>1168.7</ele>
        <time>2022-08-29T10:27:22Z</time>
      </trkpt>
      <trkpt lat="45.92478" lon="3.71481">
        <ele>1168.6</ele>
        <time>2022-08-29T10:27:23Z</time>
      </trkpt>
      <trkpt lat="45.92479" lon="3.71482">
        <ele>1168.4</ele>
        <time>2022-08-29T10:27:24Z</time>
      </trkpt>
      <trkpt lat="45.92479" lon="3.71482">
        <ele>1168.3</ele>
        <time>2022-08-29T10:27:25Z</time>
      </trkpt>
      <trkpt lat="45.9248" lon="3.71483">
        <ele>1168.2</ele>
        <time>2022-08-29T10:27:26Z</time>
      </trkpt>
      <trkpt lat="45.92481" lon="3.71483">
        <ele>1168.1</ele>
        <time>2022-08-29T10:27:27Z</time>
      </trkpt>
      <trkpt lat="45.92482" lon="3.71483">
        <ele>1168</ele>
        <time>2022-08-29T10:27:28Z</time>
      </trkpt>
      <trkpt lat="45.92482" lon="3.71483">
        <ele>1168</ele>
        <time>2022-08-29T10:27:29Z</time>
      </trkpt>
      <trkpt lat="45.92482" lon="3.71483">
        <ele>1168</ele>
        <time>2022-08-29T10:27:30Z</time>
      </trkpt>
      <trkpt lat="45.92482" lon="3.71482">
        <ele>1167.9</ele>
        <time>2022-08-29T10:27:31Z</time>
      </trkpt>
      <trkpt lat="45.92482" lon="3.71482">
        <ele>1167.9</ele>
        <time>2022-08-29T10:27:32Z</time>
      </trkpt>
      <trkpt lat="45.92482" lon="3.71482">
        <ele>1167.9</ele>
        <time>2022-08-29T10:27:33Z</time>
      </trkpt>
      <trkpt lat="45.92482" lon="3.71481">
        <ele>1167.9</ele>
        <time>2022-08-29T10:27:34Z</time>
      </trkpt>
      <trkpt lat="45.92482" lon="3.71481">
        <ele>1167.8</ele>
        <time>2022-08-29T10:27:35Z</time>
      </trkpt>
      <trkpt lat="45.92481" lon="3.71481">
        <ele>1167.8</ele>
        <time>2022-08-29T10:27:36Z</time>
      </trkpt>
      <trkpt lat="45.92481" lon="3.71481">
        <ele>1167.8</ele>
        <time>2022-08-29T10:27:37Z</time>
      </trkpt>
      <trkpt lat="45.92481" lon="3.71481">
        <ele>1167.7</ele>
        <time>2022-08-29T10:27:38Z</time>
      </trkpt>
      <trkpt lat="45.92481" lon="3.71481">
        <ele>1167.7</ele>
        <time>2022-08-29T10:27:39Z</time>
      </trkpt>
      <trkpt lat="45.92481" lon="3.71481">
        <ele>1167.7</ele>
        <time>2022-08-29T10:27:40Z</time>
      </trkpt>
      <trkpt lat="45.92481" lon="3.71482">
        <ele>1167.7</ele>
        <time>2022-08-29T10:27:41Z</time>
      </trkpt>
      <trkpt lat="45.92481" lon="3.71482">
        <ele>1167.7</ele>
        <time>2022-08-29T10:27:42Z</time>
      </trkpt>
      <trkpt lat="45.92481" lon="3.71482">
        <ele>1167.7</ele>
        <time>2022-08-29T10:27:43Z</time>
      </trkpt>
      <trkpt lat="45.92481" lon="3.71482">
        <ele>1167.7</ele>
        <time>2022-08-29T10:27:44Z</time>
      </trkpt>
      <trkpt lat="45.92481" lon="3.71482">
        <ele>1167.7</ele>
        <time>2022-08-29T10:27:45Z</time>
      </trkpt>
      <trkpt lat="45.92481" lon="3.71482">
        <ele>1167.6</ele>
        <time>2022-08-29T10:27:46Z</time>
      </trkpt>
      <trkpt lat="45.92481" lon="3.71482">
        <ele>1167.6</ele>
        <time>2022-08-29T10:27:47Z</time>
      </trkpt>
      <trkpt lat="45.92481" lon="3.71482">
        <ele>1167.6</ele>
        <time>2022-08-29T10:27:48Z</time>
      </trkpt>
      <trkpt lat="45.92481" lon="3.71482">
        <ele>1167.6</ele>
        <time>2022-08-29T10:27:49Z</time>
      </trkpt>
      <trkpt lat="45.92481" lon="3.71482">
        <ele>1167.6</ele>
        <time>2022-08-29T10:27:50Z</time>
      </trkpt>
      <trkpt lat="45.92481" lon="3.71482">
        <ele>1167.6</ele>
        <time>2022-08-29T10:27:51Z</time>
      </trkpt>
      <trkpt lat="45.92481" lon="3.71482">
        <ele>1167.6</ele>
        <time>2022-08-29T10:27:52Z</time>
      </trkpt>
      <trkpt lat="45.92481" lon="3.71482">
        <ele>1167.6</ele>
        <time>2022-08-29T10:27:53Z</time>
      </trkpt>
      <trkpt lat="45.92481" lon="3.71482">
        <ele>1167.6</ele>
        <time>2022-08-29T10:27:54Z</time>
      </trkpt>
      <trkpt lat="45.92481" lon="3.71482">
        <ele>1167.6</ele>
        <time>2022-08-29T10:27:55Z</time>
      </trkpt>
      <trkpt lat="45.92481" lon="3.71482">
        <ele>1167.6</ele>
        <time>2022-08-29T10:27:56Z</time>
      </trkpt>
      <trkpt lat="45.92481" lon="3.71482">
        <ele>1167.6</ele>
        <time>2022-08-29T10:27:57Z</time>
      </trkpt>
      <trkpt lat="45.92481" lon="3.71482">
        <ele>1167.6</ele>
        <time>2022-08-29T10:27:58Z</time>
      </trkpt>
      <trkpt lat="45.92481" lon="3.71482">
        <ele>1167.6</ele>
        <time>2022-08-29T10:27:59Z</time>
      </trkpt>
      <trkpt lat="45.92481" lon="3.71482">
        <ele>1167.6</ele>
        <time>2022-08-29T10:28:00Z</time>
      </trkpt>
      <trkpt lat="45.92481" lon="3.71482">
        <ele>1167.6</ele>
        <time>2022-08-29T10:28:01Z</time>
      </trkpt>
      <trkpt lat="45.92481" lon="3.71482">
        <ele>1167.6</ele>
        <time>2022-08-29T10:28:02Z</time>
      </trkpt>
      <trkpt lat="45.92481" lon="3.71482">
        <ele>1167.6</ele>
        <time>2022-08-29T10:28:03Z</time>
      </trkpt>
      <trkpt lat="45.92481" lon="3.71482">
        <ele>1167.6</ele>
        <time>2022-08-29T10:28:04Z</time>
      </trkpt>
      <trkpt lat="45.92481" lon="3.71482">
        <ele>1167.6</ele>
        <time>2022-08-29T10:28:05Z</time>
      </trkpt>
      <trkpt lat="45.92481" lon="3.71482">
        <ele>1167.6</ele>
        <time>2022-08-29T10:28:06Z</time>
      </trkpt>
      <trkpt lat="45.92481" lon="3.71482">
        <ele>1167.6</ele>
        <time>2022-08-29T10:28:07Z</time>
      </trkpt>
      <trkpt lat="45.92481" lon="3.71482">
        <ele>1167.6</ele>
        <time>2022-08-29T10:28:08Z</time>
      </trkpt>
      <trkpt lat="45.92481" lon="3.71482">
        <ele>1167.6</ele>
        <time>2022-08-29T10:28:09Z</time>
      </trkpt>
      <trkpt lat="45.92481" lon="3.71482">
        <ele>1167.6</ele>
        <time>2022-08-29T10:28:10Z</time>
      </trkpt>
      <trkpt lat="45.92481" lon="3.71482">
        <ele>1167.6</ele>
        <time>2022-08-29T10:28:11Z</time>
      </trkpt>
      <trkpt lat="45.92481" lon="3.71482">
        <ele>1167.6</ele>
        <time>2022-08-29T10:28:12Z</time>
      </trkpt>
      <trkpt lat="45.92481" lon="3.71482">
        <ele>1167.6</ele>
        <time>2022-08-29T10:28:13Z</time>
      </trkpt>
      <trkpt lat="45.92481" lon="3.71482">
        <ele>1167.6</ele>
        <time>2022-08-29T10:28:14Z</time>
      </trkpt>
      <trkpt lat="45.92481" lon="3.71482">
        <ele>1167.6</ele>
        <time>2022-08-29T10:28:15Z</time>
      </trkpt>
      <trkpt lat="45.92481" lon="3.71482">
        <ele>1167.6</ele>
        <time>2022-08-29T10:28:16Z</time>
      </trkpt>
      <trkpt lat="45.92481" lon="3.71482">
        <ele>1167.6</ele>
        <time>2022-08-29T10:28:17Z</time>
      </trkpt>
      <trkpt lat="45.92481" lon="3.71482">
        <ele>1167.6</ele>
        <time>2022-08-29T10:28:18Z</time>
      </trkpt>
      <trkpt lat="45.92481" lon="3.71482">
        <ele>1167.6</ele>
        <time>2022-08-29T10:28:19Z</time>
      </trkpt>
      <trkpt lat="45.92481" lon="3.71482">
        <ele>1167.6</ele>
        <time>2022-08-29T10:28:20Z</time>
      </trkpt>
      <trkpt lat="45.92481" lon="3.71482">
        <ele>1167.6</ele>
        <time>2022-08-29T10:28:21Z</time>
      </trkpt>
      <trkpt lat="45.92481" lon="3.71482">
        <ele>1167.6</ele>
        <time>2022-08-29T10:28:22Z</time>
      </trkpt>
      <trkpt lat="45.92481" lon="3.71482">
        <ele>1167.6</ele>
        <time>2022-08-29T10:28:23Z</time>
      </trkpt>
      <trkpt lat="45.92481" lon="3.71482">
        <ele>1167.6</ele>
        <time>2022-08-29T10:28:24Z</time>
      </trkpt>
      <trkpt lat="45.92481" lon="3.71482">
        <ele>1167.6</ele>
        <time>2022-08-29T10:28:25Z</time>
      </trkpt>
      <trkpt lat="45.92481" lon="3.71482">
        <ele>1167.6</ele>
        <time>2022-08-29T10:28:26Z</time>
      </trkpt>
      <trkpt lat="45.92481" lon="3.71482">
        <ele>1167.6</ele>
        <time>2022-08-29T10:28:27Z</time>
      </trkpt>
      <trkpt lat="45.92481" lon="3.71482">
        <ele>1167.6</ele>
        <time>2022-08-29T10:28:28Z</time>
      </trkpt>
      <trkpt lat="45.92481" lon="3.71482">
        <ele>1167.6</ele>
        <time>2022-08-29T10:28:29Z</time>
      </trkpt>
      <trkpt lat="45.92481" lon="3.71482">
        <ele>1167.6</ele>
        <time>2022-08-29T10:28:30Z</time>
      </trkpt>
      <trkpt lat="45.92481" lon="3.71482">
        <ele>1167.6</ele>
        <time>2022-08-29T10:28:31Z</time>
      </trkpt>
      <trkpt lat="45.92481" lon="3.71482">
        <ele>1167.6</ele>
        <time>2022-08-29T10:28:32Z</time>
      </trkpt>
      <trkpt lat="45.92481" lon="3.71482">
        <ele>1167.6</ele>
        <time>2022-08-29T10:28:33Z</time>
      </trkpt>
      <trkpt lat="45.92481" lon="3.71482">
        <ele>1167.6</ele>
        <time>2022-08-29T10:28:34Z</time>
      </trkpt>
      <trkpt lat="45.92481" lon="3.71482">
        <ele>1167.6</ele>
        <time>2022-08-29T10:28:35Z</time>
      </trkpt>
      <trkpt lat="45.92481" lon="3.71482">
        <ele>1167.6</ele>
        <time>2022-08-29T10:28:36Z</time>
      </trkpt>
      <trkpt lat="45.92481" lon="3.71482">
        <ele>1167.6</ele>
        <time>2022-08-29T10:28:37Z</time>
      </trkpt>
      <trkpt lat="45.92481" lon="3.71482">
        <ele>1167.6</ele>
        <time>2022-08-29T10:28:38Z</time>
      </trkpt>
      <trkpt lat="45.92481" lon="3.71482">
        <ele>1167.6</ele>
        <time>2022-08-29T10:28:39Z</time>
      </trkpt>
      <trkpt lat="45.92481" lon="3.71482">
        <ele>1167.6</ele>
        <time>2022-08-29T10:28:40Z</time>
      </trkpt>
      <trkpt lat="45.92481" lon="3.71482">
        <ele>1167.6</ele>
        <time>2022-08-29T10:28:41Z</time>
      </trkpt>
      <trkpt lat="45.92481" lon="3.71482">
        <ele>1167.6</ele>
        <time>2022-08-29T10:28:42Z</time>
      </trkpt>
      <trkpt lat="45.9248" lon="3.71484">
        <ele>1167.3</ele>
        <time>2022-08-29T10:28:43Z</time>
      </trkpt>
      <trkpt lat="45.92479" lon="3.71487">
        <ele>1167.1</ele>
        <time>2022-08-29T10:28:44Z</time>
      </trkpt>
      <trkpt lat="45.92477" lon="3.71492">
        <ele>1166.6</ele>
        <time>2022-08-29T10:28:45Z</time>
      </trkpt>
      <trkpt lat="45.92477" lon="3.71493">
        <ele>1166.5</ele>
        <time>2022-08-29T10:28:46Z</time>
      </trkpt>
      <trkpt lat="45.92475" lon="3.71497">
        <ele>1166.1</ele>
        <time>2022-08-29T10:28:47Z</time>
      </trkpt>
      <trkpt lat="45.92475" lon="3.71498">
        <ele>1166</ele>
        <time>2022-08-29T10:28:48Z</time>
      </trkpt>
      <trkpt lat="45.92474" lon="3.71499">
        <ele>1165.9</ele>
        <time>2022-08-29T10:28:49Z</time>
      </trkpt>
      <trkpt lat="45.92474" lon="3.715">
        <ele>1165.7</ele>
        <time>2022-08-29T10:28:50Z</time>
      </trkpt>
      <trkpt lat="45.92473" lon="3.71501">
        <ele>1165.6</ele>
        <time>2022-08-29T10:28:51Z</time>
      </trkpt>
      <trkpt lat="45.92472" lon="3.71502">
        <ele>1165.5</ele>
        <time>2022-08-29T10:28:52Z</time>
      </trkpt>
      <trkpt lat="45.92471" lon="3.71503">
        <ele>1165.3</ele>
        <time>2022-08-29T10:28:53Z</time>
      </trkpt>
      <trkpt lat="45.92471" lon="3.71504">
        <ele>1165.2</ele>
        <time>2022-08-29T10:28:54Z</time>
      </trkpt>
      <trkpt lat="45.92468" lon="3.71505">
        <ele>1165</ele>
        <time>2022-08-29T10:28:55Z</time>
      </trkpt>
      <trkpt lat="45.92467" lon="3.71505">
        <ele>1164.8</ele>
        <time>2022-08-29T10:28:56Z</time>
      </trkpt>
      <trkpt lat="45.92466" lon="3.71505">
        <ele>1164.7</ele>
        <time>2022-08-29T10:28:57Z</time>
      </trkpt>
      <trkpt lat="45.92465" lon="3.71506">
        <ele>1164.5</ele>
        <time>2022-08-29T10:28:58Z</time>
      </trkpt>
      <trkpt lat="45.92464" lon="3.71507">
        <ele>1164.3</ele>
        <time>2022-08-29T10:28:59Z</time>
      </trkpt>
      <trkpt lat="45.92462" lon="3.71509">
        <ele>1164.1</ele>
        <time>2022-08-29T10:29:00Z</time>
      </trkpt>
      <trkpt lat="45.92461" lon="3.7151">
        <ele>1163.9</ele>
        <time>2022-08-29T10:29:01Z</time>
      </trkpt>
      <trkpt lat="45.9246" lon="3.71512">
        <ele>1163.8</ele>
        <time>2022-08-29T10:29:02Z</time>
      </trkpt>
      <trkpt lat="45.92459" lon="3.71513">
        <ele>1163.6</ele>
        <time>2022-08-29T10:29:03Z</time>
      </trkpt>
      <trkpt lat="45.92457" lon="3.71515">
        <ele>1163.3</ele>
        <time>2022-08-29T10:29:04Z</time>
      </trkpt>
      <trkpt lat="45.92457" lon="3.71515">
        <ele>1163.2</ele>
        <time>2022-08-29T10:29:05Z</time>
      </trkpt>
      <trkpt lat="45.92456" lon="3.71516">
        <ele>1163.1</ele>
        <time>2022-08-29T10:29:06Z</time>
      </trkpt>
      <trkpt lat="45.92454" lon="3.71518">
        <ele>1162.9</ele>
        <time>2022-08-29T10:29:07Z</time>
      </trkpt>
      <trkpt lat="45.92454" lon="3.71519">
        <ele>1162.8</ele>
        <time>2022-08-29T10:29:08Z</time>
      </trkpt>
      <trkpt lat="45.92453" lon="3.7152">
        <ele>1162.7</ele>
        <time>2022-08-29T10:29:09Z</time>
      </trkpt>
      <trkpt lat="45.92452" lon="3.71522">
        <ele>1162.5</ele>
        <time>2022-08-29T10:29:10Z</time>
      </trkpt>
      <trkpt lat="45.92451" lon="3.71523">
        <ele>1162.3</ele>
        <time>2022-08-29T10:29:11Z</time>
      </trkpt>
      <trkpt lat="45.92449" lon="3.71526">
        <ele>1162.1</ele>
        <time>2022-08-29T10:29:12Z</time>
      </trkpt>
      <trkpt lat="45.92449" lon="3.71526">
        <ele>1162</ele>
        <time>2022-08-29T10:29:13Z</time>
      </trkpt>
      <trkpt lat="45.92448" lon="3.71527">
        <ele>1161.9</ele>
        <time>2022-08-29T10:29:14Z</time>
      </trkpt>
      <trkpt lat="45.92448" lon="3.71528">
        <ele>1161.8</ele>
        <time>2022-08-29T10:29:15Z</time>
      </trkpt>
      <trkpt lat="45.92447" lon="3.71529">
        <ele>1161.6</ele>
        <time>2022-08-29T10:29:16Z</time>
      </trkpt>
      <trkpt lat="45.92446" lon="3.71531">
        <ele>1161.5</ele>
        <time>2022-08-29T10:29:17Z</time>
      </trkpt>
      <trkpt lat="45.92445" lon="3.71532">
        <ele>1161.4</ele>
        <time>2022-08-29T10:29:18Z</time>
      </trkpt>
      <trkpt lat="45.92445" lon="3.71533">
        <ele>1161.3</ele>
        <time>2022-08-29T10:29:19Z</time>
      </trkpt>
      <trkpt lat="45.92444" lon="3.71534">
        <ele>1161.2</ele>
        <time>2022-08-29T10:29:20Z</time>
      </trkpt>
      <trkpt lat="45.92443" lon="3.71534">
        <ele>1161</ele>
        <time>2022-08-29T10:29:21Z</time>
      </trkpt>
      <trkpt lat="45.92442" lon="3.71535">
        <ele>1160.9</ele>
        <time>2022-08-29T10:29:22Z</time>
      </trkpt>
      <trkpt lat="45.92442" lon="3.71536">
        <ele>1160.8</ele>
        <time>2022-08-29T10:29:23Z</time>
      </trkpt>
      <trkpt lat="45.92441" lon="3.71538">
        <ele>1160.7</ele>
        <time>2022-08-29T10:29:24Z</time>
      </trkpt>
      <trkpt lat="45.9244" lon="3.7154">
        <ele>1160.5</ele>
        <time>2022-08-29T10:29:25Z</time>
      </trkpt>
      <trkpt lat="45.92439" lon="3.71541">
        <ele>1160.3</ele>
        <time>2022-08-29T10:29:26Z</time>
      </trkpt>
      <trkpt lat="45.92438" lon="3.71543">
        <ele>1160.1</ele>
        <time>2022-08-29T10:29:27Z</time>
      </trkpt>
      <trkpt lat="45.92437" lon="3.71545">
        <ele>1159.9</ele>
        <time>2022-08-29T10:29:28Z</time>
      </trkpt>
      <trkpt lat="45.92436" lon="3.71547">
        <ele>1159.7</ele>
        <time>2022-08-29T10:29:29Z</time>
      </trkpt>
      <trkpt lat="45.92435" lon="3.71549">
        <ele>1159.5</ele>
        <time>2022-08-29T10:29:30Z</time>
      </trkpt>
      <trkpt lat="45.92434" lon="3.71551">
        <ele>1159.3</ele>
        <time>2022-08-29T10:29:31Z</time>
      </trkpt>
      <trkpt lat="45.92434" lon="3.71553">
        <ele>1159.2</ele>
        <time>2022-08-29T10:29:32Z</time>
      </trkpt>
      <trkpt lat="45.92433" lon="3.71555">
        <ele>1159</ele>
        <time>2022-08-29T10:29:33Z</time>
      </trkpt>
      <trkpt lat="45.92432" lon="3.71558">
        <ele>1158.8</ele>
        <time>2022-08-29T10:29:34Z</time>
      </trkpt>
      <trkpt lat="45.92432" lon="3.71559">
        <ele>1158.7</ele>
        <time>2022-08-29T10:29:35Z</time>
      </trkpt>
      <trkpt lat="45.92432" lon="3.7156">
        <ele>1158.6</ele>
        <time>2022-08-29T10:29:36Z</time>
      </trkpt>
      <trkpt lat="45.92431" lon="3.71562">
        <ele>1158.4</ele>
        <time>2022-08-29T10:29:37Z</time>
      </trkpt>
      <trkpt lat="45.92431" lon="3.71563">
        <ele>1158.3</ele>
        <time>2022-08-29T10:29:38Z</time>
      </trkpt>
      <trkpt lat="45.92432" lon="3.71565">
        <ele>1158.2</ele>
        <time>2022-08-29T10:29:39Z</time>
      </trkpt>
      <trkpt lat="45.92432" lon="3.71566">
        <ele>1158.1</ele>
        <time>2022-08-29T10:29:40Z</time>
      </trkpt>
      <trkpt lat="45.92432" lon="3.71567">
        <ele>1158</ele>
        <time>2022-08-29T10:29:41Z</time>
      </trkpt>
      <trkpt lat="45.92432" lon="3.71569">
        <ele>1157.9</ele>
        <time>2022-08-29T10:29:42Z</time>
      </trkpt>
      <trkpt lat="45.92432" lon="3.7157">
        <ele>1157.8</ele>
        <time>2022-08-29T10:29:43Z</time>
      </trkpt>
      <trkpt lat="45.92432" lon="3.71571">
        <ele>1157.7</ele>
        <time>2022-08-29T10:29:44Z</time>
      </trkpt>
      <trkpt lat="45.92432" lon="3.71572">
        <ele>1157.6</ele>
        <time>2022-08-29T10:29:45Z</time>
      </trkpt>
      <trkpt lat="45.92432" lon="3.71573">
        <ele>1157.5</ele>
        <time>2022-08-29T10:29:46Z</time>
      </trkpt>
      <trkpt lat="45.92432" lon="3.71574">
        <ele>1157.4</ele>
        <time>2022-08-29T10:29:47Z</time>
      </trkpt>
      <trkpt lat="45.92432" lon="3.71575">
        <ele>1157.4</ele>
        <time>2022-08-29T10:29:48Z</time>
      </trkpt>
      <trkpt lat="45.92432" lon="3.71576">
        <ele>1157.3</ele>
        <time>2022-08-29T10:29:49Z</time>
      </trkpt>
      <trkpt lat="45.92432" lon="3.71577">
        <ele>1157.2</ele>
        <time>2022-08-29T10:29:50Z</time>
      </trkpt>
      <trkpt lat="45.92432" lon="3.71579">
        <ele>1157.1</ele>
        <time>2022-08-29T10:29:51Z</time>
      </trkpt>
      <trkpt lat="45.92432" lon="3.71582">
        <ele>1156.9</ele>
        <time>2022-08-29T10:29:52Z</time>
      </trkpt>
      <trkpt lat="45.92432" lon="3.71583">
        <ele>1156.8</ele>
        <time>2022-08-29T10:29:53Z</time>
      </trkpt>
      <trkpt lat="45.92431" lon="3.71584">
        <ele>1156.6</ele>
        <time>2022-08-29T10:29:54Z</time>
      </trkpt>
      <trkpt lat="45.92431" lon="3.71586">
        <ele>1156.4</ele>
        <time>2022-08-29T10:29:55Z</time>
      </trkpt>
      <trkpt lat="45.9243" lon="3.71588">
        <ele>1156.3</ele>
        <time>2022-08-29T10:29:56Z</time>
      </trkpt>
      <trkpt lat="45.9243" lon="3.7159">
        <ele>1156.1</ele>
        <time>2022-08-29T10:29:57Z</time>
      </trkpt>
      <trkpt lat="45.92429" lon="3.71592">
        <ele>1155.9</ele>
        <time>2022-08-29T10:29:58Z</time>
      </trkpt>
      <trkpt lat="45.92428" lon="3.71595">
        <ele>1155.7</ele>
        <time>2022-08-29T10:29:59Z</time>
      </trkpt>
      <trkpt lat="45.92428" lon="3.71597">
        <ele>1155.6</ele>
        <time>2022-08-29T10:30:00Z</time>
      </trkpt>
      <trkpt lat="45.92427" lon="3.71598">
        <ele>1155.5</ele>
        <time>2022-08-29T10:30:01Z</time>
      </trkpt>
      <trkpt lat="45.92426" lon="3.71599">
        <ele>1155.3</ele>
        <time>2022-08-29T10:30:02Z</time>
      </trkpt>
      <trkpt lat="45.92426" lon="3.71601">
        <ele>1155.2</ele>
        <time>2022-08-29T10:30:03Z</time>
      </trkpt>
      <trkpt lat="45.92425" lon="3.71603">
        <ele>1155.1</ele>
        <time>2022-08-29T10:30:04Z</time>
      </trkpt>
      <trkpt lat="45.92425" lon="3.71604">
        <ele>1155</ele>
        <time>2022-08-29T10:30:05Z</time>
      </trkpt>
      <trkpt lat="45.92425" lon="3.71605">
        <ele>1154.9</ele>
        <time>2022-08-29T10:30:06Z</time>
      </trkpt>
      <trkpt lat="45.92424" lon="3.71607">
        <ele>1154.8</ele>
        <time>2022-08-29T10:30:07Z</time>
      </trkpt>
      <trkpt lat="45.92424" lon="3.71608">
        <ele>1154.7</ele>
        <time>2022-08-29T10:30:08Z</time>
      </trkpt>
      <trkpt lat="45.92424" lon="3.7161">
        <ele>1154.6</ele>
        <time>2022-08-29T10:30:09Z</time>
      </trkpt>
      <trkpt lat="45.92424" lon="3.71611">
        <ele>1154.5</ele>
        <time>2022-08-29T10:30:10Z</time>
      </trkpt>
      <trkpt lat="45.92424" lon="3.71613">
        <ele>1154.4</ele>
        <time>2022-08-29T10:30:11Z</time>
      </trkpt>
      <trkpt lat="45.92424" lon="3.71614">
        <ele>1154.3</ele>
        <time>2022-08-29T10:30:12Z</time>
      </trkpt>
      <trkpt lat="45.92424" lon="3.71615">
        <ele>1154.2</ele>
        <time>2022-08-29T10:30:13Z</time>
      </trkpt>
      <trkpt lat="45.92424" lon="3.71616">
        <ele>1154.2</ele>
        <time>2022-08-29T10:30:14Z</time>
      </trkpt>
      <trkpt lat="45.92424" lon="3.71617">
        <ele>1154.1</ele>
        <time>2022-08-29T10:30:15Z</time>
      </trkpt>
      <trkpt lat="45.92424" lon="3.71618">
        <ele>1154</ele>
        <time>2022-08-29T10:30:16Z</time>
      </trkpt>
      <trkpt lat="45.92424" lon="3.71619">
        <ele>1154</ele>
        <time>2022-08-29T10:30:17Z</time>
      </trkpt>
      <trkpt lat="45.92424" lon="3.7162">
        <ele>1153.9</ele>
        <time>2022-08-29T10:30:18Z</time>
      </trkpt>
      <trkpt lat="45.92424" lon="3.7162">
        <ele>1153.9</ele>
        <time>2022-08-29T10:30:19Z</time>
      </trkpt>
      <trkpt lat="45.92424" lon="3.71621">
        <ele>1153.8</ele>
        <time>2022-08-29T10:30:20Z</time>
      </trkpt>
      <trkpt lat="45.92424" lon="3.71622">
        <ele>1153.7</ele>
        <time>2022-08-29T10:30:21Z</time>
      </trkpt>
      <trkpt lat="45.92423" lon="3.71625">
        <ele>1153.6</ele>
        <time>2022-08-29T10:30:22Z</time>
      </trkpt>
      <trkpt lat="45.92423" lon="3.71626">
        <ele>1153.5</ele>
        <time>2022-08-29T10:30:23Z</time>
      </trkpt>
      <trkpt lat="45.92423" lon="3.71627">
        <ele>1153.9</ele>
        <time>2022-08-29T10:30:24Z</time>
      </trkpt>
      <trkpt lat="45.92422" lon="3.71629">
        <ele>1154.3</ele>
        <time>2022-08-29T10:30:25Z</time>
      </trkpt>
      <trkpt lat="45.92422" lon="3.71631">
        <ele>1154.5</ele>
        <time>2022-08-29T10:30:26Z</time>
      </trkpt>
      <trkpt lat="45.9257" lon="3.71962">
        <ele>1125.4</ele>
        <time>2022-08-29T10:38:14Z</time>
      </trkpt>
      <trkpt lat="45.92568" lon="3.71959">
        <ele>1126.5</ele>
        <time>2022-08-29T10:38:15Z</time>
      </trkpt>
      <trkpt lat="45.92572" lon="3.7196">
        <ele>1126.6</ele>
        <time>2022-08-29T10:38:16Z</time>
      </trkpt>
      <trkpt lat="45.9257" lon="3.71961">
        <ele>1126.6</ele>
        <time>2022-08-29T10:38:18Z</time>
      </trkpt>
      <trkpt lat="45.92575" lon="3.71964">
        <ele>1126.7</ele>
        <time>2022-08-29T10:38:20Z</time>
      </trkpt>
      <trkpt lat="45.92579" lon="3.71962">
        <ele>1126.5</ele>
        <time>2022-08-29T10:38:22Z</time>
      </trkpt>
      <trkpt lat="45.92581" lon="3.71961">
        <ele>1126.4</ele>
        <time>2022-08-29T10:38:23Z</time>
      </trkpt>
      <trkpt lat="45.92582" lon="3.71957">
        <ele>1126.1</ele>
        <time>2022-08-29T10:38:24Z</time>
      </trkpt>
      <trkpt lat="45.92582" lon="3.71959">
        <ele>1126</ele>
        <time>2022-08-29T10:38:26Z</time>
      </trkpt>
      <trkpt lat="45.92581" lon="3.71961">
        <ele>1125.8</ele>
        <time>2022-08-29T10:38:27Z</time>
      </trkpt>
      <trkpt lat="45.92581" lon="3.71961">
        <ele>1125.8</ele>
        <time>2022-08-29T10:38:28Z</time>
      </trkpt>
      <trkpt lat="45.9258" lon="3.71961">
        <ele>1125.7</ele>
        <time>2022-08-29T10:38:29Z</time>
      </trkpt>
      <trkpt lat="45.92581" lon="3.71962">
        <ele>1125.6</ele>
        <time>2022-08-29T10:38:30Z</time>
      </trkpt>
      <trkpt lat="45.92581" lon="3.71961">
        <ele>1125.6</ele>
        <time>2022-08-29T10:38:31Z</time>
      </trkpt>
      <trkpt lat="45.92581" lon="3.71961">
        <ele>1125.6</ele>
        <time>2022-08-29T10:38:32Z</time>
      </trkpt>
      <trkpt lat="45.92581" lon="3.7196">
        <ele>1125.5</ele>
        <time>2022-08-29T10:38:33Z</time>
      </trkpt>
      <trkpt lat="45.92582" lon="3.71958">
        <ele>1125.4</ele>
        <time>2022-08-29T10:38:35Z</time>
      </trkpt>
      <trkpt lat="45.92585" lon="3.71956">
        <ele>1125.1</ele>
        <time>2022-08-29T10:38:37Z</time>
      </trkpt>
      <trkpt lat="45.92586" lon="3.71956">
        <ele>1125.1</ele>
        <time>2022-08-29T10:38:39Z</time>
      </trkpt>
      <trkpt lat="45.92588" lon="3.71958">
        <ele>1124.9</ele>
        <time>2022-08-29T10:38:40Z</time>
      </trkpt>
      <trkpt lat="45.92589" lon="3.71958">
        <ele>1124.8</ele>
        <time>2022-08-29T10:38:41Z</time>
      </trkpt>
      <trkpt lat="45.92591" lon="3.71959">
        <ele>1124.6</ele>
        <time>2022-08-29T10:38:42Z</time>
      </trkpt>
      <trkpt lat="45.92599" lon="3.71958">
        <ele>1124.1</ele>
        <time>2022-08-29T10:38:50Z</time>
      </trkpt>
      <trkpt lat="45.92602" lon="3.71957">
        <ele>1124</ele>
        <time>2022-08-29T10:38:52Z</time>
      </trkpt>
      <trkpt lat="45.92605" lon="3.71955">
        <ele>1123.8</ele>
        <time>2022-08-29T10:38:53Z</time>
      </trkpt>
      <trkpt lat="45.92608" lon="3.71952">
        <ele>1123.7</ele>
        <time>2022-08-29T10:38:54Z</time>
      </trkpt>
      <trkpt lat="45.92611" lon="3.7195">
        <ele>1123.6</ele>
        <time>2022-08-29T10:38:56Z</time>
      </trkpt>
      <trkpt lat="45.92615" lon="3.71949">
        <ele>1123.5</ele>
        <time>2022-08-29T10:38:57Z</time>
      </trkpt>
      <trkpt lat="45.92619" lon="3.71949">
        <ele>1123.4</ele>
        <time>2022-08-29T10:38:58Z</time>
      </trkpt>
      <trkpt lat="45.9262" lon="3.71949">
        <ele>1123.4</ele>
        <time>2022-08-29T10:38:59Z</time>
      </trkpt>
      <trkpt lat="45.92622" lon="3.7195">
        <ele>1123.4</ele>
        <time>2022-08-29T10:39:00Z</time>
      </trkpt>
      <trkpt lat="45.92625" lon="3.7195">
        <ele>1123.4</ele>
        <time>2022-08-29T10:39:03Z</time>
      </trkpt>
      <trkpt lat="45.92629" lon="3.71951">
        <ele>1123.5</ele>
        <time>2022-08-29T10:39:04Z</time>
      </trkpt>
      <trkpt lat="45.92631" lon="3.71951">
        <ele>1123.5</ele>
        <time>2022-08-29T10:39:05Z</time>
      </trkpt>
      <trkpt lat="45.92632" lon="3.71951">
        <ele>1123.5</ele>
        <time>2022-08-29T10:39:06Z</time>
      </trkpt>
      <trkpt lat="45.92633" lon="3.71951">
        <ele>1123.5</ele>
        <time>2022-08-29T10:39:07Z</time>
      </trkpt>
      <trkpt lat="45.92634" lon="3.71952">
        <ele>1123.5</ele>
        <time>2022-08-29T10:39:08Z</time>
      </trkpt>
      <trkpt lat="45.92634" lon="3.71952">
        <ele>1123.5</ele>
        <time>2022-08-29T10:39:09Z</time>
      </trkpt>
      <trkpt lat="45.92635" lon="3.71953">
        <ele>1123.6</ele>
        <time>2022-08-29T10:39:10Z</time>
      </trkpt>
      <trkpt lat="45.92636" lon="3.71953">
        <ele>1123.6</ele>
        <time>2022-08-29T10:39:11Z</time>
      </trkpt>
      <trkpt lat="45.92636" lon="3.71953">
        <ele>1123.6</ele>
        <time>2022-08-29T10:39:12Z</time>
      </trkpt>
      <trkpt lat="45.92637" lon="3.71954">
        <ele>1123.6</ele>
        <time>2022-08-29T10:39:13Z</time>
      </trkpt>
      <trkpt lat="45.92638" lon="3.71954">
        <ele>1123.7</ele>
        <time>2022-08-29T10:39:14Z</time>
      </trkpt>
      <trkpt lat="45.9264" lon="3.71956">
        <ele>1123.8</ele>
        <time>2022-08-29T10:39:15Z</time>
      </trkpt>
      <trkpt lat="45.92641" lon="3.71957">
        <ele>1123.8</ele>
        <time>2022-08-29T10:39:16Z</time>
      </trkpt>
      <trkpt lat="45.92642" lon="3.71958">
        <ele>1123.8</ele>
        <time>2022-08-29T10:39:17Z</time>
      </trkpt>
      <trkpt lat="45.92644" lon="3.71959">
        <ele>1123.9</ele>
        <time>2022-08-29T10:39:18Z</time>
      </trkpt>
      <trkpt lat="45.92644" lon="3.71959">
        <ele>1124</ele>
        <time>2022-08-29T10:39:19Z</time>
      </trkpt>
      <trkpt lat="45.92645" lon="3.71959">
        <ele>1124</ele>
        <time>2022-08-29T10:39:20Z</time>
      </trkpt>
      <trkpt lat="45.92647" lon="3.71959">
        <ele>1124.1</ele>
        <time>2022-08-29T10:39:21Z</time>
      </trkpt>
      <trkpt lat="45.92648" lon="3.71959">
        <ele>1124.1</ele>
        <time>2022-08-29T10:39:22Z</time>
      </trkpt>
      <trkpt lat="45.92649" lon="3.71958">
        <ele>1124.2</ele>
        <time>2022-08-29T10:39:23Z</time>
      </trkpt>
      <trkpt lat="45.92651" lon="3.71958">
        <ele>1124.3</ele>
        <time>2022-08-29T10:39:24Z</time>
      </trkpt>
      <trkpt lat="45.92653" lon="3.71958">
        <ele>1124.4</ele>
        <time>2022-08-29T10:39:25Z</time>
      </trkpt>
      <trkpt lat="45.92654" lon="3.71958">
        <ele>1124.4</ele>
        <time>2022-08-29T10:39:26Z</time>
      </trkpt>
      <trkpt lat="45.92655" lon="3.71958">
        <ele>1124.5</ele>
        <time>2022-08-29T10:39:27Z</time>
      </trkpt>
      <trkpt lat="45.92656" lon="3.71958">
        <ele>1124.5</ele>
        <time>2022-08-29T10:39:28Z</time>
      </trkpt>
      <trkpt lat="45.92657" lon="3.71957">
        <ele>1124.6</ele>
        <time>2022-08-29T10:39:29Z</time>
      </trkpt>
      <trkpt lat="45.92659" lon="3.71957">
        <ele>1124.7</ele>
        <time>2022-08-29T10:39:30Z</time>
      </trkpt>
      <trkpt lat="45.9266" lon="3.71956">
        <ele>1124.8</ele>
        <time>2022-08-29T10:39:31Z</time>
      </trkpt>
      <trkpt lat="45.92661" lon="3.71956">
        <ele>1124.9</ele>
        <time>2022-08-29T10:39:32Z</time>
      </trkpt>
      <trkpt lat="45.92662" lon="3.71956">
        <ele>1124.9</ele>
        <time>2022-08-29T10:39:33Z</time>
      </trkpt>
      <trkpt lat="45.92662" lon="3.71956">
        <ele>1124.9</ele>
        <time>2022-08-29T10:39:34Z</time>
      </trkpt>
      <trkpt lat="45.92662" lon="3.71955">
        <ele>1124.9</ele>
        <time>2022-08-29T10:39:37Z</time>
      </trkpt>
      <trkpt lat="45.92662" lon="3.71954">
        <ele>1125</ele>
        <time>2022-08-29T10:39:39Z</time>
      </trkpt>
      <trkpt lat="45.92662" lon="3.71954">
        <ele>1125</ele>
        <time>2022-08-29T10:39:40Z</time>
      </trkpt>
      <trkpt lat="45.92662" lon="3.71954">
        <ele>1125</ele>
        <time>2022-08-29T10:39:41Z</time>
      </trkpt>
      <trkpt lat="45.92662" lon="3.71954">
        <ele>1125</ele>
        <time>2022-08-29T10:39:42Z</time>
      </trkpt>
      <trkpt lat="45.92662" lon="3.71955">
        <ele>1125</ele>
        <time>2022-08-29T10:39:43Z</time>
      </trkpt>
      <trkpt lat="45.92662" lon="3.71955">
        <ele>1125</ele>
        <time>2022-08-29T10:39:44Z</time>
      </trkpt>
      <trkpt lat="45.92662" lon="3.71956">
        <ele>1125.1</ele>
        <time>2022-08-29T10:39:46Z</time>
      </trkpt>
      <trkpt lat="45.92662" lon="3.71957">
        <ele>1125.1</ele>
        <time>2022-08-29T10:39:47Z</time>
      </trkpt>
      <trkpt lat="45.92662" lon="3.71957">
        <ele>1125.1</ele>
        <time>2022-08-29T10:39:48Z</time>
      </trkpt>
      <trkpt lat="45.92662" lon="3.71957">
        <ele>1125.1</ele>
        <time>2022-08-29T10:39:49Z</time>
      </trkpt>
      <trkpt lat="45.92662" lon="3.71957">
        <ele>1125.1</ele>
        <time>2022-08-29T10:39:50Z</time>
      </trkpt>
      <trkpt lat="45.92662" lon="3.71957">
        <ele>1125.1</ele>
        <time>2022-08-29T10:39:51Z</time>
      </trkpt>
      <trkpt lat="45.92662" lon="3.71957">
        <ele>1125.1</ele>
        <time>2022-08-29T10:39:52Z</time>
      </trkpt>
      <trkpt lat="45.92662" lon="3.71957">
        <ele>1125.1</ele>
        <time>2022-08-29T10:39:53Z</time>
      </trkpt>
      <trkpt lat="45.92661" lon="3.71957">
        <ele>1125.1</ele>
        <time>2022-08-29T10:39:54Z</time>
      </trkpt>
      <trkpt lat="45.92661" lon="3.71957">
        <ele>1125.2</ele>
        <time>2022-08-29T10:39:56Z</time>
      </trkpt>
      <trkpt lat="45.92661" lon="3.71957">
        <ele>1125.2</ele>
        <time>2022-08-29T10:39:58Z</time>
      </trkpt>
      <trkpt lat="45.92661" lon="3.71957">
        <ele>1125.2</ele>
        <time>2022-08-29T10:39:59Z</time>
      </trkpt>
      <trkpt lat="45.92661" lon="3.71957">
        <ele>1125.2</ele>
        <time>2022-08-29T10:40:01Z</time>
      </trkpt>
      <trkpt lat="45.92661" lon="3.71957">
        <ele>1125.2</ele>
        <time>2022-08-29T10:40:02Z</time>
      </trkpt>
      <trkpt lat="45.92661" lon="3.71957">
        <ele>1125.2</ele>
        <time>2022-08-29T10:40:03Z</time>
      </trkpt>
      <trkpt lat="45.92661" lon="3.71957">
        <ele>1125.2</ele>
        <time>2022-08-29T10:40:04Z</time>
      </trkpt>
      <trkpt lat="45.92661" lon="3.71957">
        <ele>1125.2</ele>
        <time>2022-08-29T10:40:05Z</time>
      </trkpt>
      <trkpt lat="45.92661" lon="3.71957">
        <ele>1125.2</ele>
        <time>2022-08-29T10:40:06Z</time>
      </trkpt>
      <trkpt lat="45.92661" lon="3.71957">
        <ele>1125.2</ele>
        <time>2022-08-29T10:40:07Z</time>
      </trkpt>
      <trkpt lat="45.92661" lon="3.71957">
        <ele>1125.2</ele>
        <time>2022-08-29T10:40:09Z</time>
      </trkpt>
      <trkpt lat="45.92661" lon="3.71957">
        <ele>1125.2</ele>
        <time>2022-08-29T10:40:10Z</time>
      </trkpt>
      <trkpt lat="45.92661" lon="3.71957">
        <ele>1125.2</ele>
        <time>2022-08-29T10:40:12Z</time>
      </trkpt>
      <trkpt lat="45.92661" lon="3.71957">
        <ele>1125.2</ele>
        <time>2022-08-29T10:40:13Z</time>
      </trkpt>
      <trkpt lat="45.92661" lon="3.71957">
        <ele>1125.2</ele>
        <time>2022-08-29T10:40:14Z</time>
      </trkpt>
      <trkpt lat="45.92661" lon="3.71957">
        <ele>1125.2</ele>
        <time>2022-08-29T10:40:15Z</time>
      </trkpt>
      <trkpt lat="45.92661" lon="3.71957">
        <ele>1125.2</ele>
        <time>2022-08-29T10:40:16Z</time>
      </trkpt>
      <trkpt lat="45.92661" lon="3.71957">
        <ele>1125.2</ele>
        <time>2022-08-29T10:40:17Z</time>
      </trkpt>
      <trkpt lat="45.92661" lon="3.71957">
        <ele>1125.2</ele>
        <time>2022-08-29T10:40:18Z</time>
      </trkpt>
      <trkpt lat="45.92661" lon="3.71957">
        <ele>1125.2</ele>
        <time>2022-08-29T10:40:19Z</time>
      </trkpt>
      <trkpt lat="45.92661" lon="3.71957">
        <ele>1125.2</ele>
        <time>2022-08-29T10:40:20Z</time>
      </trkpt>
      <trkpt lat="45.92662" lon="3.71957">
        <ele>1125.3</ele>
        <time>2022-08-29T10:40:21Z</time>
      </trkpt>
      <trkpt lat="45.92663" lon="3.71957">
        <ele>1125.3</ele>
        <time>2022-08-29T10:40:22Z</time>
      </trkpt>
      <trkpt lat="45.92664" lon="3.71957">
        <ele>1125.4</ele>
        <time>2022-08-29T10:40:23Z</time>
      </trkpt>
      <trkpt lat="45.92665" lon="3.71957">
        <ele>1125.4</ele>
        <time>2022-08-29T10:40:24Z</time>
      </trkpt>
      <trkpt lat="45.92666" lon="3.71957">
        <ele>1125.5</ele>
        <time>2022-08-29T10:40:25Z</time>
      </trkpt>
      <trkpt lat="45.92666" lon="3.71958">
        <ele>1125.5</ele>
        <time>2022-08-29T10:40:26Z</time>
      </trkpt>
      <trkpt lat="45.92666" lon="3.71958">
        <ele>1125.5</ele>
        <time>2022-08-29T10:40:27Z</time>
      </trkpt>
      <trkpt lat="45.92667" lon="3.71959">
        <ele>1125.6</ele>
        <time>2022-08-29T10:40:29Z</time>
      </trkpt>
      <trkpt lat="45.92667" lon="3.7196">
        <ele>1125.6</ele>
        <time>2022-08-29T10:40:30Z</time>
      </trkpt>
      <trkpt lat="45.92668" lon="3.7196">
        <ele>1125.6</ele>
        <time>2022-08-29T10:40:32Z</time>
      </trkpt>
      <trkpt lat="45.92668" lon="3.7196">
        <ele>1125.7</ele>
        <time>2022-08-29T10:40:33Z</time>
      </trkpt>
      <trkpt lat="45.92669" lon="3.7196">
        <ele>1125.7</ele>
        <time>2022-08-29T10:40:34Z</time>
      </trkpt>
      <trkpt lat="45.9267" lon="3.7196">
        <ele>1125.8</ele>
        <time>2022-08-29T10:40:35Z</time>
      </trkpt>
      <trkpt lat="45.92673" lon="3.71958">
        <ele>1125.9</ele>
        <time>2022-08-29T10:40:36Z</time>
      </trkpt>
      <trkpt lat="45.92674" lon="3.71958">
        <ele>1126</ele>
        <time>2022-08-29T10:40:37Z</time>
      </trkpt>
      <trkpt lat="45.92676" lon="3.71957">
        <ele>1126.1</ele>
        <time>2022-08-29T10:40:38Z</time>
      </trkpt>
      <trkpt lat="45.92677" lon="3.71956">
        <ele>1126.1</ele>
        <time>2022-08-29T10:40:39Z</time>
      </trkpt>
      <trkpt lat="45.92678" lon="3.71955">
        <ele>1126.2</ele>
        <time>2022-08-29T10:40:40Z</time>
      </trkpt>
      <trkpt lat="45.92681" lon="3.71953">
        <ele>1126.3</ele>
        <time>2022-08-29T10:40:42Z</time>
      </trkpt>
      <trkpt lat="45.92682" lon="3.71952">
        <ele>1126.4</ele>
        <time>2022-08-29T10:40:43Z</time>
      </trkpt>
      <trkpt lat="45.92682" lon="3.71951">
        <ele>1126.5</ele>
        <time>2022-08-29T10:40:44Z</time>
      </trkpt>
      <trkpt lat="45.92683" lon="3.7195">
        <ele>1126.6</ele>
        <time>2022-08-29T10:40:45Z</time>
      </trkpt>
      <trkpt lat="45.92685" lon="3.7195">
        <ele>1126.7</ele>
        <time>2022-08-29T10:40:46Z</time>
      </trkpt>
      <trkpt lat="45.92686" lon="3.71949">
        <ele>1126.8</ele>
        <time>2022-08-29T10:40:47Z</time>
      </trkpt>
      <trkpt lat="45.92689" lon="3.71948">
        <ele>1126.9</ele>
        <time>2022-08-29T10:40:48Z</time>
      </trkpt>
      <trkpt lat="45.9269" lon="3.71947">
        <ele>1127</ele>
        <time>2022-08-29T10:40:49Z</time>
      </trkpt>
      <trkpt lat="45.92693" lon="3.71945">
        <ele>1127.1</ele>
        <time>2022-08-29T10:40:50Z</time>
      </trkpt>
      <trkpt lat="45.92694" lon="3.71945">
        <ele>1127.2</ele>
        <time>2022-08-29T10:40:51Z</time>
      </trkpt>
      <trkpt lat="45.92696" lon="3.71942">
        <ele>1127.3</ele>
        <time>2022-08-29T10:40:52Z</time>
      </trkpt>
      <trkpt lat="45.92697" lon="3.71942">
        <ele>1127.4</ele>
        <time>2022-08-29T10:40:53Z</time>
      </trkpt>
      <trkpt lat="45.92699" lon="3.71939">
        <ele>1127.5</ele>
        <time>2022-08-29T10:40:54Z</time>
      </trkpt>
      <trkpt lat="45.927" lon="3.71938">
        <ele>1127.6</ele>
        <time>2022-08-29T10:40:55Z</time>
      </trkpt>
      <trkpt lat="45.92701" lon="3.71936">
        <ele>1127.7</ele>
        <time>2022-08-29T10:40:56Z</time>
      </trkpt>
      <trkpt lat="45.92702" lon="3.71934">
        <ele>1127.8</ele>
        <time>2022-08-29T10:40:58Z</time>
      </trkpt>
      <trkpt lat="45.92704" lon="3.71931">
        <ele>1127.9</ele>
        <time>2022-08-29T10:40:59Z</time>
      </trkpt>
      <trkpt lat="45.92704" lon="3.7193">
        <ele>1128</ele>
        <time>2022-08-29T10:41:00Z</time>
      </trkpt>
      <trkpt lat="45.92705" lon="3.71929">
        <ele>1128.1</ele>
        <time>2022-08-29T10:41:01Z</time>
      </trkpt>
      <trkpt lat="45.92706" lon="3.71927">
        <ele>1128.1</ele>
        <time>2022-08-29T10:41:02Z</time>
      </trkpt>
      <trkpt lat="45.92707" lon="3.71925">
        <ele>1128.2</ele>
        <time>2022-08-29T10:41:03Z</time>
      </trkpt>
      <trkpt lat="45.92708" lon="3.71924">
        <ele>1128.3</ele>
        <time>2022-08-29T10:41:04Z</time>
      </trkpt>
      <trkpt lat="45.92709" lon="3.71923">
        <ele>1128.4</ele>
        <time>2022-08-29T10:41:05Z</time>
      </trkpt>
      <trkpt lat="45.9271" lon="3.71922">
        <ele>1128.4</ele>
        <time>2022-08-29T10:41:06Z</time>
      </trkpt>
      <trkpt lat="45.9271" lon="3.71922">
        <ele>1128.5</ele>
        <time>2022-08-29T10:41:07Z</time>
      </trkpt>
      <trkpt lat="45.92711" lon="3.71922">
        <ele>1128.5</ele>
        <time>2022-08-29T10:41:08Z</time>
      </trkpt>
      <trkpt lat="45.92711" lon="3.71922">
        <ele>1128.5</ele>
        <time>2022-08-29T10:41:09Z</time>
      </trkpt>
      <trkpt lat="45.92711" lon="3.71922">
        <ele>1128.5</ele>
        <time>2022-08-29T10:41:10Z</time>
      </trkpt>
      <trkpt lat="45.92711" lon="3.71922">
        <ele>1128.5</ele>
        <time>2022-08-29T10:41:11Z</time>
      </trkpt>
      <trkpt lat="45.92711" lon="3.71923">
        <ele>1128.6</ele>
        <time>2022-08-29T10:41:12Z</time>
      </trkpt>
      <trkpt lat="45.92711" lon="3.71923">
        <ele>1128.6</ele>
        <time>2022-08-29T10:41:13Z</time>
      </trkpt>
      <trkpt lat="45.92711" lon="3.71923">
        <ele>1128.6</ele>
        <time>2022-08-29T10:41:14Z</time>
      </trkpt>
      <trkpt lat="45.92711" lon="3.71924">
        <ele>1128.6</ele>
        <time>2022-08-29T10:41:16Z</time>
      </trkpt>
      <trkpt lat="45.92712" lon="3.71924">
        <ele>1128.6</ele>
        <time>2022-08-29T10:41:17Z</time>
      </trkpt>
      <trkpt lat="45.92712" lon="3.71924">
        <ele>1128.6</ele>
        <time>2022-08-29T10:41:18Z</time>
      </trkpt>
      <trkpt lat="45.92712" lon="3.71924">
        <ele>1128.6</ele>
        <time>2022-08-29T10:41:19Z</time>
      </trkpt>
      <trkpt lat="45.92712" lon="3.71924">
        <ele>1128.6</ele>
        <time>2022-08-29T10:41:20Z</time>
      </trkpt>
      <trkpt lat="45.92713" lon="3.71922">
        <ele>1128.7</ele>
        <time>2022-08-29T10:41:21Z</time>
      </trkpt>
      <trkpt lat="45.92714" lon="3.71921">
        <ele>1128.8</ele>
        <time>2022-08-29T10:41:22Z</time>
      </trkpt>
      <trkpt lat="45.92715" lon="3.7192">
        <ele>1128.9</ele>
        <time>2022-08-29T10:41:23Z</time>
      </trkpt>
      <trkpt lat="45.92715" lon="3.71919">
        <ele>1128.9</ele>
        <time>2022-08-29T10:41:24Z</time>
      </trkpt>
      <trkpt lat="45.92715" lon="3.71918">
        <ele>1128.9</ele>
        <time>2022-08-29T10:41:25Z</time>
      </trkpt>
      <trkpt lat="45.92716" lon="3.71917">
        <ele>1129</ele>
        <time>2022-08-29T10:41:26Z</time>
      </trkpt>
      <trkpt lat="45.92717" lon="3.71915">
        <ele>1129.1</ele>
        <time>2022-08-29T10:41:27Z</time>
      </trkpt>
      <trkpt lat="45.92717" lon="3.71913">
        <ele>1129.1</ele>
        <time>2022-08-29T10:41:28Z</time>
      </trkpt>
      <trkpt lat="45.92717" lon="3.71912">
        <ele>1129.2</ele>
        <time>2022-08-29T10:41:29Z</time>
      </trkpt>
      <trkpt lat="45.92718" lon="3.71911">
        <ele>1129.2</ele>
        <time>2022-08-29T10:41:30Z</time>
      </trkpt>
      <trkpt lat="45.92718" lon="3.7191">
        <ele>1129.3</ele>
        <time>2022-08-29T10:41:31Z</time>
      </trkpt>
      <trkpt lat="45.92719" lon="3.71909">
        <ele>1129.3</ele>
        <time>2022-08-29T10:41:32Z</time>
      </trkpt>
      <trkpt lat="45.9272" lon="3.71907">
        <ele>1129.4</ele>
        <time>2022-08-29T10:41:33Z</time>
      </trkpt>
      <trkpt lat="45.9272" lon="3.71907">
        <ele>1129.4</ele>
        <time>2022-08-29T10:41:34Z</time>
      </trkpt>
      <trkpt lat="45.92721" lon="3.71906">
        <ele>1129.4</ele>
        <time>2022-08-29T10:41:35Z</time>
      </trkpt>
      <trkpt lat="45.92722" lon="3.71905">
        <ele>1129.5</ele>
        <time>2022-08-29T10:41:36Z</time>
      </trkpt>
      <trkpt lat="45.92723" lon="3.71905">
        <ele>1129.5</ele>
        <time>2022-08-29T10:41:37Z</time>
      </trkpt>
      <trkpt lat="45.92724" lon="3.71905">
        <ele>1129.6</ele>
        <time>2022-08-29T10:41:38Z</time>
      </trkpt>
      <trkpt lat="45.92725" lon="3.71904">
        <ele>1129.6</ele>
        <time>2022-08-29T10:41:39Z</time>
      </trkpt>
      <trkpt lat="45.92726" lon="3.71904">
        <ele>1129.7</ele>
        <time>2022-08-29T10:41:40Z</time>
      </trkpt>
      <trkpt lat="45.92727" lon="3.71903">
        <ele>1129.7</ele>
        <time>2022-08-29T10:41:41Z</time>
      </trkpt>
      <trkpt lat="45.92728" lon="3.71902">
        <ele>1129.8</ele>
        <time>2022-08-29T10:41:42Z</time>
      </trkpt>
      <trkpt lat="45.92729" lon="3.71901">
        <ele>1129.8</ele>
        <time>2022-08-29T10:41:43Z</time>
      </trkpt>
      <trkpt lat="45.9273" lon="3.719">
        <ele>1129.9</ele>
        <time>2022-08-29T10:41:44Z</time>
      </trkpt>
      <trkpt lat="45.92731" lon="3.71899">
        <ele>1129.9</ele>
        <time>2022-08-29T10:41:45Z</time>
      </trkpt>
      <trkpt lat="45.92731" lon="3.71898">
        <ele>1130</ele>
        <time>2022-08-29T10:41:46Z</time>
      </trkpt>
      <trkpt lat="45.92732" lon="3.71898">
        <ele>1130</ele>
        <time>2022-08-29T10:41:47Z</time>
      </trkpt>
      <trkpt lat="45.92733" lon="3.71897">
        <ele>1130</ele>
        <time>2022-08-29T10:41:48Z</time>
      </trkpt>
      <trkpt lat="45.92734" lon="3.71897">
        <ele>1130.1</ele>
        <time>2022-08-29T10:41:49Z</time>
      </trkpt>
      <trkpt lat="45.92734" lon="3.71897">
        <ele>1130.1</ele>
        <time>2022-08-29T10:41:50Z</time>
      </trkpt>
      <trkpt lat="45.92735" lon="3.71897">
        <ele>1130.1</ele>
        <time>2022-08-29T10:41:51Z</time>
      </trkpt>
      <trkpt lat="45.92735" lon="3.71897">
        <ele>1130.2</ele>
        <time>2022-08-29T10:41:52Z</time>
      </trkpt>
      <trkpt lat="45.92735" lon="3.71897">
        <ele>1130.2</ele>
        <time>2022-08-29T10:41:53Z</time>
      </trkpt>
      <trkpt lat="45.92735" lon="3.71897">
        <ele>1130.2</ele>
        <time>2022-08-29T10:41:54Z</time>
      </trkpt>
      <trkpt lat="45.92736" lon="3.71897">
        <ele>1130.2</ele>
        <time>2022-08-29T10:41:55Z</time>
      </trkpt>
      <trkpt lat="45.92736" lon="3.71897">
        <ele>1130.2</ele>
        <time>2022-08-29T10:41:56Z</time>
      </trkpt>
      <trkpt lat="45.92736" lon="3.71897">
        <ele>1130.2</ele>
        <time>2022-08-29T10:41:57Z</time>
      </trkpt>
      <trkpt lat="45.92736" lon="3.71897">
        <ele>1130.2</ele>
        <time>2022-08-29T10:41:58Z</time>
      </trkpt>
      <trkpt lat="45.92736" lon="3.71896">
        <ele>1130.2</ele>
        <time>2022-08-29T10:41:59Z</time>
      </trkpt>
      <trkpt lat="45.92736" lon="3.71896">
        <ele>1130.3</ele>
        <time>2022-08-29T10:42:00Z</time>
      </trkpt>
      <trkpt lat="45.92737" lon="3.71896">
        <ele>1130.3</ele>
        <time>2022-08-29T10:42:01Z</time>
      </trkpt>
      <trkpt lat="45.92738" lon="3.71896">
        <ele>1130.4</ele>
        <time>2022-08-29T10:42:02Z</time>
      </trkpt>
      <trkpt lat="45.92738" lon="3.71895">
        <ele>1130.4</ele>
        <time>2022-08-29T10:42:03Z</time>
      </trkpt>
      <trkpt lat="45.92738" lon="3.71895">
        <ele>1130.4</ele>
        <time>2022-08-29T10:42:04Z</time>
      </trkpt>
      <trkpt lat="45.92737" lon="3.71894">
        <ele>1130.5</ele>
        <time>2022-08-29T10:42:05Z</time>
      </trkpt>
      <trkpt lat="45.92735" lon="3.71893">
        <ele>1130.6</ele>
        <time>2022-08-29T10:42:06Z</time>
      </trkpt>
      <trkpt lat="45.92733" lon="3.71893">
        <ele>1130.7</ele>
        <time>2022-08-29T10:42:07Z</time>
      </trkpt>
      <trkpt lat="45.92732" lon="3.71892">
        <ele>1130.8</ele>
        <time>2022-08-29T10:42:08Z</time>
      </trkpt>
      <trkpt lat="45.92732" lon="3.71892">
        <ele>1130.8</ele>
        <time>2022-08-29T10:42:09Z</time>
      </trkpt>
      <trkpt lat="45.92732" lon="3.71893">
        <ele>1130.8</ele>
        <time>2022-08-29T10:42:10Z</time>
      </trkpt>
      <trkpt lat="45.92732" lon="3.71893">
        <ele>1130.8</ele>
        <time>2022-08-29T10:42:11Z</time>
      </trkpt>
      <trkpt lat="45.92732" lon="3.71893">
        <ele>1130.9</ele>
        <time>2022-08-29T10:42:12Z</time>
      </trkpt>
      <trkpt lat="45.92732" lon="3.71893">
        <ele>1130.9</ele>
        <time>2022-08-29T10:42:13Z</time>
      </trkpt>
      <trkpt lat="45.92732" lon="3.71893">
        <ele>1130.9</ele>
        <time>2022-08-29T10:42:14Z</time>
      </trkpt>
      <trkpt lat="45.92731" lon="3.71894">
        <ele>1130.9</ele>
        <time>2022-08-29T10:42:15Z</time>
      </trkpt>
      <trkpt lat="45.92731" lon="3.71894">
        <ele>1130.9</ele>
        <time>2022-08-29T10:42:16Z</time>
      </trkpt>
      <trkpt lat="45.92731" lon="3.71894">
        <ele>1130.9</ele>
        <time>2022-08-29T10:42:17Z</time>
      </trkpt>
      <trkpt lat="45.92731" lon="3.71894">
        <ele>1130.9</ele>
        <time>2022-08-29T10:42:18Z</time>
      </trkpt>
      <trkpt lat="45.92731" lon="3.71894">
        <ele>1130.9</ele>
        <time>2022-08-29T10:42:19Z</time>
      </trkpt>
      <trkpt lat="45.92731" lon="3.71894">
        <ele>1130.9</ele>
        <time>2022-08-29T10:42:20Z</time>
      </trkpt>
      <trkpt lat="45.92731" lon="3.71894">
        <ele>1130.9</ele>
        <time>2022-08-29T10:42:21Z</time>
      </trkpt>
      <trkpt lat="45.92731" lon="3.71894">
        <ele>1130.9</ele>
        <time>2022-08-29T10:42:22Z</time>
      </trkpt>
      <trkpt lat="45.92731" lon="3.71894">
        <ele>1130.9</ele>
        <time>2022-08-29T10:42:23Z</time>
      </trkpt>
      <trkpt lat="45.92731" lon="3.71894">
        <ele>1130.9</ele>
        <time>2022-08-29T10:42:24Z</time>
      </trkpt>
      <trkpt lat="45.92731" lon="3.71894">
        <ele>1130.9</ele>
        <time>2022-08-29T10:42:25Z</time>
      </trkpt>
      <trkpt lat="45.92731" lon="3.71894">
        <ele>1130.9</ele>
        <time>2022-08-29T10:42:26Z</time>
      </trkpt>
      <trkpt lat="45.92731" lon="3.71894">
        <ele>1130.9</ele>
        <time>2022-08-29T10:42:27Z</time>
      </trkpt>
      <trkpt lat="45.92732" lon="3.71893">
        <ele>1131</ele>
        <time>2022-08-29T10:42:28Z</time>
      </trkpt>
      <trkpt lat="45.92732" lon="3.71893">
        <ele>1131</ele>
        <time>2022-08-29T10:42:29Z</time>
      </trkpt>
      <trkpt lat="45.92732" lon="3.71892">
        <ele>1131</ele>
        <time>2022-08-29T10:42:30Z</time>
      </trkpt>
      <trkpt lat="45.92732" lon="3.71891">
        <ele>1131.1</ele>
        <time>2022-08-29T10:42:31Z</time>
      </trkpt>
      <trkpt lat="45.92732" lon="3.7189">
        <ele>1131.1</ele>
        <time>2022-08-29T10:42:32Z</time>
      </trkpt>
      <trkpt lat="45.92732" lon="3.71889">
        <ele>1131.2</ele>
        <time>2022-08-29T10:42:33Z</time>
      </trkpt>
      <trkpt lat="45.92733" lon="3.71888">
        <ele>1131.2</ele>
        <time>2022-08-29T10:42:34Z</time>
      </trkpt>
      <trkpt lat="45.92733" lon="3.71888">
        <ele>1131.3</ele>
        <time>2022-08-29T10:42:35Z</time>
      </trkpt>
      <trkpt lat="45.92733" lon="3.71888">
        <ele>1131.3</ele>
        <time>2022-08-29T10:42:36Z</time>
      </trkpt>
      <trkpt lat="45.92733" lon="3.71888">
        <ele>1131.3</ele>
        <time>2022-08-29T10:42:37Z</time>
      </trkpt>
      <trkpt lat="45.92733" lon="3.71888">
        <ele>1131.3</ele>
        <time>2022-08-29T10:42:38Z</time>
      </trkpt>
      <trkpt lat="45.92733" lon="3.71887">
        <ele>1131.3</ele>
        <time>2022-08-29T10:42:39Z</time>
      </trkpt>
      <trkpt lat="45.92734" lon="3.71887">
        <ele>1131.3</ele>
        <time>2022-08-29T10:42:40Z</time>
      </trkpt>
      <trkpt lat="45.92734" lon="3.71887">
        <ele>1131.3</ele>
        <time>2022-08-29T10:42:41Z</time>
      </trkpt>
      <trkpt lat="45.92734" lon="3.71887">
        <ele>1131.3</ele>
        <time>2022-08-29T10:42:42Z</time>
      </trkpt>
      <trkpt lat="45.92734" lon="3.71887">
        <ele>1131.3</ele>
        <time>2022-08-29T10:42:43Z</time>
      </trkpt>
      <trkpt lat="45.92734" lon="3.71887">
        <ele>1131.3</ele>
        <time>2022-08-29T10:42:44Z</time>
      </trkpt>
      <trkpt lat="45.92734" lon="3.71887">
        <ele>1131.3</ele>
        <time>2022-08-29T10:42:45Z</time>
      </trkpt>
      <trkpt lat="45.92734" lon="3.71887">
        <ele>1131.3</ele>
        <time>2022-08-29T10:42:46Z</time>
      </trkpt>
      <trkpt lat="45.92734" lon="3.71887">
        <ele>1131.3</ele>
        <time>2022-08-29T10:42:47Z</time>
      </trkpt>
      <trkpt lat="45.92734" lon="3.71887">
        <ele>1131.3</ele>
        <time>2022-08-29T10:42:48Z</time>
      </trkpt>
      <trkpt lat="45.92734" lon="3.71887">
        <ele>1131.3</ele>
        <time>2022-08-29T10:42:49Z</time>
      </trkpt>
      <trkpt lat="45.92734" lon="3.71887">
        <ele>1131.3</ele>
        <time>2022-08-29T10:42:50Z</time>
      </trkpt>
      <trkpt lat="45.92734" lon="3.71887">
        <ele>1131.3</ele>
        <time>2022-08-29T10:42:51Z</time>
      </trkpt>
      <trkpt lat="45.92734" lon="3.71887">
        <ele>1131.4</ele>
        <time>2022-08-29T10:42:52Z</time>
      </trkpt>
      <trkpt lat="45.92734" lon="3.71887">
        <ele>1131.4</ele>
        <time>2022-08-29T10:48:31Z</time>
      </trkpt>
      <trkpt lat="45.92734" lon="3.71887">
        <ele>1131.4</ele>
        <time>2022-08-29T10:48:32Z</time>
      </trkpt>
      <trkpt lat="45.92734" lon="3.71887">
        <ele>1131.4</ele>
        <time>2022-08-29T10:48:33Z</time>
      </trkpt>
      <trkpt lat="45.92734" lon="3.71887">
        <ele>1131.4</ele>
        <time>2022-08-29T10:48:34Z</time>
      </trkpt>
      <trkpt lat="45.92735" lon="3.71887">
        <ele>1131.4</ele>
        <time>2022-08-29T10:48:35Z</time>
      </trkpt>
      <trkpt lat="45.92735" lon="3.71886">
        <ele>1131.4</ele>
        <time>2022-08-29T10:48:36Z</time>
      </trkpt>
      <trkpt lat="45.92735" lon="3.71886">
        <ele>1131.4</ele>
        <time>2022-08-29T10:48:37Z</time>
      </trkpt>
      <trkpt lat="45.92735" lon="3.71886">
        <ele>1131.4</ele>
        <time>2022-08-29T10:48:38Z</time>
      </trkpt>
      <trkpt lat="45.92735" lon="3.71886">
        <ele>1131.4</ele>
        <time>2022-08-29T10:48:39Z</time>
      </trkpt>
      <trkpt lat="45.92735" lon="3.71886">
        <ele>1131.4</ele>
        <time>2022-08-29T10:48:40Z</time>
      </trkpt>
      <trkpt lat="45.92735" lon="3.71886">
        <ele>1131.4</ele>
        <time>2022-08-29T10:48:41Z</time>
      </trkpt>
      <trkpt lat="45.92735" lon="3.71886">
        <ele>1131.4</ele>
        <time>2022-08-29T10:48:42Z</time>
      </trkpt>
      <trkpt lat="45.92735" lon="3.71886">
        <ele>1131.4</ele>
        <time>2022-08-29T10:48:43Z</time>
      </trkpt>
      <trkpt lat="45.92735" lon="3.71886">
        <ele>1131.4</ele>
        <time>2022-08-29T10:48:44Z</time>
      </trkpt>
      <trkpt lat="45.92735" lon="3.71886">
        <ele>1131.4</ele>
        <time>2022-08-29T10:48:45Z</time>
      </trkpt>
      <trkpt lat="45.92735" lon="3.71886">
        <ele>1131.4</ele>
        <time>2022-08-29T10:48:46Z</time>
      </trkpt>
      <trkpt lat="45.92735" lon="3.71886">
        <ele>1131.5</ele>
        <time>2022-08-29T10:48:47Z</time>
      </trkpt>
      <trkpt lat="45.92735" lon="3.71886">
        <ele>1131.5</ele>
        <time>2022-08-29T10:48:48Z</time>
      </trkpt>
      <trkpt lat="45.92735" lon="3.71886">
        <ele>1131.5</ele>
        <time>2022-08-29T10:48:49Z</time>
      </trkpt>
      <trkpt lat="45.92735" lon="3.71886">
        <ele>1131.5</ele>
        <time>2022-08-29T10:48:50Z</time>
      </trkpt>
      <trkpt lat="45.92736" lon="3.71886">
        <ele>1131.5</ele>
        <time>2022-08-29T10:48:51Z</time>
      </trkpt>
      <trkpt lat="45.92736" lon="3.71886">
        <ele>1131.5</ele>
        <time>2022-08-29T10:48:52Z</time>
      </trkpt>
      <trkpt lat="45.92736" lon="3.71886">
        <ele>1131.5</ele>
        <time>2022-08-29T10:48:53Z</time>
      </trkpt>
      <trkpt lat="45.92736" lon="3.71885">
        <ele>1131.5</ele>
        <time>2022-08-29T10:48:54Z</time>
      </trkpt>
      <trkpt lat="45.92736" lon="3.71885">
        <ele>1131.5</ele>
        <time>2022-08-29T10:48:55Z</time>
      </trkpt>
      <trkpt lat="45.92736" lon="3.71885">
        <ele>1131.5</ele>
        <time>2022-08-29T10:48:56Z</time>
      </trkpt>
      <trkpt lat="45.92736" lon="3.71885">
        <ele>1131.5</ele>
        <time>2022-08-29T10:48:57Z</time>
      </trkpt>
      <trkpt lat="45.92736" lon="3.71885">
        <ele>1131.5</ele>
        <time>2022-08-29T10:48:58Z</time>
      </trkpt>
      <trkpt lat="45.92736" lon="3.71885">
        <ele>1131.5</ele>
        <time>2022-08-29T10:48:59Z</time>
      </trkpt>
      <trkpt lat="45.92736" lon="3.71885">
        <ele>1131.5</ele>
        <time>2022-08-29T10:49:00Z</time>
      </trkpt>
      <trkpt lat="45.92736" lon="3.71885">
        <ele>1131.5</ele>
        <time>2022-08-29T10:49:01Z</time>
      </trkpt>
      <trkpt lat="45.92736" lon="3.71885">
        <ele>1131.6</ele>
        <time>2022-08-29T10:49:02Z</time>
      </trkpt>
      <trkpt lat="45.92736" lon="3.71885">
        <ele>1131.6</ele>
        <time>2022-08-29T10:49:03Z</time>
      </trkpt>
      <trkpt lat="45.92736" lon="3.71885">
        <ele>1131.6</ele>
        <time>2022-08-29T10:49:04Z</time>
      </trkpt>
      <trkpt lat="45.92736" lon="3.71885">
        <ele>1131.6</ele>
        <time>2022-08-29T10:49:05Z</time>
      </trkpt>
      <trkpt lat="45.92736" lon="3.71885">
        <ele>1131.6</ele>
        <time>2022-08-29T10:49:06Z</time>
      </trkpt>
      <trkpt lat="45.92736" lon="3.71885">
        <ele>1131.6</ele>
        <time>2022-08-29T10:49:07Z</time>
      </trkpt>
      <trkpt lat="45.92737" lon="3.71885">
        <ele>1131.6</ele>
        <time>2022-08-29T10:49:08Z</time>
      </trkpt>
      <trkpt lat="45.92737" lon="3.71885">
        <ele>1131.6</ele>
        <time>2022-08-29T10:49:09Z</time>
      </trkpt>
      <trkpt lat="45.92738" lon="3.71884">
        <ele>1131.7</ele>
        <time>2022-08-29T10:49:10Z</time>
      </trkpt>
      <trkpt lat="45.92738" lon="3.71883">
        <ele>1131.7</ele>
        <time>2022-08-29T10:49:11Z</time>
      </trkpt>
      <trkpt lat="45.92739" lon="3.71883">
        <ele>1131.8</ele>
        <time>2022-08-29T10:49:12Z</time>
      </trkpt>
      <trkpt lat="45.92739" lon="3.71882">
        <ele>1131.9</ele>
        <time>2022-08-29T10:49:13Z</time>
      </trkpt>
      <trkpt lat="45.9274" lon="3.71881">
        <ele>1132</ele>
        <time>2022-08-29T10:49:14Z</time>
      </trkpt>
      <trkpt lat="45.92741" lon="3.7188">
        <ele>1132.1</ele>
        <time>2022-08-29T10:49:15Z</time>
      </trkpt>
      <trkpt lat="45.92742" lon="3.71879">
        <ele>1132.2</ele>
        <time>2022-08-29T10:49:16Z</time>
      </trkpt>
      <trkpt lat="45.92743" lon="3.71878">
        <ele>1132.3</ele>
        <time>2022-08-29T10:49:17Z</time>
      </trkpt>
      <trkpt lat="45.92744" lon="3.71877">
        <ele>1132.4</ele>
        <time>2022-08-29T10:49:18Z</time>
      </trkpt>
      <trkpt lat="45.92745" lon="3.71877">
        <ele>1132.4</ele>
        <time>2022-08-29T10:49:19Z</time>
      </trkpt>
      <trkpt lat="45.92745" lon="3.71877">
        <ele>1132.5</ele>
        <time>2022-08-29T10:49:20Z</time>
      </trkpt>
      <trkpt lat="45.92745" lon="3.71877">
        <ele>1132.5</ele>
        <time>2022-08-29T10:49:21Z</time>
      </trkpt>
      <trkpt lat="45.92745" lon="3.71877">
        <ele>1132.5</ele>
        <time>2022-08-29T10:49:22Z</time>
      </trkpt>
      <trkpt lat="45.92745" lon="3.71877">
        <ele>1132.5</ele>
        <time>2022-08-29T10:49:23Z</time>
      </trkpt>
      <trkpt lat="45.92745" lon="3.71877">
        <ele>1132.5</ele>
        <time>2022-08-29T10:49:24Z</time>
      </trkpt>
      <trkpt lat="45.92745" lon="3.71877">
        <ele>1132.5</ele>
        <time>2022-08-29T10:49:25Z</time>
      </trkpt>
      <trkpt lat="45.92745" lon="3.71877">
        <ele>1132.5</ele>
        <time>2022-08-29T10:49:26Z</time>
      </trkpt>
      <trkpt lat="45.92746" lon="3.71877">
        <ele>1132.5</ele>
        <time>2022-08-29T10:49:27Z</time>
      </trkpt>
      <trkpt lat="45.92746" lon="3.71876">
        <ele>1132.6</ele>
        <time>2022-08-29T10:49:28Z</time>
      </trkpt>
      <trkpt lat="45.92746" lon="3.71876">
        <ele>1132.6</ele>
        <time>2022-08-29T10:49:29Z</time>
      </trkpt>
      <trkpt lat="45.92747" lon="3.71876">
        <ele>1132.7</ele>
        <time>2022-08-29T10:49:30Z</time>
      </trkpt>
      <trkpt lat="45.92747" lon="3.71876">
        <ele>1132.7</ele>
        <time>2022-08-29T10:49:31Z</time>
      </trkpt>
      <trkpt lat="45.92748" lon="3.71876">
        <ele>1132.8</ele>
        <time>2022-08-29T10:49:32Z</time>
      </trkpt>
      <trkpt lat="45.9275" lon="3.71875">
        <ele>1133</ele>
        <time>2022-08-29T10:49:33Z</time>
      </trkpt>
      <trkpt lat="45.92751" lon="3.71874">
        <ele>1133.1</ele>
        <time>2022-08-29T10:49:34Z</time>
      </trkpt>
      <trkpt lat="45.92752" lon="3.71874">
        <ele>1133.2</ele>
        <time>2022-08-29T10:49:35Z</time>
      </trkpt>
      <trkpt lat="45.92755" lon="3.71873">
        <ele>1133.5</ele>
        <time>2022-08-29T10:49:36Z</time>
      </trkpt>
      <trkpt lat="45.92756" lon="3.71872">
        <ele>1133.6</ele>
        <time>2022-08-29T10:49:37Z</time>
      </trkpt>
      <trkpt lat="45.92758" lon="3.71871">
        <ele>1133.8</ele>
        <time>2022-08-29T10:49:38Z</time>
      </trkpt>
      <trkpt lat="45.92759" lon="3.71871">
        <ele>1133.9</ele>
        <time>2022-08-29T10:49:39Z</time>
      </trkpt>
      <trkpt lat="45.9276" lon="3.7187">
        <ele>1134</ele>
        <time>2022-08-29T10:49:40Z</time>
      </trkpt>
      <trkpt lat="45.92761" lon="3.71869">
        <ele>1134.1</ele>
        <time>2022-08-29T10:49:41Z</time>
      </trkpt>
      <trkpt lat="45.92763" lon="3.71867">
        <ele>1134.3</ele>
        <time>2022-08-29T10:49:42Z</time>
      </trkpt>
      <trkpt lat="45.92765" lon="3.71864">
        <ele>1134.6</ele>
        <time>2022-08-29T10:49:43Z</time>
      </trkpt>
      <trkpt lat="45.92766" lon="3.71863">
        <ele>1134.7</ele>
        <time>2022-08-29T10:49:44Z</time>
      </trkpt>
      <trkpt lat="45.92768" lon="3.7186">
        <ele>1135</ele>
        <time>2022-08-29T10:49:45Z</time>
      </trkpt>
      <trkpt lat="45.92769" lon="3.71859">
        <ele>1135.1</ele>
        <time>2022-08-29T10:49:46Z</time>
      </trkpt>
      <trkpt lat="45.9277" lon="3.71857">
        <ele>1135.3</ele>
        <time>2022-08-29T10:49:47Z</time>
      </trkpt>
      <trkpt lat="45.92771" lon="3.71856">
        <ele>1135.4</ele>
        <time>2022-08-29T10:49:48Z</time>
      </trkpt>
      <trkpt lat="45.92772" lon="3.71853">
        <ele>1135.6</ele>
        <time>2022-08-29T10:49:49Z</time>
      </trkpt>
      <trkpt lat="45.92773" lon="3.71852">
        <ele>1135.7</ele>
        <time>2022-08-29T10:49:50Z</time>
      </trkpt>
      <trkpt lat="45.92773" lon="3.71851">
        <ele>1135.8</ele>
        <time>2022-08-29T10:49:51Z</time>
      </trkpt>
      <trkpt lat="45.92774" lon="3.7185">
        <ele>1135.9</ele>
        <time>2022-08-29T10:49:52Z</time>
      </trkpt>
      <trkpt lat="45.92775" lon="3.71847">
        <ele>1136.1</ele>
        <time>2022-08-29T10:49:53Z</time>
      </trkpt>
      <trkpt lat="45.92776" lon="3.71845">
        <ele>1136.3</ele>
        <time>2022-08-29T10:49:54Z</time>
      </trkpt>
      <trkpt lat="45.92777" lon="3.71844">
        <ele>1136.4</ele>
        <time>2022-08-29T10:49:55Z</time>
      </trkpt>
      <trkpt lat="45.92778" lon="3.71843">
        <ele>1136.5</ele>
        <time>2022-08-29T10:49:56Z</time>
      </trkpt>
      <trkpt lat="45.92779" lon="3.71842">
        <ele>1136.6</ele>
        <time>2022-08-29T10:49:57Z</time>
      </trkpt>
      <trkpt lat="45.92779" lon="3.71842">
        <ele>1136.6</ele>
        <time>2022-08-29T10:49:58Z</time>
      </trkpt>
      <trkpt lat="45.92779" lon="3.71841">
        <ele>1136.7</ele>
        <time>2022-08-29T10:49:59Z</time>
      </trkpt>
      <trkpt lat="45.9278" lon="3.7184">
        <ele>1136.8</ele>
        <time>2022-08-29T10:50:00Z</time>
      </trkpt>
      <trkpt lat="45.9278" lon="3.71838">
        <ele>1136.9</ele>
        <time>2022-08-29T10:50:01Z</time>
      </trkpt>
      <trkpt lat="45.92781" lon="3.71837">
        <ele>1137</ele>
        <time>2022-08-29T10:50:02Z</time>
      </trkpt>
      <trkpt lat="45.92782" lon="3.71835">
        <ele>1137.2</ele>
        <time>2022-08-29T10:50:03Z</time>
      </trkpt>
      <trkpt lat="45.92783" lon="3.71834">
        <ele>1137.3</ele>
        <time>2022-08-29T10:50:04Z</time>
      </trkpt>
      <trkpt lat="45.92784" lon="3.71833">
        <ele>1137.4</ele>
        <time>2022-08-29T10:50:05Z</time>
      </trkpt>
      <trkpt lat="45.92785" lon="3.71832">
        <ele>1137.5</ele>
        <time>2022-08-29T10:50:06Z</time>
      </trkpt>
      <trkpt lat="45.92785" lon="3.71831">
        <ele>1137.6</ele>
        <time>2022-08-29T10:50:07Z</time>
      </trkpt>
      <trkpt lat="45.92786" lon="3.7183">
        <ele>1137.7</ele>
        <time>2022-08-29T10:50:08Z</time>
      </trkpt>
      <trkpt lat="45.92787" lon="3.71829">
        <ele>1137.9</ele>
        <time>2022-08-29T10:50:09Z</time>
      </trkpt>
      <trkpt lat="45.92788" lon="3.71828">
        <ele>1138</ele>
        <time>2022-08-29T10:50:10Z</time>
      </trkpt>
      <trkpt lat="45.9279" lon="3.71825">
        <ele>1138.3</ele>
        <time>2022-08-29T10:50:11Z</time>
      </trkpt>
      <trkpt lat="45.92791" lon="3.71824">
        <ele>1138.4</ele>
        <time>2022-08-29T10:50:12Z</time>
      </trkpt>
      <trkpt lat="45.92792" lon="3.71823">
        <ele>1138.5</ele>
        <time>2022-08-29T10:50:13Z</time>
      </trkpt>
      <trkpt lat="45.92794" lon="3.71821">
        <ele>1138.7</ele>
        <time>2022-08-29T10:50:14Z</time>
      </trkpt>
      <trkpt lat="45.92795" lon="3.7182">
        <ele>1138.8</ele>
        <time>2022-08-29T10:50:15Z</time>
      </trkpt>
      <trkpt lat="45.92796" lon="3.71818">
        <ele>1139</ele>
        <time>2022-08-29T10:50:16Z</time>
      </trkpt>
      <trkpt lat="45.92797" lon="3.71817">
        <ele>1139.1</ele>
        <time>2022-08-29T10:50:17Z</time>
      </trkpt>
      <trkpt lat="45.92799" lon="3.71815">
        <ele>1139.3</ele>
        <time>2022-08-29T10:50:18Z</time>
      </trkpt>
      <trkpt lat="45.928" lon="3.71814">
        <ele>1139.4</ele>
        <time>2022-08-29T10:50:19Z</time>
      </trkpt>
      <trkpt lat="45.92801" lon="3.71812">
        <ele>1139.5</ele>
        <time>2022-08-29T10:50:20Z</time>
      </trkpt>
      <trkpt lat="45.92802" lon="3.7181">
        <ele>1139.7</ele>
        <time>2022-08-29T10:50:21Z</time>
      </trkpt>
      <trkpt lat="45.92803" lon="3.7181">
        <ele>1139.8</ele>
        <time>2022-08-29T10:50:22Z</time>
      </trkpt>
      <trkpt lat="45.92804" lon="3.71809">
        <ele>1139.9</ele>
        <time>2022-08-29T10:50:23Z</time>
      </trkpt>
      <trkpt lat="45.92805" lon="3.71807">
        <ele>1140</ele>
        <time>2022-08-29T10:50:24Z</time>
      </trkpt>
      <trkpt lat="45.92806" lon="3.71806">
        <ele>1140.1</ele>
        <time>2022-08-29T10:50:25Z</time>
      </trkpt>
      <trkpt lat="45.92806" lon="3.71806">
        <ele>1140.2</ele>
        <time>2022-08-29T10:50:26Z</time>
      </trkpt>
      <trkpt lat="45.92807" lon="3.71806">
        <ele>1140.2</ele>
        <time>2022-08-29T10:50:27Z</time>
      </trkpt>
      <trkpt lat="45.92807" lon="3.71806">
        <ele>1140.3</ele>
        <time>2022-08-29T10:50:28Z</time>
      </trkpt>
      <trkpt lat="45.92808" lon="3.71805">
        <ele>1140.3</ele>
        <time>2022-08-29T10:50:29Z</time>
      </trkpt>
      <trkpt lat="45.92809" lon="3.71805">
        <ele>1140.4</ele>
        <time>2022-08-29T10:50:30Z</time>
      </trkpt>
      <trkpt lat="45.9281" lon="3.71805">
        <ele>1140.5</ele>
        <time>2022-08-29T10:50:31Z</time>
      </trkpt>
      <trkpt lat="45.92811" lon="3.71805">
        <ele>1140.5</ele>
        <time>2022-08-29T10:50:32Z</time>
      </trkpt>
      <trkpt lat="45.92812" lon="3.71804">
        <ele>1140.6</ele>
        <time>2022-08-29T10:50:33Z</time>
      </trkpt>
      <trkpt lat="45.92812" lon="3.71804">
        <ele>1140.7</ele>
        <time>2022-08-29T10:50:34Z</time>
      </trkpt>
      <trkpt lat="45.92813" lon="3.71804">
        <ele>1140.7</ele>
        <time>2022-08-29T10:50:35Z</time>
      </trkpt>
      <trkpt lat="45.92814" lon="3.71804">
        <ele>1140.8</ele>
        <time>2022-08-29T10:50:36Z</time>
      </trkpt>
      <trkpt lat="45.92816" lon="3.71804">
        <ele>1141</ele>
        <time>2022-08-29T10:50:37Z</time>
      </trkpt>
      <trkpt lat="45.92817" lon="3.71803">
        <ele>1141.1</ele>
        <time>2022-08-29T10:50:38Z</time>
      </trkpt>
      <trkpt lat="45.92819" lon="3.71803">
        <ele>1141.2</ele>
        <time>2022-08-29T10:50:39Z</time>
      </trkpt>
      <trkpt lat="45.9282" lon="3.71803">
        <ele>1141.3</ele>
        <time>2022-08-29T10:50:40Z</time>
      </trkpt>
      <trkpt lat="45.92821" lon="3.71804">
        <ele>1141.4</ele>
        <time>2022-08-29T10:50:41Z</time>
      </trkpt>
      <trkpt lat="45.92821" lon="3.71804">
        <ele>1141.4</ele>
        <time>2022-08-29T10:50:42Z</time>
      </trkpt>
      <trkpt lat="45.92821" lon="3.71804">
        <ele>1141.5</ele>
        <time>2022-08-29T10:50:43Z</time>
      </trkpt>
      <trkpt lat="45.92822" lon="3.71805">
        <ele>1141.5</ele>
        <time>2022-08-29T10:50:44Z</time>
      </trkpt>
      <trkpt lat="45.92823" lon="3.71805">
        <ele>1141.6</ele>
        <time>2022-08-29T10:50:45Z</time>
      </trkpt>
      <trkpt lat="45.92824" lon="3.71804">
        <ele>1141.6</ele>
        <time>2022-08-29T10:50:46Z</time>
      </trkpt>
      <trkpt lat="45.92825" lon="3.71804">
        <ele>1141.8</ele>
        <time>2022-08-29T10:50:47Z</time>
      </trkpt>
      <trkpt lat="45.92826" lon="3.71804">
        <ele>1141.9</ele>
        <time>2022-08-29T10:50:48Z</time>
      </trkpt>
      <trkpt lat="45.92827" lon="3.71804">
        <ele>1141.9</ele>
        <time>2022-08-29T10:50:49Z</time>
      </trkpt>
      <trkpt lat="45.92828" lon="3.71805">
        <ele>1142</ele>
        <time>2022-08-29T10:50:50Z</time>
      </trkpt>
      <trkpt lat="45.92828" lon="3.71805">
        <ele>1142.1</ele>
        <time>2022-08-29T10:50:51Z</time>
      </trkpt>
      <trkpt lat="45.9283" lon="3.71805">
        <ele>1142.3</ele>
        <time>2022-08-29T10:50:52Z</time>
      </trkpt>
      <trkpt lat="45.92831" lon="3.71806">
        <ele>1142.4</ele>
        <time>2022-08-29T10:50:53Z</time>
      </trkpt>
      <trkpt lat="45.92832" lon="3.71806">
        <ele>1142.4</ele>
        <time>2022-08-29T10:50:54Z</time>
      </trkpt>
      <trkpt lat="45.92834" lon="3.71806">
        <ele>1142.6</ele>
        <time>2022-08-29T10:50:55Z</time>
      </trkpt>
      <trkpt lat="45.92835" lon="3.71806">
        <ele>1142.7</ele>
        <time>2022-08-29T10:50:56Z</time>
      </trkpt>
      <trkpt lat="45.92837" lon="3.71806">
        <ele>1142.9</ele>
        <time>2022-08-29T10:50:57Z</time>
      </trkpt>
      <trkpt lat="45.92838" lon="3.71806">
        <ele>1143.1</ele>
        <time>2022-08-29T10:50:58Z</time>
      </trkpt>
      <trkpt lat="45.9284" lon="3.71806">
        <ele>1143.2</ele>
        <time>2022-08-29T10:50:59Z</time>
      </trkpt>
      <trkpt lat="45.92841" lon="3.71806">
        <ele>1143.4</ele>
        <time>2022-08-29T10:51:00Z</time>
      </trkpt>
      <trkpt lat="45.92842" lon="3.71807">
        <ele>1143.5</ele>
        <time>2022-08-29T10:51:01Z</time>
      </trkpt>
      <trkpt lat="45.92844" lon="3.71807">
        <ele>1143.6</ele>
        <time>2022-08-29T10:51:02Z</time>
      </trkpt>
      <trkpt lat="45.92845" lon="3.71807">
        <ele>1143.7</ele>
        <time>2022-08-29T10:51:03Z</time>
      </trkpt>
      <trkpt lat="45.92846" lon="3.71807">
        <ele>1143.9</ele>
        <time>2022-08-29T10:51:04Z</time>
      </trkpt>
      <trkpt lat="45.92848" lon="3.71808">
        <ele>1144</ele>
        <time>2022-08-29T10:51:05Z</time>
      </trkpt>
      <trkpt lat="45.92849" lon="3.71808">
        <ele>1144.2</ele>
        <time>2022-08-29T10:51:06Z</time>
      </trkpt>
      <trkpt lat="45.92851" lon="3.71809">
        <ele>1144.4</ele>
        <time>2022-08-29T10:51:07Z</time>
      </trkpt>
      <trkpt lat="45.92852" lon="3.71809">
        <ele>1144.5</ele>
        <time>2022-08-29T10:51:08Z</time>
      </trkpt>
      <trkpt lat="45.92853" lon="3.7181">
        <ele>1144.6</ele>
        <time>2022-08-29T10:51:09Z</time>
      </trkpt>
      <trkpt lat="45.92853" lon="3.7181">
        <ele>1144.6</ele>
        <time>2022-08-29T10:51:10Z</time>
      </trkpt>
      <trkpt lat="45.92854" lon="3.71811">
        <ele>1144.7</ele>
        <time>2022-08-29T10:51:11Z</time>
      </trkpt>
      <trkpt lat="45.92854" lon="3.71811">
        <ele>1144.7</ele>
        <time>2022-08-29T10:51:12Z</time>
      </trkpt>
      <trkpt lat="45.92855" lon="3.71811">
        <ele>1144.8</ele>
        <time>2022-08-29T10:51:13Z</time>
      </trkpt>
      <trkpt lat="45.92855" lon="3.71811">
        <ele>1144.8</ele>
        <time>2022-08-29T10:51:14Z</time>
      </trkpt>
      <trkpt lat="45.92855" lon="3.71812">
        <ele>1144.8</ele>
        <time>2022-08-29T10:51:15Z</time>
      </trkpt>
      <trkpt lat="45.92855" lon="3.71812">
        <ele>1144.8</ele>
        <time>2022-08-29T10:51:16Z</time>
      </trkpt>
      <trkpt lat="45.92856" lon="3.71812">
        <ele>1144.9</ele>
        <time>2022-08-29T10:51:17Z</time>
      </trkpt>
      <trkpt lat="45.92858" lon="3.71812">
        <ele>1145.1</ele>
        <time>2022-08-29T10:51:18Z</time>
      </trkpt>
      <trkpt lat="45.92859" lon="3.71812">
        <ele>1145.2</ele>
        <time>2022-08-29T10:51:19Z</time>
      </trkpt>
      <trkpt lat="45.9286" lon="3.71812">
        <ele>1145.2</ele>
        <time>2022-08-29T10:51:20Z</time>
      </trkpt>
      <trkpt lat="45.92861" lon="3.71812">
        <ele>1145.4</ele>
        <time>2022-08-29T10:51:21Z</time>
      </trkpt>
      <trkpt lat="45.92863" lon="3.71812">
        <ele>1145.5</ele>
        <time>2022-08-29T10:51:22Z</time>
      </trkpt>
      <trkpt lat="45.92865" lon="3.71812">
        <ele>1145.6</ele>
        <time>2022-08-29T10:51:23Z</time>
      </trkpt>
      <trkpt lat="45.92866" lon="3.71811">
        <ele>1145.7</ele>
        <time>2022-08-29T10:51:24Z</time>
      </trkpt>
      <trkpt lat="45.92866" lon="3.71811">
        <ele>1145.8</ele>
        <time>2022-08-29T10:51:25Z</time>
      </trkpt>
      <trkpt lat="45.92868" lon="3.7181">
        <ele>1145.9</ele>
        <time>2022-08-29T10:51:26Z</time>
      </trkpt>
      <trkpt lat="45.92869" lon="3.71809">
        <ele>1146</ele>
        <time>2022-08-29T10:51:27Z</time>
      </trkpt>
      <trkpt lat="45.92871" lon="3.71808">
        <ele>1146.1</ele>
        <time>2022-08-29T10:51:28Z</time>
      </trkpt>
      <trkpt lat="45.92872" lon="3.71807">
        <ele>1146.2</ele>
        <time>2022-08-29T10:51:29Z</time>
      </trkpt>
      <trkpt lat="45.92874" lon="3.71806">
        <ele>1146.3</ele>
        <time>2022-08-29T10:51:30Z</time>
      </trkpt>
      <trkpt lat="45.92876" lon="3.71805">
        <ele>1146.4</ele>
        <time>2022-08-29T10:51:31Z</time>
      </trkpt>
      <trkpt lat="45.92877" lon="3.71803">
        <ele>1146.6</ele>
        <time>2022-08-29T10:51:32Z</time>
      </trkpt>
      <trkpt lat="45.92878" lon="3.71803">
        <ele>1146.6</ele>
        <time>2022-08-29T10:51:33Z</time>
      </trkpt>
      <trkpt lat="45.92879" lon="3.71802">
        <ele>1146.7</ele>
        <time>2022-08-29T10:51:34Z</time>
      </trkpt>
      <trkpt lat="45.9288" lon="3.71802">
        <ele>1146.7</ele>
        <time>2022-08-29T10:51:35Z</time>
      </trkpt>
      <trkpt lat="45.92882" lon="3.71801">
        <ele>1146.8</ele>
        <time>2022-08-29T10:51:36Z</time>
      </trkpt>
      <trkpt lat="45.92884" lon="3.71801">
        <ele>1146.9</ele>
        <time>2022-08-29T10:51:37Z</time>
      </trkpt>
      <trkpt lat="45.92885" lon="3.71801">
        <ele>1147</ele>
        <time>2022-08-29T10:51:38Z</time>
      </trkpt>
      <trkpt lat="45.92886" lon="3.718">
        <ele>1147</ele>
        <time>2022-08-29T10:51:39Z</time>
      </trkpt>
      <trkpt lat="45.92887" lon="3.718">
        <ele>1147</ele>
        <time>2022-08-29T10:51:40Z</time>
      </trkpt>
      <trkpt lat="45.92888" lon="3.718">
        <ele>1147.1</ele>
        <time>2022-08-29T10:51:41Z</time>
      </trkpt>
      <trkpt lat="45.92889" lon="3.718">
        <ele>1147.1</ele>
        <time>2022-08-29T10:51:42Z</time>
      </trkpt>
      <trkpt lat="45.9289" lon="3.718">
        <ele>1147.2</ele>
        <time>2022-08-29T10:51:43Z</time>
      </trkpt>
      <trkpt lat="45.9289" lon="3.718">
        <ele>1147.2</ele>
        <time>2022-08-29T10:51:44Z</time>
      </trkpt>
      <trkpt lat="45.92891" lon="3.718">
        <ele>1147.2</ele>
        <time>2022-08-29T10:51:45Z</time>
      </trkpt>
      <trkpt lat="45.92893" lon="3.71799">
        <ele>1147.3</ele>
        <time>2022-08-29T10:51:46Z</time>
      </trkpt>
      <trkpt lat="45.92894" lon="3.71799">
        <ele>1147.3</ele>
        <time>2022-08-29T10:51:47Z</time>
      </trkpt>
      <trkpt lat="45.92895" lon="3.71798">
        <ele>1147.3</ele>
        <time>2022-08-29T10:51:48Z</time>
      </trkpt>
      <trkpt lat="45.92896" lon="3.71797">
        <ele>1147.4</ele>
        <time>2022-08-29T10:51:49Z</time>
      </trkpt>
      <trkpt lat="45.92896" lon="3.71796">
        <ele>1147.4</ele>
        <time>2022-08-29T10:51:50Z</time>
      </trkpt>
      <trkpt lat="45.92897" lon="3.71795">
        <ele>1147.4</ele>
        <time>2022-08-29T10:51:51Z</time>
      </trkpt>
      <trkpt lat="45.92897" lon="3.71794">
        <ele>1147.4</ele>
        <time>2022-08-29T10:51:52Z</time>
      </trkpt>
      <trkpt lat="45.92898" lon="3.71793">
        <ele>1147.4</ele>
        <time>2022-08-29T10:51:53Z</time>
      </trkpt>
      <trkpt lat="45.92899" lon="3.71793">
        <ele>1147.4</ele>
        <time>2022-08-29T10:51:54Z</time>
      </trkpt>
      <trkpt lat="45.92899" lon="3.71792">
        <ele>1147.4</ele>
        <time>2022-08-29T10:51:55Z</time>
      </trkpt>
      <trkpt lat="45.929" lon="3.71792">
        <ele>1147.4</ele>
        <time>2022-08-29T10:51:56Z</time>
      </trkpt>
      <trkpt lat="45.92901" lon="3.71792">
        <ele>1147.4</ele>
        <time>2022-08-29T10:51:57Z</time>
      </trkpt>
      <trkpt lat="45.92901" lon="3.71792">
        <ele>1147.4</ele>
        <time>2022-08-29T10:51:58Z</time>
      </trkpt>
      <trkpt lat="45.92902" lon="3.71792">
        <ele>1147.4</ele>
        <time>2022-08-29T10:51:59Z</time>
      </trkpt>
      <trkpt lat="45.92902" lon="3.71793">
        <ele>1147.5</ele>
        <time>2022-08-29T10:52:00Z</time>
      </trkpt>
      <trkpt lat="45.92903" lon="3.71793">
        <ele>1147.5</ele>
        <time>2022-08-29T10:52:01Z</time>
      </trkpt>
      <trkpt lat="45.92903" lon="3.71793">
        <ele>1147.5</ele>
        <time>2022-08-29T10:52:02Z</time>
      </trkpt>
      <trkpt lat="45.92904" lon="3.71794">
        <ele>1147.5</ele>
        <time>2022-08-29T10:52:03Z</time>
      </trkpt>
      <trkpt lat="45.92905" lon="3.71793">
        <ele>1147.5</ele>
        <time>2022-08-29T10:52:04Z</time>
      </trkpt>
      <trkpt lat="45.92908" lon="3.71792">
        <ele>1147.5</ele>
        <time>2022-08-29T10:52:05Z</time>
      </trkpt>
      <trkpt lat="45.92912" lon="3.7179">
        <ele>1147.5</ele>
        <time>2022-08-29T10:52:06Z</time>
      </trkpt>
      <trkpt lat="45.92914" lon="3.71789">
        <ele>1147.5</ele>
        <time>2022-08-29T10:52:07Z</time>
      </trkpt>
      <trkpt lat="45.92917" lon="3.71789">
        <ele>1147.5</ele>
        <time>2022-08-29T10:52:08Z</time>
      </trkpt>
      <trkpt lat="45.92921" lon="3.71788">
        <ele>1147.5</ele>
        <time>2022-08-29T10:52:09Z</time>
      </trkpt>
      <trkpt lat="45.92922" lon="3.71788">
        <ele>1147.6</ele>
        <time>2022-08-29T10:52:10Z</time>
      </trkpt>
      <trkpt lat="45.92923" lon="3.71787">
        <ele>1147.6</ele>
        <time>2022-08-29T10:52:11Z</time>
      </trkpt>
      <trkpt lat="45.92925" lon="3.71787">
        <ele>1147.6</ele>
        <time>2022-08-29T10:52:12Z</time>
      </trkpt>
      <trkpt lat="45.92926" lon="3.71787">
        <ele>1147.6</ele>
        <time>2022-08-29T10:52:13Z</time>
      </trkpt>
      <trkpt lat="45.92927" lon="3.71786">
        <ele>1147.6</ele>
        <time>2022-08-29T10:52:14Z</time>
      </trkpt>
      <trkpt lat="45.92927" lon="3.71786">
        <ele>1147.6</ele>
        <time>2022-08-29T10:52:15Z</time>
      </trkpt>
      <trkpt lat="45.92928" lon="3.71785">
        <ele>1147.6</ele>
        <time>2022-08-29T10:52:16Z</time>
      </trkpt>
      <trkpt lat="45.9293" lon="3.71785">
        <ele>1147.6</ele>
        <time>2022-08-29T10:52:17Z</time>
      </trkpt>
      <trkpt lat="45.92931" lon="3.71785">
        <ele>1147.7</ele>
        <time>2022-08-29T10:52:18Z</time>
      </trkpt>
      <trkpt lat="45.92932" lon="3.71784">
        <ele>1147.7</ele>
        <time>2022-08-29T10:52:19Z</time>
      </trkpt>
      <trkpt lat="45.92934" lon="3.71784">
        <ele>1147.7</ele>
        <time>2022-08-29T10:52:20Z</time>
      </trkpt>
      <trkpt lat="45.92935" lon="3.71784">
        <ele>1147.7</ele>
        <time>2022-08-29T10:52:21Z</time>
      </trkpt>
      <trkpt lat="45.92936" lon="3.71783">
        <ele>1147.8</ele>
        <time>2022-08-29T10:52:22Z</time>
      </trkpt>
      <trkpt lat="45.92938" lon="3.71783">
        <ele>1147.8</ele>
        <time>2022-08-29T10:52:23Z</time>
      </trkpt>
      <trkpt lat="45.92939" lon="3.71783">
        <ele>1147.9</ele>
        <time>2022-08-29T10:52:24Z</time>
      </trkpt>
      <trkpt lat="45.92941" lon="3.71783">
        <ele>1147.9</ele>
        <time>2022-08-29T10:52:25Z</time>
      </trkpt>
      <trkpt lat="45.92943" lon="3.71783">
        <ele>1148</ele>
        <time>2022-08-29T10:52:26Z</time>
      </trkpt>
      <trkpt lat="45.92944" lon="3.71783">
        <ele>1148</ele>
        <time>2022-08-29T10:52:27Z</time>
      </trkpt>
      <trkpt lat="45.92946" lon="3.71783">
        <ele>1148.1</ele>
        <time>2022-08-29T10:52:28Z</time>
      </trkpt>
      <trkpt lat="45.92947" lon="3.71784">
        <ele>1148.1</ele>
        <time>2022-08-29T10:52:29Z</time>
      </trkpt>
      <trkpt lat="45.92948" lon="3.71784">
        <ele>1148.1</ele>
        <time>2022-08-29T10:52:30Z</time>
      </trkpt>
      <trkpt lat="45.92949" lon="3.71784">
        <ele>1148.1</ele>
        <time>2022-08-29T10:52:31Z</time>
      </trkpt>
      <trkpt lat="45.9295" lon="3.71784">
        <ele>1148.2</ele>
        <time>2022-08-29T10:52:32Z</time>
      </trkpt>
      <trkpt lat="45.9295" lon="3.71784">
        <ele>1148.2</ele>
        <time>2022-08-29T10:52:33Z</time>
      </trkpt>
      <trkpt lat="45.92951" lon="3.71784">
        <ele>1148.2</ele>
        <time>2022-08-29T10:52:34Z</time>
      </trkpt>
      <trkpt lat="45.92952" lon="3.71784">
        <ele>1148.2</ele>
        <time>2022-08-29T10:52:35Z</time>
      </trkpt>
      <trkpt lat="45.92952" lon="3.71784">
        <ele>1148.2</ele>
        <time>2022-08-29T10:52:36Z</time>
      </trkpt>
      <trkpt lat="45.92953" lon="3.71783">
        <ele>1148.3</ele>
        <time>2022-08-29T10:52:37Z</time>
      </trkpt>
      <trkpt lat="45.92953" lon="3.71783">
        <ele>1148.3</ele>
        <time>2022-08-29T10:52:38Z</time>
      </trkpt>
      <trkpt lat="45.92954" lon="3.71782">
        <ele>1148.3</ele>
        <time>2022-08-29T10:52:39Z</time>
      </trkpt>
      <trkpt lat="45.92954" lon="3.71781">
        <ele>1148.3</ele>
        <time>2022-08-29T10:52:40Z</time>
      </trkpt>
      <trkpt lat="45.92954" lon="3.71781">
        <ele>1148.3</ele>
        <time>2022-08-29T10:52:41Z</time>
      </trkpt>
      <trkpt lat="45.92954" lon="3.7178">
        <ele>1148.3</ele>
        <time>2022-08-29T10:52:42Z</time>
      </trkpt>
      <trkpt lat="45.92954" lon="3.7178">
        <ele>1148.3</ele>
        <time>2022-08-29T10:52:43Z</time>
      </trkpt>
      <trkpt lat="45.92954" lon="3.7178">
        <ele>1148.3</ele>
        <time>2022-08-29T10:52:44Z</time>
      </trkpt>
      <trkpt lat="45.92954" lon="3.7178">
        <ele>1148.3</ele>
        <time>2022-08-29T10:52:45Z</time>
      </trkpt>
      <trkpt lat="45.92954" lon="3.7178">
        <ele>1148.3</ele>
        <time>2022-08-29T10:52:46Z</time>
      </trkpt>
      <trkpt lat="45.92954" lon="3.7178">
        <ele>1148.3</ele>
        <time>2022-08-29T10:52:47Z</time>
      </trkpt>
      <trkpt lat="45.92954" lon="3.7178">
        <ele>1148.3</ele>
        <time>2022-08-29T10:52:48Z</time>
      </trkpt>
      <trkpt lat="45.92954" lon="3.7178">
        <ele>1148.3</ele>
        <time>2022-08-29T10:52:49Z</time>
      </trkpt>
      <trkpt lat="45.92955" lon="3.7178">
        <ele>1148.3</ele>
        <time>2022-08-29T10:52:50Z</time>
      </trkpt>
      <trkpt lat="45.92955" lon="3.7178">
        <ele>1148.3</ele>
        <time>2022-08-29T10:52:51Z</time>
      </trkpt>
      <trkpt lat="45.92955" lon="3.7178">
        <ele>1148.3</ele>
        <time>2022-08-29T10:52:52Z</time>
      </trkpt>
      <trkpt lat="45.92955" lon="3.7178">
        <ele>1148.3</ele>
        <time>2022-08-29T10:52:53Z</time>
      </trkpt>
      <trkpt lat="45.92955" lon="3.7178">
        <ele>1148.3</ele>
        <time>2022-08-29T10:52:54Z</time>
      </trkpt>
      <trkpt lat="45.92955" lon="3.7178">
        <ele>1148.3</ele>
        <time>2022-08-29T10:52:55Z</time>
      </trkpt>
      <trkpt lat="45.92955" lon="3.7178">
        <ele>1148.3</ele>
        <time>2022-08-29T10:52:56Z</time>
      </trkpt>
      <trkpt lat="45.92955" lon="3.7178">
        <ele>1148.3</ele>
        <time>2022-08-29T10:52:57Z</time>
      </trkpt>
      <trkpt lat="45.92955" lon="3.7178">
        <ele>1148.3</ele>
        <time>2022-08-29T10:52:58Z</time>
      </trkpt>
      <trkpt lat="45.92955" lon="3.7178">
        <ele>1148.3</ele>
        <time>2022-08-29T10:52:59Z</time>
      </trkpt>
      <trkpt lat="45.92955" lon="3.7178">
        <ele>1148.3</ele>
        <time>2022-08-29T10:53:00Z</time>
      </trkpt>
      <trkpt lat="45.92955" lon="3.7178">
        <ele>1148.3</ele>
        <time>2022-08-29T10:53:01Z</time>
      </trkpt>
      <trkpt lat="45.92955" lon="3.7178">
        <ele>1148.3</ele>
        <time>2022-08-29T10:53:02Z</time>
      </trkpt>
      <trkpt lat="45.92955" lon="3.7178">
        <ele>1148.3</ele>
        <time>2022-08-29T10:53:03Z</time>
      </trkpt>
      <trkpt lat="45.92955" lon="3.7178">
        <ele>1148.3</ele>
        <time>2022-08-29T10:53:04Z</time>
      </trkpt>
      <trkpt lat="45.92955" lon="3.7178">
        <ele>1148.3</ele>
        <time>2022-08-29T10:53:05Z</time>
      </trkpt>
      <trkpt lat="45.92955" lon="3.7178">
        <ele>1148.3</ele>
        <time>2022-08-29T10:53:06Z</time>
      </trkpt>
      <trkpt lat="45.92955" lon="3.7178">
        <ele>1148.3</ele>
        <time>2022-08-29T10:53:07Z</time>
      </trkpt>
      <trkpt lat="45.92955" lon="3.7178">
        <ele>1148.3</ele>
        <time>2022-08-29T10:53:08Z</time>
      </trkpt>
      <trkpt lat="45.92955" lon="3.7178">
        <ele>1148.3</ele>
        <time>2022-08-29T10:53:09Z</time>
      </trkpt>
      <trkpt lat="45.92955" lon="3.7178">
        <ele>1148.3</ele>
        <time>2022-08-29T10:53:10Z</time>
      </trkpt>
      <trkpt lat="45.92955" lon="3.7178">
        <ele>1148.3</ele>
        <time>2022-08-29T10:53:11Z</time>
      </trkpt>
      <trkpt lat="45.92956" lon="3.7178">
        <ele>1148.4</ele>
        <time>2022-08-29T10:53:12Z</time>
      </trkpt>
      <trkpt lat="45.92957" lon="3.71779">
        <ele>1148.4</ele>
        <time>2022-08-29T10:53:13Z</time>
      </trkpt>
      <trkpt lat="45.92958" lon="3.71778">
        <ele>1148.4</ele>
        <time>2022-08-29T10:53:14Z</time>
      </trkpt>
      <trkpt lat="45.92959" lon="3.71777">
        <ele>1148.4</ele>
        <time>2022-08-29T10:53:15Z</time>
      </trkpt>
      <trkpt lat="45.9296" lon="3.71776">
        <ele>1148.4</ele>
        <time>2022-08-29T10:53:16Z</time>
      </trkpt>
      <trkpt lat="45.92963" lon="3.71775">
        <ele>1148.5</ele>
        <time>2022-08-29T10:53:17Z</time>
      </trkpt>
      <trkpt lat="45.92964" lon="3.71774">
        <ele>1148.4</ele>
        <time>2022-08-29T10:53:18Z</time>
      </trkpt>
      <trkpt lat="45.92967" lon="3.71774">
        <ele>1148.2</ele>
        <time>2022-08-29T10:53:19Z</time>
      </trkpt>
      <trkpt lat="45.92968" lon="3.71773">
        <ele>1148.1</ele>
        <time>2022-08-29T10:53:20Z</time>
      </trkpt>
      <trkpt lat="45.92969" lon="3.71773">
        <ele>1148</ele>
        <time>2022-08-29T10:53:21Z</time>
      </trkpt>
      <trkpt lat="45.92971" lon="3.71774">
        <ele>1147.8</ele>
        <time>2022-08-29T10:53:22Z</time>
      </trkpt>
      <trkpt lat="45.92972" lon="3.71775">
        <ele>1147.7</ele>
        <time>2022-08-29T10:53:23Z</time>
      </trkpt>
      <trkpt lat="45.92974" lon="3.71776">
        <ele>1147.6</ele>
        <time>2022-08-29T10:53:24Z</time>
      </trkpt>
      <trkpt lat="45.92976" lon="3.71778">
        <ele>1147.4</ele>
        <time>2022-08-29T10:53:25Z</time>
      </trkpt>
      <trkpt lat="45.92977" lon="3.71778">
        <ele>1147.3</ele>
        <time>2022-08-29T10:53:26Z</time>
      </trkpt>
      <trkpt lat="45.92979" lon="3.71779">
        <ele>1147.2</ele>
        <time>2022-08-29T10:53:27Z</time>
      </trkpt>
      <trkpt lat="45.9298" lon="3.7178">
        <ele>1147</ele>
        <time>2022-08-29T10:53:28Z</time>
      </trkpt>
      <trkpt lat="45.92982" lon="3.71781">
        <ele>1146.9</ele>
        <time>2022-08-29T10:53:29Z</time>
      </trkpt>
      <trkpt lat="45.92983" lon="3.71782">
        <ele>1146.8</ele>
        <time>2022-08-29T10:53:30Z</time>
      </trkpt>
      <trkpt lat="45.92984" lon="3.71783">
        <ele>1146.7</ele>
        <time>2022-08-29T10:53:31Z</time>
      </trkpt>
      <trkpt lat="45.92986" lon="3.71784">
        <ele>1146.6</ele>
        <time>2022-08-29T10:53:32Z</time>
      </trkpt>
      <trkpt lat="45.92989" lon="3.71784">
        <ele>1146.3</ele>
        <time>2022-08-29T10:53:33Z</time>
      </trkpt>
      <trkpt lat="45.9299" lon="3.71784">
        <ele>1146.2</ele>
        <time>2022-08-29T10:53:34Z</time>
      </trkpt>
      <trkpt lat="45.92993" lon="3.71784">
        <ele>1146</ele>
        <time>2022-08-29T10:53:35Z</time>
      </trkpt>
      <trkpt lat="45.92994" lon="3.71785">
        <ele>1145.9</ele>
        <time>2022-08-29T10:53:36Z</time>
      </trkpt>
      <trkpt lat="45.92995" lon="3.71785">
        <ele>1145.8</ele>
        <time>2022-08-29T10:53:37Z</time>
      </trkpt>
      <trkpt lat="45.92996" lon="3.71786">
        <ele>1145.7</ele>
        <time>2022-08-29T10:53:38Z</time>
      </trkpt>
      <trkpt lat="45.92997" lon="3.71788">
        <ele>1145.6</ele>
        <time>2022-08-29T10:53:39Z</time>
      </trkpt>
      <trkpt lat="45.92998" lon="3.71789">
        <ele>1145.5</ele>
        <time>2022-08-29T10:53:40Z</time>
      </trkpt>
      <trkpt lat="45.93" lon="3.7179">
        <ele>1145.3</ele>
        <time>2022-08-29T10:53:41Z</time>
      </trkpt>
      <trkpt lat="45.93001" lon="3.71791">
        <ele>1145.3</ele>
        <time>2022-08-29T10:53:42Z</time>
      </trkpt>
      <trkpt lat="45.93002" lon="3.71791">
        <ele>1145.2</ele>
        <time>2022-08-29T10:53:43Z</time>
      </trkpt>
      <trkpt lat="45.93004" lon="3.71793">
        <ele>1145</ele>
        <time>2022-08-29T10:53:44Z</time>
      </trkpt>
      <trkpt lat="45.93004" lon="3.71793">
        <ele>1145</ele>
        <time>2022-08-29T10:53:45Z</time>
      </trkpt>
      <trkpt lat="45.93005" lon="3.71794">
        <ele>1144.9</ele>
        <time>2022-08-29T10:53:46Z</time>
      </trkpt>
      <trkpt lat="45.93007" lon="3.71795">
        <ele>1144.7</ele>
        <time>2022-08-29T10:53:47Z</time>
      </trkpt>
      <trkpt lat="45.93008" lon="3.71795">
        <ele>1144.7</ele>
        <time>2022-08-29T10:53:48Z</time>
      </trkpt>
      <trkpt lat="45.93008" lon="3.71796">
        <ele>1144.6</ele>
        <time>2022-08-29T10:53:49Z</time>
      </trkpt>
      <trkpt lat="45.9301" lon="3.71797">
        <ele>1144.5</ele>
        <time>2022-08-29T10:53:50Z</time>
      </trkpt>
      <trkpt lat="45.93011" lon="3.71798">
        <ele>1144.4</ele>
        <time>2022-08-29T10:53:51Z</time>
      </trkpt>
      <trkpt lat="45.93011" lon="3.71799">
        <ele>1144.3</ele>
        <time>2022-08-29T10:53:52Z</time>
      </trkpt>
      <trkpt lat="45.93012" lon="3.71801">
        <ele>1144.2</ele>
        <time>2022-08-29T10:53:53Z</time>
      </trkpt>
      <trkpt lat="45.93013" lon="3.71803">
        <ele>1144.1</ele>
        <time>2022-08-29T10:53:54Z</time>
      </trkpt>
      <trkpt lat="45.93014" lon="3.71805">
        <ele>1144</ele>
        <time>2022-08-29T10:53:55Z</time>
      </trkpt>
      <trkpt lat="45.93015" lon="3.71806">
        <ele>1143.9</ele>
        <time>2022-08-29T10:53:56Z</time>
      </trkpt>
      <trkpt lat="45.93016" lon="3.71809">
        <ele>1143.7</ele>
        <time>2022-08-29T10:53:57Z</time>
      </trkpt>
      <trkpt lat="45.93017" lon="3.71809">
        <ele>1143.6</ele>
        <time>2022-08-29T10:53:58Z</time>
      </trkpt>
      <trkpt lat="45.93017" lon="3.7181">
        <ele>1143.6</ele>
        <time>2022-08-29T10:53:59Z</time>
      </trkpt>
      <trkpt lat="45.93018" lon="3.71811">
        <ele>1143.5</ele>
        <time>2022-08-29T10:54:00Z</time>
      </trkpt>
      <trkpt lat="45.93019" lon="3.71812">
        <ele>1143.4</ele>
        <time>2022-08-29T10:54:01Z</time>
      </trkpt>
      <trkpt lat="45.9302" lon="3.71814">
        <ele>1143.3</ele>
        <time>2022-08-29T10:54:02Z</time>
      </trkpt>
      <trkpt lat="45.93022" lon="3.71815">
        <ele>1143.1</ele>
        <time>2022-08-29T10:54:03Z</time>
      </trkpt>
      <trkpt lat="45.93023" lon="3.71816">
        <ele>1143</ele>
        <time>2022-08-29T10:54:04Z</time>
      </trkpt>
      <trkpt lat="45.93023" lon="3.71816">
        <ele>1143</ele>
        <time>2022-08-29T10:54:05Z</time>
      </trkpt>
      <trkpt lat="45.93025" lon="3.71817">
        <ele>1142.9</ele>
        <time>2022-08-29T10:54:06Z</time>
      </trkpt>
      <trkpt lat="45.93026" lon="3.71818">
        <ele>1142.8</ele>
        <time>2022-08-29T10:54:07Z</time>
      </trkpt>
      <trkpt lat="45.93027" lon="3.71819">
        <ele>1142.6</ele>
        <time>2022-08-29T10:54:08Z</time>
      </trkpt>
      <trkpt lat="45.93029" lon="3.7182">
        <ele>1142.5</ele>
        <time>2022-08-29T10:54:09Z</time>
      </trkpt>
      <trkpt lat="45.9303" lon="3.71821">
        <ele>1142.4</ele>
        <time>2022-08-29T10:54:10Z</time>
      </trkpt>
      <trkpt lat="45.93031" lon="3.71823">
        <ele>1142.3</ele>
        <time>2022-08-29T10:54:11Z</time>
      </trkpt>
      <trkpt lat="45.93032" lon="3.71824">
        <ele>1142.2</ele>
        <time>2022-08-29T10:54:12Z</time>
      </trkpt>
      <trkpt lat="45.93033" lon="3.71825">
        <ele>1142.1</ele>
        <time>2022-08-29T10:54:13Z</time>
      </trkpt>
      <trkpt lat="45.93034" lon="3.71826">
        <ele>1142</ele>
        <time>2022-08-29T10:54:14Z</time>
      </trkpt>
      <trkpt lat="45.93035" lon="3.71827">
        <ele>1141.9</ele>
        <time>2022-08-29T10:54:15Z</time>
      </trkpt>
      <trkpt lat="45.93036" lon="3.71828">
        <ele>1141.8</ele>
        <time>2022-08-29T10:54:16Z</time>
      </trkpt>
      <trkpt lat="45.93037" lon="3.7183">
        <ele>1141.7</ele>
        <time>2022-08-29T10:54:17Z</time>
      </trkpt>
      <trkpt lat="45.93037" lon="3.71831">
        <ele>1141.6</ele>
        <time>2022-08-29T10:54:18Z</time>
      </trkpt>
      <trkpt lat="45.93037" lon="3.71832">
        <ele>1141.6</ele>
        <time>2022-08-29T10:54:19Z</time>
      </trkpt>
      <trkpt lat="45.93038" lon="3.71832">
        <ele>1141.6</ele>
        <time>2022-08-29T10:54:20Z</time>
      </trkpt>
      <trkpt lat="45.93038" lon="3.71832">
        <ele>1141.5</ele>
        <time>2022-08-29T10:54:21Z</time>
      </trkpt>
      <trkpt lat="45.93039" lon="3.71833">
        <ele>1141.4</ele>
        <time>2022-08-29T10:54:22Z</time>
      </trkpt>
      <trkpt lat="45.9304" lon="3.71833">
        <ele>1141.3</ele>
        <time>2022-08-29T10:54:23Z</time>
      </trkpt>
      <trkpt lat="45.93042" lon="3.71832">
        <ele>1141.2</ele>
        <time>2022-08-29T10:54:24Z</time>
      </trkpt>
      <trkpt lat="45.93043" lon="3.71832">
        <ele>1141.1</ele>
        <time>2022-08-29T10:54:25Z</time>
      </trkpt>
      <trkpt lat="45.93045" lon="3.71831">
        <ele>1141</ele>
        <time>2022-08-29T10:54:26Z</time>
      </trkpt>
      <trkpt lat="45.93046" lon="3.71831">
        <ele>1140.9</ele>
        <time>2022-08-29T10:54:27Z</time>
      </trkpt>
      <trkpt lat="45.93048" lon="3.71831">
        <ele>1140.7</ele>
        <time>2022-08-29T10:54:28Z</time>
      </trkpt>
      <trkpt lat="45.93049" lon="3.71831">
        <ele>1140.7</ele>
        <time>2022-08-29T10:54:29Z</time>
      </trkpt>
      <trkpt lat="45.9305" lon="3.71832">
        <ele>1140.6</ele>
        <time>2022-08-29T10:54:30Z</time>
      </trkpt>
      <trkpt lat="45.93051" lon="3.71832">
        <ele>1140.5</ele>
        <time>2022-08-29T10:54:31Z</time>
      </trkpt>
      <trkpt lat="45.93052" lon="3.71831">
        <ele>1140.5</ele>
        <time>2022-08-29T10:54:32Z</time>
      </trkpt>
      <trkpt lat="45.93052" lon="3.71831">
        <ele>1140.4</ele>
        <time>2022-08-29T10:54:33Z</time>
      </trkpt>
      <trkpt lat="45.93053" lon="3.71831">
        <ele>1140.3</ele>
        <time>2022-08-29T10:54:34Z</time>
      </trkpt>
      <trkpt lat="45.93055" lon="3.71833">
        <ele>1140.2</ele>
        <time>2022-08-29T10:54:35Z</time>
      </trkpt>
      <trkpt lat="45.93056" lon="3.71834">
        <ele>1140.1</ele>
        <time>2022-08-29T10:54:36Z</time>
      </trkpt>
      <trkpt lat="45.93057" lon="3.71835">
        <ele>1140</ele>
        <time>2022-08-29T10:54:37Z</time>
      </trkpt>
      <trkpt lat="45.9306" lon="3.71837">
        <ele>1139.7</ele>
        <time>2022-08-29T10:54:38Z</time>
      </trkpt>
      <trkpt lat="45.93061" lon="3.71838">
        <ele>1139.6</ele>
        <time>2022-08-29T10:54:39Z</time>
      </trkpt>
      <trkpt lat="45.93063" lon="3.7184">
        <ele>1139.4</ele>
        <time>2022-08-29T10:54:40Z</time>
      </trkpt>
      <trkpt lat="45.93064" lon="3.71841">
        <ele>1139.3</ele>
        <time>2022-08-29T10:54:41Z</time>
      </trkpt>
      <trkpt lat="45.93066" lon="3.71842">
        <ele>1139.2</ele>
        <time>2022-08-29T10:54:42Z</time>
      </trkpt>
      <trkpt lat="45.93067" lon="3.71842">
        <ele>1139.1</ele>
        <time>2022-08-29T10:54:43Z</time>
      </trkpt>
      <trkpt lat="45.93069" lon="3.71843">
        <ele>1138.9</ele>
        <time>2022-08-29T10:54:44Z</time>
      </trkpt>
      <trkpt lat="45.93071" lon="3.71844">
        <ele>1138.8</ele>
        <time>2022-08-29T10:54:45Z</time>
      </trkpt>
      <trkpt lat="45.93072" lon="3.71845">
        <ele>1138.7</ele>
        <time>2022-08-29T10:54:46Z</time>
      </trkpt>
      <trkpt lat="45.93074" lon="3.71846">
        <ele>1138.5</ele>
        <time>2022-08-29T10:54:47Z</time>
      </trkpt>
      <trkpt lat="45.93076" lon="3.71848">
        <ele>1138.3</ele>
        <time>2022-08-29T10:54:48Z</time>
      </trkpt>
      <trkpt lat="45.93077" lon="3.71848">
        <ele>1138.2</ele>
        <time>2022-08-29T10:54:49Z</time>
      </trkpt>
      <trkpt lat="45.93079" lon="3.7185">
        <ele>1138.1</ele>
        <time>2022-08-29T10:54:50Z</time>
      </trkpt>
      <trkpt lat="45.9308" lon="3.71851">
        <ele>1137.9</ele>
        <time>2022-08-29T10:54:51Z</time>
      </trkpt>
      <trkpt lat="45.93081" lon="3.71852">
        <ele>1137.8</ele>
        <time>2022-08-29T10:54:52Z</time>
      </trkpt>
      <trkpt lat="45.93082" lon="3.71854">
        <ele>1137.7</ele>
        <time>2022-08-29T10:54:53Z</time>
      </trkpt>
      <trkpt lat="45.93084" lon="3.71854">
        <ele>1137.6</ele>
        <time>2022-08-29T10:54:54Z</time>
      </trkpt>
      <trkpt lat="45.93085" lon="3.71854">
        <ele>1137.5</ele>
        <time>2022-08-29T10:54:55Z</time>
      </trkpt>
      <trkpt lat="45.93085" lon="3.71853">
        <ele>1137.5</ele>
        <time>2022-08-29T10:54:56Z</time>
      </trkpt>
      <trkpt lat="45.93086" lon="3.71852">
        <ele>1137.4</ele>
        <time>2022-08-29T10:54:57Z</time>
      </trkpt>
      <trkpt lat="45.93087" lon="3.71851">
        <ele>1137.3</ele>
        <time>2022-08-29T10:54:58Z</time>
      </trkpt>
      <trkpt lat="45.93088" lon="3.71851">
        <ele>1137.2</ele>
        <time>2022-08-29T10:54:59Z</time>
      </trkpt>
      <trkpt lat="45.93089" lon="3.71851">
        <ele>1137.1</ele>
        <time>2022-08-29T10:55:00Z</time>
      </trkpt>
      <trkpt lat="45.9309" lon="3.71851">
        <ele>1137.1</ele>
        <time>2022-08-29T10:55:01Z</time>
      </trkpt>
      <trkpt lat="45.93091" lon="3.71851">
        <ele>1137</ele>
        <time>2022-08-29T10:55:02Z</time>
      </trkpt>
      <trkpt lat="45.93092" lon="3.71851">
        <ele>1136.9</ele>
        <time>2022-08-29T10:55:03Z</time>
      </trkpt>
      <trkpt lat="45.93093" lon="3.71851">
        <ele>1136.8</ele>
        <time>2022-08-29T10:55:04Z</time>
      </trkpt>
      <trkpt lat="45.93094" lon="3.71851">
        <ele>1136.7</ele>
        <time>2022-08-29T10:55:05Z</time>
      </trkpt>
      <trkpt lat="45.93095" lon="3.7185">
        <ele>1136.6</ele>
        <time>2022-08-29T10:55:06Z</time>
      </trkpt>
      <trkpt lat="45.93097" lon="3.7185">
        <ele>1136.5</ele>
        <time>2022-08-29T10:55:07Z</time>
      </trkpt>
      <trkpt lat="45.93098" lon="3.71849">
        <ele>1136.4</ele>
        <time>2022-08-29T10:55:08Z</time>
      </trkpt>
      <trkpt lat="45.93099" lon="3.71849">
        <ele>1136.3</ele>
        <time>2022-08-29T10:55:09Z</time>
      </trkpt>
      <trkpt lat="45.931" lon="3.71849">
        <ele>1136.2</ele>
        <time>2022-08-29T10:55:10Z</time>
      </trkpt>
      <trkpt lat="45.93101" lon="3.71849">
        <ele>1136.2</ele>
        <time>2022-08-29T10:55:11Z</time>
      </trkpt>
      <trkpt lat="45.93102" lon="3.71849">
        <ele>1136.1</ele>
        <time>2022-08-29T10:55:12Z</time>
      </trkpt>
      <trkpt lat="45.93103" lon="3.71849">
        <ele>1136</ele>
        <time>2022-08-29T10:55:13Z</time>
      </trkpt>
      <trkpt lat="45.93104" lon="3.71848">
        <ele>1135.9</ele>
        <time>2022-08-29T10:55:14Z</time>
      </trkpt>
      <trkpt lat="45.93106" lon="3.71848">
        <ele>1135.8</ele>
        <time>2022-08-29T10:55:15Z</time>
      </trkpt>
      <trkpt lat="45.93107" lon="3.71848">
        <ele>1135.7</ele>
        <time>2022-08-29T10:55:16Z</time>
      </trkpt>
      <trkpt lat="45.93108" lon="3.71848">
        <ele>1135.6</ele>
        <time>2022-08-29T10:55:17Z</time>
      </trkpt>
      <trkpt lat="45.93109" lon="3.71847">
        <ele>1135.5</ele>
        <time>2022-08-29T10:55:18Z</time>
      </trkpt>
      <trkpt lat="45.93111" lon="3.71847">
        <ele>1135.4</ele>
        <time>2022-08-29T10:55:19Z</time>
      </trkpt>
      <trkpt lat="45.93112" lon="3.71847">
        <ele>1135.3</ele>
        <time>2022-08-29T10:55:20Z</time>
      </trkpt>
      <trkpt lat="45.93114" lon="3.71847">
        <ele>1135.2</ele>
        <time>2022-08-29T10:55:21Z</time>
      </trkpt>
      <trkpt lat="45.93115" lon="3.71847">
        <ele>1135.1</ele>
        <time>2022-08-29T10:55:22Z</time>
      </trkpt>
      <trkpt lat="45.93116" lon="3.71848">
        <ele>1135</ele>
        <time>2022-08-29T10:55:23Z</time>
      </trkpt>
      <trkpt lat="45.93118" lon="3.71848">
        <ele>1134.9</ele>
        <time>2022-08-29T10:55:24Z</time>
      </trkpt>
      <trkpt lat="45.93119" lon="3.71848">
        <ele>1134.8</ele>
        <time>2022-08-29T10:55:25Z</time>
      </trkpt>
      <trkpt lat="45.9312" lon="3.71848">
        <ele>1134.7</ele>
        <time>2022-08-29T10:55:26Z</time>
      </trkpt>
      <trkpt lat="45.93122" lon="3.71848">
        <ele>1134.6</ele>
        <time>2022-08-29T10:55:27Z</time>
      </trkpt>
      <trkpt lat="45.93122" lon="3.71848">
        <ele>1134.5</ele>
        <time>2022-08-29T10:55:28Z</time>
      </trkpt>
      <trkpt lat="45.93123" lon="3.71848">
        <ele>1134.4</ele>
        <time>2022-08-29T10:55:29Z</time>
      </trkpt>
      <trkpt lat="45.93125" lon="3.71849">
        <ele>1134.3</ele>
        <time>2022-08-29T10:55:30Z</time>
      </trkpt>
      <trkpt lat="45.93126" lon="3.71849">
        <ele>1134.2</ele>
        <time>2022-08-29T10:55:31Z</time>
      </trkpt>
      <trkpt lat="45.93127" lon="3.71849">
        <ele>1134.1</ele>
        <time>2022-08-29T10:55:32Z</time>
      </trkpt>
      <trkpt lat="45.93129" lon="3.71848">
        <ele>1133.9</ele>
        <time>2022-08-29T10:55:33Z</time>
      </trkpt>
      <trkpt lat="45.9313" lon="3.71848">
        <ele>1133.9</ele>
        <time>2022-08-29T10:55:34Z</time>
      </trkpt>
      <trkpt lat="45.93131" lon="3.71848">
        <ele>1133.8</ele>
        <time>2022-08-29T10:55:35Z</time>
      </trkpt>
      <trkpt lat="45.93133" lon="3.71848">
        <ele>1133.7</ele>
        <time>2022-08-29T10:55:36Z</time>
      </trkpt>
      <trkpt lat="45.93134" lon="3.71848">
        <ele>1133.6</ele>
        <time>2022-08-29T10:55:37Z</time>
      </trkpt>
      <trkpt lat="45.93136" lon="3.71848">
        <ele>1133.4</ele>
        <time>2022-08-29T10:55:38Z</time>
      </trkpt>
      <trkpt lat="45.93137" lon="3.71848">
        <ele>1133.3</ele>
        <time>2022-08-29T10:55:39Z</time>
      </trkpt>
      <trkpt lat="45.93138" lon="3.71848">
        <ele>1133.3</ele>
        <time>2022-08-29T10:55:40Z</time>
      </trkpt>
      <trkpt lat="45.93139" lon="3.71847">
        <ele>1133.2</ele>
        <time>2022-08-29T10:55:41Z</time>
      </trkpt>
      <trkpt lat="45.93139" lon="3.71847">
        <ele>1133.1</ele>
        <time>2022-08-29T10:55:42Z</time>
      </trkpt>
      <trkpt lat="45.9314" lon="3.71846">
        <ele>1133.1</ele>
        <time>2022-08-29T10:55:43Z</time>
      </trkpt>
      <trkpt lat="45.93141" lon="3.71845">
        <ele>1133</ele>
        <time>2022-08-29T10:55:44Z</time>
      </trkpt>
      <trkpt lat="45.93142" lon="3.71845">
        <ele>1132.9</ele>
        <time>2022-08-29T10:55:45Z</time>
      </trkpt>
      <trkpt lat="45.93143" lon="3.71844">
        <ele>1132.8</ele>
        <time>2022-08-29T10:55:46Z</time>
      </trkpt>
      <trkpt lat="45.93372" lon="3.72154">
        <ele>1108.2</ele>
        <time>2022-08-29T11:00:34Z</time>
      </trkpt>
      <trkpt lat="45.93372" lon="3.72155">
        <ele>1108.2</ele>
        <time>2022-08-29T11:00:35Z</time>
      </trkpt>
      <trkpt lat="45.93372" lon="3.72157">
        <ele>1108.1</ele>
        <time>2022-08-29T11:00:36Z</time>
      </trkpt>
      <trkpt lat="45.93374" lon="3.72158">
        <ele>1108</ele>
        <time>2022-08-29T11:00:37Z</time>
      </trkpt>
      <trkpt lat="45.93376" lon="3.72161">
        <ele>1107.7</ele>
        <time>2022-08-29T11:00:38Z</time>
      </trkpt>
      <trkpt lat="45.93377" lon="3.72162">
        <ele>1107.6</ele>
        <time>2022-08-29T11:00:39Z</time>
      </trkpt>
      <trkpt lat="45.93379" lon="3.72165">
        <ele>1107.4</ele>
        <time>2022-08-29T11:00:40Z</time>
      </trkpt>
      <trkpt lat="45.9338" lon="3.72166">
        <ele>1107.3</ele>
        <time>2022-08-29T11:00:41Z</time>
      </trkpt>
      <trkpt lat="45.93383" lon="3.72169">
        <ele>1107</ele>
        <time>2022-08-29T11:00:42Z</time>
      </trkpt>
      <trkpt lat="45.93385" lon="3.72171">
        <ele>1106.8</ele>
        <time>2022-08-29T11:00:43Z</time>
      </trkpt>
      <trkpt lat="45.93388" lon="3.72175">
        <ele>1106.5</ele>
        <time>2022-08-29T11:00:44Z</time>
      </trkpt>
      <trkpt lat="45.93389" lon="3.72176">
        <ele>1106.4</ele>
        <time>2022-08-29T11:00:45Z</time>
      </trkpt>
      <trkpt lat="45.93391" lon="3.72178">
        <ele>1106.2</ele>
        <time>2022-08-29T11:00:46Z</time>
      </trkpt>
      <trkpt lat="45.93392" lon="3.72179">
        <ele>1106.1</ele>
        <time>2022-08-29T11:00:47Z</time>
      </trkpt>
      <trkpt lat="45.93393" lon="3.7218">
        <ele>1106</ele>
        <time>2022-08-29T11:00:48Z</time>
      </trkpt>
      <trkpt lat="45.93394" lon="3.72182">
        <ele>1105.9</ele>
        <time>2022-08-29T11:00:49Z</time>
      </trkpt>
      <trkpt lat="45.93395" lon="3.72183">
        <ele>1105.8</ele>
        <time>2022-08-29T11:00:50Z</time>
      </trkpt>
      <trkpt lat="45.93395" lon="3.72184">
        <ele>1105.7</ele>
        <time>2022-08-29T11:00:51Z</time>
      </trkpt>
      <trkpt lat="45.93396" lon="3.72184">
        <ele>1105.7</ele>
        <time>2022-08-29T11:00:52Z</time>
      </trkpt>
      <trkpt lat="45.93396" lon="3.72186">
        <ele>1105.6</ele>
        <time>2022-08-29T11:00:53Z</time>
      </trkpt>
      <trkpt lat="45.93397" lon="3.72188">
        <ele>1105.5</ele>
        <time>2022-08-29T11:00:54Z</time>
      </trkpt>
      <trkpt lat="45.93398" lon="3.72189">
        <ele>1105.4</ele>
        <time>2022-08-29T11:00:55Z</time>
      </trkpt>
      <trkpt lat="45.93399" lon="3.7219">
        <ele>1105.3</ele>
        <time>2022-08-29T11:00:56Z</time>
      </trkpt>
      <trkpt lat="45.934" lon="3.72192">
        <ele>1105.2</ele>
        <time>2022-08-29T11:00:57Z</time>
      </trkpt>
      <trkpt lat="45.93401" lon="3.72193">
        <ele>1105.1</ele>
        <time>2022-08-29T11:00:58Z</time>
      </trkpt>
      <trkpt lat="45.93402" lon="3.72195">
        <ele>1105</ele>
        <time>2022-08-29T11:00:59Z</time>
      </trkpt>
      <trkpt lat="45.93402" lon="3.72197">
        <ele>1104.8</ele>
        <time>2022-08-29T11:01:00Z</time>
      </trkpt>
      <trkpt lat="45.93403" lon="3.72199">
        <ele>1104.7</ele>
        <time>2022-08-29T11:01:01Z</time>
      </trkpt>
      <trkpt lat="45.93403" lon="3.72201">
        <ele>1104.6</ele>
        <time>2022-08-29T11:01:02Z</time>
      </trkpt>
      <trkpt lat="45.93403" lon="3.72203">
        <ele>1104.5</ele>
        <time>2022-08-29T11:01:03Z</time>
      </trkpt>
      <trkpt lat="45.93404" lon="3.72206">
        <ele>1104.3</ele>
        <time>2022-08-29T11:01:04Z</time>
      </trkpt>
      <trkpt lat="45.93404" lon="3.72208">
        <ele>1104.2</ele>
        <time>2022-08-29T11:01:05Z</time>
      </trkpt>
      <trkpt lat="45.93404" lon="3.7221">
        <ele>1104.1</ele>
        <time>2022-08-29T11:01:06Z</time>
      </trkpt>
      <trkpt lat="45.93405" lon="3.72212">
        <ele>1104</ele>
        <time>2022-08-29T11:01:07Z</time>
      </trkpt>
      <trkpt lat="45.93405" lon="3.72215">
        <ele>1103.8</ele>
        <time>2022-08-29T11:01:08Z</time>
      </trkpt>
      <trkpt lat="45.93406" lon="3.72217">
        <ele>1103.7</ele>
        <time>2022-08-29T11:01:09Z</time>
      </trkpt>
      <trkpt lat="45.93406" lon="3.72219">
        <ele>1103.6</ele>
        <time>2022-08-29T11:01:10Z</time>
      </trkpt>
      <trkpt lat="45.93407" lon="3.72221">
        <ele>1103.5</ele>
        <time>2022-08-29T11:01:11Z</time>
      </trkpt>
      <trkpt lat="45.93408" lon="3.72223">
        <ele>1103.3</ele>
        <time>2022-08-29T11:01:12Z</time>
      </trkpt>
      <trkpt lat="45.93409" lon="3.72225">
        <ele>1103.2</ele>
        <time>2022-08-29T11:01:13Z</time>
      </trkpt>
      <trkpt lat="45.9341" lon="3.72226">
        <ele>1103.1</ele>
        <time>2022-08-29T11:01:14Z</time>
      </trkpt>
      <trkpt lat="45.93411" lon="3.72227">
        <ele>1103</ele>
        <time>2022-08-29T11:01:15Z</time>
      </trkpt>
      <trkpt lat="45.93411" lon="3.72228">
        <ele>1103</ele>
        <time>2022-08-29T11:01:16Z</time>
      </trkpt>
      <trkpt lat="45.93411" lon="3.72229">
        <ele>1102.9</ele>
        <time>2022-08-29T11:01:17Z</time>
      </trkpt>
      <trkpt lat="45.93412" lon="3.72229">
        <ele>1102.9</ele>
        <time>2022-08-29T11:01:18Z</time>
      </trkpt>
      <trkpt lat="45.93412" lon="3.7223">
        <ele>1102.8</ele>
        <time>2022-08-29T11:01:19Z</time>
      </trkpt>
      <trkpt lat="45.93412" lon="3.72231">
        <ele>1102.8</ele>
        <time>2022-08-29T11:01:20Z</time>
      </trkpt>
      <trkpt lat="45.93412" lon="3.72233">
        <ele>1102.7</ele>
        <time>2022-08-29T11:01:21Z</time>
      </trkpt>
      <trkpt lat="45.93412" lon="3.72234">
        <ele>1102.6</ele>
        <time>2022-08-29T11:01:22Z</time>
      </trkpt>
      <trkpt lat="45.93412" lon="3.72236">
        <ele>1102.5</ele>
        <time>2022-08-29T11:01:23Z</time>
      </trkpt>
      <trkpt lat="45.93411" lon="3.72237">
        <ele>1102.4</ele>
        <time>2022-08-29T11:01:24Z</time>
      </trkpt>
      <trkpt lat="45.93412" lon="3.72238">
        <ele>1102.4</ele>
        <time>2022-08-29T11:01:25Z</time>
      </trkpt>
      <trkpt lat="45.93413" lon="3.72239">
        <ele>1102.3</ele>
        <time>2022-08-29T11:01:26Z</time>
      </trkpt>
      <trkpt lat="45.93413" lon="3.7224">
        <ele>1102.2</ele>
        <time>2022-08-29T11:01:27Z</time>
      </trkpt>
      <trkpt lat="45.93414" lon="3.72242">
        <ele>1102.1</ele>
        <time>2022-08-29T11:01:28Z</time>
      </trkpt>
      <trkpt lat="45.93415" lon="3.72244">
        <ele>1102</ele>
        <time>2022-08-29T11:01:29Z</time>
      </trkpt>
      <trkpt lat="45.93416" lon="3.72245">
        <ele>1101.9</ele>
        <time>2022-08-29T11:01:30Z</time>
      </trkpt>
      <trkpt lat="45.93416" lon="3.72247">
        <ele>1101.8</ele>
        <time>2022-08-29T11:01:31Z</time>
      </trkpt>
      <trkpt lat="45.93416" lon="3.72248">
        <ele>1101.7</ele>
        <time>2022-08-29T11:01:32Z</time>
      </trkpt>
      <trkpt lat="45.93416" lon="3.7225">
        <ele>1101.7</ele>
        <time>2022-08-29T11:01:33Z</time>
      </trkpt>
      <trkpt lat="45.93415" lon="3.72251">
        <ele>1101.6</ele>
        <time>2022-08-29T11:01:34Z</time>
      </trkpt>
      <trkpt lat="45.93415" lon="3.72254">
        <ele>1101.4</ele>
        <time>2022-08-29T11:01:35Z</time>
      </trkpt>
      <trkpt lat="45.93415" lon="3.72256">
        <ele>1101.3</ele>
        <time>2022-08-29T11:01:36Z</time>
      </trkpt>
      <trkpt lat="45.93415" lon="3.72257">
        <ele>1101.2</ele>
        <time>2022-08-29T11:01:37Z</time>
      </trkpt>
      <trkpt lat="45.93415" lon="3.72262">
        <ele>1101</ele>
        <time>2022-08-29T11:01:38Z</time>
      </trkpt>
      <trkpt lat="45.93415" lon="3.72263">
        <ele>1100.9</ele>
        <time>2022-08-29T11:01:39Z</time>
      </trkpt>
      <trkpt lat="45.93415" lon="3.72265">
        <ele>1100.8</ele>
        <time>2022-08-29T11:01:40Z</time>
      </trkpt>
      <trkpt lat="45.93415" lon="3.72267">
        <ele>1100.7</ele>
        <time>2022-08-29T11:01:41Z</time>
      </trkpt>
      <trkpt lat="45.93415" lon="3.72269">
        <ele>1100.6</ele>
        <time>2022-08-29T11:01:42Z</time>
      </trkpt>
      <trkpt lat="45.93415" lon="3.7227">
        <ele>1100.5</ele>
        <time>2022-08-29T11:01:43Z</time>
      </trkpt>
      <trkpt lat="45.93415" lon="3.72271">
        <ele>1100.5</ele>
        <time>2022-08-29T11:01:44Z</time>
      </trkpt>
      <trkpt lat="45.93415" lon="3.72272">
        <ele>1100.5</ele>
        <time>2022-08-29T11:01:45Z</time>
      </trkpt>
      <trkpt lat="45.93415" lon="3.72272">
        <ele>1100.4</ele>
        <time>2022-08-29T11:01:46Z</time>
      </trkpt>
      <trkpt lat="45.93415" lon="3.72272">
        <ele>1100.4</ele>
        <time>2022-08-29T11:01:47Z</time>
      </trkpt>
      <trkpt lat="45.93414" lon="3.72271">
        <ele>1100.4</ele>
        <time>2022-08-29T11:01:48Z</time>
      </trkpt>
      <trkpt lat="45.93414" lon="3.72271">
        <ele>1100.4</ele>
        <time>2022-08-29T11:01:49Z</time>
      </trkpt>
      <trkpt lat="45.93415" lon="3.7227">
        <ele>1100.3</ele>
        <time>2022-08-29T11:01:50Z</time>
      </trkpt>
      <trkpt lat="45.93415" lon="3.72269">
        <ele>1100.3</ele>
        <time>2022-08-29T11:01:51Z</time>
      </trkpt>
      <trkpt lat="45.93415" lon="3.72269">
        <ele>1100.2</ele>
        <time>2022-08-29T11:01:52Z</time>
      </trkpt>
      <trkpt lat="45.93415" lon="3.72268">
        <ele>1100.2</ele>
        <time>2022-08-29T11:01:53Z</time>
      </trkpt>
      <trkpt lat="45.93415" lon="3.72268">
        <ele>1100.2</ele>
        <time>2022-08-29T11:01:54Z</time>
      </trkpt>
      <trkpt lat="45.93415" lon="3.72268">
        <ele>1100.2</ele>
        <time>2022-08-29T11:01:55Z</time>
      </trkpt>
      <trkpt lat="45.93415" lon="3.72268">
        <ele>1100.2</ele>
        <time>2022-08-29T11:01:56Z</time>
      </trkpt>
      <trkpt lat="45.93415" lon="3.72268">
        <ele>1100.2</ele>
        <time>2022-08-29T11:01:57Z</time>
      </trkpt>
      <trkpt lat="45.93415" lon="3.72268">
        <ele>1100.2</ele>
        <time>2022-08-29T11:01:58Z</time>
      </trkpt>
      <trkpt lat="45.93415" lon="3.72269">
        <ele>1100.2</ele>
        <time>2022-08-29T11:01:59Z</time>
      </trkpt>
      <trkpt lat="45.93415" lon="3.72269">
        <ele>1100.2</ele>
        <time>2022-08-29T11:02:00Z</time>
      </trkpt>
      <trkpt lat="45.93415" lon="3.72269">
        <ele>1100.1</ele>
        <time>2022-08-29T11:02:01Z</time>
      </trkpt>
      <trkpt lat="45.93415" lon="3.72269">
        <ele>1100.1</ele>
        <time>2022-08-29T11:02:02Z</time>
      </trkpt>
      <trkpt lat="45.93415" lon="3.72269">
        <ele>1100.1</ele>
        <time>2022-08-29T11:02:03Z</time>
      </trkpt>
      <trkpt lat="45.93415" lon="3.72271">
        <ele>1100</ele>
        <time>2022-08-29T11:02:04Z</time>
      </trkpt>
      <trkpt lat="45.93415" lon="3.72273">
        <ele>1099.9</ele>
        <time>2022-08-29T11:02:05Z</time>
      </trkpt>
      <trkpt lat="45.93416" lon="3.72276">
        <ele>1099.8</ele>
        <time>2022-08-29T11:02:06Z</time>
      </trkpt>
      <trkpt lat="45.93416" lon="3.7228">
        <ele>1099.5</ele>
        <time>2022-08-29T11:02:07Z</time>
      </trkpt>
      <trkpt lat="45.93416" lon="3.72282">
        <ele>1099.4</ele>
        <time>2022-08-29T11:02:08Z</time>
      </trkpt>
      <trkpt lat="45.93416" lon="3.72287">
        <ele>1099.1</ele>
        <time>2022-08-29T11:02:09Z</time>
      </trkpt>
      <trkpt lat="45.93416" lon="3.72289">
        <ele>1099</ele>
        <time>2022-08-29T11:02:10Z</time>
      </trkpt>
      <trkpt lat="45.93416" lon="3.72293">
        <ele>1098.8</ele>
        <time>2022-08-29T11:02:11Z</time>
      </trkpt>
      <trkpt lat="45.93416" lon="3.72295">
        <ele>1098.7</ele>
        <time>2022-08-29T11:02:12Z</time>
      </trkpt>
      <trkpt lat="45.93417" lon="3.72297">
        <ele>1098.6</ele>
        <time>2022-08-29T11:02:13Z</time>
      </trkpt>
      <trkpt lat="45.93418" lon="3.72299">
        <ele>1098.5</ele>
        <time>2022-08-29T11:02:14Z</time>
      </trkpt>
      <trkpt lat="45.93419" lon="3.72302">
        <ele>1098.3</ele>
        <time>2022-08-29T11:02:15Z</time>
      </trkpt>
      <trkpt lat="45.93419" lon="3.72303">
        <ele>1098.2</ele>
        <time>2022-08-29T11:02:16Z</time>
      </trkpt>
      <trkpt lat="45.9342" lon="3.72304">
        <ele>1098.2</ele>
        <time>2022-08-29T11:02:17Z</time>
      </trkpt>
      <trkpt lat="45.9342" lon="3.72305">
        <ele>1098.1</ele>
        <time>2022-08-29T11:02:18Z</time>
      </trkpt>
      <trkpt lat="45.93421" lon="3.72306">
        <ele>1098</ele>
        <time>2022-08-29T11:02:19Z</time>
      </trkpt>
      <trkpt lat="45.93421" lon="3.72307">
        <ele>1098</ele>
        <time>2022-08-29T11:02:20Z</time>
      </trkpt>
      <trkpt lat="45.93421" lon="3.72308">
        <ele>1097.9</ele>
        <time>2022-08-29T11:02:21Z</time>
      </trkpt>
      <trkpt lat="45.93421" lon="3.72309">
        <ele>1097.9</ele>
        <time>2022-08-29T11:02:22Z</time>
      </trkpt>
      <trkpt lat="45.93421" lon="3.7231">
        <ele>1097.8</ele>
        <time>2022-08-29T11:02:23Z</time>
      </trkpt>
      <trkpt lat="45.93421" lon="3.7231">
        <ele>1097.8</ele>
        <time>2022-08-29T11:02:24Z</time>
      </trkpt>
      <trkpt lat="45.93421" lon="3.72311">
        <ele>1097.7</ele>
        <time>2022-08-29T11:02:25Z</time>
      </trkpt>
      <trkpt lat="45.93422" lon="3.72313">
        <ele>1097.6</ele>
        <time>2022-08-29T11:02:26Z</time>
      </trkpt>
      <trkpt lat="45.93423" lon="3.72314">
        <ele>1097.6</ele>
        <time>2022-08-29T11:02:27Z</time>
      </trkpt>
      <trkpt lat="45.93423" lon="3.72315">
        <ele>1097.5</ele>
        <time>2022-08-29T11:02:28Z</time>
      </trkpt>
      <trkpt lat="45.93424" lon="3.72317">
        <ele>1097.4</ele>
        <time>2022-08-29T11:02:29Z</time>
      </trkpt>
      <trkpt lat="45.93424" lon="3.72318">
        <ele>1097.3</ele>
        <time>2022-08-29T11:02:30Z</time>
      </trkpt>
      <trkpt lat="45.93423" lon="3.72319">
        <ele>1097.2</ele>
        <time>2022-08-29T11:02:31Z</time>
      </trkpt>
      <trkpt lat="45.93423" lon="3.72321">
        <ele>1097.2</ele>
        <time>2022-08-29T11:02:32Z</time>
      </trkpt>
      <trkpt lat="45.93424" lon="3.72322">
        <ele>1097.1</ele>
        <time>2022-08-29T11:02:33Z</time>
      </trkpt>
      <trkpt lat="45.93424" lon="3.72326">
        <ele>1096.9</ele>
        <time>2022-08-29T11:02:34Z</time>
      </trkpt>
      <trkpt lat="45.93425" lon="3.72327">
        <ele>1096.8</ele>
        <time>2022-08-29T11:02:35Z</time>
      </trkpt>
      <trkpt lat="45.93425" lon="3.72332">
        <ele>1096.6</ele>
        <time>2022-08-29T11:02:36Z</time>
      </trkpt>
      <trkpt lat="45.93425" lon="3.72336">
        <ele>1096.3</ele>
        <time>2022-08-29T11:02:37Z</time>
      </trkpt>
      <trkpt lat="45.93425" lon="3.72341">
        <ele>1096.1</ele>
        <time>2022-08-29T11:02:38Z</time>
      </trkpt>
      <trkpt lat="45.93425" lon="3.72342">
        <ele>1096</ele>
        <time>2022-08-29T11:02:39Z</time>
      </trkpt>
      <trkpt lat="45.93424" lon="3.72343">
        <ele>1095.9</ele>
        <time>2022-08-29T11:02:40Z</time>
      </trkpt>
      <trkpt lat="45.93424" lon="3.72344">
        <ele>1095.9</ele>
        <time>2022-08-29T11:02:41Z</time>
      </trkpt>
      <trkpt lat="45.93424" lon="3.72345">
        <ele>1095.8</ele>
        <time>2022-08-29T11:02:42Z</time>
      </trkpt>
      <trkpt lat="45.93424" lon="3.72345">
        <ele>1095.8</ele>
        <time>2022-08-29T11:02:43Z</time>
      </trkpt>
      <trkpt lat="45.93424" lon="3.72346">
        <ele>1095.7</ele>
        <time>2022-08-29T11:02:44Z</time>
      </trkpt>
      <trkpt lat="45.93424" lon="3.72347">
        <ele>1095.7</ele>
        <time>2022-08-29T11:02:45Z</time>
      </trkpt>
      <trkpt lat="45.93425" lon="3.72348">
        <ele>1095.6</ele>
        <time>2022-08-29T11:02:46Z</time>
      </trkpt>
      <trkpt lat="45.93426" lon="3.72348">
        <ele>1095.5</ele>
        <time>2022-08-29T11:02:47Z</time>
      </trkpt>
      <trkpt lat="45.93426" lon="3.72349">
        <ele>1095.5</ele>
        <time>2022-08-29T11:02:48Z</time>
      </trkpt>
      <trkpt lat="45.93427" lon="3.7235">
        <ele>1095.4</ele>
        <time>2022-08-29T11:02:49Z</time>
      </trkpt>
      <trkpt lat="45.93428" lon="3.72351">
        <ele>1095.4</ele>
        <time>2022-08-29T11:02:50Z</time>
      </trkpt>
      <trkpt lat="45.93428" lon="3.72353">
        <ele>1095.3</ele>
        <time>2022-08-29T11:02:51Z</time>
      </trkpt>
      <trkpt lat="45.93427" lon="3.72357">
        <ele>1095</ele>
        <time>2022-08-29T11:02:52Z</time>
      </trkpt>
      <trkpt lat="45.93427" lon="3.72358">
        <ele>1094.9</ele>
        <time>2022-08-29T11:02:53Z</time>
      </trkpt>
      <trkpt lat="45.93427" lon="3.72363">
        <ele>1094.7</ele>
        <time>2022-08-29T11:02:54Z</time>
      </trkpt>
      <trkpt lat="45.93427" lon="3.72364">
        <ele>1094.6</ele>
        <time>2022-08-29T11:02:55Z</time>
      </trkpt>
      <trkpt lat="45.93427" lon="3.72367">
        <ele>1094.5</ele>
        <time>2022-08-29T11:02:56Z</time>
      </trkpt>
      <trkpt lat="45.93428" lon="3.72368">
        <ele>1094.4</ele>
        <time>2022-08-29T11:02:57Z</time>
      </trkpt>
      <trkpt lat="45.9343" lon="3.7237">
        <ele>1094.2</ele>
        <time>2022-08-29T11:02:58Z</time>
      </trkpt>
      <trkpt lat="45.93431" lon="3.72371">
        <ele>1094.1</ele>
        <time>2022-08-29T11:02:59Z</time>
      </trkpt>
      <trkpt lat="45.93432" lon="3.72372">
        <ele>1094</ele>
        <time>2022-08-29T11:03:00Z</time>
      </trkpt>
      <trkpt lat="45.93433" lon="3.72374">
        <ele>1093.9</ele>
        <time>2022-08-29T11:03:01Z</time>
      </trkpt>
      <trkpt lat="45.93434" lon="3.72376">
        <ele>1093.7</ele>
        <time>2022-08-29T11:03:02Z</time>
      </trkpt>
      <trkpt lat="45.93435" lon="3.72378">
        <ele>1093.6</ele>
        <time>2022-08-29T11:03:03Z</time>
      </trkpt>
      <trkpt lat="45.93435" lon="3.72378">
        <ele>1093.6</ele>
        <time>2022-08-29T11:03:04Z</time>
      </trkpt>
      <trkpt lat="45.93435" lon="3.72379">
        <ele>1093.5</ele>
        <time>2022-08-29T11:03:05Z</time>
      </trkpt>
      <trkpt lat="45.93436" lon="3.72381">
        <ele>1093.4</ele>
        <time>2022-08-29T11:03:06Z</time>
      </trkpt>
      <trkpt lat="45.93436" lon="3.72382">
        <ele>1093.4</ele>
        <time>2022-08-29T11:03:07Z</time>
      </trkpt>
      <trkpt lat="45.93437" lon="3.72385">
        <ele>1093.2</ele>
        <time>2022-08-29T11:03:08Z</time>
      </trkpt>
      <trkpt lat="45.93437" lon="3.72387">
        <ele>1093.1</ele>
        <time>2022-08-29T11:03:09Z</time>
      </trkpt>
      <trkpt lat="45.93437" lon="3.72388">
        <ele>1093</ele>
        <time>2022-08-29T11:03:10Z</time>
      </trkpt>
      <trkpt lat="45.93438" lon="3.72392">
        <ele>1092.8</ele>
        <time>2022-08-29T11:03:11Z</time>
      </trkpt>
      <trkpt lat="45.93439" lon="3.72393">
        <ele>1092.7</ele>
        <time>2022-08-29T11:03:12Z</time>
      </trkpt>
      <trkpt lat="45.93439" lon="3.72395">
        <ele>1092.6</ele>
        <time>2022-08-29T11:03:13Z</time>
      </trkpt>
      <trkpt lat="45.93439" lon="3.72398">
        <ele>1092.5</ele>
        <time>2022-08-29T11:03:14Z</time>
      </trkpt>
      <trkpt lat="45.93438" lon="3.724">
        <ele>1092.4</ele>
        <time>2022-08-29T11:03:15Z</time>
      </trkpt>
      <trkpt lat="45.93438" lon="3.72402">
        <ele>1092.2</ele>
        <time>2022-08-29T11:03:16Z</time>
      </trkpt>
      <trkpt lat="45.93438" lon="3.72404">
        <ele>1092.1</ele>
        <time>2022-08-29T11:03:17Z</time>
      </trkpt>
      <trkpt lat="45.93438" lon="3.72406">
        <ele>1092</ele>
        <time>2022-08-29T11:03:18Z</time>
      </trkpt>
      <trkpt lat="45.93438" lon="3.72407">
        <ele>1091.9</ele>
        <time>2022-08-29T11:03:19Z</time>
      </trkpt>
      <trkpt lat="45.93438" lon="3.72409">
        <ele>1091.8</ele>
        <time>2022-08-29T11:03:20Z</time>
      </trkpt>
      <trkpt lat="45.93438" lon="3.72411">
        <ele>1091.7</ele>
        <time>2022-08-29T11:03:21Z</time>
      </trkpt>
      <trkpt lat="45.93438" lon="3.72413">
        <ele>1091.6</ele>
        <time>2022-08-29T11:03:22Z</time>
      </trkpt>
      <trkpt lat="45.93438" lon="3.72415">
        <ele>1091.5</ele>
        <time>2022-08-29T11:03:23Z</time>
      </trkpt>
      <trkpt lat="45.93438" lon="3.72417">
        <ele>1091.4</ele>
        <time>2022-08-29T11:03:24Z</time>
      </trkpt>
      <trkpt lat="45.93438" lon="3.72418">
        <ele>1091.4</ele>
        <time>2022-08-29T11:03:25Z</time>
      </trkpt>
      <trkpt lat="45.93438" lon="3.7242">
        <ele>1091.3</ele>
        <time>2022-08-29T11:03:26Z</time>
      </trkpt>
      <trkpt lat="45.93439" lon="3.72423">
        <ele>1091.1</ele>
        <time>2022-08-29T11:03:27Z</time>
      </trkpt>
      <trkpt lat="45.93439" lon="3.72424">
        <ele>1091</ele>
        <time>2022-08-29T11:03:28Z</time>
      </trkpt>
      <trkpt lat="45.9344" lon="3.72425">
        <ele>1091</ele>
        <time>2022-08-29T11:03:29Z</time>
      </trkpt>
      <trkpt lat="45.9344" lon="3.72428">
        <ele>1090.8</ele>
        <time>2022-08-29T11:03:30Z</time>
      </trkpt>
      <trkpt lat="45.93441" lon="3.72429">
        <ele>1090.7</ele>
        <time>2022-08-29T11:03:31Z</time>
      </trkpt>
      <trkpt lat="45.93441" lon="3.7243">
        <ele>1090.7</ele>
        <time>2022-08-29T11:03:32Z</time>
      </trkpt>
      <trkpt lat="45.93441" lon="3.72432">
        <ele>1090.6</ele>
        <time>2022-08-29T11:03:33Z</time>
      </trkpt>
      <trkpt lat="45.93442" lon="3.72433">
        <ele>1090.5</ele>
        <time>2022-08-29T11:03:34Z</time>
      </trkpt>
      <trkpt lat="45.93442" lon="3.72434">
        <ele>1090.4</ele>
        <time>2022-08-29T11:03:35Z</time>
      </trkpt>
      <trkpt lat="45.93442" lon="3.72435">
        <ele>1090.4</ele>
        <time>2022-08-29T11:03:36Z</time>
      </trkpt>
      <trkpt lat="45.93442" lon="3.72436">
        <ele>1090.3</ele>
        <time>2022-08-29T11:03:37Z</time>
      </trkpt>
      <trkpt lat="45.93443" lon="3.72437">
        <ele>1090.3</ele>
        <time>2022-08-29T11:03:38Z</time>
      </trkpt>
      <trkpt lat="45.93443" lon="3.72437">
        <ele>1090.3</ele>
        <time>2022-08-29T11:03:39Z</time>
      </trkpt>
      <trkpt lat="45.93442" lon="3.72437">
        <ele>1090.3</ele>
        <time>2022-08-29T11:03:40Z</time>
      </trkpt>
      <trkpt lat="45.93442" lon="3.72437">
        <ele>1090.2</ele>
        <time>2022-08-29T11:03:41Z</time>
      </trkpt>
      <trkpt lat="45.93442" lon="3.72437">
        <ele>1090.2</ele>
        <time>2022-08-29T11:03:42Z</time>
      </trkpt>
      <trkpt lat="45.93442" lon="3.72436">
        <ele>1090.2</ele>
        <time>2022-08-29T11:03:43Z</time>
      </trkpt>
      <trkpt lat="45.93442" lon="3.72436">
        <ele>1090.2</ele>
        <time>2022-08-29T11:03:44Z</time>
      </trkpt>
      <trkpt lat="45.93442" lon="3.72436">
        <ele>1090.2</ele>
        <time>2022-08-29T11:03:45Z</time>
      </trkpt>
      <trkpt lat="45.93442" lon="3.72435">
        <ele>1090.1</ele>
        <time>2022-08-29T11:03:46Z</time>
      </trkpt>
      <trkpt lat="45.93442" lon="3.72435">
        <ele>1090.1</ele>
        <time>2022-08-29T11:03:47Z</time>
      </trkpt>
      <trkpt lat="45.93442" lon="3.72435">
        <ele>1090.1</ele>
        <time>2022-08-29T11:03:48Z</time>
      </trkpt>
      <trkpt lat="45.93442" lon="3.72434">
        <ele>1090.1</ele>
        <time>2022-08-29T11:03:49Z</time>
      </trkpt>
      <trkpt lat="45.93442" lon="3.72434">
        <ele>1090.1</ele>
        <time>2022-08-29T11:03:50Z</time>
      </trkpt>
      <trkpt lat="45.93442" lon="3.72434">
        <ele>1090.1</ele>
        <time>2022-08-29T11:03:51Z</time>
      </trkpt>
      <trkpt lat="45.93442" lon="3.72434">
        <ele>1090.1</ele>
        <time>2022-08-29T11:03:52Z</time>
      </trkpt>
      <trkpt lat="45.93442" lon="3.72434">
        <ele>1090</ele>
        <time>2022-08-29T11:03:53Z</time>
      </trkpt>
      <trkpt lat="45.93442" lon="3.72434">
        <ele>1090</ele>
        <time>2022-08-29T11:03:54Z</time>
      </trkpt>
      <trkpt lat="45.93442" lon="3.72434">
        <ele>1090</ele>
        <time>2022-08-29T11:03:55Z</time>
      </trkpt>
      <trkpt lat="45.93442" lon="3.72435">
        <ele>1090</ele>
        <time>2022-08-29T11:03:56Z</time>
      </trkpt>
      <trkpt lat="45.93442" lon="3.72435">
        <ele>1090</ele>
        <time>2022-08-29T11:03:57Z</time>
      </trkpt>
      <trkpt lat="45.93442" lon="3.72435">
        <ele>1090</ele>
        <time>2022-08-29T11:03:58Z</time>
      </trkpt>
      <trkpt lat="45.93442" lon="3.72435">
        <ele>1090</ele>
        <time>2022-08-29T11:03:59Z</time>
      </trkpt>
      <trkpt lat="45.93442" lon="3.72435">
        <ele>1090</ele>
        <time>2022-08-29T11:04:00Z</time>
      </trkpt>
      <trkpt lat="45.93442" lon="3.72436">
        <ele>1089.9</ele>
        <time>2022-08-29T11:04:01Z</time>
      </trkpt>
      <trkpt lat="45.93442" lon="3.72437">
        <ele>1089.9</ele>
        <time>2022-08-29T11:04:02Z</time>
      </trkpt>
      <trkpt lat="45.93442" lon="3.72438">
        <ele>1089.8</ele>
        <time>2022-08-29T11:04:03Z</time>
      </trkpt>
      <trkpt lat="45.93442" lon="3.72439">
        <ele>1089.8</ele>
        <time>2022-08-29T11:04:04Z</time>
      </trkpt>
      <trkpt lat="45.93442" lon="3.72439">
        <ele>1089.7</ele>
        <time>2022-08-29T11:04:05Z</time>
      </trkpt>
      <trkpt lat="45.93443" lon="3.72439">
        <ele>1089.7</ele>
        <time>2022-08-29T11:04:06Z</time>
      </trkpt>
      <trkpt lat="45.93443" lon="3.72439">
        <ele>1089.7</ele>
        <time>2022-08-29T11:04:07Z</time>
      </trkpt>
      <trkpt lat="45.93443" lon="3.7244">
        <ele>1089.7</ele>
        <time>2022-08-29T11:04:08Z</time>
      </trkpt>
      <trkpt lat="45.93443" lon="3.7244">
        <ele>1089.7</ele>
        <time>2022-08-29T11:04:09Z</time>
      </trkpt>
      <trkpt lat="45.93443" lon="3.7244">
        <ele>1089.7</ele>
        <time>2022-08-29T11:04:10Z</time>
      </trkpt>
      <trkpt lat="45.93443" lon="3.7244">
        <ele>1089.7</ele>
        <time>2022-08-29T11:04:11Z</time>
      </trkpt>
      <trkpt lat="45.93443" lon="3.7244">
        <ele>1089.7</ele>
        <time>2022-08-29T11:04:12Z</time>
      </trkpt>
      <trkpt lat="45.93443" lon="3.7244">
        <ele>1089.6</ele>
        <time>2022-08-29T11:04:13Z</time>
      </trkpt>
      <trkpt lat="45.93444" lon="3.72441">
        <ele>1089.6</ele>
        <time>2022-08-29T11:04:14Z</time>
      </trkpt>
      <trkpt lat="45.93444" lon="3.72441">
        <ele>1089.6</ele>
        <time>2022-08-29T11:04:15Z</time>
      </trkpt>
      <trkpt lat="45.93444" lon="3.72441">
        <ele>1089.6</ele>
        <time>2022-08-29T11:04:16Z</time>
      </trkpt>
      <trkpt lat="45.93444" lon="3.72442">
        <ele>1089.5</ele>
        <time>2022-08-29T11:04:17Z</time>
      </trkpt>
      <trkpt lat="45.93445" lon="3.72443">
        <ele>1089.4</ele>
        <time>2022-08-29T11:04:18Z</time>
      </trkpt>
      <trkpt lat="45.93446" lon="3.72444">
        <ele>1089.4</ele>
        <time>2022-08-29T11:04:19Z</time>
      </trkpt>
      <trkpt lat="45.93446" lon="3.72445">
        <ele>1089.3</ele>
        <time>2022-08-29T11:04:20Z</time>
      </trkpt>
      <trkpt lat="45.93446" lon="3.72446">
        <ele>1089.2</ele>
        <time>2022-08-29T11:04:21Z</time>
      </trkpt>
      <trkpt lat="45.93449" lon="3.72448">
        <ele>1089</ele>
        <time>2022-08-29T11:04:22Z</time>
      </trkpt>
      <trkpt lat="45.9345" lon="3.72449">
        <ele>1088.9</ele>
        <time>2022-08-29T11:04:23Z</time>
      </trkpt>
      <trkpt lat="45.93452" lon="3.72453">
        <ele>1088.7</ele>
        <time>2022-08-29T11:04:24Z</time>
      </trkpt>
      <trkpt lat="45.93453" lon="3.72455">
        <ele>1088.6</ele>
        <time>2022-08-29T11:04:25Z</time>
      </trkpt>
      <trkpt lat="45.93455" lon="3.72459">
        <ele>1088.3</ele>
        <time>2022-08-29T11:04:26Z</time>
      </trkpt>
      <trkpt lat="45.93455" lon="3.7246">
        <ele>1088.2</ele>
        <time>2022-08-29T11:04:27Z</time>
      </trkpt>
      <trkpt lat="45.93458" lon="3.72463">
        <ele>1087.9</ele>
        <time>2022-08-29T11:04:28Z</time>
      </trkpt>
      <trkpt lat="45.93459" lon="3.72464">
        <ele>1087.9</ele>
        <time>2022-08-29T11:04:29Z</time>
      </trkpt>
      <trkpt lat="45.93461" lon="3.72466">
        <ele>1087.6</ele>
        <time>2022-08-29T11:04:30Z</time>
      </trkpt>
      <trkpt lat="45.93462" lon="3.72467">
        <ele>1087.6</ele>
        <time>2022-08-29T11:04:31Z</time>
      </trkpt>
      <trkpt lat="45.93464" lon="3.7247">
        <ele>1087.3</ele>
        <time>2022-08-29T11:04:32Z</time>
      </trkpt>
      <trkpt lat="45.93465" lon="3.7247">
        <ele>1087.3</ele>
        <time>2022-08-29T11:04:33Z</time>
      </trkpt>
      <trkpt lat="45.93466" lon="3.72472">
        <ele>1087.1</ele>
        <time>2022-08-29T11:04:34Z</time>
      </trkpt>
      <trkpt lat="45.93467" lon="3.72474">
        <ele>1087</ele>
        <time>2022-08-29T11:04:35Z</time>
      </trkpt>
      <trkpt lat="45.93469" lon="3.72475">
        <ele>1086.9</ele>
        <time>2022-08-29T11:04:36Z</time>
      </trkpt>
      <trkpt lat="45.9347" lon="3.72476">
        <ele>1086.7</ele>
        <time>2022-08-29T11:04:37Z</time>
      </trkpt>
      <trkpt lat="45.93471" lon="3.72477">
        <ele>1086.6</ele>
        <time>2022-08-29T11:04:38Z</time>
      </trkpt>
      <trkpt lat="45.93473" lon="3.72478">
        <ele>1086.5</ele>
        <time>2022-08-29T11:04:39Z</time>
      </trkpt>
      <trkpt lat="45.93474" lon="3.72479">
        <ele>1086.4</ele>
        <time>2022-08-29T11:04:40Z</time>
      </trkpt>
      <trkpt lat="45.93475" lon="3.7248">
        <ele>1086.3</ele>
        <time>2022-08-29T11:04:41Z</time>
      </trkpt>
      <trkpt lat="45.93477" lon="3.72481">
        <ele>1086.1</ele>
        <time>2022-08-29T11:04:42Z</time>
      </trkpt>
      <trkpt lat="45.93478" lon="3.72481">
        <ele>1086</ele>
        <time>2022-08-29T11:04:43Z</time>
      </trkpt>
      <trkpt lat="45.93479" lon="3.72482">
        <ele>1086</ele>
        <time>2022-08-29T11:04:44Z</time>
      </trkpt>
      <trkpt lat="45.9348" lon="3.72483">
        <ele>1085.9</ele>
        <time>2022-08-29T11:04:45Z</time>
      </trkpt>
      <trkpt lat="45.93481" lon="3.72484">
        <ele>1085.7</ele>
        <time>2022-08-29T11:04:46Z</time>
      </trkpt>
      <trkpt lat="45.93483" lon="3.72487">
        <ele>1085.6</ele>
        <time>2022-08-29T11:04:47Z</time>
      </trkpt>
      <trkpt lat="45.93483" lon="3.72487">
        <ele>1085.5</ele>
        <time>2022-08-29T11:04:48Z</time>
      </trkpt>
      <trkpt lat="45.93484" lon="3.72488">
        <ele>1085.5</ele>
        <time>2022-08-29T11:04:49Z</time>
      </trkpt>
      <trkpt lat="45.93484" lon="3.72489">
        <ele>1085.4</ele>
        <time>2022-08-29T11:04:50Z</time>
      </trkpt>
      <trkpt lat="45.93485" lon="3.7249">
        <ele>1085.3</ele>
        <time>2022-08-29T11:04:51Z</time>
      </trkpt>
      <trkpt lat="45.93486" lon="3.72491">
        <ele>1085.2</ele>
        <time>2022-08-29T11:04:52Z</time>
      </trkpt>
      <trkpt lat="45.93487" lon="3.72491">
        <ele>1085.2</ele>
        <time>2022-08-29T11:04:53Z</time>
      </trkpt>
      <trkpt lat="45.93488" lon="3.72491">
        <ele>1085.1</ele>
        <time>2022-08-29T11:04:54Z</time>
      </trkpt>
      <trkpt lat="45.93488" lon="3.72491">
        <ele>1085</ele>
        <time>2022-08-29T11:04:55Z</time>
      </trkpt>
      <trkpt lat="45.93489" lon="3.72492">
        <ele>1085</ele>
        <time>2022-08-29T11:04:56Z</time>
      </trkpt>
      <trkpt lat="45.9349" lon="3.72492">
        <ele>1084.9</ele>
        <time>2022-08-29T11:04:57Z</time>
      </trkpt>
      <trkpt lat="45.93491" lon="3.72493">
        <ele>1084.9</ele>
        <time>2022-08-29T11:04:58Z</time>
      </trkpt>
      <trkpt lat="45.93491" lon="3.72493">
        <ele>1084.8</ele>
        <time>2022-08-29T11:04:59Z</time>
      </trkpt>
      <trkpt lat="45.93492" lon="3.72494">
        <ele>1084.7</ele>
        <time>2022-08-29T11:05:00Z</time>
      </trkpt>
      <trkpt lat="45.93493" lon="3.72495">
        <ele>1084.7</ele>
        <time>2022-08-29T11:05:01Z</time>
      </trkpt>
      <trkpt lat="45.93493" lon="3.72496">
        <ele>1084.6</ele>
        <time>2022-08-29T11:05:02Z</time>
      </trkpt>
      <trkpt lat="45.93494" lon="3.72497">
        <ele>1084.5</ele>
        <time>2022-08-29T11:05:03Z</time>
      </trkpt>
      <trkpt lat="45.93494" lon="3.72499">
        <ele>1084.4</ele>
        <time>2022-08-29T11:05:04Z</time>
      </trkpt>
      <trkpt lat="45.93494" lon="3.72501">
        <ele>1084.3</ele>
        <time>2022-08-29T11:05:05Z</time>
      </trkpt>
      <trkpt lat="45.93495" lon="3.72503">
        <ele>1084.2</ele>
        <time>2022-08-29T11:05:06Z</time>
      </trkpt>
      <trkpt lat="45.93495" lon="3.72505">
        <ele>1084.1</ele>
        <time>2022-08-29T11:05:07Z</time>
      </trkpt>
      <trkpt lat="45.93495" lon="3.72506">
        <ele>1084</ele>
        <time>2022-08-29T11:05:08Z</time>
      </trkpt>
      <trkpt lat="45.93496" lon="3.72507">
        <ele>1084</ele>
        <time>2022-08-29T11:05:09Z</time>
      </trkpt>
      <trkpt lat="45.93497" lon="3.72508">
        <ele>1083.9</ele>
        <time>2022-08-29T11:05:10Z</time>
      </trkpt>
      <trkpt lat="45.93498" lon="3.72508">
        <ele>1083.8</ele>
        <time>2022-08-29T11:05:11Z</time>
      </trkpt>
      <trkpt lat="45.93499" lon="3.7251">
        <ele>1083.6</ele>
        <time>2022-08-29T11:05:12Z</time>
      </trkpt>
      <trkpt lat="45.935" lon="3.7251">
        <ele>1083.6</ele>
        <time>2022-08-29T11:05:13Z</time>
      </trkpt>
      <trkpt lat="45.93501" lon="3.72511">
        <ele>1083.5</ele>
        <time>2022-08-29T11:05:14Z</time>
      </trkpt>
      <trkpt lat="45.93502" lon="3.72511">
        <ele>1083.4</ele>
        <time>2022-08-29T11:05:15Z</time>
      </trkpt>
      <trkpt lat="45.93503" lon="3.72512">
        <ele>1083.3</ele>
        <time>2022-08-29T11:05:16Z</time>
      </trkpt>
      <trkpt lat="45.93504" lon="3.72513">
        <ele>1083.2</ele>
        <time>2022-08-29T11:05:17Z</time>
      </trkpt>
      <trkpt lat="45.93505" lon="3.72516">
        <ele>1083.1</ele>
        <time>2022-08-29T11:05:18Z</time>
      </trkpt>
      <trkpt lat="45.93505" lon="3.72517">
        <ele>1083</ele>
        <time>2022-08-29T11:05:19Z</time>
      </trkpt>
      <trkpt lat="45.93506" lon="3.72518">
        <ele>1082.9</ele>
        <time>2022-08-29T11:05:20Z</time>
      </trkpt>
      <trkpt lat="45.93506" lon="3.72521">
        <ele>1082.7</ele>
        <time>2022-08-29T11:05:21Z</time>
      </trkpt>
      <trkpt lat="45.93507" lon="3.72522">
        <ele>1082.7</ele>
        <time>2022-08-29T11:05:22Z</time>
      </trkpt>
      <trkpt lat="45.93507" lon="3.72523">
        <ele>1082.6</ele>
        <time>2022-08-29T11:05:23Z</time>
      </trkpt>
      <trkpt lat="45.93508" lon="3.72524">
        <ele>1082.5</ele>
        <time>2022-08-29T11:05:24Z</time>
      </trkpt>
      <trkpt lat="45.93509" lon="3.72525">
        <ele>1082.5</ele>
        <time>2022-08-29T11:05:25Z</time>
      </trkpt>
      <trkpt lat="45.93509" lon="3.72526">
        <ele>1082.4</ele>
        <time>2022-08-29T11:05:26Z</time>
      </trkpt>
      <trkpt lat="45.9351" lon="3.72527">
        <ele>1082.3</ele>
        <time>2022-08-29T11:05:27Z</time>
      </trkpt>
      <trkpt lat="45.93511" lon="3.72528">
        <ele>1082.2</ele>
        <time>2022-08-29T11:05:28Z</time>
      </trkpt>
      <trkpt lat="45.93511" lon="3.7253">
        <ele>1082.1</ele>
        <time>2022-08-29T11:05:29Z</time>
      </trkpt>
      <trkpt lat="45.93512" lon="3.72532">
        <ele>1082</ele>
        <time>2022-08-29T11:05:30Z</time>
      </trkpt>
      <trkpt lat="45.93514" lon="3.72534">
        <ele>1081.8</ele>
        <time>2022-08-29T11:05:31Z</time>
      </trkpt>
      <trkpt lat="45.93515" lon="3.72535">
        <ele>1081.7</ele>
        <time>2022-08-29T11:05:32Z</time>
      </trkpt>
      <trkpt lat="45.93516" lon="3.72537">
        <ele>1081.6</ele>
        <time>2022-08-29T11:05:33Z</time>
      </trkpt>
      <trkpt lat="45.93516" lon="3.72538">
        <ele>1081.5</ele>
        <time>2022-08-29T11:05:34Z</time>
      </trkpt>
      <trkpt lat="45.93517" lon="3.72539">
        <ele>1081.4</ele>
        <time>2022-08-29T11:05:35Z</time>
      </trkpt>
      <trkpt lat="45.93518" lon="3.72541">
        <ele>1081.4</ele>
        <time>2022-08-29T11:05:36Z</time>
      </trkpt>
      <trkpt lat="45.93518" lon="3.72541">
        <ele>1081.3</ele>
        <time>2022-08-29T11:05:37Z</time>
      </trkpt>
      <trkpt lat="45.93518" lon="3.72542">
        <ele>1081.3</ele>
        <time>2022-08-29T11:05:38Z</time>
      </trkpt>
      <trkpt lat="45.93519" lon="3.72543">
        <ele>1081.2</ele>
        <time>2022-08-29T11:05:39Z</time>
      </trkpt>
      <trkpt lat="45.93519" lon="3.72544">
        <ele>1081.1</ele>
        <time>2022-08-29T11:05:40Z</time>
      </trkpt>
      <trkpt lat="45.9352" lon="3.72547">
        <ele>1081</ele>
        <time>2022-08-29T11:05:41Z</time>
      </trkpt>
      <trkpt lat="45.9352" lon="3.72549">
        <ele>1080.8</ele>
        <time>2022-08-29T11:05:42Z</time>
      </trkpt>
      <trkpt lat="45.93521" lon="3.72554">
        <ele>1080.6</ele>
        <time>2022-08-29T11:05:43Z</time>
      </trkpt>
      <trkpt lat="45.93521" lon="3.72556">
        <ele>1080.5</ele>
        <time>2022-08-29T11:05:44Z</time>
      </trkpt>
      <trkpt lat="45.93522" lon="3.7256">
        <ele>1080.2</ele>
        <time>2022-08-29T11:05:45Z</time>
      </trkpt>
      <trkpt lat="45.93523" lon="3.72561">
        <ele>1080.2</ele>
        <time>2022-08-29T11:05:46Z</time>
      </trkpt>
      <trkpt lat="45.93525" lon="3.72565">
        <ele>1079.9</ele>
        <time>2022-08-29T11:05:47Z</time>
      </trkpt>
      <trkpt lat="45.93526" lon="3.72567">
        <ele>1079.8</ele>
        <time>2022-08-29T11:05:48Z</time>
      </trkpt>
      <trkpt lat="45.93528" lon="3.7257">
        <ele>1079.6</ele>
        <time>2022-08-29T11:05:49Z</time>
      </trkpt>
      <trkpt lat="45.93528" lon="3.72572">
        <ele>1079.5</ele>
        <time>2022-08-29T11:05:50Z</time>
      </trkpt>
      <trkpt lat="45.93529" lon="3.72574">
        <ele>1079.4</ele>
        <time>2022-08-29T11:05:51Z</time>
      </trkpt>
      <trkpt lat="45.93529" lon="3.72574">
        <ele>1079.4</ele>
        <time>2022-08-29T11:05:52Z</time>
      </trkpt>
      <trkpt lat="45.93529" lon="3.72575">
        <ele>1079.3</ele>
        <time>2022-08-29T11:05:53Z</time>
      </trkpt>
      <trkpt lat="45.93529" lon="3.72576">
        <ele>1079.3</ele>
        <time>2022-08-29T11:05:54Z</time>
      </trkpt>
      <trkpt lat="45.93529" lon="3.72576">
        <ele>1079.3</ele>
        <time>2022-08-29T11:05:55Z</time>
      </trkpt>
      <trkpt lat="45.93529" lon="3.72577">
        <ele>1079.3</ele>
        <time>2022-08-29T11:05:56Z</time>
      </trkpt>
      <trkpt lat="45.93529" lon="3.72577">
        <ele>1079.3</ele>
        <time>2022-08-29T11:05:57Z</time>
      </trkpt>
      <trkpt lat="45.93528" lon="3.72577">
        <ele>1079.2</ele>
        <time>2022-08-29T11:05:58Z</time>
      </trkpt>
      <trkpt lat="45.93528" lon="3.72577">
        <ele>1079.2</ele>
        <time>2022-08-29T11:05:59Z</time>
      </trkpt>
      <trkpt lat="45.93527" lon="3.72578">
        <ele>1079.2</ele>
        <time>2022-08-29T11:06:00Z</time>
      </trkpt>
      <trkpt lat="45.93527" lon="3.72577">
        <ele>1079.1</ele>
        <time>2022-08-29T11:06:01Z</time>
      </trkpt>
      <trkpt lat="45.93527" lon="3.72577">
        <ele>1079.1</ele>
        <time>2022-08-29T11:06:02Z</time>
      </trkpt>
      <trkpt lat="45.93526" lon="3.72576">
        <ele>1079</ele>
        <time>2022-08-29T11:06:03Z</time>
      </trkpt>
      <trkpt lat="45.93526" lon="3.72575">
        <ele>1079</ele>
        <time>2022-08-29T11:06:04Z</time>
      </trkpt>
      <trkpt lat="45.93525" lon="3.72574">
        <ele>1078.9</ele>
        <time>2022-08-29T11:06:05Z</time>
      </trkpt>
      <trkpt lat="45.93525" lon="3.72573">
        <ele>1078.9</ele>
        <time>2022-08-29T11:06:06Z</time>
      </trkpt>
      <trkpt lat="45.93525" lon="3.72572">
        <ele>1078.8</ele>
        <time>2022-08-29T11:06:07Z</time>
      </trkpt>
      <trkpt lat="45.93524" lon="3.72571">
        <ele>1078.8</ele>
        <time>2022-08-29T11:06:08Z</time>
      </trkpt>
      <trkpt lat="45.93524" lon="3.72571">
        <ele>1078.7</ele>
        <time>2022-08-29T11:06:09Z</time>
      </trkpt>
      <trkpt lat="45.93525" lon="3.7257">
        <ele>1078.7</ele>
        <time>2022-08-29T11:06:10Z</time>
      </trkpt>
      <trkpt lat="45.93525" lon="3.7257">
        <ele>1078.7</ele>
        <time>2022-08-29T11:06:11Z</time>
      </trkpt>
      <trkpt lat="45.93524" lon="3.7257">
        <ele>1078.7</ele>
        <time>2022-08-29T11:06:12Z</time>
      </trkpt>
      <trkpt lat="45.93524" lon="3.7257">
        <ele>1078.7</ele>
        <time>2022-08-29T11:06:13Z</time>
      </trkpt>
      <trkpt lat="45.93524" lon="3.7257">
        <ele>1078.7</ele>
        <time>2022-08-29T11:06:14Z</time>
      </trkpt>
      <trkpt lat="45.93524" lon="3.7257">
        <ele>1078.6</ele>
        <time>2022-08-29T11:06:15Z</time>
      </trkpt>
      <trkpt lat="45.93524" lon="3.7257">
        <ele>1078.6</ele>
        <time>2022-08-29T11:06:16Z</time>
      </trkpt>
      <trkpt lat="45.93524" lon="3.7257">
        <ele>1078.6</ele>
        <time>2022-08-29T11:06:17Z</time>
      </trkpt>
      <trkpt lat="45.93524" lon="3.7257">
        <ele>1078.6</ele>
        <time>2022-08-29T11:06:18Z</time>
      </trkpt>
      <trkpt lat="45.93524" lon="3.7257">
        <ele>1078.6</ele>
        <time>2022-08-29T11:06:19Z</time>
      </trkpt>
      <trkpt lat="45.93524" lon="3.72571">
        <ele>1078.6</ele>
        <time>2022-08-29T11:06:20Z</time>
      </trkpt>
      <trkpt lat="45.93524" lon="3.72571">
        <ele>1078.6</ele>
        <time>2022-08-29T11:06:21Z</time>
      </trkpt>
      <trkpt lat="45.93524" lon="3.72571">
        <ele>1078.6</ele>
        <time>2022-08-29T11:06:22Z</time>
      </trkpt>
      <trkpt lat="45.93524" lon="3.72571">
        <ele>1078.6</ele>
        <time>2022-08-29T11:06:23Z</time>
      </trkpt>
      <trkpt lat="45.93524" lon="3.72571">
        <ele>1078.6</ele>
        <time>2022-08-29T11:06:24Z</time>
      </trkpt>
      <trkpt lat="45.93525" lon="3.72571">
        <ele>1078.5</ele>
        <time>2022-08-29T11:06:25Z</time>
      </trkpt>
      <trkpt lat="45.93525" lon="3.72572">
        <ele>1078.5</ele>
        <time>2022-08-29T11:06:26Z</time>
      </trkpt>
      <trkpt lat="45.93525" lon="3.72572">
        <ele>1078.5</ele>
        <time>2022-08-29T11:06:27Z</time>
      </trkpt>
      <trkpt lat="45.93526" lon="3.72572">
        <ele>1078.4</ele>
        <time>2022-08-29T11:06:28Z</time>
      </trkpt>
      <trkpt lat="45.93527" lon="3.72573">
        <ele>1078.3</ele>
        <time>2022-08-29T11:06:29Z</time>
      </trkpt>
      <trkpt lat="45.93528" lon="3.72574">
        <ele>1078.3</ele>
        <time>2022-08-29T11:06:30Z</time>
      </trkpt>
      <trkpt lat="45.93529" lon="3.72575">
        <ele>1078.2</ele>
        <time>2022-08-29T11:06:31Z</time>
      </trkpt>
      <trkpt lat="45.9353" lon="3.72576">
        <ele>1078.1</ele>
        <time>2022-08-29T11:06:32Z</time>
      </trkpt>
      <trkpt lat="45.93531" lon="3.72577">
        <ele>1078</ele>
        <time>2022-08-29T11:06:33Z</time>
      </trkpt>
      <trkpt lat="45.93532" lon="3.72578">
        <ele>1077.9</ele>
        <time>2022-08-29T11:06:34Z</time>
      </trkpt>
      <trkpt lat="45.93534" lon="3.72579">
        <ele>1077.8</ele>
        <time>2022-08-29T11:06:35Z</time>
      </trkpt>
      <trkpt lat="45.93535" lon="3.72581">
        <ele>1077.6</ele>
        <time>2022-08-29T11:06:36Z</time>
      </trkpt>
      <trkpt lat="45.93538" lon="3.72583">
        <ele>1076.7</ele>
        <time>2022-08-29T11:06:37Z</time>
      </trkpt>
      <trkpt lat="45.93539" lon="3.72584">
        <ele>1076.7</ele>
        <time>2022-08-29T11:06:38Z</time>
      </trkpt>
      <trkpt lat="45.93541" lon="3.72587">
        <ele>1076.6</ele>
        <time>2022-08-29T11:06:39Z</time>
      </trkpt>
      <trkpt lat="45.93542" lon="3.72588">
        <ele>1076.6</ele>
        <time>2022-08-29T11:06:40Z</time>
      </trkpt>
      <trkpt lat="45.93543" lon="3.72589">
        <ele>1076.6</ele>
        <time>2022-08-29T11:06:41Z</time>
      </trkpt>
      <trkpt lat="45.93545" lon="3.72591">
        <ele>1076.6</ele>
        <time>2022-08-29T11:06:42Z</time>
      </trkpt>
      <trkpt lat="45.93546" lon="3.72592">
        <ele>1076.5</ele>
        <time>2022-08-29T11:06:43Z</time>
      </trkpt>
      <trkpt lat="45.93547" lon="3.72593">
        <ele>1076.5</ele>
        <time>2022-08-29T11:06:44Z</time>
      </trkpt>
      <trkpt lat="45.93549" lon="3.72594">
        <ele>1076.5</ele>
        <time>2022-08-29T11:06:45Z</time>
      </trkpt>
      <trkpt lat="45.9355" lon="3.72595">
        <ele>1076.4</ele>
        <time>2022-08-29T11:06:46Z</time>
      </trkpt>
      <trkpt lat="45.93552" lon="3.72596">
        <ele>1076.4</ele>
        <time>2022-08-29T11:06:47Z</time>
      </trkpt>
      <trkpt lat="45.93553" lon="3.72597">
        <ele>1076.3</ele>
        <time>2022-08-29T11:06:48Z</time>
      </trkpt>
      <trkpt lat="45.93554" lon="3.72599">
        <ele>1076.3</ele>
        <time>2022-08-29T11:06:49Z</time>
      </trkpt>
      <trkpt lat="45.93555" lon="3.72601">
        <ele>1076.3</ele>
        <time>2022-08-29T11:06:50Z</time>
      </trkpt>
      <trkpt lat="45.93556" lon="3.72602">
        <ele>1076.3</ele>
        <time>2022-08-29T11:06:51Z</time>
      </trkpt>
      <trkpt lat="45.93557" lon="3.72604">
        <ele>1076.3</ele>
        <time>2022-08-29T11:06:52Z</time>
      </trkpt>
      <trkpt lat="45.93558" lon="3.72606">
        <ele>1076.3</ele>
        <time>2022-08-29T11:06:53Z</time>
      </trkpt>
      <trkpt lat="45.93559" lon="3.72608">
        <ele>1076.3</ele>
        <time>2022-08-29T11:06:54Z</time>
      </trkpt>
      <trkpt lat="45.9356" lon="3.7261">
        <ele>1076.3</ele>
        <time>2022-08-29T11:06:55Z</time>
      </trkpt>
      <trkpt lat="45.93561" lon="3.72611">
        <ele>1076.3</ele>
        <time>2022-08-29T11:06:56Z</time>
      </trkpt>
      <trkpt lat="45.93561" lon="3.72612">
        <ele>1076.3</ele>
        <time>2022-08-29T11:06:57Z</time>
      </trkpt>
      <trkpt lat="45.93562" lon="3.72614">
        <ele>1076.3</ele>
        <time>2022-08-29T11:06:58Z</time>
      </trkpt>
      <trkpt lat="45.93562" lon="3.72615">
        <ele>1076.3</ele>
        <time>2022-08-29T11:06:59Z</time>
      </trkpt>
      <trkpt lat="45.93563" lon="3.72616">
        <ele>1076.3</ele>
        <time>2022-08-29T11:07:00Z</time>
      </trkpt>
      <trkpt lat="45.93564" lon="3.72618">
        <ele>1076.3</ele>
        <time>2022-08-29T11:07:01Z</time>
      </trkpt>
      <trkpt lat="45.93565" lon="3.72619">
        <ele>1076.3</ele>
        <time>2022-08-29T11:07:02Z</time>
      </trkpt>
      <trkpt lat="45.93566" lon="3.72622">
        <ele>1076.3</ele>
        <time>2022-08-29T11:07:03Z</time>
      </trkpt>
      <trkpt lat="45.93567" lon="3.72623">
        <ele>1076.3</ele>
        <time>2022-08-29T11:07:04Z</time>
      </trkpt>
      <trkpt lat="45.93568" lon="3.72625">
        <ele>1076.3</ele>
        <time>2022-08-29T11:07:05Z</time>
      </trkpt>
      <trkpt lat="45.93568" lon="3.72627">
        <ele>1076.3</ele>
        <time>2022-08-29T11:07:06Z</time>
      </trkpt>
      <trkpt lat="45.93569" lon="3.72629">
        <ele>1076.2</ele>
        <time>2022-08-29T11:07:07Z</time>
      </trkpt>
      <trkpt lat="45.93569" lon="3.72631">
        <ele>1076.2</ele>
        <time>2022-08-29T11:07:08Z</time>
      </trkpt>
      <trkpt lat="45.9357" lon="3.72633">
        <ele>1076.2</ele>
        <time>2022-08-29T11:07:09Z</time>
      </trkpt>
      <trkpt lat="45.9357" lon="3.72635">
        <ele>1076.2</ele>
        <time>2022-08-29T11:07:10Z</time>
      </trkpt>
      <trkpt lat="45.9357" lon="3.72636">
        <ele>1076.2</ele>
        <time>2022-08-29T11:07:11Z</time>
      </trkpt>
      <trkpt lat="45.93571" lon="3.72638">
        <ele>1076.2</ele>
        <time>2022-08-29T11:07:12Z</time>
      </trkpt>
      <trkpt lat="45.93572" lon="3.7264">
        <ele>1076.2</ele>
        <time>2022-08-29T11:07:13Z</time>
      </trkpt>
      <trkpt lat="45.93573" lon="3.72642">
        <ele>1076.2</ele>
        <time>2022-08-29T11:07:14Z</time>
      </trkpt>
      <trkpt lat="45.93574" lon="3.72643">
        <ele>1076.2</ele>
        <time>2022-08-29T11:07:15Z</time>
      </trkpt>
      <trkpt lat="45.93575" lon="3.72645">
        <ele>1076.2</ele>
        <time>2022-08-29T11:07:16Z</time>
      </trkpt>
      <trkpt lat="45.93575" lon="3.72647">
        <ele>1076.2</ele>
        <time>2022-08-29T11:07:17Z</time>
      </trkpt>
      <trkpt lat="45.93576" lon="3.72648">
        <ele>1076.2</ele>
        <time>2022-08-29T11:07:18Z</time>
      </trkpt>
      <trkpt lat="45.93577" lon="3.72649">
        <ele>1076.2</ele>
        <time>2022-08-29T11:07:19Z</time>
      </trkpt>
      <trkpt lat="45.93578" lon="3.7265">
        <ele>1076.2</ele>
        <time>2022-08-29T11:07:20Z</time>
      </trkpt>
      <trkpt lat="45.93579" lon="3.72651">
        <ele>1076.2</ele>
        <time>2022-08-29T11:07:21Z</time>
      </trkpt>
      <trkpt lat="45.9358" lon="3.72652">
        <ele>1076.2</ele>
        <time>2022-08-29T11:07:22Z</time>
      </trkpt>
      <trkpt lat="45.93581" lon="3.72652">
        <ele>1076.2</ele>
        <time>2022-08-29T11:07:23Z</time>
      </trkpt>
      <trkpt lat="45.93582" lon="3.72653">
        <ele>1076.2</ele>
        <time>2022-08-29T11:07:24Z</time>
      </trkpt>
      <trkpt lat="45.93582" lon="3.72654">
        <ele>1076.2</ele>
        <time>2022-08-29T11:07:25Z</time>
      </trkpt>
      <trkpt lat="45.93583" lon="3.72655">
        <ele>1076.2</ele>
        <time>2022-08-29T11:07:26Z</time>
      </trkpt>
      <trkpt lat="45.93583" lon="3.72656">
        <ele>1076.2</ele>
        <time>2022-08-29T11:07:27Z</time>
      </trkpt>
      <trkpt lat="45.93583" lon="3.72656">
        <ele>1076.2</ele>
        <time>2022-08-29T11:07:28Z</time>
      </trkpt>
      <trkpt lat="45.93584" lon="3.72657">
        <ele>1076.2</ele>
        <time>2022-08-29T11:07:29Z</time>
      </trkpt>
      <trkpt lat="45.93584" lon="3.72658">
        <ele>1076.2</ele>
        <time>2022-08-29T11:07:30Z</time>
      </trkpt>
      <trkpt lat="45.93584" lon="3.72659">
        <ele>1076.2</ele>
        <time>2022-08-29T11:07:31Z</time>
      </trkpt>
      <trkpt lat="45.93585" lon="3.7266">
        <ele>1076.2</ele>
        <time>2022-08-29T11:07:32Z</time>
      </trkpt>
      <trkpt lat="45.93585" lon="3.72661">
        <ele>1076.2</ele>
        <time>2022-08-29T11:07:33Z</time>
      </trkpt>
      <trkpt lat="45.93585" lon="3.72663">
        <ele>1076.2</ele>
        <time>2022-08-29T11:07:34Z</time>
      </trkpt>
      <trkpt lat="45.93586" lon="3.72665">
        <ele>1076.2</ele>
        <time>2022-08-29T11:07:35Z</time>
      </trkpt>
      <trkpt lat="45.93586" lon="3.72667">
        <ele>1076.2</ele>
        <time>2022-08-29T11:07:36Z</time>
      </trkpt>
      <trkpt lat="45.93587" lon="3.72669">
        <ele>1076.2</ele>
        <time>2022-08-29T11:07:37Z</time>
      </trkpt>
      <trkpt lat="45.93588" lon="3.72672">
        <ele>1076.2</ele>
        <time>2022-08-29T11:07:38Z</time>
      </trkpt>
      <trkpt lat="45.93589" lon="3.72675">
        <ele>1076.2</ele>
        <time>2022-08-29T11:07:39Z</time>
      </trkpt>
      <trkpt lat="45.93589" lon="3.72676">
        <ele>1076.3</ele>
        <time>2022-08-29T11:07:40Z</time>
      </trkpt>
      <trkpt lat="45.9359" lon="3.7268">
        <ele>1076.3</ele>
        <time>2022-08-29T11:07:41Z</time>
      </trkpt>
      <trkpt lat="45.93591" lon="3.72682">
        <ele>1076.3</ele>
        <time>2022-08-29T11:07:42Z</time>
      </trkpt>
      <trkpt lat="45.93591" lon="3.72684">
        <ele>1076.3</ele>
        <time>2022-08-29T11:07:43Z</time>
      </trkpt>
      <trkpt lat="45.93592" lon="3.72686">
        <ele>1076.3</ele>
        <time>2022-08-29T11:07:44Z</time>
      </trkpt>
      <trkpt lat="45.93593" lon="3.72688">
        <ele>1076.4</ele>
        <time>2022-08-29T11:07:45Z</time>
      </trkpt>
      <trkpt lat="45.93594" lon="3.72689">
        <ele>1076.4</ele>
        <time>2022-08-29T11:07:46Z</time>
      </trkpt>
      <trkpt lat="45.93594" lon="3.7269">
        <ele>1076.4</ele>
        <time>2022-08-29T11:07:47Z</time>
      </trkpt>
      <trkpt lat="45.93594" lon="3.72691">
        <ele>1076.4</ele>
        <time>2022-08-29T11:07:48Z</time>
      </trkpt>
      <trkpt lat="45.93594" lon="3.72692">
        <ele>1076.4</ele>
        <time>2022-08-29T11:07:49Z</time>
      </trkpt>
      <trkpt lat="45.93595" lon="3.72694">
        <ele>1076.4</ele>
        <time>2022-08-29T11:07:50Z</time>
      </trkpt>
      <trkpt lat="45.93595" lon="3.72697">
        <ele>1076.4</ele>
        <time>2022-08-29T11:07:51Z</time>
      </trkpt>
      <trkpt lat="45.93595" lon="3.72699">
        <ele>1076.4</ele>
        <time>2022-08-29T11:07:52Z</time>
      </trkpt>
      <trkpt lat="45.93595" lon="3.727">
        <ele>1076.5</ele>
        <time>2022-08-29T11:07:53Z</time>
      </trkpt>
      <trkpt lat="45.93596" lon="3.72702">
        <ele>1076.5</ele>
        <time>2022-08-29T11:07:54Z</time>
      </trkpt>
      <trkpt lat="45.93596" lon="3.72705">
        <ele>1076.5</ele>
        <time>2022-08-29T11:07:55Z</time>
      </trkpt>
      <trkpt lat="45.93597" lon="3.72707">
        <ele>1076.5</ele>
        <time>2022-08-29T11:07:56Z</time>
      </trkpt>
      <trkpt lat="45.93597" lon="3.72709">
        <ele>1076.5</ele>
        <time>2022-08-29T11:07:57Z</time>
      </trkpt>
      <trkpt lat="45.93598" lon="3.72711">
        <ele>1076.5</ele>
        <time>2022-08-29T11:07:58Z</time>
      </trkpt>
      <trkpt lat="45.93598" lon="3.72713">
        <ele>1076.5</ele>
        <time>2022-08-29T11:07:59Z</time>
      </trkpt>
      <trkpt lat="45.93599" lon="3.72716">
        <ele>1076.5</ele>
        <time>2022-08-29T11:08:00Z</time>
      </trkpt>
      <trkpt lat="45.93599" lon="3.72717">
        <ele>1076.5</ele>
        <time>2022-08-29T11:08:01Z</time>
      </trkpt>
      <trkpt lat="45.936" lon="3.72717">
        <ele>1076.5</ele>
        <time>2022-08-29T11:08:02Z</time>
      </trkpt>
      <trkpt lat="45.93601" lon="3.72718">
        <ele>1076.5</ele>
        <time>2022-08-29T11:08:03Z</time>
      </trkpt>
      <trkpt lat="45.93603" lon="3.72718">
        <ele>1076.5</ele>
        <time>2022-08-29T11:08:04Z</time>
      </trkpt>
      <trkpt lat="45.93604" lon="3.72718">
        <ele>1076.5</ele>
        <time>2022-08-29T11:08:05Z</time>
      </trkpt>
      <trkpt lat="45.93606" lon="3.72718">
        <ele>1076.5</ele>
        <time>2022-08-29T11:08:06Z</time>
      </trkpt>
      <trkpt lat="45.93608" lon="3.72718">
        <ele>1076.5</ele>
        <time>2022-08-29T11:08:07Z</time>
      </trkpt>
      <trkpt lat="45.93608" lon="3.72718">
        <ele>1076.5</ele>
        <time>2022-08-29T11:08:08Z</time>
      </trkpt>
      <trkpt lat="45.93609" lon="3.72718">
        <ele>1076.5</ele>
        <time>2022-08-29T11:08:09Z</time>
      </trkpt>
      <trkpt lat="45.9361" lon="3.72717">
        <ele>1076.5</ele>
        <time>2022-08-29T11:08:10Z</time>
      </trkpt>
      <trkpt lat="45.93611" lon="3.72716">
        <ele>1076.4</ele>
        <time>2022-08-29T11:08:12Z</time>
      </trkpt>
      <trkpt lat="45.93611" lon="3.72716">
        <ele>1076.4</ele>
        <time>2022-08-29T11:08:13Z</time>
      </trkpt>
      <trkpt lat="45.93611" lon="3.72715">
        <ele>1076.4</ele>
        <time>2022-08-29T11:08:14Z</time>
      </trkpt>
      <trkpt lat="45.93611" lon="3.72715">
        <ele>1076.4</ele>
        <time>2022-08-29T11:08:15Z</time>
      </trkpt>
      <trkpt lat="45.93611" lon="3.72714">
        <ele>1076.4</ele>
        <time>2022-08-29T11:08:16Z</time>
      </trkpt>
      <trkpt lat="45.93611" lon="3.72714">
        <ele>1076.4</ele>
        <time>2022-08-29T11:08:17Z</time>
      </trkpt>
      <trkpt lat="45.93611" lon="3.72713">
        <ele>1076.4</ele>
        <time>2022-08-29T11:08:18Z</time>
      </trkpt>
      <trkpt lat="45.93611" lon="3.72713">
        <ele>1076.4</ele>
        <time>2022-08-29T11:08:19Z</time>
      </trkpt>
      <trkpt lat="45.93611" lon="3.72712">
        <ele>1076.4</ele>
        <time>2022-08-29T11:08:21Z</time>
      </trkpt>
      <trkpt lat="45.93611" lon="3.72711">
        <ele>1076.4</ele>
        <time>2022-08-29T11:08:23Z</time>
      </trkpt>
      <trkpt lat="45.93611" lon="3.7271">
        <ele>1076.4</ele>
        <time>2022-08-29T11:08:24Z</time>
      </trkpt>
      <trkpt lat="45.93612" lon="3.72708">
        <ele>1076.3</ele>
        <time>2022-08-29T11:08:25Z</time>
      </trkpt>
      <trkpt lat="45.93612" lon="3.72706">
        <ele>1076.3</ele>
        <time>2022-08-29T11:08:26Z</time>
      </trkpt>
      <trkpt lat="45.93612" lon="3.72705">
        <ele>1076.3</ele>
        <time>2022-08-29T11:08:27Z</time>
      </trkpt>
      <trkpt lat="45.93612" lon="3.72703">
        <ele>1076.3</ele>
        <time>2022-08-29T11:08:28Z</time>
      </trkpt>
      <trkpt lat="45.93612" lon="3.72701">
        <ele>1076.2</ele>
        <time>2022-08-29T11:08:30Z</time>
      </trkpt>
      <trkpt lat="45.93612" lon="3.72693">
        <ele>1076.1</ele>
        <time>2022-08-29T11:08:35Z</time>
      </trkpt>
      <trkpt lat="45.93612" lon="3.72691">
        <ele>1076.1</ele>
        <time>2022-08-29T11:08:39Z</time>
      </trkpt>
      <trkpt lat="45.93612" lon="3.72689">
        <ele>1076.1</ele>
        <time>2022-08-29T11:08:40Z</time>
      </trkpt>
      <trkpt lat="45.93614" lon="3.72679">
        <ele>1075.9</ele>
        <time>2022-08-29T11:08:41Z</time>
      </trkpt>
      <trkpt lat="45.93615" lon="3.72675">
        <ele>1075.9</ele>
        <time>2022-08-29T11:08:43Z</time>
      </trkpt>
      <trkpt lat="45.93616" lon="3.72669">
        <ele>1075.7</ele>
        <time>2022-08-29T11:08:45Z</time>
      </trkpt>
      <trkpt lat="45.93618" lon="3.72665">
        <ele>1075.6</ele>
        <time>2022-08-29T11:08:46Z</time>
      </trkpt>
      <trkpt lat="45.93619" lon="3.72663">
        <ele>1075.6</ele>
        <time>2022-08-29T11:08:47Z</time>
      </trkpt>
      <trkpt lat="45.93621" lon="3.72658">
        <ele>1075.4</ele>
        <time>2022-08-29T11:08:49Z</time>
      </trkpt>
      <trkpt lat="45.93621" lon="3.72657">
        <ele>1075.4</ele>
        <time>2022-08-29T11:08:50Z</time>
      </trkpt>
      <trkpt lat="45.93622" lon="3.72654">
        <ele>1075.3</ele>
        <time>2022-08-29T11:08:51Z</time>
      </trkpt>
      <trkpt lat="45.93622" lon="3.7265">
        <ele>1075.2</ele>
        <time>2022-08-29T11:08:53Z</time>
      </trkpt>
      <trkpt lat="45.93622" lon="3.72643">
        <ele>1075</ele>
        <time>2022-08-29T11:08:54Z</time>
      </trkpt>
      <trkpt lat="45.93622" lon="3.72638">
        <ele>1074.8</ele>
        <time>2022-08-29T11:08:55Z</time>
      </trkpt>
      <trkpt lat="45.93623" lon="3.72636">
        <ele>1074.7</ele>
        <time>2022-08-29T11:08:56Z</time>
      </trkpt>
      <trkpt lat="45.93624" lon="3.7263">
        <ele>1074.5</ele>
        <time>2022-08-29T11:08:58Z</time>
      </trkpt>
      <trkpt lat="45.93625" lon="3.72626">
        <ele>1074.3</ele>
        <time>2022-08-29T11:08:59Z</time>
      </trkpt>
      <trkpt lat="45.93626" lon="3.72622">
        <ele>1074.2</ele>
        <time>2022-08-29T11:09:00Z</time>
      </trkpt>
      <trkpt lat="45.93626" lon="3.7262">
        <ele>1074.1</ele>
        <time>2022-08-29T11:09:01Z</time>
      </trkpt>
      <trkpt lat="45.93625" lon="3.72618">
        <ele>1074</ele>
        <time>2022-08-29T11:09:02Z</time>
      </trkpt>
      <trkpt lat="45.93624" lon="3.72616">
        <ele>1073.9</ele>
        <time>2022-08-29T11:09:03Z</time>
      </trkpt>
      <trkpt lat="45.93623" lon="3.72614">
        <ele>1073.8</ele>
        <time>2022-08-29T11:09:04Z</time>
      </trkpt>
      <trkpt lat="45.93622" lon="3.72612">
        <ele>1073.7</ele>
        <time>2022-08-29T11:09:06Z</time>
      </trkpt>
      <trkpt lat="45.93621" lon="3.72611">
        <ele>1073.7</ele>
        <time>2022-08-29T11:09:07Z</time>
      </trkpt>
      <trkpt lat="45.9362" lon="3.72611">
        <ele>1073.6</ele>
        <time>2022-08-29T11:09:08Z</time>
      </trkpt>
      <trkpt lat="45.9362" lon="3.72611">
        <ele>1073.6</ele>
        <time>2022-08-29T11:09:09Z</time>
      </trkpt>
      <trkpt lat="45.93619" lon="3.7261">
        <ele>1073.6</ele>
        <time>2022-08-29T11:09:10Z</time>
      </trkpt>
      <trkpt lat="45.93619" lon="3.72609">
        <ele>1073.5</ele>
        <time>2022-08-29T11:09:11Z</time>
      </trkpt>
      <trkpt lat="45.93618" lon="3.72608">
        <ele>1073.5</ele>
        <time>2022-08-29T11:09:12Z</time>
      </trkpt>
      <trkpt lat="45.93617" lon="3.72607">
        <ele>1073.4</ele>
        <time>2022-08-29T11:09:13Z</time>
      </trkpt>
      <trkpt lat="45.93616" lon="3.72606">
        <ele>1073.3</ele>
        <time>2022-08-29T11:09:14Z</time>
      </trkpt>
      <trkpt lat="45.93615" lon="3.72606">
        <ele>1073.3</ele>
        <time>2022-08-29T11:09:15Z</time>
      </trkpt>
      <trkpt lat="45.93615" lon="3.72604">
        <ele>1073.2</ele>
        <time>2022-08-29T11:09:16Z</time>
      </trkpt>
      <trkpt lat="45.93614" lon="3.72603">
        <ele>1073.2</ele>
        <time>2022-08-29T11:09:17Z</time>
      </trkpt>
      <trkpt lat="45.93614" lon="3.72601">
        <ele>1073.1</ele>
        <time>2022-08-29T11:09:18Z</time>
      </trkpt>
      <trkpt lat="45.93614" lon="3.726">
        <ele>1073</ele>
        <time>2022-08-29T11:09:19Z</time>
      </trkpt>
      <trkpt lat="45.93614" lon="3.72598">
        <ele>1073</ele>
        <time>2022-08-29T11:09:20Z</time>
      </trkpt>
      <trkpt lat="45.93613" lon="3.72597">
        <ele>1073</ele>
        <time>2022-08-29T11:09:21Z</time>
      </trkpt>
      <trkpt lat="45.93613" lon="3.72595">
        <ele>1072.9</ele>
        <time>2022-08-29T11:09:22Z</time>
      </trkpt>
      <trkpt lat="45.93614" lon="3.72594">
        <ele>1072.9</ele>
        <time>2022-08-29T11:09:23Z</time>
      </trkpt>
      <trkpt lat="45.93614" lon="3.72592">
        <ele>1072.8</ele>
        <time>2022-08-29T11:09:24Z</time>
      </trkpt>
      <trkpt lat="45.93614" lon="3.72591">
        <ele>1072.7</ele>
        <time>2022-08-29T11:09:25Z</time>
      </trkpt>
      <trkpt lat="45.93613" lon="3.72589">
        <ele>1072.7</ele>
        <time>2022-08-29T11:09:26Z</time>
      </trkpt>
      <trkpt lat="45.93613" lon="3.72587">
        <ele>1072.6</ele>
        <time>2022-08-29T11:09:27Z</time>
      </trkpt>
      <trkpt lat="45.93612" lon="3.72583">
        <ele>1072.4</ele>
        <time>2022-08-29T11:09:28Z</time>
      </trkpt>
      <trkpt lat="45.93611" lon="3.72582">
        <ele>1072.3</ele>
        <time>2022-08-29T11:09:29Z</time>
      </trkpt>
      <trkpt lat="45.9361" lon="3.7258">
        <ele>1072.2</ele>
        <time>2022-08-29T11:09:30Z</time>
      </trkpt>
      <trkpt lat="45.9361" lon="3.72578">
        <ele>1072.1</ele>
        <time>2022-08-29T11:09:31Z</time>
      </trkpt>
      <trkpt lat="45.93609" lon="3.72576">
        <ele>1072</ele>
        <time>2022-08-29T11:09:32Z</time>
      </trkpt>
      <trkpt lat="45.93609" lon="3.72574">
        <ele>1071.9</ele>
        <time>2022-08-29T11:09:33Z</time>
      </trkpt>
      <trkpt lat="45.93608" lon="3.72572">
        <ele>1071.8</ele>
        <time>2022-08-29T11:09:34Z</time>
      </trkpt>
      <trkpt lat="45.93608" lon="3.7257">
        <ele>1071.8</ele>
        <time>2022-08-29T11:09:35Z</time>
      </trkpt>
      <trkpt lat="45.93608" lon="3.72569">
        <ele>1071.7</ele>
        <time>2022-08-29T11:09:36Z</time>
      </trkpt>
      <trkpt lat="45.93607" lon="3.72567">
        <ele>1071.6</ele>
        <time>2022-08-29T11:09:37Z</time>
      </trkpt>
      <trkpt lat="45.93607" lon="3.72566">
        <ele>1071.5</ele>
        <time>2022-08-29T11:09:38Z</time>
      </trkpt>
      <trkpt lat="45.93605" lon="3.72563">
        <ele>1071.3</ele>
        <time>2022-08-29T11:09:39Z</time>
      </trkpt>
      <trkpt lat="45.93605" lon="3.72562">
        <ele>1071.3</ele>
        <time>2022-08-29T11:09:40Z</time>
      </trkpt>
      <trkpt lat="45.93604" lon="3.72561">
        <ele>1071.2</ele>
        <time>2022-08-29T11:09:41Z</time>
      </trkpt>
      <trkpt lat="45.93604" lon="3.72558">
        <ele>1071.1</ele>
        <time>2022-08-29T11:09:42Z</time>
      </trkpt>
      <trkpt lat="45.93604" lon="3.72557">
        <ele>1071</ele>
        <time>2022-08-29T11:09:43Z</time>
      </trkpt>
      <trkpt lat="45.93604" lon="3.72555">
        <ele>1070.9</ele>
        <time>2022-08-29T11:09:44Z</time>
      </trkpt>
      <trkpt lat="45.93605" lon="3.72553">
        <ele>1070.7</ele>
        <time>2022-08-29T11:09:45Z</time>
      </trkpt>
      <trkpt lat="45.93605" lon="3.72552">
        <ele>1070.6</ele>
        <time>2022-08-29T11:09:46Z</time>
      </trkpt>
      <trkpt lat="45.93606" lon="3.72551">
        <ele>1070.6</ele>
        <time>2022-08-29T11:09:47Z</time>
      </trkpt>
      <trkpt lat="45.93607" lon="3.7255">
        <ele>1070.5</ele>
        <time>2022-08-29T11:09:48Z</time>
      </trkpt>
      <trkpt lat="45.93608" lon="3.72549">
        <ele>1070.3</ele>
        <time>2022-08-29T11:09:49Z</time>
      </trkpt>
      <trkpt lat="45.93609" lon="3.72547">
        <ele>1070.2</ele>
        <time>2022-08-29T11:09:50Z</time>
      </trkpt>
      <trkpt lat="45.93611" lon="3.72546">
        <ele>1070</ele>
        <time>2022-08-29T11:09:51Z</time>
      </trkpt>
      <trkpt lat="45.93613" lon="3.72543">
        <ele>1069.7</ele>
        <time>2022-08-29T11:09:52Z</time>
      </trkpt>
      <trkpt lat="45.93614" lon="3.72542">
        <ele>1069.7</ele>
        <time>2022-08-29T11:09:53Z</time>
      </trkpt>
      <trkpt lat="45.93617" lon="3.72539">
        <ele>1069.4</ele>
        <time>2022-08-29T11:09:54Z</time>
      </trkpt>
      <trkpt lat="45.93617" lon="3.72538">
        <ele>1069.3</ele>
        <time>2022-08-29T11:09:55Z</time>
      </trkpt>
      <trkpt lat="45.93618" lon="3.72536">
        <ele>1069.2</ele>
        <time>2022-08-29T11:09:56Z</time>
      </trkpt>
      <trkpt lat="45.93619" lon="3.72534">
        <ele>1069.1</ele>
        <time>2022-08-29T11:09:57Z</time>
      </trkpt>
      <trkpt lat="45.93619" lon="3.72532">
        <ele>1069</ele>
        <time>2022-08-29T11:09:58Z</time>
      </trkpt>
      <trkpt lat="45.93619" lon="3.7253">
        <ele>1068.8</ele>
        <time>2022-08-29T11:09:59Z</time>
      </trkpt>
      <trkpt lat="45.93619" lon="3.72526">
        <ele>1068.6</ele>
        <time>2022-08-29T11:10:00Z</time>
      </trkpt>
      <trkpt lat="45.93619" lon="3.72525">
        <ele>1068.5</ele>
        <time>2022-08-29T11:10:01Z</time>
      </trkpt>
      <trkpt lat="45.93619" lon="3.72524">
        <ele>1068.5</ele>
        <time>2022-08-29T11:10:02Z</time>
      </trkpt>
      <trkpt lat="45.9362" lon="3.72522">
        <ele>1068.3</ele>
        <time>2022-08-29T11:10:03Z</time>
      </trkpt>
      <trkpt lat="45.93621" lon="3.72521">
        <ele>1068.2</ele>
        <time>2022-08-29T11:10:04Z</time>
      </trkpt>
      <trkpt lat="45.93622" lon="3.72518">
        <ele>1068</ele>
        <time>2022-08-29T11:10:05Z</time>
      </trkpt>
      <trkpt lat="45.93623" lon="3.72517">
        <ele>1068</ele>
        <time>2022-08-29T11:10:06Z</time>
      </trkpt>
      <trkpt lat="45.93623" lon="3.72516">
        <ele>1067.9</ele>
        <time>2022-08-29T11:10:07Z</time>
      </trkpt>
      <trkpt lat="45.93623" lon="3.72514">
        <ele>1067.8</ele>
        <time>2022-08-29T11:10:08Z</time>
      </trkpt>
      <trkpt lat="45.93622" lon="3.72512">
        <ele>1067.6</ele>
        <time>2022-08-29T11:10:09Z</time>
      </trkpt>
      <trkpt lat="45.93621" lon="3.72508">
        <ele>1067.3</ele>
        <time>2022-08-29T11:10:10Z</time>
      </trkpt>
      <trkpt lat="45.93621" lon="3.72506">
        <ele>1067.3</ele>
        <time>2022-08-29T11:10:11Z</time>
      </trkpt>
      <trkpt lat="45.9362" lon="3.72504">
        <ele>1067.1</ele>
        <time>2022-08-29T11:10:12Z</time>
      </trkpt>
      <trkpt lat="45.9362" lon="3.72502">
        <ele>1067</ele>
        <time>2022-08-29T11:10:13Z</time>
      </trkpt>
      <trkpt lat="45.93619" lon="3.72501">
        <ele>1066.9</ele>
        <time>2022-08-29T11:10:14Z</time>
      </trkpt>
      <trkpt lat="45.93619" lon="3.725">
        <ele>1066.9</ele>
        <time>2022-08-29T11:10:15Z</time>
      </trkpt>
      <trkpt lat="45.93618" lon="3.72499">
        <ele>1066.8</ele>
        <time>2022-08-29T11:10:16Z</time>
      </trkpt>
      <trkpt lat="45.93618" lon="3.72497">
        <ele>1066.7</ele>
        <time>2022-08-29T11:10:17Z</time>
      </trkpt>
      <trkpt lat="45.93618" lon="3.72496">
        <ele>1066.6</ele>
        <time>2022-08-29T11:10:18Z</time>
      </trkpt>
      <trkpt lat="45.93617" lon="3.72495">
        <ele>1066.6</ele>
        <time>2022-08-29T11:10:19Z</time>
      </trkpt>
      <trkpt lat="45.93617" lon="3.72494">
        <ele>1066.5</ele>
        <time>2022-08-29T11:10:20Z</time>
      </trkpt>
      <trkpt lat="45.93617" lon="3.72493">
        <ele>1066.4</ele>
        <time>2022-08-29T11:10:21Z</time>
      </trkpt>
      <trkpt lat="45.93617" lon="3.72491">
        <ele>1066.4</ele>
        <time>2022-08-29T11:10:22Z</time>
      </trkpt>
      <trkpt lat="45.93618" lon="3.7249">
        <ele>1066.3</ele>
        <time>2022-08-29T11:10:23Z</time>
      </trkpt>
      <trkpt lat="45.93618" lon="3.72487">
        <ele>1066.1</ele>
        <time>2022-08-29T11:10:24Z</time>
      </trkpt>
      <trkpt lat="45.93619" lon="3.72486">
        <ele>1066</ele>
        <time>2022-08-29T11:10:25Z</time>
      </trkpt>
      <trkpt lat="45.93619" lon="3.72485">
        <ele>1066</ele>
        <time>2022-08-29T11:10:26Z</time>
      </trkpt>
      <trkpt lat="45.9362" lon="3.72483">
        <ele>1065.9</ele>
        <time>2022-08-29T11:10:27Z</time>
      </trkpt>
      <trkpt lat="45.9362" lon="3.72481">
        <ele>1065.7</ele>
        <time>2022-08-29T11:10:28Z</time>
      </trkpt>
      <trkpt lat="45.93621" lon="3.72479">
        <ele>1065.6</ele>
        <time>2022-08-29T11:10:29Z</time>
      </trkpt>
      <trkpt lat="45.93622" lon="3.72478">
        <ele>1065.6</ele>
        <time>2022-08-29T11:10:30Z</time>
      </trkpt>
      <trkpt lat="45.93623" lon="3.72477">
        <ele>1065.5</ele>
        <time>2022-08-29T11:10:31Z</time>
      </trkpt>
      <trkpt lat="45.93624" lon="3.72476">
        <ele>1065.4</ele>
        <time>2022-08-29T11:10:32Z</time>
      </trkpt>
      <trkpt lat="45.93625" lon="3.72476">
        <ele>1065.3</ele>
        <time>2022-08-29T11:10:33Z</time>
      </trkpt>
      <trkpt lat="45.93626" lon="3.72475">
        <ele>1065.2</ele>
        <time>2022-08-29T11:10:34Z</time>
      </trkpt>
      <trkpt lat="45.93628" lon="3.72473">
        <ele>1065.1</ele>
        <time>2022-08-29T11:10:35Z</time>
      </trkpt>
      <trkpt lat="45.93629" lon="3.72472">
        <ele>1065</ele>
        <time>2022-08-29T11:10:36Z</time>
      </trkpt>
      <trkpt lat="45.93631" lon="3.72469">
        <ele>1064.8</ele>
        <time>2022-08-29T11:10:37Z</time>
      </trkpt>
      <trkpt lat="45.93632" lon="3.72467">
        <ele>1064.7</ele>
        <time>2022-08-29T11:10:38Z</time>
      </trkpt>
      <trkpt lat="45.93634" lon="3.72464">
        <ele>1064.5</ele>
        <time>2022-08-29T11:10:39Z</time>
      </trkpt>
      <trkpt lat="45.93634" lon="3.72463">
        <ele>1064.4</ele>
        <time>2022-08-29T11:10:40Z</time>
      </trkpt>
      <trkpt lat="45.93634" lon="3.7246">
        <ele>1064.3</ele>
        <time>2022-08-29T11:10:41Z</time>
      </trkpt>
      <trkpt lat="45.93635" lon="3.72458">
        <ele>1064.2</ele>
        <time>2022-08-29T11:10:42Z</time>
      </trkpt>
      <trkpt lat="45.93634" lon="3.72455">
        <ele>1064.1</ele>
        <time>2022-08-29T11:10:43Z</time>
      </trkpt>
      <trkpt lat="45.93634" lon="3.72453">
        <ele>1064</ele>
        <time>2022-08-29T11:10:44Z</time>
      </trkpt>
      <trkpt lat="45.93634" lon="3.72451">
        <ele>1063.9</ele>
        <time>2022-08-29T11:10:45Z</time>
      </trkpt>
      <trkpt lat="45.93634" lon="3.72448">
        <ele>1063.8</ele>
        <time>2022-08-29T11:10:46Z</time>
      </trkpt>
      <trkpt lat="45.93634" lon="3.72446">
        <ele>1063.7</ele>
        <time>2022-08-29T11:10:47Z</time>
      </trkpt>
      <trkpt lat="45.93634" lon="3.72444">
        <ele>1063.6</ele>
        <time>2022-08-29T11:10:48Z</time>
      </trkpt>
      <trkpt lat="45.93634" lon="3.72442">
        <ele>1063.5</ele>
        <time>2022-08-29T11:10:49Z</time>
      </trkpt>
      <trkpt lat="45.93635" lon="3.7244">
        <ele>1063.4</ele>
        <time>2022-08-29T11:10:50Z</time>
      </trkpt>
      <trkpt lat="45.93635" lon="3.72438">
        <ele>1063.3</ele>
        <time>2022-08-29T11:10:51Z</time>
      </trkpt>
      <trkpt lat="45.93635" lon="3.72436">
        <ele>1063.2</ele>
        <time>2022-08-29T11:10:52Z</time>
      </trkpt>
      <trkpt lat="45.93635" lon="3.72435">
        <ele>1063.1</ele>
        <time>2022-08-29T11:10:53Z</time>
      </trkpt>
      <trkpt lat="45.93635" lon="3.72432">
        <ele>1063</ele>
        <time>2022-08-29T11:10:54Z</time>
      </trkpt>
      <trkpt lat="45.93636" lon="3.72431">
        <ele>1063</ele>
        <time>2022-08-29T11:10:55Z</time>
      </trkpt>
      <trkpt lat="45.93636" lon="3.72429">
        <ele>1062.9</ele>
        <time>2022-08-29T11:10:56Z</time>
      </trkpt>
      <trkpt lat="45.93637" lon="3.72426">
        <ele>1062.8</ele>
        <time>2022-08-29T11:10:57Z</time>
      </trkpt>
      <trkpt lat="45.93637" lon="3.72425">
        <ele>1062.7</ele>
        <time>2022-08-29T11:10:58Z</time>
      </trkpt>
      <trkpt lat="45.93638" lon="3.72424">
        <ele>1062.7</ele>
        <time>2022-08-29T11:10:59Z</time>
      </trkpt>
      <trkpt lat="45.93639" lon="3.72423">
        <ele>1062.6</ele>
        <time>2022-08-29T11:11:00Z</time>
      </trkpt>
      <trkpt lat="45.93639" lon="3.72422">
        <ele>1062.5</ele>
        <time>2022-08-29T11:11:01Z</time>
      </trkpt>
      <trkpt lat="45.9364" lon="3.72422">
        <ele>1062.5</ele>
        <time>2022-08-29T11:11:02Z</time>
      </trkpt>
      <trkpt lat="45.9364" lon="3.72421">
        <ele>1062.4</ele>
        <time>2022-08-29T11:11:03Z</time>
      </trkpt>
      <trkpt lat="45.93641" lon="3.72421">
        <ele>1062.4</ele>
        <time>2022-08-29T11:11:04Z</time>
      </trkpt>
      <trkpt lat="45.93641" lon="3.7242">
        <ele>1062.4</ele>
        <time>2022-08-29T11:11:05Z</time>
      </trkpt>
      <trkpt lat="45.93641" lon="3.72419">
        <ele>1062.3</ele>
        <time>2022-08-29T11:11:06Z</time>
      </trkpt>
      <trkpt lat="45.93641" lon="3.72417">
        <ele>1062.2</ele>
        <time>2022-08-29T11:11:07Z</time>
      </trkpt>
      <trkpt lat="45.93641" lon="3.72414">
        <ele>1062.2</ele>
        <time>2022-08-29T11:11:08Z</time>
      </trkpt>
      <trkpt lat="45.93642" lon="3.72412">
        <ele>1062</ele>
        <time>2022-08-29T11:11:09Z</time>
      </trkpt>
      <trkpt lat="45.93642" lon="3.7241">
        <ele>1061.9</ele>
        <time>2022-08-29T11:11:10Z</time>
      </trkpt>
      <trkpt lat="45.93643" lon="3.72408">
        <ele>1061.9</ele>
        <time>2022-08-29T11:11:11Z</time>
      </trkpt>
      <trkpt lat="45.93646" lon="3.72404">
        <ele>1061.7</ele>
        <time>2022-08-29T11:11:12Z</time>
      </trkpt>
      <trkpt lat="45.93647" lon="3.72403">
        <ele>1061.6</ele>
        <time>2022-08-29T11:11:13Z</time>
      </trkpt>
      <trkpt lat="45.93649" lon="3.72399">
        <ele>1061.4</ele>
        <time>2022-08-29T11:11:14Z</time>
      </trkpt>
      <trkpt lat="45.93651" lon="3.72396">
        <ele>1061.3</ele>
        <time>2022-08-29T11:11:15Z</time>
      </trkpt>
      <trkpt lat="45.93653" lon="3.72392">
        <ele>1061.1</ele>
        <time>2022-08-29T11:11:16Z</time>
      </trkpt>
      <trkpt lat="45.93653" lon="3.72391">
        <ele>1061.1</ele>
        <time>2022-08-29T11:11:17Z</time>
      </trkpt>
      <trkpt lat="45.93654" lon="3.72389">
        <ele>1061</ele>
        <time>2022-08-29T11:11:18Z</time>
      </trkpt>
      <trkpt lat="45.93654" lon="3.72387">
        <ele>1060.9</ele>
        <time>2022-08-29T11:11:19Z</time>
      </trkpt>
      <trkpt lat="45.93655" lon="3.72386">
        <ele>1060.9</ele>
        <time>2022-08-29T11:11:20Z</time>
      </trkpt>
      <trkpt lat="45.93655" lon="3.72386">
        <ele>1060.8</ele>
        <time>2022-08-29T11:11:21Z</time>
      </trkpt>
      <trkpt lat="45.93655" lon="3.72385">
        <ele>1060.8</ele>
        <time>2022-08-29T11:11:22Z</time>
      </trkpt>
      <trkpt lat="45.93656" lon="3.72384">
        <ele>1060.8</ele>
        <time>2022-08-29T11:11:23Z</time>
      </trkpt>
      <trkpt lat="45.93655" lon="3.72382">
        <ele>1060.7</ele>
        <time>2022-08-29T11:11:24Z</time>
      </trkpt>
      <trkpt lat="45.93654" lon="3.72381">
        <ele>1060.7</ele>
        <time>2022-08-29T11:11:25Z</time>
      </trkpt>
      <trkpt lat="45.93653" lon="3.72379">
        <ele>1060.6</ele>
        <time>2022-08-29T11:11:26Z</time>
      </trkpt>
      <trkpt lat="45.93651" lon="3.72376">
        <ele>1060.5</ele>
        <time>2022-08-29T11:11:27Z</time>
      </trkpt>
      <trkpt lat="45.9365" lon="3.72375">
        <ele>1060.4</ele>
        <time>2022-08-29T11:11:28Z</time>
      </trkpt>
      <trkpt lat="45.93648" lon="3.72372">
        <ele>1060.3</ele>
        <time>2022-08-29T11:11:29Z</time>
      </trkpt>
      <trkpt lat="45.93646" lon="3.72367">
        <ele>1060.1</ele>
        <time>2022-08-29T11:11:30Z</time>
      </trkpt>
      <trkpt lat="45.93645" lon="3.72365">
        <ele>1060.1</ele>
        <time>2022-08-29T11:11:31Z</time>
      </trkpt>
      <trkpt lat="45.93644" lon="3.72362">
        <ele>1060</ele>
        <time>2022-08-29T11:11:32Z</time>
      </trkpt>
      <trkpt lat="45.93641" lon="3.72358">
        <ele>1059.8</ele>
        <time>2022-08-29T11:11:33Z</time>
      </trkpt>
      <trkpt lat="45.9364" lon="3.72356">
        <ele>1059.7</ele>
        <time>2022-08-29T11:11:34Z</time>
      </trkpt>
      <trkpt lat="45.93638" lon="3.72354">
        <ele>1059.6</ele>
        <time>2022-08-29T11:11:35Z</time>
      </trkpt>
      <trkpt lat="45.93637" lon="3.72353">
        <ele>1059.5</ele>
        <time>2022-08-29T11:11:36Z</time>
      </trkpt>
      <trkpt lat="45.93636" lon="3.72352">
        <ele>1059.5</ele>
        <time>2022-08-29T11:11:37Z</time>
      </trkpt>
      <trkpt lat="45.93636" lon="3.72351">
        <ele>1059.4</ele>
        <time>2022-08-29T11:11:38Z</time>
      </trkpt>
      <trkpt lat="45.93635" lon="3.7235">
        <ele>1059.4</ele>
        <time>2022-08-29T11:11:39Z</time>
      </trkpt>
      <trkpt lat="45.93635" lon="3.72349">
        <ele>1059.3</ele>
        <time>2022-08-29T11:11:40Z</time>
      </trkpt>
      <trkpt lat="45.93635" lon="3.72347">
        <ele>1059.3</ele>
        <time>2022-08-29T11:11:41Z</time>
      </trkpt>
      <trkpt lat="45.93635" lon="3.72345">
        <ele>1059.2</ele>
        <time>2022-08-29T11:11:42Z</time>
      </trkpt>
      <trkpt lat="45.93636" lon="3.72343">
        <ele>1059.2</ele>
        <time>2022-08-29T11:11:43Z</time>
      </trkpt>
      <trkpt lat="45.93636" lon="3.72341">
        <ele>1059.1</ele>
        <time>2022-08-29T11:11:44Z</time>
      </trkpt>
      <trkpt lat="45.93637" lon="3.72339">
        <ele>1059</ele>
        <time>2022-08-29T11:11:45Z</time>
      </trkpt>
      <trkpt lat="45.93637" lon="3.72336">
        <ele>1058.9</ele>
        <time>2022-08-29T11:11:46Z</time>
      </trkpt>
      <trkpt lat="45.93637" lon="3.72334">
        <ele>1058.8</ele>
        <time>2022-08-29T11:11:47Z</time>
      </trkpt>
      <trkpt lat="45.93638" lon="3.72332">
        <ele>1058.7</ele>
        <time>2022-08-29T11:11:48Z</time>
      </trkpt>
      <trkpt lat="45.93638" lon="3.7233">
        <ele>1058.7</ele>
        <time>2022-08-29T11:11:49Z</time>
      </trkpt>
      <trkpt lat="45.93638" lon="3.72329">
        <ele>1058.6</ele>
        <time>2022-08-29T11:11:50Z</time>
      </trkpt>
      <trkpt lat="45.93638" lon="3.72328">
        <ele>1058.6</ele>
        <time>2022-08-29T11:11:51Z</time>
      </trkpt>
      <trkpt lat="45.93638" lon="3.72328">
        <ele>1058.6</ele>
        <time>2022-08-29T11:11:52Z</time>
      </trkpt>
      <trkpt lat="45.93639" lon="3.72327">
        <ele>1058.6</ele>
        <time>2022-08-29T11:11:53Z</time>
      </trkpt>
      <trkpt lat="45.93639" lon="3.72327">
        <ele>1058.5</ele>
        <time>2022-08-29T11:11:54Z</time>
      </trkpt>
      <trkpt lat="45.9364" lon="3.72325">
        <ele>1058.5</ele>
        <time>2022-08-29T11:11:55Z</time>
      </trkpt>
      <trkpt lat="45.9364" lon="3.72323">
        <ele>1058.4</ele>
        <time>2022-08-29T11:11:56Z</time>
      </trkpt>
      <trkpt lat="45.93641" lon="3.72322">
        <ele>1058.3</ele>
        <time>2022-08-29T11:11:57Z</time>
      </trkpt>
      <trkpt lat="45.93642" lon="3.7232">
        <ele>1058.2</ele>
        <time>2022-08-29T11:11:58Z</time>
      </trkpt>
      <trkpt lat="45.93643" lon="3.72318">
        <ele>1058.1</ele>
        <time>2022-08-29T11:11:59Z</time>
      </trkpt>
      <trkpt lat="45.93644" lon="3.72316">
        <ele>1058</ele>
        <time>2022-08-29T11:12:00Z</time>
      </trkpt>
      <trkpt lat="45.93644" lon="3.72314">
        <ele>1058</ele>
        <time>2022-08-29T11:12:01Z</time>
      </trkpt>
      <trkpt lat="45.93644" lon="3.72311">
        <ele>1057.8</ele>
        <time>2022-08-29T11:12:02Z</time>
      </trkpt>
      <trkpt lat="45.93645" lon="3.72307">
        <ele>1057.7</ele>
        <time>2022-08-29T11:12:03Z</time>
      </trkpt>
      <trkpt lat="45.93645" lon="3.72306">
        <ele>1057.6</ele>
        <time>2022-08-29T11:12:04Z</time>
      </trkpt>
      <trkpt lat="45.93645" lon="3.72304">
        <ele>1057.5</ele>
        <time>2022-08-29T11:12:05Z</time>
      </trkpt>
      <trkpt lat="45.93644" lon="3.72303">
        <ele>1057.5</ele>
        <time>2022-08-29T11:12:06Z</time>
      </trkpt>
      <trkpt lat="45.93644" lon="3.72302">
        <ele>1057.4</ele>
        <time>2022-08-29T11:12:07Z</time>
      </trkpt>
      <trkpt lat="45.93644" lon="3.72301">
        <ele>1057.4</ele>
        <time>2022-08-29T11:12:08Z</time>
      </trkpt>
      <trkpt lat="45.93644" lon="3.723">
        <ele>1057.4</ele>
        <time>2022-08-29T11:12:09Z</time>
      </trkpt>
      <trkpt lat="45.93645" lon="3.72298">
        <ele>1057.3</ele>
        <time>2022-08-29T11:12:10Z</time>
      </trkpt>
      <trkpt lat="45.93645" lon="3.72297">
        <ele>1057.2</ele>
        <time>2022-08-29T11:12:11Z</time>
      </trkpt>
      <trkpt lat="45.93645" lon="3.72295">
        <ele>1057.1</ele>
        <time>2022-08-29T11:12:12Z</time>
      </trkpt>
      <trkpt lat="45.93645" lon="3.72293">
        <ele>1057.1</ele>
        <time>2022-08-29T11:12:13Z</time>
      </trkpt>
      <trkpt lat="45.93645" lon="3.7229">
        <ele>1057</ele>
        <time>2022-08-29T11:12:14Z</time>
      </trkpt>
      <trkpt lat="45.93645" lon="3.72288">
        <ele>1056.9</ele>
        <time>2022-08-29T11:12:15Z</time>
      </trkpt>
      <trkpt lat="45.93645" lon="3.72286">
        <ele>1056.8</ele>
        <time>2022-08-29T11:12:16Z</time>
      </trkpt>
      <trkpt lat="45.93645" lon="3.72284">
        <ele>1056.7</ele>
        <time>2022-08-29T11:12:17Z</time>
      </trkpt>
      <trkpt lat="45.93646" lon="3.72279">
        <ele>1056.5</ele>
        <time>2022-08-29T11:12:18Z</time>
      </trkpt>
      <trkpt lat="45.93646" lon="3.72277">
        <ele>1056.4</ele>
        <time>2022-08-29T11:12:19Z</time>
      </trkpt>
      <trkpt lat="45.93646" lon="3.72272">
        <ele>1056.2</ele>
        <time>2022-08-29T11:12:20Z</time>
      </trkpt>
      <trkpt lat="45.93646" lon="3.72271">
        <ele>1056.2</ele>
        <time>2022-08-29T11:12:21Z</time>
      </trkpt>
      <trkpt lat="45.93646" lon="3.72268">
        <ele>1056.1</ele>
        <time>2022-08-29T11:12:22Z</time>
      </trkpt>
      <trkpt lat="45.93646" lon="3.72266">
        <ele>1056</ele>
        <time>2022-08-29T11:12:23Z</time>
      </trkpt>
      <trkpt lat="45.93646" lon="3.72264">
        <ele>1056</ele>
        <time>2022-08-29T11:12:24Z</time>
      </trkpt>
      <trkpt lat="45.93646" lon="3.72263">
        <ele>1055.9</ele>
        <time>2022-08-29T11:12:25Z</time>
      </trkpt>
      <trkpt lat="45.93646" lon="3.72262">
        <ele>1055.9</ele>
        <time>2022-08-29T11:12:26Z</time>
      </trkpt>
      <trkpt lat="45.93647" lon="3.72261">
        <ele>1055.8</ele>
        <time>2022-08-29T11:12:27Z</time>
      </trkpt>
      <trkpt lat="45.93647" lon="3.72259">
        <ele>1055.8</ele>
        <time>2022-08-29T11:12:28Z</time>
      </trkpt>
      <trkpt lat="45.93648" lon="3.72258">
        <ele>1055.7</ele>
        <time>2022-08-29T11:12:29Z</time>
      </trkpt>
      <trkpt lat="45.93648" lon="3.72256">
        <ele>1055.7</ele>
        <time>2022-08-29T11:12:30Z</time>
      </trkpt>
      <trkpt lat="45.93649" lon="3.72254">
        <ele>1055.6</ele>
        <time>2022-08-29T11:12:31Z</time>
      </trkpt>
      <trkpt lat="45.93651" lon="3.72251">
        <ele>1055.5</ele>
        <time>2022-08-29T11:12:32Z</time>
      </trkpt>
      <trkpt lat="45.93651" lon="3.72249">
        <ele>1055.5</ele>
        <time>2022-08-29T11:12:33Z</time>
      </trkpt>
      <trkpt lat="45.93652" lon="3.72245">
        <ele>1055.4</ele>
        <time>2022-08-29T11:12:34Z</time>
      </trkpt>
      <trkpt lat="45.93652" lon="3.72244">
        <ele>1055.3</ele>
        <time>2022-08-29T11:12:35Z</time>
      </trkpt>
      <trkpt lat="45.93652" lon="3.72242">
        <ele>1055.3</ele>
        <time>2022-08-29T11:12:36Z</time>
      </trkpt>
      <trkpt lat="45.93651" lon="3.72241">
        <ele>1055.2</ele>
        <time>2022-08-29T11:12:37Z</time>
      </trkpt>
      <trkpt lat="45.93651" lon="3.72241">
        <ele>1055.2</ele>
        <time>2022-08-29T11:12:38Z</time>
      </trkpt>
      <trkpt lat="45.93651" lon="3.7224">
        <ele>1055.2</ele>
        <time>2022-08-29T11:12:39Z</time>
      </trkpt>
      <trkpt lat="45.9365" lon="3.7224">
        <ele>1055.2</ele>
        <time>2022-08-29T11:12:40Z</time>
      </trkpt>
      <trkpt lat="45.9365" lon="3.7224">
        <ele>1055.2</ele>
        <time>2022-08-29T11:12:41Z</time>
      </trkpt>
      <trkpt lat="45.9365" lon="3.7224">
        <ele>1055.2</ele>
        <time>2022-08-29T11:12:42Z</time>
      </trkpt>
      <trkpt lat="45.93649" lon="3.7224">
        <ele>1055.2</ele>
        <time>2022-08-29T11:12:43Z</time>
      </trkpt>
      <trkpt lat="45.93649" lon="3.72241">
        <ele>1055.2</ele>
        <time>2022-08-29T11:12:44Z</time>
      </trkpt>
      <trkpt lat="45.93649" lon="3.72242">
        <ele>1055.1</ele>
        <time>2022-08-29T11:12:45Z</time>
      </trkpt>
      <trkpt lat="45.93649" lon="3.72242">
        <ele>1055.1</ele>
        <time>2022-08-29T11:12:46Z</time>
      </trkpt>
      <trkpt lat="45.93649" lon="3.72243">
        <ele>1055.1</ele>
        <time>2022-08-29T11:12:47Z</time>
      </trkpt>
      <trkpt lat="45.93649" lon="3.72243">
        <ele>1055.1</ele>
        <time>2022-08-29T11:12:48Z</time>
      </trkpt>
      <trkpt lat="45.9365" lon="3.72243">
        <ele>1055.1</ele>
        <time>2022-08-29T11:12:49Z</time>
      </trkpt>
      <trkpt lat="45.9365" lon="3.72244">
        <ele>1055.1</ele>
        <time>2022-08-29T11:12:50Z</time>
      </trkpt>
      <trkpt lat="45.9365" lon="3.72243">
        <ele>1055.1</ele>
        <time>2022-08-29T11:12:51Z</time>
      </trkpt>
      <trkpt lat="45.9365" lon="3.72242">
        <ele>1055.1</ele>
        <time>2022-08-29T11:12:52Z</time>
      </trkpt>
      <trkpt lat="45.9365" lon="3.72242">
        <ele>1055</ele>
        <time>2022-08-29T11:12:53Z</time>
      </trkpt>
      <trkpt lat="45.9365" lon="3.72241">
        <ele>1055</ele>
        <time>2022-08-29T11:12:54Z</time>
      </trkpt>
      <trkpt lat="45.9365" lon="3.7224">
        <ele>1055</ele>
        <time>2022-08-29T11:12:55Z</time>
      </trkpt>
      <trkpt lat="45.9365" lon="3.72239">
        <ele>1055</ele>
        <time>2022-08-29T11:12:56Z</time>
      </trkpt>
      <trkpt lat="45.9365" lon="3.72239">
        <ele>1055</ele>
        <time>2022-08-29T11:12:57Z</time>
      </trkpt>
      <trkpt lat="45.9365" lon="3.72238">
        <ele>1055</ele>
        <time>2022-08-29T11:12:58Z</time>
      </trkpt>
      <trkpt lat="45.9365" lon="3.72237">
        <ele>1054.9</ele>
        <time>2022-08-29T11:12:59Z</time>
      </trkpt>
      <trkpt lat="45.9365" lon="3.72237">
        <ele>1054.9</ele>
        <time>2022-08-29T11:13:00Z</time>
      </trkpt>
      <trkpt lat="45.93651" lon="3.72232">
        <ele>1054.8</ele>
        <time>2022-08-29T11:13:01Z</time>
      </trkpt>
      <trkpt lat="45.93652" lon="3.72231">
        <ele>1054.8</ele>
        <time>2022-08-29T11:13:02Z</time>
      </trkpt>
      <trkpt lat="45.93653" lon="3.7223">
        <ele>1054.7</ele>
        <time>2022-08-29T11:13:03Z</time>
      </trkpt>
      <trkpt lat="45.93653" lon="3.72228">
        <ele>1054.7</ele>
        <time>2022-08-29T11:13:04Z</time>
      </trkpt>
      <trkpt lat="45.93652" lon="3.72226">
        <ele>1054.7</ele>
        <time>2022-08-29T11:13:05Z</time>
      </trkpt>
      <trkpt lat="45.93651" lon="3.72225">
        <ele>1054.6</ele>
        <time>2022-08-29T11:13:06Z</time>
      </trkpt>
      <trkpt lat="45.9365" lon="3.72223">
        <ele>1054.5</ele>
        <time>2022-08-29T11:13:07Z</time>
      </trkpt>
      <trkpt lat="45.93649" lon="3.72221">
        <ele>1054.5</ele>
        <time>2022-08-29T11:13:08Z</time>
      </trkpt>
      <trkpt lat="45.93648" lon="3.7222">
        <ele>1054.4</ele>
        <time>2022-08-29T11:13:09Z</time>
      </trkpt>
      <trkpt lat="45.93648" lon="3.72218">
        <ele>1054.4</ele>
        <time>2022-08-29T11:13:10Z</time>
      </trkpt>
      <trkpt lat="45.93647" lon="3.72215">
        <ele>1054.3</ele>
        <time>2022-08-29T11:13:11Z</time>
      </trkpt>
      <trkpt lat="45.93647" lon="3.72213">
        <ele>1054.2</ele>
        <time>2022-08-29T11:13:12Z</time>
      </trkpt>
      <trkpt lat="45.93646" lon="3.72212">
        <ele>1054.2</ele>
        <time>2022-08-29T11:13:13Z</time>
      </trkpt>
      <trkpt lat="45.93646" lon="3.7221">
        <ele>1054.1</ele>
        <time>2022-08-29T11:13:14Z</time>
      </trkpt>
      <trkpt lat="45.93646" lon="3.72208">
        <ele>1054.1</ele>
        <time>2022-08-29T11:13:15Z</time>
      </trkpt>
      <trkpt lat="45.93646" lon="3.72206">
        <ele>1054</ele>
        <time>2022-08-29T11:13:16Z</time>
      </trkpt>
      <trkpt lat="45.93646" lon="3.72204">
        <ele>1054</ele>
        <time>2022-08-29T11:13:17Z</time>
      </trkpt>
      <trkpt lat="45.93647" lon="3.722">
        <ele>1053.9</ele>
        <time>2022-08-29T11:13:18Z</time>
      </trkpt>
      <trkpt lat="45.93647" lon="3.72198">
        <ele>1053.8</ele>
        <time>2022-08-29T11:13:19Z</time>
      </trkpt>
      <trkpt lat="45.93647" lon="3.72196">
        <ele>1053.8</ele>
        <time>2022-08-29T11:13:20Z</time>
      </trkpt>
      <trkpt lat="45.93648" lon="3.72195">
        <ele>1053.7</ele>
        <time>2022-08-29T11:13:21Z</time>
      </trkpt>
      <trkpt lat="45.93648" lon="3.72193">
        <ele>1053.7</ele>
        <time>2022-08-29T11:13:22Z</time>
      </trkpt>
      <trkpt lat="45.93649" lon="3.72191">
        <ele>1053.6</ele>
        <time>2022-08-29T11:13:23Z</time>
      </trkpt>
      <trkpt lat="45.9365" lon="3.72188">
        <ele>1053.6</ele>
        <time>2022-08-29T11:13:24Z</time>
      </trkpt>
      <trkpt lat="45.9365" lon="3.72186">
        <ele>1053.5</ele>
        <time>2022-08-29T11:13:25Z</time>
      </trkpt>
      <trkpt lat="45.9365" lon="3.72184">
        <ele>1053.5</ele>
        <time>2022-08-29T11:13:26Z</time>
      </trkpt>
      <trkpt lat="45.9365" lon="3.72181">
        <ele>1053.5</ele>
        <time>2022-08-29T11:13:27Z</time>
      </trkpt>
      <trkpt lat="45.93651" lon="3.72179">
        <ele>1053.4</ele>
        <time>2022-08-29T11:13:28Z</time>
      </trkpt>
      <trkpt lat="45.93651" lon="3.72176">
        <ele>1053.4</ele>
        <time>2022-08-29T11:13:29Z</time>
      </trkpt>
      <trkpt lat="45.93651" lon="3.72173">
        <ele>1053.3</ele>
        <time>2022-08-29T11:13:30Z</time>
      </trkpt>
      <trkpt lat="45.93651" lon="3.72172">
        <ele>1053.3</ele>
        <time>2022-08-29T11:13:31Z</time>
      </trkpt>
      <trkpt lat="45.93651" lon="3.72171">
        <ele>1053.3</ele>
        <time>2022-08-29T11:13:32Z</time>
      </trkpt>
      <trkpt lat="45.93651" lon="3.72168">
        <ele>1053.2</ele>
        <time>2022-08-29T11:13:33Z</time>
      </trkpt>
      <trkpt lat="45.93651" lon="3.72167">
        <ele>1053.2</ele>
        <time>2022-08-29T11:13:34Z</time>
      </trkpt>
      <trkpt lat="45.93651" lon="3.72166">
        <ele>1053.2</ele>
        <time>2022-08-29T11:13:35Z</time>
      </trkpt>
      <trkpt lat="45.93652" lon="3.72164">
        <ele>1053.2</ele>
        <time>2022-08-29T11:13:36Z</time>
      </trkpt>
      <trkpt lat="45.93652" lon="3.72162">
        <ele>1053.2</ele>
        <time>2022-08-29T11:13:37Z</time>
      </trkpt>
      <trkpt lat="45.93652" lon="3.72161">
        <ele>1053.1</ele>
        <time>2022-08-29T11:13:38Z</time>
      </trkpt>
      <trkpt lat="45.93652" lon="3.72159">
        <ele>1053.1</ele>
        <time>2022-08-29T11:13:39Z</time>
      </trkpt>
      <trkpt lat="45.93653" lon="3.72158">
        <ele>1053.1</ele>
        <time>2022-08-29T11:13:40Z</time>
      </trkpt>
      <trkpt lat="45.93653" lon="3.72157">
        <ele>1053.1</ele>
        <time>2022-08-29T11:13:41Z</time>
      </trkpt>
      <trkpt lat="45.93654" lon="3.72156">
        <ele>1053.1</ele>
        <time>2022-08-29T11:13:42Z</time>
      </trkpt>
      <trkpt lat="45.93655" lon="3.72156">
        <ele>1053.1</ele>
        <time>2022-08-29T11:13:43Z</time>
      </trkpt>
      <trkpt lat="45.93655" lon="3.72156">
        <ele>1053.1</ele>
        <time>2022-08-29T11:13:44Z</time>
      </trkpt>
      <trkpt lat="45.93656" lon="3.72157">
        <ele>1053.1</ele>
        <time>2022-08-29T11:13:45Z</time>
      </trkpt>
      <trkpt lat="45.93657" lon="3.72158">
        <ele>1053.1</ele>
        <time>2022-08-29T11:13:46Z</time>
      </trkpt>
      <trkpt lat="45.93657" lon="3.72158">
        <ele>1053.1</ele>
        <time>2022-08-29T11:13:47Z</time>
      </trkpt>
      <trkpt lat="45.93658" lon="3.7216">
        <ele>1053.1</ele>
        <time>2022-08-29T11:13:48Z</time>
      </trkpt>
      <trkpt lat="45.93658" lon="3.7216">
        <ele>1053.1</ele>
        <time>2022-08-29T11:13:49Z</time>
      </trkpt>
      <trkpt lat="45.93658" lon="3.7216">
        <ele>1053.1</ele>
        <time>2022-08-29T11:13:50Z</time>
      </trkpt>
      <trkpt lat="45.93658" lon="3.7216">
        <ele>1053.1</ele>
        <time>2022-08-29T11:13:51Z</time>
      </trkpt>
      <trkpt lat="45.93658" lon="3.7216">
        <ele>1053.1</ele>
        <time>2022-08-29T11:13:52Z</time>
      </trkpt>
      <trkpt lat="45.93658" lon="3.7216">
        <ele>1053.1</ele>
        <time>2022-08-29T11:13:53Z</time>
      </trkpt>
      <trkpt lat="45.93658" lon="3.7216">
        <ele>1053.1</ele>
        <time>2022-08-29T11:13:54Z</time>
      </trkpt>
      <trkpt lat="45.93658" lon="3.7216">
        <ele>1053.1</ele>
        <time>2022-08-29T11:13:55Z</time>
      </trkpt>
      <trkpt lat="45.93657" lon="3.7216">
        <ele>1053.1</ele>
        <time>2022-08-29T11:13:56Z</time>
      </trkpt>
      <trkpt lat="45.93657" lon="3.72159">
        <ele>1053.1</ele>
        <time>2022-08-29T11:13:57Z</time>
      </trkpt>
      <trkpt lat="45.93657" lon="3.72159">
        <ele>1053.1</ele>
        <time>2022-08-29T11:13:58Z</time>
      </trkpt>
      <trkpt lat="45.93657" lon="3.72159">
        <ele>1053.1</ele>
        <time>2022-08-29T11:13:59Z</time>
      </trkpt>
      <trkpt lat="45.93657" lon="3.72159">
        <ele>1053.1</ele>
        <time>2022-08-29T11:14:00Z</time>
      </trkpt>
      <trkpt lat="45.93657" lon="3.7216">
        <ele>1053.1</ele>
        <time>2022-08-29T11:14:01Z</time>
      </trkpt>
      <trkpt lat="45.93657" lon="3.7216">
        <ele>1053.1</ele>
        <time>2022-08-29T11:14:02Z</time>
      </trkpt>
      <trkpt lat="45.93657" lon="3.7216">
        <ele>1053.1</ele>
        <time>2022-08-29T11:14:03Z</time>
      </trkpt>
      <trkpt lat="45.93657" lon="3.7216">
        <ele>1053.1</ele>
        <time>2022-08-29T11:14:04Z</time>
      </trkpt>
      <trkpt lat="45.93657" lon="3.7216">
        <ele>1053.1</ele>
        <time>2022-08-29T11:14:05Z</time>
      </trkpt>
      <trkpt lat="45.93657" lon="3.7216">
        <ele>1053.1</ele>
        <time>2022-08-29T11:14:06Z</time>
      </trkpt>
      <trkpt lat="45.93656" lon="3.7216">
        <ele>1053.1</ele>
        <time>2022-08-29T11:14:07Z</time>
      </trkpt>
      <trkpt lat="45.93656" lon="3.72161">
        <ele>1053.1</ele>
        <time>2022-08-29T11:14:08Z</time>
      </trkpt>
      <trkpt lat="45.93656" lon="3.72161">
        <ele>1053.1</ele>
        <time>2022-08-29T11:14:09Z</time>
      </trkpt>
      <trkpt lat="45.93656" lon="3.72161">
        <ele>1053.1</ele>
        <time>2022-08-29T11:14:10Z</time>
      </trkpt>
      <trkpt lat="45.93656" lon="3.72161">
        <ele>1053.1</ele>
        <time>2022-08-29T11:14:11Z</time>
      </trkpt>
      <trkpt lat="45.93656" lon="3.72161">
        <ele>1053.1</ele>
        <time>2022-08-29T11:14:12Z</time>
      </trkpt>
      <trkpt lat="45.93656" lon="3.72161">
        <ele>1053.1</ele>
        <time>2022-08-29T11:14:13Z</time>
      </trkpt>
      <trkpt lat="45.93656" lon="3.72161">
        <ele>1053.1</ele>
        <time>2022-08-29T11:14:14Z</time>
      </trkpt>
      <trkpt lat="45.93656" lon="3.72161">
        <ele>1053.1</ele>
        <time>2022-08-29T11:14:15Z</time>
      </trkpt>
      <trkpt lat="45.93656" lon="3.72161">
        <ele>1053.1</ele>
        <time>2022-08-29T11:14:16Z</time>
      </trkpt>
      <trkpt lat="45.93656" lon="3.72161">
        <ele>1053.1</ele>
        <time>2022-08-29T11:14:17Z</time>
      </trkpt>
      <trkpt lat="45.93656" lon="3.72161">
        <ele>1053.1</ele>
        <time>2022-08-29T11:14:18Z</time>
      </trkpt>
      <trkpt lat="45.93656" lon="3.72161">
        <ele>1053.1</ele>
        <time>2022-08-29T11:14:19Z</time>
      </trkpt>
      <trkpt lat="45.93656" lon="3.72161">
        <ele>1053.1</ele>
        <time>2022-08-29T11:14:20Z</time>
      </trkpt>
      <trkpt lat="45.93656" lon="3.72161">
        <ele>1053.1</ele>
        <time>2022-08-29T11:14:21Z</time>
      </trkpt>
      <trkpt lat="45.93656" lon="3.72161">
        <ele>1053.1</ele>
        <time>2022-08-29T11:14:22Z</time>
      </trkpt>
      <trkpt lat="45.93656" lon="3.72161">
        <ele>1053.1</ele>
        <time>2022-08-29T11:14:23Z</time>
      </trkpt>
      <trkpt lat="45.93656" lon="3.72161">
        <ele>1053.1</ele>
        <time>2022-08-29T11:14:24Z</time>
      </trkpt>
      <trkpt lat="45.93656" lon="3.72161">
        <ele>1053.1</ele>
        <time>2022-08-29T11:14:25Z</time>
      </trkpt>
      <trkpt lat="45.93656" lon="3.72161">
        <ele>1053.1</ele>
        <time>2022-08-29T11:14:26Z</time>
      </trkpt>
      <trkpt lat="45.93656" lon="3.72161">
        <ele>1053.1</ele>
        <time>2022-08-29T11:14:27Z</time>
      </trkpt>
      <trkpt lat="45.93656" lon="3.72161">
        <ele>1053.1</ele>
        <time>2022-08-29T11:14:28Z</time>
      </trkpt>
      <trkpt lat="45.93656" lon="3.72161">
        <ele>1053.1</ele>
        <time>2022-08-29T11:14:29Z</time>
      </trkpt>
      <trkpt lat="45.93656" lon="3.72161">
        <ele>1053.1</ele>
        <time>2022-08-29T11:14:30Z</time>
      </trkpt>
      <trkpt lat="45.93656" lon="3.72161">
        <ele>1053.1</ele>
        <time>2022-08-29T11:14:31Z</time>
      </trkpt>
      <trkpt lat="45.93656" lon="3.72161">
        <ele>1053.1</ele>
        <time>2022-08-29T11:14:32Z</time>
      </trkpt>
      <trkpt lat="45.93656" lon="3.72161">
        <ele>1053.1</ele>
        <time>2022-08-29T11:14:33Z</time>
      </trkpt>
      <trkpt lat="45.93656" lon="3.72161">
        <ele>1053.1</ele>
        <time>2022-08-29T11:14:34Z</time>
      </trkpt>
      <trkpt lat="45.93656" lon="3.72161">
        <ele>1053.1</ele>
        <time>2022-08-29T11:14:35Z</time>
      </trkpt>
      <trkpt lat="45.93656" lon="3.72161">
        <ele>1053.1</ele>
        <time>2022-08-29T11:14:36Z</time>
      </trkpt>
      <trkpt lat="45.93656" lon="3.72161">
        <ele>1053.1</ele>
        <time>2022-08-29T11:14:37Z</time>
      </trkpt>
      <trkpt lat="45.93656" lon="3.72161">
        <ele>1053.1</ele>
        <time>2022-08-29T11:14:38Z</time>
      </trkpt>
      <trkpt lat="45.93656" lon="3.72161">
        <ele>1053.1</ele>
        <time>2022-08-29T11:14:39Z</time>
      </trkpt>
      <trkpt lat="45.93657" lon="3.7216">
        <ele>1053.1</ele>
        <time>2022-08-29T11:14:40Z</time>
      </trkpt>
      <trkpt lat="45.93658" lon="3.7216">
        <ele>1053.1</ele>
        <time>2022-08-29T11:14:41Z</time>
      </trkpt>
      <trkpt lat="45.93658" lon="3.72159">
        <ele>1053.1</ele>
        <time>2022-08-29T11:14:42Z</time>
      </trkpt>
      <trkpt lat="45.93659" lon="3.72158">
        <ele>1053.1</ele>
        <time>2022-08-29T11:14:43Z</time>
      </trkpt>
      <trkpt lat="45.93659" lon="3.72158">
        <ele>1053.1</ele>
        <time>2022-08-29T11:14:44Z</time>
      </trkpt>
      <trkpt lat="45.9366" lon="3.72158">
        <ele>1053.1</ele>
        <time>2022-08-29T11:14:45Z</time>
      </trkpt>
      <trkpt lat="45.9366" lon="3.72158">
        <ele>1053.1</ele>
        <time>2022-08-29T11:14:46Z</time>
      </trkpt>
      <trkpt lat="45.9366" lon="3.72158">
        <ele>1053.1</ele>
        <time>2022-08-29T11:14:47Z</time>
      </trkpt>
      <trkpt lat="45.9366" lon="3.72158">
        <ele>1053.1</ele>
        <time>2022-08-29T11:14:48Z</time>
      </trkpt>
      <trkpt lat="45.9366" lon="3.72158">
        <ele>1053.1</ele>
        <time>2022-08-29T11:14:49Z</time>
      </trkpt>
      <trkpt lat="45.9366" lon="3.72158">
        <ele>1053.1</ele>
        <time>2022-08-29T11:14:50Z</time>
      </trkpt>
      <trkpt lat="45.9366" lon="3.72159">
        <ele>1053.1</ele>
        <time>2022-08-29T11:14:51Z</time>
      </trkpt>
      <trkpt lat="45.9366" lon="3.72159">
        <ele>1053.1</ele>
        <time>2022-08-29T11:14:52Z</time>
      </trkpt>
      <trkpt lat="45.9366" lon="3.72159">
        <ele>1053.1</ele>
        <time>2022-08-29T11:14:53Z</time>
      </trkpt>
      <trkpt lat="45.9366" lon="3.72159">
        <ele>1053.1</ele>
        <time>2022-08-29T11:14:54Z</time>
      </trkpt>
      <trkpt lat="45.9366" lon="3.72159">
        <ele>1053.1</ele>
        <time>2022-08-29T11:14:55Z</time>
      </trkpt>
      <trkpt lat="45.9366" lon="3.72159">
        <ele>1053.1</ele>
        <time>2022-08-29T11:14:56Z</time>
      </trkpt>
      <trkpt lat="45.93659" lon="3.72159">
        <ele>1053.1</ele>
        <time>2022-08-29T11:14:57Z</time>
      </trkpt>
      <trkpt lat="45.93659" lon="3.7216">
        <ele>1053.1</ele>
        <time>2022-08-29T11:14:58Z</time>
      </trkpt>
      <trkpt lat="45.93659" lon="3.7216">
        <ele>1053.1</ele>
        <time>2022-08-29T11:14:59Z</time>
      </trkpt>
      <trkpt lat="45.93659" lon="3.7216">
        <ele>1053.1</ele>
        <time>2022-08-29T11:15:00Z</time>
      </trkpt>
      <trkpt lat="45.93659" lon="3.7216">
        <ele>1053.1</ele>
        <time>2022-08-29T11:15:01Z</time>
      </trkpt>
      <trkpt lat="45.93659" lon="3.7216">
        <ele>1053.1</ele>
        <time>2022-08-29T11:15:02Z</time>
      </trkpt>
      <trkpt lat="45.93659" lon="3.7216">
        <ele>1053.1</ele>
        <time>2022-08-29T11:15:03Z</time>
      </trkpt>
      <trkpt lat="45.93659" lon="3.7216">
        <ele>1053.1</ele>
        <time>2022-08-29T11:15:04Z</time>
      </trkpt>
      <trkpt lat="45.93659" lon="3.7216">
        <ele>1053.1</ele>
        <time>2022-08-29T11:15:05Z</time>
      </trkpt>
      <trkpt lat="45.93659" lon="3.7216">
        <ele>1053.1</ele>
        <time>2022-08-29T11:15:06Z</time>
      </trkpt>
      <trkpt lat="45.93659" lon="3.7216">
        <ele>1053.1</ele>
        <time>2022-08-29T11:15:07Z</time>
      </trkpt>
      <trkpt lat="45.93659" lon="3.7216">
        <ele>1053.1</ele>
        <time>2022-08-29T11:15:08Z</time>
      </trkpt>
      <trkpt lat="45.93659" lon="3.7216">
        <ele>1053.1</ele>
        <time>2022-08-29T11:15:09Z</time>
      </trkpt>
      <trkpt lat="45.93659" lon="3.7216">
        <ele>1053.1</ele>
        <time>2022-08-29T11:15:10Z</time>
      </trkpt>
      <trkpt lat="45.93659" lon="3.7216">
        <ele>1053.1</ele>
        <time>2022-08-29T11:15:11Z</time>
      </trkpt>
      <trkpt lat="45.93659" lon="3.72161">
        <ele>1053.1</ele>
        <time>2022-08-29T11:15:12Z</time>
      </trkpt>
      <trkpt lat="45.93659" lon="3.72161">
        <ele>1053.1</ele>
        <time>2022-08-29T11:15:13Z</time>
      </trkpt>
      <trkpt lat="45.93659" lon="3.72161">
        <ele>1053.1</ele>
        <time>2022-08-29T11:15:14Z</time>
      </trkpt>
      <trkpt lat="45.93659" lon="3.72161">
        <ele>1053.1</ele>
        <time>2022-08-29T11:15:15Z</time>
      </trkpt>
      <trkpt lat="45.93659" lon="3.72161">
        <ele>1053.1</ele>
        <time>2022-08-29T11:15:16Z</time>
      </trkpt>
      <trkpt lat="45.93659" lon="3.72161">
        <ele>1053.1</ele>
        <time>2022-08-29T11:15:17Z</time>
      </trkpt>
      <trkpt lat="45.93659" lon="3.72161">
        <ele>1053.1</ele>
        <time>2022-08-29T11:15:18Z</time>
      </trkpt>
      <trkpt lat="45.93659" lon="3.72161">
        <ele>1053.1</ele>
        <time>2022-08-29T11:15:19Z</time>
      </trkpt>
      <trkpt lat="45.93659" lon="3.72161">
        <ele>1053.1</ele>
        <time>2022-08-29T11:15:20Z</time>
      </trkpt>
      <trkpt lat="45.93659" lon="3.72161">
        <ele>1053.1</ele>
        <time>2022-08-29T11:15:21Z</time>
      </trkpt>
      <trkpt lat="45.93659" lon="3.72161">
        <ele>1053.1</ele>
        <time>2022-08-29T11:15:22Z</time>
      </trkpt>
      <trkpt lat="45.93659" lon="3.72161">
        <ele>1053.1</ele>
        <time>2022-08-29T11:15:23Z</time>
      </trkpt>
      <trkpt lat="45.93659" lon="3.72161">
        <ele>1053.1</ele>
        <time>2022-08-29T11:15:24Z</time>
      </trkpt>
      <trkpt lat="45.93659" lon="3.72161">
        <ele>1053.1</ele>
        <time>2022-08-29T11:15:25Z</time>
      </trkpt>
      <trkpt lat="45.93659" lon="3.72161">
        <ele>1053.1</ele>
        <time>2022-08-29T11:15:26Z</time>
      </trkpt>
      <trkpt lat="45.93659" lon="3.72161">
        <ele>1053.1</ele>
        <time>2022-08-29T11:15:27Z</time>
      </trkpt>
      <trkpt lat="45.93659" lon="3.72161">
        <ele>1053.1</ele>
        <time>2022-08-29T11:15:28Z</time>
      </trkpt>
      <trkpt lat="45.93659" lon="3.72161">
        <ele>1053.1</ele>
        <time>2022-08-29T11:15:29Z</time>
      </trkpt>
      <trkpt lat="45.93659" lon="3.72161">
        <ele>1053.1</ele>
        <time>2022-08-29T11:15:30Z</time>
      </trkpt>
      <trkpt lat="45.93659" lon="3.72161">
        <ele>1053.1</ele>
        <time>2022-08-29T11:15:31Z</time>
      </trkpt>
      <trkpt lat="45.93659" lon="3.72161">
        <ele>1053.1</ele>
        <time>2022-08-29T11:15:32Z</time>
      </trkpt>
      <trkpt lat="45.93659" lon="3.72162">
        <ele>1053.1</ele>
        <time>2022-08-29T11:15:33Z</time>
      </trkpt>
      <trkpt lat="45.93658" lon="3.72162">
        <ele>1053.1</ele>
        <time>2022-08-29T11:15:34Z</time>
      </trkpt>
      <trkpt lat="45.93658" lon="3.72162">
        <ele>1053.1</ele>
        <time>2022-08-29T11:15:35Z</time>
      </trkpt>
      <trkpt lat="45.93658" lon="3.72163">
        <ele>1053.1</ele>
        <time>2022-08-29T11:15:36Z</time>
      </trkpt>
      <trkpt lat="45.93658" lon="3.72163">
        <ele>1053.1</ele>
        <time>2022-08-29T11:15:37Z</time>
      </trkpt>
      <trkpt lat="45.93658" lon="3.72163">
        <ele>1053.1</ele>
        <time>2022-08-29T11:15:38Z</time>
      </trkpt>
      <trkpt lat="45.93659" lon="3.72163">
        <ele>1053.1</ele>
        <time>2022-08-29T11:15:39Z</time>
      </trkpt>
      <trkpt lat="45.93659" lon="3.72164">
        <ele>1053.1</ele>
        <time>2022-08-29T11:15:40Z</time>
      </trkpt>
      <trkpt lat="45.93659" lon="3.72164">
        <ele>1053.1</ele>
        <time>2022-08-29T11:15:41Z</time>
      </trkpt>
      <trkpt lat="45.93659" lon="3.72165">
        <ele>1053.1</ele>
        <time>2022-08-29T11:15:42Z</time>
      </trkpt>
      <trkpt lat="45.93659" lon="3.72165">
        <ele>1053.1</ele>
        <time>2022-08-29T11:15:43Z</time>
      </trkpt>
      <trkpt lat="45.93658" lon="3.72165">
        <ele>1053.1</ele>
        <time>2022-08-29T11:15:44Z</time>
      </trkpt>
      <trkpt lat="45.93658" lon="3.72166">
        <ele>1053.1</ele>
        <time>2022-08-29T11:15:45Z</time>
      </trkpt>
      <trkpt lat="45.93658" lon="3.72166">
        <ele>1053.2</ele>
        <time>2022-08-29T11:15:46Z</time>
      </trkpt>
      <trkpt lat="45.93658" lon="3.72167">
        <ele>1053.2</ele>
        <time>2022-08-29T11:15:47Z</time>
      </trkpt>
      <trkpt lat="45.93659" lon="3.72167">
        <ele>1053.2</ele>
        <time>2022-08-29T11:15:48Z</time>
      </trkpt>
      <trkpt lat="45.93659" lon="3.72167">
        <ele>1053.2</ele>
        <time>2022-08-29T11:15:49Z</time>
      </trkpt>
      <trkpt lat="45.93658" lon="3.72167">
        <ele>1053.2</ele>
        <time>2022-08-29T11:15:50Z</time>
      </trkpt>
      <trkpt lat="45.93658" lon="3.72167">
        <ele>1053.2</ele>
        <time>2022-08-29T11:15:51Z</time>
      </trkpt>
      <trkpt lat="45.93657" lon="3.72167">
        <ele>1053.2</ele>
        <time>2022-08-29T11:15:52Z</time>
      </trkpt>
      <trkpt lat="45.93657" lon="3.72168">
        <ele>1053.2</ele>
        <time>2022-08-29T11:15:53Z</time>
      </trkpt>
      <trkpt lat="45.93657" lon="3.72168">
        <ele>1053.2</ele>
        <time>2022-08-29T11:15:54Z</time>
      </trkpt>
      <trkpt lat="45.93657" lon="3.72168">
        <ele>1053.2</ele>
        <time>2022-08-29T11:15:55Z</time>
      </trkpt>
      <trkpt lat="45.93657" lon="3.72168">
        <ele>1053.2</ele>
        <time>2022-08-29T11:15:56Z</time>
      </trkpt>
      <trkpt lat="45.93657" lon="3.72168">
        <ele>1053.2</ele>
        <time>2022-08-29T11:15:57Z</time>
      </trkpt>
      <trkpt lat="45.93657" lon="3.72168">
        <ele>1053.2</ele>
        <time>2022-08-29T11:15:58Z</time>
      </trkpt>
      <trkpt lat="45.93657" lon="3.72168">
        <ele>1053.2</ele>
        <time>2022-08-29T11:15:59Z</time>
      </trkpt>
      <trkpt lat="45.93657" lon="3.72168">
        <ele>1053.2</ele>
        <time>2022-08-29T11:16:00Z</time>
      </trkpt>
      <trkpt lat="45.93657" lon="3.72168">
        <ele>1053.2</ele>
        <time>2022-08-29T11:16:01Z</time>
      </trkpt>
      <trkpt lat="45.93657" lon="3.72168">
        <ele>1053.2</ele>
        <time>2022-08-29T11:16:02Z</time>
      </trkpt>
      <trkpt lat="45.93657" lon="3.72168">
        <ele>1053.2</ele>
        <time>2022-08-29T11:16:03Z</time>
      </trkpt>
      <trkpt lat="45.93657" lon="3.72168">
        <ele>1053.2</ele>
        <time>2022-08-29T11:16:04Z</time>
      </trkpt>
      <trkpt lat="45.93657" lon="3.72169">
        <ele>1053.2</ele>
        <time>2022-08-29T11:16:05Z</time>
      </trkpt>
      <trkpt lat="45.93657" lon="3.72169">
        <ele>1053.2</ele>
        <time>2022-08-29T11:16:06Z</time>
      </trkpt>
      <trkpt lat="45.93657" lon="3.72169">
        <ele>1053.2</ele>
        <time>2022-08-29T11:16:07Z</time>
      </trkpt>
      <trkpt lat="45.93657" lon="3.72169">
        <ele>1053.2</ele>
        <time>2022-08-29T11:16:08Z</time>
      </trkpt>
      <trkpt lat="45.93657" lon="3.72169">
        <ele>1053.2</ele>
        <time>2022-08-29T11:16:09Z</time>
      </trkpt>
      <trkpt lat="45.93657" lon="3.72169">
        <ele>1053.2</ele>
        <time>2022-08-29T11:16:10Z</time>
      </trkpt>
      <trkpt lat="45.93657" lon="3.72169">
        <ele>1053.2</ele>
        <time>2022-08-29T11:16:11Z</time>
      </trkpt>
      <trkpt lat="45.93657" lon="3.72169">
        <ele>1053.2</ele>
        <time>2022-08-29T11:16:12Z</time>
      </trkpt>
      <trkpt lat="45.93657" lon="3.72169">
        <ele>1053.2</ele>
        <time>2022-08-29T11:16:13Z</time>
      </trkpt>
      <trkpt lat="45.93657" lon="3.72169">
        <ele>1053.2</ele>
        <time>2022-08-29T11:16:14Z</time>
      </trkpt>
      <trkpt lat="45.93657" lon="3.72169">
        <ele>1053.2</ele>
        <time>2022-08-29T11:16:15Z</time>
      </trkpt>
      <trkpt lat="45.93657" lon="3.72169">
        <ele>1053.2</ele>
        <time>2022-08-29T11:16:16Z</time>
      </trkpt>
      <trkpt lat="45.93657" lon="3.72169">
        <ele>1053.2</ele>
        <time>2022-08-29T11:16:17Z</time>
      </trkpt>
      <trkpt lat="45.93659" lon="3.72167">
        <ele>1053.2</ele>
        <time>2022-08-29T11:16:18Z</time>
      </trkpt>
      <trkpt lat="45.93659" lon="3.72165">
        <ele>1053.3</ele>
        <time>2022-08-29T11:16:19Z</time>
      </trkpt>
      <trkpt lat="45.9366" lon="3.72161">
        <ele>1053.4</ele>
        <time>2022-08-29T11:16:20Z</time>
      </trkpt>
      <trkpt lat="45.9366" lon="3.72159">
        <ele>1053.4</ele>
        <time>2022-08-29T11:16:21Z</time>
      </trkpt>
      <trkpt lat="45.9366" lon="3.72154">
        <ele>1053.4</ele>
        <time>2022-08-29T11:16:22Z</time>
      </trkpt>
      <trkpt lat="45.9366" lon="3.72153">
        <ele>1053.5</ele>
        <time>2022-08-29T11:16:23Z</time>
      </trkpt>
      <trkpt lat="45.93661" lon="3.7215">
        <ele>1053.5</ele>
        <time>2022-08-29T11:16:24Z</time>
      </trkpt>
      <trkpt lat="45.93661" lon="3.72148">
        <ele>1053.5</ele>
        <time>2022-08-29T11:16:25Z</time>
      </trkpt>
      <trkpt lat="45.93664" lon="3.72146">
        <ele>1053.6</ele>
        <time>2022-08-29T11:16:26Z</time>
      </trkpt>
      <trkpt lat="45.93664" lon="3.72145">
        <ele>1053.6</ele>
        <time>2022-08-29T11:16:27Z</time>
      </trkpt>
      <trkpt lat="45.93668" lon="3.72143">
        <ele>1053.7</ele>
        <time>2022-08-29T11:16:28Z</time>
      </trkpt>
      <trkpt lat="45.93669" lon="3.72142">
        <ele>1053.8</ele>
        <time>2022-08-29T11:16:29Z</time>
      </trkpt>
      <trkpt lat="45.93672" lon="3.7214">
        <ele>1053.8</ele>
        <time>2022-08-29T11:16:30Z</time>
      </trkpt>
      <trkpt lat="45.93673" lon="3.72139">
        <ele>1053.9</ele>
        <time>2022-08-29T11:16:31Z</time>
      </trkpt>
      <trkpt lat="45.93676" lon="3.72138">
        <ele>1054</ele>
        <time>2022-08-29T11:16:32Z</time>
      </trkpt>
      <trkpt lat="45.93677" lon="3.72137">
        <ele>1054</ele>
        <time>2022-08-29T11:16:33Z</time>
      </trkpt>
      <trkpt lat="45.9368" lon="3.72137">
        <ele>1054.1</ele>
        <time>2022-08-29T11:16:34Z</time>
      </trkpt>
      <trkpt lat="45.93681" lon="3.72137">
        <ele>1054.1</ele>
        <time>2022-08-29T11:16:35Z</time>
      </trkpt>
      <trkpt lat="45.93685" lon="3.72136">
        <ele>1054.2</ele>
        <time>2022-08-29T11:16:36Z</time>
      </trkpt>
      <trkpt lat="45.93686" lon="3.72136">
        <ele>1054.2</ele>
        <time>2022-08-29T11:16:37Z</time>
      </trkpt>
      <trkpt lat="45.93688" lon="3.72136">
        <ele>1054.3</ele>
        <time>2022-08-29T11:16:39Z</time>
      </trkpt>
      <trkpt lat="45.93689" lon="3.72136">
        <ele>1054.3</ele>
        <time>2022-08-29T11:16:40Z</time>
      </trkpt>
      <trkpt lat="45.93689" lon="3.72136">
        <ele>1054.3</ele>
        <time>2022-08-29T11:16:41Z</time>
      </trkpt>
      <trkpt lat="45.9369" lon="3.72135">
        <ele>1054.3</ele>
        <time>2022-08-29T11:16:42Z</time>
      </trkpt>
      <trkpt lat="45.9369" lon="3.72134">
        <ele>1054.3</ele>
        <time>2022-08-29T11:16:43Z</time>
      </trkpt>
      <trkpt lat="45.9369" lon="3.72133">
        <ele>1054.4</ele>
        <time>2022-08-29T11:16:44Z</time>
      </trkpt>
      <trkpt lat="45.9369" lon="3.72132">
        <ele>1054.4</ele>
        <time>2022-08-29T11:16:45Z</time>
      </trkpt>
      <trkpt lat="45.9369" lon="3.72132">
        <ele>1054.4</ele>
        <time>2022-08-29T11:16:46Z</time>
      </trkpt>
      <trkpt lat="45.9369" lon="3.72132">
        <ele>1054.4</ele>
        <time>2022-08-29T11:16:47Z</time>
      </trkpt>
      <trkpt lat="45.9369" lon="3.72131">
        <ele>1054.4</ele>
        <time>2022-08-29T11:16:48Z</time>
      </trkpt>
      <trkpt lat="45.93691" lon="3.72131">
        <ele>1054.4</ele>
        <time>2022-08-29T11:16:49Z</time>
      </trkpt>
      <trkpt lat="45.93691" lon="3.7213">
        <ele>1054.4</ele>
        <time>2022-08-29T11:16:50Z</time>
      </trkpt>
      <trkpt lat="45.93692" lon="3.7213">
        <ele>1054.4</ele>
        <time>2022-08-29T11:16:51Z</time>
      </trkpt>
      <trkpt lat="45.93693" lon="3.7213">
        <ele>1054.4</ele>
        <time>2022-08-29T11:16:52Z</time>
      </trkpt>
      <trkpt lat="45.93693" lon="3.7213">
        <ele>1054.4</ele>
        <time>2022-08-29T11:16:53Z</time>
      </trkpt>
      <trkpt lat="45.93694" lon="3.72131">
        <ele>1054.4</ele>
        <time>2022-08-29T11:16:54Z</time>
      </trkpt>
      <trkpt lat="45.93695" lon="3.72131">
        <ele>1054.4</ele>
        <time>2022-08-29T11:16:55Z</time>
      </trkpt>
      <trkpt lat="45.93695" lon="3.72132">
        <ele>1054.4</ele>
        <time>2022-08-29T11:16:56Z</time>
      </trkpt>
      <trkpt lat="45.93695" lon="3.72133">
        <ele>1054.4</ele>
        <time>2022-08-29T11:16:57Z</time>
      </trkpt>
      <trkpt lat="45.93694" lon="3.72134">
        <ele>1054.4</ele>
        <time>2022-08-29T11:16:58Z</time>
      </trkpt>
      <trkpt lat="45.93694" lon="3.72134">
        <ele>1054.4</ele>
        <time>2022-08-29T11:16:59Z</time>
      </trkpt>
      <trkpt lat="45.93693" lon="3.72135">
        <ele>1054.4</ele>
        <time>2022-08-29T11:17:00Z</time>
      </trkpt>
      <trkpt lat="45.93693" lon="3.72135">
        <ele>1054.4</ele>
        <time>2022-08-29T11:17:01Z</time>
      </trkpt>
      <trkpt lat="45.93694" lon="3.72136">
        <ele>1054.5</ele>
        <time>2022-08-29T11:17:02Z</time>
      </trkpt>
      <trkpt lat="45.93695" lon="3.72136">
        <ele>1054.5</ele>
        <time>2022-08-29T11:17:03Z</time>
      </trkpt>
      <trkpt lat="45.93696" lon="3.72137">
        <ele>1054.5</ele>
        <time>2022-08-29T11:17:04Z</time>
      </trkpt>
      <trkpt lat="45.93699" lon="3.72138">
        <ele>1054.5</ele>
        <time>2022-08-29T11:17:05Z</time>
      </trkpt>
      <trkpt lat="45.937" lon="3.72138">
        <ele>1054.5</ele>
        <time>2022-08-29T11:17:06Z</time>
      </trkpt>
      <trkpt lat="45.93703" lon="3.7214">
        <ele>1054.4</ele>
        <time>2022-08-29T11:17:07Z</time>
      </trkpt>
      <trkpt lat="45.93705" lon="3.7214">
        <ele>1054.4</ele>
        <time>2022-08-29T11:17:08Z</time>
      </trkpt>
      <trkpt lat="45.93707" lon="3.72141">
        <ele>1054.4</ele>
        <time>2022-08-29T11:17:09Z</time>
      </trkpt>
      <trkpt lat="45.93708" lon="3.72141">
        <ele>1054.4</ele>
        <time>2022-08-29T11:17:10Z</time>
      </trkpt>
      <trkpt lat="45.93711" lon="3.72142">
        <ele>1054.4</ele>
        <time>2022-08-29T11:17:11Z</time>
      </trkpt>
      <trkpt lat="45.93712" lon="3.72143">
        <ele>1054.4</ele>
        <time>2022-08-29T11:17:12Z</time>
      </trkpt>
      <trkpt lat="45.93715" lon="3.72144">
        <ele>1054.4</ele>
        <time>2022-08-29T11:17:13Z</time>
      </trkpt>
      <trkpt lat="45.93715" lon="3.72145">
        <ele>1054.4</ele>
        <time>2022-08-29T11:17:14Z</time>
      </trkpt>
      <trkpt lat="45.93718" lon="3.72147">
        <ele>1054.4</ele>
        <time>2022-08-29T11:17:15Z</time>
      </trkpt>
      <trkpt lat="45.93719" lon="3.72147">
        <ele>1054.4</ele>
        <time>2022-08-29T11:17:16Z</time>
      </trkpt>
      <trkpt lat="45.9372" lon="3.72148">
        <ele>1054.4</ele>
        <time>2022-08-29T11:17:17Z</time>
      </trkpt>
      <trkpt lat="45.93722" lon="3.72149">
        <ele>1054.5</ele>
        <time>2022-08-29T11:17:18Z</time>
      </trkpt>
      <trkpt lat="45.93724" lon="3.72149">
        <ele>1054.5</ele>
        <time>2022-08-29T11:17:19Z</time>
      </trkpt>
      <trkpt lat="45.93725" lon="3.7215">
        <ele>1054.5</ele>
        <time>2022-08-29T11:17:20Z</time>
      </trkpt>
      <trkpt lat="45.93725" lon="3.7215">
        <ele>1054.5</ele>
        <time>2022-08-29T11:17:21Z</time>
      </trkpt>
      <trkpt lat="45.93727" lon="3.72152">
        <ele>1054.5</ele>
        <time>2022-08-29T11:17:22Z</time>
      </trkpt>
      <trkpt lat="45.93728" lon="3.72153">
        <ele>1054.5</ele>
        <time>2022-08-29T11:17:23Z</time>
      </trkpt>
      <trkpt lat="45.93728" lon="3.72154">
        <ele>1054.5</ele>
        <time>2022-08-29T11:17:24Z</time>
      </trkpt>
      <trkpt lat="45.93729" lon="3.72155">
        <ele>1054.5</ele>
        <time>2022-08-29T11:17:25Z</time>
      </trkpt>
      <trkpt lat="45.9373" lon="3.72156">
        <ele>1054.6</ele>
        <time>2022-08-29T11:17:26Z</time>
      </trkpt>
      <trkpt lat="45.93731" lon="3.72156">
        <ele>1054.6</ele>
        <time>2022-08-29T11:17:27Z</time>
      </trkpt>
      <trkpt lat="45.93731" lon="3.72157">
        <ele>1054.6</ele>
        <time>2022-08-29T11:17:28Z</time>
      </trkpt>
      <trkpt lat="45.93731" lon="3.72158">
        <ele>1054.6</ele>
        <time>2022-08-29T11:17:29Z</time>
      </trkpt>
      <trkpt lat="45.93732" lon="3.72158">
        <ele>1054.6</ele>
        <time>2022-08-29T11:17:30Z</time>
      </trkpt>
      <trkpt lat="45.93733" lon="3.72159">
        <ele>1054.6</ele>
        <time>2022-08-29T11:17:31Z</time>
      </trkpt>
      <trkpt lat="45.93734" lon="3.72159">
        <ele>1054.6</ele>
        <time>2022-08-29T11:17:32Z</time>
      </trkpt>
      <trkpt lat="45.93735" lon="3.7216">
        <ele>1054.6</ele>
        <time>2022-08-29T11:17:33Z</time>
      </trkpt>
      <trkpt lat="45.93736" lon="3.72161">
        <ele>1054.7</ele>
        <time>2022-08-29T11:17:34Z</time>
      </trkpt>
      <trkpt lat="45.93737" lon="3.72162">
        <ele>1054.7</ele>
        <time>2022-08-29T11:17:35Z</time>
      </trkpt>
      <trkpt lat="45.93738" lon="3.72164">
        <ele>1054.7</ele>
        <time>2022-08-29T11:17:36Z</time>
      </trkpt>
      <trkpt lat="45.9374" lon="3.72165">
        <ele>1054.8</ele>
        <time>2022-08-29T11:17:37Z</time>
      </trkpt>
      <trkpt lat="45.93741" lon="3.72166">
        <ele>1054.9</ele>
        <time>2022-08-29T11:17:38Z</time>
      </trkpt>
      <trkpt lat="45.93744" lon="3.72168">
        <ele>1055</ele>
        <time>2022-08-29T11:17:39Z</time>
      </trkpt>
      <trkpt lat="45.93745" lon="3.72169">
        <ele>1055</ele>
        <time>2022-08-29T11:17:40Z</time>
      </trkpt>
      <trkpt lat="45.93746" lon="3.7217">
        <ele>1055.1</ele>
        <time>2022-08-29T11:17:41Z</time>
      </trkpt>
      <trkpt lat="45.93747" lon="3.72171">
        <ele>1055.1</ele>
        <time>2022-08-29T11:17:42Z</time>
      </trkpt>
      <trkpt lat="45.93748" lon="3.72172">
        <ele>1055.1</ele>
        <time>2022-08-29T11:17:43Z</time>
      </trkpt>
      <trkpt lat="45.93748" lon="3.72173">
        <ele>1055.2</ele>
        <time>2022-08-29T11:17:44Z</time>
      </trkpt>
      <trkpt lat="45.93748" lon="3.72173">
        <ele>1055.2</ele>
        <time>2022-08-29T11:17:45Z</time>
      </trkpt>
      <trkpt lat="45.93749" lon="3.72173">
        <ele>1055.2</ele>
        <time>2022-08-29T11:17:46Z</time>
      </trkpt>
      <trkpt lat="45.9375" lon="3.72174">
        <ele>1055.2</ele>
        <time>2022-08-29T11:17:47Z</time>
      </trkpt>
      <trkpt lat="45.9375" lon="3.72174">
        <ele>1055.2</ele>
        <time>2022-08-29T11:17:48Z</time>
      </trkpt>
      <trkpt lat="45.9375" lon="3.72173">
        <ele>1055.3</ele>
        <time>2022-08-29T11:17:49Z</time>
      </trkpt>
      <trkpt lat="45.93751" lon="3.72173">
        <ele>1055.3</ele>
        <time>2022-08-29T11:17:50Z</time>
      </trkpt>
      <trkpt lat="45.93751" lon="3.72173">
        <ele>1055.3</ele>
        <time>2022-08-29T11:17:51Z</time>
      </trkpt>
      <trkpt lat="45.93751" lon="3.72173">
        <ele>1055.3</ele>
        <time>2022-08-29T11:17:52Z</time>
      </trkpt>
      <trkpt lat="45.93751" lon="3.72173">
        <ele>1055.3</ele>
        <time>2022-08-29T11:17:53Z</time>
      </trkpt>
      <trkpt lat="45.93752" lon="3.72174">
        <ele>1055.3</ele>
        <time>2022-08-29T11:17:54Z</time>
      </trkpt>
      <trkpt lat="45.93752" lon="3.72174">
        <ele>1055.3</ele>
        <time>2022-08-29T11:17:55Z</time>
      </trkpt>
      <trkpt lat="45.93753" lon="3.72174">
        <ele>1055.4</ele>
        <time>2022-08-29T11:17:56Z</time>
      </trkpt>
      <trkpt lat="45.93753" lon="3.72174">
        <ele>1055.4</ele>
        <time>2022-08-29T11:17:57Z</time>
      </trkpt>
      <trkpt lat="45.93754" lon="3.72174">
        <ele>1055.4</ele>
        <time>2022-08-29T11:17:58Z</time>
      </trkpt>
      <trkpt lat="45.93754" lon="3.72175">
        <ele>1055.4</ele>
        <time>2022-08-29T11:17:59Z</time>
      </trkpt>
      <trkpt lat="45.93755" lon="3.72175">
        <ele>1055.4</ele>
        <time>2022-08-29T11:18:00Z</time>
      </trkpt>
      <trkpt lat="45.93755" lon="3.72175">
        <ele>1055.5</ele>
        <time>2022-08-29T11:18:01Z</time>
      </trkpt>
      <trkpt lat="45.93755" lon="3.72175">
        <ele>1055.5</ele>
        <time>2022-08-29T11:18:02Z</time>
      </trkpt>
      <trkpt lat="45.93756" lon="3.72175">
        <ele>1055.5</ele>
        <time>2022-08-29T11:18:03Z</time>
      </trkpt>
      <trkpt lat="45.93757" lon="3.72176">
        <ele>1055.6</ele>
        <time>2022-08-29T11:18:04Z</time>
      </trkpt>
      <trkpt lat="45.93758" lon="3.72176">
        <ele>1055.6</ele>
        <time>2022-08-29T11:18:05Z</time>
      </trkpt>
      <trkpt lat="45.93759" lon="3.72177">
        <ele>1055.6</ele>
        <time>2022-08-29T11:18:06Z</time>
      </trkpt>
      <trkpt lat="45.93759" lon="3.72177">
        <ele>1055.7</ele>
        <time>2022-08-29T11:18:07Z</time>
      </trkpt>
      <trkpt lat="45.93761" lon="3.72178">
        <ele>1055.8</ele>
        <time>2022-08-29T11:18:08Z</time>
      </trkpt>
      <trkpt lat="45.93762" lon="3.72178">
        <ele>1055.8</ele>
        <time>2022-08-29T11:18:09Z</time>
      </trkpt>
      <trkpt lat="45.93764" lon="3.72178">
        <ele>1055.9</ele>
        <time>2022-08-29T11:18:10Z</time>
      </trkpt>
      <trkpt lat="45.93767" lon="3.72178">
        <ele>1056</ele>
        <time>2022-08-29T11:18:11Z</time>
      </trkpt>
      <trkpt lat="45.93768" lon="3.72178">
        <ele>1056.1</ele>
        <time>2022-08-29T11:18:12Z</time>
      </trkpt>
      <trkpt lat="45.93771" lon="3.72179">
        <ele>1056.2</ele>
        <time>2022-08-29T11:18:13Z</time>
      </trkpt>
      <trkpt lat="45.93775" lon="3.72179">
        <ele>1056.3</ele>
        <time>2022-08-29T11:18:14Z</time>
      </trkpt>
      <trkpt lat="45.93779" lon="3.72179">
        <ele>1056.5</ele>
        <time>2022-08-29T11:18:15Z</time>
      </trkpt>
      <trkpt lat="45.9378" lon="3.72179">
        <ele>1056.5</ele>
        <time>2022-08-29T11:18:16Z</time>
      </trkpt>
      <trkpt lat="45.93784" lon="3.72179">
        <ele>1056.7</ele>
        <time>2022-08-29T11:18:17Z</time>
      </trkpt>
      <trkpt lat="45.93785" lon="3.72179">
        <ele>1056.7</ele>
        <time>2022-08-29T11:18:18Z</time>
      </trkpt>
      <trkpt lat="45.93788" lon="3.7218">
        <ele>1056.8</ele>
        <time>2022-08-29T11:18:19Z</time>
      </trkpt>
      <trkpt lat="45.9379" lon="3.7218">
        <ele>1056.9</ele>
        <time>2022-08-29T11:18:20Z</time>
      </trkpt>
      <trkpt lat="45.93791" lon="3.7218">
        <ele>1056.9</ele>
        <time>2022-08-29T11:18:21Z</time>
      </trkpt>
      <trkpt lat="45.93793" lon="3.72181">
        <ele>1057</ele>
        <time>2022-08-29T11:18:22Z</time>
      </trkpt>
      <trkpt lat="45.93794" lon="3.72181">
        <ele>1057</ele>
        <time>2022-08-29T11:18:23Z</time>
      </trkpt>
      <trkpt lat="45.93796" lon="3.72181">
        <ele>1057.1</ele>
        <time>2022-08-29T11:18:24Z</time>
      </trkpt>
      <trkpt lat="45.93798" lon="3.72181">
        <ele>1057.1</ele>
        <time>2022-08-29T11:18:25Z</time>
      </trkpt>
      <trkpt lat="45.93801" lon="3.72181">
        <ele>1057.2</ele>
        <time>2022-08-29T11:18:26Z</time>
      </trkpt>
      <trkpt lat="45.93801" lon="3.72181">
        <ele>1057.2</ele>
        <time>2022-08-29T11:18:27Z</time>
      </trkpt>
      <trkpt lat="45.93804" lon="3.72181">
        <ele>1057.3</ele>
        <time>2022-08-29T11:18:28Z</time>
      </trkpt>
      <trkpt lat="45.93805" lon="3.72181">
        <ele>1057.4</ele>
        <time>2022-08-29T11:18:29Z</time>
      </trkpt>
      <trkpt lat="45.93807" lon="3.72181">
        <ele>1057.4</ele>
        <time>2022-08-29T11:18:30Z</time>
      </trkpt>
      <trkpt lat="45.93808" lon="3.72182">
        <ele>1057.5</ele>
        <time>2022-08-29T11:18:31Z</time>
      </trkpt>
      <trkpt lat="45.9381" lon="3.72182">
        <ele>1057.5</ele>
        <time>2022-08-29T11:18:32Z</time>
      </trkpt>
      <trkpt lat="45.93811" lon="3.72182">
        <ele>1057.5</ele>
        <time>2022-08-29T11:18:33Z</time>
      </trkpt>
      <trkpt lat="45.93813" lon="3.72182">
        <ele>1057.6</ele>
        <time>2022-08-29T11:18:34Z</time>
      </trkpt>
      <trkpt lat="45.93814" lon="3.72182">
        <ele>1057.6</ele>
        <time>2022-08-29T11:18:35Z</time>
      </trkpt>
      <trkpt lat="45.93816" lon="3.72182">
        <ele>1057.7</ele>
        <time>2022-08-29T11:18:36Z</time>
      </trkpt>
      <trkpt lat="45.93817" lon="3.72181">
        <ele>1057.7</ele>
        <time>2022-08-29T11:18:37Z</time>
      </trkpt>
      <trkpt lat="45.93819" lon="3.72181">
        <ele>1057.7</ele>
        <time>2022-08-29T11:18:38Z</time>
      </trkpt>
      <trkpt lat="45.9382" lon="3.7218">
        <ele>1057.8</ele>
        <time>2022-08-29T11:18:39Z</time>
      </trkpt>
      <trkpt lat="45.93822" lon="3.7218">
        <ele>1057.8</ele>
        <time>2022-08-29T11:18:40Z</time>
      </trkpt>
      <trkpt lat="45.93823" lon="3.72179">
        <ele>1057.9</ele>
        <time>2022-08-29T11:18:41Z</time>
      </trkpt>
      <trkpt lat="45.93825" lon="3.72179">
        <ele>1057.9</ele>
        <time>2022-08-29T11:18:42Z</time>
      </trkpt>
      <trkpt lat="45.93827" lon="3.72178">
        <ele>1058</ele>
        <time>2022-08-29T11:18:43Z</time>
      </trkpt>
      <trkpt lat="45.9383" lon="3.72177">
        <ele>1058</ele>
        <time>2022-08-29T11:18:44Z</time>
      </trkpt>
      <trkpt lat="45.93831" lon="3.72176">
        <ele>1058.1</ele>
        <time>2022-08-29T11:18:45Z</time>
      </trkpt>
      <trkpt lat="45.93832" lon="3.72176">
        <ele>1058.1</ele>
        <time>2022-08-29T11:18:46Z</time>
      </trkpt>
      <trkpt lat="45.93833" lon="3.72176">
        <ele>1058.1</ele>
        <time>2022-08-29T11:18:47Z</time>
      </trkpt>
      <trkpt lat="45.93834" lon="3.72175">
        <ele>1058.1</ele>
        <time>2022-08-29T11:18:48Z</time>
      </trkpt>
      <trkpt lat="45.93834" lon="3.72174">
        <ele>1058.2</ele>
        <time>2022-08-29T11:18:49Z</time>
      </trkpt>
      <trkpt lat="45.93835" lon="3.72174">
        <ele>1058.2</ele>
        <time>2022-08-29T11:18:50Z</time>
      </trkpt>
      <trkpt lat="45.93836" lon="3.72173">
        <ele>1058.2</ele>
        <time>2022-08-29T11:18:51Z</time>
      </trkpt>
      <trkpt lat="45.93837" lon="3.72172">
        <ele>1058.2</ele>
        <time>2022-08-29T11:18:52Z</time>
      </trkpt>
      <trkpt lat="45.93837" lon="3.72172">
        <ele>1058.2</ele>
        <time>2022-08-29T11:18:53Z</time>
      </trkpt>
      <trkpt lat="45.93836" lon="3.72173">
        <ele>1058.3</ele>
        <time>2022-08-29T11:18:54Z</time>
      </trkpt>
      <trkpt lat="45.93836" lon="3.72173">
        <ele>1058.3</ele>
        <time>2022-08-29T11:18:55Z</time>
      </trkpt>
      <trkpt lat="45.93836" lon="3.72173">
        <ele>1058.3</ele>
        <time>2022-08-29T11:18:56Z</time>
      </trkpt>
      <trkpt lat="45.93836" lon="3.72174">
        <ele>1058.3</ele>
        <time>2022-08-29T11:18:57Z</time>
      </trkpt>
      <trkpt lat="45.93836" lon="3.72174">
        <ele>1058.3</ele>
        <time>2022-08-29T11:18:58Z</time>
      </trkpt>
      <trkpt lat="45.93835" lon="3.72175">
        <ele>1058.3</ele>
        <time>2022-08-29T11:18:59Z</time>
      </trkpt>
      <trkpt lat="45.93834" lon="3.72175">
        <ele>1058.3</ele>
        <time>2022-08-29T11:19:00Z</time>
      </trkpt>
      <trkpt lat="45.93834" lon="3.72175">
        <ele>1058.3</ele>
        <time>2022-08-29T11:19:01Z</time>
      </trkpt>
      <trkpt lat="45.93834" lon="3.72175">
        <ele>1058.3</ele>
        <time>2022-08-29T11:19:02Z</time>
      </trkpt>
      <trkpt lat="45.93834" lon="3.72175">
        <ele>1058.3</ele>
        <time>2022-08-29T11:19:03Z</time>
      </trkpt>
      <trkpt lat="45.93834" lon="3.72175">
        <ele>1058.4</ele>
        <time>2022-08-29T11:19:04Z</time>
      </trkpt>
      <trkpt lat="45.93834" lon="3.72175">
        <ele>1058.4</ele>
        <time>2022-08-29T11:19:05Z</time>
      </trkpt>
      <trkpt lat="45.93835" lon="3.72174">
        <ele>1058.4</ele>
        <time>2022-08-29T11:19:06Z</time>
      </trkpt>
      <trkpt lat="45.93835" lon="3.72174">
        <ele>1058.4</ele>
        <time>2022-08-29T11:19:07Z</time>
      </trkpt>
      <trkpt lat="45.93835" lon="3.72174">
        <ele>1058.4</ele>
        <time>2022-08-29T11:19:09Z</time>
      </trkpt>
      <trkpt lat="45.93836" lon="3.72174">
        <ele>1058.4</ele>
        <time>2022-08-29T11:19:10Z</time>
      </trkpt>
      <trkpt lat="45.93836" lon="3.72174">
        <ele>1058.4</ele>
        <time>2022-08-29T11:19:11Z</time>
      </trkpt>
      <trkpt lat="45.93836" lon="3.72174">
        <ele>1058.4</ele>
        <time>2022-08-29T11:19:12Z</time>
      </trkpt>
      <trkpt lat="45.93837" lon="3.72174">
        <ele>1058.4</ele>
        <time>2022-08-29T11:19:13Z</time>
      </trkpt>
      <trkpt lat="45.93837" lon="3.72174">
        <ele>1058.4</ele>
        <time>2022-08-29T11:19:14Z</time>
      </trkpt>
      <trkpt lat="45.93837" lon="3.72174">
        <ele>1058.4</ele>
        <time>2022-08-29T11:19:15Z</time>
      </trkpt>
      <trkpt lat="45.93837" lon="3.72174">
        <ele>1058.4</ele>
        <time>2022-08-29T11:19:16Z</time>
      </trkpt>
      <trkpt lat="45.9384" lon="3.72174">
        <ele>1058.5</ele>
        <time>2022-08-29T11:19:17Z</time>
      </trkpt>
      <trkpt lat="45.93842" lon="3.72174">
        <ele>1058.5</ele>
        <time>2022-08-29T11:19:18Z</time>
      </trkpt>
      <trkpt lat="45.93845" lon="3.72173">
        <ele>1058.6</ele>
        <time>2022-08-29T11:19:19Z</time>
      </trkpt>
      <trkpt lat="45.93847" lon="3.72172">
        <ele>1058.6</ele>
        <time>2022-08-29T11:19:20Z</time>
      </trkpt>
      <trkpt lat="45.93853" lon="3.7217">
        <ele>1058.7</ele>
        <time>2022-08-29T11:19:22Z</time>
      </trkpt>
      <trkpt lat="45.93853" lon="3.7217">
        <ele>1058.7</ele>
        <time>2022-08-29T11:19:22Z</time>
      </trkpt>
      <trkpt lat="45.93856" lon="3.72168">
        <ele>1058.8</ele>
        <time>2022-08-29T11:19:23Z</time>
      </trkpt>
      <trkpt lat="45.93859" lon="3.72167">
        <ele>1058.8</ele>
        <time>2022-08-29T11:19:24Z</time>
      </trkpt>
      <trkpt lat="45.93862" lon="3.72166">
        <ele>1058.8</ele>
        <time>2022-08-29T11:19:25Z</time>
      </trkpt>
      <trkpt lat="45.93863" lon="3.72166">
        <ele>1058.9</ele>
        <time>2022-08-29T11:19:26Z</time>
      </trkpt>
      <trkpt lat="45.93864" lon="3.72166">
        <ele>1058.9</ele>
        <time>2022-08-29T11:19:27Z</time>
      </trkpt>
      <trkpt lat="45.93864" lon="3.72166">
        <ele>1058.9</ele>
        <time>2022-08-29T11:19:28Z</time>
      </trkpt>
      <trkpt lat="45.93864" lon="3.72167">
        <ele>1058.9</ele>
        <time>2022-08-29T11:19:29Z</time>
      </trkpt>
      <trkpt lat="45.93864" lon="3.72167">
        <ele>1058.9</ele>
        <time>2022-08-29T11:19:30Z</time>
      </trkpt>
      <trkpt lat="45.93864" lon="3.72168">
        <ele>1058.9</ele>
        <time>2022-08-29T11:19:31Z</time>
      </trkpt>
      <trkpt lat="45.93866" lon="3.72169">
        <ele>1058.9</ele>
        <time>2022-08-29T11:19:32Z</time>
      </trkpt>
      <trkpt lat="45.93869" lon="3.72168">
        <ele>1058.9</ele>
        <time>2022-08-29T11:19:33Z</time>
      </trkpt>
      <trkpt lat="45.9387" lon="3.72168">
        <ele>1058.9</ele>
        <time>2022-08-29T11:19:34Z</time>
      </trkpt>
      <trkpt lat="45.93873" lon="3.72167">
        <ele>1058.9</ele>
        <time>2022-08-29T11:19:35Z</time>
      </trkpt>
      <trkpt lat="45.93874" lon="3.72166">
        <ele>1058.9</ele>
        <time>2022-08-29T11:19:36Z</time>
      </trkpt>
      <trkpt lat="45.93877" lon="3.72165">
        <ele>1058.9</ele>
        <time>2022-08-29T11:19:37Z</time>
      </trkpt>
      <trkpt lat="45.93877" lon="3.72165">
        <ele>1058.9</ele>
        <time>2022-08-29T11:19:38Z</time>
      </trkpt>
      <trkpt lat="45.9388" lon="3.72164">
        <ele>1058.9</ele>
        <time>2022-08-29T11:19:39Z</time>
      </trkpt>
      <trkpt lat="45.9388" lon="3.72164">
        <ele>1058.9</ele>
        <time>2022-08-29T11:19:40Z</time>
      </trkpt>
      <trkpt lat="45.93881" lon="3.72164">
        <ele>1058.9</ele>
        <time>2022-08-29T11:19:41Z</time>
      </trkpt>
      <trkpt lat="45.93882" lon="3.72163">
        <ele>1058.9</ele>
        <time>2022-08-29T11:19:42Z</time>
      </trkpt>
      <trkpt lat="45.93883" lon="3.72163">
        <ele>1058.9</ele>
        <time>2022-08-29T11:19:43Z</time>
      </trkpt>
      <trkpt lat="45.93884" lon="3.72162">
        <ele>1058.9</ele>
        <time>2022-08-29T11:19:44Z</time>
      </trkpt>
      <trkpt lat="45.93885" lon="3.72161">
        <ele>1058.9</ele>
        <time>2022-08-29T11:19:45Z</time>
      </trkpt>
      <trkpt lat="45.93885" lon="3.72161">
        <ele>1058.9</ele>
        <time>2022-08-29T11:19:46Z</time>
      </trkpt>
      <trkpt lat="45.93886" lon="3.72161">
        <ele>1058.9</ele>
        <time>2022-08-29T11:19:47Z</time>
      </trkpt>
      <trkpt lat="45.93885" lon="3.7216">
        <ele>1058.9</ele>
        <time>2022-08-29T11:19:48Z</time>
      </trkpt>
      <trkpt lat="45.93885" lon="3.72159">
        <ele>1058.9</ele>
        <time>2022-08-29T11:19:49Z</time>
      </trkpt>
      <trkpt lat="45.93884" lon="3.72157">
        <ele>1058.9</ele>
        <time>2022-08-29T11:19:50Z</time>
      </trkpt>
      <trkpt lat="45.93882" lon="3.72153">
        <ele>1058.9</ele>
        <time>2022-08-29T11:19:51Z</time>
      </trkpt>
      <trkpt lat="45.93882" lon="3.72152">
        <ele>1058.9</ele>
        <time>2022-08-29T11:19:52Z</time>
      </trkpt>
      <trkpt lat="45.93881" lon="3.72149">
        <ele>1058.8</ele>
        <time>2022-08-29T11:19:53Z</time>
      </trkpt>
      <trkpt lat="45.93881" lon="3.72147">
        <ele>1058.8</ele>
        <time>2022-08-29T11:19:54Z</time>
      </trkpt>
      <trkpt lat="45.9388" lon="3.72144">
        <ele>1058.8</ele>
        <time>2022-08-29T11:19:55Z</time>
      </trkpt>
      <trkpt lat="45.9388" lon="3.72143">
        <ele>1058.8</ele>
        <time>2022-08-29T11:19:56Z</time>
      </trkpt>
      <trkpt lat="45.93879" lon="3.72144">
        <ele>1058.8</ele>
        <time>2022-08-29T11:19:57Z</time>
      </trkpt>
      <trkpt lat="45.93879" lon="3.72145">
        <ele>1058.8</ele>
        <time>2022-08-29T11:19:58Z</time>
      </trkpt>
      <trkpt lat="45.93879" lon="3.72147">
        <ele>1058.8</ele>
        <time>2022-08-29T11:19:59Z</time>
      </trkpt>
      <trkpt lat="45.9388" lon="3.72148">
        <ele>1058.8</ele>
        <time>2022-08-29T11:20:00Z</time>
      </trkpt>
      <trkpt lat="45.93882" lon="3.72151">
        <ele>1058.8</ele>
        <time>2022-08-29T11:20:01Z</time>
      </trkpt>
      <trkpt lat="45.93883" lon="3.72152">
        <ele>1058.8</ele>
        <time>2022-08-29T11:20:02Z</time>
      </trkpt>
      <trkpt lat="45.93993" lon="3.72146">
        <ele>1061.5</ele>
        <time>2022-08-29T11:21:39Z</time>
      </trkpt>
      <trkpt lat="45.93993" lon="3.72147">
        <ele>1061.6</ele>
        <time>2022-08-29T11:21:40Z</time>
      </trkpt>
      <trkpt lat="45.93993" lon="3.72148">
        <ele>1061.6</ele>
        <time>2022-08-29T11:21:41Z</time>
      </trkpt>
      <trkpt lat="45.93993" lon="3.72149">
        <ele>1061.6</ele>
        <time>2022-08-29T11:21:42Z</time>
      </trkpt>
      <trkpt lat="45.93993" lon="3.7215">
        <ele>1061.7</ele>
        <time>2022-08-29T11:21:43Z</time>
      </trkpt>
      <trkpt lat="45.93994" lon="3.72151">
        <ele>1061.7</ele>
        <time>2022-08-29T11:21:44Z</time>
      </trkpt>
      <trkpt lat="45.93995" lon="3.72155">
        <ele>1061.9</ele>
        <time>2022-08-29T11:21:46Z</time>
      </trkpt>
      <trkpt lat="45.93996" lon="3.72156">
        <ele>1062</ele>
        <time>2022-08-29T11:21:47Z</time>
      </trkpt>
      <trkpt lat="45.93996" lon="3.72158">
        <ele>1062.1</ele>
        <time>2022-08-29T11:21:48Z</time>
      </trkpt>
      <trkpt lat="45.93997" lon="3.7216">
        <ele>1062.2</ele>
        <time>2022-08-29T11:21:49Z</time>
      </trkpt>
      <trkpt lat="45.93998" lon="3.72161">
        <ele>1062.2</ele>
        <time>2022-08-29T11:21:50Z</time>
      </trkpt>
      <trkpt lat="45.93999" lon="3.72162">
        <ele>1062.3</ele>
        <time>2022-08-29T11:21:51Z</time>
      </trkpt>
      <trkpt lat="45.94" lon="3.72163">
        <ele>1062.4</ele>
        <time>2022-08-29T11:21:52Z</time>
      </trkpt>
      <trkpt lat="45.94001" lon="3.72164">
        <ele>1062.4</ele>
        <time>2022-08-29T11:21:53Z</time>
      </trkpt>
      <trkpt lat="45.94003" lon="3.72165">
        <ele>1062.6</ele>
        <time>2022-08-29T11:21:54Z</time>
      </trkpt>
      <trkpt lat="45.94004" lon="3.72165">
        <ele>1062.6</ele>
        <time>2022-08-29T11:21:55Z</time>
      </trkpt>
      <trkpt lat="45.94005" lon="3.72166">
        <ele>1062.7</ele>
        <time>2022-08-29T11:21:56Z</time>
      </trkpt>
      <trkpt lat="45.94006" lon="3.72166">
        <ele>1062.8</ele>
        <time>2022-08-29T11:21:57Z</time>
      </trkpt>
      <trkpt lat="45.94007" lon="3.72167">
        <ele>1062.9</ele>
        <time>2022-08-29T11:21:58Z</time>
      </trkpt>
      <trkpt lat="45.94009" lon="3.72168">
        <ele>1063</ele>
        <time>2022-08-29T11:21:59Z</time>
      </trkpt>
      <trkpt lat="45.9401" lon="3.72168">
        <ele>1063.1</ele>
        <time>2022-08-29T11:22:00Z</time>
      </trkpt>
      <trkpt lat="45.94011" lon="3.72168">
        <ele>1063.1</ele>
        <time>2022-08-29T11:22:01Z</time>
      </trkpt>
      <trkpt lat="45.94012" lon="3.72168">
        <ele>1063.2</ele>
        <time>2022-08-29T11:22:02Z</time>
      </trkpt>
      <trkpt lat="45.94013" lon="3.72168">
        <ele>1063.3</ele>
        <time>2022-08-29T11:22:03Z</time>
      </trkpt>
      <trkpt lat="45.94014" lon="3.72167">
        <ele>1063.4</ele>
        <time>2022-08-29T11:22:04Z</time>
      </trkpt>
      <trkpt lat="45.94015" lon="3.72165">
        <ele>1064.4</ele>
        <time>2022-08-29T11:22:05Z</time>
      </trkpt>
      <trkpt lat="45.94016" lon="3.72164">
        <ele>1064.4</ele>
        <time>2022-08-29T11:22:06Z</time>
      </trkpt>
      <trkpt lat="45.94017" lon="3.72163">
        <ele>1064.5</ele>
        <time>2022-08-29T11:22:07Z</time>
      </trkpt>
      <trkpt lat="45.94017" lon="3.72162">
        <ele>1064.6</ele>
        <time>2022-08-29T11:22:08Z</time>
      </trkpt>
      <trkpt lat="45.94018" lon="3.72161">
        <ele>1064.7</ele>
        <time>2022-08-29T11:22:09Z</time>
      </trkpt>
      <trkpt lat="45.94019" lon="3.72161">
        <ele>1064.8</ele>
        <time>2022-08-29T11:22:10Z</time>
      </trkpt>
      <trkpt lat="45.9402" lon="3.7216">
        <ele>1064.9</ele>
        <time>2022-08-29T11:22:11Z</time>
      </trkpt>
      <trkpt lat="45.9402" lon="3.7216">
        <ele>1065</ele>
        <time>2022-08-29T11:22:12Z</time>
      </trkpt>
      <trkpt lat="45.9402" lon="3.72159">
        <ele>1065</ele>
        <time>2022-08-29T11:22:13Z</time>
      </trkpt>
      <trkpt lat="45.94021" lon="3.72159">
        <ele>1065</ele>
        <time>2022-08-29T11:22:14Z</time>
      </trkpt>
      <trkpt lat="45.94021" lon="3.72159">
        <ele>1065.1</ele>
        <time>2022-08-29T11:22:15Z</time>
      </trkpt>
      <trkpt lat="45.94021" lon="3.72159">
        <ele>1065.1</ele>
        <time>2022-08-29T11:22:16Z</time>
      </trkpt>
      <trkpt lat="45.94021" lon="3.72159">
        <ele>1065.1</ele>
        <time>2022-08-29T11:22:17Z</time>
      </trkpt>
      <trkpt lat="45.94021" lon="3.7216">
        <ele>1065.1</ele>
        <time>2022-08-29T11:22:18Z</time>
      </trkpt>
      <trkpt lat="45.94021" lon="3.7216">
        <ele>1065.2</ele>
        <time>2022-08-29T11:22:19Z</time>
      </trkpt>
      <trkpt lat="45.94021" lon="3.72161">
        <ele>1065.2</ele>
        <time>2022-08-29T11:22:20Z</time>
      </trkpt>
      <trkpt lat="45.94021" lon="3.72161">
        <ele>1065.2</ele>
        <time>2022-08-29T11:22:21Z</time>
      </trkpt>
      <trkpt lat="45.94021" lon="3.72162">
        <ele>1065.3</ele>
        <time>2022-08-29T11:22:22Z</time>
      </trkpt>
      <trkpt lat="45.94021" lon="3.72162">
        <ele>1065.3</ele>
        <time>2022-08-29T11:22:23Z</time>
      </trkpt>
      <trkpt lat="45.94022" lon="3.72163">
        <ele>1065.4</ele>
        <time>2022-08-29T11:22:24Z</time>
      </trkpt>
      <trkpt lat="45.94023" lon="3.72163">
        <ele>1065.5</ele>
        <time>2022-08-29T11:22:25Z</time>
      </trkpt>
      <trkpt lat="45.94023" lon="3.72163">
        <ele>1065.6</ele>
        <time>2022-08-29T11:22:26Z</time>
      </trkpt>
      <trkpt lat="45.94024" lon="3.72162">
        <ele>1065.6</ele>
        <time>2022-08-29T11:22:27Z</time>
      </trkpt>
      <trkpt lat="45.94025" lon="3.72162">
        <ele>1065.7</ele>
        <time>2022-08-29T11:22:28Z</time>
      </trkpt>
      <trkpt lat="45.94026" lon="3.72161">
        <ele>1065.8</ele>
        <time>2022-08-29T11:22:29Z</time>
      </trkpt>
      <trkpt lat="45.94026" lon="3.7216">
        <ele>1065.9</ele>
        <time>2022-08-29T11:22:35Z</time>
      </trkpt>
      <trkpt lat="45.94027" lon="3.7216">
        <ele>1066</ele>
        <time>2022-08-29T11:22:36Z</time>
      </trkpt>
      <trkpt lat="45.9403" lon="3.72156">
        <ele>1066.3</ele>
        <time>2022-08-29T11:22:37Z</time>
      </trkpt>
      <trkpt lat="45.94031" lon="3.72155">
        <ele>1066.4</ele>
        <time>2022-08-29T11:22:38Z</time>
      </trkpt>
      <trkpt lat="45.94034" lon="3.72153">
        <ele>1066.7</ele>
        <time>2022-08-29T11:22:39Z</time>
      </trkpt>
      <trkpt lat="45.94035" lon="3.72152">
        <ele>1066.8</ele>
        <time>2022-08-29T11:22:40Z</time>
      </trkpt>
      <trkpt lat="45.94037" lon="3.72151">
        <ele>1066.9</ele>
        <time>2022-08-29T11:22:41Z</time>
      </trkpt>
      <trkpt lat="45.94038" lon="3.72149">
        <ele>1067</ele>
        <time>2022-08-29T11:22:42Z</time>
      </trkpt>
      <trkpt lat="45.94039" lon="3.72148">
        <ele>1067.1</ele>
        <time>2022-08-29T11:22:43Z</time>
      </trkpt>
      <trkpt lat="45.9404" lon="3.72145">
        <ele>1067.3</ele>
        <time>2022-08-29T11:22:44Z</time>
      </trkpt>
      <trkpt lat="45.9404" lon="3.72141">
        <ele>1067.5</ele>
        <time>2022-08-29T11:22:45Z</time>
      </trkpt>
      <trkpt lat="45.9404" lon="3.7214">
        <ele>1067.6</ele>
        <time>2022-08-29T11:22:46Z</time>
      </trkpt>
      <trkpt lat="45.94039" lon="3.72135">
        <ele>1067.9</ele>
        <time>2022-08-29T11:22:47Z</time>
      </trkpt>
      <trkpt lat="45.94039" lon="3.72133">
        <ele>1068</ele>
        <time>2022-08-29T11:22:48Z</time>
      </trkpt>
      <trkpt lat="45.94039" lon="3.72127">
        <ele>1068.4</ele>
        <time>2022-08-29T11:22:49Z</time>
      </trkpt>
      <trkpt lat="45.94039" lon="3.72125">
        <ele>1068.5</ele>
        <time>2022-08-29T11:22:50Z</time>
      </trkpt>
      <trkpt lat="45.94039" lon="3.72123">
        <ele>1068.7</ele>
        <time>2022-08-29T11:22:51Z</time>
      </trkpt>
      <trkpt lat="45.9404" lon="3.72121">
        <ele>1068.9</ele>
        <time>2022-08-29T11:22:52Z</time>
      </trkpt>
      <trkpt lat="45.9404" lon="3.72119">
        <ele>1069</ele>
        <time>2022-08-29T11:22:53Z</time>
      </trkpt>
      <trkpt lat="45.94041" lon="3.72118">
        <ele>1069.1</ele>
        <time>2022-08-29T11:22:54Z</time>
      </trkpt>
      <trkpt lat="45.94041" lon="3.72116">
        <ele>1069.2</ele>
        <time>2022-08-29T11:22:55Z</time>
      </trkpt>
      <trkpt lat="45.94042" lon="3.72114">
        <ele>1069.4</ele>
        <time>2022-08-29T11:22:56Z</time>
      </trkpt>
      <trkpt lat="45.94042" lon="3.72112">
        <ele>1069.6</ele>
        <time>2022-08-29T11:22:57Z</time>
      </trkpt>
      <trkpt lat="45.94043" lon="3.7211">
        <ele>1069.7</ele>
        <time>2022-08-29T11:22:58Z</time>
      </trkpt>
      <trkpt lat="45.94043" lon="3.72108">
        <ele>1069.9</ele>
        <time>2022-08-29T11:22:59Z</time>
      </trkpt>
      <trkpt lat="45.94044" lon="3.72106">
        <ele>1070.1</ele>
        <time>2022-08-29T11:23:00Z</time>
      </trkpt>
      <trkpt lat="45.94044" lon="3.72104">
        <ele>1070.3</ele>
        <time>2022-08-29T11:23:01Z</time>
      </trkpt>
      <trkpt lat="45.94044" lon="3.721">
        <ele>1070.6</ele>
        <time>2022-08-29T11:23:02Z</time>
      </trkpt>
      <trkpt lat="45.94044" lon="3.72099">
        <ele>1070.7</ele>
        <time>2022-08-29T11:23:03Z</time>
      </trkpt>
      <trkpt lat="45.94044" lon="3.72096">
        <ele>1070.9</ele>
        <time>2022-08-29T11:23:04Z</time>
      </trkpt>
      <trkpt lat="45.94044" lon="3.72094">
        <ele>1071</ele>
        <time>2022-08-29T11:23:05Z</time>
      </trkpt>
      <trkpt lat="45.94044" lon="3.72093">
        <ele>1071.2</ele>
        <time>2022-08-29T11:23:06Z</time>
      </trkpt>
      <trkpt lat="45.94043" lon="3.72091">
        <ele>1071.3</ele>
        <time>2022-08-29T11:23:07Z</time>
      </trkpt>
      <trkpt lat="45.94043" lon="3.7209">
        <ele>1071.4</ele>
        <time>2022-08-29T11:23:08Z</time>
      </trkpt>
      <trkpt lat="45.94042" lon="3.72088">
        <ele>1071.5</ele>
        <time>2022-08-29T11:23:09Z</time>
      </trkpt>
      <trkpt lat="45.9404" lon="3.72085">
        <ele>1071.9</ele>
        <time>2022-08-29T11:23:11Z</time>
      </trkpt>
      <trkpt lat="45.94039" lon="3.72084">
        <ele>1072.1</ele>
        <time>2022-08-29T11:23:12Z</time>
      </trkpt>
      <trkpt lat="45.94038" lon="3.72083">
        <ele>1072.2</ele>
        <time>2022-08-29T11:23:13Z</time>
      </trkpt>
      <trkpt lat="45.94038" lon="3.72083">
        <ele>1072.2</ele>
        <time>2022-08-29T11:23:14Z</time>
      </trkpt>
      <trkpt lat="45.94037" lon="3.72084">
        <ele>1072.3</ele>
        <time>2022-08-29T11:23:15Z</time>
      </trkpt>
      <trkpt lat="45.94037" lon="3.72084">
        <ele>1072.4</ele>
        <time>2022-08-29T11:23:16Z</time>
      </trkpt>
      <trkpt lat="45.94037" lon="3.72085">
        <ele>1072.4</ele>
        <time>2022-08-29T11:23:17Z</time>
      </trkpt>
      <trkpt lat="45.94037" lon="3.72085">
        <ele>1072.5</ele>
        <time>2022-08-29T11:23:18Z</time>
      </trkpt>
      <trkpt lat="45.94036" lon="3.72084">
        <ele>1072.6</ele>
        <time>2022-08-29T11:23:19Z</time>
      </trkpt>
      <trkpt lat="45.94034" lon="3.72083">
        <ele>1072.8</ele>
        <time>2022-08-29T11:23:20Z</time>
      </trkpt>
      <trkpt lat="45.94033" lon="3.72082">
        <ele>1072.9</ele>
        <time>2022-08-29T11:23:21Z</time>
      </trkpt>
      <trkpt lat="45.94032" lon="3.72082">
        <ele>1073</ele>
        <time>2022-08-29T11:23:22Z</time>
      </trkpt>
      <trkpt lat="45.94031" lon="3.72081">
        <ele>1073.2</ele>
        <time>2022-08-29T11:23:23Z</time>
      </trkpt>
      <trkpt lat="45.9403" lon="3.72079">
        <ele>1073.4</ele>
        <time>2022-08-29T11:23:24Z</time>
      </trkpt>
      <trkpt lat="45.94027" lon="3.72078">
        <ele>1073.7</ele>
        <time>2022-08-29T11:23:25Z</time>
      </trkpt>
      <trkpt lat="45.94026" lon="3.72077">
        <ele>1073.9</ele>
        <time>2022-08-29T11:23:26Z</time>
      </trkpt>
      <trkpt lat="45.94023" lon="3.72075">
        <ele>1074.3</ele>
        <time>2022-08-29T11:23:27Z</time>
      </trkpt>
      <trkpt lat="45.94022" lon="3.72075">
        <ele>1074.4</ele>
        <time>2022-08-29T11:23:28Z</time>
      </trkpt>
      <trkpt lat="45.94019" lon="3.72072">
        <ele>1074.8</ele>
        <time>2022-08-29T11:23:29Z</time>
      </trkpt>
      <trkpt lat="45.94018" lon="3.72072">
        <ele>1075</ele>
        <time>2022-08-29T11:23:30Z</time>
      </trkpt>
      <trkpt lat="45.94017" lon="3.72071">
        <ele>1075.1</ele>
        <time>2022-08-29T11:23:31Z</time>
      </trkpt>
      <trkpt lat="45.94016" lon="3.7207">
        <ele>1075.3</ele>
        <time>2022-08-29T11:23:32Z</time>
      </trkpt>
      <trkpt lat="45.94016" lon="3.72069">
        <ele>1075.4</ele>
        <time>2022-08-29T11:23:33Z</time>
      </trkpt>
      <trkpt lat="45.94015" lon="3.72069">
        <ele>1075.5</ele>
        <time>2022-08-29T11:23:34Z</time>
      </trkpt>
      <trkpt lat="45.94014" lon="3.72068">
        <ele>1075.6</ele>
        <time>2022-08-29T11:23:35Z</time>
      </trkpt>
      <trkpt lat="45.94014" lon="3.72067">
        <ele>1075.7</ele>
        <time>2022-08-29T11:23:36Z</time>
      </trkpt>
      <trkpt lat="45.94014" lon="3.72067">
        <ele>1075.7</ele>
        <time>2022-08-29T11:23:37Z</time>
      </trkpt>
      <trkpt lat="45.94014" lon="3.72067">
        <ele>1075.8</ele>
        <time>2022-08-29T11:23:38Z</time>
      </trkpt>
      <trkpt lat="45.94014" lon="3.72066">
        <ele>1075.8</ele>
        <time>2022-08-29T11:23:39Z</time>
      </trkpt>
      <trkpt lat="45.94014" lon="3.72065">
        <ele>1075.9</ele>
        <time>2022-08-29T11:23:40Z</time>
      </trkpt>
      <trkpt lat="45.94014" lon="3.72064">
        <ele>1076</ele>
        <time>2022-08-29T11:23:41Z</time>
      </trkpt>
      <trkpt lat="45.94014" lon="3.72062">
        <ele>1076.2</ele>
        <time>2022-08-29T11:23:42Z</time>
      </trkpt>
      <trkpt lat="45.94014" lon="3.72061">
        <ele>1076.4</ele>
        <time>2022-08-29T11:23:43Z</time>
      </trkpt>
      <trkpt lat="45.94014" lon="3.72059">
        <ele>1076.5</ele>
        <time>2022-08-29T11:23:44Z</time>
      </trkpt>
      <trkpt lat="45.94013" lon="3.72058">
        <ele>1076.7</ele>
        <time>2022-08-29T11:23:45Z</time>
      </trkpt>
      <trkpt lat="45.94012" lon="3.72056">
        <ele>1076.9</ele>
        <time>2022-08-29T11:23:46Z</time>
      </trkpt>
      <trkpt lat="45.94012" lon="3.72055">
        <ele>1077</ele>
        <time>2022-08-29T11:23:47Z</time>
      </trkpt>
      <trkpt lat="45.94011" lon="3.72054">
        <ele>1077.2</ele>
        <time>2022-08-29T11:23:48Z</time>
      </trkpt>
      <trkpt lat="45.9401" lon="3.72053">
        <ele>1077.3</ele>
        <time>2022-08-29T11:23:49Z</time>
      </trkpt>
      <trkpt lat="45.9401" lon="3.72052">
        <ele>1077.4</ele>
        <time>2022-08-29T11:23:50Z</time>
      </trkpt>
      <trkpt lat="45.94009" lon="3.72051">
        <ele>1077.6</ele>
        <time>2022-08-29T11:23:51Z</time>
      </trkpt>
      <trkpt lat="45.94007" lon="3.72049">
        <ele>1078</ele>
        <time>2022-08-29T11:23:52Z</time>
      </trkpt>
      <trkpt lat="45.94006" lon="3.72048">
        <ele>1078.2</ele>
        <time>2022-08-29T11:23:53Z</time>
      </trkpt>
      <trkpt lat="45.94004" lon="3.72044">
        <ele>1078.6</ele>
        <time>2022-08-29T11:23:54Z</time>
      </trkpt>
      <trkpt lat="45.94004" lon="3.72043">
        <ele>1078.7</ele>
        <time>2022-08-29T11:23:55Z</time>
      </trkpt>
      <trkpt lat="45.94003" lon="3.72041">
        <ele>1078.9</ele>
        <time>2022-08-29T11:23:56Z</time>
      </trkpt>
      <trkpt lat="45.94002" lon="3.7204">
        <ele>1079.1</ele>
        <time>2022-08-29T11:23:57Z</time>
      </trkpt>
      <trkpt lat="45.94001" lon="3.72039">
        <ele>1079.2</ele>
        <time>2022-08-29T11:23:58Z</time>
      </trkpt>
      <trkpt lat="45.94001" lon="3.72038">
        <ele>1079.3</ele>
        <time>2022-08-29T11:23:59Z</time>
      </trkpt>
      <trkpt lat="45.94001" lon="3.72038">
        <ele>1079.3</ele>
        <time>2022-08-29T11:24:00Z</time>
      </trkpt>
      <trkpt lat="45.94001" lon="3.72038">
        <ele>1079.4</ele>
        <time>2022-08-29T11:24:01Z</time>
      </trkpt>
      <trkpt lat="45.94" lon="3.72037">
        <ele>1079.5</ele>
        <time>2022-08-29T11:24:02Z</time>
      </trkpt>
      <trkpt lat="45.94" lon="3.72037">
        <ele>1079.5</ele>
        <time>2022-08-29T11:24:03Z</time>
      </trkpt>
      <trkpt lat="45.93999" lon="3.72037">
        <ele>1079.6</ele>
        <time>2022-08-29T11:24:04Z</time>
      </trkpt>
      <trkpt lat="45.93999" lon="3.72037">
        <ele>1079.6</ele>
        <time>2022-08-29T11:24:05Z</time>
      </trkpt>
      <trkpt lat="45.93998" lon="3.72037">
        <ele>1079.7</ele>
        <time>2022-08-29T11:24:06Z</time>
      </trkpt>
      <trkpt lat="45.93996" lon="3.72036">
        <ele>1079.9</ele>
        <time>2022-08-29T11:24:07Z</time>
      </trkpt>
      <trkpt lat="45.93993" lon="3.72033">
        <ele>1080.4</ele>
        <time>2022-08-29T11:24:08Z</time>
      </trkpt>
      <trkpt lat="45.93992" lon="3.72031">
        <ele>1080.6</ele>
        <time>2022-08-29T11:24:09Z</time>
      </trkpt>
      <trkpt lat="45.93989" lon="3.72029">
        <ele>1080.9</ele>
        <time>2022-08-29T11:24:10Z</time>
      </trkpt>
      <trkpt lat="45.93988" lon="3.72029">
        <ele>1081</ele>
        <time>2022-08-29T11:24:11Z</time>
      </trkpt>
      <trkpt lat="45.93987" lon="3.72029">
        <ele>1081.2</ele>
        <time>2022-08-29T11:24:12Z</time>
      </trkpt>
      <trkpt lat="45.93986" lon="3.72029">
        <ele>1081.3</ele>
        <time>2022-08-29T11:24:13Z</time>
      </trkpt>
      <trkpt lat="45.93985" lon="3.72029">
        <ele>1081.3</ele>
        <time>2022-08-29T11:24:14Z</time>
      </trkpt>
      <trkpt lat="45.93983" lon="3.72029">
        <ele>1081.6</ele>
        <time>2022-08-29T11:24:15Z</time>
      </trkpt>
      <trkpt lat="45.93982" lon="3.72029">
        <ele>1081.7</ele>
        <time>2022-08-29T11:24:16Z</time>
      </trkpt>
      <trkpt lat="45.93981" lon="3.72029">
        <ele>1081.8</ele>
        <time>2022-08-29T11:24:17Z</time>
      </trkpt>
      <trkpt lat="45.93978" lon="3.72028">
        <ele>1082.1</ele>
        <time>2022-08-29T11:24:18Z</time>
      </trkpt>
      <trkpt lat="45.93977" lon="3.72027">
        <ele>1082.2</ele>
        <time>2022-08-29T11:24:19Z</time>
      </trkpt>
      <trkpt lat="45.93975" lon="3.72024">
        <ele>1082.5</ele>
        <time>2022-08-29T11:24:20Z</time>
      </trkpt>
      <trkpt lat="45.93974" lon="3.72023">
        <ele>1082.6</ele>
        <time>2022-08-29T11:24:21Z</time>
      </trkpt>
      <trkpt lat="45.93972" lon="3.7202">
        <ele>1083</ele>
        <time>2022-08-29T11:24:22Z</time>
      </trkpt>
      <trkpt lat="45.93971" lon="3.72019">
        <ele>1083.1</ele>
        <time>2022-08-29T11:24:23Z</time>
      </trkpt>
      <trkpt lat="45.9397" lon="3.72018">
        <ele>1083.2</ele>
        <time>2022-08-29T11:24:24Z</time>
      </trkpt>
      <trkpt lat="45.93969" lon="3.72017">
        <ele>1083.3</ele>
        <time>2022-08-29T11:24:25Z</time>
      </trkpt>
      <trkpt lat="45.93968" lon="3.72017">
        <ele>1083.3</ele>
        <time>2022-08-29T11:24:26Z</time>
      </trkpt>
      <trkpt lat="45.93968" lon="3.72017">
        <ele>1083.4</ele>
        <time>2022-08-29T11:24:27Z</time>
      </trkpt>
      <trkpt lat="45.93967" lon="3.72017">
        <ele>1083.5</ele>
        <time>2022-08-29T11:24:28Z</time>
      </trkpt>
      <trkpt lat="45.93966" lon="3.72016">
        <ele>1083.5</ele>
        <time>2022-08-29T11:24:29Z</time>
      </trkpt>
      <trkpt lat="45.93966" lon="3.72015">
        <ele>1083.6</ele>
        <time>2022-08-29T11:24:30Z</time>
      </trkpt>
      <trkpt lat="45.93965" lon="3.72015">
        <ele>1083.7</ele>
        <time>2022-08-29T11:24:31Z</time>
      </trkpt>
      <trkpt lat="45.93965" lon="3.72015">
        <ele>1083.7</ele>
        <time>2022-08-29T11:24:32Z</time>
      </trkpt>
      <trkpt lat="45.93965" lon="3.72016">
        <ele>1083.7</ele>
        <time>2022-08-29T11:24:33Z</time>
      </trkpt>
      <trkpt lat="45.93966" lon="3.72016">
        <ele>1083.7</ele>
        <time>2022-08-29T11:24:34Z</time>
      </trkpt>
      <trkpt lat="45.93966" lon="3.72016">
        <ele>1083.7</ele>
        <time>2022-08-29T11:24:35Z</time>
      </trkpt>
      <trkpt lat="45.93965" lon="3.72016">
        <ele>1083.8</ele>
        <time>2022-08-29T11:24:36Z</time>
      </trkpt>
      <trkpt lat="45.93965" lon="3.72015">
        <ele>1083.8</ele>
        <time>2022-08-29T11:24:37Z</time>
      </trkpt>
      <trkpt lat="45.93965" lon="3.72014">
        <ele>1083.9</ele>
        <time>2022-08-29T11:24:38Z</time>
      </trkpt>
      <trkpt lat="45.93965" lon="3.72013">
        <ele>1084</ele>
        <time>2022-08-29T11:24:39Z</time>
      </trkpt>
      <trkpt lat="45.93964" lon="3.72011">
        <ele>1084.1</ele>
        <time>2022-08-29T11:24:40Z</time>
      </trkpt>
      <trkpt lat="45.93964" lon="3.7201">
        <ele>1084.2</ele>
        <time>2022-08-29T11:24:41Z</time>
      </trkpt>
      <trkpt lat="45.93963" lon="3.72009">
        <ele>1084.3</ele>
        <time>2022-08-29T11:24:42Z</time>
      </trkpt>
      <trkpt lat="45.93963" lon="3.72007">
        <ele>1084.3</ele>
        <time>2022-08-29T11:24:43Z</time>
      </trkpt>
      <trkpt lat="45.93962" lon="3.72006">
        <ele>1084.4</ele>
        <time>2022-08-29T11:24:44Z</time>
      </trkpt>
      <trkpt lat="45.93962" lon="3.72005">
        <ele>1084.5</ele>
        <time>2022-08-29T11:24:45Z</time>
      </trkpt>
      <trkpt lat="45.93961" lon="3.72003">
        <ele>1084.6</ele>
        <time>2022-08-29T11:24:46Z</time>
      </trkpt>
      <trkpt lat="45.9396" lon="3.72002">
        <ele>1084.8</ele>
        <time>2022-08-29T11:24:47Z</time>
      </trkpt>
      <trkpt lat="45.93959" lon="3.72">
        <ele>1084.9</ele>
        <time>2022-08-29T11:24:48Z</time>
      </trkpt>
      <trkpt lat="45.93958" lon="3.71999">
        <ele>1085</ele>
        <time>2022-08-29T11:24:49Z</time>
      </trkpt>
      <trkpt lat="45.93958" lon="3.71999">
        <ele>1085</ele>
        <time>2022-08-29T11:24:50Z</time>
      </trkpt>
      <trkpt lat="45.93957" lon="3.71997">
        <ele>1085.1</ele>
        <time>2022-08-29T11:24:51Z</time>
      </trkpt>
      <trkpt lat="45.93957" lon="3.71996">
        <ele>1085.2</ele>
        <time>2022-08-29T11:24:52Z</time>
      </trkpt>
      <trkpt lat="45.93957" lon="3.71995">
        <ele>1085.2</ele>
        <time>2022-08-29T11:24:53Z</time>
      </trkpt>
      <trkpt lat="45.93956" lon="3.71993">
        <ele>1085.3</ele>
        <time>2022-08-29T11:24:54Z</time>
      </trkpt>
      <trkpt lat="45.93956" lon="3.71992">
        <ele>1085.5</ele>
        <time>2022-08-29T11:24:55Z</time>
      </trkpt>
      <trkpt lat="45.93955" lon="3.7199">
        <ele>1085.6</ele>
        <time>2022-08-29T11:24:56Z</time>
      </trkpt>
      <trkpt lat="45.93954" lon="3.71989">
        <ele>1085.7</ele>
        <time>2022-08-29T11:24:57Z</time>
      </trkpt>
      <trkpt lat="45.93953" lon="3.71987">
        <ele>1085.8</ele>
        <time>2022-08-29T11:24:58Z</time>
      </trkpt>
      <trkpt lat="45.93952" lon="3.71986">
        <ele>1086</ele>
        <time>2022-08-29T11:24:59Z</time>
      </trkpt>
      <trkpt lat="45.9395" lon="3.71984">
        <ele>1086.1</ele>
        <time>2022-08-29T11:25:00Z</time>
      </trkpt>
      <trkpt lat="45.93949" lon="3.71983">
        <ele>1086.3</ele>
        <time>2022-08-29T11:25:01Z</time>
      </trkpt>
      <trkpt lat="45.93948" lon="3.71982">
        <ele>1086.4</ele>
        <time>2022-08-29T11:25:02Z</time>
      </trkpt>
      <trkpt lat="45.93946" lon="3.71981">
        <ele>1086.5</ele>
        <time>2022-08-29T11:25:03Z</time>
      </trkpt>
      <trkpt lat="45.93945" lon="3.7198">
        <ele>1086.7</ele>
        <time>2022-08-29T11:25:04Z</time>
      </trkpt>
      <trkpt lat="45.93944" lon="3.71979">
        <ele>1086.8</ele>
        <time>2022-08-29T11:25:05Z</time>
      </trkpt>
      <trkpt lat="45.93943" lon="3.71977">
        <ele>1087</ele>
        <time>2022-08-29T11:25:06Z</time>
      </trkpt>
      <trkpt lat="45.93942" lon="3.71975">
        <ele>1087.1</ele>
        <time>2022-08-29T11:25:07Z</time>
      </trkpt>
      <trkpt lat="45.93941" lon="3.71973">
        <ele>1087.3</ele>
        <time>2022-08-29T11:25:08Z</time>
      </trkpt>
      <trkpt lat="45.93941" lon="3.71971">
        <ele>1087.4</ele>
        <time>2022-08-29T11:25:09Z</time>
      </trkpt>
      <trkpt lat="45.93939" lon="3.71969">
        <ele>1087.6</ele>
        <time>2022-08-29T11:25:10Z</time>
      </trkpt>
      <trkpt lat="45.93939" lon="3.71968">
        <ele>1087.7</ele>
        <time>2022-08-29T11:25:11Z</time>
      </trkpt>
      <trkpt lat="45.93938" lon="3.71967">
        <ele>1087.8</ele>
        <time>2022-08-29T11:25:12Z</time>
      </trkpt>
      <trkpt lat="45.93937" lon="3.71966">
        <ele>1087.9</ele>
        <time>2022-08-29T11:25:13Z</time>
      </trkpt>
      <trkpt lat="45.93936" lon="3.71964">
        <ele>1088</ele>
        <time>2022-08-29T11:25:14Z</time>
      </trkpt>
      <trkpt lat="45.93936" lon="3.71963">
        <ele>1088.1</ele>
        <time>2022-08-29T11:25:15Z</time>
      </trkpt>
      <trkpt lat="45.93935" lon="3.71961">
        <ele>1088.3</ele>
        <time>2022-08-29T11:25:16Z</time>
      </trkpt>
      <trkpt lat="45.93935" lon="3.7196">
        <ele>1088.4</ele>
        <time>2022-08-29T11:25:17Z</time>
      </trkpt>
      <trkpt lat="45.93934" lon="3.71958">
        <ele>1088.5</ele>
        <time>2022-08-29T11:25:18Z</time>
      </trkpt>
      <trkpt lat="45.93934" lon="3.71957">
        <ele>1088.6</ele>
        <time>2022-08-29T11:25:19Z</time>
      </trkpt>
      <trkpt lat="45.93934" lon="3.71956">
        <ele>1088.7</ele>
        <time>2022-08-29T11:25:20Z</time>
      </trkpt>
      <trkpt lat="45.93934" lon="3.71954">
        <ele>1088.7</ele>
        <time>2022-08-29T11:25:21Z</time>
      </trkpt>
      <trkpt lat="45.93933" lon="3.71953">
        <ele>1088.8</ele>
        <time>2022-08-29T11:25:22Z</time>
      </trkpt>
      <trkpt lat="45.93933" lon="3.71952">
        <ele>1088.9</ele>
        <time>2022-08-29T11:25:23Z</time>
      </trkpt>
      <trkpt lat="45.93934" lon="3.71951">
        <ele>1089</ele>
        <time>2022-08-29T11:25:24Z</time>
      </trkpt>
      <trkpt lat="45.93934" lon="3.7195">
        <ele>1089.1</ele>
        <time>2022-08-29T11:25:25Z</time>
      </trkpt>
      <trkpt lat="45.93935" lon="3.71947">
        <ele>1089.2</ele>
        <time>2022-08-29T11:25:26Z</time>
      </trkpt>
      <trkpt lat="45.93935" lon="3.71946">
        <ele>1089.3</ele>
        <time>2022-08-29T11:25:27Z</time>
      </trkpt>
      <trkpt lat="45.93935" lon="3.71945">
        <ele>1089.4</ele>
        <time>2022-08-29T11:25:28Z</time>
      </trkpt>
      <trkpt lat="45.93935" lon="3.71942">
        <ele>1089.6</ele>
        <time>2022-08-29T11:25:29Z</time>
      </trkpt>
      <trkpt lat="45.93935" lon="3.71941">
        <ele>1089.7</ele>
        <time>2022-08-29T11:25:30Z</time>
      </trkpt>
      <trkpt lat="45.93935" lon="3.7194">
        <ele>1089.7</ele>
        <time>2022-08-29T11:25:31Z</time>
      </trkpt>
      <trkpt lat="45.93935" lon="3.71938">
        <ele>1089.8</ele>
        <time>2022-08-29T11:25:32Z</time>
      </trkpt>
      <trkpt lat="45.93935" lon="3.71936">
        <ele>1089.9</ele>
        <time>2022-08-29T11:25:33Z</time>
      </trkpt>
      <trkpt lat="45.93935" lon="3.71935">
        <ele>1090</ele>
        <time>2022-08-29T11:25:34Z</time>
      </trkpt>
      <trkpt lat="45.93935" lon="3.71933">
        <ele>1090.1</ele>
        <time>2022-08-29T11:25:35Z</time>
      </trkpt>
      <trkpt lat="45.93935" lon="3.71932">
        <ele>1090.2</ele>
        <time>2022-08-29T11:25:36Z</time>
      </trkpt>
      <trkpt lat="45.93935" lon="3.71931">
        <ele>1090.3</ele>
        <time>2022-08-29T11:25:37Z</time>
      </trkpt>
      <trkpt lat="45.93935" lon="3.71929">
        <ele>1090.4</ele>
        <time>2022-08-29T11:25:38Z</time>
      </trkpt>
      <trkpt lat="45.93935" lon="3.71928">
        <ele>1090.5</ele>
        <time>2022-08-29T11:25:39Z</time>
      </trkpt>
      <trkpt lat="45.93935" lon="3.71926">
        <ele>1090.6</ele>
        <time>2022-08-29T11:25:40Z</time>
      </trkpt>
      <trkpt lat="45.93936" lon="3.71925">
        <ele>1090.6</ele>
        <time>2022-08-29T11:25:41Z</time>
      </trkpt>
      <trkpt lat="45.93936" lon="3.71924">
        <ele>1090.7</ele>
        <time>2022-08-29T11:25:42Z</time>
      </trkpt>
      <trkpt lat="45.93936" lon="3.71922">
        <ele>1090.8</ele>
        <time>2022-08-29T11:25:43Z</time>
      </trkpt>
      <trkpt lat="45.93936" lon="3.71921">
        <ele>1090.9</ele>
        <time>2022-08-29T11:25:44Z</time>
      </trkpt>
      <trkpt lat="45.93936" lon="3.7192">
        <ele>1090.9</ele>
        <time>2022-08-29T11:25:45Z</time>
      </trkpt>
      <trkpt lat="45.93936" lon="3.7192">
        <ele>1091</ele>
        <time>2022-08-29T11:25:46Z</time>
      </trkpt>
      <trkpt lat="45.93935" lon="3.71918">
        <ele>1091</ele>
        <time>2022-08-29T11:25:47Z</time>
      </trkpt>
      <trkpt lat="45.93935" lon="3.71917">
        <ele>1091.1</ele>
        <time>2022-08-29T11:25:48Z</time>
      </trkpt>
      <trkpt lat="45.93935" lon="3.71916">
        <ele>1091.2</ele>
        <time>2022-08-29T11:25:49Z</time>
      </trkpt>
      <trkpt lat="45.93935" lon="3.71915">
        <ele>1091.3</ele>
        <time>2022-08-29T11:25:50Z</time>
      </trkpt>
      <trkpt lat="45.93935" lon="3.71913">
        <ele>1091.3</ele>
        <time>2022-08-29T11:25:51Z</time>
      </trkpt>
      <trkpt lat="45.93935" lon="3.71911">
        <ele>1091.5</ele>
        <time>2022-08-29T11:25:52Z</time>
      </trkpt>
      <trkpt lat="45.93935" lon="3.7191">
        <ele>1091.5</ele>
        <time>2022-08-29T11:25:53Z</time>
      </trkpt>
      <trkpt lat="45.93934" lon="3.71909">
        <ele>1091.6</ele>
        <time>2022-08-29T11:25:54Z</time>
      </trkpt>
      <trkpt lat="45.93934" lon="3.71908">
        <ele>1091.7</ele>
        <time>2022-08-29T11:25:55Z</time>
      </trkpt>
      <trkpt lat="45.93933" lon="3.71905">
        <ele>1091.8</ele>
        <time>2022-08-29T11:25:56Z</time>
      </trkpt>
      <trkpt lat="45.93932" lon="3.71904">
        <ele>1091.9</ele>
        <time>2022-08-29T11:25:57Z</time>
      </trkpt>
      <trkpt lat="45.93931" lon="3.71902">
        <ele>1092</ele>
        <time>2022-08-29T11:25:58Z</time>
      </trkpt>
      <trkpt lat="45.9393" lon="3.719">
        <ele>1092.2</ele>
        <time>2022-08-29T11:25:59Z</time>
      </trkpt>
      <trkpt lat="45.93928" lon="3.71896">
        <ele>1092.4</ele>
        <time>2022-08-29T11:26:00Z</time>
      </trkpt>
      <trkpt lat="45.93927" lon="3.71895">
        <ele>1092.4</ele>
        <time>2022-08-29T11:26:01Z</time>
      </trkpt>
      <trkpt lat="45.93925" lon="3.71892">
        <ele>1092.6</ele>
        <time>2022-08-29T11:26:02Z</time>
      </trkpt>
      <trkpt lat="45.93925" lon="3.71891">
        <ele>1092.7</ele>
        <time>2022-08-29T11:26:03Z</time>
      </trkpt>
      <trkpt lat="45.93923" lon="3.71888">
        <ele>1092.8</ele>
        <time>2022-08-29T11:26:04Z</time>
      </trkpt>
      <trkpt lat="45.93922" lon="3.71887">
        <ele>1092.8</ele>
        <time>2022-08-29T11:26:05Z</time>
      </trkpt>
      <trkpt lat="45.9392" lon="3.71884">
        <ele>1093</ele>
        <time>2022-08-29T11:26:06Z</time>
      </trkpt>
      <trkpt lat="45.93919" lon="3.71883">
        <ele>1093</ele>
        <time>2022-08-29T11:26:07Z</time>
      </trkpt>
      <trkpt lat="45.93917" lon="3.71882">
        <ele>1093.1</ele>
        <time>2022-08-29T11:26:08Z</time>
      </trkpt>
      <trkpt lat="45.93916" lon="3.71881">
        <ele>1093.1</ele>
        <time>2022-08-29T11:26:09Z</time>
      </trkpt>
      <trkpt lat="45.93915" lon="3.7188">
        <ele>1093.2</ele>
        <time>2022-08-29T11:26:10Z</time>
      </trkpt>
      <trkpt lat="45.93913" lon="3.71879">
        <ele>1093.2</ele>
        <time>2022-08-29T11:26:11Z</time>
      </trkpt>
      <trkpt lat="45.93911" lon="3.71877">
        <ele>1093.4</ele>
        <time>2022-08-29T11:26:12Z</time>
      </trkpt>
      <trkpt lat="45.9391" lon="3.71876">
        <ele>1093.4</ele>
        <time>2022-08-29T11:26:13Z</time>
      </trkpt>
      <trkpt lat="45.93909" lon="3.71875">
        <ele>1093.5</ele>
        <time>2022-08-29T11:26:14Z</time>
      </trkpt>
      <trkpt lat="45.93908" lon="3.71874">
        <ele>1093.5</ele>
        <time>2022-08-29T11:26:15Z</time>
      </trkpt>
      <trkpt lat="45.93906" lon="3.71872">
        <ele>1093.6</ele>
        <time>2022-08-29T11:26:16Z</time>
      </trkpt>
      <trkpt lat="45.93905" lon="3.71871">
        <ele>1093.7</ele>
        <time>2022-08-29T11:26:17Z</time>
      </trkpt>
      <trkpt lat="45.93904" lon="3.71869">
        <ele>1093.8</ele>
        <time>2022-08-29T11:26:18Z</time>
      </trkpt>
      <trkpt lat="45.93903" lon="3.71868">
        <ele>1093.8</ele>
        <time>2022-08-29T11:26:19Z</time>
      </trkpt>
      <trkpt lat="45.93901" lon="3.71866">
        <ele>1093.9</ele>
        <time>2022-08-29T11:26:20Z</time>
      </trkpt>
      <trkpt lat="45.93901" lon="3.71865">
        <ele>1094</ele>
        <time>2022-08-29T11:26:21Z</time>
      </trkpt>
      <trkpt lat="45.939" lon="3.71864">
        <ele>1094</ele>
        <time>2022-08-29T11:26:22Z</time>
      </trkpt>
      <trkpt lat="45.93899" lon="3.71861">
        <ele>1094.1</ele>
        <time>2022-08-29T11:26:23Z</time>
      </trkpt>
      <trkpt lat="45.93898" lon="3.71861">
        <ele>1094.1</ele>
        <time>2022-08-29T11:26:24Z</time>
      </trkpt>
      <trkpt lat="45.93898" lon="3.7186">
        <ele>1094.2</ele>
        <time>2022-08-29T11:26:25Z</time>
      </trkpt>
      <trkpt lat="45.93897" lon="3.71859">
        <ele>1094.2</ele>
        <time>2022-08-29T11:26:26Z</time>
      </trkpt>
      <trkpt lat="45.93897" lon="3.71858">
        <ele>1094.3</ele>
        <time>2022-08-29T11:26:27Z</time>
      </trkpt>
      <trkpt lat="45.93896" lon="3.71858">
        <ele>1094.3</ele>
        <time>2022-08-29T11:26:28Z</time>
      </trkpt>
      <trkpt lat="45.93896" lon="3.71857">
        <ele>1094.3</ele>
        <time>2022-08-29T11:26:29Z</time>
      </trkpt>
      <trkpt lat="45.93896" lon="3.71857">
        <ele>1094.3</ele>
        <time>2022-08-29T11:26:30Z</time>
      </trkpt>
      <trkpt lat="45.93895" lon="3.71856">
        <ele>1094.4</ele>
        <time>2022-08-29T11:26:31Z</time>
      </trkpt>
      <trkpt lat="45.93895" lon="3.71855">
        <ele>1094.4</ele>
        <time>2022-08-29T11:26:32Z</time>
      </trkpt>
      <trkpt lat="45.93894" lon="3.71854">
        <ele>1094.4</ele>
        <time>2022-08-29T11:26:33Z</time>
      </trkpt>
      <trkpt lat="45.93894" lon="3.71854">
        <ele>1094.4</ele>
        <time>2022-08-29T11:26:34Z</time>
      </trkpt>
      <trkpt lat="45.93893" lon="3.71852">
        <ele>1094.5</ele>
        <time>2022-08-29T11:26:35Z</time>
      </trkpt>
      <trkpt lat="45.93892" lon="3.71851">
        <ele>1094.6</ele>
        <time>2022-08-29T11:26:36Z</time>
      </trkpt>
      <trkpt lat="45.93892" lon="3.7185">
        <ele>1094.6</ele>
        <time>2022-08-29T11:26:37Z</time>
      </trkpt>
      <trkpt lat="45.93891" lon="3.71849">
        <ele>1094.7</ele>
        <time>2022-08-29T11:26:38Z</time>
      </trkpt>
      <trkpt lat="45.9389" lon="3.71847">
        <ele>1094.7</ele>
        <time>2022-08-29T11:26:39Z</time>
      </trkpt>
      <trkpt lat="45.9389" lon="3.71846">
        <ele>1094.7</ele>
        <time>2022-08-29T11:26:40Z</time>
      </trkpt>
      <trkpt lat="45.9389" lon="3.71845">
        <ele>1094.8</ele>
        <time>2022-08-29T11:26:41Z</time>
      </trkpt>
      <trkpt lat="45.93889" lon="3.71844">
        <ele>1094.8</ele>
        <time>2022-08-29T11:26:42Z</time>
      </trkpt>
      <trkpt lat="45.93889" lon="3.71843">
        <ele>1094.8</ele>
        <time>2022-08-29T11:26:43Z</time>
      </trkpt>
      <trkpt lat="45.93888" lon="3.71842">
        <ele>1094.9</ele>
        <time>2022-08-29T11:26:44Z</time>
      </trkpt>
      <trkpt lat="45.93887" lon="3.71841">
        <ele>1094.9</ele>
        <time>2022-08-29T11:26:45Z</time>
      </trkpt>
      <trkpt lat="45.93886" lon="3.7184">
        <ele>1095</ele>
        <time>2022-08-29T11:26:46Z</time>
      </trkpt>
      <trkpt lat="45.93885" lon="3.71839">
        <ele>1095.1</ele>
        <time>2022-08-29T11:26:47Z</time>
      </trkpt>
      <trkpt lat="45.93883" lon="3.71838">
        <ele>1095.1</ele>
        <time>2022-08-29T11:26:48Z</time>
      </trkpt>
      <trkpt lat="45.93882" lon="3.71837">
        <ele>1095.2</ele>
        <time>2022-08-29T11:26:49Z</time>
      </trkpt>
      <trkpt lat="45.9388" lon="3.71836">
        <ele>1095.3</ele>
        <time>2022-08-29T11:26:50Z</time>
      </trkpt>
      <trkpt lat="45.93878" lon="3.71833">
        <ele>1095.4</ele>
        <time>2022-08-29T11:26:51Z</time>
      </trkpt>
      <trkpt lat="45.93877" lon="3.71832">
        <ele>1095.4</ele>
        <time>2022-08-29T11:26:52Z</time>
      </trkpt>
      <trkpt lat="45.93876" lon="3.71831">
        <ele>1095.5</ele>
        <time>2022-08-29T11:26:53Z</time>
      </trkpt>
      <trkpt lat="45.93875" lon="3.71829">
        <ele>1095.6</ele>
        <time>2022-08-29T11:26:54Z</time>
      </trkpt>
      <trkpt lat="45.93874" lon="3.71828">
        <ele>1095.6</ele>
        <time>2022-08-29T11:26:55Z</time>
      </trkpt>
      <trkpt lat="45.93873" lon="3.71826">
        <ele>1095.7</ele>
        <time>2022-08-29T11:26:56Z</time>
      </trkpt>
      <trkpt lat="45.93871" lon="3.71825">
        <ele>1095.8</ele>
        <time>2022-08-29T11:26:57Z</time>
      </trkpt>
      <trkpt lat="45.9387" lon="3.71823">
        <ele>1095.8</ele>
        <time>2022-08-29T11:26:58Z</time>
      </trkpt>
      <trkpt lat="45.93868" lon="3.71821">
        <ele>1095.9</ele>
        <time>2022-08-29T11:26:59Z</time>
      </trkpt>
      <trkpt lat="45.93867" lon="3.7182">
        <ele>1096</ele>
        <time>2022-08-29T11:27:00Z</time>
      </trkpt>
      <trkpt lat="45.93866" lon="3.71819">
        <ele>1096</ele>
        <time>2022-08-29T11:27:01Z</time>
      </trkpt>
      <trkpt lat="45.93866" lon="3.71818">
        <ele>1096</ele>
        <time>2022-08-29T11:27:02Z</time>
      </trkpt>
      <trkpt lat="45.93866" lon="3.71817">
        <ele>1096.1</ele>
        <time>2022-08-29T11:27:03Z</time>
      </trkpt>
      <trkpt lat="45.93866" lon="3.71815">
        <ele>1096.1</ele>
        <time>2022-08-29T11:27:04Z</time>
      </trkpt>
      <trkpt lat="45.93865" lon="3.71814">
        <ele>1096.1</ele>
        <time>2022-08-29T11:27:05Z</time>
      </trkpt>
      <trkpt lat="45.93864" lon="3.71811">
        <ele>1096.2</ele>
        <time>2022-08-29T11:27:06Z</time>
      </trkpt>
      <trkpt lat="45.93863" lon="3.71809">
        <ele>1096.3</ele>
        <time>2022-08-29T11:27:07Z</time>
      </trkpt>
      <trkpt lat="45.93863" lon="3.71807">
        <ele>1096.3</ele>
        <time>2022-08-29T11:27:08Z</time>
      </trkpt>
      <trkpt lat="45.93862" lon="3.71806">
        <ele>1096.3</ele>
        <time>2022-08-29T11:27:09Z</time>
      </trkpt>
      <trkpt lat="45.93862" lon="3.71805">
        <ele>1096.4</ele>
        <time>2022-08-29T11:27:10Z</time>
      </trkpt>
      <trkpt lat="45.93861" lon="3.71805">
        <ele>1096.4</ele>
        <time>2022-08-29T11:27:11Z</time>
      </trkpt>
      <trkpt lat="45.93861" lon="3.71805">
        <ele>1096.4</ele>
        <time>2022-08-29T11:27:12Z</time>
      </trkpt>
      <trkpt lat="45.93861" lon="3.71804">
        <ele>1096.4</ele>
        <time>2022-08-29T11:27:13Z</time>
      </trkpt>
      <trkpt lat="45.9386" lon="3.71801">
        <ele>1096.5</ele>
        <time>2022-08-29T11:27:14Z</time>
      </trkpt>
      <trkpt lat="45.9386" lon="3.71799">
        <ele>1096.6</ele>
        <time>2022-08-29T11:27:15Z</time>
      </trkpt>
      <trkpt lat="45.93859" lon="3.71797">
        <ele>1096.6</ele>
        <time>2022-08-29T11:27:16Z</time>
      </trkpt>
      <trkpt lat="45.93859" lon="3.71795">
        <ele>1096.7</ele>
        <time>2022-08-29T11:27:17Z</time>
      </trkpt>
      <trkpt lat="45.93858" lon="3.71792">
        <ele>1096.8</ele>
        <time>2022-08-29T11:27:18Z</time>
      </trkpt>
      <trkpt lat="45.93857" lon="3.71791">
        <ele>1096.8</ele>
        <time>2022-08-29T11:27:19Z</time>
      </trkpt>
      <trkpt lat="45.93857" lon="3.7179">
        <ele>1096.8</ele>
        <time>2022-08-29T11:27:20Z</time>
      </trkpt>
      <trkpt lat="45.93857" lon="3.71788">
        <ele>1096.9</ele>
        <time>2022-08-29T11:27:21Z</time>
      </trkpt>
      <trkpt lat="45.93856" lon="3.71786">
        <ele>1097</ele>
        <time>2022-08-29T11:27:22Z</time>
      </trkpt>
      <trkpt lat="45.93856" lon="3.71783">
        <ele>1097.1</ele>
        <time>2022-08-29T11:27:23Z</time>
      </trkpt>
      <trkpt lat="45.93856" lon="3.71781">
        <ele>1097.2</ele>
        <time>2022-08-29T11:27:24Z</time>
      </trkpt>
      <trkpt lat="45.93856" lon="3.71779">
        <ele>1097.2</ele>
        <time>2022-08-29T11:27:25Z</time>
      </trkpt>
      <trkpt lat="45.93856" lon="3.71778">
        <ele>1097.3</ele>
        <time>2022-08-29T11:27:26Z</time>
      </trkpt>
      <trkpt lat="45.93856" lon="3.71777">
        <ele>1097.3</ele>
        <time>2022-08-29T11:27:27Z</time>
      </trkpt>
      <trkpt lat="45.93857" lon="3.71776">
        <ele>1097.4</ele>
        <time>2022-08-29T11:27:28Z</time>
      </trkpt>
      <trkpt lat="45.93856" lon="3.71774">
        <ele>1097.4</ele>
        <time>2022-08-29T11:27:29Z</time>
      </trkpt>
      <trkpt lat="45.93856" lon="3.71772">
        <ele>1097.5</ele>
        <time>2022-08-29T11:27:30Z</time>
      </trkpt>
      <trkpt lat="45.93855" lon="3.7177">
        <ele>1097.6</ele>
        <time>2022-08-29T11:27:31Z</time>
      </trkpt>
      <trkpt lat="45.93855" lon="3.71768">
        <ele>1097.6</ele>
        <time>2022-08-29T11:27:32Z</time>
      </trkpt>
      <trkpt lat="45.93855" lon="3.71767">
        <ele>1097.7</ele>
        <time>2022-08-29T11:27:33Z</time>
      </trkpt>
      <trkpt lat="45.93855" lon="3.71766">
        <ele>1097.7</ele>
        <time>2022-08-29T11:27:34Z</time>
      </trkpt>
      <trkpt lat="45.93855" lon="3.71764">
        <ele>1097.8</ele>
        <time>2022-08-29T11:27:35Z</time>
      </trkpt>
      <trkpt lat="45.93855" lon="3.71762">
        <ele>1097.9</ele>
        <time>2022-08-29T11:27:36Z</time>
      </trkpt>
      <trkpt lat="45.93856" lon="3.71759">
        <ele>1098</ele>
        <time>2022-08-29T11:27:37Z</time>
      </trkpt>
      <trkpt lat="45.93856" lon="3.71758">
        <ele>1098</ele>
        <time>2022-08-29T11:27:38Z</time>
      </trkpt>
      <trkpt lat="45.93857" lon="3.71757">
        <ele>1098.1</ele>
        <time>2022-08-29T11:27:39Z</time>
      </trkpt>
      <trkpt lat="45.93858" lon="3.71756">
        <ele>1098.2</ele>
        <time>2022-08-29T11:27:40Z</time>
      </trkpt>
      <trkpt lat="45.93858" lon="3.71755">
        <ele>1098.2</ele>
        <time>2022-08-29T11:27:41Z</time>
      </trkpt>
      <trkpt lat="45.93859" lon="3.71754">
        <ele>1098.3</ele>
        <time>2022-08-29T11:27:42Z</time>
      </trkpt>
      <trkpt lat="45.9386" lon="3.71753">
        <ele>1098.4</ele>
        <time>2022-08-29T11:27:43Z</time>
      </trkpt>
      <trkpt lat="45.93861" lon="3.71752">
        <ele>1098.4</ele>
        <time>2022-08-29T11:27:44Z</time>
      </trkpt>
      <trkpt lat="45.93862" lon="3.71752">
        <ele>1098.4</ele>
        <time>2022-08-29T11:27:45Z</time>
      </trkpt>
      <trkpt lat="45.93862" lon="3.71751">
        <ele>1098.5</ele>
        <time>2022-08-29T11:27:46Z</time>
      </trkpt>
      <trkpt lat="45.93863" lon="3.7175">
        <ele>1098.5</ele>
        <time>2022-08-29T11:27:47Z</time>
      </trkpt>
      <trkpt lat="45.93864" lon="3.71749">
        <ele>1098.6</ele>
        <time>2022-08-29T11:27:48Z</time>
      </trkpt>
      <trkpt lat="45.93864" lon="3.71748">
        <ele>1098.6</ele>
        <time>2022-08-29T11:27:49Z</time>
      </trkpt>
      <trkpt lat="45.93864" lon="3.71747">
        <ele>1098.7</ele>
        <time>2022-08-29T11:27:50Z</time>
      </trkpt>
      <trkpt lat="45.93864" lon="3.71746">
        <ele>1098.8</ele>
        <time>2022-08-29T11:27:51Z</time>
      </trkpt>
      <trkpt lat="45.93864" lon="3.71744">
        <ele>1098.8</ele>
        <time>2022-08-29T11:27:52Z</time>
      </trkpt>
      <trkpt lat="45.93865" lon="3.71743">
        <ele>1098.9</ele>
        <time>2022-08-29T11:27:53Z</time>
      </trkpt>
      <trkpt lat="45.93864" lon="3.71742">
        <ele>1098.9</ele>
        <time>2022-08-29T11:27:54Z</time>
      </trkpt>
      <trkpt lat="45.93864" lon="3.7174">
        <ele>1099</ele>
        <time>2022-08-29T11:27:55Z</time>
      </trkpt>
      <trkpt lat="45.93864" lon="3.71738">
        <ele>1099.1</ele>
        <time>2022-08-29T11:27:56Z</time>
      </trkpt>
      <trkpt lat="45.93864" lon="3.71736">
        <ele>1099.2</ele>
        <time>2022-08-29T11:27:57Z</time>
      </trkpt>
      <trkpt lat="45.93864" lon="3.71734">
        <ele>1099.3</ele>
        <time>2022-08-29T11:27:58Z</time>
      </trkpt>
      <trkpt lat="45.93863" lon="3.71732">
        <ele>1099.4</ele>
        <time>2022-08-29T11:27:59Z</time>
      </trkpt>
      <trkpt lat="45.93862" lon="3.71727">
        <ele>1099.6</ele>
        <time>2022-08-29T11:28:00Z</time>
      </trkpt>
      <trkpt lat="45.93862" lon="3.71725">
        <ele>1099.7</ele>
        <time>2022-08-29T11:28:01Z</time>
      </trkpt>
      <trkpt lat="45.93862" lon="3.71721">
        <ele>1099.9</ele>
        <time>2022-08-29T11:28:02Z</time>
      </trkpt>
      <trkpt lat="45.93862" lon="3.71717">
        <ele>1100</ele>
        <time>2022-08-29T11:28:03Z</time>
      </trkpt>
      <trkpt lat="45.93862" lon="3.71713">
        <ele>1100.2</ele>
        <time>2022-08-29T11:28:04Z</time>
      </trkpt>
      <trkpt lat="45.93863" lon="3.71709">
        <ele>1100.4</ele>
        <time>2022-08-29T11:28:05Z</time>
      </trkpt>
      <trkpt lat="45.93863" lon="3.71707">
        <ele>1100.5</ele>
        <time>2022-08-29T11:28:06Z</time>
      </trkpt>
      <trkpt lat="45.93864" lon="3.71706">
        <ele>1100.5</ele>
        <time>2022-08-29T11:28:07Z</time>
      </trkpt>
      <trkpt lat="45.93865" lon="3.71704">
        <ele>1100.6</ele>
        <time>2022-08-29T11:28:08Z</time>
      </trkpt>
      <trkpt lat="45.93865" lon="3.71703">
        <ele>1100.7</ele>
        <time>2022-08-29T11:28:09Z</time>
      </trkpt>
      <trkpt lat="45.93866" lon="3.71702">
        <ele>1100.7</ele>
        <time>2022-08-29T11:28:10Z</time>
      </trkpt>
      <trkpt lat="45.93866" lon="3.71701">
        <ele>1100.7</ele>
        <time>2022-08-29T11:28:11Z</time>
      </trkpt>
      <trkpt lat="45.93867" lon="3.71701">
        <ele>1100.8</ele>
        <time>2022-08-29T11:28:12Z</time>
      </trkpt>
      <trkpt lat="45.93868" lon="3.71699">
        <ele>1100.8</ele>
        <time>2022-08-29T11:28:13Z</time>
      </trkpt>
      <trkpt lat="45.93869" lon="3.71698">
        <ele>1100.9</ele>
        <time>2022-08-29T11:28:14Z</time>
      </trkpt>
      <trkpt lat="45.9387" lon="3.71696">
        <ele>1101</ele>
        <time>2022-08-29T11:28:15Z</time>
      </trkpt>
      <trkpt lat="45.93871" lon="3.71695">
        <ele>1101.1</ele>
        <time>2022-08-29T11:28:16Z</time>
      </trkpt>
      <trkpt lat="45.93872" lon="3.71694">
        <ele>1101.1</ele>
        <time>2022-08-29T11:28:17Z</time>
      </trkpt>
      <trkpt lat="45.93872" lon="3.71693">
        <ele>1101.2</ele>
        <time>2022-08-29T11:28:18Z</time>
      </trkpt>
      <trkpt lat="45.93873" lon="3.71691">
        <ele>1101.2</ele>
        <time>2022-08-29T11:28:19Z</time>
      </trkpt>
      <trkpt lat="45.93872" lon="3.7169">
        <ele>1101.3</ele>
        <time>2022-08-29T11:28:20Z</time>
      </trkpt>
      <trkpt lat="45.93872" lon="3.71688">
        <ele>1101.3</ele>
        <time>2022-08-29T11:28:21Z</time>
      </trkpt>
      <trkpt lat="45.93872" lon="3.71686">
        <ele>1101.4</ele>
        <time>2022-08-29T11:28:22Z</time>
      </trkpt>
      <trkpt lat="45.93871" lon="3.71683">
        <ele>1101.5</ele>
        <time>2022-08-29T11:28:23Z</time>
      </trkpt>
      <trkpt lat="45.9387" lon="3.71681">
        <ele>1101.6</ele>
        <time>2022-08-29T11:28:24Z</time>
      </trkpt>
      <trkpt lat="45.9387" lon="3.71679">
        <ele>1101.6</ele>
        <time>2022-08-29T11:28:25Z</time>
      </trkpt>
      <trkpt lat="45.93869" lon="3.71676">
        <ele>1101.7</ele>
        <time>2022-08-29T11:28:26Z</time>
      </trkpt>
      <trkpt lat="45.93869" lon="3.71674">
        <ele>1101.8</ele>
        <time>2022-08-29T11:28:27Z</time>
      </trkpt>
      <trkpt lat="45.93869" lon="3.71672">
        <ele>1101.9</ele>
        <time>2022-08-29T11:28:28Z</time>
      </trkpt>
      <trkpt lat="45.93868" lon="3.71669">
        <ele>1102</ele>
        <time>2022-08-29T11:28:29Z</time>
      </trkpt>
      <trkpt lat="45.93868" lon="3.71667">
        <ele>1102.1</ele>
        <time>2022-08-29T11:28:30Z</time>
      </trkpt>
      <trkpt lat="45.93868" lon="3.71665">
        <ele>1102.2</ele>
        <time>2022-08-29T11:28:31Z</time>
      </trkpt>
      <trkpt lat="45.93868" lon="3.71663">
        <ele>1102.2</ele>
        <time>2022-08-29T11:28:32Z</time>
      </trkpt>
      <trkpt lat="45.93868" lon="3.71661">
        <ele>1102.3</ele>
        <time>2022-08-29T11:28:33Z</time>
      </trkpt>
      <trkpt lat="45.93869" lon="3.71658">
        <ele>1102.5</ele>
        <time>2022-08-29T11:28:34Z</time>
      </trkpt>
      <trkpt lat="45.93869" lon="3.71657">
        <ele>1102.5</ele>
        <time>2022-08-29T11:28:35Z</time>
      </trkpt>
      <trkpt lat="45.93869" lon="3.71655">
        <ele>1102.6</ele>
        <time>2022-08-29T11:28:36Z</time>
      </trkpt>
      <trkpt lat="45.9387" lon="3.71653">
        <ele>1102.7</ele>
        <time>2022-08-29T11:28:37Z</time>
      </trkpt>
      <trkpt lat="45.9387" lon="3.71651">
        <ele>1102.8</ele>
        <time>2022-08-29T11:28:38Z</time>
      </trkpt>
      <trkpt lat="45.9387" lon="3.71648">
        <ele>1102.9</ele>
        <time>2022-08-29T11:28:39Z</time>
      </trkpt>
      <trkpt lat="45.9387" lon="3.71647">
        <ele>1102.9</ele>
        <time>2022-08-29T11:28:40Z</time>
      </trkpt>
      <trkpt lat="45.9387" lon="3.71646">
        <ele>1103</ele>
        <time>2022-08-29T11:28:41Z</time>
      </trkpt>
      <trkpt lat="45.93869" lon="3.71644">
        <ele>1103.1</ele>
        <time>2022-08-29T11:28:42Z</time>
      </trkpt>
      <trkpt lat="45.93869" lon="3.71643">
        <ele>1103.2</ele>
        <time>2022-08-29T11:28:43Z</time>
      </trkpt>
      <trkpt lat="45.93869" lon="3.71641">
        <ele>1103.3</ele>
        <time>2022-08-29T11:28:44Z</time>
      </trkpt>
      <trkpt lat="45.93868" lon="3.71639">
        <ele>1103.4</ele>
        <time>2022-08-29T11:28:45Z</time>
      </trkpt>
      <trkpt lat="45.93867" lon="3.71638">
        <ele>1103.5</ele>
        <time>2022-08-29T11:28:46Z</time>
      </trkpt>
      <trkpt lat="45.93867" lon="3.71637">
        <ele>1103.5</ele>
        <time>2022-08-29T11:28:47Z</time>
      </trkpt>
      <trkpt lat="45.93866" lon="3.71635">
        <ele>1103.6</ele>
        <time>2022-08-29T11:28:48Z</time>
      </trkpt>
      <trkpt lat="45.93866" lon="3.71633">
        <ele>1103.7</ele>
        <time>2022-08-29T11:28:49Z</time>
      </trkpt>
      <trkpt lat="45.93865" lon="3.71631">
        <ele>1103.9</ele>
        <time>2022-08-29T11:28:50Z</time>
      </trkpt>
      <trkpt lat="45.93864" lon="3.7163">
        <ele>1104</ele>
        <time>2022-08-29T11:28:51Z</time>
      </trkpt>
      <trkpt lat="45.93863" lon="3.71628">
        <ele>1104.1</ele>
        <time>2022-08-29T11:28:52Z</time>
      </trkpt>
      <trkpt lat="45.93862" lon="3.71627">
        <ele>1104.2</ele>
        <time>2022-08-29T11:28:53Z</time>
      </trkpt>
      <trkpt lat="45.93861" lon="3.71626">
        <ele>1104.3</ele>
        <time>2022-08-29T11:28:54Z</time>
      </trkpt>
      <trkpt lat="45.9386" lon="3.71624">
        <ele>1104.4</ele>
        <time>2022-08-29T11:28:55Z</time>
      </trkpt>
      <trkpt lat="45.93858" lon="3.71621">
        <ele>1104.7</ele>
        <time>2022-08-29T11:28:56Z</time>
      </trkpt>
      <trkpt lat="45.93857" lon="3.7162">
        <ele>1104.8</ele>
        <time>2022-08-29T11:28:57Z</time>
      </trkpt>
      <trkpt lat="45.93855" lon="3.71617">
        <ele>1105.1</ele>
        <time>2022-08-29T11:28:58Z</time>
      </trkpt>
      <trkpt lat="45.93854" lon="3.71616">
        <ele>1105.1</ele>
        <time>2022-08-29T11:28:59Z</time>
      </trkpt>
      <trkpt lat="45.93853" lon="3.71614">
        <ele>1105.3</ele>
        <time>2022-08-29T11:29:00Z</time>
      </trkpt>
      <trkpt lat="45.93853" lon="3.71612">
        <ele>1105.4</ele>
        <time>2022-08-29T11:29:01Z</time>
      </trkpt>
      <trkpt lat="45.93852" lon="3.71611">
        <ele>1105.5</ele>
        <time>2022-08-29T11:29:02Z</time>
      </trkpt>
      <trkpt lat="45.93852" lon="3.71609">
        <ele>1105.6</ele>
        <time>2022-08-29T11:29:03Z</time>
      </trkpt>
      <trkpt lat="45.93852" lon="3.71607">
        <ele>1105.7</ele>
        <time>2022-08-29T11:29:04Z</time>
      </trkpt>
      <trkpt lat="45.93852" lon="3.71606">
        <ele>1105.8</ele>
        <time>2022-08-29T11:29:05Z</time>
      </trkpt>
      <trkpt lat="45.93852" lon="3.71604">
        <ele>1105.9</ele>
        <time>2022-08-29T11:29:06Z</time>
      </trkpt>
      <trkpt lat="45.93851" lon="3.71603">
        <ele>1106</ele>
        <time>2022-08-29T11:29:07Z</time>
      </trkpt>
      <trkpt lat="45.93851" lon="3.71601">
        <ele>1106.1</ele>
        <time>2022-08-29T11:29:08Z</time>
      </trkpt>
      <trkpt lat="45.93851" lon="3.716">
        <ele>1106.2</ele>
        <time>2022-08-29T11:29:09Z</time>
      </trkpt>
      <trkpt lat="45.93851" lon="3.71599">
        <ele>1106.3</ele>
        <time>2022-08-29T11:29:10Z</time>
      </trkpt>
      <trkpt lat="45.93851" lon="3.71597">
        <ele>1106.3</ele>
        <time>2022-08-29T11:29:11Z</time>
      </trkpt>
      <trkpt lat="45.93851" lon="3.71595">
        <ele>1106.4</ele>
        <time>2022-08-29T11:29:12Z</time>
      </trkpt>
      <trkpt lat="45.93851" lon="3.71594">
        <ele>1106.5</ele>
        <time>2022-08-29T11:29:13Z</time>
      </trkpt>
      <trkpt lat="45.93852" lon="3.7159">
        <ele>1106.7</ele>
        <time>2022-08-29T11:29:14Z</time>
      </trkpt>
      <trkpt lat="45.93852" lon="3.71589">
        <ele>1106.8</ele>
        <time>2022-08-29T11:29:15Z</time>
      </trkpt>
      <trkpt lat="45.93852" lon="3.71588">
        <ele>1106.8</ele>
        <time>2022-08-29T11:29:16Z</time>
      </trkpt>
      <trkpt lat="45.93852" lon="3.71586">
        <ele>1106.9</ele>
        <time>2022-08-29T11:29:17Z</time>
      </trkpt>
      <trkpt lat="45.93852" lon="3.71584">
        <ele>1107</ele>
        <time>2022-08-29T11:29:18Z</time>
      </trkpt>
      <trkpt lat="45.93853" lon="3.71581">
        <ele>1107.2</ele>
        <time>2022-08-29T11:29:19Z</time>
      </trkpt>
      <trkpt lat="45.93853" lon="3.71579">
        <ele>1107.3</ele>
        <time>2022-08-29T11:29:20Z</time>
      </trkpt>
      <trkpt lat="45.93853" lon="3.71578">
        <ele>1107.3</ele>
        <time>2022-08-29T11:29:21Z</time>
      </trkpt>
      <trkpt lat="45.93854" lon="3.71575">
        <ele>1107.5</ele>
        <time>2022-08-29T11:29:22Z</time>
      </trkpt>
      <trkpt lat="45.93854" lon="3.71574">
        <ele>1107.5</ele>
        <time>2022-08-29T11:29:23Z</time>
      </trkpt>
      <trkpt lat="45.93854" lon="3.71573">
        <ele>1107.6</ele>
        <time>2022-08-29T11:29:24Z</time>
      </trkpt>
      <trkpt lat="45.93854" lon="3.7157">
        <ele>1107.7</ele>
        <time>2022-08-29T11:29:25Z</time>
      </trkpt>
      <trkpt lat="45.93855" lon="3.71568">
        <ele>1107.9</ele>
        <time>2022-08-29T11:29:26Z</time>
      </trkpt>
      <trkpt lat="45.93856" lon="3.71565">
        <ele>1108</ele>
        <time>2022-08-29T11:29:27Z</time>
      </trkpt>
      <trkpt lat="45.93856" lon="3.71564">
        <ele>1108.1</ele>
        <time>2022-08-29T11:29:28Z</time>
      </trkpt>
      <trkpt lat="45.93856" lon="3.71563">
        <ele>1108.2</ele>
        <time>2022-08-29T11:29:29Z</time>
      </trkpt>
      <trkpt lat="45.93857" lon="3.71561">
        <ele>1108.3</ele>
        <time>2022-08-29T11:29:30Z</time>
      </trkpt>
      <trkpt lat="45.93858" lon="3.71559">
        <ele>1108.4</ele>
        <time>2022-08-29T11:29:31Z</time>
      </trkpt>
      <trkpt lat="45.93859" lon="3.71558">
        <ele>1108.5</ele>
        <time>2022-08-29T11:29:32Z</time>
      </trkpt>
      <trkpt lat="45.93861" lon="3.71557">
        <ele>1108.6</ele>
        <time>2022-08-29T11:29:33Z</time>
      </trkpt>
      <trkpt lat="45.93862" lon="3.71555">
        <ele>1108.8</ele>
        <time>2022-08-29T11:29:34Z</time>
      </trkpt>
      <trkpt lat="45.93863" lon="3.71554">
        <ele>1108.9</ele>
        <time>2022-08-29T11:29:35Z</time>
      </trkpt>
      <trkpt lat="45.93864" lon="3.71553">
        <ele>1109</ele>
        <time>2022-08-29T11:29:36Z</time>
      </trkpt>
      <trkpt lat="45.93865" lon="3.71552">
        <ele>1109</ele>
        <time>2022-08-29T11:29:37Z</time>
      </trkpt>
      <trkpt lat="45.93866" lon="3.71552">
        <ele>1109.1</ele>
        <time>2022-08-29T11:29:38Z</time>
      </trkpt>
      <trkpt lat="45.93867" lon="3.71551">
        <ele>1109.2</ele>
        <time>2022-08-29T11:29:39Z</time>
      </trkpt>
      <trkpt lat="45.93867" lon="3.7155">
        <ele>1109.3</ele>
        <time>2022-08-29T11:29:40Z</time>
      </trkpt>
      <trkpt lat="45.93868" lon="3.71549">
        <ele>1109.4</ele>
        <time>2022-08-29T11:29:41Z</time>
      </trkpt>
      <trkpt lat="45.93869" lon="3.71548">
        <ele>1109.4</ele>
        <time>2022-08-29T11:29:42Z</time>
      </trkpt>
      <trkpt lat="45.93869" lon="3.71547">
        <ele>1109.5</ele>
        <time>2022-08-29T11:29:43Z</time>
      </trkpt>
      <trkpt lat="45.93869" lon="3.71546">
        <ele>1109.5</ele>
        <time>2022-08-29T11:29:44Z</time>
      </trkpt>
      <trkpt lat="45.9387" lon="3.71545">
        <ele>1109.6</ele>
        <time>2022-08-29T11:29:45Z</time>
      </trkpt>
      <trkpt lat="45.93871" lon="3.71544">
        <ele>1109.7</ele>
        <time>2022-08-29T11:29:46Z</time>
      </trkpt>
      <trkpt lat="45.93871" lon="3.71543">
        <ele>1109.8</ele>
        <time>2022-08-29T11:29:47Z</time>
      </trkpt>
      <trkpt lat="45.93872" lon="3.71542">
        <ele>1109.8</ele>
        <time>2022-08-29T11:29:48Z</time>
      </trkpt>
      <trkpt lat="45.93873" lon="3.71541">
        <ele>1109.9</ele>
        <time>2022-08-29T11:29:49Z</time>
      </trkpt>
      <trkpt lat="45.93873" lon="3.71539">
        <ele>1110</ele>
        <time>2022-08-29T11:29:50Z</time>
      </trkpt>
      <trkpt lat="45.93874" lon="3.71538">
        <ele>1110.1</ele>
        <time>2022-08-29T11:29:51Z</time>
      </trkpt>
      <trkpt lat="45.93875" lon="3.71537">
        <ele>1110.2</ele>
        <time>2022-08-29T11:29:52Z</time>
      </trkpt>
      <trkpt lat="45.93875" lon="3.71535">
        <ele>1110.2</ele>
        <time>2022-08-29T11:29:53Z</time>
      </trkpt>
      <trkpt lat="45.93875" lon="3.71533">
        <ele>1110.3</ele>
        <time>2022-08-29T11:29:54Z</time>
      </trkpt>
      <trkpt lat="45.93875" lon="3.7153">
        <ele>1110.4</ele>
        <time>2022-08-29T11:29:55Z</time>
      </trkpt>
      <trkpt lat="45.93875" lon="3.71529">
        <ele>1110.5</ele>
        <time>2022-08-29T11:29:56Z</time>
      </trkpt>
      <trkpt lat="45.93875" lon="3.71528">
        <ele>1110.5</ele>
        <time>2022-08-29T11:29:57Z</time>
      </trkpt>
      <trkpt lat="45.93876" lon="3.71525">
        <ele>1110.7</ele>
        <time>2022-08-29T11:29:58Z</time>
      </trkpt>
      <trkpt lat="45.93876" lon="3.71524">
        <ele>1110.7</ele>
        <time>2022-08-29T11:29:59Z</time>
      </trkpt>
      <trkpt lat="45.93876" lon="3.71522">
        <ele>1110.8</ele>
        <time>2022-08-29T11:30:00Z</time>
      </trkpt>
      <trkpt lat="45.93877" lon="3.7152">
        <ele>1110.9</ele>
        <time>2022-08-29T11:30:01Z</time>
      </trkpt>
      <trkpt lat="45.93878" lon="3.71518">
        <ele>1110.9</ele>
        <time>2022-08-29T11:30:02Z</time>
      </trkpt>
      <trkpt lat="45.93878" lon="3.71515">
        <ele>1111</ele>
        <time>2022-08-29T11:30:03Z</time>
      </trkpt>
      <trkpt lat="45.93879" lon="3.71513">
        <ele>1111.1</ele>
        <time>2022-08-29T11:30:04Z</time>
      </trkpt>
      <trkpt lat="45.93879" lon="3.7151">
        <ele>1111.2</ele>
        <time>2022-08-29T11:30:05Z</time>
      </trkpt>
      <trkpt lat="45.93879" lon="3.71509">
        <ele>1111.3</ele>
        <time>2022-08-29T11:30:06Z</time>
      </trkpt>
      <trkpt lat="45.93879" lon="3.71507">
        <ele>1111.3</ele>
        <time>2022-08-29T11:30:07Z</time>
      </trkpt>
      <trkpt lat="45.93878" lon="3.71505">
        <ele>1111.4</ele>
        <time>2022-08-29T11:30:08Z</time>
      </trkpt>
      <trkpt lat="45.93878" lon="3.71503">
        <ele>1111.5</ele>
        <time>2022-08-29T11:30:09Z</time>
      </trkpt>
      <trkpt lat="45.93878" lon="3.71501">
        <ele>1111.5</ele>
        <time>2022-08-29T11:30:10Z</time>
      </trkpt>
      <trkpt lat="45.93878" lon="3.71498">
        <ele>1111.6</ele>
        <time>2022-08-29T11:30:11Z</time>
      </trkpt>
      <trkpt lat="45.93878" lon="3.71496">
        <ele>1111.7</ele>
        <time>2022-08-29T11:30:12Z</time>
      </trkpt>
      <trkpt lat="45.93878" lon="3.71494">
        <ele>1111.7</ele>
        <time>2022-08-29T11:30:13Z</time>
      </trkpt>
      <trkpt lat="45.93879" lon="3.71492">
        <ele>1111.8</ele>
        <time>2022-08-29T11:30:14Z</time>
      </trkpt>
      <trkpt lat="45.93879" lon="3.71491">
        <ele>1111.8</ele>
        <time>2022-08-29T11:30:15Z</time>
      </trkpt>
      <trkpt lat="45.9388" lon="3.71489">
        <ele>1111.9</ele>
        <time>2022-08-29T11:30:16Z</time>
      </trkpt>
      <trkpt lat="45.9388" lon="3.71489">
        <ele>1111.9</ele>
        <time>2022-08-29T11:30:17Z</time>
      </trkpt>
      <trkpt lat="45.93881" lon="3.71488">
        <ele>1112</ele>
        <time>2022-08-29T11:30:18Z</time>
      </trkpt>
      <trkpt lat="45.93882" lon="3.71487">
        <ele>1112</ele>
        <time>2022-08-29T11:30:19Z</time>
      </trkpt>
      <trkpt lat="45.93883" lon="3.71486">
        <ele>1112</ele>
        <time>2022-08-29T11:30:20Z</time>
      </trkpt>
      <trkpt lat="45.93883" lon="3.71485">
        <ele>1112.1</ele>
        <time>2022-08-29T11:30:21Z</time>
      </trkpt>
      <trkpt lat="45.93883" lon="3.71483">
        <ele>1112.1</ele>
        <time>2022-08-29T11:30:22Z</time>
      </trkpt>
      <trkpt lat="45.93883" lon="3.71482">
        <ele>1112.2</ele>
        <time>2022-08-29T11:30:23Z</time>
      </trkpt>
      <trkpt lat="45.93884" lon="3.71481">
        <ele>1112.2</ele>
        <time>2022-08-29T11:30:24Z</time>
      </trkpt>
      <trkpt lat="45.93884" lon="3.7148">
        <ele>1112.2</ele>
        <time>2022-08-29T11:30:25Z</time>
      </trkpt>
      <trkpt lat="45.93883" lon="3.71478">
        <ele>1112.3</ele>
        <time>2022-08-29T11:30:26Z</time>
      </trkpt>
      <trkpt lat="45.93883" lon="3.71477">
        <ele>1112.3</ele>
        <time>2022-08-29T11:30:27Z</time>
      </trkpt>
      <trkpt lat="45.93883" lon="3.71476">
        <ele>1112.3</ele>
        <time>2022-08-29T11:30:28Z</time>
      </trkpt>
      <trkpt lat="45.93883" lon="3.71475">
        <ele>1112.4</ele>
        <time>2022-08-29T11:30:29Z</time>
      </trkpt>
      <trkpt lat="45.93883" lon="3.71474">
        <ele>1112.4</ele>
        <time>2022-08-29T11:30:30Z</time>
      </trkpt>
      <trkpt lat="45.93884" lon="3.71473">
        <ele>1112.4</ele>
        <time>2022-08-29T11:30:31Z</time>
      </trkpt>
      <trkpt lat="45.93884" lon="3.71471">
        <ele>1112.5</ele>
        <time>2022-08-29T11:30:32Z</time>
      </trkpt>
      <trkpt lat="45.93885" lon="3.71469">
        <ele>1112.5</ele>
        <time>2022-08-29T11:30:33Z</time>
      </trkpt>
      <trkpt lat="45.93885" lon="3.71467">
        <ele>1112.6</ele>
        <time>2022-08-29T11:30:34Z</time>
      </trkpt>
      <trkpt lat="45.93886" lon="3.71465">
        <ele>1112.6</ele>
        <time>2022-08-29T11:30:35Z</time>
      </trkpt>
      <trkpt lat="45.93886" lon="3.71462">
        <ele>1112.6</ele>
        <time>2022-08-29T11:30:36Z</time>
      </trkpt>
      <trkpt lat="45.93887" lon="3.7146">
        <ele>1112.6</ele>
        <time>2022-08-29T11:30:37Z</time>
      </trkpt>
      <trkpt lat="45.93887" lon="3.71458">
        <ele>1112.6</ele>
        <time>2022-08-29T11:30:38Z</time>
      </trkpt>
      <trkpt lat="45.93888" lon="3.71457">
        <ele>1112.6</ele>
        <time>2022-08-29T11:30:39Z</time>
      </trkpt>
      <trkpt lat="45.93889" lon="3.71454">
        <ele>1112.6</ele>
        <time>2022-08-29T11:30:40Z</time>
      </trkpt>
      <trkpt lat="45.9389" lon="3.71452">
        <ele>1112.6</ele>
        <time>2022-08-29T11:30:41Z</time>
      </trkpt>
      <trkpt lat="45.9389" lon="3.71451">
        <ele>1112.6</ele>
        <time>2022-08-29T11:30:42Z</time>
      </trkpt>
      <trkpt lat="45.93891" lon="3.71447">
        <ele>1112.6</ele>
        <time>2022-08-29T11:30:43Z</time>
      </trkpt>
      <trkpt lat="45.93891" lon="3.71445">
        <ele>1112.6</ele>
        <time>2022-08-29T11:30:44Z</time>
      </trkpt>
      <trkpt lat="45.93892" lon="3.71441">
        <ele>1112.6</ele>
        <time>2022-08-29T11:30:45Z</time>
      </trkpt>
      <trkpt lat="45.93892" lon="3.71439">
        <ele>1112.6</ele>
        <time>2022-08-29T11:30:46Z</time>
      </trkpt>
      <trkpt lat="45.93893" lon="3.71435">
        <ele>1112.6</ele>
        <time>2022-08-29T11:30:47Z</time>
      </trkpt>
      <trkpt lat="45.93893" lon="3.71433">
        <ele>1112.6</ele>
        <time>2022-08-29T11:30:48Z</time>
      </trkpt>
      <trkpt lat="45.93893" lon="3.71431">
        <ele>1112.6</ele>
        <time>2022-08-29T11:30:49Z</time>
      </trkpt>
      <trkpt lat="45.93893" lon="3.7143">
        <ele>1112.6</ele>
        <time>2022-08-29T11:30:50Z</time>
      </trkpt>
      <trkpt lat="45.93893" lon="3.71428">
        <ele>1112.6</ele>
        <time>2022-08-29T11:30:51Z</time>
      </trkpt>
      <trkpt lat="45.93894" lon="3.71427">
        <ele>1112.6</ele>
        <time>2022-08-29T11:30:52Z</time>
      </trkpt>
      <trkpt lat="45.93894" lon="3.71425">
        <ele>1112.6</ele>
        <time>2022-08-29T11:30:53Z</time>
      </trkpt>
      <trkpt lat="45.93894" lon="3.71423">
        <ele>1112.6</ele>
        <time>2022-08-29T11:30:54Z</time>
      </trkpt>
      <trkpt lat="45.93894" lon="3.71422">
        <ele>1112.6</ele>
        <time>2022-08-29T11:30:55Z</time>
      </trkpt>
      <trkpt lat="45.93893" lon="3.71421">
        <ele>1112.6</ele>
        <time>2022-08-29T11:30:56Z</time>
      </trkpt>
      <trkpt lat="45.93893" lon="3.7142">
        <ele>1112.6</ele>
        <time>2022-08-29T11:30:57Z</time>
      </trkpt>
      <trkpt lat="45.93893" lon="3.71419">
        <ele>1112.6</ele>
        <time>2022-08-29T11:30:58Z</time>
      </trkpt>
      <trkpt lat="45.93893" lon="3.71417">
        <ele>1112.6</ele>
        <time>2022-08-29T11:30:59Z</time>
      </trkpt>
      <trkpt lat="45.93893" lon="3.71416">
        <ele>1112.6</ele>
        <time>2022-08-29T11:31:00Z</time>
      </trkpt>
      <trkpt lat="45.93893" lon="3.71414">
        <ele>1112.6</ele>
        <time>2022-08-29T11:31:01Z</time>
      </trkpt>
      <trkpt lat="45.93893" lon="3.71413">
        <ele>1112.6</ele>
        <time>2022-08-29T11:31:02Z</time>
      </trkpt>
      <trkpt lat="45.93894" lon="3.71411">
        <ele>1112.6</ele>
        <time>2022-08-29T11:31:03Z</time>
      </trkpt>
      <trkpt lat="45.93894" lon="3.71409">
        <ele>1112.6</ele>
        <time>2022-08-29T11:31:04Z</time>
      </trkpt>
      <trkpt lat="45.93895" lon="3.71407">
        <ele>1112.6</ele>
        <time>2022-08-29T11:31:05Z</time>
      </trkpt>
      <trkpt lat="45.93897" lon="3.71404">
        <ele>1112.5</ele>
        <time>2022-08-29T11:31:06Z</time>
      </trkpt>
      <trkpt lat="45.93898" lon="3.71403">
        <ele>1112.5</ele>
        <time>2022-08-29T11:31:07Z</time>
      </trkpt>
      <trkpt lat="45.93899" lon="3.71401">
        <ele>1112.5</ele>
        <time>2022-08-29T11:31:08Z</time>
      </trkpt>
      <trkpt lat="45.939" lon="3.714">
        <ele>1112.5</ele>
        <time>2022-08-29T11:31:09Z</time>
      </trkpt>
      <trkpt lat="45.939" lon="3.71399">
        <ele>1112.5</ele>
        <time>2022-08-29T11:31:10Z</time>
      </trkpt>
      <trkpt lat="45.93901" lon="3.71397">
        <ele>1112.5</ele>
        <time>2022-08-29T11:31:11Z</time>
      </trkpt>
      <trkpt lat="45.93902" lon="3.71395">
        <ele>1112.5</ele>
        <time>2022-08-29T11:31:12Z</time>
      </trkpt>
      <trkpt lat="45.93902" lon="3.71393">
        <ele>1112.4</ele>
        <time>2022-08-29T11:31:13Z</time>
      </trkpt>
      <trkpt lat="45.93903" lon="3.71391">
        <ele>1112.4</ele>
        <time>2022-08-29T11:31:14Z</time>
      </trkpt>
      <trkpt lat="45.93903" lon="3.7139">
        <ele>1112.4</ele>
        <time>2022-08-29T11:31:15Z</time>
      </trkpt>
      <trkpt lat="45.93904" lon="3.71387">
        <ele>1112.4</ele>
        <time>2022-08-29T11:31:16Z</time>
      </trkpt>
      <trkpt lat="45.93904" lon="3.71385">
        <ele>1112.4</ele>
        <time>2022-08-29T11:31:17Z</time>
      </trkpt>
      <trkpt lat="45.93904" lon="3.71383">
        <ele>1112.4</ele>
        <time>2022-08-29T11:31:18Z</time>
      </trkpt>
      <trkpt lat="45.93904" lon="3.7138">
        <ele>1112.3</ele>
        <time>2022-08-29T11:31:19Z</time>
      </trkpt>
      <trkpt lat="45.93903" lon="3.71378">
        <ele>1112.3</ele>
        <time>2022-08-29T11:31:20Z</time>
      </trkpt>
      <trkpt lat="45.93903" lon="3.71376">
        <ele>1112.3</ele>
        <time>2022-08-29T11:31:21Z</time>
      </trkpt>
      <trkpt lat="45.93903" lon="3.71374">
        <ele>1112.3</ele>
        <time>2022-08-29T11:31:22Z</time>
      </trkpt>
      <trkpt lat="45.93902" lon="3.71373">
        <ele>1112.3</ele>
        <time>2022-08-29T11:31:23Z</time>
      </trkpt>
      <trkpt lat="45.93902" lon="3.71371">
        <ele>1112.3</ele>
        <time>2022-08-29T11:31:24Z</time>
      </trkpt>
      <trkpt lat="45.93902" lon="3.7137">
        <ele>1112.3</ele>
        <time>2022-08-29T11:31:25Z</time>
      </trkpt>
      <trkpt lat="45.93902" lon="3.71369">
        <ele>1112.2</ele>
        <time>2022-08-29T11:31:26Z</time>
      </trkpt>
      <trkpt lat="45.93902" lon="3.71367">
        <ele>1112.2</ele>
        <time>2022-08-29T11:31:27Z</time>
      </trkpt>
      <trkpt lat="45.93903" lon="3.71366">
        <ele>1112.2</ele>
        <time>2022-08-29T11:31:28Z</time>
      </trkpt>
      <trkpt lat="45.93903" lon="3.71364">
        <ele>1112.2</ele>
        <time>2022-08-29T11:31:29Z</time>
      </trkpt>
      <trkpt lat="45.93904" lon="3.71362">
        <ele>1112.2</ele>
        <time>2022-08-29T11:31:30Z</time>
      </trkpt>
      <trkpt lat="45.93904" lon="3.71362">
        <ele>1112.2</ele>
        <time>2022-08-29T11:31:31Z</time>
      </trkpt>
      <trkpt lat="45.93905" lon="3.71361">
        <ele>1112.2</ele>
        <time>2022-08-29T11:31:32Z</time>
      </trkpt>
      <trkpt lat="45.93905" lon="3.7136">
        <ele>1112.2</ele>
        <time>2022-08-29T11:31:33Z</time>
      </trkpt>
      <trkpt lat="45.93905" lon="3.71359">
        <ele>1112.2</ele>
        <time>2022-08-29T11:31:34Z</time>
      </trkpt>
      <trkpt lat="45.93906" lon="3.71359">
        <ele>1112.2</ele>
        <time>2022-08-29T11:31:35Z</time>
      </trkpt>
      <trkpt lat="45.93906" lon="3.71358">
        <ele>1112.2</ele>
        <time>2022-08-29T11:31:36Z</time>
      </trkpt>
      <trkpt lat="45.93907" lon="3.71357">
        <ele>1112.2</ele>
        <time>2022-08-29T11:31:37Z</time>
      </trkpt>
      <trkpt lat="45.93908" lon="3.71356">
        <ele>1112.2</ele>
        <time>2022-08-29T11:31:38Z</time>
      </trkpt>
      <trkpt lat="45.93908" lon="3.71354">
        <ele>1112.2</ele>
        <time>2022-08-29T11:31:39Z</time>
      </trkpt>
      <trkpt lat="45.9391" lon="3.71352">
        <ele>1112.2</ele>
        <time>2022-08-29T11:31:40Z</time>
      </trkpt>
      <trkpt lat="45.9391" lon="3.71351">
        <ele>1112.2</ele>
        <time>2022-08-29T11:31:41Z</time>
      </trkpt>
      <trkpt lat="45.93911" lon="3.7135">
        <ele>1112.2</ele>
        <time>2022-08-29T11:31:42Z</time>
      </trkpt>
      <trkpt lat="45.93912" lon="3.71349">
        <ele>1112.2</ele>
        <time>2022-08-29T11:31:43Z</time>
      </trkpt>
      <trkpt lat="45.93912" lon="3.71348">
        <ele>1112.2</ele>
        <time>2022-08-29T11:31:44Z</time>
      </trkpt>
      <trkpt lat="45.93913" lon="3.71347">
        <ele>1112.2</ele>
        <time>2022-08-29T11:31:45Z</time>
      </trkpt>
      <trkpt lat="45.93914" lon="3.71346">
        <ele>1112.3</ele>
        <time>2022-08-29T11:31:46Z</time>
      </trkpt>
      <trkpt lat="45.93914" lon="3.71345">
        <ele>1112.3</ele>
        <time>2022-08-29T11:31:47Z</time>
      </trkpt>
      <trkpt lat="45.93914" lon="3.71343">
        <ele>1112.3</ele>
        <time>2022-08-29T11:31:48Z</time>
      </trkpt>
      <trkpt lat="45.93915" lon="3.71342">
        <ele>1112.3</ele>
        <time>2022-08-29T11:31:49Z</time>
      </trkpt>
      <trkpt lat="45.93915" lon="3.7134">
        <ele>1112.3</ele>
        <time>2022-08-29T11:31:50Z</time>
      </trkpt>
      <trkpt lat="45.93915" lon="3.71338">
        <ele>1112.3</ele>
        <time>2022-08-29T11:31:51Z</time>
      </trkpt>
      <trkpt lat="45.93916" lon="3.71335">
        <ele>1112.3</ele>
        <time>2022-08-29T11:31:52Z</time>
      </trkpt>
      <trkpt lat="45.93916" lon="3.71334">
        <ele>1112.3</ele>
        <time>2022-08-29T11:31:53Z</time>
      </trkpt>
      <trkpt lat="45.93916" lon="3.71333">
        <ele>1112.3</ele>
        <time>2022-08-29T11:31:54Z</time>
      </trkpt>
      <trkpt lat="45.93915" lon="3.71331">
        <ele>1112.3</ele>
        <time>2022-08-29T11:31:55Z</time>
      </trkpt>
      <trkpt lat="45.93915" lon="3.71329">
        <ele>1112.3</ele>
        <time>2022-08-29T11:31:56Z</time>
      </trkpt>
      <trkpt lat="45.93914" lon="3.71325">
        <ele>1112.3</ele>
        <time>2022-08-29T11:31:57Z</time>
      </trkpt>
      <trkpt lat="45.93914" lon="3.71323">
        <ele>1112.3</ele>
        <time>2022-08-29T11:31:58Z</time>
      </trkpt>
      <trkpt lat="45.93914" lon="3.71321">
        <ele>1112.3</ele>
        <time>2022-08-29T11:31:59Z</time>
      </trkpt>
      <trkpt lat="45.93914" lon="3.71318">
        <ele>1112.3</ele>
        <time>2022-08-29T11:32:00Z</time>
      </trkpt>
      <trkpt lat="45.93914" lon="3.71316">
        <ele>1112.3</ele>
        <time>2022-08-29T11:32:01Z</time>
      </trkpt>
      <trkpt lat="45.93914" lon="3.71314">
        <ele>1112.3</ele>
        <time>2022-08-29T11:32:02Z</time>
      </trkpt>
      <trkpt lat="45.93914" lon="3.71311">
        <ele>1112.3</ele>
        <time>2022-08-29T11:32:03Z</time>
      </trkpt>
      <trkpt lat="45.93914" lon="3.71309">
        <ele>1112.3</ele>
        <time>2022-08-29T11:32:04Z</time>
      </trkpt>
      <trkpt lat="45.93915" lon="3.71305">
        <ele>1112.3</ele>
        <time>2022-08-29T11:32:05Z</time>
      </trkpt>
      <trkpt lat="45.93915" lon="3.71304">
        <ele>1112.3</ele>
        <time>2022-08-29T11:32:06Z</time>
      </trkpt>
      <trkpt lat="45.93917" lon="3.71299">
        <ele>1112.3</ele>
        <time>2022-08-29T11:32:07Z</time>
      </trkpt>
      <trkpt lat="45.93918" lon="3.71298">
        <ele>1112.3</ele>
        <time>2022-08-29T11:32:08Z</time>
      </trkpt>
      <trkpt lat="45.93919" lon="3.71294">
        <ele>1112.3</ele>
        <time>2022-08-29T11:32:09Z</time>
      </trkpt>
      <trkpt lat="45.93919" lon="3.71293">
        <ele>1112.3</ele>
        <time>2022-08-29T11:32:10Z</time>
      </trkpt>
      <trkpt lat="45.9392" lon="3.71289">
        <ele>1112.2</ele>
        <time>2022-08-29T11:32:11Z</time>
      </trkpt>
      <trkpt lat="45.9392" lon="3.71287">
        <ele>1112.2</ele>
        <time>2022-08-29T11:32:12Z</time>
      </trkpt>
      <trkpt lat="45.9392" lon="3.71285">
        <ele>1112.2</ele>
        <time>2022-08-29T11:32:13Z</time>
      </trkpt>
      <trkpt lat="45.9392" lon="3.71283">
        <ele>1112.2</ele>
        <time>2022-08-29T11:32:14Z</time>
      </trkpt>
      <trkpt lat="45.9392" lon="3.7128">
        <ele>1112.2</ele>
        <time>2022-08-29T11:32:15Z</time>
      </trkpt>
      <trkpt lat="45.93921" lon="3.71279">
        <ele>1112.2</ele>
        <time>2022-08-29T11:32:16Z</time>
      </trkpt>
      <trkpt lat="45.93921" lon="3.71277">
        <ele>1112.2</ele>
        <time>2022-08-29T11:32:17Z</time>
      </trkpt>
      <trkpt lat="45.9392" lon="3.71275">
        <ele>1112.2</ele>
        <time>2022-08-29T11:32:18Z</time>
      </trkpt>
      <trkpt lat="45.9392" lon="3.71273">
        <ele>1112.2</ele>
        <time>2022-08-29T11:32:19Z</time>
      </trkpt>
      <trkpt lat="45.93919" lon="3.71272">
        <ele>1112.2</ele>
        <time>2022-08-29T11:32:20Z</time>
      </trkpt>
      <trkpt lat="45.93919" lon="3.7127">
        <ele>1112.1</ele>
        <time>2022-08-29T11:32:21Z</time>
      </trkpt>
      <trkpt lat="45.93919" lon="3.71268">
        <ele>1112.1</ele>
        <time>2022-08-29T11:32:22Z</time>
      </trkpt>
      <trkpt lat="45.93918" lon="3.71264">
        <ele>1112.1</ele>
        <time>2022-08-29T11:32:23Z</time>
      </trkpt>
      <trkpt lat="45.93918" lon="3.71263">
        <ele>1112.1</ele>
        <time>2022-08-29T11:32:24Z</time>
      </trkpt>
      <trkpt lat="45.93918" lon="3.71262">
        <ele>1112.1</ele>
        <time>2022-08-29T11:32:25Z</time>
      </trkpt>
      <trkpt lat="45.93918" lon="3.71259">
        <ele>1112.1</ele>
        <time>2022-08-29T11:32:26Z</time>
      </trkpt>
      <trkpt lat="45.93919" lon="3.71258">
        <ele>1112.1</ele>
        <time>2022-08-29T11:32:27Z</time>
      </trkpt>
      <trkpt lat="45.93919" lon="3.71256">
        <ele>1112.1</ele>
        <time>2022-08-29T11:32:28Z</time>
      </trkpt>
      <trkpt lat="45.93921" lon="3.71252">
        <ele>1112.1</ele>
        <time>2022-08-29T11:32:29Z</time>
      </trkpt>
      <trkpt lat="45.93921" lon="3.71251">
        <ele>1112</ele>
        <time>2022-08-29T11:32:30Z</time>
      </trkpt>
      <trkpt lat="45.93924" lon="3.71248">
        <ele>1112</ele>
        <time>2022-08-29T11:32:31Z</time>
      </trkpt>
      <trkpt lat="45.93924" lon="3.71247">
        <ele>1112</ele>
        <time>2022-08-29T11:32:32Z</time>
      </trkpt>
      <trkpt lat="45.93926" lon="3.71245">
        <ele>1112</ele>
        <time>2022-08-29T11:32:33Z</time>
      </trkpt>
      <trkpt lat="45.93926" lon="3.71244">
        <ele>1112</ele>
        <time>2022-08-29T11:32:34Z</time>
      </trkpt>
      <trkpt lat="45.93927" lon="3.71242">
        <ele>1112</ele>
        <time>2022-08-29T11:32:35Z</time>
      </trkpt>
      <trkpt lat="45.93928" lon="3.71241">
        <ele>1111.9</ele>
        <time>2022-08-29T11:32:36Z</time>
      </trkpt>
      <trkpt lat="45.93928" lon="3.71239">
        <ele>1111.9</ele>
        <time>2022-08-29T11:32:37Z</time>
      </trkpt>
      <trkpt lat="45.93928" lon="3.71238">
        <ele>1111.9</ele>
        <time>2022-08-29T11:32:38Z</time>
      </trkpt>
      <trkpt lat="45.93928" lon="3.71236">
        <ele>1111.9</ele>
        <time>2022-08-29T11:32:39Z</time>
      </trkpt>
      <trkpt lat="45.93928" lon="3.71234">
        <ele>1111.9</ele>
        <time>2022-08-29T11:32:40Z</time>
      </trkpt>
      <trkpt lat="45.93928" lon="3.71232">
        <ele>1111.8</ele>
        <time>2022-08-29T11:32:41Z</time>
      </trkpt>
      <trkpt lat="45.93929" lon="3.7123">
        <ele>1111.8</ele>
        <time>2022-08-29T11:32:42Z</time>
      </trkpt>
      <trkpt lat="45.93929" lon="3.71227">
        <ele>1111.7</ele>
        <time>2022-08-29T11:32:43Z</time>
      </trkpt>
      <trkpt lat="45.93929" lon="3.71225">
        <ele>1111.7</ele>
        <time>2022-08-29T11:32:44Z</time>
      </trkpt>
      <trkpt lat="45.93929" lon="3.71222">
        <ele>1111.6</ele>
        <time>2022-08-29T11:32:45Z</time>
      </trkpt>
      <trkpt lat="45.9393" lon="3.71221">
        <ele>1111.6</ele>
        <time>2022-08-29T11:32:46Z</time>
      </trkpt>
      <trkpt lat="45.9393" lon="3.7122">
        <ele>1111.5</ele>
        <time>2022-08-29T11:32:47Z</time>
      </trkpt>
      <trkpt lat="45.93931" lon="3.71217">
        <ele>1111.5</ele>
        <time>2022-08-29T11:32:48Z</time>
      </trkpt>
      <trkpt lat="45.93931" lon="3.71216">
        <ele>1111.4</ele>
        <time>2022-08-29T11:32:49Z</time>
      </trkpt>
      <trkpt lat="45.93931" lon="3.71215">
        <ele>1111.4</ele>
        <time>2022-08-29T11:32:50Z</time>
      </trkpt>
      <trkpt lat="45.93932" lon="3.71214">
        <ele>1111.3</ele>
        <time>2022-08-29T11:32:51Z</time>
      </trkpt>
      <trkpt lat="45.93933" lon="3.71212">
        <ele>1111.3</ele>
        <time>2022-08-29T11:32:52Z</time>
      </trkpt>
      <trkpt lat="45.93933" lon="3.71211">
        <ele>1111.3</ele>
        <time>2022-08-29T11:32:53Z</time>
      </trkpt>
      <trkpt lat="45.93934" lon="3.7121">
        <ele>1111.2</ele>
        <time>2022-08-29T11:32:54Z</time>
      </trkpt>
      <trkpt lat="45.93934" lon="3.71209">
        <ele>1111.2</ele>
        <time>2022-08-29T11:32:55Z</time>
      </trkpt>
      <trkpt lat="45.93935" lon="3.71207">
        <ele>1111.1</ele>
        <time>2022-08-29T11:32:56Z</time>
      </trkpt>
      <trkpt lat="45.93935" lon="3.71205">
        <ele>1111.1</ele>
        <time>2022-08-29T11:32:57Z</time>
      </trkpt>
      <trkpt lat="45.93936" lon="3.71203">
        <ele>1111</ele>
        <time>2022-08-29T11:32:58Z</time>
      </trkpt>
      <trkpt lat="45.93937" lon="3.71201">
        <ele>1110.9</ele>
        <time>2022-08-29T11:32:59Z</time>
      </trkpt>
      <trkpt lat="45.93937" lon="3.71199">
        <ele>1110.8</ele>
        <time>2022-08-29T11:33:00Z</time>
      </trkpt>
      <trkpt lat="45.93938" lon="3.71197">
        <ele>1110.8</ele>
        <time>2022-08-29T11:33:01Z</time>
      </trkpt>
      <trkpt lat="45.93938" lon="3.71194">
        <ele>1110.7</ele>
        <time>2022-08-29T11:33:02Z</time>
      </trkpt>
      <trkpt lat="45.93938" lon="3.71192">
        <ele>1110.6</ele>
        <time>2022-08-29T11:33:03Z</time>
      </trkpt>
      <trkpt lat="45.93939" lon="3.7119">
        <ele>1110.5</ele>
        <time>2022-08-29T11:33:04Z</time>
      </trkpt>
      <trkpt lat="45.93939" lon="3.71188">
        <ele>1110.5</ele>
        <time>2022-08-29T11:33:05Z</time>
      </trkpt>
      <trkpt lat="45.9394" lon="3.71187">
        <ele>1110.4</ele>
        <time>2022-08-29T11:33:06Z</time>
      </trkpt>
      <trkpt lat="45.9394" lon="3.71186">
        <ele>1110.4</ele>
        <time>2022-08-29T11:33:07Z</time>
      </trkpt>
      <trkpt lat="45.9394" lon="3.71186">
        <ele>1110.4</ele>
        <time>2022-08-29T11:33:08Z</time>
      </trkpt>
      <trkpt lat="45.93941" lon="3.71185">
        <ele>1110.3</ele>
        <time>2022-08-29T11:33:09Z</time>
      </trkpt>
      <trkpt lat="45.93941" lon="3.71183">
        <ele>1110.3</ele>
        <time>2022-08-29T11:33:10Z</time>
      </trkpt>
      <trkpt lat="45.93941" lon="3.71182">
        <ele>1110.2</ele>
        <time>2022-08-29T11:33:11Z</time>
      </trkpt>
      <trkpt lat="45.93941" lon="3.7118">
        <ele>1110.1</ele>
        <time>2022-08-29T11:33:12Z</time>
      </trkpt>
      <trkpt lat="45.93941" lon="3.71178">
        <ele>1110.1</ele>
        <time>2022-08-29T11:33:13Z</time>
      </trkpt>
      <trkpt lat="45.93941" lon="3.71177">
        <ele>1110</ele>
        <time>2022-08-29T11:33:14Z</time>
      </trkpt>
      <trkpt lat="45.93941" lon="3.71175">
        <ele>1110</ele>
        <time>2022-08-29T11:33:15Z</time>
      </trkpt>
      <trkpt lat="45.93942" lon="3.71174">
        <ele>1109.9</ele>
        <time>2022-08-29T11:33:16Z</time>
      </trkpt>
      <trkpt lat="45.93942" lon="3.71172">
        <ele>1109.9</ele>
        <time>2022-08-29T11:33:17Z</time>
      </trkpt>
      <trkpt lat="45.93943" lon="3.71171">
        <ele>1109.8</ele>
        <time>2022-08-29T11:33:18Z</time>
      </trkpt>
      <trkpt lat="45.93943" lon="3.7117">
        <ele>1109.8</ele>
        <time>2022-08-29T11:33:19Z</time>
      </trkpt>
      <trkpt lat="45.93944" lon="3.71169">
        <ele>1109.7</ele>
        <time>2022-08-29T11:33:20Z</time>
      </trkpt>
      <trkpt lat="45.93944" lon="3.71167">
        <ele>1109.7</ele>
        <time>2022-08-29T11:33:21Z</time>
      </trkpt>
      <trkpt lat="45.93945" lon="3.71165">
        <ele>1109.6</ele>
        <time>2022-08-29T11:33:22Z</time>
      </trkpt>
      <trkpt lat="45.93946" lon="3.71161">
        <ele>1109.5</ele>
        <time>2022-08-29T11:33:23Z</time>
      </trkpt>
      <trkpt lat="45.93947" lon="3.7116">
        <ele>1109.4</ele>
        <time>2022-08-29T11:33:24Z</time>
      </trkpt>
      <trkpt lat="45.93948" lon="3.71156">
        <ele>1109.3</ele>
        <time>2022-08-29T11:33:25Z</time>
      </trkpt>
      <trkpt lat="45.93948" lon="3.71155">
        <ele>1109.2</ele>
        <time>2022-08-29T11:33:26Z</time>
      </trkpt>
      <trkpt lat="45.93949" lon="3.71152">
        <ele>1109.2</ele>
        <time>2022-08-29T11:33:27Z</time>
      </trkpt>
      <trkpt lat="45.9395" lon="3.71151">
        <ele>1109.1</ele>
        <time>2022-08-29T11:33:28Z</time>
      </trkpt>
      <trkpt lat="45.9395" lon="3.71149">
        <ele>1109.1</ele>
        <time>2022-08-29T11:33:29Z</time>
      </trkpt>
      <trkpt lat="45.93951" lon="3.71148">
        <ele>1109</ele>
        <time>2022-08-29T11:33:30Z</time>
      </trkpt>
      <trkpt lat="45.93951" lon="3.71147">
        <ele>1109</ele>
        <time>2022-08-29T11:33:31Z</time>
      </trkpt>
      <trkpt lat="45.93952" lon="3.71145">
        <ele>1108.9</ele>
        <time>2022-08-29T11:33:32Z</time>
      </trkpt>
      <trkpt lat="45.93952" lon="3.71143">
        <ele>1108.9</ele>
        <time>2022-08-29T11:33:33Z</time>
      </trkpt>
      <trkpt lat="45.93952" lon="3.71142">
        <ele>1108.9</ele>
        <time>2022-08-29T11:33:34Z</time>
      </trkpt>
      <trkpt lat="45.93952" lon="3.7114">
        <ele>1108.8</ele>
        <time>2022-08-29T11:33:35Z</time>
      </trkpt>
      <trkpt lat="45.93953" lon="3.71138">
        <ele>1108.8</ele>
        <time>2022-08-29T11:33:36Z</time>
      </trkpt>
      <trkpt lat="45.93953" lon="3.71137">
        <ele>1108.7</ele>
        <time>2022-08-29T11:33:37Z</time>
      </trkpt>
      <trkpt lat="45.93954" lon="3.71135">
        <ele>1108.7</ele>
        <time>2022-08-29T11:33:38Z</time>
      </trkpt>
      <trkpt lat="45.93954" lon="3.71134">
        <ele>1108.6</ele>
        <time>2022-08-29T11:33:39Z</time>
      </trkpt>
      <trkpt lat="45.93955" lon="3.71133">
        <ele>1108.6</ele>
        <time>2022-08-29T11:33:40Z</time>
      </trkpt>
      <trkpt lat="45.93956" lon="3.71132">
        <ele>1108.5</ele>
        <time>2022-08-29T11:33:41Z</time>
      </trkpt>
      <trkpt lat="45.93957" lon="3.7113">
        <ele>1108.5</ele>
        <time>2022-08-29T11:33:42Z</time>
      </trkpt>
      <trkpt lat="45.93958" lon="3.71128">
        <ele>1108.4</ele>
        <time>2022-08-29T11:33:43Z</time>
      </trkpt>
      <trkpt lat="45.93958" lon="3.71126">
        <ele>1108.4</ele>
        <time>2022-08-29T11:33:44Z</time>
      </trkpt>
      <trkpt lat="45.93958" lon="3.71125">
        <ele>1108.3</ele>
        <time>2022-08-29T11:33:45Z</time>
      </trkpt>
      <trkpt lat="45.93959" lon="3.71121">
        <ele>1108.2</ele>
        <time>2022-08-29T11:33:46Z</time>
      </trkpt>
      <trkpt lat="45.93959" lon="3.7112">
        <ele>1108.2</ele>
        <time>2022-08-29T11:33:47Z</time>
      </trkpt>
      <trkpt lat="45.93959" lon="3.71115">
        <ele>1108.1</ele>
        <time>2022-08-29T11:33:48Z</time>
      </trkpt>
      <trkpt lat="45.93959" lon="3.71114">
        <ele>1108</ele>
        <time>2022-08-29T11:33:49Z</time>
      </trkpt>
      <trkpt lat="45.93958" lon="3.71111">
        <ele>1107.9</ele>
        <time>2022-08-29T11:33:50Z</time>
      </trkpt>
      <trkpt lat="45.93958" lon="3.7111">
        <ele>1107.9</ele>
        <time>2022-08-29T11:33:51Z</time>
      </trkpt>
      <trkpt lat="45.93958" lon="3.71109">
        <ele>1107.9</ele>
        <time>2022-08-29T11:33:52Z</time>
      </trkpt>
      <trkpt lat="45.93958" lon="3.71108">
        <ele>1107.8</ele>
        <time>2022-08-29T11:33:53Z</time>
      </trkpt>
      <trkpt lat="45.93957" lon="3.71106">
        <ele>1107.8</ele>
        <time>2022-08-29T11:33:54Z</time>
      </trkpt>
      <trkpt lat="45.93957" lon="3.71104">
        <ele>1107.7</ele>
        <time>2022-08-29T11:33:55Z</time>
      </trkpt>
      <trkpt lat="45.93957" lon="3.71103">
        <ele>1107.7</ele>
        <time>2022-08-29T11:33:56Z</time>
      </trkpt>
      <trkpt lat="45.93958" lon="3.71101">
        <ele>1107.6</ele>
        <time>2022-08-29T11:33:57Z</time>
      </trkpt>
      <trkpt lat="45.93958" lon="3.71099">
        <ele>1107.6</ele>
        <time>2022-08-29T11:33:58Z</time>
      </trkpt>
      <trkpt lat="45.93958" lon="3.71098">
        <ele>1107.5</ele>
        <time>2022-08-29T11:33:59Z</time>
      </trkpt>
      <trkpt lat="45.93958" lon="3.71096">
        <ele>1107.5</ele>
        <time>2022-08-29T11:34:00Z</time>
      </trkpt>
      <trkpt lat="45.93959" lon="3.71095">
        <ele>1107.4</ele>
        <time>2022-08-29T11:34:01Z</time>
      </trkpt>
      <trkpt lat="45.9396" lon="3.71093">
        <ele>1107.4</ele>
        <time>2022-08-29T11:34:02Z</time>
      </trkpt>
      <trkpt lat="45.9396" lon="3.71091">
        <ele>1107.3</ele>
        <time>2022-08-29T11:34:03Z</time>
      </trkpt>
      <trkpt lat="45.9396" lon="3.7109">
        <ele>1107.3</ele>
        <time>2022-08-29T11:34:04Z</time>
      </trkpt>
      <trkpt lat="45.93961" lon="3.71089">
        <ele>1107.2</ele>
        <time>2022-08-29T11:34:05Z</time>
      </trkpt>
      <trkpt lat="45.93961" lon="3.71087">
        <ele>1107.2</ele>
        <time>2022-08-29T11:34:06Z</time>
      </trkpt>
      <trkpt lat="45.93961" lon="3.71086">
        <ele>1107.1</ele>
        <time>2022-08-29T11:34:07Z</time>
      </trkpt>
      <trkpt lat="45.93962" lon="3.71084">
        <ele>1107.1</ele>
        <time>2022-08-29T11:34:08Z</time>
      </trkpt>
      <trkpt lat="45.93962" lon="3.71082">
        <ele>1107</ele>
        <time>2022-08-29T11:34:09Z</time>
      </trkpt>
      <trkpt lat="45.93962" lon="3.71081">
        <ele>1107</ele>
        <time>2022-08-29T11:34:10Z</time>
      </trkpt>
      <trkpt lat="45.93963" lon="3.71079">
        <ele>1106.9</ele>
        <time>2022-08-29T11:34:11Z</time>
      </trkpt>
      <trkpt lat="45.93963" lon="3.71078">
        <ele>1106.8</ele>
        <time>2022-08-29T11:34:12Z</time>
      </trkpt>
      <trkpt lat="45.93963" lon="3.71077">
        <ele>1106.8</ele>
        <time>2022-08-29T11:34:13Z</time>
      </trkpt>
      <trkpt lat="45.93964" lon="3.71076">
        <ele>1106.8</ele>
        <time>2022-08-29T11:34:14Z</time>
      </trkpt>
      <trkpt lat="45.93964" lon="3.71075">
        <ele>1106.7</ele>
        <time>2022-08-29T11:34:15Z</time>
      </trkpt>
      <trkpt lat="45.93964" lon="3.71074">
        <ele>1106.7</ele>
        <time>2022-08-29T11:34:16Z</time>
      </trkpt>
      <trkpt lat="45.93964" lon="3.71074">
        <ele>1106.7</ele>
        <time>2022-08-29T11:34:17Z</time>
      </trkpt>
      <trkpt lat="45.93964" lon="3.71073">
        <ele>1106.7</ele>
        <time>2022-08-29T11:34:18Z</time>
      </trkpt>
      <trkpt lat="45.93965" lon="3.71073">
        <ele>1106.7</ele>
        <time>2022-08-29T11:34:19Z</time>
      </trkpt>
      <trkpt lat="45.93965" lon="3.71074">
        <ele>1106.6</ele>
        <time>2022-08-29T11:34:20Z</time>
      </trkpt>
      <trkpt lat="45.93965" lon="3.71074">
        <ele>1106.6</ele>
        <time>2022-08-29T11:34:21Z</time>
      </trkpt>
      <trkpt lat="45.93965" lon="3.71074">
        <ele>1106.6</ele>
        <time>2022-08-29T11:34:22Z</time>
      </trkpt>
      <trkpt lat="45.93965" lon="3.71074">
        <ele>1106.6</ele>
        <time>2022-08-29T11:34:23Z</time>
      </trkpt>
      <trkpt lat="45.93966" lon="3.71075">
        <ele>1106.6</ele>
        <time>2022-08-29T11:34:24Z</time>
      </trkpt>
      <trkpt lat="45.93966" lon="3.71074">
        <ele>1106.6</ele>
        <time>2022-08-29T11:34:25Z</time>
      </trkpt>
      <trkpt lat="45.93966" lon="3.71074">
        <ele>1106.5</ele>
        <time>2022-08-29T11:34:26Z</time>
      </trkpt>
      <trkpt lat="45.93967" lon="3.71073">
        <ele>1106.5</ele>
        <time>2022-08-29T11:34:27Z</time>
      </trkpt>
      <trkpt lat="45.93967" lon="3.71073">
        <ele>1106.5</ele>
        <time>2022-08-29T11:34:28Z</time>
      </trkpt>
      <trkpt lat="45.93968" lon="3.71071">
        <ele>1106.4</ele>
        <time>2022-08-29T11:34:29Z</time>
      </trkpt>
      <trkpt lat="45.93968" lon="3.7107">
        <ele>1106.4</ele>
        <time>2022-08-29T11:34:30Z</time>
      </trkpt>
      <trkpt lat="45.93969" lon="3.71068">
        <ele>1106.3</ele>
        <time>2022-08-29T11:34:31Z</time>
      </trkpt>
      <trkpt lat="45.93969" lon="3.71067">
        <ele>1106.3</ele>
        <time>2022-08-29T11:34:32Z</time>
      </trkpt>
      <trkpt lat="45.93969" lon="3.71066">
        <ele>1106.2</ele>
        <time>2022-08-29T11:34:33Z</time>
      </trkpt>
      <trkpt lat="45.93969" lon="3.71065">
        <ele>1106.2</ele>
        <time>2022-08-29T11:34:34Z</time>
      </trkpt>
      <trkpt lat="45.93969" lon="3.71064">
        <ele>1106.2</ele>
        <time>2022-08-29T11:34:35Z</time>
      </trkpt>
      <trkpt lat="45.93969" lon="3.71062">
        <ele>1106.1</ele>
        <time>2022-08-29T11:34:36Z</time>
      </trkpt>
      <trkpt lat="45.93969" lon="3.71061">
        <ele>1106.1</ele>
        <time>2022-08-29T11:34:37Z</time>
      </trkpt>
      <trkpt lat="45.93969" lon="3.71059">
        <ele>1106</ele>
        <time>2022-08-29T11:34:38Z</time>
      </trkpt>
      <trkpt lat="45.93968" lon="3.71056">
        <ele>1105.9</ele>
        <time>2022-08-29T11:34:39Z</time>
      </trkpt>
      <trkpt lat="45.93967" lon="3.71055">
        <ele>1105.9</ele>
        <time>2022-08-29T11:34:40Z</time>
      </trkpt>
      <trkpt lat="45.93967" lon="3.71053">
        <ele>1105.8</ele>
        <time>2022-08-29T11:34:41Z</time>
      </trkpt>
      <trkpt lat="45.93966" lon="3.71051">
        <ele>1105.7</ele>
        <time>2022-08-29T11:34:42Z</time>
      </trkpt>
      <trkpt lat="45.93965" lon="3.71049">
        <ele>1105.7</ele>
        <time>2022-08-29T11:34:43Z</time>
      </trkpt>
      <trkpt lat="45.93964" lon="3.71046">
        <ele>1105.6</ele>
        <time>2022-08-29T11:34:44Z</time>
      </trkpt>
      <trkpt lat="45.93963" lon="3.71044">
        <ele>1105.5</ele>
        <time>2022-08-29T11:34:45Z</time>
      </trkpt>
      <trkpt lat="45.93963" lon="3.71042">
        <ele>1105.5</ele>
        <time>2022-08-29T11:34:46Z</time>
      </trkpt>
      <trkpt lat="45.93963" lon="3.7104">
        <ele>1105.4</ele>
        <time>2022-08-29T11:34:47Z</time>
      </trkpt>
      <trkpt lat="45.93963" lon="3.71036">
        <ele>1105.3</ele>
        <time>2022-08-29T11:34:48Z</time>
      </trkpt>
      <trkpt lat="45.93963" lon="3.71034">
        <ele>1105.3</ele>
        <time>2022-08-29T11:34:49Z</time>
      </trkpt>
      <trkpt lat="45.93964" lon="3.7103">
        <ele>1105.2</ele>
        <time>2022-08-29T11:34:50Z</time>
      </trkpt>
      <trkpt lat="45.93964" lon="3.71029">
        <ele>1105.1</ele>
        <time>2022-08-29T11:34:51Z</time>
      </trkpt>
      <trkpt lat="45.93965" lon="3.71024">
        <ele>1105.1</ele>
        <time>2022-08-29T11:34:52Z</time>
      </trkpt>
      <trkpt lat="45.93965" lon="3.71023">
        <ele>1105</ele>
        <time>2022-08-29T11:34:53Z</time>
      </trkpt>
      <trkpt lat="45.93966" lon="3.71019">
        <ele>1105</ele>
        <time>2022-08-29T11:34:54Z</time>
      </trkpt>
      <trkpt lat="45.93966" lon="3.71018">
        <ele>1104.9</ele>
        <time>2022-08-29T11:34:55Z</time>
      </trkpt>
      <trkpt lat="45.93967" lon="3.71015">
        <ele>1104.9</ele>
        <time>2022-08-29T11:34:56Z</time>
      </trkpt>
      <trkpt lat="45.93967" lon="3.71013">
        <ele>1104.9</ele>
        <time>2022-08-29T11:34:57Z</time>
      </trkpt>
      <trkpt lat="45.93967" lon="3.71012">
        <ele>1104.9</ele>
        <time>2022-08-29T11:34:58Z</time>
      </trkpt>
      <trkpt lat="45.93968" lon="3.7101">
        <ele>1104.9</ele>
        <time>2022-08-29T11:34:59Z</time>
      </trkpt>
      <trkpt lat="45.93968" lon="3.71008">
        <ele>1104.8</ele>
        <time>2022-08-29T11:35:00Z</time>
      </trkpt>
      <trkpt lat="45.93968" lon="3.71006">
        <ele>1104.8</ele>
        <time>2022-08-29T11:35:01Z</time>
      </trkpt>
      <trkpt lat="45.93969" lon="3.71004">
        <ele>1104.8</ele>
        <time>2022-08-29T11:35:02Z</time>
      </trkpt>
      <trkpt lat="45.9397" lon="3.71001">
        <ele>1104.8</ele>
        <time>2022-08-29T11:35:03Z</time>
      </trkpt>
      <trkpt lat="45.9397" lon="3.70999">
        <ele>1104.8</ele>
        <time>2022-08-29T11:35:04Z</time>
      </trkpt>
      <trkpt lat="45.93971" lon="3.70995">
        <ele>1104.8</ele>
        <time>2022-08-29T11:35:05Z</time>
      </trkpt>
      <trkpt lat="45.93972" lon="3.70994">
        <ele>1104.8</ele>
        <time>2022-08-29T11:35:06Z</time>
      </trkpt>
      <trkpt lat="45.93974" lon="3.7099">
        <ele>1104.8</ele>
        <time>2022-08-29T11:35:07Z</time>
      </trkpt>
      <trkpt lat="45.93974" lon="3.70989">
        <ele>1104.8</ele>
        <time>2022-08-29T11:35:08Z</time>
      </trkpt>
      <trkpt lat="45.93974" lon="3.70987">
        <ele>1104.8</ele>
        <time>2022-08-29T11:35:09Z</time>
      </trkpt>
      <trkpt lat="45.93973" lon="3.70986">
        <ele>1104.8</ele>
        <time>2022-08-29T11:35:10Z</time>
      </trkpt>
      <trkpt lat="45.93973" lon="3.70985">
        <ele>1104.8</ele>
        <time>2022-08-29T11:35:11Z</time>
      </trkpt>
      <trkpt lat="45.93972" lon="3.70982">
        <ele>1104.9</ele>
        <time>2022-08-29T11:35:12Z</time>
      </trkpt>
      <trkpt lat="45.93971" lon="3.70981">
        <ele>1104.9</ele>
        <time>2022-08-29T11:35:13Z</time>
      </trkpt>
      <trkpt lat="45.93971" lon="3.7098">
        <ele>1104.9</ele>
        <time>2022-08-29T11:35:14Z</time>
      </trkpt>
      <trkpt lat="45.9397" lon="3.70978">
        <ele>1104.9</ele>
        <time>2022-08-29T11:35:15Z</time>
      </trkpt>
      <trkpt lat="45.9397" lon="3.70976">
        <ele>1104.9</ele>
        <time>2022-08-29T11:35:16Z</time>
      </trkpt>
      <trkpt lat="45.9397" lon="3.70973">
        <ele>1105</ele>
        <time>2022-08-29T11:35:17Z</time>
      </trkpt>
      <trkpt lat="45.93971" lon="3.70971">
        <ele>1105</ele>
        <time>2022-08-29T11:35:18Z</time>
      </trkpt>
      <trkpt lat="45.93971" lon="3.70968">
        <ele>1105</ele>
        <time>2022-08-29T11:35:19Z</time>
      </trkpt>
      <trkpt lat="45.93971" lon="3.70967">
        <ele>1105.1</ele>
        <time>2022-08-29T11:35:20Z</time>
      </trkpt>
      <trkpt lat="45.93972" lon="3.70965">
        <ele>1105.1</ele>
        <time>2022-08-29T11:35:21Z</time>
      </trkpt>
      <trkpt lat="45.93972" lon="3.70964">
        <ele>1105.1</ele>
        <time>2022-08-29T11:35:22Z</time>
      </trkpt>
      <trkpt lat="45.93972" lon="3.70963">
        <ele>1105.1</ele>
        <time>2022-08-29T11:35:23Z</time>
      </trkpt>
      <trkpt lat="45.93971" lon="3.7096">
        <ele>1105.2</ele>
        <time>2022-08-29T11:35:24Z</time>
      </trkpt>
      <trkpt lat="45.93971" lon="3.70959">
        <ele>1105.2</ele>
        <time>2022-08-29T11:35:25Z</time>
      </trkpt>
      <trkpt lat="45.93971" lon="3.70958">
        <ele>1105.2</ele>
        <time>2022-08-29T11:35:26Z</time>
      </trkpt>
      <trkpt lat="45.93969" lon="3.70954">
        <ele>1105.3</ele>
        <time>2022-08-29T11:35:27Z</time>
      </trkpt>
      <trkpt lat="45.93969" lon="3.70953">
        <ele>1105.4</ele>
        <time>2022-08-29T11:35:28Z</time>
      </trkpt>
      <trkpt lat="45.93967" lon="3.70951">
        <ele>1105.4</ele>
        <time>2022-08-29T11:35:29Z</time>
      </trkpt>
      <trkpt lat="45.93967" lon="3.7095">
        <ele>1105.4</ele>
        <time>2022-08-29T11:35:30Z</time>
      </trkpt>
      <trkpt lat="45.93966" lon="3.70949">
        <ele>1105.5</ele>
        <time>2022-08-29T11:35:31Z</time>
      </trkpt>
      <trkpt lat="45.93965" lon="3.70948">
        <ele>1105.5</ele>
        <time>2022-08-29T11:35:32Z</time>
      </trkpt>
      <trkpt lat="45.93965" lon="3.70947">
        <ele>1105.5</ele>
        <time>2022-08-29T11:35:33Z</time>
      </trkpt>
      <trkpt lat="45.93965" lon="3.70945">
        <ele>1105.6</ele>
        <time>2022-08-29T11:35:34Z</time>
      </trkpt>
      <trkpt lat="45.93966" lon="3.70941">
        <ele>1105.6</ele>
        <time>2022-08-29T11:35:35Z</time>
      </trkpt>
      <trkpt lat="45.93966" lon="3.70939">
        <ele>1105.7</ele>
        <time>2022-08-29T11:35:36Z</time>
      </trkpt>
      <trkpt lat="45.93968" lon="3.70935">
        <ele>1105.8</ele>
        <time>2022-08-29T11:35:37Z</time>
      </trkpt>
      <trkpt lat="45.93968" lon="3.70934">
        <ele>1105.8</ele>
        <time>2022-08-29T11:35:38Z</time>
      </trkpt>
      <trkpt lat="45.9397" lon="3.70931">
        <ele>1105.8</ele>
        <time>2022-08-29T11:35:39Z</time>
      </trkpt>
      <trkpt lat="45.93971" lon="3.7093">
        <ele>1105.9</ele>
        <time>2022-08-29T11:35:40Z</time>
      </trkpt>
      <trkpt lat="45.93971" lon="3.70929">
        <ele>1105.9</ele>
        <time>2022-08-29T11:35:41Z</time>
      </trkpt>
      <trkpt lat="45.93972" lon="3.70928">
        <ele>1105.9</ele>
        <time>2022-08-29T11:35:42Z</time>
      </trkpt>
      <trkpt lat="45.93972" lon="3.70927">
        <ele>1105.9</ele>
        <time>2022-08-29T11:35:43Z</time>
      </trkpt>
      <trkpt lat="45.93972" lon="3.70926">
        <ele>1105.9</ele>
        <time>2022-08-29T11:35:44Z</time>
      </trkpt>
      <trkpt lat="45.93972" lon="3.70925">
        <ele>1106</ele>
        <time>2022-08-29T11:35:45Z</time>
      </trkpt>
      <trkpt lat="45.93972" lon="3.70924">
        <ele>1106</ele>
        <time>2022-08-29T11:35:46Z</time>
      </trkpt>
      <trkpt lat="45.93972" lon="3.70923">
        <ele>1106</ele>
        <time>2022-08-29T11:35:47Z</time>
      </trkpt>
      <trkpt lat="45.93973" lon="3.70922">
        <ele>1106</ele>
        <time>2022-08-29T11:35:48Z</time>
      </trkpt>
      <trkpt lat="45.93973" lon="3.70921">
        <ele>1106.1</ele>
        <time>2022-08-29T11:35:49Z</time>
      </trkpt>
      <trkpt lat="45.93974" lon="3.7092">
        <ele>1106.1</ele>
        <time>2022-08-29T11:35:50Z</time>
      </trkpt>
      <trkpt lat="45.93974" lon="3.70918">
        <ele>1106.1</ele>
        <time>2022-08-29T11:35:51Z</time>
      </trkpt>
      <trkpt lat="45.93975" lon="3.70916">
        <ele>1106.2</ele>
        <time>2022-08-29T11:35:52Z</time>
      </trkpt>
      <trkpt lat="45.93975" lon="3.70913">
        <ele>1106.3</ele>
        <time>2022-08-29T11:35:53Z</time>
      </trkpt>
      <trkpt lat="45.93974" lon="3.70908">
        <ele>1106.4</ele>
        <time>2022-08-29T11:35:54Z</time>
      </trkpt>
      <trkpt lat="45.93974" lon="3.70907">
        <ele>1106.5</ele>
        <time>2022-08-29T11:35:55Z</time>
      </trkpt>
      <trkpt lat="45.93973" lon="3.70904">
        <ele>1106.5</ele>
        <time>2022-08-29T11:35:56Z</time>
      </trkpt>
      <trkpt lat="45.93973" lon="3.70902">
        <ele>1106.6</ele>
        <time>2022-08-29T11:35:57Z</time>
      </trkpt>
      <trkpt lat="45.93973" lon="3.70901">
        <ele>1106.6</ele>
        <time>2022-08-29T11:35:58Z</time>
      </trkpt>
      <trkpt lat="45.93973" lon="3.70899">
        <ele>1106.7</ele>
        <time>2022-08-29T11:35:59Z</time>
      </trkpt>
      <trkpt lat="45.93973" lon="3.70897">
        <ele>1106.7</ele>
        <time>2022-08-29T11:36:00Z</time>
      </trkpt>
      <trkpt lat="45.93972" lon="3.70896">
        <ele>1106.8</ele>
        <time>2022-08-29T11:36:01Z</time>
      </trkpt>
      <trkpt lat="45.93972" lon="3.70893">
        <ele>1106.9</ele>
        <time>2022-08-29T11:36:02Z</time>
      </trkpt>
      <trkpt lat="45.9397" lon="3.70889">
        <ele>1107</ele>
        <time>2022-08-29T11:36:03Z</time>
      </trkpt>
      <trkpt lat="45.9397" lon="3.70888">
        <ele>1107</ele>
        <time>2022-08-29T11:36:04Z</time>
      </trkpt>
      <trkpt lat="45.93969" lon="3.70884">
        <ele>1107.2</ele>
        <time>2022-08-29T11:36:05Z</time>
      </trkpt>
      <trkpt lat="45.93969" lon="3.70883">
        <ele>1107.2</ele>
        <time>2022-08-29T11:36:06Z</time>
      </trkpt>
      <trkpt lat="45.93969" lon="3.70879">
        <ele>1107.3</ele>
        <time>2022-08-29T11:36:07Z</time>
      </trkpt>
      <trkpt lat="45.93969" lon="3.70878">
        <ele>1107.3</ele>
        <time>2022-08-29T11:36:08Z</time>
      </trkpt>
      <trkpt lat="45.93969" lon="3.70877">
        <ele>1107.4</ele>
        <time>2022-08-29T11:36:09Z</time>
      </trkpt>
      <trkpt lat="45.9397" lon="3.70875">
        <ele>1107.5</ele>
        <time>2022-08-29T11:36:10Z</time>
      </trkpt>
      <trkpt lat="45.93971" lon="3.70873">
        <ele>1107.5</ele>
        <time>2022-08-29T11:36:11Z</time>
      </trkpt>
      <trkpt lat="45.93972" lon="3.70869">
        <ele>1107.7</ele>
        <time>2022-08-29T11:36:12Z</time>
      </trkpt>
      <trkpt lat="45.93973" lon="3.70867">
        <ele>1107.8</ele>
        <time>2022-08-29T11:36:13Z</time>
      </trkpt>
      <trkpt lat="45.93974" lon="3.70865">
        <ele>1107.9</ele>
        <time>2022-08-29T11:36:14Z</time>
      </trkpt>
      <trkpt lat="45.93974" lon="3.70864">
        <ele>1107.9</ele>
        <time>2022-08-29T11:36:15Z</time>
      </trkpt>
      <trkpt lat="45.93975" lon="3.70862">
        <ele>1108</ele>
        <time>2022-08-29T11:36:16Z</time>
      </trkpt>
      <trkpt lat="45.93975" lon="3.70861">
        <ele>1108</ele>
        <time>2022-08-29T11:36:17Z</time>
      </trkpt>
      <trkpt lat="45.93975" lon="3.70859">
        <ele>1108.1</ele>
        <time>2022-08-29T11:36:18Z</time>
      </trkpt>
      <trkpt lat="45.93975" lon="3.70858">
        <ele>1108.1</ele>
        <time>2022-08-29T11:36:19Z</time>
      </trkpt>
      <trkpt lat="45.93975" lon="3.70857">
        <ele>1108.2</ele>
        <time>2022-08-29T11:36:20Z</time>
      </trkpt>
      <trkpt lat="45.93975" lon="3.70855">
        <ele>1108.2</ele>
        <time>2022-08-29T11:36:21Z</time>
      </trkpt>
      <trkpt lat="45.93975" lon="3.70854">
        <ele>1108.3</ele>
        <time>2022-08-29T11:36:22Z</time>
      </trkpt>
      <trkpt lat="45.93974" lon="3.70852">
        <ele>1108.3</ele>
        <time>2022-08-29T11:36:23Z</time>
      </trkpt>
      <trkpt lat="45.93974" lon="3.70851">
        <ele>1108.3</ele>
        <time>2022-08-29T11:36:24Z</time>
      </trkpt>
      <trkpt lat="45.93974" lon="3.7085">
        <ele>1108.4</ele>
        <time>2022-08-29T11:36:25Z</time>
      </trkpt>
      <trkpt lat="45.93974" lon="3.70849">
        <ele>1108.4</ele>
        <time>2022-08-29T11:36:26Z</time>
      </trkpt>
      <trkpt lat="45.93973" lon="3.70847">
        <ele>1108.5</ele>
        <time>2022-08-29T11:36:27Z</time>
      </trkpt>
      <trkpt lat="45.93973" lon="3.70845">
        <ele>1108.5</ele>
        <time>2022-08-29T11:36:28Z</time>
      </trkpt>
      <trkpt lat="45.93974" lon="3.70843">
        <ele>1108.6</ele>
        <time>2022-08-29T11:36:29Z</time>
      </trkpt>
      <trkpt lat="45.93974" lon="3.70841">
        <ele>1108.7</ele>
        <time>2022-08-29T11:36:30Z</time>
      </trkpt>
      <trkpt lat="45.93974" lon="3.70839">
        <ele>1108.7</ele>
        <time>2022-08-29T11:36:31Z</time>
      </trkpt>
      <trkpt lat="45.93974" lon="3.70837">
        <ele>1108.8</ele>
        <time>2022-08-29T11:36:32Z</time>
      </trkpt>
      <trkpt lat="45.93974" lon="3.70835">
        <ele>1108.9</ele>
        <time>2022-08-29T11:36:33Z</time>
      </trkpt>
      <trkpt lat="45.93974" lon="3.70831">
        <ele>1109</ele>
        <time>2022-08-29T11:36:34Z</time>
      </trkpt>
      <trkpt lat="45.93974" lon="3.70829">
        <ele>1109.1</ele>
        <time>2022-08-29T11:36:35Z</time>
      </trkpt>
      <trkpt lat="45.93975" lon="3.70827">
        <ele>1109.1</ele>
        <time>2022-08-29T11:36:36Z</time>
      </trkpt>
      <trkpt lat="45.93974" lon="3.70824">
        <ele>1109.2</ele>
        <time>2022-08-29T11:36:37Z</time>
      </trkpt>
      <trkpt lat="45.93974" lon="3.70822">
        <ele>1109.3</ele>
        <time>2022-08-29T11:36:38Z</time>
      </trkpt>
      <trkpt lat="45.93974" lon="3.7082">
        <ele>1109.4</ele>
        <time>2022-08-29T11:36:39Z</time>
      </trkpt>
      <trkpt lat="45.93974" lon="3.70818">
        <ele>1109.4</ele>
        <time>2022-08-29T11:36:40Z</time>
      </trkpt>
      <trkpt lat="45.93973" lon="3.70817">
        <ele>1109.4</ele>
        <time>2022-08-29T11:36:41Z</time>
      </trkpt>
      <trkpt lat="45.93973" lon="3.70816">
        <ele>1109.5</ele>
        <time>2022-08-29T11:36:42Z</time>
      </trkpt>
      <trkpt lat="45.93973" lon="3.70815">
        <ele>1109.5</ele>
        <time>2022-08-29T11:36:43Z</time>
      </trkpt>
      <trkpt lat="45.93973" lon="3.70814">
        <ele>1109.5</ele>
        <time>2022-08-29T11:36:44Z</time>
      </trkpt>
      <trkpt lat="45.93974" lon="3.70813">
        <ele>1109.6</ele>
        <time>2022-08-29T11:36:45Z</time>
      </trkpt>
      <trkpt lat="45.93974" lon="3.70812">
        <ele>1109.6</ele>
        <time>2022-08-29T11:36:46Z</time>
      </trkpt>
      <trkpt lat="45.93974" lon="3.70811">
        <ele>1109.6</ele>
        <time>2022-08-29T11:36:47Z</time>
      </trkpt>
      <trkpt lat="45.93974" lon="3.7081">
        <ele>1109.7</ele>
        <time>2022-08-29T11:36:48Z</time>
      </trkpt>
      <trkpt lat="45.93974" lon="3.70809">
        <ele>1109.7</ele>
        <time>2022-08-29T11:36:49Z</time>
      </trkpt>
      <trkpt lat="45.93974" lon="3.70807">
        <ele>1109.8</ele>
        <time>2022-08-29T11:36:50Z</time>
      </trkpt>
      <trkpt lat="45.93974" lon="3.70805">
        <ele>1109.8</ele>
        <time>2022-08-29T11:36:51Z</time>
      </trkpt>
      <trkpt lat="45.93973" lon="3.70804">
        <ele>1109.9</ele>
        <time>2022-08-29T11:36:52Z</time>
      </trkpt>
      <trkpt lat="45.93973" lon="3.70802">
        <ele>1109.9</ele>
        <time>2022-08-29T11:36:53Z</time>
      </trkpt>
      <trkpt lat="45.93973" lon="3.70801">
        <ele>1110</ele>
        <time>2022-08-29T11:36:54Z</time>
      </trkpt>
      <trkpt lat="45.93973" lon="3.708">
        <ele>1110</ele>
        <time>2022-08-29T11:36:55Z</time>
      </trkpt>
      <trkpt lat="45.93973" lon="3.708">
        <ele>1110</ele>
        <time>2022-08-29T11:36:56Z</time>
      </trkpt>
      <trkpt lat="45.93974" lon="3.70799">
        <ele>1110.1</ele>
        <time>2022-08-29T11:36:57Z</time>
      </trkpt>
      <trkpt lat="45.93975" lon="3.70798">
        <ele>1110.1</ele>
        <time>2022-08-29T11:36:58Z</time>
      </trkpt>
      <trkpt lat="45.93976" lon="3.70797">
        <ele>1110.2</ele>
        <time>2022-08-29T11:36:59Z</time>
      </trkpt>
      <trkpt lat="45.93977" lon="3.70795">
        <ele>1110.3</ele>
        <time>2022-08-29T11:37:00Z</time>
      </trkpt>
      <trkpt lat="45.93978" lon="3.70793">
        <ele>1110.4</ele>
        <time>2022-08-29T11:37:01Z</time>
      </trkpt>
      <trkpt lat="45.93978" lon="3.70791">
        <ele>1110.5</ele>
        <time>2022-08-29T11:37:02Z</time>
      </trkpt>
      <trkpt lat="45.93979" lon="3.70788">
        <ele>1110.6</ele>
        <time>2022-08-29T11:37:03Z</time>
      </trkpt>
      <trkpt lat="45.93979" lon="3.70787">
        <ele>1110.6</ele>
        <time>2022-08-29T11:37:04Z</time>
      </trkpt>
      <trkpt lat="45.93979" lon="3.70785">
        <ele>1110.7</ele>
        <time>2022-08-29T11:37:05Z</time>
      </trkpt>
      <trkpt lat="45.9398" lon="3.70783">
        <ele>1110.8</ele>
        <time>2022-08-29T11:37:06Z</time>
      </trkpt>
      <trkpt lat="45.93979" lon="3.70781">
        <ele>1110.9</ele>
        <time>2022-08-29T11:37:07Z</time>
      </trkpt>
      <trkpt lat="45.93979" lon="3.70779">
        <ele>1111</ele>
        <time>2022-08-29T11:37:08Z</time>
      </trkpt>
      <trkpt lat="45.93979" lon="3.70778">
        <ele>1111</ele>
        <time>2022-08-29T11:37:09Z</time>
      </trkpt>
      <trkpt lat="45.93978" lon="3.70776">
        <ele>1111.1</ele>
        <time>2022-08-29T11:37:10Z</time>
      </trkpt>
      <trkpt lat="45.93977" lon="3.70776">
        <ele>1111.1</ele>
        <time>2022-08-29T11:37:11Z</time>
      </trkpt>
      <trkpt lat="45.93977" lon="3.70775">
        <ele>1111.2</ele>
        <time>2022-08-29T11:37:12Z</time>
      </trkpt>
      <trkpt lat="45.93976" lon="3.70773">
        <ele>1111.3</ele>
        <time>2022-08-29T11:37:13Z</time>
      </trkpt>
      <trkpt lat="45.93975" lon="3.70768">
        <ele>1111.5</ele>
        <time>2022-08-29T11:37:14Z</time>
      </trkpt>
      <trkpt lat="45.93975" lon="3.70766">
        <ele>1111.5</ele>
        <time>2022-08-29T11:37:15Z</time>
      </trkpt>
      <trkpt lat="45.93974" lon="3.70764">
        <ele>1111.6</ele>
        <time>2022-08-29T11:37:16Z</time>
      </trkpt>
      <trkpt lat="45.93974" lon="3.70762">
        <ele>1111.7</ele>
        <time>2022-08-29T11:37:17Z</time>
      </trkpt>
      <trkpt lat="45.93974" lon="3.7076">
        <ele>1111.8</ele>
        <time>2022-08-29T11:37:18Z</time>
      </trkpt>
      <trkpt lat="45.93975" lon="3.70759">
        <ele>1111.8</ele>
        <time>2022-08-29T11:37:19Z</time>
      </trkpt>
      <trkpt lat="45.93975" lon="3.70758">
        <ele>1111.8</ele>
        <time>2022-08-29T11:37:20Z</time>
      </trkpt>
      <trkpt lat="45.93975" lon="3.70757">
        <ele>1111.9</ele>
        <time>2022-08-29T11:37:21Z</time>
      </trkpt>
      <trkpt lat="45.93975" lon="3.70754">
        <ele>1112</ele>
        <time>2022-08-29T11:37:22Z</time>
      </trkpt>
      <trkpt lat="45.93975" lon="3.70753">
        <ele>1112</ele>
        <time>2022-08-29T11:37:23Z</time>
      </trkpt>
      <trkpt lat="45.93975" lon="3.70751">
        <ele>1112.1</ele>
        <time>2022-08-29T11:37:24Z</time>
      </trkpt>
      <trkpt lat="45.93975" lon="3.70747">
        <ele>1112.2</ele>
        <time>2022-08-29T11:37:25Z</time>
      </trkpt>
      <trkpt lat="45.93975" lon="3.70746">
        <ele>1112.3</ele>
        <time>2022-08-29T11:37:26Z</time>
      </trkpt>
      <trkpt lat="45.93974" lon="3.70743">
        <ele>1112.4</ele>
        <time>2022-08-29T11:37:27Z</time>
      </trkpt>
      <trkpt lat="45.93973" lon="3.70742">
        <ele>1112.4</ele>
        <time>2022-08-29T11:37:28Z</time>
      </trkpt>
      <trkpt lat="45.93973" lon="3.70742">
        <ele>1112.4</ele>
        <time>2022-08-29T11:37:29Z</time>
      </trkpt>
      <trkpt lat="45.93971" lon="3.70738">
        <ele>1112.6</ele>
        <time>2022-08-29T11:37:30Z</time>
      </trkpt>
      <trkpt lat="45.93971" lon="3.70737">
        <ele>1112.6</ele>
        <time>2022-08-29T11:37:31Z</time>
      </trkpt>
      <trkpt lat="45.93971" lon="3.70733">
        <ele>1112.7</ele>
        <time>2022-08-29T11:37:32Z</time>
      </trkpt>
      <trkpt lat="45.93971" lon="3.70731">
        <ele>1112.8</ele>
        <time>2022-08-29T11:37:33Z</time>
      </trkpt>
      <trkpt lat="45.93972" lon="3.70727">
        <ele>1112.9</ele>
        <time>2022-08-29T11:37:34Z</time>
      </trkpt>
      <trkpt lat="45.93973" lon="3.70726">
        <ele>1113</ele>
        <time>2022-08-29T11:37:35Z</time>
      </trkpt>
      <trkpt lat="45.93974" lon="3.70724">
        <ele>1113</ele>
        <time>2022-08-29T11:37:36Z</time>
      </trkpt>
      <trkpt lat="45.93974" lon="3.70723">
        <ele>1113</ele>
        <time>2022-08-29T11:37:37Z</time>
      </trkpt>
      <trkpt lat="45.93974" lon="3.70721">
        <ele>1113.1</ele>
        <time>2022-08-29T11:37:38Z</time>
      </trkpt>
      <trkpt lat="45.93973" lon="3.7072">
        <ele>1113.1</ele>
        <time>2022-08-29T11:37:39Z</time>
      </trkpt>
      <trkpt lat="45.93973" lon="3.70718">
        <ele>1113.2</ele>
        <time>2022-08-29T11:37:40Z</time>
      </trkpt>
      <trkpt lat="45.93973" lon="3.70716">
        <ele>1113.2</ele>
        <time>2022-08-29T11:37:41Z</time>
      </trkpt>
      <trkpt lat="45.93973" lon="3.70715">
        <ele>1113.2</ele>
        <time>2022-08-29T11:37:42Z</time>
      </trkpt>
      <trkpt lat="45.93973" lon="3.70714">
        <ele>1113.3</ele>
        <time>2022-08-29T11:37:43Z</time>
      </trkpt>
      <trkpt lat="45.93973" lon="3.70713">
        <ele>1113.3</ele>
        <time>2022-08-29T11:37:44Z</time>
      </trkpt>
      <trkpt lat="45.93973" lon="3.70712">
        <ele>1113.3</ele>
        <time>2022-08-29T11:37:45Z</time>
      </trkpt>
      <trkpt lat="45.93975" lon="3.7071">
        <ele>1113.4</ele>
        <time>2022-08-29T11:37:46Z</time>
      </trkpt>
      <trkpt lat="45.93975" lon="3.70709">
        <ele>1113.4</ele>
        <time>2022-08-29T11:37:47Z</time>
      </trkpt>
      <trkpt lat="45.93976" lon="3.70708">
        <ele>1113.4</ele>
        <time>2022-08-29T11:37:48Z</time>
      </trkpt>
      <trkpt lat="45.93976" lon="3.70706">
        <ele>1113.5</ele>
        <time>2022-08-29T11:37:49Z</time>
      </trkpt>
      <trkpt lat="45.93977" lon="3.70705">
        <ele>1113.5</ele>
        <time>2022-08-29T11:37:50Z</time>
      </trkpt>
      <trkpt lat="45.93977" lon="3.70703">
        <ele>1113.5</ele>
        <time>2022-08-29T11:37:51Z</time>
      </trkpt>
      <trkpt lat="45.93976" lon="3.70701">
        <ele>1113.6</ele>
        <time>2022-08-29T11:37:52Z</time>
      </trkpt>
      <trkpt lat="45.93975" lon="3.70699">
        <ele>1113.6</ele>
        <time>2022-08-29T11:37:53Z</time>
      </trkpt>
      <trkpt lat="45.93975" lon="3.70698">
        <ele>1113.6</ele>
        <time>2022-08-29T11:37:54Z</time>
      </trkpt>
      <trkpt lat="45.93974" lon="3.70694">
        <ele>1113.7</ele>
        <time>2022-08-29T11:37:55Z</time>
      </trkpt>
      <trkpt lat="45.93973" lon="3.70693">
        <ele>1113.7</ele>
        <time>2022-08-29T11:37:56Z</time>
      </trkpt>
      <trkpt lat="45.93972" lon="3.70691">
        <ele>1113.8</ele>
        <time>2022-08-29T11:37:57Z</time>
      </trkpt>
      <trkpt lat="45.93972" lon="3.7069">
        <ele>1113.8</ele>
        <time>2022-08-29T11:37:58Z</time>
      </trkpt>
      <trkpt lat="45.93972" lon="3.70689">
        <ele>1113.8</ele>
        <time>2022-08-29T11:37:59Z</time>
      </trkpt>
      <trkpt lat="45.93972" lon="3.70688">
        <ele>1113.8</ele>
        <time>2022-08-29T11:38:00Z</time>
      </trkpt>
      <trkpt lat="45.93972" lon="3.70687">
        <ele>1113.8</ele>
        <time>2022-08-29T11:38:01Z</time>
      </trkpt>
      <trkpt lat="45.93971" lon="3.70685">
        <ele>1113.9</ele>
        <time>2022-08-29T11:38:02Z</time>
      </trkpt>
      <trkpt lat="45.93971" lon="3.70684">
        <ele>1113.9</ele>
        <time>2022-08-29T11:38:03Z</time>
      </trkpt>
      <trkpt lat="45.9397" lon="3.70683">
        <ele>1113.9</ele>
        <time>2022-08-29T11:38:04Z</time>
      </trkpt>
      <trkpt lat="45.93969" lon="3.70682">
        <ele>1113.9</ele>
        <time>2022-08-29T11:38:05Z</time>
      </trkpt>
      <trkpt lat="45.93968" lon="3.70681">
        <ele>1114</ele>
        <time>2022-08-29T11:38:06Z</time>
      </trkpt>
      <trkpt lat="45.93968" lon="3.7068">
        <ele>1114</ele>
        <time>2022-08-29T11:38:07Z</time>
      </trkpt>
      <trkpt lat="45.93968" lon="3.70679">
        <ele>1114</ele>
        <time>2022-08-29T11:38:08Z</time>
      </trkpt>
      <trkpt lat="45.93968" lon="3.70676">
        <ele>1114</ele>
        <time>2022-08-29T11:38:09Z</time>
      </trkpt>
      <trkpt lat="45.93969" lon="3.70672">
        <ele>1114.1</ele>
        <time>2022-08-29T11:38:10Z</time>
      </trkpt>
      <trkpt lat="45.93969" lon="3.7067">
        <ele>1114.1</ele>
        <time>2022-08-29T11:38:11Z</time>
      </trkpt>
      <trkpt lat="45.93969" lon="3.70665">
        <ele>1114.2</ele>
        <time>2022-08-29T11:38:12Z</time>
      </trkpt>
      <trkpt lat="45.93969" lon="3.70663">
        <ele>1114.3</ele>
        <time>2022-08-29T11:38:13Z</time>
      </trkpt>
      <trkpt lat="45.93968" lon="3.70661">
        <ele>1114.3</ele>
        <time>2022-08-29T11:38:14Z</time>
      </trkpt>
      <trkpt lat="45.93968" lon="3.70659">
        <ele>1114.3</ele>
        <time>2022-08-29T11:38:15Z</time>
      </trkpt>
      <trkpt lat="45.93967" lon="3.70656">
        <ele>1114.4</ele>
        <time>2022-08-29T11:38:16Z</time>
      </trkpt>
      <trkpt lat="45.93967" lon="3.70655">
        <ele>1114.4</ele>
        <time>2022-08-29T11:38:17Z</time>
      </trkpt>
      <trkpt lat="45.93967" lon="3.70654">
        <ele>1114.4</ele>
        <time>2022-08-29T11:38:18Z</time>
      </trkpt>
      <trkpt lat="45.93967" lon="3.70652">
        <ele>1114.4</ele>
        <time>2022-08-29T11:38:19Z</time>
      </trkpt>
      <trkpt lat="45.93966" lon="3.7065">
        <ele>1114.4</ele>
        <time>2022-08-29T11:38:20Z</time>
      </trkpt>
      <trkpt lat="45.93966" lon="3.70648">
        <ele>1114.5</ele>
        <time>2022-08-29T11:38:21Z</time>
      </trkpt>
      <trkpt lat="45.93965" lon="3.70647">
        <ele>1114.5</ele>
        <time>2022-08-29T11:38:22Z</time>
      </trkpt>
      <trkpt lat="45.93964" lon="3.70646">
        <ele>1114.5</ele>
        <time>2022-08-29T11:38:23Z</time>
      </trkpt>
      <trkpt lat="45.93963" lon="3.70645">
        <ele>1114.5</ele>
        <time>2022-08-29T11:38:24Z</time>
      </trkpt>
      <trkpt lat="45.93963" lon="3.70644">
        <ele>1114.5</ele>
        <time>2022-08-29T11:38:25Z</time>
      </trkpt>
      <trkpt lat="45.93962" lon="3.70643">
        <ele>1114.6</ele>
        <time>2022-08-29T11:38:26Z</time>
      </trkpt>
      <trkpt lat="45.93962" lon="3.70641">
        <ele>1114.6</ele>
        <time>2022-08-29T11:38:27Z</time>
      </trkpt>
      <trkpt lat="45.93962" lon="3.7064">
        <ele>1114.6</ele>
        <time>2022-08-29T11:38:28Z</time>
      </trkpt>
      <trkpt lat="45.93962" lon="3.70639">
        <ele>1114.6</ele>
        <time>2022-08-29T11:38:29Z</time>
      </trkpt>
      <trkpt lat="45.93962" lon="3.70638">
        <ele>1114.6</ele>
        <time>2022-08-29T11:38:30Z</time>
      </trkpt>
      <trkpt lat="45.9396" lon="3.70637">
        <ele>1114.6</ele>
        <time>2022-08-29T11:38:31Z</time>
      </trkpt>
      <trkpt lat="45.93959" lon="3.70635">
        <ele>1114.7</ele>
        <time>2022-08-29T11:38:32Z</time>
      </trkpt>
      <trkpt lat="45.93956" lon="3.70632">
        <ele>1114.7</ele>
        <time>2022-08-29T11:38:33Z</time>
      </trkpt>
      <trkpt lat="45.93955" lon="3.70631">
        <ele>1114.8</ele>
        <time>2022-08-29T11:38:34Z</time>
      </trkpt>
      <trkpt lat="45.93953" lon="3.70627">
        <ele>1114.8</ele>
        <time>2022-08-29T11:38:35Z</time>
      </trkpt>
      <trkpt lat="45.93953" lon="3.70626">
        <ele>1114.9</ele>
        <time>2022-08-29T11:38:36Z</time>
      </trkpt>
      <trkpt lat="45.93952" lon="3.70622">
        <ele>1114.9</ele>
        <time>2022-08-29T11:38:37Z</time>
      </trkpt>
      <trkpt lat="45.93952" lon="3.70621">
        <ele>1114.9</ele>
        <time>2022-08-29T11:38:38Z</time>
      </trkpt>
      <trkpt lat="45.93952" lon="3.70619">
        <ele>1115</ele>
        <time>2022-08-29T11:38:39Z</time>
      </trkpt>
      <trkpt lat="45.93952" lon="3.70616">
        <ele>1115</ele>
        <time>2022-08-29T11:38:40Z</time>
      </trkpt>
      <trkpt lat="45.93952" lon="3.70613">
        <ele>1115.1</ele>
        <time>2022-08-29T11:38:41Z</time>
      </trkpt>
      <trkpt lat="45.93952" lon="3.70612">
        <ele>1115.1</ele>
        <time>2022-08-29T11:38:42Z</time>
      </trkpt>
      <trkpt lat="45.93952" lon="3.70611">
        <ele>1115.1</ele>
        <time>2022-08-29T11:38:43Z</time>
      </trkpt>
      <trkpt lat="45.93952" lon="3.70608">
        <ele>1115.2</ele>
        <time>2022-08-29T11:38:44Z</time>
      </trkpt>
      <trkpt lat="45.93952" lon="3.70606">
        <ele>1115.2</ele>
        <time>2022-08-29T11:38:45Z</time>
      </trkpt>
      <trkpt lat="45.93951" lon="3.70602">
        <ele>1115.3</ele>
        <time>2022-08-29T11:38:46Z</time>
      </trkpt>
      <trkpt lat="45.93951" lon="3.706">
        <ele>1115.3</ele>
        <time>2022-08-29T11:38:47Z</time>
      </trkpt>
      <trkpt lat="45.9395" lon="3.70598">
        <ele>1115.4</ele>
        <time>2022-08-29T11:38:48Z</time>
      </trkpt>
      <trkpt lat="45.9395" lon="3.70597">
        <ele>1115.4</ele>
        <time>2022-08-29T11:38:49Z</time>
      </trkpt>
      <trkpt lat="45.9395" lon="3.70593">
        <ele>1115.5</ele>
        <time>2022-08-29T11:38:50Z</time>
      </trkpt>
      <trkpt lat="45.9395" lon="3.70592">
        <ele>1115.5</ele>
        <time>2022-08-29T11:38:51Z</time>
      </trkpt>
      <trkpt lat="45.93951" lon="3.70591">
        <ele>1115.5</ele>
        <time>2022-08-29T11:38:52Z</time>
      </trkpt>
      <trkpt lat="45.93951" lon="3.7059">
        <ele>1115.5</ele>
        <time>2022-08-29T11:38:53Z</time>
      </trkpt>
      <trkpt lat="45.93952" lon="3.70589">
        <ele>1115.5</ele>
        <time>2022-08-29T11:38:54Z</time>
      </trkpt>
      <trkpt lat="45.93952" lon="3.70588">
        <ele>1115.5</ele>
        <time>2022-08-29T11:38:55Z</time>
      </trkpt>
      <trkpt lat="45.93952" lon="3.70586">
        <ele>1115.6</ele>
        <time>2022-08-29T11:38:56Z</time>
      </trkpt>
      <trkpt lat="45.93952" lon="3.70585">
        <ele>1115.6</ele>
        <time>2022-08-29T11:38:57Z</time>
      </trkpt>
      <trkpt lat="45.93952" lon="3.70583">
        <ele>1115.6</ele>
        <time>2022-08-29T11:38:58Z</time>
      </trkpt>
      <trkpt lat="45.93953" lon="3.70581">
        <ele>1115.6</ele>
        <time>2022-08-29T11:38:59Z</time>
      </trkpt>
      <trkpt lat="45.93953" lon="3.70578">
        <ele>1115.6</ele>
        <time>2022-08-29T11:39:00Z</time>
      </trkpt>
      <trkpt lat="45.93954" lon="3.70576">
        <ele>1115.6</ele>
        <time>2022-08-29T11:39:01Z</time>
      </trkpt>
      <trkpt lat="45.93954" lon="3.70573">
        <ele>1115.6</ele>
        <time>2022-08-29T11:39:02Z</time>
      </trkpt>
      <trkpt lat="45.93954" lon="3.70572">
        <ele>1115.6</ele>
        <time>2022-08-29T11:39:03Z</time>
      </trkpt>
      <trkpt lat="45.93953" lon="3.7057">
        <ele>1115.6</ele>
        <time>2022-08-29T11:39:04Z</time>
      </trkpt>
      <trkpt lat="45.93953" lon="3.70569">
        <ele>1115.6</ele>
        <time>2022-08-29T11:39:05Z</time>
      </trkpt>
      <trkpt lat="45.93952" lon="3.70568">
        <ele>1115.6</ele>
        <time>2022-08-29T11:39:06Z</time>
      </trkpt>
      <trkpt lat="45.93951" lon="3.70567">
        <ele>1115.6</ele>
        <time>2022-08-29T11:39:07Z</time>
      </trkpt>
      <trkpt lat="45.9395" lon="3.70566">
        <ele>1115.6</ele>
        <time>2022-08-29T11:39:08Z</time>
      </trkpt>
      <trkpt lat="45.93949" lon="3.70564">
        <ele>1115.6</ele>
        <time>2022-08-29T11:39:09Z</time>
      </trkpt>
      <trkpt lat="45.93949" lon="3.70561">
        <ele>1115.6</ele>
        <time>2022-08-29T11:39:10Z</time>
      </trkpt>
      <trkpt lat="45.93948" lon="3.70559">
        <ele>1115.6</ele>
        <time>2022-08-29T11:39:11Z</time>
      </trkpt>
      <trkpt lat="45.93948" lon="3.70557">
        <ele>1115.6</ele>
        <time>2022-08-29T11:39:12Z</time>
      </trkpt>
      <trkpt lat="45.93947" lon="3.70556">
        <ele>1115.6</ele>
        <time>2022-08-29T11:39:13Z</time>
      </trkpt>
      <trkpt lat="45.93947" lon="3.70554">
        <ele>1115.6</ele>
        <time>2022-08-29T11:39:14Z</time>
      </trkpt>
      <trkpt lat="45.93948" lon="3.70553">
        <ele>1115.6</ele>
        <time>2022-08-29T11:39:15Z</time>
      </trkpt>
      <trkpt lat="45.93948" lon="3.70551">
        <ele>1115.6</ele>
        <time>2022-08-29T11:39:16Z</time>
      </trkpt>
      <trkpt lat="45.93948" lon="3.7055">
        <ele>1115.6</ele>
        <time>2022-08-29T11:39:17Z</time>
      </trkpt>
      <trkpt lat="45.93948" lon="3.70548">
        <ele>1115.6</ele>
        <time>2022-08-29T11:39:18Z</time>
      </trkpt>
      <trkpt lat="45.93948" lon="3.70546">
        <ele>1115.6</ele>
        <time>2022-08-29T11:39:19Z</time>
      </trkpt>
      <trkpt lat="45.93948" lon="3.70543">
        <ele>1115.6</ele>
        <time>2022-08-29T11:39:20Z</time>
      </trkpt>
      <trkpt lat="45.93948" lon="3.70539">
        <ele>1115.5</ele>
        <time>2022-08-29T11:39:21Z</time>
      </trkpt>
      <trkpt lat="45.93948" lon="3.70537">
        <ele>1115.5</ele>
        <time>2022-08-29T11:39:22Z</time>
      </trkpt>
      <trkpt lat="45.93948" lon="3.70532">
        <ele>1115.5</ele>
        <time>2022-08-29T11:39:23Z</time>
      </trkpt>
      <trkpt lat="45.93948" lon="3.7053">
        <ele>1115.5</ele>
        <time>2022-08-29T11:39:24Z</time>
      </trkpt>
      <trkpt lat="45.93948" lon="3.70528">
        <ele>1115.5</ele>
        <time>2022-08-29T11:39:25Z</time>
      </trkpt>
      <trkpt lat="45.93949" lon="3.70526">
        <ele>1115.5</ele>
        <time>2022-08-29T11:39:26Z</time>
      </trkpt>
      <trkpt lat="45.9395" lon="3.70524">
        <ele>1115.5</ele>
        <time>2022-08-29T11:39:27Z</time>
      </trkpt>
      <trkpt lat="45.93951" lon="3.70523">
        <ele>1115.5</ele>
        <time>2022-08-29T11:39:28Z</time>
      </trkpt>
      <trkpt lat="45.93951" lon="3.70522">
        <ele>1115.5</ele>
        <time>2022-08-29T11:39:29Z</time>
      </trkpt>
      <trkpt lat="45.93952" lon="3.7052">
        <ele>1115.5</ele>
        <time>2022-08-29T11:39:30Z</time>
      </trkpt>
      <trkpt lat="45.93953" lon="3.70518">
        <ele>1115.5</ele>
        <time>2022-08-29T11:39:31Z</time>
      </trkpt>
      <trkpt lat="45.93954" lon="3.70516">
        <ele>1115.5</ele>
        <time>2022-08-29T11:39:32Z</time>
      </trkpt>
      <trkpt lat="45.93955" lon="3.70515">
        <ele>1115.5</ele>
        <time>2022-08-29T11:39:33Z</time>
      </trkpt>
      <trkpt lat="45.93956" lon="3.70513">
        <ele>1115.6</ele>
        <time>2022-08-29T11:39:34Z</time>
      </trkpt>
      <trkpt lat="45.93955" lon="3.70511">
        <ele>1115.6</ele>
        <time>2022-08-29T11:39:35Z</time>
      </trkpt>
      <trkpt lat="45.93955" lon="3.70509">
        <ele>1115.6</ele>
        <time>2022-08-29T11:39:36Z</time>
      </trkpt>
      <trkpt lat="45.93954" lon="3.70508">
        <ele>1115.6</ele>
        <time>2022-08-29T11:39:37Z</time>
      </trkpt>
      <trkpt lat="45.93954" lon="3.70507">
        <ele>1115.6</ele>
        <time>2022-08-29T11:39:38Z</time>
      </trkpt>
      <trkpt lat="45.93953" lon="3.70506">
        <ele>1115.7</ele>
        <time>2022-08-29T11:39:39Z</time>
      </trkpt>
      <trkpt lat="45.93952" lon="3.70504">
        <ele>1115.7</ele>
        <time>2022-08-29T11:39:40Z</time>
      </trkpt>
      <trkpt lat="45.93952" lon="3.70503">
        <ele>1115.7</ele>
        <time>2022-08-29T11:39:41Z</time>
      </trkpt>
      <trkpt lat="45.93951" lon="3.70501">
        <ele>1115.8</ele>
        <time>2022-08-29T11:39:42Z</time>
      </trkpt>
      <trkpt lat="45.93951" lon="3.705">
        <ele>1115.8</ele>
        <time>2022-08-29T11:39:43Z</time>
      </trkpt>
      <trkpt lat="45.9395" lon="3.70498">
        <ele>1115.8</ele>
        <time>2022-08-29T11:39:44Z</time>
      </trkpt>
      <trkpt lat="45.9395" lon="3.70497">
        <ele>1115.9</ele>
        <time>2022-08-29T11:39:45Z</time>
      </trkpt>
      <trkpt lat="45.93951" lon="3.70494">
        <ele>1115.9</ele>
        <time>2022-08-29T11:39:46Z</time>
      </trkpt>
      <trkpt lat="45.9395" lon="3.70492">
        <ele>1116</ele>
        <time>2022-08-29T11:39:47Z</time>
      </trkpt>
      <trkpt lat="45.9395" lon="3.70491">
        <ele>1116</ele>
        <time>2022-08-29T11:39:48Z</time>
      </trkpt>
      <trkpt lat="45.9395" lon="3.70489">
        <ele>1116.1</ele>
        <time>2022-08-29T11:39:49Z</time>
      </trkpt>
      <trkpt lat="45.93949" lon="3.70488">
        <ele>1116.1</ele>
        <time>2022-08-29T11:39:50Z</time>
      </trkpt>
      <trkpt lat="45.93949" lon="3.70487">
        <ele>1116.2</ele>
        <time>2022-08-29T11:39:51Z</time>
      </trkpt>
      <trkpt lat="45.93948" lon="3.70485">
        <ele>1116.2</ele>
        <time>2022-08-29T11:39:52Z</time>
      </trkpt>
      <trkpt lat="45.93947" lon="3.70484">
        <ele>1116.3</ele>
        <time>2022-08-29T11:39:53Z</time>
      </trkpt>
      <trkpt lat="45.93947" lon="3.70483">
        <ele>1116.3</ele>
        <time>2022-08-29T11:39:54Z</time>
      </trkpt>
      <trkpt lat="45.93947" lon="3.70481">
        <ele>1116.4</ele>
        <time>2022-08-29T11:39:55Z</time>
      </trkpt>
      <trkpt lat="45.93947" lon="3.7048">
        <ele>1116.4</ele>
        <time>2022-08-29T11:39:56Z</time>
      </trkpt>
      <trkpt lat="45.93947" lon="3.70478">
        <ele>1116.5</ele>
        <time>2022-08-29T11:39:57Z</time>
      </trkpt>
      <trkpt lat="45.93947" lon="3.70477">
        <ele>1116.5</ele>
        <time>2022-08-29T11:39:58Z</time>
      </trkpt>
      <trkpt lat="45.93948" lon="3.70475">
        <ele>1116.6</ele>
        <time>2022-08-29T11:39:59Z</time>
      </trkpt>
      <trkpt lat="45.93949" lon="3.70474">
        <ele>1116.7</ele>
        <time>2022-08-29T11:40:00Z</time>
      </trkpt>
      <trkpt lat="45.9395" lon="3.70473">
        <ele>1116.8</ele>
        <time>2022-08-29T11:40:01Z</time>
      </trkpt>
      <trkpt lat="45.9395" lon="3.70472">
        <ele>1116.8</ele>
        <time>2022-08-29T11:40:02Z</time>
      </trkpt>
      <trkpt lat="45.9395" lon="3.70471">
        <ele>1116.9</ele>
        <time>2022-08-29T11:40:03Z</time>
      </trkpt>
      <trkpt lat="45.93951" lon="3.7047">
        <ele>1116.9</ele>
        <time>2022-08-29T11:40:04Z</time>
      </trkpt>
      <trkpt lat="45.93952" lon="3.7047">
        <ele>1117</ele>
        <time>2022-08-29T11:40:05Z</time>
      </trkpt>
      <trkpt lat="45.93953" lon="3.70469">
        <ele>1117.1</ele>
        <time>2022-08-29T11:40:06Z</time>
      </trkpt>
      <trkpt lat="45.93954" lon="3.70469">
        <ele>1117.2</ele>
        <time>2022-08-29T11:40:07Z</time>
      </trkpt>
      <trkpt lat="45.93955" lon="3.70468">
        <ele>1117.3</ele>
        <time>2022-08-29T11:40:08Z</time>
      </trkpt>
      <trkpt lat="45.93956" lon="3.70467">
        <ele>1117.4</ele>
        <time>2022-08-29T11:40:09Z</time>
      </trkpt>
      <trkpt lat="45.93957" lon="3.70466">
        <ele>1117.5</ele>
        <time>2022-08-29T11:40:10Z</time>
      </trkpt>
      <trkpt lat="45.93958" lon="3.70465">
        <ele>1117.6</ele>
        <time>2022-08-29T11:40:11Z</time>
      </trkpt>
      <trkpt lat="45.93958" lon="3.70464">
        <ele>1117.7</ele>
        <time>2022-08-29T11:40:12Z</time>
      </trkpt>
      <trkpt lat="45.93959" lon="3.70464">
        <ele>1117.8</ele>
        <time>2022-08-29T11:40:13Z</time>
      </trkpt>
      <trkpt lat="45.93959" lon="3.70463">
        <ele>1117.8</ele>
        <time>2022-08-29T11:40:14Z</time>
      </trkpt>
      <trkpt lat="45.93959" lon="3.70463">
        <ele>1117.8</ele>
        <time>2022-08-29T11:40:15Z</time>
      </trkpt>
      <trkpt lat="45.93958" lon="3.70464">
        <ele>1117.8</ele>
        <time>2022-08-29T11:40:16Z</time>
      </trkpt>
      <trkpt lat="45.93958" lon="3.70464">
        <ele>1117.8</ele>
        <time>2022-08-29T11:40:17Z</time>
      </trkpt>
      <trkpt lat="45.93958" lon="3.70464">
        <ele>1117.9</ele>
        <time>2022-08-29T11:40:18Z</time>
      </trkpt>
      <trkpt lat="45.93958" lon="3.70464">
        <ele>1117.9</ele>
        <time>2022-08-29T11:40:19Z</time>
      </trkpt>
      <trkpt lat="45.93958" lon="3.70465">
        <ele>1117.9</ele>
        <time>2022-08-29T11:40:20Z</time>
      </trkpt>
      <trkpt lat="45.93957" lon="3.70466">
        <ele>1118</ele>
        <time>2022-08-29T11:40:21Z</time>
      </trkpt>
      <trkpt lat="45.93957" lon="3.70466">
        <ele>1118.1</ele>
        <time>2022-08-29T11:40:22Z</time>
      </trkpt>
      <trkpt lat="45.93956" lon="3.70467">
        <ele>1118.2</ele>
        <time>2022-08-29T11:40:23Z</time>
      </trkpt>
      <trkpt lat="45.93956" lon="3.70467">
        <ele>1118.2</ele>
        <time>2022-08-29T11:40:24Z</time>
      </trkpt>
      <trkpt lat="45.93956" lon="3.70467">
        <ele>1118.3</ele>
        <time>2022-08-29T11:40:25Z</time>
      </trkpt>
      <trkpt lat="45.93956" lon="3.70467">
        <ele>1118.3</ele>
        <time>2022-08-29T11:40:26Z</time>
      </trkpt>
      <trkpt lat="45.93956" lon="3.70467">
        <ele>1118.3</ele>
        <time>2022-08-29T11:40:27Z</time>
      </trkpt>
      <trkpt lat="45.93956" lon="3.70467">
        <ele>1118.3</ele>
        <time>2022-08-29T11:40:28Z</time>
      </trkpt>
      <trkpt lat="45.93956" lon="3.70467">
        <ele>1118.3</ele>
        <time>2022-08-29T11:40:29Z</time>
      </trkpt>
      <trkpt lat="45.93956" lon="3.70467">
        <ele>1118.3</ele>
        <time>2022-08-29T11:40:30Z</time>
      </trkpt>
      <trkpt lat="45.93956" lon="3.70467">
        <ele>1118.3</ele>
        <time>2022-08-29T11:40:32Z</time>
      </trkpt>
      <trkpt lat="45.93963" lon="3.70451">
        <ele>1120.3</ele>
        <time>2022-08-29T11:44:49Z</time>
      </trkpt>
      <trkpt lat="45.93964" lon="3.70449">
        <ele>1120.5</ele>
        <time>2022-08-29T11:44:50Z</time>
      </trkpt>
      <trkpt lat="45.93964" lon="3.70448">
        <ele>1120.7</ele>
        <time>2022-08-29T11:44:51Z</time>
      </trkpt>
      <trkpt lat="45.93966" lon="3.70445">
        <ele>1121</ele>
        <time>2022-08-29T11:44:52Z</time>
      </trkpt>
      <trkpt lat="45.93966" lon="3.70444">
        <ele>1121.1</ele>
        <time>2022-08-29T11:44:53Z</time>
      </trkpt>
      <trkpt lat="45.93967" lon="3.70444">
        <ele>1121.2</ele>
        <time>2022-08-29T11:44:54Z</time>
      </trkpt>
      <trkpt lat="45.93969" lon="3.70442">
        <ele>1121.5</ele>
        <time>2022-08-29T11:44:55Z</time>
      </trkpt>
      <trkpt lat="45.9397" lon="3.70441">
        <ele>1121.6</ele>
        <time>2022-08-29T11:44:56Z</time>
      </trkpt>
      <trkpt lat="45.9397" lon="3.70439">
        <ele>1121.7</ele>
        <time>2022-08-29T11:44:57Z</time>
      </trkpt>
      <trkpt lat="45.93971" lon="3.70438">
        <ele>1121.9</ele>
        <time>2022-08-29T11:44:58Z</time>
      </trkpt>
      <trkpt lat="45.93972" lon="3.70436">
        <ele>1122</ele>
        <time>2022-08-29T11:44:59Z</time>
      </trkpt>
      <trkpt lat="45.93973" lon="3.70435">
        <ele>1122.1</ele>
        <time>2022-08-29T11:45:00Z</time>
      </trkpt>
      <trkpt lat="45.93974" lon="3.70434">
        <ele>1122.2</ele>
        <time>2022-08-29T11:45:01Z</time>
      </trkpt>
      <trkpt lat="45.93974" lon="3.70433">
        <ele>1122.3</ele>
        <time>2022-08-29T11:45:02Z</time>
      </trkpt>
      <trkpt lat="45.93975" lon="3.70432">
        <ele>1122.4</ele>
        <time>2022-08-29T11:45:03Z</time>
      </trkpt>
      <trkpt lat="45.93976" lon="3.70431">
        <ele>1122.5</ele>
        <time>2022-08-29T11:45:04Z</time>
      </trkpt>
      <trkpt lat="45.93976" lon="3.7043">
        <ele>1122.6</ele>
        <time>2022-08-29T11:45:05Z</time>
      </trkpt>
      <trkpt lat="45.93977" lon="3.70429">
        <ele>1122.6</ele>
        <time>2022-08-29T11:45:06Z</time>
      </trkpt>
      <trkpt lat="45.93978" lon="3.70428">
        <ele>1122.7</ele>
        <time>2022-08-29T11:45:07Z</time>
      </trkpt>
      <trkpt lat="45.93978" lon="3.70427">
        <ele>1122.8</ele>
        <time>2022-08-29T11:45:08Z</time>
      </trkpt>
      <trkpt lat="45.93978" lon="3.70426">
        <ele>1122.8</ele>
        <time>2022-08-29T11:45:09Z</time>
      </trkpt>
      <trkpt lat="45.93978" lon="3.70425">
        <ele>1122.9</ele>
        <time>2022-08-29T11:45:10Z</time>
      </trkpt>
      <trkpt lat="45.94091" lon="3.70272">
        <ele>1140</ele>
        <time>2022-08-29T11:51:07Z</time>
      </trkpt>
      <trkpt lat="45.94091" lon="3.70302">
        <ele>1141.4</ele>
        <time>2022-08-29T11:51:08Z</time>
      </trkpt>
      <trkpt lat="45.94091" lon="3.70307">
        <ele>1141.6</ele>
        <time>2022-08-29T11:51:09Z</time>
      </trkpt>
      <trkpt lat="45.9409" lon="3.70312">
        <ele>1141.8</ele>
        <time>2022-08-29T11:51:10Z</time>
      </trkpt>
      <trkpt lat="45.94089" lon="3.70315">
        <ele>1141.9</ele>
        <time>2022-08-29T11:51:11Z</time>
      </trkpt>
      <trkpt lat="45.94086" lon="3.70319">
        <ele>1142.1</ele>
        <time>2022-08-29T11:51:13Z</time>
      </trkpt>
      <trkpt lat="45.94085" lon="3.70319">
        <ele>1142.1</ele>
        <time>2022-08-29T11:51:14Z</time>
      </trkpt>
      <trkpt lat="45.94086" lon="3.70319">
        <ele>1142.2</ele>
        <time>2022-08-29T11:51:15Z</time>
      </trkpt>
      <trkpt lat="45.94085" lon="3.70317">
        <ele>1142.3</ele>
        <time>2022-08-29T11:51:16Z</time>
      </trkpt>
      <trkpt lat="45.94084" lon="3.70317">
        <ele>1142.3</ele>
        <time>2022-08-29T11:51:17Z</time>
      </trkpt>
      <trkpt lat="45.9408" lon="3.70318">
        <ele>1142.5</ele>
        <time>2022-08-29T11:51:19Z</time>
      </trkpt>
      <trkpt lat="45.94075" lon="3.70321">
        <ele>1142.7</ele>
        <time>2022-08-29T11:51:21Z</time>
      </trkpt>
      <trkpt lat="45.94074" lon="3.70323">
        <ele>1142.8</ele>
        <time>2022-08-29T11:51:22Z</time>
      </trkpt>
      <trkpt lat="45.94072" lon="3.70324">
        <ele>1142.9</ele>
        <time>2022-08-29T11:51:23Z</time>
      </trkpt>
      <trkpt lat="45.9407" lon="3.70328">
        <ele>1143</ele>
        <time>2022-08-29T11:51:24Z</time>
      </trkpt>
      <trkpt lat="45.94069" lon="3.7033">
        <ele>1143.1</ele>
        <time>2022-08-29T11:51:25Z</time>
      </trkpt>
      <trkpt lat="45.94068" lon="3.70329">
        <ele>1143.1</ele>
        <time>2022-08-29T11:51:26Z</time>
      </trkpt>
      <trkpt lat="45.94067" lon="3.70325">
        <ele>1143.2</ele>
        <time>2022-08-29T11:51:29Z</time>
      </trkpt>
      <trkpt lat="45.94066" lon="3.70321">
        <ele>1143.4</ele>
        <time>2022-08-29T11:51:31Z</time>
      </trkpt>
      <trkpt lat="45.94065" lon="3.7032">
        <ele>1143.4</ele>
        <time>2022-08-29T11:51:32Z</time>
      </trkpt>
      <trkpt lat="45.94065" lon="3.70319">
        <ele>1143.4</ele>
        <time>2022-08-29T11:51:33Z</time>
      </trkpt>
      <trkpt lat="45.94064" lon="3.70318">
        <ele>1143.5</ele>
        <time>2022-08-29T11:51:34Z</time>
      </trkpt>
      <trkpt lat="45.94064" lon="3.70317">
        <ele>1143.5</ele>
        <time>2022-08-29T11:51:35Z</time>
      </trkpt>
      <trkpt lat="45.94063" lon="3.70316">
        <ele>1143.6</ele>
        <time>2022-08-29T11:51:36Z</time>
      </trkpt>
      <trkpt lat="45.94062" lon="3.70314">
        <ele>1143.6</ele>
        <time>2022-08-29T11:51:37Z</time>
      </trkpt>
      <trkpt lat="45.94061" lon="3.70313">
        <ele>1143.7</ele>
        <time>2022-08-29T11:51:38Z</time>
      </trkpt>
      <trkpt lat="45.94061" lon="3.7031">
        <ele>1143.7</ele>
        <time>2022-08-29T11:51:39Z</time>
      </trkpt>
      <trkpt lat="45.9406" lon="3.70308">
        <ele>1143.8</ele>
        <time>2022-08-29T11:51:40Z</time>
      </trkpt>
      <trkpt lat="45.94059" lon="3.70306">
        <ele>1143.9</ele>
        <time>2022-08-29T11:51:41Z</time>
      </trkpt>
      <trkpt lat="45.94059" lon="3.70304">
        <ele>1143.9</ele>
        <time>2022-08-29T11:51:42Z</time>
      </trkpt>
      <trkpt lat="45.94059" lon="3.70303">
        <ele>1143.9</ele>
        <time>2022-08-29T11:51:43Z</time>
      </trkpt>
      <trkpt lat="45.94058" lon="3.70303">
        <ele>1144</ele>
        <time>2022-08-29T11:51:44Z</time>
      </trkpt>
      <trkpt lat="45.94058" lon="3.70303">
        <ele>1144</ele>
        <time>2022-08-29T11:51:45Z</time>
      </trkpt>
      <trkpt lat="45.94058" lon="3.70304">
        <ele>1144</ele>
        <time>2022-08-29T11:51:46Z</time>
      </trkpt>
      <trkpt lat="45.94059" lon="3.70305">
        <ele>1144</ele>
        <time>2022-08-29T11:51:47Z</time>
      </trkpt>
      <trkpt lat="45.94059" lon="3.70306">
        <ele>1144</ele>
        <time>2022-08-29T11:51:48Z</time>
      </trkpt>
      <trkpt lat="45.94059" lon="3.70306">
        <ele>1144.1</ele>
        <time>2022-08-29T11:51:49Z</time>
      </trkpt>
      <trkpt lat="45.9406" lon="3.70306">
        <ele>1144.1</ele>
        <time>2022-08-29T11:51:50Z</time>
      </trkpt>
      <trkpt lat="45.9406" lon="3.70306">
        <ele>1144.1</ele>
        <time>2022-08-29T11:51:51Z</time>
      </trkpt>
      <trkpt lat="45.9406" lon="3.70306">
        <ele>1144.1</ele>
        <time>2022-08-29T11:51:52Z</time>
      </trkpt>
      <trkpt lat="45.94059" lon="3.70305">
        <ele>1144.1</ele>
        <time>2022-08-29T11:51:53Z</time>
      </trkpt>
      <trkpt lat="45.94059" lon="3.70304">
        <ele>1144.1</ele>
        <time>2022-08-29T11:51:54Z</time>
      </trkpt>
      <trkpt lat="45.94059" lon="3.70304">
        <ele>1144.1</ele>
        <time>2022-08-29T11:51:55Z</time>
      </trkpt>
      <trkpt lat="45.94058" lon="3.70302">
        <ele>1144.2</ele>
        <time>2022-08-29T11:51:56Z</time>
      </trkpt>
      <trkpt lat="45.94058" lon="3.70298">
        <ele>1144.3</ele>
        <time>2022-08-29T11:51:57Z</time>
      </trkpt>
      <trkpt lat="45.94058" lon="3.70296">
        <ele>1144.3</ele>
        <time>2022-08-29T11:51:58Z</time>
      </trkpt>
      <trkpt lat="45.94057" lon="3.70294">
        <ele>1144.4</ele>
        <time>2022-08-29T11:51:59Z</time>
      </trkpt>
      <trkpt lat="45.94057" lon="3.70291">
        <ele>1144.5</ele>
        <time>2022-08-29T11:52:00Z</time>
      </trkpt>
      <trkpt lat="45.94057" lon="3.7029">
        <ele>1144.5</ele>
        <time>2022-08-29T11:52:01Z</time>
      </trkpt>
      <trkpt lat="45.94057" lon="3.70288">
        <ele>1144.5</ele>
        <time>2022-08-29T11:52:02Z</time>
      </trkpt>
      <trkpt lat="45.94057" lon="3.70287">
        <ele>1144.6</ele>
        <time>2022-08-29T11:52:03Z</time>
      </trkpt>
      <trkpt lat="45.94058" lon="3.70285">
        <ele>1144.6</ele>
        <time>2022-08-29T11:52:04Z</time>
      </trkpt>
      <trkpt lat="45.94058" lon="3.70283">
        <ele>1144.6</ele>
        <time>2022-08-29T11:52:05Z</time>
      </trkpt>
      <trkpt lat="45.94058" lon="3.70282">
        <ele>1144.7</ele>
        <time>2022-08-29T11:52:06Z</time>
      </trkpt>
      <trkpt lat="45.94058" lon="3.70281">
        <ele>1144.7</ele>
        <time>2022-08-29T11:52:07Z</time>
      </trkpt>
      <trkpt lat="45.94058" lon="3.7028">
        <ele>1144.7</ele>
        <time>2022-08-29T11:52:08Z</time>
      </trkpt>
      <trkpt lat="45.94058" lon="3.70278">
        <ele>1144.8</ele>
        <time>2022-08-29T11:52:10Z</time>
      </trkpt>
      <trkpt lat="45.94059" lon="3.70277">
        <ele>1144.8</ele>
        <time>2022-08-29T11:52:11Z</time>
      </trkpt>
      <trkpt lat="45.9406" lon="3.70277">
        <ele>1144.8</ele>
        <time>2022-08-29T11:52:13Z</time>
      </trkpt>
      <trkpt lat="45.9406" lon="3.70279">
        <ele>1144.9</ele>
        <time>2022-08-29T11:52:14Z</time>
      </trkpt>
      <trkpt lat="45.9406" lon="3.7028">
        <ele>1144.9</ele>
        <time>2022-08-29T11:52:15Z</time>
      </trkpt>
      <trkpt lat="45.94061" lon="3.70282">
        <ele>1144.9</ele>
        <time>2022-08-29T11:52:16Z</time>
      </trkpt>
      <trkpt lat="45.94061" lon="3.70284">
        <ele>1145</ele>
        <time>2022-08-29T11:52:17Z</time>
      </trkpt>
      <trkpt lat="45.94061" lon="3.70285">
        <ele>1145</ele>
        <time>2022-08-29T11:52:18Z</time>
      </trkpt>
      <trkpt lat="45.94062" lon="3.70282">
        <ele>1145.1</ele>
        <time>2022-08-29T11:52:20Z</time>
      </trkpt>
      <trkpt lat="45.94063" lon="3.7028">
        <ele>1145.1</ele>
        <time>2022-08-29T11:52:21Z</time>
      </trkpt>
      <trkpt lat="45.94064" lon="3.70278">
        <ele>1145.1</ele>
        <time>2022-08-29T11:52:22Z</time>
      </trkpt>
      <trkpt lat="45.94064" lon="3.70277">
        <ele>1145.2</ele>
        <time>2022-08-29T11:52:23Z</time>
      </trkpt>
      <trkpt lat="45.94065" lon="3.70275">
        <ele>1145.2</ele>
        <time>2022-08-29T11:52:24Z</time>
      </trkpt>
      <trkpt lat="45.94065" lon="3.70271">
        <ele>1145.3</ele>
        <time>2022-08-29T11:52:26Z</time>
      </trkpt>
      <trkpt lat="45.94065" lon="3.70269">
        <ele>1145.3</ele>
        <time>2022-08-29T11:52:27Z</time>
      </trkpt>
      <trkpt lat="45.94065" lon="3.70268">
        <ele>1145.3</ele>
        <time>2022-08-29T11:52:28Z</time>
      </trkpt>
      <trkpt lat="45.94065" lon="3.70267">
        <ele>1145.4</ele>
        <time>2022-08-29T11:52:29Z</time>
      </trkpt>
      <trkpt lat="45.94065" lon="3.70266">
        <ele>1145.4</ele>
        <time>2022-08-29T11:52:30Z</time>
      </trkpt>
      <trkpt lat="45.94065" lon="3.70265">
        <ele>1145.4</ele>
        <time>2022-08-29T11:52:31Z</time>
      </trkpt>
      <trkpt lat="45.94066" lon="3.70264">
        <ele>1145.4</ele>
        <time>2022-08-29T11:52:33Z</time>
      </trkpt>
      <trkpt lat="45.94066" lon="3.70265">
        <ele>1145.4</ele>
        <time>2022-08-29T11:52:34Z</time>
      </trkpt>
      <trkpt lat="45.94066" lon="3.70265">
        <ele>1145.4</ele>
        <time>2022-08-29T11:52:35Z</time>
      </trkpt>
      <trkpt lat="45.94066" lon="3.70265">
        <ele>1145.4</ele>
        <time>2022-08-29T11:52:36Z</time>
      </trkpt>
      <trkpt lat="45.94067" lon="3.70266">
        <ele>1145.4</ele>
        <time>2022-08-29T11:52:37Z</time>
      </trkpt>
      <trkpt lat="45.94067" lon="3.70266">
        <ele>1145.5</ele>
        <time>2022-08-29T11:52:38Z</time>
      </trkpt>
      <trkpt lat="45.94068" lon="3.70266">
        <ele>1145.5</ele>
        <time>2022-08-29T11:52:39Z</time>
      </trkpt>
      <trkpt lat="45.94068" lon="3.70267">
        <ele>1145.5</ele>
        <time>2022-08-29T11:52:40Z</time>
      </trkpt>
      <trkpt lat="45.94068" lon="3.70267">
        <ele>1145.5</ele>
        <time>2022-08-29T11:52:41Z</time>
      </trkpt>
      <trkpt lat="45.94068" lon="3.70267">
        <ele>1145.5</ele>
        <time>2022-08-29T11:52:42Z</time>
      </trkpt>
      <trkpt lat="45.94069" lon="3.70267">
        <ele>1145.5</ele>
        <time>2022-08-29T11:52:43Z</time>
      </trkpt>
      <trkpt lat="45.94069" lon="3.70267">
        <ele>1145.5</ele>
        <time>2022-08-29T11:52:44Z</time>
      </trkpt>
      <trkpt lat="45.94069" lon="3.70268">
        <ele>1145.5</ele>
        <time>2022-08-29T11:52:45Z</time>
      </trkpt>
      <trkpt lat="45.94069" lon="3.70268">
        <ele>1145.5</ele>
        <time>2022-08-29T11:52:46Z</time>
      </trkpt>
      <trkpt lat="45.94069" lon="3.70268">
        <ele>1145.5</ele>
        <time>2022-08-29T11:52:47Z</time>
      </trkpt>
      <trkpt lat="45.94069" lon="3.70268">
        <ele>1145.5</ele>
        <time>2022-08-29T11:52:48Z</time>
      </trkpt>
      <trkpt lat="45.94069" lon="3.70268">
        <ele>1145.5</ele>
        <time>2022-08-29T11:52:49Z</time>
      </trkpt>
      <trkpt lat="45.94069" lon="3.70268">
        <ele>1145.5</ele>
        <time>2022-08-29T11:52:50Z</time>
      </trkpt>
      <trkpt lat="45.94169" lon="3.7014">
        <ele>1147.6</ele>
        <time>2022-08-29T11:58:43Z</time>
      </trkpt>
      <trkpt lat="45.94165" lon="3.70137">
        <ele>1147.7</ele>
        <time>2022-08-29T11:58:45Z</time>
      </trkpt>
      <trkpt lat="45.94163" lon="3.70135">
        <ele>1147.7</ele>
        <time>2022-08-29T11:58:46Z</time>
      </trkpt>
      <trkpt lat="45.94163" lon="3.70133">
        <ele>1147.7</ele>
        <time>2022-08-29T11:58:47Z</time>
      </trkpt>
      <trkpt lat="45.94163" lon="3.70131">
        <ele>1147.7</ele>
        <time>2022-08-29T11:58:49Z</time>
      </trkpt>
      <trkpt lat="45.94162" lon="3.70129">
        <ele>1147.7</ele>
        <time>2022-08-29T11:58:50Z</time>
      </trkpt>
      <trkpt lat="45.94159" lon="3.70126">
        <ele>1147.6</ele>
        <time>2022-08-29T11:58:51Z</time>
      </trkpt>
      <trkpt lat="45.94158" lon="3.70125">
        <ele>1147.6</ele>
        <time>2022-08-29T11:58:52Z</time>
      </trkpt>
      <trkpt lat="45.94157" lon="3.70124">
        <ele>1147.6</ele>
        <time>2022-08-29T11:58:53Z</time>
      </trkpt>
      <trkpt lat="45.94157" lon="3.70124">
        <ele>1147.6</ele>
        <time>2022-08-29T11:58:54Z</time>
      </trkpt>
      <trkpt lat="45.94157" lon="3.70125">
        <ele>1147.6</ele>
        <time>2022-08-29T11:58:56Z</time>
      </trkpt>
      <trkpt lat="45.94157" lon="3.70125">
        <ele>1147.6</ele>
        <time>2022-08-29T11:58:57Z</time>
      </trkpt>
      <trkpt lat="45.94157" lon="3.70125">
        <ele>1147.6</ele>
        <time>2022-08-29T11:58:58Z</time>
      </trkpt>
      <trkpt lat="45.94157" lon="3.70126">
        <ele>1147.6</ele>
        <time>2022-08-29T11:59:00Z</time>
      </trkpt>
      <trkpt lat="45.94157" lon="3.70126">
        <ele>1147.6</ele>
        <time>2022-08-29T11:59:01Z</time>
      </trkpt>
      <trkpt lat="45.94157" lon="3.70127">
        <ele>1147.6</ele>
        <time>2022-08-29T11:59:02Z</time>
      </trkpt>
      <trkpt lat="45.94157" lon="3.70127">
        <ele>1147.6</ele>
        <time>2022-08-29T11:59:03Z</time>
      </trkpt>
      <trkpt lat="45.94157" lon="3.70127">
        <ele>1147.6</ele>
        <time>2022-08-29T11:59:04Z</time>
      </trkpt>
      <trkpt lat="45.94157" lon="3.70128">
        <ele>1147.6</ele>
        <time>2022-08-29T11:59:05Z</time>
      </trkpt>
      <trkpt lat="45.94157" lon="3.70128">
        <ele>1147.6</ele>
        <time>2022-08-29T11:59:06Z</time>
      </trkpt>
      <trkpt lat="45.94157" lon="3.70129">
        <ele>1147.6</ele>
        <time>2022-08-29T11:59:07Z</time>
      </trkpt>
      <trkpt lat="45.94157" lon="3.70129">
        <ele>1147.6</ele>
        <time>2022-08-29T11:59:08Z</time>
      </trkpt>
      <trkpt lat="45.94157" lon="3.7013">
        <ele>1147.6</ele>
        <time>2022-08-29T11:59:09Z</time>
      </trkpt>
      <trkpt lat="45.94157" lon="3.7013">
        <ele>1147.6</ele>
        <time>2022-08-29T11:59:11Z</time>
      </trkpt>
      <trkpt lat="45.94157" lon="3.7013">
        <ele>1147.6</ele>
        <time>2022-08-29T11:59:12Z</time>
      </trkpt>
      <trkpt lat="45.94157" lon="3.70131">
        <ele>1147.6</ele>
        <time>2022-08-29T11:59:13Z</time>
      </trkpt>
      <trkpt lat="45.94156" lon="3.70137">
        <ele>1147.5</ele>
        <time>2022-08-29T11:59:14Z</time>
      </trkpt>
      <trkpt lat="45.94157" lon="3.70139">
        <ele>1147.5</ele>
        <time>2022-08-29T11:59:15Z</time>
      </trkpt>
      <trkpt lat="45.94158" lon="3.70143">
        <ele>1147.5</ele>
        <time>2022-08-29T11:59:17Z</time>
      </trkpt>
      <trkpt lat="45.94161" lon="3.70156">
        <ele>1147.4</ele>
        <time>2022-08-29T11:59:20Z</time>
      </trkpt>
      <trkpt lat="45.94162" lon="3.70159">
        <ele>1147.4</ele>
        <time>2022-08-29T11:59:21Z</time>
      </trkpt>
      <trkpt lat="45.94164" lon="3.70162">
        <ele>1147.4</ele>
        <time>2022-08-29T11:59:22Z</time>
      </trkpt>
      <trkpt lat="45.94165" lon="3.70163">
        <ele>1147.4</ele>
        <time>2022-08-29T11:59:23Z</time>
      </trkpt>
      <trkpt lat="45.94166" lon="3.70165">
        <ele>1147.3</ele>
        <time>2022-08-29T11:59:24Z</time>
      </trkpt>
      <trkpt lat="45.94167" lon="3.70166">
        <ele>1147.3</ele>
        <time>2022-08-29T11:59:25Z</time>
      </trkpt>
      <trkpt lat="45.94167" lon="3.70166">
        <ele>1147.3</ele>
        <time>2022-08-29T11:59:26Z</time>
      </trkpt>
      <trkpt lat="45.94168" lon="3.70167">
        <ele>1147.3</ele>
        <time>2022-08-29T11:59:27Z</time>
      </trkpt>
      <trkpt lat="45.94169" lon="3.70168">
        <ele>1147.3</ele>
        <time>2022-08-29T11:59:28Z</time>
      </trkpt>
      <trkpt lat="45.9417" lon="3.70169">
        <ele>1147.3</ele>
        <time>2022-08-29T11:59:29Z</time>
      </trkpt>
      <trkpt lat="45.94171" lon="3.70171">
        <ele>1147.3</ele>
        <time>2022-08-29T11:59:30Z</time>
      </trkpt>
      <trkpt lat="45.94172" lon="3.70173">
        <ele>1147.3</ele>
        <time>2022-08-29T11:59:31Z</time>
      </trkpt>
      <trkpt lat="45.94172" lon="3.70175">
        <ele>1147.2</ele>
        <time>2022-08-29T11:59:32Z</time>
      </trkpt>
      <trkpt lat="45.94173" lon="3.70177">
        <ele>1147.2</ele>
        <time>2022-08-29T11:59:33Z</time>
      </trkpt>
      <trkpt lat="45.94173" lon="3.70179">
        <ele>1147.2</ele>
        <time>2022-08-29T11:59:34Z</time>
      </trkpt>
      <trkpt lat="45.94174" lon="3.70181">
        <ele>1147.2</ele>
        <time>2022-08-29T11:59:35Z</time>
      </trkpt>
      <trkpt lat="45.94175" lon="3.70183">
        <ele>1147.1</ele>
        <time>2022-08-29T11:59:36Z</time>
      </trkpt>
      <trkpt lat="45.94175" lon="3.70185">
        <ele>1147.1</ele>
        <time>2022-08-29T11:59:37Z</time>
      </trkpt>
      <trkpt lat="45.94176" lon="3.70187">
        <ele>1147.1</ele>
        <time>2022-08-29T11:59:38Z</time>
      </trkpt>
      <trkpt lat="45.94176" lon="3.70188">
        <ele>1147.1</ele>
        <time>2022-08-29T11:59:39Z</time>
      </trkpt>
      <trkpt lat="45.94177" lon="3.70189">
        <ele>1147.1</ele>
        <time>2022-08-29T11:59:40Z</time>
      </trkpt>
      <trkpt lat="45.94177" lon="3.70189">
        <ele>1147.1</ele>
        <time>2022-08-29T11:59:41Z</time>
      </trkpt>
      <trkpt lat="45.94178" lon="3.70191">
        <ele>1147.1</ele>
        <time>2022-08-29T11:59:42Z</time>
      </trkpt>
      <trkpt lat="45.94178" lon="3.70193">
        <ele>1147.1</ele>
        <time>2022-08-29T11:59:43Z</time>
      </trkpt>
      <trkpt lat="45.94179" lon="3.70195">
        <ele>1147.1</ele>
        <time>2022-08-29T11:59:44Z</time>
      </trkpt>
      <trkpt lat="45.9418" lon="3.70196">
        <ele>1147.1</ele>
        <time>2022-08-29T11:59:45Z</time>
      </trkpt>
      <trkpt lat="45.94182" lon="3.70199">
        <ele>1147.1</ele>
        <time>2022-08-29T11:59:47Z</time>
      </trkpt>
      <trkpt lat="45.94183" lon="3.702">
        <ele>1147.1</ele>
        <time>2022-08-29T11:59:48Z</time>
      </trkpt>
      <trkpt lat="45.94183" lon="3.702">
        <ele>1147.1</ele>
        <time>2022-08-29T11:59:49Z</time>
      </trkpt>
      <trkpt lat="45.94184" lon="3.70201">
        <ele>1147.1</ele>
        <time>2022-08-29T11:59:50Z</time>
      </trkpt>
      <trkpt lat="45.94185" lon="3.70201">
        <ele>1147.1</ele>
        <time>2022-08-29T11:59:51Z</time>
      </trkpt>
      <trkpt lat="45.94186" lon="3.70202">
        <ele>1147.1</ele>
        <time>2022-08-29T11:59:52Z</time>
      </trkpt>
      <trkpt lat="45.94187" lon="3.70202">
        <ele>1147.1</ele>
        <time>2022-08-29T11:59:53Z</time>
      </trkpt>
      <trkpt lat="45.94189" lon="3.70202">
        <ele>1147.1</ele>
        <time>2022-08-29T11:59:54Z</time>
      </trkpt>
      <trkpt lat="45.94189" lon="3.70201">
        <ele>1147.1</ele>
        <time>2022-08-29T11:59:55Z</time>
      </trkpt>
      <trkpt lat="45.9419" lon="3.70201">
        <ele>1147.1</ele>
        <time>2022-08-29T11:59:56Z</time>
      </trkpt>
      <trkpt lat="45.94191" lon="3.70201">
        <ele>1147.1</ele>
        <time>2022-08-29T11:59:57Z</time>
      </trkpt>
      <trkpt lat="45.94193" lon="3.70201">
        <ele>1147.1</ele>
        <time>2022-08-29T12:00:00Z</time>
      </trkpt>
      <trkpt lat="45.94194" lon="3.70201">
        <ele>1147.1</ele>
        <time>2022-08-29T12:00:01Z</time>
      </trkpt>
      <trkpt lat="45.94196" lon="3.702">
        <ele>1147.1</ele>
        <time>2022-08-29T12:00:02Z</time>
      </trkpt>
      <trkpt lat="45.94197" lon="3.702">
        <ele>1147.1</ele>
        <time>2022-08-29T12:00:03Z</time>
      </trkpt>
      <trkpt lat="45.94198" lon="3.702">
        <ele>1147.1</ele>
        <time>2022-08-29T12:00:04Z</time>
      </trkpt>
      <trkpt lat="45.94199" lon="3.70199">
        <ele>1147.1</ele>
        <time>2022-08-29T12:00:05Z</time>
      </trkpt>
      <trkpt lat="45.94201" lon="3.70199">
        <ele>1147.1</ele>
        <time>2022-08-29T12:00:06Z</time>
      </trkpt>
      <trkpt lat="45.94202" lon="3.70199">
        <ele>1147.1</ele>
        <time>2022-08-29T12:00:07Z</time>
      </trkpt>
      <trkpt lat="45.94204" lon="3.70199">
        <ele>1147.1</ele>
        <time>2022-08-29T12:00:08Z</time>
      </trkpt>
      <trkpt lat="45.94205" lon="3.70198">
        <ele>1147.2</ele>
        <time>2022-08-29T12:00:09Z</time>
      </trkpt>
      <trkpt lat="45.94206" lon="3.70197">
        <ele>1147.2</ele>
        <time>2022-08-29T12:00:10Z</time>
      </trkpt>
      <trkpt lat="45.94208" lon="3.70196">
        <ele>1147.2</ele>
        <time>2022-08-29T12:00:11Z</time>
      </trkpt>
      <trkpt lat="45.9421" lon="3.70195">
        <ele>1147.2</ele>
        <time>2022-08-29T12:00:13Z</time>
      </trkpt>
      <trkpt lat="45.94212" lon="3.70194">
        <ele>1147.2</ele>
        <time>2022-08-29T12:00:14Z</time>
      </trkpt>
      <trkpt lat="45.94213" lon="3.70194">
        <ele>1147.2</ele>
        <time>2022-08-29T12:00:15Z</time>
      </trkpt>
      <trkpt lat="45.94214" lon="3.70194">
        <ele>1147.2</ele>
        <time>2022-08-29T12:00:16Z</time>
      </trkpt>
      <trkpt lat="45.94215" lon="3.70194">
        <ele>1147.2</ele>
        <time>2022-08-29T12:00:17Z</time>
      </trkpt>
      <trkpt lat="45.94216" lon="3.70195">
        <ele>1147.2</ele>
        <time>2022-08-29T12:00:18Z</time>
      </trkpt>
      <trkpt lat="45.94217" lon="3.70195">
        <ele>1147.2</ele>
        <time>2022-08-29T12:00:19Z</time>
      </trkpt>
      <trkpt lat="45.94217" lon="3.70196">
        <ele>1147.2</ele>
        <time>2022-08-29T12:00:20Z</time>
      </trkpt>
      <trkpt lat="45.94218" lon="3.70197">
        <ele>1147.2</ele>
        <time>2022-08-29T12:00:21Z</time>
      </trkpt>
      <trkpt lat="45.94219" lon="3.70198">
        <ele>1147.2</ele>
        <time>2022-08-29T12:00:22Z</time>
      </trkpt>
      <trkpt lat="45.94221" lon="3.70198">
        <ele>1147.2</ele>
        <time>2022-08-29T12:00:23Z</time>
      </trkpt>
      <trkpt lat="45.94222" lon="3.70199">
        <ele>1147.2</ele>
        <time>2022-08-29T12:00:24Z</time>
      </trkpt>
      <trkpt lat="45.94225" lon="3.702">
        <ele>1147.2</ele>
        <time>2022-08-29T12:00:26Z</time>
      </trkpt>
      <trkpt lat="45.94227" lon="3.70201">
        <ele>1147.1</ele>
        <time>2022-08-29T12:00:28Z</time>
      </trkpt>
      <trkpt lat="45.94229" lon="3.70204">
        <ele>1147.1</ele>
        <time>2022-08-29T12:00:30Z</time>
      </trkpt>
      <trkpt lat="45.94231" lon="3.70204">
        <ele>1147.1</ele>
        <time>2022-08-29T12:00:31Z</time>
      </trkpt>
      <trkpt lat="45.94232" lon="3.70205">
        <ele>1147</ele>
        <time>2022-08-29T12:00:32Z</time>
      </trkpt>
      <trkpt lat="45.94234" lon="3.70206">
        <ele>1147</ele>
        <time>2022-08-29T12:00:33Z</time>
      </trkpt>
      <trkpt lat="45.94235" lon="3.70207">
        <ele>1146.9</ele>
        <time>2022-08-29T12:00:34Z</time>
      </trkpt>
      <trkpt lat="45.94237" lon="3.70208">
        <ele>1146.9</ele>
        <time>2022-08-29T12:00:35Z</time>
      </trkpt>
      <trkpt lat="45.94238" lon="3.70208">
        <ele>1146.9</ele>
        <time>2022-08-29T12:00:36Z</time>
      </trkpt>
      <trkpt lat="45.9424" lon="3.70209">
        <ele>1146.8</ele>
        <time>2022-08-29T12:00:37Z</time>
      </trkpt>
      <trkpt lat="45.94241" lon="3.7021">
        <ele>1146.8</ele>
        <time>2022-08-29T12:00:38Z</time>
      </trkpt>
      <trkpt lat="45.94242" lon="3.7021">
        <ele>1146.8</ele>
        <time>2022-08-29T12:00:39Z</time>
      </trkpt>
      <trkpt lat="45.94243" lon="3.7021">
        <ele>1146.8</ele>
        <time>2022-08-29T12:00:40Z</time>
      </trkpt>
      <trkpt lat="45.94245" lon="3.70209">
        <ele>1146.7</ele>
        <time>2022-08-29T12:00:41Z</time>
      </trkpt>
      <trkpt lat="45.94247" lon="3.70209">
        <ele>1146.8</ele>
        <time>2022-08-29T12:00:42Z</time>
      </trkpt>
      <trkpt lat="45.94248" lon="3.70208">
        <ele>1146.7</ele>
        <time>2022-08-29T12:00:43Z</time>
      </trkpt>
      <trkpt lat="45.9425" lon="3.70208">
        <ele>1146.7</ele>
        <time>2022-08-29T12:00:44Z</time>
      </trkpt>
      <trkpt lat="45.94251" lon="3.70207">
        <ele>1146.7</ele>
        <time>2022-08-29T12:00:45Z</time>
      </trkpt>
      <trkpt lat="45.94253" lon="3.70206">
        <ele>1146.6</ele>
        <time>2022-08-29T12:00:46Z</time>
      </trkpt>
      <trkpt lat="45.94256" lon="3.70203">
        <ele>1146.6</ele>
        <time>2022-08-29T12:00:48Z</time>
      </trkpt>
      <trkpt lat="45.94259" lon="3.70201">
        <ele>1146.5</ele>
        <time>2022-08-29T12:00:49Z</time>
      </trkpt>
      <trkpt lat="45.9426" lon="3.70201">
        <ele>1146.5</ele>
        <time>2022-08-29T12:00:50Z</time>
      </trkpt>
      <trkpt lat="45.94262" lon="3.70201">
        <ele>1146.4</ele>
        <time>2022-08-29T12:00:51Z</time>
      </trkpt>
      <trkpt lat="45.94263" lon="3.70202">
        <ele>1146.4</ele>
        <time>2022-08-29T12:00:52Z</time>
      </trkpt>
      <trkpt lat="45.94265" lon="3.70202">
        <ele>1146.3</ele>
        <time>2022-08-29T12:00:53Z</time>
      </trkpt>
      <trkpt lat="45.94266" lon="3.70203">
        <ele>1146.3</ele>
        <time>2022-08-29T12:00:54Z</time>
      </trkpt>
      <trkpt lat="45.94266" lon="3.70204">
        <ele>1146.3</ele>
        <time>2022-08-29T12:00:55Z</time>
      </trkpt>
      <trkpt lat="45.94268" lon="3.70206">
        <ele>1146.2</ele>
        <time>2022-08-29T12:00:56Z</time>
      </trkpt>
      <trkpt lat="45.94269" lon="3.70207">
        <ele>1146.2</ele>
        <time>2022-08-29T12:00:58Z</time>
      </trkpt>
      <trkpt lat="45.9427" lon="3.70208">
        <ele>1146.2</ele>
        <time>2022-08-29T12:00:59Z</time>
      </trkpt>
      <trkpt lat="45.94271" lon="3.70208">
        <ele>1146.1</ele>
        <time>2022-08-29T12:01:00Z</time>
      </trkpt>
      <trkpt lat="45.94272" lon="3.70209">
        <ele>1146.1</ele>
        <time>2022-08-29T12:01:01Z</time>
      </trkpt>
      <trkpt lat="45.94274" lon="3.70209">
        <ele>1146</ele>
        <time>2022-08-29T12:01:02Z</time>
      </trkpt>
      <trkpt lat="45.94275" lon="3.70208">
        <ele>1146</ele>
        <time>2022-08-29T12:01:03Z</time>
      </trkpt>
      <trkpt lat="45.94276" lon="3.70208">
        <ele>1146</ele>
        <time>2022-08-29T12:01:04Z</time>
      </trkpt>
      <trkpt lat="45.94279" lon="3.70207">
        <ele>1145.9</ele>
        <time>2022-08-29T12:01:06Z</time>
      </trkpt>
      <trkpt lat="45.9428" lon="3.70206">
        <ele>1145.8</ele>
        <time>2022-08-29T12:01:07Z</time>
      </trkpt>
      <trkpt lat="45.94281" lon="3.70205">
        <ele>1145.8</ele>
        <time>2022-08-29T12:01:08Z</time>
      </trkpt>
      <trkpt lat="45.94281" lon="3.70204">
        <ele>1145.7</ele>
        <time>2022-08-29T12:01:09Z</time>
      </trkpt>
      <trkpt lat="45.94282" lon="3.70204">
        <ele>1145.7</ele>
        <time>2022-08-29T12:01:10Z</time>
      </trkpt>
      <trkpt lat="45.94283" lon="3.70203">
        <ele>1145.6</ele>
        <time>2022-08-29T12:01:11Z</time>
      </trkpt>
      <trkpt lat="45.94284" lon="3.70202">
        <ele>1145.6</ele>
        <time>2022-08-29T12:01:12Z</time>
      </trkpt>
      <trkpt lat="45.94286" lon="3.70201">
        <ele>1145.5</ele>
        <time>2022-08-29T12:01:13Z</time>
      </trkpt>
      <trkpt lat="45.94286" lon="3.702">
        <ele>1145.4</ele>
        <time>2022-08-29T12:01:14Z</time>
      </trkpt>
      <trkpt lat="45.94287" lon="3.702">
        <ele>1145.4</ele>
        <time>2022-08-29T12:01:15Z</time>
      </trkpt>
      <trkpt lat="45.94289" lon="3.70199">
        <ele>1145.3</ele>
        <time>2022-08-29T12:01:16Z</time>
      </trkpt>
      <trkpt lat="45.9429" lon="3.70198">
        <ele>1145.3</ele>
        <time>2022-08-29T12:01:17Z</time>
      </trkpt>
      <trkpt lat="45.94291" lon="3.70197">
        <ele>1145.2</ele>
        <time>2022-08-29T12:01:18Z</time>
      </trkpt>
      <trkpt lat="45.94293" lon="3.70196">
        <ele>1145.2</ele>
        <time>2022-08-29T12:01:19Z</time>
      </trkpt>
      <trkpt lat="45.94294" lon="3.70195">
        <ele>1145.1</ele>
        <time>2022-08-29T12:01:20Z</time>
      </trkpt>
      <trkpt lat="45.94296" lon="3.70194">
        <ele>1145</ele>
        <time>2022-08-29T12:01:23Z</time>
      </trkpt>
      <trkpt lat="45.94298" lon="3.7019">
        <ele>1144.7</ele>
        <time>2022-08-29T12:01:24Z</time>
      </trkpt>
      <trkpt lat="45.943" lon="3.70189">
        <ele>1144.7</ele>
        <time>2022-08-29T12:01:26Z</time>
      </trkpt>
      <trkpt lat="45.943" lon="3.70189">
        <ele>1144.6</ele>
        <time>2022-08-29T12:01:27Z</time>
      </trkpt>
      <trkpt lat="45.94301" lon="3.70189">
        <ele>1144.6</ele>
        <time>2022-08-29T12:01:28Z</time>
      </trkpt>
      <trkpt lat="45.94302" lon="3.70189">
        <ele>1144.6</ele>
        <time>2022-08-29T12:01:29Z</time>
      </trkpt>
      <trkpt lat="45.94303" lon="3.70188">
        <ele>1144.6</ele>
        <time>2022-08-29T12:01:30Z</time>
      </trkpt>
      <trkpt lat="45.94304" lon="3.70187">
        <ele>1144.3</ele>
        <time>2022-08-29T12:01:31Z</time>
      </trkpt>
      <trkpt lat="45.94305" lon="3.70186">
        <ele>1144.3</ele>
        <time>2022-08-29T12:01:32Z</time>
      </trkpt>
      <trkpt lat="45.94305" lon="3.70185">
        <ele>1144.3</ele>
        <time>2022-08-29T12:01:33Z</time>
      </trkpt>
      <trkpt lat="45.94306" lon="3.70184">
        <ele>1144.3</ele>
        <time>2022-08-29T12:01:34Z</time>
      </trkpt>
      <trkpt lat="45.94307" lon="3.70183">
        <ele>1144</ele>
        <time>2022-08-29T12:01:35Z</time>
      </trkpt>
      <trkpt lat="45.94308" lon="3.70182">
        <ele>1144</ele>
        <time>2022-08-29T12:01:36Z</time>
      </trkpt>
      <trkpt lat="45.94309" lon="3.70182">
        <ele>1144</ele>
        <time>2022-08-29T12:01:37Z</time>
      </trkpt>
      <trkpt lat="45.94311" lon="3.7018">
        <ele>1143.7</ele>
        <time>2022-08-29T12:01:38Z</time>
      </trkpt>
      <trkpt lat="45.94312" lon="3.70179">
        <ele>1143.7</ele>
        <time>2022-08-29T12:01:39Z</time>
      </trkpt>
      <trkpt lat="45.94312" lon="3.70179">
        <ele>1143.6</ele>
        <time>2022-08-29T12:01:40Z</time>
      </trkpt>
      <trkpt lat="45.94314" lon="3.70178">
        <ele>1143.4</ele>
        <time>2022-08-29T12:01:41Z</time>
      </trkpt>
      <trkpt lat="45.94315" lon="3.70177">
        <ele>1143.4</ele>
        <time>2022-08-29T12:01:42Z</time>
      </trkpt>
      <trkpt lat="45.94318" lon="3.70175">
        <ele>1143</ele>
        <time>2022-08-29T12:01:43Z</time>
      </trkpt>
      <trkpt lat="45.94319" lon="3.70174">
        <ele>1142.7</ele>
        <time>2022-08-29T12:01:44Z</time>
      </trkpt>
      <trkpt lat="45.94322" lon="3.70172">
        <ele>1142.5</ele>
        <time>2022-08-29T12:01:45Z</time>
      </trkpt>
      <trkpt lat="45.94323" lon="3.70171">
        <ele>1142.5</ele>
        <time>2022-08-29T12:01:46Z</time>
      </trkpt>
      <trkpt lat="45.94326" lon="3.70169">
        <ele>1142</ele>
        <time>2022-08-29T12:01:47Z</time>
      </trkpt>
      <trkpt lat="45.94326" lon="3.70169">
        <ele>1142</ele>
        <time>2022-08-29T12:01:48Z</time>
      </trkpt>
      <trkpt lat="45.94329" lon="3.70167">
        <ele>1141.7</ele>
        <time>2022-08-29T12:01:49Z</time>
      </trkpt>
      <trkpt lat="45.94329" lon="3.70167">
        <ele>1141.7</ele>
        <time>2022-08-29T12:01:50Z</time>
      </trkpt>
      <trkpt lat="45.9433" lon="3.70166">
        <ele>1141.6</ele>
        <time>2022-08-29T12:01:51Z</time>
      </trkpt>
      <trkpt lat="45.94331" lon="3.70164">
        <ele>1141.3</ele>
        <time>2022-08-29T12:01:52Z</time>
      </trkpt>
      <trkpt lat="45.94332" lon="3.70164">
        <ele>1141.3</ele>
        <time>2022-08-29T12:01:53Z</time>
      </trkpt>
      <trkpt lat="45.94333" lon="3.70163">
        <ele>1141.3</ele>
        <time>2022-08-29T12:01:54Z</time>
      </trkpt>
      <trkpt lat="45.94335" lon="3.70162">
        <ele>1141</ele>
        <time>2022-08-29T12:01:55Z</time>
      </trkpt>
      <trkpt lat="45.94336" lon="3.70162">
        <ele>1141</ele>
        <time>2022-08-29T12:01:56Z</time>
      </trkpt>
      <trkpt lat="45.94337" lon="3.70162">
        <ele>1140.7</ele>
        <time>2022-08-29T12:01:57Z</time>
      </trkpt>
      <trkpt lat="45.94339" lon="3.70163">
        <ele>1140.7</ele>
        <time>2022-08-29T12:01:58Z</time>
      </trkpt>
      <trkpt lat="45.9434" lon="3.70163">
        <ele>1140.5</ele>
        <time>2022-08-29T12:01:59Z</time>
      </trkpt>
      <trkpt lat="45.94341" lon="3.70164">
        <ele>1140.5</ele>
        <time>2022-08-29T12:02:00Z</time>
      </trkpt>
      <trkpt lat="45.94342" lon="3.70164">
        <ele>1140.3</ele>
        <time>2022-08-29T12:02:01Z</time>
      </trkpt>
      <trkpt lat="45.94343" lon="3.70164">
        <ele>1140.3</ele>
        <time>2022-08-29T12:02:02Z</time>
      </trkpt>
      <trkpt lat="45.94344" lon="3.70164">
        <ele>1140.3</ele>
        <time>2022-08-29T12:02:03Z</time>
      </trkpt>
      <trkpt lat="45.94344" lon="3.70165">
        <ele>1140.3</ele>
        <time>2022-08-29T12:02:04Z</time>
      </trkpt>
      <trkpt lat="45.94345" lon="3.70166">
        <ele>1140.3</ele>
        <time>2022-08-29T12:02:05Z</time>
      </trkpt>
      <trkpt lat="45.94344" lon="3.70167">
        <ele>1140.4</ele>
        <time>2022-08-29T12:02:06Z</time>
      </trkpt>
      <trkpt lat="45.94344" lon="3.70169">
        <ele>1140.4</ele>
        <time>2022-08-29T12:02:07Z</time>
      </trkpt>
      <trkpt lat="45.94344" lon="3.7017">
        <ele>1140.4</ele>
        <time>2022-08-29T12:02:08Z</time>
      </trkpt>
      <trkpt lat="45.94344" lon="3.70171">
        <ele>1140.5</ele>
        <time>2022-08-29T12:02:09Z</time>
      </trkpt>
      <trkpt lat="45.94344" lon="3.70172">
        <ele>1140.5</ele>
        <time>2022-08-29T12:02:10Z</time>
      </trkpt>
      <trkpt lat="45.94345" lon="3.70172">
        <ele>1140.3</ele>
        <time>2022-08-29T12:02:11Z</time>
      </trkpt>
      <trkpt lat="45.94347" lon="3.70173">
        <ele>1140.3</ele>
        <time>2022-08-29T12:02:12Z</time>
      </trkpt>
      <trkpt lat="45.94351" lon="3.70173">
        <ele>1140.2</ele>
        <time>2022-08-29T12:02:13Z</time>
      </trkpt>
      <trkpt lat="45.94352" lon="3.70174">
        <ele>1139.9</ele>
        <time>2022-08-29T12:02:14Z</time>
      </trkpt>
      <trkpt lat="45.94353" lon="3.70174">
        <ele>1139.9</ele>
        <time>2022-08-29T12:02:15Z</time>
      </trkpt>
      <trkpt lat="45.94355" lon="3.70174">
        <ele>1139.8</ele>
        <time>2022-08-29T12:02:16Z</time>
      </trkpt>
      <trkpt lat="45.94357" lon="3.70174">
        <ele>1139.7</ele>
        <time>2022-08-29T12:02:17Z</time>
      </trkpt>
      <trkpt lat="45.94358" lon="3.70174">
        <ele>1139.7</ele>
        <time>2022-08-29T12:02:18Z</time>
      </trkpt>
      <trkpt lat="45.94359" lon="3.70174">
        <ele>1139.7</ele>
        <time>2022-08-29T12:02:19Z</time>
      </trkpt>
      <trkpt lat="45.94361" lon="3.70174">
        <ele>1139.6</ele>
        <time>2022-08-29T12:02:20Z</time>
      </trkpt>
      <trkpt lat="45.94362" lon="3.70175">
        <ele>1139.7</ele>
        <time>2022-08-29T12:02:21Z</time>
      </trkpt>
      <trkpt lat="45.94364" lon="3.70176">
        <ele>1139.6</ele>
        <time>2022-08-29T12:02:22Z</time>
      </trkpt>
      <trkpt lat="45.94365" lon="3.70176">
        <ele>1139.6</ele>
        <time>2022-08-29T12:02:23Z</time>
      </trkpt>
      <trkpt lat="45.94366" lon="3.70176">
        <ele>1139.6</ele>
        <time>2022-08-29T12:02:24Z</time>
      </trkpt>
      <trkpt lat="45.94369" lon="3.70176">
        <ele>1139.5</ele>
        <time>2022-08-29T12:02:26Z</time>
      </trkpt>
      <trkpt lat="45.94372" lon="3.70176">
        <ele>1139.5</ele>
        <time>2022-08-29T12:02:27Z</time>
      </trkpt>
      <trkpt lat="45.94372" lon="3.70176">
        <ele>1139.4</ele>
        <time>2022-08-29T12:02:29Z</time>
      </trkpt>
      <trkpt lat="45.94373" lon="3.70176">
        <ele>1139.4</ele>
        <time>2022-08-29T12:02:30Z</time>
      </trkpt>
      <trkpt lat="45.94373" lon="3.70176">
        <ele>1139.4</ele>
        <time>2022-08-29T12:02:31Z</time>
      </trkpt>
      <trkpt lat="45.94373" lon="3.70176">
        <ele>1139.4</ele>
        <time>2022-08-29T12:02:32Z</time>
      </trkpt>
      <trkpt lat="45.94374" lon="3.70176">
        <ele>1139.4</ele>
        <time>2022-08-29T12:02:33Z</time>
      </trkpt>
      <trkpt lat="45.94374" lon="3.70176">
        <ele>1139.4</ele>
        <time>2022-08-29T12:02:34Z</time>
      </trkpt>
      <trkpt lat="45.94375" lon="3.70176">
        <ele>1139.4</ele>
        <time>2022-08-29T12:02:35Z</time>
      </trkpt>
      <trkpt lat="45.94375" lon="3.70176">
        <ele>1139.4</ele>
        <time>2022-08-29T12:02:36Z</time>
      </trkpt>
      <trkpt lat="45.94376" lon="3.70176">
        <ele>1139.4</ele>
        <time>2022-08-29T12:02:37Z</time>
      </trkpt>
      <trkpt lat="45.94376" lon="3.70176">
        <ele>1139.4</ele>
        <time>2022-08-29T12:02:38Z</time>
      </trkpt>
      <trkpt lat="45.94377" lon="3.70177">
        <ele>1139.4</ele>
        <time>2022-08-29T12:02:39Z</time>
      </trkpt>
      <trkpt lat="45.94378" lon="3.70178">
        <ele>1139.4</ele>
        <time>2022-08-29T12:02:40Z</time>
      </trkpt>
      <trkpt lat="45.94378" lon="3.70178">
        <ele>1139.3</ele>
        <time>2022-08-29T12:02:41Z</time>
      </trkpt>
      <trkpt lat="45.94378" lon="3.70178">
        <ele>1139.3</ele>
        <time>2022-08-29T12:02:42Z</time>
      </trkpt>
      <trkpt lat="45.94378" lon="3.70179">
        <ele>1139.3</ele>
        <time>2022-08-29T12:02:43Z</time>
      </trkpt>
      <trkpt lat="45.94378" lon="3.70179">
        <ele>1139.3</ele>
        <time>2022-08-29T12:02:44Z</time>
      </trkpt>
      <trkpt lat="45.94379" lon="3.70178">
        <ele>1139.3</ele>
        <time>2022-08-29T12:02:45Z</time>
      </trkpt>
      <trkpt lat="45.94379" lon="3.70178">
        <ele>1139.3</ele>
        <time>2022-08-29T12:02:46Z</time>
      </trkpt>
      <trkpt lat="45.9438" lon="3.70178">
        <ele>1139.3</ele>
        <time>2022-08-29T12:02:47Z</time>
      </trkpt>
      <trkpt lat="45.94381" lon="3.70178">
        <ele>1139.3</ele>
        <time>2022-08-29T12:02:48Z</time>
      </trkpt>
      <trkpt lat="45.94382" lon="3.70178">
        <ele>1139.2</ele>
        <time>2022-08-29T12:02:49Z</time>
      </trkpt>
      <trkpt lat="45.94383" lon="3.70178">
        <ele>1139.2</ele>
        <time>2022-08-29T12:02:50Z</time>
      </trkpt>
      <trkpt lat="45.94384" lon="3.70178">
        <ele>1139.2</ele>
        <time>2022-08-29T12:02:51Z</time>
      </trkpt>
      <trkpt lat="45.94384" lon="3.70178">
        <ele>1139.1</ele>
        <time>2022-08-29T12:02:52Z</time>
      </trkpt>
      <trkpt lat="45.94386" lon="3.70178">
        <ele>1139.1</ele>
        <time>2022-08-29T12:02:53Z</time>
      </trkpt>
      <trkpt lat="45.94387" lon="3.70177">
        <ele>1139</ele>
        <time>2022-08-29T12:02:54Z</time>
      </trkpt>
      <trkpt lat="45.94389" lon="3.70175">
        <ele>1139</ele>
        <time>2022-08-29T12:02:55Z</time>
      </trkpt>
      <trkpt lat="45.9439" lon="3.70174">
        <ele>1138.9</ele>
        <time>2022-08-29T12:02:56Z</time>
      </trkpt>
      <trkpt lat="45.9439" lon="3.70174">
        <ele>1138.8</ele>
        <time>2022-08-29T12:02:57Z</time>
      </trkpt>
      <trkpt lat="45.94391" lon="3.70173">
        <ele>1138.8</ele>
        <time>2022-08-29T12:02:58Z</time>
      </trkpt>
      <trkpt lat="45.94392" lon="3.70172">
        <ele>1138.8</ele>
        <time>2022-08-29T12:02:59Z</time>
      </trkpt>
      <trkpt lat="45.94393" lon="3.70171">
        <ele>1138.8</ele>
        <time>2022-08-29T12:03:00Z</time>
      </trkpt>
      <trkpt lat="45.94394" lon="3.7017">
        <ele>1138.6</ele>
        <time>2022-08-29T12:03:01Z</time>
      </trkpt>
      <trkpt lat="45.94395" lon="3.7017">
        <ele>1138.6</ele>
        <time>2022-08-29T12:03:02Z</time>
      </trkpt>
      <trkpt lat="45.94396" lon="3.70169">
        <ele>1138.6</ele>
        <time>2022-08-29T12:03:03Z</time>
      </trkpt>
      <trkpt lat="45.94397" lon="3.70169">
        <ele>1138.5</ele>
        <time>2022-08-29T12:03:04Z</time>
      </trkpt>
      <trkpt lat="45.94399" lon="3.70168">
        <ele>1138.5</ele>
        <time>2022-08-29T12:03:05Z</time>
      </trkpt>
      <trkpt lat="45.944" lon="3.70167">
        <ele>1138.4</ele>
        <time>2022-08-29T12:03:06Z</time>
      </trkpt>
      <trkpt lat="45.94401" lon="3.70166">
        <ele>1138.2</ele>
        <time>2022-08-29T12:03:07Z</time>
      </trkpt>
      <trkpt lat="45.94402" lon="3.70165">
        <ele>1138.1</ele>
        <time>2022-08-29T12:03:08Z</time>
      </trkpt>
      <trkpt lat="45.94403" lon="3.70164">
        <ele>1138.1</ele>
        <time>2022-08-29T12:03:09Z</time>
      </trkpt>
      <trkpt lat="45.94404" lon="3.70164">
        <ele>1138.1</ele>
        <time>2022-08-29T12:03:10Z</time>
      </trkpt>
      <trkpt lat="45.94405" lon="3.70163">
        <ele>1138</ele>
        <time>2022-08-29T12:03:11Z</time>
      </trkpt>
      <trkpt lat="45.94406" lon="3.70163">
        <ele>1138</ele>
        <time>2022-08-29T12:03:12Z</time>
      </trkpt>
      <trkpt lat="45.94407" lon="3.70163">
        <ele>1138</ele>
        <time>2022-08-29T12:03:13Z</time>
      </trkpt>
      <trkpt lat="45.94408" lon="3.70163">
        <ele>1138</ele>
        <time>2022-08-29T12:03:14Z</time>
      </trkpt>
      <trkpt lat="45.94409" lon="3.70162">
        <ele>1137.7</ele>
        <time>2022-08-29T12:03:15Z</time>
      </trkpt>
      <trkpt lat="45.9441" lon="3.70162">
        <ele>1137.7</ele>
        <time>2022-08-29T12:03:16Z</time>
      </trkpt>
      <trkpt lat="45.94412" lon="3.70161">
        <ele>1137.5</ele>
        <time>2022-08-29T12:03:17Z</time>
      </trkpt>
      <trkpt lat="45.94413" lon="3.70161">
        <ele>1137.5</ele>
        <time>2022-08-29T12:03:18Z</time>
      </trkpt>
      <trkpt lat="45.94415" lon="3.70162">
        <ele>1137.3</ele>
        <time>2022-08-29T12:03:19Z</time>
      </trkpt>
      <trkpt lat="45.94416" lon="3.70162">
        <ele>1137.4</ele>
        <time>2022-08-29T12:03:20Z</time>
      </trkpt>
      <trkpt lat="45.94418" lon="3.70162">
        <ele>1137.2</ele>
        <time>2022-08-29T12:03:21Z</time>
      </trkpt>
      <trkpt lat="45.94419" lon="3.70163">
        <ele>1137.2</ele>
        <time>2022-08-29T12:03:22Z</time>
      </trkpt>
      <trkpt lat="45.9442" lon="3.70162">
        <ele>1137</ele>
        <time>2022-08-29T12:03:23Z</time>
      </trkpt>
      <trkpt lat="45.94421" lon="3.70162">
        <ele>1137</ele>
        <time>2022-08-29T12:03:24Z</time>
      </trkpt>
      <trkpt lat="45.94421" lon="3.70162">
        <ele>1136.8</ele>
        <time>2022-08-29T12:03:25Z</time>
      </trkpt>
      <trkpt lat="45.94422" lon="3.70161">
        <ele>1136.8</ele>
        <time>2022-08-29T12:03:26Z</time>
      </trkpt>
      <trkpt lat="45.94423" lon="3.70161">
        <ele>1136.6</ele>
        <time>2022-08-29T12:03:27Z</time>
      </trkpt>
      <trkpt lat="45.94424" lon="3.7016">
        <ele>1136.6</ele>
        <time>2022-08-29T12:03:28Z</time>
      </trkpt>
      <trkpt lat="45.94425" lon="3.70158">
        <ele>1136.6</ele>
        <time>2022-08-29T12:03:29Z</time>
      </trkpt>
      <trkpt lat="45.94426" lon="3.70157">
        <ele>1136.2</ele>
        <time>2022-08-29T12:03:30Z</time>
      </trkpt>
      <trkpt lat="45.94427" lon="3.70156">
        <ele>1136.2</ele>
        <time>2022-08-29T12:03:31Z</time>
      </trkpt>
      <trkpt lat="45.94428" lon="3.70155">
        <ele>1136.2</ele>
        <time>2022-08-29T12:03:32Z</time>
      </trkpt>
      <trkpt lat="45.9443" lon="3.70154">
        <ele>1136</ele>
        <time>2022-08-29T12:03:33Z</time>
      </trkpt>
      <trkpt lat="45.9443" lon="3.70153">
        <ele>1135.8</ele>
        <time>2022-08-29T12:03:34Z</time>
      </trkpt>
      <trkpt lat="45.94431" lon="3.70153">
        <ele>1135.8</ele>
        <time>2022-08-29T12:03:35Z</time>
      </trkpt>
      <trkpt lat="45.94432" lon="3.70152">
        <ele>1135.6</ele>
        <time>2022-08-29T12:03:36Z</time>
      </trkpt>
      <trkpt lat="45.94433" lon="3.70151">
        <ele>1135.6</ele>
        <time>2022-08-29T12:03:37Z</time>
      </trkpt>
      <trkpt lat="45.94434" lon="3.70151">
        <ele>1135.6</ele>
        <time>2022-08-29T12:03:38Z</time>
      </trkpt>
      <trkpt lat="45.94435" lon="3.7015">
        <ele>1135.6</ele>
        <time>2022-08-29T12:03:39Z</time>
      </trkpt>
      <trkpt lat="45.94435" lon="3.7015">
        <ele>1135.4</ele>
        <time>2022-08-29T12:03:40Z</time>
      </trkpt>
      <trkpt lat="45.94436" lon="3.7015">
        <ele>1135.4</ele>
        <time>2022-08-29T12:03:41Z</time>
      </trkpt>
      <trkpt lat="45.94436" lon="3.7015">
        <ele>1135.4</ele>
        <time>2022-08-29T12:03:42Z</time>
      </trkpt>
      <trkpt lat="45.94437" lon="3.70149">
        <ele>1135.4</ele>
        <time>2022-08-29T12:03:43Z</time>
      </trkpt>
      <trkpt lat="45.94439" lon="3.70148">
        <ele>1135</ele>
        <time>2022-08-29T12:03:44Z</time>
      </trkpt>
      <trkpt lat="45.9444" lon="3.70148">
        <ele>1135</ele>
        <time>2022-08-29T12:03:45Z</time>
      </trkpt>
      <trkpt lat="45.94441" lon="3.70147">
        <ele>1134.7</ele>
        <time>2022-08-29T12:03:46Z</time>
      </trkpt>
      <trkpt lat="45.94442" lon="3.70146">
        <ele>1134.7</ele>
        <time>2022-08-29T12:03:47Z</time>
      </trkpt>
      <trkpt lat="45.94443" lon="3.70146">
        <ele>1134.7</ele>
        <time>2022-08-29T12:03:48Z</time>
      </trkpt>
      <trkpt lat="45.94443" lon="3.70145">
        <ele>1134.7</ele>
        <time>2022-08-29T12:03:49Z</time>
      </trkpt>
      <trkpt lat="45.94443" lon="3.70145">
        <ele>1134.5</ele>
        <time>2022-08-29T12:03:50Z</time>
      </trkpt>
      <trkpt lat="45.94444" lon="3.70144">
        <ele>1134.5</ele>
        <time>2022-08-29T12:03:51Z</time>
      </trkpt>
      <trkpt lat="45.94444" lon="3.70144">
        <ele>1134.3</ele>
        <time>2022-08-29T12:03:52Z</time>
      </trkpt>
      <trkpt lat="45.94444" lon="3.70144">
        <ele>1134.3</ele>
        <time>2022-08-29T12:03:53Z</time>
      </trkpt>
      <trkpt lat="45.94444" lon="3.70144">
        <ele>1134.3</ele>
        <time>2022-08-29T12:03:54Z</time>
      </trkpt>
      <trkpt lat="45.94445" lon="3.70144">
        <ele>1134.3</ele>
        <time>2022-08-29T12:03:55Z</time>
      </trkpt>
      <trkpt lat="45.94445" lon="3.70144">
        <ele>1134.3</ele>
        <time>2022-08-29T12:03:56Z</time>
      </trkpt>
      <trkpt lat="45.94445" lon="3.70144">
        <ele>1134.3</ele>
        <time>2022-08-29T12:03:57Z</time>
      </trkpt>
      <trkpt lat="45.94445" lon="3.70144">
        <ele>1134.3</ele>
        <time>2022-08-29T12:03:58Z</time>
      </trkpt>
      <trkpt lat="45.94445" lon="3.70143">
        <ele>1134.3</ele>
        <time>2022-08-29T12:03:59Z</time>
      </trkpt>
      <trkpt lat="45.94446" lon="3.70143">
        <ele>1134.3</ele>
        <time>2022-08-29T12:04:00Z</time>
      </trkpt>
      <trkpt lat="45.94446" lon="3.70143">
        <ele>1134.3</ele>
        <time>2022-08-29T12:04:01Z</time>
      </trkpt>
      <trkpt lat="45.94446" lon="3.70143">
        <ele>1134.3</ele>
        <time>2022-08-29T12:04:02Z</time>
      </trkpt>
      <trkpt lat="45.94446" lon="3.70143">
        <ele>1134.3</ele>
        <time>2022-08-29T12:04:03Z</time>
      </trkpt>
      <trkpt lat="45.94447" lon="3.70143">
        <ele>1134.3</ele>
        <time>2022-08-29T12:04:04Z</time>
      </trkpt>
      <trkpt lat="45.94447" lon="3.70142">
        <ele>1134</ele>
        <time>2022-08-29T12:04:05Z</time>
      </trkpt>
      <trkpt lat="45.94448" lon="3.70141">
        <ele>1134</ele>
        <time>2022-08-29T12:04:06Z</time>
      </trkpt>
      <trkpt lat="45.94448" lon="3.7014">
        <ele>1133.7</ele>
        <time>2022-08-29T12:04:07Z</time>
      </trkpt>
      <trkpt lat="45.94449" lon="3.70139">
        <ele>1133.7</ele>
        <time>2022-08-29T12:04:08Z</time>
      </trkpt>
      <trkpt lat="45.9445" lon="3.70139">
        <ele>1133.4</ele>
        <time>2022-08-29T12:04:09Z</time>
      </trkpt>
      <trkpt lat="45.94451" lon="3.70138">
        <ele>1133.4</ele>
        <time>2022-08-29T12:04:10Z</time>
      </trkpt>
      <trkpt lat="45.94452" lon="3.70136">
        <ele>1133.4</ele>
        <time>2022-08-29T12:04:11Z</time>
      </trkpt>
      <trkpt lat="45.94453" lon="3.70135">
        <ele>1132.8</ele>
        <time>2022-08-29T12:04:12Z</time>
      </trkpt>
      <trkpt lat="45.94454" lon="3.70133">
        <ele>1132.8</ele>
        <time>2022-08-29T12:04:13Z</time>
      </trkpt>
      <trkpt lat="45.94455" lon="3.70131">
        <ele>1132.6</ele>
        <time>2022-08-29T12:04:14Z</time>
      </trkpt>
      <trkpt lat="45.94456" lon="3.7013">
        <ele>1132.3</ele>
        <time>2022-08-29T12:04:15Z</time>
      </trkpt>
      <trkpt lat="45.94456" lon="3.70129">
        <ele>1132.3</ele>
        <time>2022-08-29T12:04:16Z</time>
      </trkpt>
      <trkpt lat="45.94457" lon="3.70127">
        <ele>1132</ele>
        <time>2022-08-29T12:04:17Z</time>
      </trkpt>
      <trkpt lat="45.94457" lon="3.70126">
        <ele>1132</ele>
        <time>2022-08-29T12:04:18Z</time>
      </trkpt>
      <trkpt lat="45.94457" lon="3.70125">
        <ele>1132</ele>
        <time>2022-08-29T12:04:19Z</time>
      </trkpt>
      <trkpt lat="45.94458" lon="3.70124">
        <ele>1132</ele>
        <time>2022-08-29T12:04:20Z</time>
      </trkpt>
      <trkpt lat="45.94458" lon="3.70124">
        <ele>1132</ele>
        <time>2022-08-29T12:04:21Z</time>
      </trkpt>
      <trkpt lat="45.94458" lon="3.70123">
        <ele>1132</ele>
        <time>2022-08-29T12:04:22Z</time>
      </trkpt>
      <trkpt lat="45.94458" lon="3.70123">
        <ele>1132</ele>
        <time>2022-08-29T12:04:23Z</time>
      </trkpt>
      <trkpt lat="45.94459" lon="3.70124">
        <ele>1131.7</ele>
        <time>2022-08-29T12:04:24Z</time>
      </trkpt>
      <trkpt lat="45.94459" lon="3.70124">
        <ele>1131.7</ele>
        <time>2022-08-29T12:04:25Z</time>
      </trkpt>
      <trkpt lat="45.94458" lon="3.70124">
        <ele>1132</ele>
        <time>2022-08-29T12:04:26Z</time>
      </trkpt>
      <trkpt lat="45.94458" lon="3.70124">
        <ele>1132</ele>
        <time>2022-08-29T12:04:27Z</time>
      </trkpt>
      <trkpt lat="45.94458" lon="3.70124">
        <ele>1132</ele>
        <time>2022-08-29T12:04:28Z</time>
      </trkpt>
      <trkpt lat="45.94459" lon="3.70125">
        <ele>1131.7</ele>
        <time>2022-08-29T12:04:29Z</time>
      </trkpt>
      <trkpt lat="45.94459" lon="3.70125">
        <ele>1131.7</ele>
        <time>2022-08-29T12:04:30Z</time>
      </trkpt>
      <trkpt lat="45.94459" lon="3.70125">
        <ele>1131.7</ele>
        <time>2022-08-29T12:04:31Z</time>
      </trkpt>
      <trkpt lat="45.94459" lon="3.70125">
        <ele>1131.7</ele>
        <time>2022-08-29T12:04:32Z</time>
      </trkpt>
      <trkpt lat="45.94459" lon="3.70125">
        <ele>1131.7</ele>
        <time>2022-08-29T12:04:33Z</time>
      </trkpt>
      <trkpt lat="45.94459" lon="3.70125">
        <ele>1131.7</ele>
        <time>2022-08-29T12:04:34Z</time>
      </trkpt>
      <trkpt lat="45.94459" lon="3.70124">
        <ele>1131.7</ele>
        <time>2022-08-29T12:04:35Z</time>
      </trkpt>
      <trkpt lat="45.94459" lon="3.70124">
        <ele>1131.7</ele>
        <time>2022-08-29T12:04:36Z</time>
      </trkpt>
      <trkpt lat="45.94459" lon="3.70124">
        <ele>1131.7</ele>
        <time>2022-08-29T12:04:37Z</time>
      </trkpt>
      <trkpt lat="45.94459" lon="3.70124">
        <ele>1131.7</ele>
        <time>2022-08-29T12:04:38Z</time>
      </trkpt>
      <trkpt lat="45.94459" lon="3.70124">
        <ele>1131.7</ele>
        <time>2022-08-29T12:04:39Z</time>
      </trkpt>
      <trkpt lat="45.94459" lon="3.70124">
        <ele>1131.7</ele>
        <time>2022-08-29T12:04:40Z</time>
      </trkpt>
      <trkpt lat="45.94459" lon="3.70124">
        <ele>1131.7</ele>
        <time>2022-08-29T12:04:41Z</time>
      </trkpt>
      <trkpt lat="45.94459" lon="3.70123">
        <ele>1131.7</ele>
        <time>2022-08-29T12:04:42Z</time>
      </trkpt>
      <trkpt lat="45.94459" lon="3.70123">
        <ele>1131.7</ele>
        <time>2022-08-29T12:04:43Z</time>
      </trkpt>
      <trkpt lat="45.94459" lon="3.70124">
        <ele>1131.7</ele>
        <time>2022-08-29T12:04:44Z</time>
      </trkpt>
      <trkpt lat="45.94459" lon="3.70124">
        <ele>1131.7</ele>
        <time>2022-08-29T12:04:45Z</time>
      </trkpt>
      <trkpt lat="45.94459" lon="3.70124">
        <ele>1131.7</ele>
        <time>2022-08-29T12:04:46Z</time>
      </trkpt>
      <trkpt lat="45.94459" lon="3.70124">
        <ele>1131.7</ele>
        <time>2022-08-29T12:04:47Z</time>
      </trkpt>
      <trkpt lat="45.94459" lon="3.70124">
        <ele>1131.7</ele>
        <time>2022-08-29T12:04:48Z</time>
      </trkpt>
      <trkpt lat="45.94459" lon="3.70124">
        <ele>1131.7</ele>
        <time>2022-08-29T12:04:49Z</time>
      </trkpt>
      <trkpt lat="45.94459" lon="3.70124">
        <ele>1131.7</ele>
        <time>2022-08-29T12:04:50Z</time>
      </trkpt>
      <trkpt lat="45.94459" lon="3.70124">
        <ele>1131.7</ele>
        <time>2022-08-29T12:04:51Z</time>
      </trkpt>
      <trkpt lat="45.94459" lon="3.70124">
        <ele>1131.7</ele>
        <time>2022-08-29T12:04:52Z</time>
      </trkpt>
      <trkpt lat="45.94459" lon="3.70124">
        <ele>1131.7</ele>
        <time>2022-08-29T12:04:53Z</time>
      </trkpt>
      <trkpt lat="45.94459" lon="3.70122">
        <ele>1131.4</ele>
        <time>2022-08-29T12:04:54Z</time>
      </trkpt>
      <trkpt lat="45.94459" lon="3.70121">
        <ele>1131.4</ele>
        <time>2022-08-29T12:04:55Z</time>
      </trkpt>
      <trkpt lat="45.94459" lon="3.7012">
        <ele>1131.4</ele>
        <time>2022-08-29T12:04:56Z</time>
      </trkpt>
      <trkpt lat="45.9446" lon="3.70117">
        <ele>1131.2</ele>
        <time>2022-08-29T12:04:57Z</time>
      </trkpt>
      <trkpt lat="45.9446" lon="3.70116">
        <ele>1131.2</ele>
        <time>2022-08-29T12:04:58Z</time>
      </trkpt>
      <trkpt lat="45.9446" lon="3.70114">
        <ele>1130.9</ele>
        <time>2022-08-29T12:04:59Z</time>
      </trkpt>
      <trkpt lat="45.94461" lon="3.70112">
        <ele>1130.9</ele>
        <time>2022-08-29T12:05:00Z</time>
      </trkpt>
      <trkpt lat="45.94461" lon="3.7011">
        <ele>1130.6</ele>
        <time>2022-08-29T12:05:01Z</time>
      </trkpt>
      <trkpt lat="45.94462" lon="3.70108">
        <ele>1130.3</ele>
        <time>2022-08-29T12:05:02Z</time>
      </trkpt>
      <trkpt lat="45.94462" lon="3.70106">
        <ele>1130</ele>
        <time>2022-08-29T12:05:03Z</time>
      </trkpt>
      <trkpt lat="45.94463" lon="3.70104">
        <ele>1130</ele>
        <time>2022-08-29T12:05:04Z</time>
      </trkpt>
      <trkpt lat="45.94463" lon="3.70103">
        <ele>1130</ele>
        <time>2022-08-29T12:05:05Z</time>
      </trkpt>
      <trkpt lat="45.94464" lon="3.70102">
        <ele>1129.6</ele>
        <time>2022-08-29T12:05:06Z</time>
      </trkpt>
      <trkpt lat="45.94465" lon="3.70101">
        <ele>1129.3</ele>
        <time>2022-08-29T12:05:07Z</time>
      </trkpt>
      <trkpt lat="45.94465" lon="3.701">
        <ele>1129.3</ele>
        <time>2022-08-29T12:05:08Z</time>
      </trkpt>
      <trkpt lat="45.94466" lon="3.70099">
        <ele>1129.3</ele>
        <time>2022-08-29T12:05:09Z</time>
      </trkpt>
      <trkpt lat="45.94467" lon="3.70099">
        <ele>1129.3</ele>
        <time>2022-08-29T12:05:10Z</time>
      </trkpt>
      <trkpt lat="45.94467" lon="3.70098">
        <ele>1129.3</ele>
        <time>2022-08-29T12:05:11Z</time>
      </trkpt>
      <trkpt lat="45.94468" lon="3.70098">
        <ele>1128.6</ele>
        <time>2022-08-29T12:05:12Z</time>
      </trkpt>
      <trkpt lat="45.94469" lon="3.70097">
        <ele>1128.6</ele>
        <time>2022-08-29T12:05:13Z</time>
      </trkpt>
      <trkpt lat="45.9447" lon="3.70095">
        <ele>1128.6</ele>
        <time>2022-08-29T12:05:14Z</time>
      </trkpt>
      <trkpt lat="45.9447" lon="3.70094">
        <ele>1128.6</ele>
        <time>2022-08-29T12:05:15Z</time>
      </trkpt>
      <trkpt lat="45.94471" lon="3.70092">
        <ele>1127.8</ele>
        <time>2022-08-29T12:05:16Z</time>
      </trkpt>
      <trkpt lat="45.94472" lon="3.70091">
        <ele>1127.8</ele>
        <time>2022-08-29T12:05:17Z</time>
      </trkpt>
      <trkpt lat="45.94472" lon="3.70089">
        <ele>1127.8</ele>
        <time>2022-08-29T12:05:18Z</time>
      </trkpt>
      <trkpt lat="45.94473" lon="3.70088">
        <ele>1127.3</ele>
        <time>2022-08-29T12:05:19Z</time>
      </trkpt>
      <trkpt lat="45.94473" lon="3.70088">
        <ele>1127.3</ele>
        <time>2022-08-29T12:05:20Z</time>
      </trkpt>
      <trkpt lat="45.94474" lon="3.70088">
        <ele>1127</ele>
        <time>2022-08-29T12:05:21Z</time>
      </trkpt>
      <trkpt lat="45.94474" lon="3.70087">
        <ele>1127</ele>
        <time>2022-08-29T12:05:22Z</time>
      </trkpt>
      <trkpt lat="45.94475" lon="3.70087">
        <ele>1127</ele>
        <time>2022-08-29T12:05:23Z</time>
      </trkpt>
      <trkpt lat="45.94475" lon="3.70087">
        <ele>1127</ele>
        <time>2022-08-29T12:05:24Z</time>
      </trkpt>
      <trkpt lat="45.94476" lon="3.70086">
        <ele>1127</ele>
        <time>2022-08-29T12:05:25Z</time>
      </trkpt>
      <trkpt lat="45.94477" lon="3.70085">
        <ele>1126.6</ele>
        <time>2022-08-29T12:05:26Z</time>
      </trkpt>
      <trkpt lat="45.94478" lon="3.70084">
        <ele>1126.1</ele>
        <time>2022-08-29T12:05:27Z</time>
      </trkpt>
      <trkpt lat="45.94479" lon="3.70084">
        <ele>1126.1</ele>
        <time>2022-08-29T12:05:28Z</time>
      </trkpt>
      <trkpt lat="45.9448" lon="3.70083">
        <ele>1125.8</ele>
        <time>2022-08-29T12:05:29Z</time>
      </trkpt>
      <trkpt lat="45.94481" lon="3.70082">
        <ele>1125.8</ele>
        <time>2022-08-29T12:05:30Z</time>
      </trkpt>
      <trkpt lat="45.94482" lon="3.70082">
        <ele>1125.8</ele>
        <time>2022-08-29T12:05:31Z</time>
      </trkpt>
      <trkpt lat="45.94483" lon="3.70081">
        <ele>1125.5</ele>
        <time>2022-08-29T12:05:32Z</time>
      </trkpt>
      <trkpt lat="45.94484" lon="3.70081">
        <ele>1125.5</ele>
        <time>2022-08-29T12:05:33Z</time>
      </trkpt>
      <trkpt lat="45.94484" lon="3.7008">
        <ele>1124.9</ele>
        <time>2022-08-29T12:05:34Z</time>
      </trkpt>
      <trkpt lat="45.94485" lon="3.70079">
        <ele>1124.9</ele>
        <time>2022-08-29T12:05:35Z</time>
      </trkpt>
      <trkpt lat="45.94485" lon="3.70077">
        <ele>1124.9</ele>
        <time>2022-08-29T12:05:36Z</time>
      </trkpt>
      <trkpt lat="45.94485" lon="3.70076">
        <ele>1124</ele>
        <time>2022-08-29T12:05:37Z</time>
      </trkpt>
      <trkpt lat="45.94486" lon="3.70075">
        <ele>1124</ele>
        <time>2022-08-29T12:05:38Z</time>
      </trkpt>
      <trkpt lat="45.94486" lon="3.70075">
        <ele>1124</ele>
        <time>2022-08-29T12:05:39Z</time>
      </trkpt>
      <trkpt lat="45.94486" lon="3.70074">
        <ele>1124</ele>
        <time>2022-08-29T12:05:40Z</time>
      </trkpt>
      <trkpt lat="45.94486" lon="3.70073">
        <ele>1124</ele>
        <time>2022-08-29T12:05:41Z</time>
      </trkpt>
      <trkpt lat="45.94486" lon="3.70073">
        <ele>1124</ele>
        <time>2022-08-29T12:05:42Z</time>
      </trkpt>
      <trkpt lat="45.94487" lon="3.70073">
        <ele>1124</ele>
        <time>2022-08-29T12:05:43Z</time>
      </trkpt>
      <trkpt lat="45.94487" lon="3.70072">
        <ele>1124</ele>
        <time>2022-08-29T12:05:44Z</time>
      </trkpt>
      <trkpt lat="45.94488" lon="3.70071">
        <ele>1123.3</ele>
        <time>2022-08-29T12:05:45Z</time>
      </trkpt>
      <trkpt lat="45.94488" lon="3.70071">
        <ele>1123.3</ele>
        <time>2022-08-29T12:05:46Z</time>
      </trkpt>
      <trkpt lat="45.94488" lon="3.70071">
        <ele>1123.3</ele>
        <time>2022-08-29T12:05:47Z</time>
      </trkpt>
      <trkpt lat="45.94488" lon="3.7007">
        <ele>1123.3</ele>
        <time>2022-08-29T12:05:48Z</time>
      </trkpt>
      <trkpt lat="45.94487" lon="3.7007">
        <ele>1123.3</ele>
        <time>2022-08-29T12:05:49Z</time>
      </trkpt>
      <trkpt lat="45.94487" lon="3.7007">
        <ele>1123.3</ele>
        <time>2022-08-29T12:05:50Z</time>
      </trkpt>
      <trkpt lat="45.94486" lon="3.7007">
        <ele>1123.3</ele>
        <time>2022-08-29T12:05:51Z</time>
      </trkpt>
      <trkpt lat="45.94486" lon="3.7007">
        <ele>1123.3</ele>
        <time>2022-08-29T12:05:52Z</time>
      </trkpt>
      <trkpt lat="45.94486" lon="3.7007">
        <ele>1123.3</ele>
        <time>2022-08-29T12:05:53Z</time>
      </trkpt>
      <trkpt lat="45.94487" lon="3.7007">
        <ele>1123.3</ele>
        <time>2022-08-29T12:05:54Z</time>
      </trkpt>
      <trkpt lat="45.94487" lon="3.70069">
        <ele>1123.3</ele>
        <time>2022-08-29T12:05:55Z</time>
      </trkpt>
      <trkpt lat="45.94487" lon="3.70069">
        <ele>1123.3</ele>
        <time>2022-08-29T12:05:56Z</time>
      </trkpt>
      <trkpt lat="45.94487" lon="3.70069">
        <ele>1123.3</ele>
        <time>2022-08-29T12:05:57Z</time>
      </trkpt>
      <trkpt lat="45.94487" lon="3.70069">
        <ele>1123.3</ele>
        <time>2022-08-29T12:05:58Z</time>
      </trkpt>
      <trkpt lat="45.94487" lon="3.70069">
        <ele>1123.3</ele>
        <time>2022-08-29T12:05:59Z</time>
      </trkpt>
      <trkpt lat="45.94487" lon="3.70069">
        <ele>1123.3</ele>
        <time>2022-08-29T12:06:00Z</time>
      </trkpt>
      <trkpt lat="45.94487" lon="3.70069">
        <ele>1123.3</ele>
        <time>2022-08-29T12:06:01Z</time>
      </trkpt>
      <trkpt lat="45.94487" lon="3.70069">
        <ele>1123.3</ele>
        <time>2022-08-29T12:06:02Z</time>
      </trkpt>
      <trkpt lat="45.94487" lon="3.70069">
        <ele>1123.3</ele>
        <time>2022-08-29T12:06:03Z</time>
      </trkpt>
      <trkpt lat="45.94487" lon="3.70069">
        <ele>1123.3</ele>
        <time>2022-08-29T12:06:04Z</time>
      </trkpt>
      <trkpt lat="45.94487" lon="3.70069">
        <ele>1123.3</ele>
        <time>2022-08-29T12:06:05Z</time>
      </trkpt>
      <trkpt lat="45.94487" lon="3.70069">
        <ele>1123.3</ele>
        <time>2022-08-29T12:06:06Z</time>
      </trkpt>
      <trkpt lat="45.94487" lon="3.70069">
        <ele>1123.3</ele>
        <time>2022-08-29T12:06:07Z</time>
      </trkpt>
      <trkpt lat="45.94487" lon="3.70069">
        <ele>1123.3</ele>
        <time>2022-08-29T12:06:08Z</time>
      </trkpt>
      <trkpt lat="45.94487" lon="3.70069">
        <ele>1123.3</ele>
        <time>2022-08-29T12:06:09Z</time>
      </trkpt>
      <trkpt lat="45.94487" lon="3.70069">
        <ele>1123.3</ele>
        <time>2022-08-29T12:06:10Z</time>
      </trkpt>
      <trkpt lat="45.94487" lon="3.70069">
        <ele>1123.3</ele>
        <time>2022-08-29T12:06:11Z</time>
      </trkpt>
      <trkpt lat="45.94487" lon="3.70067">
        <ele>1122.7</ele>
        <time>2022-08-29T12:06:12Z</time>
      </trkpt>
      <trkpt lat="45.94488" lon="3.70066">
        <ele>1122.7</ele>
        <time>2022-08-29T12:06:13Z</time>
      </trkpt>
      <trkpt lat="45.94488" lon="3.70065">
        <ele>1122.7</ele>
        <time>2022-08-29T12:06:14Z</time>
      </trkpt>
      <trkpt lat="45.94489" lon="3.70063">
        <ele>1122.4</ele>
        <time>2022-08-29T12:06:15Z</time>
      </trkpt>
      <trkpt lat="45.94489" lon="3.70062">
        <ele>1121.7</ele>
        <time>2022-08-29T12:06:16Z</time>
      </trkpt>
      <trkpt lat="45.94489" lon="3.70061">
        <ele>1121.7</ele>
        <time>2022-08-29T12:06:17Z</time>
      </trkpt>
      <trkpt lat="45.94489" lon="3.7006">
        <ele>1121.7</ele>
        <time>2022-08-29T12:06:18Z</time>
      </trkpt>
      <trkpt lat="45.9449" lon="3.70058">
        <ele>1120.9</ele>
        <time>2022-08-29T12:06:19Z</time>
      </trkpt>
      <trkpt lat="45.9449" lon="3.70057">
        <ele>1120.9</ele>
        <time>2022-08-29T12:06:20Z</time>
      </trkpt>
      <trkpt lat="45.94491" lon="3.70056">
        <ele>1120.9</ele>
        <time>2022-08-29T12:06:21Z</time>
      </trkpt>
      <trkpt lat="45.94491" lon="3.70055">
        <ele>1120.6</ele>
        <time>2022-08-29T12:06:22Z</time>
      </trkpt>
      <trkpt lat="45.94492" lon="3.70054">
        <ele>1119.8</ele>
        <time>2022-08-29T12:06:23Z</time>
      </trkpt>
      <trkpt lat="45.94492" lon="3.70053">
        <ele>1119.8</ele>
        <time>2022-08-29T12:06:24Z</time>
      </trkpt>
      <trkpt lat="45.94492" lon="3.70051">
        <ele>1119.8</ele>
        <time>2022-08-29T12:06:25Z</time>
      </trkpt>
      <trkpt lat="45.94493" lon="3.7005">
        <ele>1119</ele>
        <time>2022-08-29T12:06:26Z</time>
      </trkpt>
      <trkpt lat="45.94493" lon="3.70049">
        <ele>1119</ele>
        <time>2022-08-29T12:06:27Z</time>
      </trkpt>
      <trkpt lat="45.94494" lon="3.70048">
        <ele>1119</ele>
        <time>2022-08-29T12:06:28Z</time>
      </trkpt>
      <trkpt lat="45.94494" lon="3.70047">
        <ele>1119</ele>
        <time>2022-08-29T12:06:29Z</time>
      </trkpt>
      <trkpt lat="45.94494" lon="3.70047">
        <ele>1119</ele>
        <time>2022-08-29T12:06:30Z</time>
      </trkpt>
      <trkpt lat="45.94494" lon="3.70046">
        <ele>1119</ele>
        <time>2022-08-29T12:06:31Z</time>
      </trkpt>
      <trkpt lat="45.94494" lon="3.70046">
        <ele>1118.2</ele>
        <time>2022-08-29T12:06:32Z</time>
      </trkpt>
      <trkpt lat="45.94494" lon="3.70045">
        <ele>1118.2</ele>
        <time>2022-08-29T12:06:33Z</time>
      </trkpt>
      <trkpt lat="45.94494" lon="3.70045">
        <ele>1118.2</ele>
        <time>2022-08-29T12:06:34Z</time>
      </trkpt>
      <trkpt lat="45.94494" lon="3.70045">
        <ele>1118.2</ele>
        <time>2022-08-29T12:06:35Z</time>
      </trkpt>
      <trkpt lat="45.94494" lon="3.70045">
        <ele>1118.2</ele>
        <time>2022-08-29T12:06:36Z</time>
      </trkpt>
      <trkpt lat="45.94493" lon="3.70044">
        <ele>1118.2</ele>
        <time>2022-08-29T12:06:37Z</time>
      </trkpt>
      <trkpt lat="45.94493" lon="3.70044">
        <ele>1118.2</ele>
        <time>2022-08-29T12:06:38Z</time>
      </trkpt>
      <trkpt lat="45.94493" lon="3.70044">
        <ele>1118.2</ele>
        <time>2022-08-29T12:06:39Z</time>
      </trkpt>
      <trkpt lat="45.94493" lon="3.70044">
        <ele>1118.2</ele>
        <time>2022-08-29T12:06:40Z</time>
      </trkpt>
      <trkpt lat="45.94493" lon="3.70044">
        <ele>1118.2</ele>
        <time>2022-08-29T12:06:41Z</time>
      </trkpt>
      <trkpt lat="45.94493" lon="3.70043">
        <ele>1118.2</ele>
        <time>2022-08-29T12:06:42Z</time>
      </trkpt>
      <trkpt lat="45.94494" lon="3.70043">
        <ele>1118.2</ele>
        <time>2022-08-29T12:06:43Z</time>
      </trkpt>
      <trkpt lat="45.94494" lon="3.70043">
        <ele>1118.2</ele>
        <time>2022-08-29T12:06:44Z</time>
      </trkpt>
      <trkpt lat="45.94494" lon="3.70043">
        <ele>1118.2</ele>
        <time>2022-08-29T12:06:45Z</time>
      </trkpt>
      <trkpt lat="45.94494" lon="3.70043">
        <ele>1118.2</ele>
        <time>2022-08-29T12:06:46Z</time>
      </trkpt>
      <trkpt lat="45.94494" lon="3.70043">
        <ele>1118.2</ele>
        <time>2022-08-29T12:06:47Z</time>
      </trkpt>
      <trkpt lat="45.94494" lon="3.70043">
        <ele>1117.8</ele>
        <time>2022-08-29T12:06:48Z</time>
      </trkpt>
      <trkpt lat="45.94495" lon="3.70043">
        <ele>1117.8</ele>
        <time>2022-08-29T12:06:49Z</time>
      </trkpt>
      <trkpt lat="45.94495" lon="3.70043">
        <ele>1117.8</ele>
        <time>2022-08-29T12:06:50Z</time>
      </trkpt>
      <trkpt lat="45.94495" lon="3.70043">
        <ele>1117.8</ele>
        <time>2022-08-29T12:06:51Z</time>
      </trkpt>
      <trkpt lat="45.94495" lon="3.70043">
        <ele>1117.8</ele>
        <time>2022-08-29T12:06:52Z</time>
      </trkpt>
      <trkpt lat="45.94495" lon="3.70043">
        <ele>1117.8</ele>
        <time>2022-08-29T12:06:53Z</time>
      </trkpt>
      <trkpt lat="45.94495" lon="3.70043">
        <ele>1117.8</ele>
        <time>2022-08-29T12:06:54Z</time>
      </trkpt>
      <trkpt lat="45.94494" lon="3.70043">
        <ele>1117.8</ele>
        <time>2022-08-29T12:06:55Z</time>
      </trkpt>
      <trkpt lat="45.94494" lon="3.70043">
        <ele>1118.2</ele>
        <time>2022-08-29T12:06:56Z</time>
      </trkpt>
      <trkpt lat="45.94494" lon="3.70042">
        <ele>1118.2</ele>
        <time>2022-08-29T12:06:57Z</time>
      </trkpt>
      <trkpt lat="45.94494" lon="3.70041">
        <ele>1117.4</ele>
        <time>2022-08-29T12:06:58Z</time>
      </trkpt>
      <trkpt lat="45.94494" lon="3.7004">
        <ele>1117.4</ele>
        <time>2022-08-29T12:06:59Z</time>
      </trkpt>
      <trkpt lat="45.94494" lon="3.70039">
        <ele>1117</ele>
        <time>2022-08-29T12:07:00Z</time>
      </trkpt>
      <trkpt lat="45.94495" lon="3.70039">
        <ele>1117</ele>
        <time>2022-08-29T12:07:01Z</time>
      </trkpt>
      <trkpt lat="45.94495" lon="3.70038">
        <ele>1117</ele>
        <time>2022-08-29T12:07:02Z</time>
      </trkpt>
      <trkpt lat="45.94495" lon="3.70037">
        <ele>1116.2</ele>
        <time>2022-08-29T12:07:03Z</time>
      </trkpt>
      <trkpt lat="45.94496" lon="3.70035">
        <ele>1116.2</ele>
        <time>2022-08-29T12:07:04Z</time>
      </trkpt>
      <trkpt lat="45.94498" lon="3.70034">
        <ele>1115.9</ele>
        <time>2022-08-29T12:07:05Z</time>
      </trkpt>
      <trkpt lat="45.94499" lon="3.70033">
        <ele>1115.1</ele>
        <time>2022-08-29T12:07:06Z</time>
      </trkpt>
      <trkpt lat="45.945" lon="3.70032">
        <ele>1115.1</ele>
        <time>2022-08-29T12:07:07Z</time>
      </trkpt>
      <trkpt lat="45.94501" lon="3.70032">
        <ele>1114.7</ele>
        <time>2022-08-29T12:07:08Z</time>
      </trkpt>
      <trkpt lat="45.94501" lon="3.70031">
        <ele>1114.7</ele>
        <time>2022-08-29T12:07:09Z</time>
      </trkpt>
      <trkpt lat="45.94501" lon="3.70031">
        <ele>1114.7</ele>
        <time>2022-08-29T12:07:10Z</time>
      </trkpt>
      <trkpt lat="45.94501" lon="3.70031">
        <ele>1114.7</ele>
        <time>2022-08-29T12:07:11Z</time>
      </trkpt>
      <trkpt lat="45.94501" lon="3.7003">
        <ele>1114.7</ele>
        <time>2022-08-29T12:07:12Z</time>
      </trkpt>
      <trkpt lat="45.94501" lon="3.7003">
        <ele>1114.7</ele>
        <time>2022-08-29T12:07:13Z</time>
      </trkpt>
      <trkpt lat="45.94501" lon="3.70029">
        <ele>1114.7</ele>
        <time>2022-08-29T12:07:14Z</time>
      </trkpt>
      <trkpt lat="45.94502" lon="3.70029">
        <ele>1114</ele>
        <time>2022-08-29T12:07:15Z</time>
      </trkpt>
      <trkpt lat="45.94502" lon="3.70028">
        <ele>1114</ele>
        <time>2022-08-29T12:07:16Z</time>
      </trkpt>
      <trkpt lat="45.94502" lon="3.70028">
        <ele>1114</ele>
        <time>2022-08-29T12:07:17Z</time>
      </trkpt>
      <trkpt lat="45.94502" lon="3.70027">
        <ele>1114</ele>
        <time>2022-08-29T12:07:18Z</time>
      </trkpt>
      <trkpt lat="45.94503" lon="3.70027">
        <ele>1114</ele>
        <time>2022-08-29T12:07:19Z</time>
      </trkpt>
      <trkpt lat="45.94503" lon="3.70026">
        <ele>1114</ele>
        <time>2022-08-29T12:07:20Z</time>
      </trkpt>
      <trkpt lat="45.94504" lon="3.70026">
        <ele>1113.6</ele>
        <time>2022-08-29T12:07:21Z</time>
      </trkpt>
      <trkpt lat="45.94504" lon="3.70025">
        <ele>1113.6</ele>
        <time>2022-08-29T12:07:22Z</time>
      </trkpt>
      <trkpt lat="45.94504" lon="3.70025">
        <ele>1113.6</ele>
        <time>2022-08-29T12:07:23Z</time>
      </trkpt>
      <trkpt lat="45.94505" lon="3.70025">
        <ele>1112.9</ele>
        <time>2022-08-29T12:07:24Z</time>
      </trkpt>
      <trkpt lat="45.94505" lon="3.70024">
        <ele>1112.9</ele>
        <time>2022-08-29T12:07:25Z</time>
      </trkpt>
      <trkpt lat="45.94505" lon="3.70024">
        <ele>1112.9</ele>
        <time>2022-08-29T12:07:26Z</time>
      </trkpt>
      <trkpt lat="45.94505" lon="3.70024">
        <ele>1112.9</ele>
        <time>2022-08-29T12:07:27Z</time>
      </trkpt>
      <trkpt lat="45.94506" lon="3.70024">
        <ele>1112.9</ele>
        <time>2022-08-29T12:07:28Z</time>
      </trkpt>
      <trkpt lat="45.94506" lon="3.70024">
        <ele>1112.9</ele>
        <time>2022-08-29T12:07:29Z</time>
      </trkpt>
      <trkpt lat="45.94506" lon="3.70024">
        <ele>1112.9</ele>
        <time>2022-08-29T12:07:30Z</time>
      </trkpt>
      <trkpt lat="45.94506" lon="3.70024">
        <ele>1112.9</ele>
        <time>2022-08-29T12:07:31Z</time>
      </trkpt>
      <trkpt lat="45.94506" lon="3.70024">
        <ele>1112.9</ele>
        <time>2022-08-29T12:07:32Z</time>
      </trkpt>
      <trkpt lat="45.94506" lon="3.70024">
        <ele>1112.9</ele>
        <time>2022-08-29T12:07:33Z</time>
      </trkpt>
      <trkpt lat="45.94506" lon="3.70024">
        <ele>1112.9</ele>
        <time>2022-08-29T12:07:34Z</time>
      </trkpt>
      <trkpt lat="45.94508" lon="3.70024">
        <ele>1112.6</ele>
        <time>2022-08-29T12:07:35Z</time>
      </trkpt>
      <trkpt lat="45.94509" lon="3.70023">
        <ele>1112.3</ele>
        <time>2022-08-29T12:07:36Z</time>
      </trkpt>
      <trkpt lat="45.94511" lon="3.70021">
        <ele>1112.3</ele>
        <time>2022-08-29T12:07:37Z</time>
      </trkpt>
      <trkpt lat="45.94512" lon="3.7002">
        <ele>1112.3</ele>
        <time>2022-08-29T12:07:38Z</time>
      </trkpt>
      <trkpt lat="45.94512" lon="3.7002">
        <ele>1111.3</ele>
        <time>2022-08-29T12:07:39Z</time>
      </trkpt>
      <trkpt lat="45.94513" lon="3.70019">
        <ele>1111.3</ele>
        <time>2022-08-29T12:07:40Z</time>
      </trkpt>
      <trkpt lat="45.94515" lon="3.70017">
        <ele>1111.3</ele>
        <time>2022-08-29T12:07:41Z</time>
      </trkpt>
      <trkpt lat="45.94515" lon="3.70016">
        <ele>1110.3</ele>
        <time>2022-08-29T12:07:42Z</time>
      </trkpt>
      <trkpt lat="45.94516" lon="3.70015">
        <ele>1110.3</ele>
        <time>2022-08-29T12:07:43Z</time>
      </trkpt>
      <trkpt lat="45.94516" lon="3.70013">
        <ele>1110.3</ele>
        <time>2022-08-29T12:07:44Z</time>
      </trkpt>
      <trkpt lat="45.94517" lon="3.70011">
        <ele>1109.5</ele>
        <time>2022-08-29T12:07:45Z</time>
      </trkpt>
      <trkpt lat="45.94517" lon="3.70008">
        <ele>1109.5</ele>
        <time>2022-08-29T12:07:46Z</time>
      </trkpt>
      <trkpt lat="45.94517" lon="3.70007">
        <ele>1108.6</ele>
        <time>2022-08-29T12:07:47Z</time>
      </trkpt>
      <trkpt lat="45.94517" lon="3.70006">
        <ele>1108.6</ele>
        <time>2022-08-29T12:07:48Z</time>
      </trkpt>
      <trkpt lat="45.94516" lon="3.70003">
        <ele>1107.6</ele>
        <time>2022-08-29T12:07:49Z</time>
      </trkpt>
      <trkpt lat="45.94516" lon="3.70002">
        <ele>1107.6</ele>
        <time>2022-08-29T12:07:50Z</time>
      </trkpt>
      <trkpt lat="45.94515" lon="3.70001">
        <ele>1107.9</ele>
        <time>2022-08-29T12:07:51Z</time>
      </trkpt>
      <trkpt lat="45.94515" lon="3.69999">
        <ele>1106.9</ele>
        <time>2022-08-29T12:07:52Z</time>
      </trkpt>
      <trkpt lat="45.94515" lon="3.69997">
        <ele>1106.9</ele>
        <time>2022-08-29T12:07:53Z</time>
      </trkpt>
      <trkpt lat="45.94515" lon="3.69996">
        <ele>1106.9</ele>
        <time>2022-08-29T12:07:54Z</time>
      </trkpt>
      <trkpt lat="45.94516" lon="3.69994">
        <ele>1105.7</ele>
        <time>2022-08-29T12:07:55Z</time>
      </trkpt>
      <trkpt lat="45.94517" lon="3.69993">
        <ele>1105.7</ele>
        <time>2022-08-29T12:07:56Z</time>
      </trkpt>
      <trkpt lat="45.94517" lon="3.69992">
        <ele>1105.8</ele>
        <time>2022-08-29T12:07:57Z</time>
      </trkpt>
      <trkpt lat="45.94519" lon="3.6999">
        <ele>1104.7</ele>
        <time>2022-08-29T12:07:58Z</time>
      </trkpt>
      <trkpt lat="45.9452" lon="3.69989">
        <ele>1104.7</ele>
        <time>2022-08-29T12:07:59Z</time>
      </trkpt>
      <trkpt lat="45.94521" lon="3.69988">
        <ele>1104.7</ele>
        <time>2022-08-29T12:08:00Z</time>
      </trkpt>
      <trkpt lat="45.94522" lon="3.69988">
        <ele>1104.4</ele>
        <time>2022-08-29T12:08:01Z</time>
      </trkpt>
      <trkpt lat="45.94524" lon="3.69987">
        <ele>1104.4</ele>
        <time>2022-08-29T12:08:02Z</time>
      </trkpt>
      <trkpt lat="45.94525" lon="3.69987">
        <ele>1104.2</ele>
        <time>2022-08-29T12:08:03Z</time>
      </trkpt>
      <trkpt lat="45.94527" lon="3.69986">
        <ele>1104.2</ele>
        <time>2022-08-29T12:08:04Z</time>
      </trkpt>
      <trkpt lat="45.94529" lon="3.69986">
        <ele>1103.1</ele>
        <time>2022-08-29T12:08:05Z</time>
      </trkpt>
      <trkpt lat="45.9453" lon="3.69985">
        <ele>1102.9</ele>
        <time>2022-08-29T12:08:06Z</time>
      </trkpt>
      <trkpt lat="45.94532" lon="3.69984">
        <ele>1102.9</ele>
        <time>2022-08-29T12:08:07Z</time>
      </trkpt>
      <trkpt lat="45.94533" lon="3.69983">
        <ele>1102.9</ele>
        <time>2022-08-29T12:08:08Z</time>
      </trkpt>
      <trkpt lat="45.94533" lon="3.69982">
        <ele>1101.8</ele>
        <time>2022-08-29T12:08:09Z</time>
      </trkpt>
      <trkpt lat="45.94534" lon="3.69981">
        <ele>1101.8</ele>
        <time>2022-08-29T12:08:10Z</time>
      </trkpt>
      <trkpt lat="45.94534" lon="3.6998">
        <ele>1101.8</ele>
        <time>2022-08-29T12:08:11Z</time>
      </trkpt>
      <trkpt lat="45.94534" lon="3.6998">
        <ele>1101.8</ele>
        <time>2022-08-29T12:08:12Z</time>
      </trkpt>
      <trkpt lat="45.94534" lon="3.6998">
        <ele>1101.8</ele>
        <time>2022-08-29T12:08:13Z</time>
      </trkpt>
      <trkpt lat="45.94534" lon="3.69981">
        <ele>1101.8</ele>
        <time>2022-08-29T12:08:14Z</time>
      </trkpt>
      <trkpt lat="45.94533" lon="3.69982">
        <ele>1102.6</ele>
        <time>2022-08-29T12:08:15Z</time>
      </trkpt>
      <trkpt lat="45.94533" lon="3.69983">
        <ele>1102.9</ele>
        <time>2022-08-29T12:08:16Z</time>
      </trkpt>
      <trkpt lat="45.94531" lon="3.69984">
        <ele>1102.9</ele>
        <time>2022-08-29T12:08:17Z</time>
      </trkpt>
      <trkpt lat="45.9453" lon="3.69985">
        <ele>1102.9</ele>
        <time>2022-08-29T12:08:18Z</time>
      </trkpt>
      <trkpt lat="45.94529" lon="3.69986">
        <ele>1104</ele>
        <time>2022-08-29T12:08:19Z</time>
      </trkpt>
      <trkpt lat="45.94527" lon="3.69987">
        <ele>1104</ele>
        <time>2022-08-29T12:08:20Z</time>
      </trkpt>
      <trkpt lat="45.94526" lon="3.69987">
        <ele>1104.2</ele>
        <time>2022-08-29T12:08:21Z</time>
      </trkpt>
      <trkpt lat="45.94524" lon="3.69986">
        <ele>1104.3</ele>
        <time>2022-08-29T12:08:22Z</time>
      </trkpt>
      <trkpt lat="45.94523" lon="3.69985">
        <ele>1103.7</ele>
        <time>2022-08-29T12:08:23Z</time>
      </trkpt>
      <trkpt lat="45.94522" lon="3.69984">
        <ele>1103.7</ele>
        <time>2022-08-29T12:08:24Z</time>
      </trkpt>
      <trkpt lat="45.94521" lon="3.69982">
        <ele>1103.9</ele>
        <time>2022-08-29T12:08:25Z</time>
      </trkpt>
      <trkpt lat="45.94521" lon="3.69981">
        <ele>1103</ele>
        <time>2022-08-29T12:08:26Z</time>
      </trkpt>
      <trkpt lat="45.94521" lon="3.69981">
        <ele>1103</ele>
        <time>2022-08-29T12:08:27Z</time>
      </trkpt>
      <trkpt lat="45.94521" lon="3.69981">
        <ele>1103</ele>
        <time>2022-08-29T12:08:28Z</time>
      </trkpt>
      <trkpt lat="45.94522" lon="3.6998">
        <ele>1102.8</ele>
        <time>2022-08-29T12:08:29Z</time>
      </trkpt>
      <trkpt lat="45.94523" lon="3.6998">
        <ele>1102.8</ele>
        <time>2022-08-29T12:08:30Z</time>
      </trkpt>
      <trkpt lat="45.94524" lon="3.69979">
        <ele>1102.8</ele>
        <time>2022-08-29T12:08:31Z</time>
      </trkpt>
      <trkpt lat="45.94525" lon="3.69978">
        <ele>1102.6</ele>
        <time>2022-08-29T12:08:32Z</time>
      </trkpt>
      <trkpt lat="45.94526" lon="3.69977">
        <ele>1101.8</ele>
        <time>2022-08-29T12:08:33Z</time>
      </trkpt>
      <trkpt lat="45.94527" lon="3.69976">
        <ele>1101.8</ele>
        <time>2022-08-29T12:08:34Z</time>
      </trkpt>
      <trkpt lat="45.94528" lon="3.69975">
        <ele>1101.5</ele>
        <time>2022-08-29T12:08:35Z</time>
      </trkpt>
      <trkpt lat="45.94529" lon="3.69974">
        <ele>1101.5</ele>
        <time>2022-08-29T12:08:36Z</time>
      </trkpt>
      <trkpt lat="45.94529" lon="3.69974">
        <ele>1101.5</ele>
        <time>2022-08-29T12:08:37Z</time>
      </trkpt>
      <trkpt lat="45.9453" lon="3.69974">
        <ele>1101.5</ele>
        <time>2022-08-29T12:08:38Z</time>
      </trkpt>
      <trkpt lat="45.94531" lon="3.69974">
        <ele>1101.3</ele>
        <time>2022-08-29T12:08:39Z</time>
      </trkpt>
      <trkpt lat="45.94531" lon="3.69973">
        <ele>1101.3</ele>
        <time>2022-08-29T12:08:40Z</time>
      </trkpt>
      <trkpt lat="45.94533" lon="3.69973">
        <ele>1101.3</ele>
        <time>2022-08-29T12:08:41Z</time>
      </trkpt>
      <trkpt lat="45.94534" lon="3.69973">
        <ele>1101</ele>
        <time>2022-08-29T12:08:42Z</time>
      </trkpt>
      <trkpt lat="45.94536" lon="3.69973">
        <ele>1101</ele>
        <time>2022-08-29T12:08:43Z</time>
      </trkpt>
      <trkpt lat="45.94537" lon="3.69973">
        <ele>1100.8</ele>
        <time>2022-08-29T12:08:44Z</time>
      </trkpt>
      <trkpt lat="45.94539" lon="3.69973">
        <ele>1100.8</ele>
        <time>2022-08-29T12:08:45Z</time>
      </trkpt>
      <trkpt lat="45.9454" lon="3.69973">
        <ele>1100.6</ele>
        <time>2022-08-29T12:08:46Z</time>
      </trkpt>
      <trkpt lat="45.94541" lon="3.69973">
        <ele>1100.6</ele>
        <time>2022-08-29T12:08:47Z</time>
      </trkpt>
      <trkpt lat="45.94542" lon="3.69973">
        <ele>1099.7</ele>
        <time>2022-08-29T12:08:48Z</time>
      </trkpt>
      <trkpt lat="45.94542" lon="3.69973">
        <ele>1099.5</ele>
        <time>2022-08-29T12:08:49Z</time>
      </trkpt>
      <trkpt lat="45.94543" lon="3.69973">
        <ele>1099.5</ele>
        <time>2022-08-29T12:08:50Z</time>
      </trkpt>
      <trkpt lat="45.94543" lon="3.69973">
        <ele>1099.5</ele>
        <time>2022-08-29T12:08:51Z</time>
      </trkpt>
      <trkpt lat="45.94543" lon="3.69973">
        <ele>1099.5</ele>
        <time>2022-08-29T12:08:52Z</time>
      </trkpt>
      <trkpt lat="45.94544" lon="3.69972">
        <ele>1099.5</ele>
        <time>2022-08-29T12:08:53Z</time>
      </trkpt>
      <trkpt lat="45.94544" lon="3.69972">
        <ele>1099.5</ele>
        <time>2022-08-29T12:08:54Z</time>
      </trkpt>
      <trkpt lat="45.94545" lon="3.69971">
        <ele>1099.5</ele>
        <time>2022-08-29T12:08:55Z</time>
      </trkpt>
      <trkpt lat="45.94545" lon="3.6997">
        <ele>1099.5</ele>
        <time>2022-08-29T12:08:56Z</time>
      </trkpt>
      <trkpt lat="45.94545" lon="3.6997">
        <ele>1099.2</ele>
        <time>2022-08-29T12:08:57Z</time>
      </trkpt>
      <trkpt lat="45.94546" lon="3.69969">
        <ele>1099.2</ele>
        <time>2022-08-29T12:08:58Z</time>
      </trkpt>
      <trkpt lat="45.94546" lon="3.69969">
        <ele>1099.2</ele>
        <time>2022-08-29T12:08:59Z</time>
      </trkpt>
      <trkpt lat="45.94546" lon="3.69969">
        <ele>1099.2</ele>
        <time>2022-08-29T12:09:00Z</time>
      </trkpt>
      <trkpt lat="45.94546" lon="3.69969">
        <ele>1099.2</ele>
        <time>2022-08-29T12:09:01Z</time>
      </trkpt>
      <trkpt lat="45.94547" lon="3.6997">
        <ele>1099.2</ele>
        <time>2022-08-29T12:09:02Z</time>
      </trkpt>
      <trkpt lat="45.94547" lon="3.6997">
        <ele>1099.2</ele>
        <time>2022-08-29T12:09:03Z</time>
      </trkpt>
      <trkpt lat="45.94547" lon="3.6997">
        <ele>1099.2</ele>
        <time>2022-08-29T12:09:04Z</time>
      </trkpt>
      <trkpt lat="45.94547" lon="3.6997">
        <ele>1099.2</ele>
        <time>2022-08-29T12:09:05Z</time>
      </trkpt>
      <trkpt lat="45.94547" lon="3.6997">
        <ele>1099.2</ele>
        <time>2022-08-29T12:09:06Z</time>
      </trkpt>
      <trkpt lat="45.94547" lon="3.6997">
        <ele>1099.2</ele>
        <time>2022-08-29T12:09:07Z</time>
      </trkpt>
      <trkpt lat="45.94547" lon="3.6997">
        <ele>1099.2</ele>
        <time>2022-08-29T12:09:08Z</time>
      </trkpt>
      <trkpt lat="45.94547" lon="3.6997">
        <ele>1099.2</ele>
        <time>2022-08-29T12:09:09Z</time>
      </trkpt>
      <trkpt lat="45.94547" lon="3.6997">
        <ele>1099.2</ele>
        <time>2022-08-29T12:09:10Z</time>
      </trkpt>
      <trkpt lat="45.94547" lon="3.6997">
        <ele>1099.2</ele>
        <time>2022-08-29T12:09:11Z</time>
      </trkpt>
      <trkpt lat="45.94548" lon="3.69971">
        <ele>1099.3</ele>
        <time>2022-08-29T12:09:12Z</time>
      </trkpt>
      <trkpt lat="45.94548" lon="3.69971">
        <ele>1099.3</ele>
        <time>2022-08-29T12:09:13Z</time>
      </trkpt>
      <trkpt lat="45.94548" lon="3.69971">
        <ele>1099.3</ele>
        <time>2022-08-29T12:09:14Z</time>
      </trkpt>
      <trkpt lat="45.94548" lon="3.69971">
        <ele>1099.3</ele>
        <time>2022-08-29T12:09:15Z</time>
      </trkpt>
      <trkpt lat="45.94548" lon="3.6997">
        <ele>1099.3</ele>
        <time>2022-08-29T12:09:16Z</time>
      </trkpt>
      <trkpt lat="45.94548" lon="3.6997">
        <ele>1099.3</ele>
        <time>2022-08-29T12:09:17Z</time>
      </trkpt>
      <trkpt lat="45.94548" lon="3.6997">
        <ele>1099.3</ele>
        <time>2022-08-29T12:09:18Z</time>
      </trkpt>
      <trkpt lat="45.94548" lon="3.6997">
        <ele>1099.3</ele>
        <time>2022-08-29T12:09:19Z</time>
      </trkpt>
      <trkpt lat="45.94548" lon="3.6997">
        <ele>1099.3</ele>
        <time>2022-08-29T12:09:20Z</time>
      </trkpt>
      <trkpt lat="45.94548" lon="3.6997">
        <ele>1099.3</ele>
        <time>2022-08-29T12:09:21Z</time>
      </trkpt>
      <trkpt lat="45.94548" lon="3.6997">
        <ele>1098.9</ele>
        <time>2022-08-29T12:09:22Z</time>
      </trkpt>
      <trkpt lat="45.94548" lon="3.6997">
        <ele>1098.9</ele>
        <time>2022-08-29T12:09:23Z</time>
      </trkpt>
      <trkpt lat="45.94548" lon="3.6997">
        <ele>1098.9</ele>
        <time>2022-08-29T12:09:24Z</time>
      </trkpt>
      <trkpt lat="45.94548" lon="3.6997">
        <ele>1098.9</ele>
        <time>2022-08-29T12:09:25Z</time>
      </trkpt>
      <trkpt lat="45.94548" lon="3.6997">
        <ele>1098.9</ele>
        <time>2022-08-29T12:09:26Z</time>
      </trkpt>
      <trkpt lat="45.94548" lon="3.6997">
        <ele>1098.9</ele>
        <time>2022-08-29T12:09:27Z</time>
      </trkpt>
      <trkpt lat="45.94549" lon="3.6997">
        <ele>1098.9</ele>
        <time>2022-08-29T12:09:28Z</time>
      </trkpt>
      <trkpt lat="45.94549" lon="3.6997">
        <ele>1098.9</ele>
        <time>2022-08-29T12:09:29Z</time>
      </trkpt>
      <trkpt lat="45.94549" lon="3.69969">
        <ele>1098.9</ele>
        <time>2022-08-29T12:09:30Z</time>
      </trkpt>
      <trkpt lat="45.9455" lon="3.6997">
        <ele>1098.9</ele>
        <time>2022-08-29T12:09:31Z</time>
      </trkpt>
      <trkpt lat="45.94551" lon="3.6997">
        <ele>1098.9</ele>
        <time>2022-08-29T12:09:32Z</time>
      </trkpt>
      <trkpt lat="45.94552" lon="3.69969">
        <ele>1098.5</ele>
        <time>2022-08-29T12:09:33Z</time>
      </trkpt>
      <trkpt lat="45.94552" lon="3.69969">
        <ele>1098.5</ele>
        <time>2022-08-29T12:09:34Z</time>
      </trkpt>
      <trkpt lat="45.94553" lon="3.69969">
        <ele>1097.5</ele>
        <time>2022-08-29T12:09:35Z</time>
      </trkpt>
      <trkpt lat="45.94554" lon="3.69968">
        <ele>1097.5</ele>
        <time>2022-08-29T12:09:36Z</time>
      </trkpt>
      <trkpt lat="45.94554" lon="3.69966">
        <ele>1097</ele>
        <time>2022-08-29T12:09:37Z</time>
      </trkpt>
      <trkpt lat="45.94555" lon="3.69965">
        <ele>1097</ele>
        <time>2022-08-29T12:09:38Z</time>
      </trkpt>
      <trkpt lat="45.94555" lon="3.69963">
        <ele>1096</ele>
        <time>2022-08-29T12:09:39Z</time>
      </trkpt>
      <trkpt lat="45.94555" lon="3.69962">
        <ele>1096</ele>
        <time>2022-08-29T12:09:40Z</time>
      </trkpt>
      <trkpt lat="45.94556" lon="3.6996">
        <ele>1096</ele>
        <time>2022-08-29T12:09:41Z</time>
      </trkpt>
      <trkpt lat="45.94556" lon="3.69959">
        <ele>1094.9</ele>
        <time>2022-08-29T12:09:42Z</time>
      </trkpt>
      <trkpt lat="45.94557" lon="3.69958">
        <ele>1094.9</ele>
        <time>2022-08-29T12:09:43Z</time>
      </trkpt>
      <trkpt lat="45.94558" lon="3.69957">
        <ele>1094.4</ele>
        <time>2022-08-29T12:09:44Z</time>
      </trkpt>
      <trkpt lat="45.94558" lon="3.69956">
        <ele>1093.3</ele>
        <time>2022-08-29T12:09:45Z</time>
      </trkpt>
      <trkpt lat="45.94559" lon="3.69955">
        <ele>1093.3</ele>
        <time>2022-08-29T12:09:46Z</time>
      </trkpt>
      <trkpt lat="45.9456" lon="3.69955">
        <ele>1093.3</ele>
        <time>2022-08-29T12:09:47Z</time>
      </trkpt>
      <trkpt lat="45.9456" lon="3.69954">
        <ele>1092.8</ele>
        <time>2022-08-29T12:09:48Z</time>
      </trkpt>
      <trkpt lat="45.94561" lon="3.69954">
        <ele>1092.8</ele>
        <time>2022-08-29T12:09:49Z</time>
      </trkpt>
      <trkpt lat="45.94561" lon="3.69954">
        <ele>1092.8</ele>
        <time>2022-08-29T12:09:50Z</time>
      </trkpt>
      <trkpt lat="45.94561" lon="3.69954">
        <ele>1092.8</ele>
        <time>2022-08-29T12:09:51Z</time>
      </trkpt>
      <trkpt lat="45.94561" lon="3.69953">
        <ele>1092.8</ele>
        <time>2022-08-29T12:09:52Z</time>
      </trkpt>
      <trkpt lat="45.94561" lon="3.69953">
        <ele>1092.8</ele>
        <time>2022-08-29T12:09:53Z</time>
      </trkpt>
      <trkpt lat="45.94562" lon="3.69952">
        <ele>1092.8</ele>
        <time>2022-08-29T12:09:54Z</time>
      </trkpt>
      <trkpt lat="45.94562" lon="3.69951">
        <ele>1091.7</ele>
        <time>2022-08-29T12:09:55Z</time>
      </trkpt>
      <trkpt lat="45.94564" lon="3.69949">
        <ele>1091.2</ele>
        <time>2022-08-29T12:09:56Z</time>
      </trkpt>
      <trkpt lat="45.94566" lon="3.69946">
        <ele>1089.7</ele>
        <time>2022-08-29T12:09:57Z</time>
      </trkpt>
      <trkpt lat="45.94567" lon="3.69945">
        <ele>1089.7</ele>
        <time>2022-08-29T12:09:58Z</time>
      </trkpt>
      <trkpt lat="45.9457" lon="3.69941">
        <ele>1088.1</ele>
        <time>2022-08-29T12:09:59Z</time>
      </trkpt>
      <trkpt lat="45.9457" lon="3.69939">
        <ele>1088.1</ele>
        <time>2022-08-29T12:10:00Z</time>
      </trkpt>
      <trkpt lat="45.94573" lon="3.69936">
        <ele>1086.6</ele>
        <time>2022-08-29T12:10:01Z</time>
      </trkpt>
      <trkpt lat="45.94573" lon="3.69935">
        <ele>1086.6</ele>
        <time>2022-08-29T12:10:02Z</time>
      </trkpt>
      <trkpt lat="45.94574" lon="3.69933">
        <ele>1085.6</ele>
        <time>2022-08-29T12:10:03Z</time>
      </trkpt>
      <trkpt lat="45.94575" lon="3.69931">
        <ele>1085.1</ele>
        <time>2022-08-29T12:10:04Z</time>
      </trkpt>
      <trkpt lat="45.94576" lon="3.6993">
        <ele>1084.2</ele>
        <time>2022-08-29T12:10:05Z</time>
      </trkpt>
      <trkpt lat="45.94577" lon="3.69928">
        <ele>1084.2</ele>
        <time>2022-08-29T12:10:06Z</time>
      </trkpt>
      <trkpt lat="45.94579" lon="3.69926">
        <ele>1082.8</ele>
        <time>2022-08-29T12:10:07Z</time>
      </trkpt>
      <trkpt lat="45.9458" lon="3.69924">
        <ele>1082.8</ele>
        <time>2022-08-29T12:10:08Z</time>
      </trkpt>
      <trkpt lat="45.9458" lon="3.69923">
        <ele>1082.8</ele>
        <time>2022-08-29T12:10:09Z</time>
      </trkpt>
      <trkpt lat="45.94581" lon="3.69922">
        <ele>1081.5</ele>
        <time>2022-08-29T12:10:10Z</time>
      </trkpt>
      <trkpt lat="45.94582" lon="3.6992">
        <ele>1081.5</ele>
        <time>2022-08-29T12:10:11Z</time>
      </trkpt>
      <trkpt lat="45.94583" lon="3.69919">
        <ele>1081.5</ele>
        <time>2022-08-29T12:10:12Z</time>
      </trkpt>
      <trkpt lat="45.94584" lon="3.69917">
        <ele>1080.6</ele>
        <time>2022-08-29T12:10:13Z</time>
      </trkpt>
      <trkpt lat="45.94584" lon="3.69916">
        <ele>1080.2</ele>
        <time>2022-08-29T12:10:14Z</time>
      </trkpt>
      <trkpt lat="45.94584" lon="3.69914">
        <ele>1080.2</ele>
        <time>2022-08-29T12:10:15Z</time>
      </trkpt>
      <trkpt lat="45.94584" lon="3.69913">
        <ele>1080.2</ele>
        <time>2022-08-29T12:10:16Z</time>
      </trkpt>
      <trkpt lat="45.94583" lon="3.69913">
        <ele>1080.6</ele>
        <time>2022-08-29T12:10:17Z</time>
      </trkpt>
      <trkpt lat="45.94583" lon="3.69913">
        <ele>1080.6</ele>
        <time>2022-08-29T12:10:18Z</time>
      </trkpt>
      <trkpt lat="45.94582" lon="3.69914">
        <ele>1080.6</ele>
        <time>2022-08-29T12:10:19Z</time>
      </trkpt>
      <trkpt lat="45.94581" lon="3.69914">
        <ele>1080.6</ele>
        <time>2022-08-29T12:10:20Z</time>
      </trkpt>
      <trkpt lat="45.94581" lon="3.69915">
        <ele>1081.1</ele>
        <time>2022-08-29T12:10:21Z</time>
      </trkpt>
      <trkpt lat="45.94581" lon="3.69916">
        <ele>1081.1</ele>
        <time>2022-08-29T12:10:22Z</time>
      </trkpt>
      <trkpt lat="45.94581" lon="3.69916">
        <ele>1080.6</ele>
        <time>2022-08-29T12:10:23Z</time>
      </trkpt>
      <trkpt lat="45.94581" lon="3.69916">
        <ele>1080.6</ele>
        <time>2022-08-29T12:10:24Z</time>
      </trkpt>
      <trkpt lat="45.94581" lon="3.69917">
        <ele>1080.6</ele>
        <time>2022-08-29T12:10:25Z</time>
      </trkpt>
      <trkpt lat="45.94581" lon="3.69917">
        <ele>1080.6</ele>
        <time>2022-08-29T12:10:26Z</time>
      </trkpt>
      <trkpt lat="45.94581" lon="3.69917">
        <ele>1081.5</ele>
        <time>2022-08-29T12:10:27Z</time>
      </trkpt>
      <trkpt lat="45.94581" lon="3.69918">
        <ele>1081.9</ele>
        <time>2022-08-29T12:10:28Z</time>
      </trkpt>
      <trkpt lat="45.94581" lon="3.69918">
        <ele>1081.9</ele>
        <time>2022-08-29T12:10:29Z</time>
      </trkpt>
      <trkpt lat="45.94581" lon="3.69918">
        <ele>1081.9</ele>
        <time>2022-08-29T12:10:30Z</time>
      </trkpt>
      <trkpt lat="45.94581" lon="3.69918">
        <ele>1081.5</ele>
        <time>2022-08-29T12:10:31Z</time>
      </trkpt>
      <trkpt lat="45.94581" lon="3.69917">
        <ele>1081.5</ele>
        <time>2022-08-29T12:10:32Z</time>
      </trkpt>
      <trkpt lat="45.94582" lon="3.69917">
        <ele>1080.6</ele>
        <time>2022-08-29T12:10:33Z</time>
      </trkpt>
      <trkpt lat="45.94582" lon="3.69917">
        <ele>1080.6</ele>
        <time>2022-08-29T12:10:34Z</time>
      </trkpt>
      <trkpt lat="45.94582" lon="3.69917">
        <ele>1080.6</ele>
        <time>2022-08-29T12:10:35Z</time>
      </trkpt>
      <trkpt lat="45.94582" lon="3.69917">
        <ele>1080.6</ele>
        <time>2022-08-29T12:10:36Z</time>
      </trkpt>
      <trkpt lat="45.94582" lon="3.69917">
        <ele>1080.6</ele>
        <time>2022-08-29T12:10:37Z</time>
      </trkpt>
      <trkpt lat="45.94582" lon="3.69917">
        <ele>1080.6</ele>
        <time>2022-08-29T12:10:38Z</time>
      </trkpt>
      <trkpt lat="45.94582" lon="3.69917">
        <ele>1080.6</ele>
        <time>2022-08-29T12:10:39Z</time>
      </trkpt>
      <trkpt lat="45.94582" lon="3.69917">
        <ele>1080.6</ele>
        <time>2022-08-29T12:10:40Z</time>
      </trkpt>
      <trkpt lat="45.94582" lon="3.69917">
        <ele>1080.6</ele>
        <time>2022-08-29T12:10:41Z</time>
      </trkpt>
      <trkpt lat="45.94582" lon="3.69917">
        <ele>1080.6</ele>
        <time>2022-08-29T12:10:42Z</time>
      </trkpt>
      <trkpt lat="45.94582" lon="3.69917">
        <ele>1080.6</ele>
        <time>2022-08-29T12:10:43Z</time>
      </trkpt>
      <trkpt lat="45.94582" lon="3.69917">
        <ele>1080.6</ele>
        <time>2022-08-29T12:10:44Z</time>
      </trkpt>
      <trkpt lat="45.94582" lon="3.69917">
        <ele>1080.6</ele>
        <time>2022-08-29T12:10:45Z</time>
      </trkpt>
      <trkpt lat="45.94582" lon="3.69917">
        <ele>1080.6</ele>
        <time>2022-08-29T12:10:46Z</time>
      </trkpt>
      <trkpt lat="45.94582" lon="3.69917">
        <ele>1080.6</ele>
        <time>2022-08-29T12:10:47Z</time>
      </trkpt>
      <trkpt lat="45.94582" lon="3.69917">
        <ele>1080.6</ele>
        <time>2022-08-29T12:10:48Z</time>
      </trkpt>
      <trkpt lat="45.94582" lon="3.69917">
        <ele>1080.6</ele>
        <time>2022-08-29T12:10:49Z</time>
      </trkpt>
      <trkpt lat="45.94582" lon="3.69917">
        <ele>1080.6</ele>
        <time>2022-08-29T12:10:50Z</time>
      </trkpt>
      <trkpt lat="45.94582" lon="3.69917">
        <ele>1080.6</ele>
        <time>2022-08-29T12:10:51Z</time>
      </trkpt>
      <trkpt lat="45.94582" lon="3.69917">
        <ele>1080.6</ele>
        <time>2022-08-29T12:10:52Z</time>
      </trkpt>
      <trkpt lat="45.94582" lon="3.69917">
        <ele>1080.6</ele>
        <time>2022-08-29T12:10:53Z</time>
      </trkpt>
      <trkpt lat="45.94582" lon="3.69917">
        <ele>1080.6</ele>
        <time>2022-08-29T12:10:54Z</time>
      </trkpt>
      <trkpt lat="45.94582" lon="3.69917">
        <ele>1080.6</ele>
        <time>2022-08-29T12:10:55Z</time>
      </trkpt>
      <trkpt lat="45.94582" lon="3.69917">
        <ele>1080.6</ele>
        <time>2022-08-29T12:10:56Z</time>
      </trkpt>
      <trkpt lat="45.94582" lon="3.69915">
        <ele>1080.6</ele>
        <time>2022-08-29T12:10:57Z</time>
      </trkpt>
      <trkpt lat="45.94583" lon="3.69914">
        <ele>1080.6</ele>
        <time>2022-08-29T12:10:58Z</time>
      </trkpt>
      <trkpt lat="45.94583" lon="3.69913">
        <ele>1079.8</ele>
        <time>2022-08-29T12:10:59Z</time>
      </trkpt>
      <trkpt lat="45.94584" lon="3.69912">
        <ele>1079.4</ele>
        <time>2022-08-29T12:11:00Z</time>
      </trkpt>
      <trkpt lat="45.94585" lon="3.6991">
        <ele>1079.4</ele>
        <time>2022-08-29T12:11:01Z</time>
      </trkpt>
      <trkpt lat="45.94585" lon="3.69909">
        <ele>1079.4</ele>
        <time>2022-08-29T12:11:02Z</time>
      </trkpt>
      <trkpt lat="45.94585" lon="3.69908">
        <ele>1078.7</ele>
        <time>2022-08-29T12:11:03Z</time>
      </trkpt>
      <trkpt lat="45.94586" lon="3.69907">
        <ele>1078.7</ele>
        <time>2022-08-29T12:11:04Z</time>
      </trkpt>
      <trkpt lat="45.94587" lon="3.69905">
        <ele>1078.7</ele>
        <time>2022-08-29T12:11:05Z</time>
      </trkpt>
      <trkpt lat="45.94588" lon="3.69903">
        <ele>1077.7</ele>
        <time>2022-08-29T12:11:06Z</time>
      </trkpt>
      <trkpt lat="45.94589" lon="3.699">
        <ele>1077.1</ele>
        <time>2022-08-29T12:11:07Z</time>
      </trkpt>
      <trkpt lat="45.9459" lon="3.69898">
        <ele>1077.1</ele>
        <time>2022-08-29T12:11:08Z</time>
      </trkpt>
      <trkpt lat="45.94591" lon="3.69896">
        <ele>1076.8</ele>
        <time>2022-08-29T12:11:09Z</time>
      </trkpt>
      <trkpt lat="45.94591" lon="3.69895">
        <ele>1076.3</ele>
        <time>2022-08-29T12:11:10Z</time>
      </trkpt>
      <trkpt lat="45.94592" lon="3.69894">
        <ele>1076.3</ele>
        <time>2022-08-29T12:11:11Z</time>
      </trkpt>
      <trkpt lat="45.94592" lon="3.69893">
        <ele>1076.3</ele>
        <time>2022-08-29T12:11:12Z</time>
      </trkpt>
      <trkpt lat="45.94592" lon="3.69892">
        <ele>1076.3</ele>
        <time>2022-08-29T12:11:13Z</time>
      </trkpt>
      <trkpt lat="45.94592" lon="3.69891">
        <ele>1075.8</ele>
        <time>2022-08-29T12:11:14Z</time>
      </trkpt>
      <trkpt lat="45.94592" lon="3.6989">
        <ele>1075.8</ele>
        <time>2022-08-29T12:11:15Z</time>
      </trkpt>
      <trkpt lat="45.94592" lon="3.69889">
        <ele>1075.8</ele>
        <time>2022-08-29T12:11:16Z</time>
      </trkpt>
      <trkpt lat="45.94592" lon="3.69888">
        <ele>1075.8</ele>
        <time>2022-08-29T12:11:17Z</time>
      </trkpt>
      <trkpt lat="45.94591" lon="3.69888">
        <ele>1075.8</ele>
        <time>2022-08-29T12:11:18Z</time>
      </trkpt>
      <trkpt lat="45.9459" lon="3.69888">
        <ele>1075.8</ele>
        <time>2022-08-29T12:11:19Z</time>
      </trkpt>
      <trkpt lat="45.9459" lon="3.69888">
        <ele>1075.8</ele>
        <time>2022-08-29T12:11:20Z</time>
      </trkpt>
      <trkpt lat="45.9459" lon="3.69888">
        <ele>1075.8</ele>
        <time>2022-08-29T12:11:21Z</time>
      </trkpt>
      <trkpt lat="45.94591" lon="3.69888">
        <ele>1075.8</ele>
        <time>2022-08-29T12:11:22Z</time>
      </trkpt>
      <trkpt lat="45.94591" lon="3.69888">
        <ele>1075.8</ele>
        <time>2022-08-29T12:11:23Z</time>
      </trkpt>
      <trkpt lat="45.94592" lon="3.69888">
        <ele>1075.8</ele>
        <time>2022-08-29T12:11:24Z</time>
      </trkpt>
      <trkpt lat="45.94592" lon="3.69887">
        <ele>1075.8</ele>
        <time>2022-08-29T12:11:25Z</time>
      </trkpt>
      <trkpt lat="45.94593" lon="3.69887">
        <ele>1075.2</ele>
        <time>2022-08-29T12:11:26Z</time>
      </trkpt>
      <trkpt lat="45.94593" lon="3.69887">
        <ele>1075.2</ele>
        <time>2022-08-29T12:11:27Z</time>
      </trkpt>
      <trkpt lat="45.94594" lon="3.69887">
        <ele>1075.2</ele>
        <time>2022-08-29T12:11:28Z</time>
      </trkpt>
      <trkpt lat="45.94594" lon="3.69887">
        <ele>1075.2</ele>
        <time>2022-08-29T12:11:29Z</time>
      </trkpt>
      <trkpt lat="45.94594" lon="3.69886">
        <ele>1075.2</ele>
        <time>2022-08-29T12:11:30Z</time>
      </trkpt>
      <trkpt lat="45.94594" lon="3.69886">
        <ele>1075.2</ele>
        <time>2022-08-29T12:11:31Z</time>
      </trkpt>
      <trkpt lat="45.94594" lon="3.69885">
        <ele>1075.2</ele>
        <time>2022-08-29T12:11:32Z</time>
      </trkpt>
      <trkpt lat="45.94595" lon="3.69885">
        <ele>1075.2</ele>
        <time>2022-08-29T12:11:33Z</time>
      </trkpt>
      <trkpt lat="45.94595" lon="3.69884">
        <ele>1075.2</ele>
        <time>2022-08-29T12:11:34Z</time>
      </trkpt>
      <trkpt lat="45.94595" lon="3.69884">
        <ele>1075.2</ele>
        <time>2022-08-29T12:11:35Z</time>
      </trkpt>
      <trkpt lat="45.94595" lon="3.69884">
        <ele>1075.2</ele>
        <time>2022-08-29T12:11:36Z</time>
      </trkpt>
      <trkpt lat="45.94595" lon="3.69883">
        <ele>1075.2</ele>
        <time>2022-08-29T12:11:37Z</time>
      </trkpt>
      <trkpt lat="45.94595" lon="3.69883">
        <ele>1074.8</ele>
        <time>2022-08-29T12:11:38Z</time>
      </trkpt>
      <trkpt lat="45.94595" lon="3.69882">
        <ele>1074.8</ele>
        <time>2022-08-29T12:11:39Z</time>
      </trkpt>
      <trkpt lat="45.94595" lon="3.69882">
        <ele>1074.8</ele>
        <time>2022-08-29T12:11:40Z</time>
      </trkpt>
      <trkpt lat="45.94595" lon="3.69882">
        <ele>1074.8</ele>
        <time>2022-08-29T12:11:41Z</time>
      </trkpt>
      <trkpt lat="45.94595" lon="3.69881">
        <ele>1074.8</ele>
        <time>2022-08-29T12:11:42Z</time>
      </trkpt>
      <trkpt lat="45.94595" lon="3.69879">
        <ele>1074.8</ele>
        <time>2022-08-29T12:11:43Z</time>
      </trkpt>
      <trkpt lat="45.94595" lon="3.69877">
        <ele>1074.5</ele>
        <time>2022-08-29T12:11:44Z</time>
      </trkpt>
      <trkpt lat="45.94594" lon="3.69874">
        <ele>1074.3</ele>
        <time>2022-08-29T12:11:45Z</time>
      </trkpt>
      <trkpt lat="45.94594" lon="3.69871">
        <ele>1074.3</ele>
        <time>2022-08-29T12:11:46Z</time>
      </trkpt>
      <trkpt lat="45.94596" lon="3.69867">
        <ele>1074.1</ele>
        <time>2022-08-29T12:11:47Z</time>
      </trkpt>
      <trkpt lat="45.94596" lon="3.69866">
        <ele>1073.7</ele>
        <time>2022-08-29T12:11:48Z</time>
      </trkpt>
      <trkpt lat="45.94598" lon="3.69862">
        <ele>1073.6</ele>
        <time>2022-08-29T12:11:49Z</time>
      </trkpt>
      <trkpt lat="45.94599" lon="3.6986">
        <ele>1073.5</ele>
        <time>2022-08-29T12:11:50Z</time>
      </trkpt>
      <trkpt lat="45.946" lon="3.69859">
        <ele>1073.5</ele>
        <time>2022-08-29T12:11:51Z</time>
      </trkpt>
      <trkpt lat="45.946" lon="3.69858">
        <ele>1073.5</ele>
        <time>2022-08-29T12:11:52Z</time>
      </trkpt>
      <trkpt lat="45.94601" lon="3.69857">
        <ele>1073.3</ele>
        <time>2022-08-29T12:11:53Z</time>
      </trkpt>
      <trkpt lat="45.946" lon="3.69856">
        <ele>1073.3</ele>
        <time>2022-08-29T12:11:54Z</time>
      </trkpt>
      <trkpt lat="45.946" lon="3.69856">
        <ele>1073.3</ele>
        <time>2022-08-29T12:11:55Z</time>
      </trkpt>
      <trkpt lat="45.946" lon="3.69855">
        <ele>1073.3</ele>
        <time>2022-08-29T12:11:56Z</time>
      </trkpt>
      <trkpt lat="45.94599" lon="3.69855">
        <ele>1073.3</ele>
        <time>2022-08-29T12:11:57Z</time>
      </trkpt>
      <trkpt lat="45.94599" lon="3.69855">
        <ele>1073.3</ele>
        <time>2022-08-29T12:11:58Z</time>
      </trkpt>
      <trkpt lat="45.94599" lon="3.69855">
        <ele>1073.3</ele>
        <time>2022-08-29T12:11:59Z</time>
      </trkpt>
      <trkpt lat="45.946" lon="3.69855">
        <ele>1073.3</ele>
        <time>2022-08-29T12:12:00Z</time>
      </trkpt>
      <trkpt lat="45.946" lon="3.69855">
        <ele>1073.3</ele>
        <time>2022-08-29T12:12:01Z</time>
      </trkpt>
      <trkpt lat="45.946" lon="3.69855">
        <ele>1073.3</ele>
        <time>2022-08-29T12:12:02Z</time>
      </trkpt>
      <trkpt lat="45.946" lon="3.69855">
        <ele>1073.3</ele>
        <time>2022-08-29T12:12:03Z</time>
      </trkpt>
      <trkpt lat="45.94601" lon="3.69855">
        <ele>1073.3</ele>
        <time>2022-08-29T12:12:04Z</time>
      </trkpt>
      <trkpt lat="45.94601" lon="3.69855">
        <ele>1073.3</ele>
        <time>2022-08-29T12:12:05Z</time>
      </trkpt>
      <trkpt lat="45.94601" lon="3.69855">
        <ele>1073.3</ele>
        <time>2022-08-29T12:12:06Z</time>
      </trkpt>
      <trkpt lat="45.94601" lon="3.69855">
        <ele>1073.3</ele>
        <time>2022-08-29T12:12:07Z</time>
      </trkpt>
      <trkpt lat="45.94602" lon="3.69855">
        <ele>1073.3</ele>
        <time>2022-08-29T12:12:08Z</time>
      </trkpt>
      <trkpt lat="45.94602" lon="3.69855">
        <ele>1073.3</ele>
        <time>2022-08-29T12:12:09Z</time>
      </trkpt>
      <trkpt lat="45.94602" lon="3.69855">
        <ele>1073.3</ele>
        <time>2022-08-29T12:12:10Z</time>
      </trkpt>
      <trkpt lat="45.94601" lon="3.69855">
        <ele>1073.3</ele>
        <time>2022-08-29T12:12:11Z</time>
      </trkpt>
      <trkpt lat="45.94601" lon="3.69855">
        <ele>1073.3</ele>
        <time>2022-08-29T12:12:12Z</time>
      </trkpt>
      <trkpt lat="45.94601" lon="3.69855">
        <ele>1073.3</ele>
        <time>2022-08-29T12:12:13Z</time>
      </trkpt>
      <trkpt lat="45.94601" lon="3.69855">
        <ele>1073.3</ele>
        <time>2022-08-29T12:12:14Z</time>
      </trkpt>
      <trkpt lat="45.94602" lon="3.69854">
        <ele>1073.2</ele>
        <time>2022-08-29T12:12:15Z</time>
      </trkpt>
      <trkpt lat="45.94602" lon="3.69853">
        <ele>1073.2</ele>
        <time>2022-08-29T12:12:16Z</time>
      </trkpt>
      <trkpt lat="45.94603" lon="3.69853">
        <ele>1073.1</ele>
        <time>2022-08-29T12:12:17Z</time>
      </trkpt>
      <trkpt lat="45.94603" lon="3.69852">
        <ele>1073.1</ele>
        <time>2022-08-29T12:12:18Z</time>
      </trkpt>
      <trkpt lat="45.94603" lon="3.69852">
        <ele>1073.1</ele>
        <time>2022-08-29T12:12:19Z</time>
      </trkpt>
      <trkpt lat="45.94604" lon="3.69851">
        <ele>1073.1</ele>
        <time>2022-08-29T12:12:20Z</time>
      </trkpt>
      <trkpt lat="45.94604" lon="3.6985">
        <ele>1073.1</ele>
        <time>2022-08-29T12:12:21Z</time>
      </trkpt>
      <trkpt lat="45.94605" lon="3.69849">
        <ele>1073.1</ele>
        <time>2022-08-29T12:12:22Z</time>
      </trkpt>
      <trkpt lat="45.94605" lon="3.69849">
        <ele>1073.1</ele>
        <time>2022-08-29T12:12:23Z</time>
      </trkpt>
      <trkpt lat="45.94605" lon="3.69849">
        <ele>1072.8</ele>
        <time>2022-08-29T12:12:24Z</time>
      </trkpt>
      <trkpt lat="45.94605" lon="3.69849">
        <ele>1072.8</ele>
        <time>2022-08-29T12:12:25Z</time>
      </trkpt>
      <trkpt lat="45.94605" lon="3.69848">
        <ele>1072.8</ele>
        <time>2022-08-29T12:12:26Z</time>
      </trkpt>
      <trkpt lat="45.94605" lon="3.69848">
        <ele>1072.8</ele>
        <time>2022-08-29T12:12:27Z</time>
      </trkpt>
      <trkpt lat="45.94605" lon="3.69848">
        <ele>1072.8</ele>
        <time>2022-08-29T12:12:28Z</time>
      </trkpt>
      <trkpt lat="45.94605" lon="3.69848">
        <ele>1072.8</ele>
        <time>2022-08-29T12:12:29Z</time>
      </trkpt>
      <trkpt lat="45.94605" lon="3.69848">
        <ele>1072.8</ele>
        <time>2022-08-29T12:12:30Z</time>
      </trkpt>
      <trkpt lat="45.94606" lon="3.69848">
        <ele>1072.8</ele>
        <time>2022-08-29T12:12:31Z</time>
      </trkpt>
      <trkpt lat="45.94606" lon="3.69848">
        <ele>1072.8</ele>
        <time>2022-08-29T12:12:32Z</time>
      </trkpt>
      <trkpt lat="45.94606" lon="3.69848">
        <ele>1072.8</ele>
        <time>2022-08-29T12:12:33Z</time>
      </trkpt>
      <trkpt lat="45.94606" lon="3.69847">
        <ele>1072.8</ele>
        <time>2022-08-29T12:12:34Z</time>
      </trkpt>
      <trkpt lat="45.94606" lon="3.69847">
        <ele>1072.8</ele>
        <time>2022-08-29T12:12:35Z</time>
      </trkpt>
      <trkpt lat="45.94606" lon="3.69847">
        <ele>1072.8</ele>
        <time>2022-08-29T12:12:36Z</time>
      </trkpt>
      <trkpt lat="45.94606" lon="3.69847">
        <ele>1072.8</ele>
        <time>2022-08-29T12:12:37Z</time>
      </trkpt>
      <trkpt lat="45.94606" lon="3.69847">
        <ele>1072.8</ele>
        <time>2022-08-29T12:12:38Z</time>
      </trkpt>
      <trkpt lat="45.94606" lon="3.69847">
        <ele>1072.8</ele>
        <time>2022-08-29T12:12:39Z</time>
      </trkpt>
      <trkpt lat="45.94606" lon="3.69847">
        <ele>1072.8</ele>
        <time>2022-08-29T12:12:40Z</time>
      </trkpt>
      <trkpt lat="45.94607" lon="3.69847">
        <ele>1072.8</ele>
        <time>2022-08-29T12:12:41Z</time>
      </trkpt>
      <trkpt lat="45.94607" lon="3.69846">
        <ele>1072.8</ele>
        <time>2022-08-29T12:12:42Z</time>
      </trkpt>
      <trkpt lat="45.94607" lon="3.69846">
        <ele>1072.8</ele>
        <time>2022-08-29T12:12:43Z</time>
      </trkpt>
      <trkpt lat="45.94608" lon="3.69846">
        <ele>1072.8</ele>
        <time>2022-08-29T12:12:44Z</time>
      </trkpt>
      <trkpt lat="45.94609" lon="3.69845">
        <ele>1072.5</ele>
        <time>2022-08-29T12:12:45Z</time>
      </trkpt>
      <trkpt lat="45.9461" lon="3.69844">
        <ele>1072.4</ele>
        <time>2022-08-29T12:12:46Z</time>
      </trkpt>
      <trkpt lat="45.94611" lon="3.69844">
        <ele>1072.4</ele>
        <time>2022-08-29T12:12:47Z</time>
      </trkpt>
      <trkpt lat="45.94611" lon="3.69843">
        <ele>1072.2</ele>
        <time>2022-08-29T12:12:48Z</time>
      </trkpt>
      <trkpt lat="45.94612" lon="3.69842">
        <ele>1072.2</ele>
        <time>2022-08-29T12:12:49Z</time>
      </trkpt>
      <trkpt lat="45.94613" lon="3.69841">
        <ele>1072.2</ele>
        <time>2022-08-29T12:12:50Z</time>
      </trkpt>
      <trkpt lat="45.94614" lon="3.69841">
        <ele>1071.9</ele>
        <time>2022-08-29T12:12:51Z</time>
      </trkpt>
      <trkpt lat="45.94615" lon="3.6984">
        <ele>1071.8</ele>
        <time>2022-08-29T12:12:52Z</time>
      </trkpt>
      <trkpt lat="45.94615" lon="3.6984">
        <ele>1071.8</ele>
        <time>2022-08-29T12:12:53Z</time>
      </trkpt>
      <trkpt lat="45.94616" lon="3.69839">
        <ele>1071.8</ele>
        <time>2022-08-29T12:12:54Z</time>
      </trkpt>
      <trkpt lat="45.94616" lon="3.69838">
        <ele>1071.8</ele>
        <time>2022-08-29T12:12:55Z</time>
      </trkpt>
      <trkpt lat="45.94617" lon="3.69838">
        <ele>1071.5</ele>
        <time>2022-08-29T12:12:56Z</time>
      </trkpt>
      <trkpt lat="45.94617" lon="3.69837">
        <ele>1071.5</ele>
        <time>2022-08-29T12:12:57Z</time>
      </trkpt>
      <trkpt lat="45.94618" lon="3.69837">
        <ele>1071.5</ele>
        <time>2022-08-29T12:12:58Z</time>
      </trkpt>
      <trkpt lat="45.94619" lon="3.69837">
        <ele>1071.5</ele>
        <time>2022-08-29T12:12:59Z</time>
      </trkpt>
      <trkpt lat="45.94619" lon="3.69837">
        <ele>1071.5</ele>
        <time>2022-08-29T12:13:00Z</time>
      </trkpt>
      <trkpt lat="45.9462" lon="3.69837">
        <ele>1071.3</ele>
        <time>2022-08-29T12:13:01Z</time>
      </trkpt>
      <trkpt lat="45.94621" lon="3.69838">
        <ele>1071.3</ele>
        <time>2022-08-29T12:13:02Z</time>
      </trkpt>
      <trkpt lat="45.94621" lon="3.69838">
        <ele>1071.3</ele>
        <time>2022-08-29T12:13:03Z</time>
      </trkpt>
      <trkpt lat="45.94622" lon="3.69838">
        <ele>1071.3</ele>
        <time>2022-08-29T12:13:04Z</time>
      </trkpt>
      <trkpt lat="45.94623" lon="3.69839">
        <ele>1071.1</ele>
        <time>2022-08-29T12:13:05Z</time>
      </trkpt>
      <trkpt lat="45.94623" lon="3.69839">
        <ele>1071.1</ele>
        <time>2022-08-29T12:13:06Z</time>
      </trkpt>
      <trkpt lat="45.94624" lon="3.69839">
        <ele>1071.1</ele>
        <time>2022-08-29T12:13:07Z</time>
      </trkpt>
      <trkpt lat="45.94625" lon="3.69839">
        <ele>1071.1</ele>
        <time>2022-08-29T12:13:08Z</time>
      </trkpt>
      <trkpt lat="45.94626" lon="3.6984">
        <ele>1071.1</ele>
        <time>2022-08-29T12:13:09Z</time>
      </trkpt>
      <trkpt lat="45.94626" lon="3.6984">
        <ele>1070.9</ele>
        <time>2022-08-29T12:13:10Z</time>
      </trkpt>
      <trkpt lat="45.94627" lon="3.6984">
        <ele>1070.9</ele>
        <time>2022-08-29T12:13:11Z</time>
      </trkpt>
      <trkpt lat="45.94628" lon="3.6984">
        <ele>1070.9</ele>
        <time>2022-08-29T12:13:12Z</time>
      </trkpt>
      <trkpt lat="45.94629" lon="3.69839">
        <ele>1070.9</ele>
        <time>2022-08-29T12:13:13Z</time>
      </trkpt>
      <trkpt lat="45.94629" lon="3.69838">
        <ele>1070.7</ele>
        <time>2022-08-29T12:13:14Z</time>
      </trkpt>
      <trkpt lat="45.9463" lon="3.69838">
        <ele>1070.7</ele>
        <time>2022-08-29T12:13:15Z</time>
      </trkpt>
      <trkpt lat="45.94631" lon="3.69837">
        <ele>1070.7</ele>
        <time>2022-08-29T12:13:16Z</time>
      </trkpt>
      <trkpt lat="45.94631" lon="3.69837">
        <ele>1070.7</ele>
        <time>2022-08-29T12:13:17Z</time>
      </trkpt>
      <trkpt lat="45.94631" lon="3.69837">
        <ele>1070.7</ele>
        <time>2022-08-29T12:13:18Z</time>
      </trkpt>
      <trkpt lat="45.94631" lon="3.69837">
        <ele>1070.7</ele>
        <time>2022-08-29T12:13:19Z</time>
      </trkpt>
      <trkpt lat="45.94631" lon="3.69837">
        <ele>1070.7</ele>
        <time>2022-08-29T12:13:20Z</time>
      </trkpt>
      <trkpt lat="45.94631" lon="3.69837">
        <ele>1070.7</ele>
        <time>2022-08-29T12:13:21Z</time>
      </trkpt>
      <trkpt lat="45.9463" lon="3.69838">
        <ele>1070.7</ele>
        <time>2022-08-29T12:13:22Z</time>
      </trkpt>
      <trkpt lat="45.9463" lon="3.69838">
        <ele>1070.7</ele>
        <time>2022-08-29T12:13:23Z</time>
      </trkpt>
      <trkpt lat="45.9463" lon="3.69839">
        <ele>1070.7</ele>
        <time>2022-08-29T12:13:24Z</time>
      </trkpt>
      <trkpt lat="45.9463" lon="3.69839">
        <ele>1070.7</ele>
        <time>2022-08-29T12:13:25Z</time>
      </trkpt>
      <trkpt lat="45.9463" lon="3.69838">
        <ele>1070.7</ele>
        <time>2022-08-29T12:13:26Z</time>
      </trkpt>
      <trkpt lat="45.9463" lon="3.69838">
        <ele>1070.7</ele>
        <time>2022-08-29T12:13:27Z</time>
      </trkpt>
      <trkpt lat="45.9463" lon="3.69838">
        <ele>1070.7</ele>
        <time>2022-08-29T12:13:28Z</time>
      </trkpt>
      <trkpt lat="45.94631" lon="3.69838">
        <ele>1070.7</ele>
        <time>2022-08-29T12:13:29Z</time>
      </trkpt>
      <trkpt lat="45.94631" lon="3.69838">
        <ele>1070.7</ele>
        <time>2022-08-29T12:13:30Z</time>
      </trkpt>
      <trkpt lat="45.94632" lon="3.69838">
        <ele>1070.5</ele>
        <time>2022-08-29T12:13:31Z</time>
      </trkpt>
      <trkpt lat="45.94632" lon="3.69838">
        <ele>1070.5</ele>
        <time>2022-08-29T12:13:32Z</time>
      </trkpt>
      <trkpt lat="45.94632" lon="3.69839">
        <ele>1070.5</ele>
        <time>2022-08-29T12:13:33Z</time>
      </trkpt>
      <trkpt lat="45.94632" lon="3.69839">
        <ele>1070.5</ele>
        <time>2022-08-29T12:13:34Z</time>
      </trkpt>
      <trkpt lat="45.94632" lon="3.69839">
        <ele>1070.5</ele>
        <time>2022-08-29T12:13:35Z</time>
      </trkpt>
      <trkpt lat="45.94632" lon="3.69839">
        <ele>1070.5</ele>
        <time>2022-08-29T12:13:36Z</time>
      </trkpt>
      <trkpt lat="45.94632" lon="3.69839">
        <ele>1070.5</ele>
        <time>2022-08-29T12:13:37Z</time>
      </trkpt>
      <trkpt lat="45.94632" lon="3.69839">
        <ele>1070.5</ele>
        <time>2022-08-29T12:13:38Z</time>
      </trkpt>
      <trkpt lat="45.94632" lon="3.69838">
        <ele>1070.5</ele>
        <time>2022-08-29T12:13:39Z</time>
      </trkpt>
      <trkpt lat="45.94632" lon="3.69838">
        <ele>1070.5</ele>
        <time>2022-08-29T12:13:40Z</time>
      </trkpt>
      <trkpt lat="45.94633" lon="3.69838">
        <ele>1070.5</ele>
        <time>2022-08-29T12:13:41Z</time>
      </trkpt>
      <trkpt lat="45.94634" lon="3.69838">
        <ele>1070.5</ele>
        <time>2022-08-29T12:13:42Z</time>
      </trkpt>
      <trkpt lat="45.94636" lon="3.69838">
        <ele>1070.2</ele>
        <time>2022-08-29T12:13:43Z</time>
      </trkpt>
      <trkpt lat="45.94637" lon="3.69838">
        <ele>1070.2</ele>
        <time>2022-08-29T12:13:44Z</time>
      </trkpt>
      <trkpt lat="45.94637" lon="3.69838">
        <ele>1070.2</ele>
        <time>2022-08-29T12:13:45Z</time>
      </trkpt>
      <trkpt lat="45.94638" lon="3.69837">
        <ele>1070</ele>
        <time>2022-08-29T12:13:46Z</time>
      </trkpt>
      <trkpt lat="45.94639" lon="3.69837">
        <ele>1070</ele>
        <time>2022-08-29T12:13:47Z</time>
      </trkpt>
      <trkpt lat="45.9464" lon="3.69837">
        <ele>1070</ele>
        <time>2022-08-29T12:13:48Z</time>
      </trkpt>
      <trkpt lat="45.94641" lon="3.69838">
        <ele>1069.8</ele>
        <time>2022-08-29T12:13:49Z</time>
      </trkpt>
      <trkpt lat="45.94642" lon="3.69838">
        <ele>1069.8</ele>
        <time>2022-08-29T12:13:50Z</time>
      </trkpt>
      <trkpt lat="45.94643" lon="3.69838">
        <ele>1069.8</ele>
        <time>2022-08-29T12:13:51Z</time>
      </trkpt>
      <trkpt lat="45.94645" lon="3.69837">
        <ele>1069.6</ele>
        <time>2022-08-29T12:13:52Z</time>
      </trkpt>
      <trkpt lat="45.94646" lon="3.69837">
        <ele>1069.6</ele>
        <time>2022-08-29T12:13:53Z</time>
      </trkpt>
      <trkpt lat="45.94647" lon="3.69837">
        <ele>1069.4</ele>
        <time>2022-08-29T12:13:54Z</time>
      </trkpt>
      <trkpt lat="45.94648" lon="3.69836">
        <ele>1069.4</ele>
        <time>2022-08-29T12:13:55Z</time>
      </trkpt>
      <trkpt lat="45.94649" lon="3.69836">
        <ele>1069.4</ele>
        <time>2022-08-29T12:13:56Z</time>
      </trkpt>
      <trkpt lat="45.9465" lon="3.69836">
        <ele>1069.2</ele>
        <time>2022-08-29T12:13:57Z</time>
      </trkpt>
      <trkpt lat="45.94651" lon="3.69836">
        <ele>1069.2</ele>
        <time>2022-08-29T12:13:58Z</time>
      </trkpt>
      <trkpt lat="45.94652" lon="3.69836">
        <ele>1069.2</ele>
        <time>2022-08-29T12:13:59Z</time>
      </trkpt>
      <trkpt lat="45.94653" lon="3.69836">
        <ele>1068.9</ele>
        <time>2022-08-29T12:14:00Z</time>
      </trkpt>
      <trkpt lat="45.94655" lon="3.69835">
        <ele>1068.8</ele>
        <time>2022-08-29T12:14:01Z</time>
      </trkpt>
      <trkpt lat="45.94656" lon="3.69835">
        <ele>1068.6</ele>
        <time>2022-08-29T12:14:02Z</time>
      </trkpt>
      <trkpt lat="45.94656" lon="3.69834">
        <ele>1068.6</ele>
        <time>2022-08-29T12:14:03Z</time>
      </trkpt>
      <trkpt lat="45.94657" lon="3.69834">
        <ele>1068.6</ele>
        <time>2022-08-29T12:14:04Z</time>
      </trkpt>
      <trkpt lat="45.94658" lon="3.69834">
        <ele>1068.6</ele>
        <time>2022-08-29T12:14:05Z</time>
      </trkpt>
      <trkpt lat="45.94658" lon="3.69834">
        <ele>1068.6</ele>
        <time>2022-08-29T12:14:06Z</time>
      </trkpt>
      <trkpt lat="45.94659" lon="3.69834">
        <ele>1068.3</ele>
        <time>2022-08-29T12:14:07Z</time>
      </trkpt>
      <trkpt lat="45.9466" lon="3.69835">
        <ele>1068.3</ele>
        <time>2022-08-29T12:14:08Z</time>
      </trkpt>
      <trkpt lat="45.9466" lon="3.69835">
        <ele>1068.3</ele>
        <time>2022-08-29T12:14:09Z</time>
      </trkpt>
      <trkpt lat="45.94661" lon="3.69835">
        <ele>1068.3</ele>
        <time>2022-08-29T12:14:10Z</time>
      </trkpt>
      <trkpt lat="45.94661" lon="3.69835">
        <ele>1068.3</ele>
        <time>2022-08-29T12:14:11Z</time>
      </trkpt>
      <trkpt lat="45.94662" lon="3.69834">
        <ele>1067.9</ele>
        <time>2022-08-29T12:14:12Z</time>
      </trkpt>
      <trkpt lat="45.94664" lon="3.69833">
        <ele>1067.9</ele>
        <time>2022-08-29T12:14:13Z</time>
      </trkpt>
      <trkpt lat="45.94665" lon="3.69833">
        <ele>1067.6</ele>
        <time>2022-08-29T12:14:14Z</time>
      </trkpt>
      <trkpt lat="45.94666" lon="3.69833">
        <ele>1067.6</ele>
        <time>2022-08-29T12:14:15Z</time>
      </trkpt>
      <trkpt lat="45.94667" lon="3.69833">
        <ele>1067.6</ele>
        <time>2022-08-29T12:14:16Z</time>
      </trkpt>
      <trkpt lat="45.94669" lon="3.69834">
        <ele>1067.2</ele>
        <time>2022-08-29T12:14:17Z</time>
      </trkpt>
      <trkpt lat="45.94671" lon="3.69835">
        <ele>1066.8</ele>
        <time>2022-08-29T12:14:18Z</time>
      </trkpt>
      <trkpt lat="45.94671" lon="3.69835">
        <ele>1066.8</ele>
        <time>2022-08-29T12:14:19Z</time>
      </trkpt>
      <trkpt lat="45.94672" lon="3.69835">
        <ele>1066.8</ele>
        <time>2022-08-29T12:14:20Z</time>
      </trkpt>
      <trkpt lat="45.94674" lon="3.69836">
        <ele>1066.6</ele>
        <time>2022-08-29T12:14:21Z</time>
      </trkpt>
      <trkpt lat="45.94675" lon="3.69837">
        <ele>1066.6</ele>
        <time>2022-08-29T12:14:22Z</time>
      </trkpt>
      <trkpt lat="45.94676" lon="3.69838">
        <ele>1066.6</ele>
        <time>2022-08-29T12:14:23Z</time>
      </trkpt>
      <trkpt lat="45.94676" lon="3.69838">
        <ele>1066.3</ele>
        <time>2022-08-29T12:14:24Z</time>
      </trkpt>
      <trkpt lat="45.94677" lon="3.69837">
        <ele>1066.3</ele>
        <time>2022-08-29T12:14:25Z</time>
      </trkpt>
      <trkpt lat="45.94677" lon="3.69837">
        <ele>1066.3</ele>
        <time>2022-08-29T12:14:26Z</time>
      </trkpt>
      <trkpt lat="45.94678" lon="3.69837">
        <ele>1066.3</ele>
        <time>2022-08-29T12:14:27Z</time>
      </trkpt>
      <trkpt lat="45.94678" lon="3.69836">
        <ele>1066.3</ele>
        <time>2022-08-29T12:14:28Z</time>
      </trkpt>
      <trkpt lat="45.94679" lon="3.69836">
        <ele>1066.1</ele>
        <time>2022-08-29T12:14:29Z</time>
      </trkpt>
      <trkpt lat="45.9468" lon="3.69835">
        <ele>1065.8</ele>
        <time>2022-08-29T12:14:30Z</time>
      </trkpt>
      <trkpt lat="45.94681" lon="3.69835">
        <ele>1065.8</ele>
        <time>2022-08-29T12:14:31Z</time>
      </trkpt>
      <trkpt lat="45.94681" lon="3.69834">
        <ele>1065.8</ele>
        <time>2022-08-29T12:14:32Z</time>
      </trkpt>
      <trkpt lat="45.94681" lon="3.69834">
        <ele>1065.8</ele>
        <time>2022-08-29T12:14:33Z</time>
      </trkpt>
      <trkpt lat="45.94682" lon="3.69834">
        <ele>1065.8</ele>
        <time>2022-08-29T12:14:34Z</time>
      </trkpt>
      <trkpt lat="45.94682" lon="3.69834">
        <ele>1065.8</ele>
        <time>2022-08-29T12:14:35Z</time>
      </trkpt>
      <trkpt lat="45.94682" lon="3.69834">
        <ele>1065.8</ele>
        <time>2022-08-29T12:14:36Z</time>
      </trkpt>
      <trkpt lat="45.94682" lon="3.69834">
        <ele>1065.8</ele>
        <time>2022-08-29T12:14:37Z</time>
      </trkpt>
      <trkpt lat="45.94682" lon="3.69834">
        <ele>1065.4</ele>
        <time>2022-08-29T12:14:38Z</time>
      </trkpt>
      <trkpt lat="45.94683" lon="3.69834">
        <ele>1065.4</ele>
        <time>2022-08-29T12:14:39Z</time>
      </trkpt>
      <trkpt lat="45.94683" lon="3.69834">
        <ele>1065.4</ele>
        <time>2022-08-29T12:14:40Z</time>
      </trkpt>
      <trkpt lat="45.94684" lon="3.69833">
        <ele>1065.4</ele>
        <time>2022-08-29T12:14:41Z</time>
      </trkpt>
      <trkpt lat="45.94685" lon="3.69833">
        <ele>1065.4</ele>
        <time>2022-08-29T12:14:42Z</time>
      </trkpt>
      <trkpt lat="45.94685" lon="3.69833">
        <ele>1065.4</ele>
        <time>2022-08-29T12:14:43Z</time>
      </trkpt>
      <trkpt lat="45.94686" lon="3.69832">
        <ele>1065.1</ele>
        <time>2022-08-29T12:14:44Z</time>
      </trkpt>
      <trkpt lat="45.94687" lon="3.69832">
        <ele>1065.1</ele>
        <time>2022-08-29T12:14:45Z</time>
      </trkpt>
      <trkpt lat="45.94687" lon="3.69832">
        <ele>1064.9</ele>
        <time>2022-08-29T12:14:46Z</time>
      </trkpt>
      <trkpt lat="45.94688" lon="3.69831">
        <ele>1064.9</ele>
        <time>2022-08-29T12:14:47Z</time>
      </trkpt>
      <trkpt lat="45.94689" lon="3.6983">
        <ele>1064.5</ele>
        <time>2022-08-29T12:14:48Z</time>
      </trkpt>
      <trkpt lat="45.94689" lon="3.69829">
        <ele>1064.5</ele>
        <time>2022-08-29T12:14:49Z</time>
      </trkpt>
      <trkpt lat="45.9469" lon="3.69829">
        <ele>1064.5</ele>
        <time>2022-08-29T12:14:50Z</time>
      </trkpt>
      <trkpt lat="45.94691" lon="3.69828">
        <ele>1064.1</ele>
        <time>2022-08-29T12:14:51Z</time>
      </trkpt>
      <trkpt lat="45.94693" lon="3.69828">
        <ele>1064.1</ele>
        <time>2022-08-29T12:14:52Z</time>
      </trkpt>
      <trkpt lat="45.94694" lon="3.69827">
        <ele>1064.1</ele>
        <time>2022-08-29T12:14:53Z</time>
      </trkpt>
      <trkpt lat="45.94695" lon="3.69827">
        <ele>1063.3</ele>
        <time>2022-08-29T12:14:54Z</time>
      </trkpt>
      <trkpt lat="45.94696" lon="3.69827">
        <ele>1063.3</ele>
        <time>2022-08-29T12:14:55Z</time>
      </trkpt>
      <trkpt lat="45.94696" lon="3.69826">
        <ele>1063.3</ele>
        <time>2022-08-29T12:14:56Z</time>
      </trkpt>
      <trkpt lat="45.94697" lon="3.69826">
        <ele>1063.3</ele>
        <time>2022-08-29T12:14:57Z</time>
      </trkpt>
      <trkpt lat="45.94698" lon="3.69826">
        <ele>1062.9</ele>
        <time>2022-08-29T12:14:58Z</time>
      </trkpt>
      <trkpt lat="45.94698" lon="3.69826">
        <ele>1062.9</ele>
        <time>2022-08-29T12:14:59Z</time>
      </trkpt>
      <trkpt lat="45.94699" lon="3.69826">
        <ele>1062.9</ele>
        <time>2022-08-29T12:15:00Z</time>
      </trkpt>
      <trkpt lat="45.94699" lon="3.69826">
        <ele>1062.9</ele>
        <time>2022-08-29T12:15:01Z</time>
      </trkpt>
      <trkpt lat="45.94699" lon="3.69825">
        <ele>1062.9</ele>
        <time>2022-08-29T12:15:02Z</time>
      </trkpt>
      <trkpt lat="45.94699" lon="3.69825">
        <ele>1062.9</ele>
        <time>2022-08-29T12:15:03Z</time>
      </trkpt>
      <trkpt lat="45.94699" lon="3.69824">
        <ele>1062.9</ele>
        <time>2022-08-29T12:15:04Z</time>
      </trkpt>
      <trkpt lat="45.94699" lon="3.69823">
        <ele>1062.9</ele>
        <time>2022-08-29T12:15:05Z</time>
      </trkpt>
      <trkpt lat="45.947" lon="3.69823">
        <ele>1062.5</ele>
        <time>2022-08-29T12:15:06Z</time>
      </trkpt>
      <trkpt lat="45.947" lon="3.69822">
        <ele>1062.5</ele>
        <time>2022-08-29T12:15:07Z</time>
      </trkpt>
      <trkpt lat="45.94701" lon="3.69821">
        <ele>1062</ele>
        <time>2022-08-29T12:15:08Z</time>
      </trkpt>
      <trkpt lat="45.94701" lon="3.69821">
        <ele>1062</ele>
        <time>2022-08-29T12:15:09Z</time>
      </trkpt>
      <trkpt lat="45.94701" lon="3.6982">
        <ele>1062</ele>
        <time>2022-08-29T12:15:10Z</time>
      </trkpt>
      <trkpt lat="45.947" lon="3.69819">
        <ele>1062</ele>
        <time>2022-08-29T12:15:11Z</time>
      </trkpt>
      <trkpt lat="45.947" lon="3.69819">
        <ele>1062.5</ele>
        <time>2022-08-29T12:15:12Z</time>
      </trkpt>
      <trkpt lat="45.947" lon="3.69818">
        <ele>1062.1</ele>
        <time>2022-08-29T12:15:13Z</time>
      </trkpt>
      <trkpt lat="45.947" lon="3.69818">
        <ele>1062.1</ele>
        <time>2022-08-29T12:15:14Z</time>
      </trkpt>
      <trkpt lat="45.947" lon="3.69817">
        <ele>1062.1</ele>
        <time>2022-08-29T12:15:15Z</time>
      </trkpt>
      <trkpt lat="45.947" lon="3.69817">
        <ele>1061.6</ele>
        <time>2022-08-29T12:15:16Z</time>
      </trkpt>
      <trkpt lat="45.94701" lon="3.69816">
        <ele>1061.6</ele>
        <time>2022-08-29T12:15:17Z</time>
      </trkpt>
      <trkpt lat="45.94701" lon="3.69816">
        <ele>1061.6</ele>
        <time>2022-08-29T12:15:18Z</time>
      </trkpt>
      <trkpt lat="45.94701" lon="3.69816">
        <ele>1061.6</ele>
        <time>2022-08-29T12:15:19Z</time>
      </trkpt>
      <trkpt lat="45.94701" lon="3.69816">
        <ele>1061.6</ele>
        <time>2022-08-29T12:15:20Z</time>
      </trkpt>
      <trkpt lat="45.94701" lon="3.69816">
        <ele>1061.6</ele>
        <time>2022-08-29T12:15:21Z</time>
      </trkpt>
      <trkpt lat="45.94701" lon="3.69816">
        <ele>1061.6</ele>
        <time>2022-08-29T12:15:22Z</time>
      </trkpt>
      <trkpt lat="45.94702" lon="3.69816">
        <ele>1061.6</ele>
        <time>2022-08-29T12:15:23Z</time>
      </trkpt>
      <trkpt lat="45.94702" lon="3.69816">
        <ele>1061.6</ele>
        <time>2022-08-29T12:15:24Z</time>
      </trkpt>
      <trkpt lat="45.94702" lon="3.69816">
        <ele>1061.6</ele>
        <time>2022-08-29T12:15:25Z</time>
      </trkpt>
      <trkpt lat="45.94702" lon="3.69816">
        <ele>1061.6</ele>
        <time>2022-08-29T12:15:26Z</time>
      </trkpt>
      <trkpt lat="45.94702" lon="3.69816">
        <ele>1061.6</ele>
        <time>2022-08-29T12:15:27Z</time>
      </trkpt>
      <trkpt lat="45.94702" lon="3.69816">
        <ele>1061.6</ele>
        <time>2022-08-29T12:15:28Z</time>
      </trkpt>
      <trkpt lat="45.94702" lon="3.69816">
        <ele>1061.6</ele>
        <time>2022-08-29T12:15:29Z</time>
      </trkpt>
      <trkpt lat="45.94702" lon="3.69816">
        <ele>1061.6</ele>
        <time>2022-08-29T12:15:30Z</time>
      </trkpt>
      <trkpt lat="45.94702" lon="3.69816">
        <ele>1061.6</ele>
        <time>2022-08-29T12:15:31Z</time>
      </trkpt>
      <trkpt lat="45.94702" lon="3.69816">
        <ele>1061.6</ele>
        <time>2022-08-29T12:15:32Z</time>
      </trkpt>
      <trkpt lat="45.94702" lon="3.69816">
        <ele>1061.6</ele>
        <time>2022-08-29T12:15:33Z</time>
      </trkpt>
      <trkpt lat="45.94702" lon="3.69816">
        <ele>1061.6</ele>
        <time>2022-08-29T12:15:34Z</time>
      </trkpt>
      <trkpt lat="45.94702" lon="3.69816">
        <ele>1061.6</ele>
        <time>2022-08-29T12:15:35Z</time>
      </trkpt>
      <trkpt lat="45.94702" lon="3.69816">
        <ele>1061.6</ele>
        <time>2022-08-29T12:15:36Z</time>
      </trkpt>
      <trkpt lat="45.94702" lon="3.69816">
        <ele>1061.6</ele>
        <time>2022-08-29T12:15:37Z</time>
      </trkpt>
      <trkpt lat="45.94702" lon="3.69816">
        <ele>1061.6</ele>
        <time>2022-08-29T12:15:38Z</time>
      </trkpt>
      <trkpt lat="45.94703" lon="3.69815">
        <ele>1061.6</ele>
        <time>2022-08-29T12:15:39Z</time>
      </trkpt>
      <trkpt lat="45.94704" lon="3.69815">
        <ele>1061.1</ele>
        <time>2022-08-29T12:15:40Z</time>
      </trkpt>
      <trkpt lat="45.94705" lon="3.69814">
        <ele>1060.7</ele>
        <time>2022-08-29T12:15:41Z</time>
      </trkpt>
      <trkpt lat="45.94706" lon="3.69814">
        <ele>1060.7</ele>
        <time>2022-08-29T12:15:42Z</time>
      </trkpt>
      <trkpt lat="45.94708" lon="3.69813">
        <ele>1060.1</ele>
        <time>2022-08-29T12:15:43Z</time>
      </trkpt>
      <trkpt lat="45.94709" lon="3.69812">
        <ele>1060.1</ele>
        <time>2022-08-29T12:15:44Z</time>
      </trkpt>
      <trkpt lat="45.9471" lon="3.69812">
        <ele>1059.6</ele>
        <time>2022-08-29T12:15:45Z</time>
      </trkpt>
      <trkpt lat="45.94711" lon="3.69811">
        <ele>1059.6</ele>
        <time>2022-08-29T12:15:46Z</time>
      </trkpt>
      <trkpt lat="45.94713" lon="3.6981">
        <ele>1059</ele>
        <time>2022-08-29T12:15:47Z</time>
      </trkpt>
      <trkpt lat="45.94714" lon="3.6981">
        <ele>1058.6</ele>
        <time>2022-08-29T12:15:48Z</time>
      </trkpt>
      <trkpt lat="45.94715" lon="3.69809">
        <ele>1058.6</ele>
        <time>2022-08-29T12:15:49Z</time>
      </trkpt>
      <trkpt lat="45.94716" lon="3.69809">
        <ele>1057.9</ele>
        <time>2022-08-29T12:15:50Z</time>
      </trkpt>
      <trkpt lat="45.94716" lon="3.69807">
        <ele>1057.9</ele>
        <time>2022-08-29T12:15:51Z</time>
      </trkpt>
      <trkpt lat="45.94716" lon="3.69806">
        <ele>1057.9</ele>
        <time>2022-08-29T12:15:52Z</time>
      </trkpt>
      <trkpt lat="45.94717" lon="3.69804">
        <ele>1057.5</ele>
        <time>2022-08-29T12:15:53Z</time>
      </trkpt>
      <trkpt lat="45.94717" lon="3.69797">
        <ele>1057</ele>
        <time>2022-08-29T12:15:54Z</time>
      </trkpt>
      <trkpt lat="45.94717" lon="3.69795">
        <ele>1056.6</ele>
        <time>2022-08-29T12:15:55Z</time>
      </trkpt>
      <trkpt lat="45.94718" lon="3.69791">
        <ele>1055.4</ele>
        <time>2022-08-29T12:15:56Z</time>
      </trkpt>
      <trkpt lat="45.94719" lon="3.69786">
        <ele>1055</ele>
        <time>2022-08-29T12:15:57Z</time>
      </trkpt>
      <trkpt lat="45.94719" lon="3.69785">
        <ele>1055</ele>
        <time>2022-08-29T12:15:58Z</time>
      </trkpt>
      <trkpt lat="45.94719" lon="3.69784">
        <ele>1054.5</ele>
        <time>2022-08-29T12:15:59Z</time>
      </trkpt>
      <trkpt lat="45.94719" lon="3.69785">
        <ele>1055</ele>
        <time>2022-08-29T12:16:00Z</time>
      </trkpt>
      <trkpt lat="45.9472" lon="3.69785">
        <ele>1055</ele>
        <time>2022-08-29T12:16:01Z</time>
      </trkpt>
      <trkpt lat="45.9472" lon="3.69786">
        <ele>1055</ele>
        <time>2022-08-29T12:16:02Z</time>
      </trkpt>
      <trkpt lat="45.9472" lon="3.69787">
        <ele>1055</ele>
        <time>2022-08-29T12:16:03Z</time>
      </trkpt>
      <trkpt lat="45.9472" lon="3.69788">
        <ele>1055</ele>
        <time>2022-08-29T12:16:04Z</time>
      </trkpt>
      <trkpt lat="45.9472" lon="3.69789">
        <ele>1055.4</ele>
        <time>2022-08-29T12:16:05Z</time>
      </trkpt>
      <trkpt lat="45.9472" lon="3.6979">
        <ele>1055.4</ele>
        <time>2022-08-29T12:16:06Z</time>
      </trkpt>
      <trkpt lat="45.94721" lon="3.69791">
        <ele>1055.4</ele>
        <time>2022-08-29T12:16:07Z</time>
      </trkpt>
      <trkpt lat="45.94721" lon="3.69791">
        <ele>1055.4</ele>
        <time>2022-08-29T12:16:08Z</time>
      </trkpt>
      <trkpt lat="45.94723" lon="3.69795">
        <ele>1055.1</ele>
        <time>2022-08-29T12:16:09Z</time>
      </trkpt>
      <trkpt lat="45.94725" lon="3.69798">
        <ele>1054.8</ele>
        <time>2022-08-29T12:16:10Z</time>
      </trkpt>
      <trkpt lat="45.94728" lon="3.698">
        <ele>1054.1</ele>
        <time>2022-08-29T12:16:11Z</time>
      </trkpt>
      <trkpt lat="45.94731" lon="3.69803">
        <ele>1054</ele>
        <time>2022-08-29T12:16:12Z</time>
      </trkpt>
      <trkpt lat="45.94732" lon="3.69804">
        <ele>1054</ele>
        <time>2022-08-29T12:16:13Z</time>
      </trkpt>
      <trkpt lat="45.94733" lon="3.69806">
        <ele>1054</ele>
        <time>2022-08-29T12:16:14Z</time>
      </trkpt>
      <trkpt lat="45.94733" lon="3.69807">
        <ele>1053.8</ele>
        <time>2022-08-29T12:16:15Z</time>
      </trkpt>
      <trkpt lat="45.94733" lon="3.69808">
        <ele>1053.8</ele>
        <time>2022-08-29T12:16:16Z</time>
      </trkpt>
      <trkpt lat="45.94733" lon="3.69809">
        <ele>1053.8</ele>
        <time>2022-08-29T12:16:17Z</time>
      </trkpt>
      <trkpt lat="45.94733" lon="3.6981">
        <ele>1054.4</ele>
        <time>2022-08-29T12:16:18Z</time>
      </trkpt>
      <trkpt lat="45.94733" lon="3.6981">
        <ele>1054.9</ele>
        <time>2022-08-29T12:16:19Z</time>
      </trkpt>
      <trkpt lat="45.94733" lon="3.69811">
        <ele>1054.9</ele>
        <time>2022-08-29T12:16:20Z</time>
      </trkpt>
      <trkpt lat="45.94732" lon="3.6981">
        <ele>1054.9</ele>
        <time>2022-08-29T12:16:21Z</time>
      </trkpt>
      <trkpt lat="45.94732" lon="3.6981">
        <ele>1054.4</ele>
        <time>2022-08-29T12:16:22Z</time>
      </trkpt>
      <trkpt lat="45.94732" lon="3.69809">
        <ele>1054.4</ele>
        <time>2022-08-29T12:16:23Z</time>
      </trkpt>
      <trkpt lat="45.94732" lon="3.69809">
        <ele>1054.4</ele>
        <time>2022-08-29T12:16:24Z</time>
      </trkpt>
      <trkpt lat="45.94732" lon="3.69808">
        <ele>1054.4</ele>
        <time>2022-08-29T12:16:25Z</time>
      </trkpt>
      <trkpt lat="45.94732" lon="3.69807">
        <ele>1054.4</ele>
        <time>2022-08-29T12:16:26Z</time>
      </trkpt>
      <trkpt lat="45.94732" lon="3.69806">
        <ele>1054.4</ele>
        <time>2022-08-29T12:16:27Z</time>
      </trkpt>
      <trkpt lat="45.94732" lon="3.69805">
        <ele>1054</ele>
        <time>2022-08-29T12:16:28Z</time>
      </trkpt>
      <trkpt lat="45.94732" lon="3.69805">
        <ele>1054</ele>
        <time>2022-08-29T12:16:29Z</time>
      </trkpt>
      <trkpt lat="45.94732" lon="3.69805">
        <ele>1054</ele>
        <time>2022-08-29T12:16:30Z</time>
      </trkpt>
      <trkpt lat="45.94732" lon="3.69805">
        <ele>1054</ele>
        <time>2022-08-29T12:16:31Z</time>
      </trkpt>
      <trkpt lat="45.94733" lon="3.69806">
        <ele>1054</ele>
        <time>2022-08-29T12:16:32Z</time>
      </trkpt>
      <trkpt lat="45.94733" lon="3.69806">
        <ele>1054.4</ele>
        <time>2022-08-29T12:16:33Z</time>
      </trkpt>
      <trkpt lat="45.94733" lon="3.69807">
        <ele>1054.4</ele>
        <time>2022-08-29T12:16:34Z</time>
      </trkpt>
      <trkpt lat="45.94733" lon="3.69806">
        <ele>1054.4</ele>
        <time>2022-08-29T12:16:35Z</time>
      </trkpt>
      <trkpt lat="45.94733" lon="3.69806">
        <ele>1054.4</ele>
        <time>2022-08-29T12:16:36Z</time>
      </trkpt>
      <trkpt lat="45.94733" lon="3.69805">
        <ele>1054</ele>
        <time>2022-08-29T12:16:37Z</time>
      </trkpt>
      <trkpt lat="45.94733" lon="3.69804">
        <ele>1054</ele>
        <time>2022-08-29T12:16:38Z</time>
      </trkpt>
      <trkpt lat="45.94733" lon="3.69803">
        <ele>1054</ele>
        <time>2022-08-29T12:16:39Z</time>
      </trkpt>
      <trkpt lat="45.94733" lon="3.69803">
        <ele>1054</ele>
        <time>2022-08-29T12:16:40Z</time>
      </trkpt>
      <trkpt lat="45.94733" lon="3.69803">
        <ele>1054</ele>
        <time>2022-08-29T12:16:41Z</time>
      </trkpt>
      <trkpt lat="45.94733" lon="3.69802">
        <ele>1054</ele>
        <time>2022-08-29T12:16:42Z</time>
      </trkpt>
      <trkpt lat="45.94733" lon="3.69801">
        <ele>1053.5</ele>
        <time>2022-08-29T12:16:43Z</time>
      </trkpt>
      <trkpt lat="45.94733" lon="3.698">
        <ele>1053.5</ele>
        <time>2022-08-29T12:16:44Z</time>
      </trkpt>
      <trkpt lat="45.94733" lon="3.698">
        <ele>1053.5</ele>
        <time>2022-08-29T12:16:45Z</time>
      </trkpt>
      <trkpt lat="45.94733" lon="3.69799">
        <ele>1053.5</ele>
        <time>2022-08-29T12:16:46Z</time>
      </trkpt>
      <trkpt lat="45.94733" lon="3.69798">
        <ele>1053.5</ele>
        <time>2022-08-29T12:16:47Z</time>
      </trkpt>
      <trkpt lat="45.94733" lon="3.69797">
        <ele>1053</ele>
        <time>2022-08-29T12:16:48Z</time>
      </trkpt>
      <trkpt lat="45.94733" lon="3.69797">
        <ele>1053</ele>
        <time>2022-08-29T12:16:49Z</time>
      </trkpt>
      <trkpt lat="45.94733" lon="3.69797">
        <ele>1053</ele>
        <time>2022-08-29T12:16:50Z</time>
      </trkpt>
      <trkpt lat="45.94733" lon="3.69796">
        <ele>1053</ele>
        <time>2022-08-29T12:16:51Z</time>
      </trkpt>
      <trkpt lat="45.94733" lon="3.69796">
        <ele>1053</ele>
        <time>2022-08-29T12:16:52Z</time>
      </trkpt>
      <trkpt lat="45.94733" lon="3.69796">
        <ele>1053</ele>
        <time>2022-08-29T12:16:53Z</time>
      </trkpt>
      <trkpt lat="45.94733" lon="3.69797">
        <ele>1053</ele>
        <time>2022-08-29T12:16:55Z</time>
      </trkpt>
      <trkpt lat="45.94733" lon="3.69797">
        <ele>1053</ele>
        <time>2022-08-29T12:16:56Z</time>
      </trkpt>
      <trkpt lat="45.94733" lon="3.69797">
        <ele>1053</ele>
        <time>2022-08-29T12:16:57Z</time>
      </trkpt>
      <trkpt lat="45.94733" lon="3.69797">
        <ele>1053</ele>
        <time>2022-08-29T12:16:58Z</time>
      </trkpt>
      <trkpt lat="45.94733" lon="3.69797">
        <ele>1053</ele>
        <time>2022-08-29T12:16:59Z</time>
      </trkpt>
      <trkpt lat="45.94733" lon="3.69797">
        <ele>1053</ele>
        <time>2022-08-29T12:17:00Z</time>
      </trkpt>
      <trkpt lat="45.94733" lon="3.69797">
        <ele>1053</ele>
        <time>2022-08-29T12:17:01Z</time>
      </trkpt>
      <trkpt lat="45.94733" lon="3.69797">
        <ele>1053</ele>
        <time>2022-08-29T12:17:02Z</time>
      </trkpt>
      <trkpt lat="45.94733" lon="3.69797">
        <ele>1053</ele>
        <time>2022-08-29T12:17:03Z</time>
      </trkpt>
      <trkpt lat="45.94733" lon="3.69797">
        <ele>1053</ele>
        <time>2022-08-29T12:17:04Z</time>
      </trkpt>
      <trkpt lat="45.94733" lon="3.69797">
        <ele>1053</ele>
        <time>2022-08-29T12:17:05Z</time>
      </trkpt>
      <trkpt lat="45.94733" lon="3.69797">
        <ele>1053</ele>
        <time>2022-08-29T12:17:06Z</time>
      </trkpt>
      <trkpt lat="45.94733" lon="3.69797">
        <ele>1053</ele>
        <time>2022-08-29T12:17:07Z</time>
      </trkpt>
      <trkpt lat="45.94733" lon="3.69797">
        <ele>1053</ele>
        <time>2022-08-29T12:17:08Z</time>
      </trkpt>
      <trkpt lat="45.94733" lon="3.69797">
        <ele>1053</ele>
        <time>2022-08-29T12:17:09Z</time>
      </trkpt>
      <trkpt lat="45.94733" lon="3.69797">
        <ele>1053</ele>
        <time>2022-08-29T12:17:10Z</time>
      </trkpt>
      <trkpt lat="45.94733" lon="3.69797">
        <ele>1053</ele>
        <time>2022-08-29T12:17:11Z</time>
      </trkpt>
      <trkpt lat="45.94733" lon="3.69797">
        <ele>1053</ele>
        <time>2022-08-29T12:17:12Z</time>
      </trkpt>
      <trkpt lat="45.94733" lon="3.69797">
        <ele>1053</ele>
        <time>2022-08-29T12:17:13Z</time>
      </trkpt>
      <trkpt lat="45.94733" lon="3.69797">
        <ele>1053</ele>
        <time>2022-08-29T12:17:14Z</time>
      </trkpt>
      <trkpt lat="45.94733" lon="3.69797">
        <ele>1053</ele>
        <time>2022-08-29T12:17:15Z</time>
      </trkpt>
      <trkpt lat="45.94734" lon="3.69796">
        <ele>1052.4</ele>
        <time>2022-08-29T12:17:16Z</time>
      </trkpt>
      <trkpt lat="45.94735" lon="3.69796">
        <ele>1052.4</ele>
        <time>2022-08-29T12:17:17Z</time>
      </trkpt>
      <trkpt lat="45.94735" lon="3.69796">
        <ele>1052.4</ele>
        <time>2022-08-29T12:17:18Z</time>
      </trkpt>
      <trkpt lat="45.94736" lon="3.69795">
        <ele>1052.4</ele>
        <time>2022-08-29T12:17:19Z</time>
      </trkpt>
      <trkpt lat="45.94736" lon="3.69794">
        <ele>1051.8</ele>
        <time>2022-08-29T12:17:20Z</time>
      </trkpt>
      <trkpt lat="45.94737" lon="3.69793">
        <ele>1051.8</ele>
        <time>2022-08-29T12:17:21Z</time>
      </trkpt>
      <trkpt lat="45.94739" lon="3.69791">
        <ele>1051.3</ele>
        <time>2022-08-29T12:17:22Z</time>
      </trkpt>
      <trkpt lat="45.9474" lon="3.6979">
        <ele>1050.7</ele>
        <time>2022-08-29T12:17:23Z</time>
      </trkpt>
      <trkpt lat="45.9474" lon="3.69789">
        <ele>1050.7</ele>
        <time>2022-08-29T12:17:24Z</time>
      </trkpt>
      <trkpt lat="45.94741" lon="3.69787">
        <ele>1050.2</ele>
        <time>2022-08-29T12:17:25Z</time>
      </trkpt>
      <trkpt lat="45.94742" lon="3.69786">
        <ele>1049.5</ele>
        <time>2022-08-29T12:17:26Z</time>
      </trkpt>
      <trkpt lat="45.94743" lon="3.69785">
        <ele>1049.5</ele>
        <time>2022-08-29T12:17:27Z</time>
      </trkpt>
      <trkpt lat="45.94744" lon="3.69784">
        <ele>1049.5</ele>
        <time>2022-08-29T12:17:28Z</time>
      </trkpt>
      <trkpt lat="45.94745" lon="3.69784">
        <ele>1048.9</ele>
        <time>2022-08-29T12:17:29Z</time>
      </trkpt>
      <trkpt lat="45.94747" lon="3.69782">
        <ele>1048.2</ele>
        <time>2022-08-29T12:17:30Z</time>
      </trkpt>
      <trkpt lat="45.94747" lon="3.69781">
        <ele>1048.2</ele>
        <time>2022-08-29T12:17:31Z</time>
      </trkpt>
      <trkpt lat="45.94748" lon="3.6978">
        <ele>1047.6</ele>
        <time>2022-08-29T12:17:32Z</time>
      </trkpt>
      <trkpt lat="45.94749" lon="3.69779">
        <ele>1046.9</ele>
        <time>2022-08-29T12:17:33Z</time>
      </trkpt>
      <trkpt lat="45.9475" lon="3.69778">
        <ele>1046.9</ele>
        <time>2022-08-29T12:17:34Z</time>
      </trkpt>
      <trkpt lat="45.9475" lon="3.69778">
        <ele>1046.9</ele>
        <time>2022-08-29T12:17:35Z</time>
      </trkpt>
      <trkpt lat="45.94751" lon="3.69777">
        <ele>1046.9</ele>
        <time>2022-08-29T12:17:36Z</time>
      </trkpt>
      <trkpt lat="45.94751" lon="3.69776">
        <ele>1046.3</ele>
        <time>2022-08-29T12:17:37Z</time>
      </trkpt>
      <trkpt lat="45.94752" lon="3.69775">
        <ele>1045.6</ele>
        <time>2022-08-29T12:17:38Z</time>
      </trkpt>
      <trkpt lat="45.94753" lon="3.69774">
        <ele>1045.6</ele>
        <time>2022-08-29T12:17:39Z</time>
      </trkpt>
      <trkpt lat="45.94754" lon="3.69773">
        <ele>1045.6</ele>
        <time>2022-08-29T12:17:40Z</time>
      </trkpt>
      <trkpt lat="45.94754" lon="3.69772">
        <ele>1045</ele>
        <time>2022-08-29T12:17:41Z</time>
      </trkpt>
      <trkpt lat="45.94755" lon="3.69771">
        <ele>1044.3</ele>
        <time>2022-08-29T12:17:42Z</time>
      </trkpt>
      <trkpt lat="45.94755" lon="3.69771">
        <ele>1044.3</ele>
        <time>2022-08-29T12:17:43Z</time>
      </trkpt>
      <trkpt lat="45.94756" lon="3.69771">
        <ele>1044.3</ele>
        <time>2022-08-29T12:17:44Z</time>
      </trkpt>
      <trkpt lat="45.94756" lon="3.69771">
        <ele>1044.3</ele>
        <time>2022-08-29T12:17:45Z</time>
      </trkpt>
      <trkpt lat="45.94757" lon="3.69771">
        <ele>1044.3</ele>
        <time>2022-08-29T12:17:46Z</time>
      </trkpt>
      <trkpt lat="45.94757" lon="3.69771">
        <ele>1043.7</ele>
        <time>2022-08-29T12:17:47Z</time>
      </trkpt>
      <trkpt lat="45.94758" lon="3.69771">
        <ele>1043.7</ele>
        <time>2022-08-29T12:17:48Z</time>
      </trkpt>
      <trkpt lat="45.94758" lon="3.69771">
        <ele>1043.7</ele>
        <time>2022-08-29T12:17:49Z</time>
      </trkpt>
      <trkpt lat="45.94758" lon="3.6977">
        <ele>1043.7</ele>
        <time>2022-08-29T12:17:50Z</time>
      </trkpt>
      <trkpt lat="45.94758" lon="3.6977">
        <ele>1043.7</ele>
        <time>2022-08-29T12:17:51Z</time>
      </trkpt>
      <trkpt lat="45.94757" lon="3.6977">
        <ele>1043.7</ele>
        <time>2022-08-29T12:17:52Z</time>
      </trkpt>
      <trkpt lat="45.94757" lon="3.69769">
        <ele>1043.7</ele>
        <time>2022-08-29T12:17:53Z</time>
      </trkpt>
      <trkpt lat="45.94757" lon="3.69769">
        <ele>1043.7</ele>
        <time>2022-08-29T12:17:54Z</time>
      </trkpt>
      <trkpt lat="45.94758" lon="3.69768">
        <ele>1043.7</ele>
        <time>2022-08-29T12:17:55Z</time>
      </trkpt>
      <trkpt lat="45.94758" lon="3.69767">
        <ele>1043.1</ele>
        <time>2022-08-29T12:17:56Z</time>
      </trkpt>
      <trkpt lat="45.94758" lon="3.69766">
        <ele>1043.1</ele>
        <time>2022-08-29T12:17:57Z</time>
      </trkpt>
      <trkpt lat="45.94759" lon="3.69766">
        <ele>1043.1</ele>
        <time>2022-08-29T12:17:58Z</time>
      </trkpt>
      <trkpt lat="45.94759" lon="3.69765">
        <ele>1043.1</ele>
        <time>2022-08-29T12:17:59Z</time>
      </trkpt>
      <trkpt lat="45.94759" lon="3.69765">
        <ele>1043.1</ele>
        <time>2022-08-29T12:18:00Z</time>
      </trkpt>
      <trkpt lat="45.9476" lon="3.69765">
        <ele>1043.1</ele>
        <time>2022-08-29T12:18:01Z</time>
      </trkpt>
      <trkpt lat="45.9476" lon="3.69765">
        <ele>1042.5</ele>
        <time>2022-08-29T12:18:02Z</time>
      </trkpt>
      <trkpt lat="45.9476" lon="3.69765">
        <ele>1042.5</ele>
        <time>2022-08-29T12:18:03Z</time>
      </trkpt>
      <trkpt lat="45.9476" lon="3.69764">
        <ele>1042.5</ele>
        <time>2022-08-29T12:18:04Z</time>
      </trkpt>
      <trkpt lat="45.94761" lon="3.69764">
        <ele>1042.5</ele>
        <time>2022-08-29T12:18:05Z</time>
      </trkpt>
      <trkpt lat="45.94761" lon="3.69764">
        <ele>1042.5</ele>
        <time>2022-08-29T12:18:06Z</time>
      </trkpt>
      <trkpt lat="45.94761" lon="3.69764">
        <ele>1042.5</ele>
        <time>2022-08-29T12:18:07Z</time>
      </trkpt>
      <trkpt lat="45.94761" lon="3.69764">
        <ele>1042.5</ele>
        <time>2022-08-29T12:18:08Z</time>
      </trkpt>
      <trkpt lat="45.94762" lon="3.69763">
        <ele>1042.5</ele>
        <time>2022-08-29T12:18:09Z</time>
      </trkpt>
      <trkpt lat="45.94762" lon="3.69763">
        <ele>1042.5</ele>
        <time>2022-08-29T12:18:10Z</time>
      </trkpt>
      <trkpt lat="45.94765" lon="3.6976">
        <ele>1041.2</ele>
        <time>2022-08-29T12:18:11Z</time>
      </trkpt>
      <trkpt lat="45.94766" lon="3.69759">
        <ele>1041.2</ele>
        <time>2022-08-29T12:18:12Z</time>
      </trkpt>
      <trkpt lat="45.94769" lon="3.69756">
        <ele>1040</ele>
        <time>2022-08-29T12:18:13Z</time>
      </trkpt>
      <trkpt lat="45.9477" lon="3.69755">
        <ele>1039.4</ele>
        <time>2022-08-29T12:18:14Z</time>
      </trkpt>
      <trkpt lat="45.94771" lon="3.69754">
        <ele>1038.8</ele>
        <time>2022-08-29T12:18:15Z</time>
      </trkpt>
      <trkpt lat="45.94773" lon="3.69753">
        <ele>1038.2</ele>
        <time>2022-08-29T12:18:16Z</time>
      </trkpt>
      <trkpt lat="45.94774" lon="3.69752">
        <ele>1038.2</ele>
        <time>2022-08-29T12:18:17Z</time>
      </trkpt>
      <trkpt lat="45.94776" lon="3.69751">
        <ele>1037.6</ele>
        <time>2022-08-29T12:18:18Z</time>
      </trkpt>
      <trkpt lat="45.94779" lon="3.69749">
        <ele>1036.2</ele>
        <time>2022-08-29T12:18:19Z</time>
      </trkpt>
      <trkpt lat="45.9478" lon="3.69749">
        <ele>1036.2</ele>
        <time>2022-08-29T12:18:20Z</time>
      </trkpt>
      <trkpt lat="45.94782" lon="3.69748">
        <ele>1035.6</ele>
        <time>2022-08-29T12:18:21Z</time>
      </trkpt>
      <trkpt lat="45.94783" lon="3.69747">
        <ele>1035.6</ele>
        <time>2022-08-29T12:18:22Z</time>
      </trkpt>
      <trkpt lat="45.94784" lon="3.69747">
        <ele>1035</ele>
        <time>2022-08-29T12:18:23Z</time>
      </trkpt>
      <trkpt lat="45.94785" lon="3.69747">
        <ele>1035</ele>
        <time>2022-08-29T12:18:24Z</time>
      </trkpt>
      <trkpt lat="45.94785" lon="3.69746">
        <ele>1035</ele>
        <time>2022-08-29T12:18:25Z</time>
      </trkpt>
      <trkpt lat="45.94786" lon="3.69746">
        <ele>1035</ele>
        <time>2022-08-29T12:18:26Z</time>
      </trkpt>
      <trkpt lat="45.94786" lon="3.69746">
        <ele>1035</ele>
        <time>2022-08-29T12:18:27Z</time>
      </trkpt>
      <trkpt lat="45.94787" lon="3.69746">
        <ele>1035</ele>
        <time>2022-08-29T12:18:28Z</time>
      </trkpt>
      <trkpt lat="45.94787" lon="3.69746">
        <ele>1034.4</ele>
        <time>2022-08-29T12:18:29Z</time>
      </trkpt>
      <trkpt lat="45.94788" lon="3.69746">
        <ele>1034.4</ele>
        <time>2022-08-29T12:18:30Z</time>
      </trkpt>
      <trkpt lat="45.94788" lon="3.69746">
        <ele>1034.4</ele>
        <time>2022-08-29T12:18:31Z</time>
      </trkpt>
      <trkpt lat="45.94789" lon="3.69746">
        <ele>1034.4</ele>
        <time>2022-08-29T12:18:32Z</time>
      </trkpt>
      <trkpt lat="45.94789" lon="3.69746">
        <ele>1034.4</ele>
        <time>2022-08-29T12:18:33Z</time>
      </trkpt>
      <trkpt lat="45.94789" lon="3.69746">
        <ele>1033.8</ele>
        <time>2022-08-29T12:18:34Z</time>
      </trkpt>
      <trkpt lat="45.94788" lon="3.69745">
        <ele>1033.8</ele>
        <time>2022-08-29T12:18:35Z</time>
      </trkpt>
      <trkpt lat="45.94788" lon="3.69745">
        <ele>1033.8</ele>
        <time>2022-08-29T12:18:36Z</time>
      </trkpt>
      <trkpt lat="45.94788" lon="3.69745">
        <ele>1033.8</ele>
        <time>2022-08-29T12:18:37Z</time>
      </trkpt>
      <trkpt lat="45.94787" lon="3.69745">
        <ele>1033.8</ele>
        <time>2022-08-29T12:18:38Z</time>
      </trkpt>
      <trkpt lat="45.94787" lon="3.69745">
        <ele>1033.8</ele>
        <time>2022-08-29T12:18:39Z</time>
      </trkpt>
      <trkpt lat="45.94787" lon="3.69745">
        <ele>1034.3</ele>
        <time>2022-08-29T12:18:40Z</time>
      </trkpt>
      <trkpt lat="45.94786" lon="3.69745">
        <ele>1034.3</ele>
        <time>2022-08-29T12:18:41Z</time>
      </trkpt>
      <trkpt lat="45.94786" lon="3.69745">
        <ele>1034.3</ele>
        <time>2022-08-29T12:18:42Z</time>
      </trkpt>
      <trkpt lat="45.94786" lon="3.69744">
        <ele>1034.3</ele>
        <time>2022-08-29T12:18:43Z</time>
      </trkpt>
      <trkpt lat="45.94786" lon="3.69744">
        <ele>1034.3</ele>
        <time>2022-08-29T12:18:44Z</time>
      </trkpt>
      <trkpt lat="45.94786" lon="3.69744">
        <ele>1034.3</ele>
        <time>2022-08-29T12:18:45Z</time>
      </trkpt>
      <trkpt lat="45.94786" lon="3.69744">
        <ele>1034.3</ele>
        <time>2022-08-29T12:18:46Z</time>
      </trkpt>
      <trkpt lat="45.94786" lon="3.69744">
        <ele>1034.3</ele>
        <time>2022-08-29T12:18:47Z</time>
      </trkpt>
      <trkpt lat="45.94786" lon="3.69744">
        <ele>1034.3</ele>
        <time>2022-08-29T12:18:48Z</time>
      </trkpt>
      <trkpt lat="45.94786" lon="3.69744">
        <ele>1034.3</ele>
        <time>2022-08-29T12:18:49Z</time>
      </trkpt>
      <trkpt lat="45.94786" lon="3.69744">
        <ele>1034.3</ele>
        <time>2022-08-29T12:18:50Z</time>
      </trkpt>
      <trkpt lat="45.94786" lon="3.69744">
        <ele>1034.3</ele>
        <time>2022-08-29T12:18:51Z</time>
      </trkpt>
      <trkpt lat="45.94786" lon="3.69744">
        <ele>1034.3</ele>
        <time>2022-08-29T12:18:52Z</time>
      </trkpt>
      <trkpt lat="45.94786" lon="3.69744">
        <ele>1034.3</ele>
        <time>2022-08-29T12:18:53Z</time>
      </trkpt>
      <trkpt lat="45.94786" lon="3.69744">
        <ele>1034.3</ele>
        <time>2022-08-29T12:18:54Z</time>
      </trkpt>
      <trkpt lat="45.94786" lon="3.69744">
        <ele>1034.3</ele>
        <time>2022-08-29T12:18:55Z</time>
      </trkpt>
      <trkpt lat="45.94786" lon="3.69744">
        <ele>1034.3</ele>
        <time>2022-08-29T12:18:56Z</time>
      </trkpt>
      <trkpt lat="45.94786" lon="3.69744">
        <ele>1034.3</ele>
        <time>2022-08-29T12:18:57Z</time>
      </trkpt>
      <trkpt lat="45.94786" lon="3.69744">
        <ele>1034.3</ele>
        <time>2022-08-29T12:18:58Z</time>
      </trkpt>
      <trkpt lat="45.94786" lon="3.69744">
        <ele>1034.3</ele>
        <time>2022-08-29T12:18:59Z</time>
      </trkpt>
      <trkpt lat="45.94786" lon="3.69744">
        <ele>1034.3</ele>
        <time>2022-08-29T12:19:00Z</time>
      </trkpt>
      <trkpt lat="45.94786" lon="3.69744">
        <ele>1034.3</ele>
        <time>2022-08-29T12:19:01Z</time>
      </trkpt>
      <trkpt lat="45.94786" lon="3.69744">
        <ele>1034.3</ele>
        <time>2022-08-29T12:19:02Z</time>
      </trkpt>
      <trkpt lat="45.94786" lon="3.69744">
        <ele>1034.3</ele>
        <time>2022-08-29T12:19:03Z</time>
      </trkpt>
      <trkpt lat="45.94786" lon="3.69744">
        <ele>1034.3</ele>
        <time>2022-08-29T12:19:04Z</time>
      </trkpt>
      <trkpt lat="45.94786" lon="3.69744">
        <ele>1034.3</ele>
        <time>2022-08-29T12:19:05Z</time>
      </trkpt>
      <trkpt lat="45.94786" lon="3.69744">
        <ele>1034.3</ele>
        <time>2022-08-29T12:19:06Z</time>
      </trkpt>
      <trkpt lat="45.94786" lon="3.69744">
        <ele>1034.3</ele>
        <time>2022-08-29T12:19:07Z</time>
      </trkpt>
      <trkpt lat="45.94786" lon="3.69744">
        <ele>1034.3</ele>
        <time>2022-08-29T12:19:08Z</time>
      </trkpt>
      <trkpt lat="45.94786" lon="3.69744">
        <ele>1034.3</ele>
        <time>2022-08-29T12:19:09Z</time>
      </trkpt>
      <trkpt lat="45.94786" lon="3.69744">
        <ele>1034.3</ele>
        <time>2022-08-29T12:19:10Z</time>
      </trkpt>
      <trkpt lat="45.94786" lon="3.69744">
        <ele>1034.3</ele>
        <time>2022-08-29T12:19:11Z</time>
      </trkpt>
      <trkpt lat="45.94786" lon="3.69744">
        <ele>1034.3</ele>
        <time>2022-08-29T12:19:12Z</time>
      </trkpt>
      <trkpt lat="45.94786" lon="3.69744">
        <ele>1034.3</ele>
        <time>2022-08-29T12:19:13Z</time>
      </trkpt>
      <trkpt lat="45.94786" lon="3.69744">
        <ele>1034.3</ele>
        <time>2022-08-29T12:19:14Z</time>
      </trkpt>
      <trkpt lat="45.94786" lon="3.69744">
        <ele>1034.3</ele>
        <time>2022-08-29T12:19:15Z</time>
      </trkpt>
      <trkpt lat="45.94786" lon="3.69744">
        <ele>1034.3</ele>
        <time>2022-08-29T12:19:16Z</time>
      </trkpt>
      <trkpt lat="45.94787" lon="3.69744">
        <ele>1033.8</ele>
        <time>2022-08-29T12:19:17Z</time>
      </trkpt>
      <trkpt lat="45.94788" lon="3.69744">
        <ele>1033.8</ele>
        <time>2022-08-29T12:19:18Z</time>
      </trkpt>
      <trkpt lat="45.94789" lon="3.69743">
        <ele>1033.8</ele>
        <time>2022-08-29T12:19:19Z</time>
      </trkpt>
      <trkpt lat="45.9479" lon="3.69741">
        <ele>1032.6</ele>
        <time>2022-08-29T12:19:20Z</time>
      </trkpt>
      <trkpt lat="45.94792" lon="3.6974">
        <ele>1032.6</ele>
        <time>2022-08-29T12:19:21Z</time>
      </trkpt>
      <trkpt lat="45.94793" lon="3.69739">
        <ele>1032.1</ele>
        <time>2022-08-29T12:19:22Z</time>
      </trkpt>
      <trkpt lat="45.94794" lon="3.69737">
        <ele>1032.1</ele>
        <time>2022-08-29T12:19:23Z</time>
      </trkpt>
      <trkpt lat="45.94795" lon="3.69736">
        <ele>1031.4</ele>
        <time>2022-08-29T12:19:24Z</time>
      </trkpt>
      <trkpt lat="45.94796" lon="3.69734">
        <ele>1031</ele>
        <time>2022-08-29T12:19:25Z</time>
      </trkpt>
      <trkpt lat="45.94797" lon="3.69732">
        <ele>1030.3</ele>
        <time>2022-08-29T12:19:26Z</time>
      </trkpt>
      <trkpt lat="45.94797" lon="3.6973">
        <ele>1030.3</ele>
        <time>2022-08-29T12:19:27Z</time>
      </trkpt>
      <trkpt lat="45.94797" lon="3.69728">
        <ele>1029.7</ele>
        <time>2022-08-29T12:19:28Z</time>
      </trkpt>
      <trkpt lat="45.94798" lon="3.69726">
        <ele>1029.7</ele>
        <time>2022-08-29T12:19:29Z</time>
      </trkpt>
      <trkpt lat="45.94799" lon="3.69723">
        <ele>1029.2</ele>
        <time>2022-08-29T12:19:30Z</time>
      </trkpt>
      <trkpt lat="45.94799" lon="3.69722">
        <ele>1028.7</ele>
        <time>2022-08-29T12:19:31Z</time>
      </trkpt>
      <trkpt lat="45.94799" lon="3.69721">
        <ele>1028.7</ele>
        <time>2022-08-29T12:19:32Z</time>
      </trkpt>
      <trkpt lat="45.948" lon="3.69719">
        <ele>1028.2</ele>
        <time>2022-08-29T12:19:33Z</time>
      </trkpt>
      <trkpt lat="45.94801" lon="3.69717">
        <ele>1028.2</ele>
        <time>2022-08-29T12:19:34Z</time>
      </trkpt>
      <trkpt lat="45.94802" lon="3.69716">
        <ele>1028.2</ele>
        <time>2022-08-29T12:19:35Z</time>
      </trkpt>
      <trkpt lat="45.94803" lon="3.69714">
        <ele>1027.3</ele>
        <time>2022-08-29T12:19:36Z</time>
      </trkpt>
      <trkpt lat="45.94804" lon="3.69713">
        <ele>1027.3</ele>
        <time>2022-08-29T12:19:37Z</time>
      </trkpt>
      <trkpt lat="45.94805" lon="3.69712">
        <ele>1027.3</ele>
        <time>2022-08-29T12:19:38Z</time>
      </trkpt>
      <trkpt lat="45.94805" lon="3.69711">
        <ele>1026.3</ele>
        <time>2022-08-29T12:19:39Z</time>
      </trkpt>
      <trkpt lat="45.94807" lon="3.69708">
        <ele>1026.3</ele>
        <time>2022-08-29T12:19:40Z</time>
      </trkpt>
      <trkpt lat="45.94807" lon="3.69707">
        <ele>1026.1</ele>
        <time>2022-08-29T12:19:41Z</time>
      </trkpt>
      <trkpt lat="45.94808" lon="3.69706">
        <ele>1025.5</ele>
        <time>2022-08-29T12:19:42Z</time>
      </trkpt>
      <trkpt lat="45.94809" lon="3.69704">
        <ele>1025.5</ele>
        <time>2022-08-29T12:19:43Z</time>
      </trkpt>
      <trkpt lat="45.9481" lon="3.69703">
        <ele>1025.3</ele>
        <time>2022-08-29T12:19:44Z</time>
      </trkpt>
      <trkpt lat="45.94811" lon="3.69702">
        <ele>1024.8</ele>
        <time>2022-08-29T12:19:45Z</time>
      </trkpt>
      <trkpt lat="45.94812" lon="3.697">
        <ele>1024.8</ele>
        <time>2022-08-29T12:19:46Z</time>
      </trkpt>
      <trkpt lat="45.94812" lon="3.69699">
        <ele>1024.8</ele>
        <time>2022-08-29T12:19:47Z</time>
      </trkpt>
      <trkpt lat="45.94812" lon="3.69698">
        <ele>1024.6</ele>
        <time>2022-08-29T12:19:48Z</time>
      </trkpt>
      <trkpt lat="45.94813" lon="3.69697">
        <ele>1024.6</ele>
        <time>2022-08-29T12:19:49Z</time>
      </trkpt>
      <trkpt lat="45.94813" lon="3.69695">
        <ele>1024.6</ele>
        <time>2022-08-29T12:19:50Z</time>
      </trkpt>
      <trkpt lat="45.94814" lon="3.69693">
        <ele>1024.1</ele>
        <time>2022-08-29T12:19:51Z</time>
      </trkpt>
      <trkpt lat="45.94814" lon="3.69692">
        <ele>1024.1</ele>
        <time>2022-08-29T12:19:52Z</time>
      </trkpt>
      <trkpt lat="45.94815" lon="3.69691">
        <ele>1024.1</ele>
        <time>2022-08-29T12:19:53Z</time>
      </trkpt>
      <trkpt lat="45.94815" lon="3.69689">
        <ele>1024</ele>
        <time>2022-08-29T12:19:54Z</time>
      </trkpt>
      <trkpt lat="45.94816" lon="3.69688">
        <ele>1024</ele>
        <time>2022-08-29T12:19:55Z</time>
      </trkpt>
      <trkpt lat="45.94816" lon="3.69686">
        <ele>1024</ele>
        <time>2022-08-29T12:19:56Z</time>
      </trkpt>
      <trkpt lat="45.94816" lon="3.69685">
        <ele>1023.9</ele>
        <time>2022-08-29T12:19:57Z</time>
      </trkpt>
      <trkpt lat="45.94816" lon="3.69684">
        <ele>1023.9</ele>
        <time>2022-08-29T12:19:58Z</time>
      </trkpt>
      <trkpt lat="45.94816" lon="3.69684">
        <ele>1023.9</ele>
        <time>2022-08-29T12:19:59Z</time>
      </trkpt>
      <trkpt lat="45.94816" lon="3.69683">
        <ele>1023.9</ele>
        <time>2022-08-29T12:20:00Z</time>
      </trkpt>
      <trkpt lat="45.94816" lon="3.69683">
        <ele>1023.9</ele>
        <time>2022-08-29T12:20:01Z</time>
      </trkpt>
      <trkpt lat="45.94816" lon="3.69681">
        <ele>1023.9</ele>
        <time>2022-08-29T12:20:02Z</time>
      </trkpt>
      <trkpt lat="45.94816" lon="3.69681">
        <ele>1023.8</ele>
        <time>2022-08-29T12:20:03Z</time>
      </trkpt>
      <trkpt lat="45.94816" lon="3.6968">
        <ele>1023.8</ele>
        <time>2022-08-29T12:20:04Z</time>
      </trkpt>
      <trkpt lat="45.94817" lon="3.69679">
        <ele>1023.4</ele>
        <time>2022-08-29T12:20:05Z</time>
      </trkpt>
      <trkpt lat="45.94817" lon="3.69679">
        <ele>1023.4</ele>
        <time>2022-08-29T12:20:06Z</time>
      </trkpt>
      <trkpt lat="45.94817" lon="3.69678">
        <ele>1023.4</ele>
        <time>2022-08-29T12:20:07Z</time>
      </trkpt>
      <trkpt lat="45.94817" lon="3.69676">
        <ele>1023.3</ele>
        <time>2022-08-29T12:20:08Z</time>
      </trkpt>
      <trkpt lat="45.94817" lon="3.69674">
        <ele>1023.3</ele>
        <time>2022-08-29T12:20:09Z</time>
      </trkpt>
      <trkpt lat="45.94817" lon="3.69673">
        <ele>1023.3</ele>
        <time>2022-08-29T12:20:10Z</time>
      </trkpt>
      <trkpt lat="45.94817" lon="3.69672">
        <ele>1023.1</ele>
        <time>2022-08-29T12:20:11Z</time>
      </trkpt>
      <trkpt lat="45.94816" lon="3.69671">
        <ele>1023.4</ele>
        <time>2022-08-29T12:20:12Z</time>
      </trkpt>
      <trkpt lat="45.94816" lon="3.6967">
        <ele>1023.4</ele>
        <time>2022-08-29T12:20:13Z</time>
      </trkpt>
      <trkpt lat="45.94815" lon="3.69668">
        <ele>1023.3</ele>
        <time>2022-08-29T12:20:14Z</time>
      </trkpt>
      <trkpt lat="45.94814" lon="3.69667">
        <ele>1023.3</ele>
        <time>2022-08-29T12:20:15Z</time>
      </trkpt>
      <trkpt lat="45.94814" lon="3.69667">
        <ele>1023.6</ele>
        <time>2022-08-29T12:20:16Z</time>
      </trkpt>
      <trkpt lat="45.94813" lon="3.69666">
        <ele>1023.6</ele>
        <time>2022-08-29T12:20:17Z</time>
      </trkpt>
      <trkpt lat="45.94812" lon="3.69666">
        <ele>1023.6</ele>
        <time>2022-08-29T12:20:18Z</time>
      </trkpt>
      <trkpt lat="45.94811" lon="3.69666">
        <ele>1023.9</ele>
        <time>2022-08-29T12:20:19Z</time>
      </trkpt>
      <trkpt lat="45.9481" lon="3.69665">
        <ele>1023.9</ele>
        <time>2022-08-29T12:20:20Z</time>
      </trkpt>
      <trkpt lat="45.94809" lon="3.69665">
        <ele>1023.9</ele>
        <time>2022-08-29T12:20:21Z</time>
      </trkpt>
      <trkpt lat="45.94809" lon="3.69664">
        <ele>1023.9</ele>
        <time>2022-08-29T12:20:22Z</time>
      </trkpt>
      <trkpt lat="45.94809" lon="3.69664">
        <ele>1023.6</ele>
        <time>2022-08-29T12:20:23Z</time>
      </trkpt>
      <trkpt lat="45.94809" lon="3.69664">
        <ele>1023.6</ele>
        <time>2022-08-29T12:20:24Z</time>
      </trkpt>
      <trkpt lat="45.94809" lon="3.69663">
        <ele>1023.6</ele>
        <time>2022-08-29T12:20:25Z</time>
      </trkpt>
      <trkpt lat="45.94809" lon="3.69662">
        <ele>1023.6</ele>
        <time>2022-08-29T12:20:26Z</time>
      </trkpt>
      <trkpt lat="45.94808" lon="3.69661">
        <ele>1023.6</ele>
        <time>2022-08-29T12:20:27Z</time>
      </trkpt>
      <trkpt lat="45.94807" lon="3.69661">
        <ele>1024</ele>
        <time>2022-08-29T12:20:28Z</time>
      </trkpt>
      <trkpt lat="45.94807" lon="3.6966">
        <ele>1023.7</ele>
        <time>2022-08-29T12:20:29Z</time>
      </trkpt>
      <trkpt lat="45.94807" lon="3.69659">
        <ele>1023.7</ele>
        <time>2022-08-29T12:20:30Z</time>
      </trkpt>
      <trkpt lat="45.94806" lon="3.69658">
        <ele>1023.7</ele>
        <time>2022-08-29T12:20:31Z</time>
      </trkpt>
      <trkpt lat="45.94806" lon="3.69655">
        <ele>1023.3</ele>
        <time>2022-08-29T12:20:32Z</time>
      </trkpt>
      <trkpt lat="45.94806" lon="3.69654">
        <ele>1023.3</ele>
        <time>2022-08-29T12:20:33Z</time>
      </trkpt>
      <trkpt lat="45.94806" lon="3.69653">
        <ele>1023.3</ele>
        <time>2022-08-29T12:20:34Z</time>
      </trkpt>
      <trkpt lat="45.94806" lon="3.69651">
        <ele>1022.9</ele>
        <time>2022-08-29T12:20:35Z</time>
      </trkpt>
      <trkpt lat="45.94805" lon="3.69648">
        <ele>1022.9</ele>
        <time>2022-08-29T12:20:36Z</time>
      </trkpt>
      <trkpt lat="45.94805" lon="3.69647">
        <ele>1022.4</ele>
        <time>2022-08-29T12:20:37Z</time>
      </trkpt>
      <trkpt lat="45.94805" lon="3.69645">
        <ele>1022.4</ele>
        <time>2022-08-29T12:20:38Z</time>
      </trkpt>
      <trkpt lat="45.94806" lon="3.69644">
        <ele>1022.4</ele>
        <time>2022-08-29T12:20:39Z</time>
      </trkpt>
      <trkpt lat="45.94806" lon="3.69643">
        <ele>1022.4</ele>
        <time>2022-08-29T12:20:40Z</time>
      </trkpt>
      <trkpt lat="45.94807" lon="3.69642">
        <ele>1021.9</ele>
        <time>2022-08-29T12:20:41Z</time>
      </trkpt>
      <trkpt lat="45.94808" lon="3.69641">
        <ele>1021.9</ele>
        <time>2022-08-29T12:20:42Z</time>
      </trkpt>
      <trkpt lat="45.94808" lon="3.69641">
        <ele>1021.7</ele>
        <time>2022-08-29T12:20:43Z</time>
      </trkpt>
      <trkpt lat="45.94809" lon="3.69642">
        <ele>1021.7</ele>
        <time>2022-08-29T12:20:44Z</time>
      </trkpt>
      <trkpt lat="45.9481" lon="3.69642">
        <ele>1021.7</ele>
        <time>2022-08-29T12:20:45Z</time>
      </trkpt>
      <trkpt lat="45.94811" lon="3.69643">
        <ele>1021.6</ele>
        <time>2022-08-29T12:20:46Z</time>
      </trkpt>
      <trkpt lat="45.94814" lon="3.69643">
        <ele>1021.8</ele>
        <time>2022-08-29T12:20:47Z</time>
      </trkpt>
      <trkpt lat="45.94815" lon="3.69644">
        <ele>1021.8</ele>
        <time>2022-08-29T12:20:48Z</time>
      </trkpt>
      <trkpt lat="45.94818" lon="3.69645">
        <ele>1021.7</ele>
        <time>2022-08-29T12:20:49Z</time>
      </trkpt>
      <trkpt lat="45.94819" lon="3.69645">
        <ele>1021.7</ele>
        <time>2022-08-29T12:20:50Z</time>
      </trkpt>
      <trkpt lat="45.9482" lon="3.69646">
        <ele>1021.5</ele>
        <time>2022-08-29T12:20:51Z</time>
      </trkpt>
      <trkpt lat="45.94822" lon="3.69646">
        <ele>1021.5</ele>
        <time>2022-08-29T12:20:52Z</time>
      </trkpt>
      <trkpt lat="45.94824" lon="3.69647">
        <ele>1021.3</ele>
        <time>2022-08-29T12:20:53Z</time>
      </trkpt>
      <trkpt lat="45.94825" lon="3.69648">
        <ele>1021.3</ele>
        <time>2022-08-29T12:20:54Z</time>
      </trkpt>
      <trkpt lat="45.94828" lon="3.6965">
        <ele>1021.3</ele>
        <time>2022-08-29T12:20:55Z</time>
      </trkpt>
      <trkpt lat="45.94829" lon="3.69651">
        <ele>1021.4</ele>
        <time>2022-08-29T12:20:57Z</time>
      </trkpt>
      <trkpt lat="45.94829" lon="3.69653">
        <ele>1021.4</ele>
        <time>2022-08-29T12:20:58Z</time>
      </trkpt>
      <trkpt lat="45.9483" lon="3.69654">
        <ele>1021.4</ele>
        <time>2022-08-29T12:20:59Z</time>
      </trkpt>
      <trkpt lat="45.94832" lon="3.69656">
        <ele>1021.4</ele>
        <time>2022-08-29T12:21:00Z</time>
      </trkpt>
      <trkpt lat="45.94833" lon="3.69658">
        <ele>1021.5</ele>
        <time>2022-08-29T12:21:01Z</time>
      </trkpt>
      <trkpt lat="45.94834" lon="3.69659">
        <ele>1021.5</ele>
        <time>2022-08-29T12:21:02Z</time>
      </trkpt>
      <trkpt lat="45.94836" lon="3.6966">
        <ele>1021.5</ele>
        <time>2022-08-29T12:21:03Z</time>
      </trkpt>
      <trkpt lat="45.94837" lon="3.69662">
        <ele>1021.6</ele>
        <time>2022-08-29T12:21:04Z</time>
      </trkpt>
      <trkpt lat="45.94838" lon="3.69663">
        <ele>1021.6</ele>
        <time>2022-08-29T12:21:05Z</time>
      </trkpt>
      <trkpt lat="45.94838" lon="3.69664">
        <ele>1021.6</ele>
        <time>2022-08-29T12:21:06Z</time>
      </trkpt>
      <trkpt lat="45.94839" lon="3.69666">
        <ele>1021.7</ele>
        <time>2022-08-29T12:21:07Z</time>
      </trkpt>
      <trkpt lat="45.9484" lon="3.69668">
        <ele>1021.7</ele>
        <time>2022-08-29T12:21:08Z</time>
      </trkpt>
      <trkpt lat="45.94841" lon="3.69669">
        <ele>1021.8</ele>
        <time>2022-08-29T12:21:09Z</time>
      </trkpt>
      <trkpt lat="45.94842" lon="3.6967">
        <ele>1021.8</ele>
        <time>2022-08-29T12:21:10Z</time>
      </trkpt>
      <trkpt lat="45.94843" lon="3.6967">
        <ele>1021.8</ele>
        <time>2022-08-29T12:21:11Z</time>
      </trkpt>
      <trkpt lat="45.94844" lon="3.69671">
        <ele>1021.9</ele>
        <time>2022-08-29T12:21:12Z</time>
      </trkpt>
      <trkpt lat="45.94845" lon="3.69671">
        <ele>1021.9</ele>
        <time>2022-08-29T12:21:13Z</time>
      </trkpt>
      <trkpt lat="45.94846" lon="3.69671">
        <ele>1021.9</ele>
        <time>2022-08-29T12:21:14Z</time>
      </trkpt>
      <trkpt lat="45.94846" lon="3.69672">
        <ele>1021.9</ele>
        <time>2022-08-29T12:21:15Z</time>
      </trkpt>
      <trkpt lat="45.94845" lon="3.69672">
        <ele>1021.9</ele>
        <time>2022-08-29T12:21:16Z</time>
      </trkpt>
      <trkpt lat="45.94845" lon="3.69673">
        <ele>1022</ele>
        <time>2022-08-29T12:21:17Z</time>
      </trkpt>
      <trkpt lat="45.94845" lon="3.69675">
        <ele>1022</ele>
        <time>2022-08-29T12:21:18Z</time>
      </trkpt>
      <trkpt lat="45.94846" lon="3.69678">
        <ele>1022.1</ele>
        <time>2022-08-29T12:21:19Z</time>
      </trkpt>
      <trkpt lat="45.94846" lon="3.6968">
        <ele>1022.1</ele>
        <time>2022-08-29T12:21:20Z</time>
      </trkpt>
      <trkpt lat="45.94846" lon="3.69686">
        <ele>1022.3</ele>
        <time>2022-08-29T12:21:21Z</time>
      </trkpt>
      <trkpt lat="45.94846" lon="3.69687">
        <ele>1022.3</ele>
        <time>2022-08-29T12:21:22Z</time>
      </trkpt>
      <trkpt lat="45.94846" lon="3.6969">
        <ele>1022.4</ele>
        <time>2022-08-29T12:21:23Z</time>
      </trkpt>
      <trkpt lat="45.94846" lon="3.69691">
        <ele>1022.4</ele>
        <time>2022-08-29T12:21:24Z</time>
      </trkpt>
      <trkpt lat="45.94845" lon="3.69692">
        <ele>1022.5</ele>
        <time>2022-08-29T12:21:25Z</time>
      </trkpt>
      <trkpt lat="45.94845" lon="3.69693">
        <ele>1022.5</ele>
        <time>2022-08-29T12:21:26Z</time>
      </trkpt>
      <trkpt lat="45.94845" lon="3.69693">
        <ele>1022.5</ele>
        <time>2022-08-29T12:21:27Z</time>
      </trkpt>
      <trkpt lat="45.94845" lon="3.69693">
        <ele>1022.5</ele>
        <time>2022-08-29T12:21:28Z</time>
      </trkpt>
      <trkpt lat="45.94845" lon="3.69694">
        <ele>1022.6</ele>
        <time>2022-08-29T12:21:29Z</time>
      </trkpt>
      <trkpt lat="45.94846" lon="3.69695">
        <ele>1022.6</ele>
        <time>2022-08-29T12:21:30Z</time>
      </trkpt>
      <trkpt lat="45.94846" lon="3.69697">
        <ele>1022.7</ele>
        <time>2022-08-29T12:21:31Z</time>
      </trkpt>
      <trkpt lat="45.94847" lon="3.69699">
        <ele>1022.8</ele>
        <time>2022-08-29T12:21:32Z</time>
      </trkpt>
      <trkpt lat="45.94847" lon="3.69701">
        <ele>1022.8</ele>
        <time>2022-08-29T12:21:33Z</time>
      </trkpt>
      <trkpt lat="45.94848" lon="3.69704">
        <ele>1023</ele>
        <time>2022-08-29T12:21:34Z</time>
      </trkpt>
      <trkpt lat="45.94848" lon="3.69707">
        <ele>1023.1</ele>
        <time>2022-08-29T12:21:35Z</time>
      </trkpt>
      <trkpt lat="45.94849" lon="3.69709">
        <ele>1023.2</ele>
        <time>2022-08-29T12:21:36Z</time>
      </trkpt>
      <trkpt lat="45.94849" lon="3.6971">
        <ele>1023.2</ele>
        <time>2022-08-29T12:21:37Z</time>
      </trkpt>
      <trkpt lat="45.9485" lon="3.69711">
        <ele>1023.3</ele>
        <time>2022-08-29T12:21:38Z</time>
      </trkpt>
      <trkpt lat="45.94851" lon="3.69711">
        <ele>1023.3</ele>
        <time>2022-08-29T12:21:39Z</time>
      </trkpt>
      <trkpt lat="45.94851" lon="3.69711">
        <ele>1023.3</ele>
        <time>2022-08-29T12:21:40Z</time>
      </trkpt>
      <trkpt lat="45.94851" lon="3.69712">
        <ele>1023.4</ele>
        <time>2022-08-29T12:21:41Z</time>
      </trkpt>
      <trkpt lat="45.94851" lon="3.69712">
        <ele>1023.4</ele>
        <time>2022-08-29T12:21:42Z</time>
      </trkpt>
      <trkpt lat="45.94851" lon="3.69714">
        <ele>1023.5</ele>
        <time>2022-08-29T12:21:43Z</time>
      </trkpt>
      <trkpt lat="45.94851" lon="3.69716">
        <ele>1023.5</ele>
        <time>2022-08-29T12:21:44Z</time>
      </trkpt>
      <trkpt lat="45.94851" lon="3.69718">
        <ele>1023.6</ele>
        <time>2022-08-29T12:21:45Z</time>
      </trkpt>
      <trkpt lat="45.94851" lon="3.69721">
        <ele>1023.8</ele>
        <time>2022-08-29T12:21:46Z</time>
      </trkpt>
      <trkpt lat="45.9485" lon="3.69723">
        <ele>1023.9</ele>
        <time>2022-08-29T12:21:47Z</time>
      </trkpt>
      <trkpt lat="45.9485" lon="3.69725">
        <ele>1024</ele>
        <time>2022-08-29T12:21:48Z</time>
      </trkpt>
      <trkpt lat="45.9485" lon="3.69727">
        <ele>1024</ele>
        <time>2022-08-29T12:21:49Z</time>
      </trkpt>
      <trkpt lat="45.9485" lon="3.69728">
        <ele>1024.1</ele>
        <time>2022-08-29T12:21:50Z</time>
      </trkpt>
      <trkpt lat="45.94851" lon="3.6973">
        <ele>1024.2</ele>
        <time>2022-08-29T12:21:51Z</time>
      </trkpt>
      <trkpt lat="45.94853" lon="3.69731">
        <ele>1024.3</ele>
        <time>2022-08-29T12:21:52Z</time>
      </trkpt>
      <trkpt lat="45.94854" lon="3.69733">
        <ele>1024.4</ele>
        <time>2022-08-29T12:21:53Z</time>
      </trkpt>
      <trkpt lat="45.94855" lon="3.69735">
        <ele>1024.3</ele>
        <time>2022-08-29T12:21:54Z</time>
      </trkpt>
      <trkpt lat="45.94855" lon="3.69737">
        <ele>1024.2</ele>
        <time>2022-08-29T12:21:55Z</time>
      </trkpt>
      <trkpt lat="45.94857" lon="3.6974">
        <ele>1024</ele>
        <time>2022-08-29T12:21:57Z</time>
      </trkpt>
      <trkpt lat="45.94858" lon="3.69741">
        <ele>1024</ele>
        <time>2022-08-29T12:21:58Z</time>
      </trkpt>
      <trkpt lat="45.94859" lon="3.69742">
        <ele>1023.9</ele>
        <time>2022-08-29T12:21:59Z</time>
      </trkpt>
      <trkpt lat="45.9486" lon="3.69743">
        <ele>1023.8</ele>
        <time>2022-08-29T12:22:00Z</time>
      </trkpt>
      <trkpt lat="45.94861" lon="3.69743">
        <ele>1023.8</ele>
        <time>2022-08-29T12:22:01Z</time>
      </trkpt>
      <trkpt lat="45.94862" lon="3.69743">
        <ele>1023.8</ele>
        <time>2022-08-29T12:22:02Z</time>
      </trkpt>
      <trkpt lat="45.94862" lon="3.69743">
        <ele>1023.7</ele>
        <time>2022-08-29T12:22:03Z</time>
      </trkpt>
      <trkpt lat="45.94861" lon="3.69743">
        <ele>1023.7</ele>
        <time>2022-08-29T12:22:04Z</time>
      </trkpt>
      <trkpt lat="45.9486" lon="3.69743">
        <ele>1023.7</ele>
        <time>2022-08-29T12:22:05Z</time>
      </trkpt>
      <trkpt lat="45.94859" lon="3.69742">
        <ele>1023.6</ele>
        <time>2022-08-29T12:22:07Z</time>
      </trkpt>
      <trkpt lat="45.94859" lon="3.69742">
        <ele>1023.6</ele>
        <time>2022-08-29T12:22:08Z</time>
      </trkpt>
      <trkpt lat="45.94859" lon="3.6974">
        <ele>1023.5</ele>
        <time>2022-08-29T12:22:09Z</time>
      </trkpt>
      <trkpt lat="45.94859" lon="3.69738">
        <ele>1023.4</ele>
        <time>2022-08-29T12:22:10Z</time>
      </trkpt>
      <trkpt lat="45.9486" lon="3.69737">
        <ele>1023.4</ele>
        <time>2022-08-29T12:22:11Z</time>
      </trkpt>
      <trkpt lat="45.9486" lon="3.69734">
        <ele>1023.3</ele>
        <time>2022-08-29T12:22:12Z</time>
      </trkpt>
      <trkpt lat="45.9486" lon="3.69732">
        <ele>1023.2</ele>
        <time>2022-08-29T12:22:13Z</time>
      </trkpt>
      <trkpt lat="45.9486" lon="3.6973">
        <ele>1023.1</ele>
        <time>2022-08-29T12:22:14Z</time>
      </trkpt>
      <trkpt lat="45.94859" lon="3.69729">
        <ele>1023.1</ele>
        <time>2022-08-29T12:22:15Z</time>
      </trkpt>
      <trkpt lat="45.94859" lon="3.69728">
        <ele>1023</ele>
        <time>2022-08-29T12:22:16Z</time>
      </trkpt>
      <trkpt lat="45.94859" lon="3.69726">
        <ele>1023</ele>
        <time>2022-08-29T12:22:17Z</time>
      </trkpt>
      <trkpt lat="45.94859" lon="3.69725">
        <ele>1022.9</ele>
        <time>2022-08-29T12:22:18Z</time>
      </trkpt>
      <trkpt lat="45.94859" lon="3.69724">
        <ele>1022.9</ele>
        <time>2022-08-29T12:22:19Z</time>
      </trkpt>
      <trkpt lat="45.94859" lon="3.69722">
        <ele>1022.8</ele>
        <time>2022-08-29T12:22:20Z</time>
      </trkpt>
      <trkpt lat="45.94858" lon="3.69719">
        <ele>1022.7</ele>
        <time>2022-08-29T12:22:21Z</time>
      </trkpt>
      <trkpt lat="45.94858" lon="3.69717">
        <ele>1022.6</ele>
        <time>2022-08-29T12:22:22Z</time>
      </trkpt>
      <trkpt lat="45.94857" lon="3.69716">
        <ele>1022.6</ele>
        <time>2022-08-29T12:22:23Z</time>
      </trkpt>
      <trkpt lat="45.94857" lon="3.69714">
        <ele>1022.5</ele>
        <time>2022-08-29T12:22:24Z</time>
      </trkpt>
      <trkpt lat="45.94856" lon="3.69712">
        <ele>1022.5</ele>
        <time>2022-08-29T12:22:25Z</time>
      </trkpt>
      <trkpt lat="45.94855" lon="3.6971">
        <ele>1022.4</ele>
        <time>2022-08-29T12:22:26Z</time>
      </trkpt>
      <trkpt lat="45.94854" lon="3.69709">
        <ele>1022.3</ele>
        <time>2022-08-29T12:22:27Z</time>
      </trkpt>
      <trkpt lat="45.94853" lon="3.69707">
        <ele>1022.3</ele>
        <time>2022-08-29T12:22:28Z</time>
      </trkpt>
      <trkpt lat="45.94853" lon="3.69705">
        <ele>1022.2</ele>
        <time>2022-08-29T12:22:29Z</time>
      </trkpt>
      <trkpt lat="45.94853" lon="3.69703">
        <ele>1022.2</ele>
        <time>2022-08-29T12:22:30Z</time>
      </trkpt>
      <trkpt lat="45.94853" lon="3.69701">
        <ele>1022.1</ele>
        <time>2022-08-29T12:22:31Z</time>
      </trkpt>
      <trkpt lat="45.94854" lon="3.69699">
        <ele>1022.1</ele>
        <time>2022-08-29T12:22:32Z</time>
      </trkpt>
      <trkpt lat="45.94854" lon="3.69697">
        <ele>1022.1</ele>
        <time>2022-08-29T12:22:33Z</time>
      </trkpt>
      <trkpt lat="45.94853" lon="3.69695">
        <ele>1022</ele>
        <time>2022-08-29T12:22:34Z</time>
      </trkpt>
      <trkpt lat="45.94853" lon="3.69693">
        <ele>1022</ele>
        <time>2022-08-29T12:22:35Z</time>
      </trkpt>
      <trkpt lat="45.94852" lon="3.69691">
        <ele>1021.9</ele>
        <time>2022-08-29T12:22:36Z</time>
      </trkpt>
      <trkpt lat="45.94852" lon="3.69689">
        <ele>1021.9</ele>
        <time>2022-08-29T12:22:37Z</time>
      </trkpt>
      <trkpt lat="45.94851" lon="3.69687">
        <ele>1021.8</ele>
        <time>2022-08-29T12:22:38Z</time>
      </trkpt>
      <trkpt lat="45.9485" lon="3.69685">
        <ele>1021.8</ele>
        <time>2022-08-29T12:22:39Z</time>
      </trkpt>
      <trkpt lat="45.9485" lon="3.69684">
        <ele>1021.8</ele>
        <time>2022-08-29T12:22:40Z</time>
      </trkpt>
      <trkpt lat="45.94849" lon="3.69682">
        <ele>1021.7</ele>
        <time>2022-08-29T12:22:41Z</time>
      </trkpt>
      <trkpt lat="45.94849" lon="3.6968">
        <ele>1021.7</ele>
        <time>2022-08-29T12:22:42Z</time>
      </trkpt>
      <trkpt lat="45.94849" lon="3.69677">
        <ele>1021.6</ele>
        <time>2022-08-29T12:22:43Z</time>
      </trkpt>
      <trkpt lat="45.94848" lon="3.69675">
        <ele>1021.6</ele>
        <time>2022-08-29T12:22:44Z</time>
      </trkpt>
      <trkpt lat="45.94848" lon="3.69671">
        <ele>1021.5</ele>
        <time>2022-08-29T12:22:45Z</time>
      </trkpt>
      <trkpt lat="45.94848" lon="3.6967">
        <ele>1021.5</ele>
        <time>2022-08-29T12:22:46Z</time>
      </trkpt>
      <trkpt lat="45.94848" lon="3.69667">
        <ele>1021.5</ele>
        <time>2022-08-29T12:22:47Z</time>
      </trkpt>
      <trkpt lat="45.94848" lon="3.69665">
        <ele>1021.5</ele>
        <time>2022-08-29T12:22:48Z</time>
      </trkpt>
      <trkpt lat="45.94848" lon="3.6966">
        <ele>1021.4</ele>
        <time>2022-08-29T12:22:50Z</time>
      </trkpt>
      <trkpt lat="45.94847" lon="3.69655">
        <ele>1021.4</ele>
        <time>2022-08-29T12:22:51Z</time>
      </trkpt>
      <trkpt lat="45.94847" lon="3.69654">
        <ele>1021.3</ele>
        <time>2022-08-29T12:22:52Z</time>
      </trkpt>
      <trkpt lat="45.94846" lon="3.6965">
        <ele>1021.3</ele>
        <time>2022-08-29T12:22:53Z</time>
      </trkpt>
      <trkpt lat="45.94845" lon="3.69649">
        <ele>1021.3</ele>
        <time>2022-08-29T12:22:54Z</time>
      </trkpt>
      <trkpt lat="45.94844" lon="3.69647">
        <ele>1021.2</ele>
        <time>2022-08-29T12:22:55Z</time>
      </trkpt>
      <trkpt lat="45.94842" lon="3.69646">
        <ele>1021.2</ele>
        <time>2022-08-29T12:22:56Z</time>
      </trkpt>
      <trkpt lat="45.94841" lon="3.69644">
        <ele>1021.2</ele>
        <time>2022-08-29T12:22:57Z</time>
      </trkpt>
      <trkpt lat="45.9484" lon="3.69643">
        <ele>1021.2</ele>
        <time>2022-08-29T12:22:58Z</time>
      </trkpt>
      <trkpt lat="45.94839" lon="3.69641">
        <ele>1021.1</ele>
        <time>2022-08-29T12:22:59Z</time>
      </trkpt>
      <trkpt lat="45.94839" lon="3.69639">
        <ele>1021.1</ele>
        <time>2022-08-29T12:23:00Z</time>
      </trkpt>
      <trkpt lat="45.94839" lon="3.69637">
        <ele>1021.1</ele>
        <time>2022-08-29T12:23:01Z</time>
      </trkpt>
      <trkpt lat="45.94838" lon="3.69635">
        <ele>1021</ele>
        <time>2022-08-29T12:23:02Z</time>
      </trkpt>
      <trkpt lat="45.94838" lon="3.69633">
        <ele>1021</ele>
        <time>2022-08-29T12:23:03Z</time>
      </trkpt>
      <trkpt lat="45.94837" lon="3.69632">
        <ele>1021</ele>
        <time>2022-08-29T12:23:04Z</time>
      </trkpt>
      <trkpt lat="45.94837" lon="3.6963">
        <ele>1020.9</ele>
        <time>2022-08-29T12:23:05Z</time>
      </trkpt>
      <trkpt lat="45.94836" lon="3.69629">
        <ele>1020.9</ele>
        <time>2022-08-29T12:23:06Z</time>
      </trkpt>
      <trkpt lat="45.94835" lon="3.69628">
        <ele>1020.9</ele>
        <time>2022-08-29T12:23:07Z</time>
      </trkpt>
      <trkpt lat="45.94835" lon="3.69628">
        <ele>1020.9</ele>
        <time>2022-08-29T12:23:08Z</time>
      </trkpt>
      <trkpt lat="45.94834" lon="3.69627">
        <ele>1020.8</ele>
        <time>2022-08-29T12:23:09Z</time>
      </trkpt>
      <trkpt lat="45.94833" lon="3.69625">
        <ele>1020.8</ele>
        <time>2022-08-29T12:23:10Z</time>
      </trkpt>
      <trkpt lat="45.94832" lon="3.69624">
        <ele>1020.7</ele>
        <time>2022-08-29T12:23:11Z</time>
      </trkpt>
      <trkpt lat="45.94832" lon="3.69623">
        <ele>1020.7</ele>
        <time>2022-08-29T12:23:12Z</time>
      </trkpt>
      <trkpt lat="45.94831" lon="3.69622">
        <ele>1020.7</ele>
        <time>2022-08-29T12:23:13Z</time>
      </trkpt>
      <trkpt lat="45.9483" lon="3.69622">
        <ele>1020.6</ele>
        <time>2022-08-29T12:23:14Z</time>
      </trkpt>
      <trkpt lat="45.94829" lon="3.69622">
        <ele>1020.6</ele>
        <time>2022-08-29T12:23:15Z</time>
      </trkpt>
      <trkpt lat="45.94828" lon="3.69622">
        <ele>1020.5</ele>
        <time>2022-08-29T12:23:16Z</time>
      </trkpt>
      <trkpt lat="45.94827" lon="3.69623">
        <ele>1020.5</ele>
        <time>2022-08-29T12:23:17Z</time>
      </trkpt>
      <trkpt lat="45.94826" lon="3.69623">
        <ele>1020.5</ele>
        <time>2022-08-29T12:23:18Z</time>
      </trkpt>
      <trkpt lat="45.94826" lon="3.69622">
        <ele>1020.5</ele>
        <time>2022-08-29T12:23:19Z</time>
      </trkpt>
      <trkpt lat="45.94826" lon="3.69622">
        <ele>1020.4</ele>
        <time>2022-08-29T12:23:20Z</time>
      </trkpt>
      <trkpt lat="45.94825" lon="3.6962">
        <ele>1020.4</ele>
        <time>2022-08-29T12:23:21Z</time>
      </trkpt>
      <trkpt lat="45.94825" lon="3.69619">
        <ele>1020.3</ele>
        <time>2022-08-29T12:23:22Z</time>
      </trkpt>
      <trkpt lat="45.94824" lon="3.69617">
        <ele>1020.3</ele>
        <time>2022-08-29T12:23:23Z</time>
      </trkpt>
      <trkpt lat="45.94823" lon="3.69616">
        <ele>1020.2</ele>
        <time>2022-08-29T12:23:24Z</time>
      </trkpt>
      <trkpt lat="45.94823" lon="3.69615">
        <ele>1020.2</ele>
        <time>2022-08-29T12:23:25Z</time>
      </trkpt>
      <trkpt lat="45.94821" lon="3.69614">
        <ele>1020.1</ele>
        <time>2022-08-29T12:23:26Z</time>
      </trkpt>
      <trkpt lat="45.9482" lon="3.69613">
        <ele>1020</ele>
        <time>2022-08-29T12:23:27Z</time>
      </trkpt>
      <trkpt lat="45.94818" lon="3.69611">
        <ele>1019.9</ele>
        <time>2022-08-29T12:23:28Z</time>
      </trkpt>
      <trkpt lat="45.94817" lon="3.6961">
        <ele>1019.8</ele>
        <time>2022-08-29T12:23:29Z</time>
      </trkpt>
      <trkpt lat="45.94816" lon="3.69608">
        <ele>1019.7</ele>
        <time>2022-08-29T12:23:30Z</time>
      </trkpt>
      <trkpt lat="45.94814" lon="3.69607">
        <ele>1019.6</ele>
        <time>2022-08-29T12:23:31Z</time>
      </trkpt>
      <trkpt lat="45.94813" lon="3.69606">
        <ele>1019.5</ele>
        <time>2022-08-29T12:23:32Z</time>
      </trkpt>
      <trkpt lat="45.94812" lon="3.69605">
        <ele>1019.4</ele>
        <time>2022-08-29T12:23:33Z</time>
      </trkpt>
      <trkpt lat="45.94811" lon="3.69603">
        <ele>1019.3</ele>
        <time>2022-08-29T12:23:34Z</time>
      </trkpt>
      <trkpt lat="45.9481" lon="3.69601">
        <ele>1019.1</ele>
        <time>2022-08-29T12:23:35Z</time>
      </trkpt>
      <trkpt lat="45.94809" lon="3.696">
        <ele>1019</ele>
        <time>2022-08-29T12:23:36Z</time>
      </trkpt>
      <trkpt lat="45.94808" lon="3.69598">
        <ele>1018.9</ele>
        <time>2022-08-29T12:23:37Z</time>
      </trkpt>
      <trkpt lat="45.94807" lon="3.69597">
        <ele>1018.8</ele>
        <time>2022-08-29T12:23:38Z</time>
      </trkpt>
      <trkpt lat="45.94806" lon="3.69595">
        <ele>1018.7</ele>
        <time>2022-08-29T12:23:39Z</time>
      </trkpt>
      <trkpt lat="45.94806" lon="3.69594">
        <ele>1018.6</ele>
        <time>2022-08-29T12:23:40Z</time>
      </trkpt>
      <trkpt lat="45.94806" lon="3.69593">
        <ele>1018.6</ele>
        <time>2022-08-29T12:23:41Z</time>
      </trkpt>
      <trkpt lat="45.94806" lon="3.69592">
        <ele>1018.5</ele>
        <time>2022-08-29T12:23:42Z</time>
      </trkpt>
      <trkpt lat="45.94807" lon="3.69591">
        <ele>1018.4</ele>
        <time>2022-08-29T12:23:43Z</time>
      </trkpt>
      <trkpt lat="45.94807" lon="3.69589">
        <ele>1018.3</ele>
        <time>2022-08-29T12:23:44Z</time>
      </trkpt>
      <trkpt lat="45.94807" lon="3.69588">
        <ele>1018.2</ele>
        <time>2022-08-29T12:23:45Z</time>
      </trkpt>
      <trkpt lat="45.94807" lon="3.69587">
        <ele>1018.2</ele>
        <time>2022-08-29T12:23:46Z</time>
      </trkpt>
      <trkpt lat="45.94806" lon="3.69586">
        <ele>1018.1</ele>
        <time>2022-08-29T12:23:47Z</time>
      </trkpt>
      <trkpt lat="45.94806" lon="3.69584">
        <ele>1018</ele>
        <time>2022-08-29T12:23:48Z</time>
      </trkpt>
      <trkpt lat="45.94805" lon="3.69583">
        <ele>1017.9</ele>
        <time>2022-08-29T12:23:49Z</time>
      </trkpt>
      <trkpt lat="45.94804" lon="3.69582">
        <ele>1017.8</ele>
        <time>2022-08-29T12:23:50Z</time>
      </trkpt>
      <trkpt lat="45.94804" lon="3.69581">
        <ele>1017.7</ele>
        <time>2022-08-29T12:23:51Z</time>
      </trkpt>
      <trkpt lat="45.94804" lon="3.6958">
        <ele>1017.7</ele>
        <time>2022-08-29T12:23:52Z</time>
      </trkpt>
      <trkpt lat="45.94805" lon="3.69579">
        <ele>1017.6</ele>
        <time>2022-08-29T12:23:53Z</time>
      </trkpt>
      <trkpt lat="45.94805" lon="3.69577">
        <ele>1017.5</ele>
        <time>2022-08-29T12:23:54Z</time>
      </trkpt>
      <trkpt lat="45.94806" lon="3.69576">
        <ele>1017.4</ele>
        <time>2022-08-29T12:23:55Z</time>
      </trkpt>
      <trkpt lat="45.94807" lon="3.69573">
        <ele>1017.2</ele>
        <time>2022-08-29T12:23:56Z</time>
      </trkpt>
      <trkpt lat="45.94807" lon="3.69572">
        <ele>1017.1</ele>
        <time>2022-08-29T12:23:57Z</time>
      </trkpt>
      <trkpt lat="45.94808" lon="3.69571">
        <ele>1017</ele>
        <time>2022-08-29T12:23:58Z</time>
      </trkpt>
      <trkpt lat="45.94809" lon="3.69569">
        <ele>1016.9</ele>
        <time>2022-08-29T12:23:59Z</time>
      </trkpt>
      <trkpt lat="45.94809" lon="3.69568">
        <ele>1016.8</ele>
        <time>2022-08-29T12:24:00Z</time>
      </trkpt>
      <trkpt lat="45.9481" lon="3.69567">
        <ele>1016.7</ele>
        <time>2022-08-29T12:24:01Z</time>
      </trkpt>
      <trkpt lat="45.9481" lon="3.69565">
        <ele>1016.6</ele>
        <time>2022-08-29T12:24:02Z</time>
      </trkpt>
      <trkpt lat="45.9481" lon="3.69564">
        <ele>1016.6</ele>
        <time>2022-08-29T12:24:03Z</time>
      </trkpt>
      <trkpt lat="45.9481" lon="3.69564">
        <ele>1016.6</ele>
        <time>2022-08-29T12:24:04Z</time>
      </trkpt>
      <trkpt lat="45.9481" lon="3.69563">
        <ele>1016.5</ele>
        <time>2022-08-29T12:24:05Z</time>
      </trkpt>
      <trkpt lat="45.9481" lon="3.69562">
        <ele>1016.5</ele>
        <time>2022-08-29T12:24:06Z</time>
      </trkpt>
      <trkpt lat="45.9481" lon="3.69561">
        <ele>1016.4</ele>
        <time>2022-08-29T12:24:07Z</time>
      </trkpt>
      <trkpt lat="45.9481" lon="3.69559">
        <ele>1016.3</ele>
        <time>2022-08-29T12:24:08Z</time>
      </trkpt>
      <trkpt lat="45.9481" lon="3.69557">
        <ele>1016.2</ele>
        <time>2022-08-29T12:24:09Z</time>
      </trkpt>
      <trkpt lat="45.9481" lon="3.69554">
        <ele>1016</ele>
        <time>2022-08-29T12:24:11Z</time>
      </trkpt>
      <trkpt lat="45.9481" lon="3.69552">
        <ele>1016</ele>
        <time>2022-08-29T12:24:12Z</time>
      </trkpt>
      <trkpt lat="45.9481" lon="3.69549">
        <ele>1015.8</ele>
        <time>2022-08-29T12:24:13Z</time>
      </trkpt>
      <trkpt lat="45.9481" lon="3.69548">
        <ele>1015.8</ele>
        <time>2022-08-29T12:24:14Z</time>
      </trkpt>
      <trkpt lat="45.9481" lon="3.69547">
        <ele>1015.7</ele>
        <time>2022-08-29T12:24:15Z</time>
      </trkpt>
      <trkpt lat="45.94809" lon="3.69544">
        <ele>1015.5</ele>
        <time>2022-08-29T12:24:17Z</time>
      </trkpt>
      <trkpt lat="45.94808" lon="3.69542">
        <ele>1015.4</ele>
        <time>2022-08-29T12:24:18Z</time>
      </trkpt>
      <trkpt lat="45.94807" lon="3.69541">
        <ele>1015.3</ele>
        <time>2022-08-29T12:24:19Z</time>
      </trkpt>
      <trkpt lat="45.94806" lon="3.69539">
        <ele>1015.2</ele>
        <time>2022-08-29T12:24:20Z</time>
      </trkpt>
      <trkpt lat="45.94805" lon="3.69537">
        <ele>1015.1</ele>
        <time>2022-08-29T12:24:21Z</time>
      </trkpt>
      <trkpt lat="45.94804" lon="3.69535">
        <ele>1014.9</ele>
        <time>2022-08-29T12:24:22Z</time>
      </trkpt>
      <trkpt lat="45.94803" lon="3.69534">
        <ele>1014.8</ele>
        <time>2022-08-29T12:24:23Z</time>
      </trkpt>
      <trkpt lat="45.94801" lon="3.69533">
        <ele>1014.7</ele>
        <time>2022-08-29T12:24:24Z</time>
      </trkpt>
      <trkpt lat="45.948" lon="3.69531">
        <ele>1014.5</ele>
        <time>2022-08-29T12:24:25Z</time>
      </trkpt>
      <trkpt lat="45.94797" lon="3.69529">
        <ele>1014.3</ele>
        <time>2022-08-29T12:24:26Z</time>
      </trkpt>
      <trkpt lat="45.94797" lon="3.69528">
        <ele>1014.2</ele>
        <time>2022-08-29T12:24:27Z</time>
      </trkpt>
      <trkpt lat="45.94795" lon="3.69527">
        <ele>1014</ele>
        <time>2022-08-29T12:24:28Z</time>
      </trkpt>
      <trkpt lat="45.94793" lon="3.69526">
        <ele>1013.8</ele>
        <time>2022-08-29T12:24:29Z</time>
      </trkpt>
      <trkpt lat="45.94792" lon="3.69525">
        <ele>1013.7</ele>
        <time>2022-08-29T12:24:30Z</time>
      </trkpt>
      <trkpt lat="45.94792" lon="3.69524">
        <ele>1013.6</ele>
        <time>2022-08-29T12:24:31Z</time>
      </trkpt>
      <trkpt lat="45.94792" lon="3.69524">
        <ele>1013.6</ele>
        <time>2022-08-29T12:24:32Z</time>
      </trkpt>
      <trkpt lat="45.94792" lon="3.69523">
        <ele>1013.5</ele>
        <time>2022-08-29T12:24:33Z</time>
      </trkpt>
      <trkpt lat="45.94792" lon="3.69522">
        <ele>1013.4</ele>
        <time>2022-08-29T12:24:34Z</time>
      </trkpt>
      <trkpt lat="45.94793" lon="3.6952">
        <ele>1013.3</ele>
        <time>2022-08-29T12:24:35Z</time>
      </trkpt>
      <trkpt lat="45.94794" lon="3.69518">
        <ele>1013.1</ele>
        <time>2022-08-29T12:24:36Z</time>
      </trkpt>
      <trkpt lat="45.94796" lon="3.69515">
        <ele>1012.8</ele>
        <time>2022-08-29T12:24:37Z</time>
      </trkpt>
      <trkpt lat="45.94797" lon="3.69513">
        <ele>1012.7</ele>
        <time>2022-08-29T12:24:38Z</time>
      </trkpt>
      <trkpt lat="45.94799" lon="3.6951">
        <ele>1012.3</ele>
        <time>2022-08-29T12:24:39Z</time>
      </trkpt>
      <trkpt lat="45.94802" lon="3.69507">
        <ele>1012</ele>
        <time>2022-08-29T12:24:40Z</time>
      </trkpt>
      <trkpt lat="45.94803" lon="3.69506">
        <ele>1011.8</ele>
        <time>2022-08-29T12:24:41Z</time>
      </trkpt>
      <trkpt lat="45.94805" lon="3.69505">
        <ele>1011.6</ele>
        <time>2022-08-29T12:24:42Z</time>
      </trkpt>
      <trkpt lat="45.94806" lon="3.69504">
        <ele>1011.5</ele>
        <time>2022-08-29T12:24:43Z</time>
      </trkpt>
      <trkpt lat="45.94807" lon="3.69503">
        <ele>1011.3</ele>
        <time>2022-08-29T12:24:44Z</time>
      </trkpt>
      <trkpt lat="45.94808" lon="3.69502">
        <ele>1011.2</ele>
        <time>2022-08-29T12:24:45Z</time>
      </trkpt>
      <trkpt lat="45.94808" lon="3.69501">
        <ele>1011.2</ele>
        <time>2022-08-29T12:24:46Z</time>
      </trkpt>
      <trkpt lat="45.94809" lon="3.695">
        <ele>1011.1</ele>
        <time>2022-08-29T12:24:47Z</time>
      </trkpt>
      <trkpt lat="45.94809" lon="3.69499">
        <ele>1011</ele>
        <time>2022-08-29T12:24:48Z</time>
      </trkpt>
      <trkpt lat="45.94809" lon="3.69498">
        <ele>1011</ele>
        <time>2022-08-29T12:24:49Z</time>
      </trkpt>
      <trkpt lat="45.94809" lon="3.69498">
        <ele>1010.9</ele>
        <time>2022-08-29T12:24:50Z</time>
      </trkpt>
      <trkpt lat="45.94809" lon="3.69497">
        <ele>1010.8</ele>
        <time>2022-08-29T12:24:51Z</time>
      </trkpt>
      <trkpt lat="45.94809" lon="3.69496">
        <ele>1010.8</ele>
        <time>2022-08-29T12:24:52Z</time>
      </trkpt>
      <trkpt lat="45.94808" lon="3.69495">
        <ele>1010.7</ele>
        <time>2022-08-29T12:24:53Z</time>
      </trkpt>
      <trkpt lat="45.94807" lon="3.69494">
        <ele>1010.6</ele>
        <time>2022-08-29T12:24:54Z</time>
      </trkpt>
      <trkpt lat="45.94806" lon="3.69493">
        <ele>1010.4</ele>
        <time>2022-08-29T12:24:55Z</time>
      </trkpt>
      <trkpt lat="45.94804" lon="3.69492">
        <ele>1010.3</ele>
        <time>2022-08-29T12:24:56Z</time>
      </trkpt>
      <trkpt lat="45.94803" lon="3.6949">
        <ele>1010.1</ele>
        <time>2022-08-29T12:24:57Z</time>
      </trkpt>
      <trkpt lat="45.94802" lon="3.69489">
        <ele>1010</ele>
        <time>2022-08-29T12:24:58Z</time>
      </trkpt>
      <trkpt lat="45.94802" lon="3.69488">
        <ele>1009.9</ele>
        <time>2022-08-29T12:24:59Z</time>
      </trkpt>
      <trkpt lat="45.94802" lon="3.69486">
        <ele>1009.8</ele>
        <time>2022-08-29T12:25:00Z</time>
      </trkpt>
      <trkpt lat="45.94803" lon="3.69485">
        <ele>1009.7</ele>
        <time>2022-08-29T12:25:01Z</time>
      </trkpt>
      <trkpt lat="45.94803" lon="3.69484">
        <ele>1009.6</ele>
        <time>2022-08-29T12:25:02Z</time>
      </trkpt>
      <trkpt lat="45.94803" lon="3.69482">
        <ele>1009.5</ele>
        <time>2022-08-29T12:25:03Z</time>
      </trkpt>
      <trkpt lat="45.94803" lon="3.69481">
        <ele>1009.4</ele>
        <time>2022-08-29T12:25:04Z</time>
      </trkpt>
      <trkpt lat="45.94802" lon="3.6948">
        <ele>1009.4</ele>
        <time>2022-08-29T12:25:05Z</time>
      </trkpt>
      <trkpt lat="45.94802" lon="3.69479">
        <ele>1009.3</ele>
        <time>2022-08-29T12:25:06Z</time>
      </trkpt>
      <trkpt lat="45.94802" lon="3.69477">
        <ele>1009.2</ele>
        <time>2022-08-29T12:25:07Z</time>
      </trkpt>
      <trkpt lat="45.94802" lon="3.69476">
        <ele>1009.1</ele>
        <time>2022-08-29T12:25:08Z</time>
      </trkpt>
      <trkpt lat="45.94803" lon="3.69474">
        <ele>1009</ele>
        <time>2022-08-29T12:25:09Z</time>
      </trkpt>
      <trkpt lat="45.94805" lon="3.69471">
        <ele>1008.8</ele>
        <time>2022-08-29T12:25:10Z</time>
      </trkpt>
      <trkpt lat="45.94805" lon="3.6947">
        <ele>1008.7</ele>
        <time>2022-08-29T12:25:11Z</time>
      </trkpt>
      <trkpt lat="45.94806" lon="3.69469">
        <ele>1008.6</ele>
        <time>2022-08-29T12:25:12Z</time>
      </trkpt>
      <trkpt lat="45.94807" lon="3.69468">
        <ele>1008.5</ele>
        <time>2022-08-29T12:25:13Z</time>
      </trkpt>
      <trkpt lat="45.94807" lon="3.69466">
        <ele>1008.4</ele>
        <time>2022-08-29T12:25:14Z</time>
      </trkpt>
      <trkpt lat="45.94807" lon="3.69464">
        <ele>1008.3</ele>
        <time>2022-08-29T12:25:15Z</time>
      </trkpt>
      <trkpt lat="45.94808" lon="3.69463">
        <ele>1008.3</ele>
        <time>2022-08-29T12:25:16Z</time>
      </trkpt>
      <trkpt lat="45.94808" lon="3.69462">
        <ele>1008.2</ele>
        <time>2022-08-29T12:25:17Z</time>
      </trkpt>
      <trkpt lat="45.94808" lon="3.69461">
        <ele>1008.1</ele>
        <time>2022-08-29T12:25:18Z</time>
      </trkpt>
      <trkpt lat="45.94808" lon="3.6946">
        <ele>1008.1</ele>
        <time>2022-08-29T12:25:19Z</time>
      </trkpt>
      <trkpt lat="45.94807" lon="3.69459">
        <ele>1008</ele>
        <time>2022-08-29T12:25:20Z</time>
      </trkpt>
      <trkpt lat="45.94807" lon="3.69457">
        <ele>1007.9</ele>
        <time>2022-08-29T12:25:21Z</time>
      </trkpt>
      <trkpt lat="45.94808" lon="3.69456">
        <ele>1007.8</ele>
        <time>2022-08-29T12:25:22Z</time>
      </trkpt>
      <trkpt lat="45.94808" lon="3.69454">
        <ele>1007.7</ele>
        <time>2022-08-29T12:25:23Z</time>
      </trkpt>
      <trkpt lat="45.94808" lon="3.69453">
        <ele>1007.7</ele>
        <time>2022-08-29T12:25:24Z</time>
      </trkpt>
      <trkpt lat="45.94808" lon="3.69452">
        <ele>1007.6</ele>
        <time>2022-08-29T12:25:25Z</time>
      </trkpt>
      <trkpt lat="45.94808" lon="3.69451">
        <ele>1007.6</ele>
        <time>2022-08-29T12:25:26Z</time>
      </trkpt>
      <trkpt lat="45.94808" lon="3.6945">
        <ele>1007.5</ele>
        <time>2022-08-29T12:25:27Z</time>
      </trkpt>
      <trkpt lat="45.94808" lon="3.69448">
        <ele>1007.4</ele>
        <time>2022-08-29T12:25:28Z</time>
      </trkpt>
      <trkpt lat="45.94808" lon="3.69447">
        <ele>1007.4</ele>
        <time>2022-08-29T12:25:29Z</time>
      </trkpt>
      <trkpt lat="45.94808" lon="3.69445">
        <ele>1007.3</ele>
        <time>2022-08-29T12:25:30Z</time>
      </trkpt>
      <trkpt lat="45.94808" lon="3.69444">
        <ele>1007.2</ele>
        <time>2022-08-29T12:25:31Z</time>
      </trkpt>
      <trkpt lat="45.94808" lon="3.69443">
        <ele>1007.1</ele>
        <time>2022-08-29T12:25:33Z</time>
      </trkpt>
      <trkpt lat="45.94807" lon="3.69442">
        <ele>1007.1</ele>
        <time>2022-08-29T12:25:34Z</time>
      </trkpt>
      <trkpt lat="45.94807" lon="3.69442">
        <ele>1007.1</ele>
        <time>2022-08-29T12:25:35Z</time>
      </trkpt>
      <trkpt lat="45.94806" lon="3.69442">
        <ele>1007</ele>
        <time>2022-08-29T12:25:36Z</time>
      </trkpt>
      <trkpt lat="45.94806" lon="3.69441">
        <ele>1007</ele>
        <time>2022-08-29T12:25:37Z</time>
      </trkpt>
      <trkpt lat="45.94806" lon="3.69441">
        <ele>1007</ele>
        <time>2022-08-29T12:25:38Z</time>
      </trkpt>
      <trkpt lat="45.94806" lon="3.6944">
        <ele>1006.9</ele>
        <time>2022-08-29T12:25:39Z</time>
      </trkpt>
      <trkpt lat="45.94806" lon="3.6944">
        <ele>1006.9</ele>
        <time>2022-08-29T12:25:40Z</time>
      </trkpt>
      <trkpt lat="45.94806" lon="3.6944">
        <ele>1006.9</ele>
        <time>2022-08-29T12:25:41Z</time>
      </trkpt>
      <trkpt lat="45.94806" lon="3.6944">
        <ele>1006.9</ele>
        <time>2022-08-29T12:25:42Z</time>
      </trkpt>
      <trkpt lat="45.94806" lon="3.6944">
        <ele>1006.9</ele>
        <time>2022-08-29T12:25:43Z</time>
      </trkpt>
      <trkpt lat="45.94807" lon="3.6944">
        <ele>1006.9</ele>
        <time>2022-08-29T12:25:44Z</time>
      </trkpt>
      <trkpt lat="45.94806" lon="3.6944">
        <ele>1006.9</ele>
        <time>2022-08-29T12:25:45Z</time>
      </trkpt>
      <trkpt lat="45.94806" lon="3.6944">
        <ele>1006.8</ele>
        <time>2022-08-29T12:25:46Z</time>
      </trkpt>
      <trkpt lat="45.94806" lon="3.69439">
        <ele>1006.8</ele>
        <time>2022-08-29T12:25:47Z</time>
      </trkpt>
      <trkpt lat="45.94806" lon="3.69439">
        <ele>1006.8</ele>
        <time>2022-08-29T12:25:48Z</time>
      </trkpt>
      <trkpt lat="45.94806" lon="3.69439">
        <ele>1006.8</ele>
        <time>2022-08-29T12:25:49Z</time>
      </trkpt>
      <trkpt lat="45.94807" lon="3.69439">
        <ele>1006.8</ele>
        <time>2022-08-29T12:25:50Z</time>
      </trkpt>
      <trkpt lat="45.94807" lon="3.69438">
        <ele>1006.8</ele>
        <time>2022-08-29T12:25:51Z</time>
      </trkpt>
      <trkpt lat="45.94806" lon="3.69438">
        <ele>1006.8</ele>
        <time>2022-08-29T12:25:52Z</time>
      </trkpt>
      <trkpt lat="45.94806" lon="3.69438">
        <ele>1006.8</ele>
        <time>2022-08-29T12:25:53Z</time>
      </trkpt>
      <trkpt lat="45.94806" lon="3.69438">
        <ele>1006.8</ele>
        <time>2022-08-29T12:25:54Z</time>
      </trkpt>
      <trkpt lat="45.94806" lon="3.69438">
        <ele>1006.7</ele>
        <time>2022-08-29T12:25:55Z</time>
      </trkpt>
      <trkpt lat="45.94806" lon="3.69438">
        <ele>1006.7</ele>
        <time>2022-08-29T12:25:56Z</time>
      </trkpt>
      <trkpt lat="45.94806" lon="3.69438">
        <ele>1006.7</ele>
        <time>2022-08-29T12:25:57Z</time>
      </trkpt>
      <trkpt lat="45.94806" lon="3.69438">
        <ele>1006.7</ele>
        <time>2022-08-29T12:25:58Z</time>
      </trkpt>
      <trkpt lat="45.94806" lon="3.69438">
        <ele>1006.7</ele>
        <time>2022-08-29T12:25:59Z</time>
      </trkpt>
      <trkpt lat="45.94806" lon="3.69438">
        <ele>1006.7</ele>
        <time>2022-08-29T12:26:00Z</time>
      </trkpt>
      <trkpt lat="45.94806" lon="3.69438">
        <ele>1006.7</ele>
        <time>2022-08-29T12:26:01Z</time>
      </trkpt>
      <trkpt lat="45.94806" lon="3.69438">
        <ele>1006.7</ele>
        <time>2022-08-29T12:26:02Z</time>
      </trkpt>
      <trkpt lat="45.94806" lon="3.69438">
        <ele>1006.7</ele>
        <time>2022-08-29T12:26:03Z</time>
      </trkpt>
      <trkpt lat="45.94806" lon="3.69438">
        <ele>1006.7</ele>
        <time>2022-08-29T12:26:04Z</time>
      </trkpt>
      <trkpt lat="45.94806" lon="3.69438">
        <ele>1006.7</ele>
        <time>2022-08-29T12:26:05Z</time>
      </trkpt>
      <trkpt lat="45.94806" lon="3.69438">
        <ele>1006.7</ele>
        <time>2022-08-29T12:26:06Z</time>
      </trkpt>
      <trkpt lat="45.94806" lon="3.69438">
        <ele>1006.7</ele>
        <time>2022-08-29T12:26:07Z</time>
      </trkpt>
      <trkpt lat="45.94806" lon="3.69438">
        <ele>1006.7</ele>
        <time>2022-08-29T12:26:08Z</time>
      </trkpt>
      <trkpt lat="45.94806" lon="3.69438">
        <ele>1006.7</ele>
        <time>2022-08-29T12:26:09Z</time>
      </trkpt>
      <trkpt lat="45.94806" lon="3.69438">
        <ele>1006.7</ele>
        <time>2022-08-29T12:26:10Z</time>
      </trkpt>
      <trkpt lat="45.94808" lon="3.69437">
        <ele>1006.6</ele>
        <time>2022-08-29T12:26:11Z</time>
      </trkpt>
      <trkpt lat="45.94809" lon="3.69435">
        <ele>1006.5</ele>
        <time>2022-08-29T12:26:12Z</time>
      </trkpt>
      <trkpt lat="45.94809" lon="3.69434">
        <ele>1006.4</ele>
        <time>2022-08-29T12:26:13Z</time>
      </trkpt>
      <trkpt lat="45.94809" lon="3.69433">
        <ele>1006.3</ele>
        <time>2022-08-29T12:26:14Z</time>
      </trkpt>
      <trkpt lat="45.9481" lon="3.69432">
        <ele>1006.3</ele>
        <time>2022-08-29T12:26:15Z</time>
      </trkpt>
      <trkpt lat="45.9481" lon="3.6943">
        <ele>1006.2</ele>
        <time>2022-08-29T12:26:16Z</time>
      </trkpt>
      <trkpt lat="45.94811" lon="3.69428">
        <ele>1006</ele>
        <time>2022-08-29T12:26:17Z</time>
      </trkpt>
      <trkpt lat="45.94811" lon="3.69426">
        <ele>1005</ele>
        <time>2022-08-29T12:26:18Z</time>
      </trkpt>
      <trkpt lat="45.94812" lon="3.69424">
        <ele>1004.9</ele>
        <time>2022-08-29T12:26:19Z</time>
      </trkpt>
      <trkpt lat="45.94812" lon="3.69422">
        <ele>1004.8</ele>
        <time>2022-08-29T12:26:20Z</time>
      </trkpt>
      <trkpt lat="45.94814" lon="3.69421">
        <ele>1004.6</ele>
        <time>2022-08-29T12:26:22Z</time>
      </trkpt>
      <trkpt lat="45.94817" lon="3.69422">
        <ele>1004.4</ele>
        <time>2022-08-29T12:26:24Z</time>
      </trkpt>
      <trkpt lat="45.94819" lon="3.69422">
        <ele>1004.3</ele>
        <time>2022-08-29T12:26:25Z</time>
      </trkpt>
      <trkpt lat="45.9482" lon="3.69421">
        <ele>1004.2</ele>
        <time>2022-08-29T12:26:26Z</time>
      </trkpt>
      <trkpt lat="45.94821" lon="3.69421">
        <ele>1004.1</ele>
        <time>2022-08-29T12:26:27Z</time>
      </trkpt>
      <trkpt lat="45.94822" lon="3.6942">
        <ele>1004</ele>
        <time>2022-08-29T12:26:28Z</time>
      </trkpt>
      <trkpt lat="45.94822" lon="3.69419">
        <ele>1004</ele>
        <time>2022-08-29T12:26:29Z</time>
      </trkpt>
      <trkpt lat="45.94823" lon="3.69418">
        <ele>1003.9</ele>
        <time>2022-08-29T12:26:30Z</time>
      </trkpt>
      <trkpt lat="45.94823" lon="3.69418">
        <ele>1003.9</ele>
        <time>2022-08-29T12:26:31Z</time>
      </trkpt>
      <trkpt lat="45.94824" lon="3.69418">
        <ele>1003.9</ele>
        <time>2022-08-29T12:26:32Z</time>
      </trkpt>
      <trkpt lat="45.94825" lon="3.69418">
        <ele>1003.8</ele>
        <time>2022-08-29T12:26:33Z</time>
      </trkpt>
      <trkpt lat="45.94825" lon="3.69418">
        <ele>1003.8</ele>
        <time>2022-08-29T12:26:34Z</time>
      </trkpt>
      <trkpt lat="45.94826" lon="3.69418">
        <ele>1003.7</ele>
        <time>2022-08-29T12:26:35Z</time>
      </trkpt>
      <trkpt lat="45.94827" lon="3.69417">
        <ele>1003.7</ele>
        <time>2022-08-29T12:26:36Z</time>
      </trkpt>
      <trkpt lat="45.94828" lon="3.69417">
        <ele>1003.6</ele>
        <time>2022-08-29T12:26:37Z</time>
      </trkpt>
      <trkpt lat="45.94829" lon="3.69416">
        <ele>1003.5</ele>
        <time>2022-08-29T12:26:38Z</time>
      </trkpt>
      <trkpt lat="45.9483" lon="3.69416">
        <ele>1003.4</ele>
        <time>2022-08-29T12:26:39Z</time>
      </trkpt>
      <trkpt lat="45.94831" lon="3.69415">
        <ele>1003.4</ele>
        <time>2022-08-29T12:26:40Z</time>
      </trkpt>
      <trkpt lat="45.94831" lon="3.69414">
        <ele>1003.3</ele>
        <time>2022-08-29T12:26:41Z</time>
      </trkpt>
      <trkpt lat="45.94831" lon="3.69413">
        <ele>1003.3</ele>
        <time>2022-08-29T12:26:42Z</time>
      </trkpt>
      <trkpt lat="45.94831" lon="3.69412">
        <ele>1003.2</ele>
        <time>2022-08-29T12:26:43Z</time>
      </trkpt>
      <trkpt lat="45.94832" lon="3.69411">
        <ele>1003.2</ele>
        <time>2022-08-29T12:26:44Z</time>
      </trkpt>
      <trkpt lat="45.94833" lon="3.6941">
        <ele>1003.1</ele>
        <time>2022-08-29T12:26:45Z</time>
      </trkpt>
      <trkpt lat="45.94834" lon="3.69409">
        <ele>1003</ele>
        <time>2022-08-29T12:26:46Z</time>
      </trkpt>
      <trkpt lat="45.94836" lon="3.69408">
        <ele>1002.9</ele>
        <time>2022-08-29T12:26:47Z</time>
      </trkpt>
      <trkpt lat="45.94837" lon="3.69408">
        <ele>1002.8</ele>
        <time>2022-08-29T12:26:48Z</time>
      </trkpt>
      <trkpt lat="45.94838" lon="3.69408">
        <ele>1002.8</ele>
        <time>2022-08-29T12:26:49Z</time>
      </trkpt>
      <trkpt lat="45.94838" lon="3.69407">
        <ele>1002.7</ele>
        <time>2022-08-29T12:26:50Z</time>
      </trkpt>
      <trkpt lat="45.94839" lon="3.69407">
        <ele>1002.7</ele>
        <time>2022-08-29T12:26:51Z</time>
      </trkpt>
      <trkpt lat="45.9484" lon="3.69407">
        <ele>1002.6</ele>
        <time>2022-08-29T12:26:52Z</time>
      </trkpt>
      <trkpt lat="45.94841" lon="3.69407">
        <ele>1002.6</ele>
        <time>2022-08-29T12:26:53Z</time>
      </trkpt>
      <trkpt lat="45.94842" lon="3.69407">
        <ele>1002.5</ele>
        <time>2022-08-29T12:26:54Z</time>
      </trkpt>
      <trkpt lat="45.94843" lon="3.69407">
        <ele>1002.5</ele>
        <time>2022-08-29T12:26:55Z</time>
      </trkpt>
      <trkpt lat="45.94844" lon="3.69406">
        <ele>1002.4</ele>
        <time>2022-08-29T12:26:56Z</time>
      </trkpt>
      <trkpt lat="45.94845" lon="3.69406">
        <ele>1002.4</ele>
        <time>2022-08-29T12:26:57Z</time>
      </trkpt>
      <trkpt lat="45.94846" lon="3.69406">
        <ele>1002.3</ele>
        <time>2022-08-29T12:26:58Z</time>
      </trkpt>
      <trkpt lat="45.94847" lon="3.69405">
        <ele>1002.3</ele>
        <time>2022-08-29T12:26:59Z</time>
      </trkpt>
      <trkpt lat="45.94848" lon="3.69405">
        <ele>1002.2</ele>
        <time>2022-08-29T12:27:00Z</time>
      </trkpt>
      <trkpt lat="45.94849" lon="3.69404">
        <ele>1002.2</ele>
        <time>2022-08-29T12:27:01Z</time>
      </trkpt>
      <trkpt lat="45.9485" lon="3.69404">
        <ele>1002.1</ele>
        <time>2022-08-29T12:27:02Z</time>
      </trkpt>
      <trkpt lat="45.9485" lon="3.69404">
        <ele>1002.1</ele>
        <time>2022-08-29T12:27:03Z</time>
      </trkpt>
      <trkpt lat="45.94851" lon="3.69403">
        <ele>1002.1</ele>
        <time>2022-08-29T12:27:04Z</time>
      </trkpt>
      <trkpt lat="45.94852" lon="3.69403">
        <ele>1002</ele>
        <time>2022-08-29T12:27:05Z</time>
      </trkpt>
      <trkpt lat="45.94853" lon="3.69402">
        <ele>1002</ele>
        <time>2022-08-29T12:27:06Z</time>
      </trkpt>
      <trkpt lat="45.94854" lon="3.69401">
        <ele>1001.9</ele>
        <time>2022-08-29T12:27:07Z</time>
      </trkpt>
      <trkpt lat="45.94855" lon="3.694">
        <ele>1001.8</ele>
        <time>2022-08-29T12:27:08Z</time>
      </trkpt>
      <trkpt lat="45.94857" lon="3.69399">
        <ele>1001.8</ele>
        <time>2022-08-29T12:27:09Z</time>
      </trkpt>
      <trkpt lat="45.94859" lon="3.69397">
        <ele>1001.7</ele>
        <time>2022-08-29T12:27:10Z</time>
      </trkpt>
      <trkpt lat="45.9486" lon="3.69396">
        <ele>1001.6</ele>
        <time>2022-08-29T12:27:11Z</time>
      </trkpt>
      <trkpt lat="45.94863" lon="3.69394">
        <ele>1001.5</ele>
        <time>2022-08-29T12:27:12Z</time>
      </trkpt>
      <trkpt lat="45.94863" lon="3.69394">
        <ele>1001.5</ele>
        <time>2022-08-29T12:27:13Z</time>
      </trkpt>
      <trkpt lat="45.94865" lon="3.69392">
        <ele>1001.4</ele>
        <time>2022-08-29T12:27:14Z</time>
      </trkpt>
      <trkpt lat="45.94866" lon="3.69391">
        <ele>1001.3</ele>
        <time>2022-08-29T12:27:15Z</time>
      </trkpt>
      <trkpt lat="45.94868" lon="3.6939">
        <ele>1001.3</ele>
        <time>2022-08-29T12:27:16Z</time>
      </trkpt>
      <trkpt lat="45.94869" lon="3.6939">
        <ele>1001.2</ele>
        <time>2022-08-29T12:27:17Z</time>
      </trkpt>
      <trkpt lat="45.94871" lon="3.69389">
        <ele>1001.1</ele>
        <time>2022-08-29T12:27:18Z</time>
      </trkpt>
      <trkpt lat="45.94872" lon="3.69389">
        <ele>1001.1</ele>
        <time>2022-08-29T12:27:19Z</time>
      </trkpt>
      <trkpt lat="45.94873" lon="3.69389">
        <ele>1001</ele>
        <time>2022-08-29T12:27:20Z</time>
      </trkpt>
      <trkpt lat="45.94874" lon="3.69389">
        <ele>1001</ele>
        <time>2022-08-29T12:27:21Z</time>
      </trkpt>
      <trkpt lat="45.94875" lon="3.69389">
        <ele>1001</ele>
        <time>2022-08-29T12:27:22Z</time>
      </trkpt>
      <trkpt lat="45.94876" lon="3.69388">
        <ele>1000.9</ele>
        <time>2022-08-29T12:27:23Z</time>
      </trkpt>
      <trkpt lat="45.94877" lon="3.69388">
        <ele>1000.9</ele>
        <time>2022-08-29T12:27:24Z</time>
      </trkpt>
      <trkpt lat="45.94878" lon="3.69387">
        <ele>1000.8</ele>
        <time>2022-08-29T12:27:25Z</time>
      </trkpt>
      <trkpt lat="45.94878" lon="3.69387">
        <ele>1000.8</ele>
        <time>2022-08-29T12:27:26Z</time>
      </trkpt>
      <trkpt lat="45.94878" lon="3.69388">
        <ele>1000.8</ele>
        <time>2022-08-29T12:27:27Z</time>
      </trkpt>
      <trkpt lat="45.94878" lon="3.69388">
        <ele>1000.8</ele>
        <time>2022-08-29T12:27:28Z</time>
      </trkpt>
      <trkpt lat="45.94878" lon="3.69389">
        <ele>1000.8</ele>
        <time>2022-08-29T12:27:29Z</time>
      </trkpt>
      <trkpt lat="45.94877" lon="3.69389">
        <ele>1000.8</ele>
        <time>2022-08-29T12:27:30Z</time>
      </trkpt>
      <trkpt lat="45.94877" lon="3.6939">
        <ele>1000.7</ele>
        <time>2022-08-29T12:27:31Z</time>
      </trkpt>
      <trkpt lat="45.94876" lon="3.69391">
        <ele>1000.7</ele>
        <time>2022-08-29T12:27:32Z</time>
      </trkpt>
      <trkpt lat="45.94875" lon="3.69391">
        <ele>1000.7</ele>
        <time>2022-08-29T12:27:33Z</time>
      </trkpt>
      <trkpt lat="45.94875" lon="3.69392">
        <ele>1000.7</ele>
        <time>2022-08-29T12:27:34Z</time>
      </trkpt>
      <trkpt lat="45.94875" lon="3.69392">
        <ele>1000.7</ele>
        <time>2022-08-29T12:27:35Z</time>
      </trkpt>
      <trkpt lat="45.94874" lon="3.69392">
        <ele>1000.7</ele>
        <time>2022-08-29T12:27:36Z</time>
      </trkpt>
      <trkpt lat="45.94874" lon="3.69392">
        <ele>1000.6</ele>
        <time>2022-08-29T12:27:37Z</time>
      </trkpt>
      <trkpt lat="45.94874" lon="3.69392">
        <ele>1000.6</ele>
        <time>2022-08-29T12:27:38Z</time>
      </trkpt>
      <trkpt lat="45.94873" lon="3.69392">
        <ele>1000.6</ele>
        <time>2022-08-29T12:27:39Z</time>
      </trkpt>
      <trkpt lat="45.94874" lon="3.69391">
        <ele>1000.6</ele>
        <time>2022-08-29T12:27:40Z</time>
      </trkpt>
      <trkpt lat="45.94874" lon="3.69391">
        <ele>1000.6</ele>
        <time>2022-08-29T12:27:41Z</time>
      </trkpt>
      <trkpt lat="45.94874" lon="3.6939">
        <ele>1000.6</ele>
        <time>2022-08-29T12:27:42Z</time>
      </trkpt>
      <trkpt lat="45.94874" lon="3.6939">
        <ele>1000.6</ele>
        <time>2022-08-29T12:27:43Z</time>
      </trkpt>
      <trkpt lat="45.94874" lon="3.6939">
        <ele>1000.6</ele>
        <time>2022-08-29T12:27:44Z</time>
      </trkpt>
      <trkpt lat="45.94874" lon="3.6939">
        <ele>1000.6</ele>
        <time>2022-08-29T12:27:45Z</time>
      </trkpt>
      <trkpt lat="45.94874" lon="3.69389">
        <ele>1000.6</ele>
        <time>2022-08-29T12:27:46Z</time>
      </trkpt>
      <trkpt lat="45.94875" lon="3.69389">
        <ele>1000.6</ele>
        <time>2022-08-29T12:27:47Z</time>
      </trkpt>
      <trkpt lat="45.94875" lon="3.69389">
        <ele>1000.6</ele>
        <time>2022-08-29T12:27:48Z</time>
      </trkpt>
      <trkpt lat="45.94875" lon="3.69389">
        <ele>1000.6</ele>
        <time>2022-08-29T12:27:49Z</time>
      </trkpt>
      <trkpt lat="45.94875" lon="3.69389">
        <ele>1000.6</ele>
        <time>2022-08-29T12:27:50Z</time>
      </trkpt>
      <trkpt lat="45.94875" lon="3.69389">
        <ele>1000.6</ele>
        <time>2022-08-29T12:27:51Z</time>
      </trkpt>
      <trkpt lat="45.94875" lon="3.69389">
        <ele>1000.6</ele>
        <time>2022-08-29T12:27:52Z</time>
      </trkpt>
      <trkpt lat="45.94875" lon="3.69389">
        <ele>1000.6</ele>
        <time>2022-08-29T12:27:53Z</time>
      </trkpt>
      <trkpt lat="45.94874" lon="3.69389">
        <ele>1000.6</ele>
        <time>2022-08-29T12:27:54Z</time>
      </trkpt>
      <trkpt lat="45.94874" lon="3.69389">
        <ele>1000.6</ele>
        <time>2022-08-29T12:27:55Z</time>
      </trkpt>
      <trkpt lat="45.94874" lon="3.69389">
        <ele>1000.6</ele>
        <time>2022-08-29T12:27:56Z</time>
      </trkpt>
      <trkpt lat="45.94874" lon="3.69389">
        <ele>1000.6</ele>
        <time>2022-08-29T12:27:57Z</time>
      </trkpt>
      <trkpt lat="45.94874" lon="3.69389">
        <ele>1000.6</ele>
        <time>2022-08-29T12:27:58Z</time>
      </trkpt>
      <trkpt lat="45.94874" lon="3.69389">
        <ele>1000.6</ele>
        <time>2022-08-29T12:27:59Z</time>
      </trkpt>
      <trkpt lat="45.94874" lon="3.69389">
        <ele>1000.6</ele>
        <time>2022-08-29T12:28:00Z</time>
      </trkpt>
      <trkpt lat="45.94874" lon="3.69389">
        <ele>1000.6</ele>
        <time>2022-08-29T12:28:01Z</time>
      </trkpt>
      <trkpt lat="45.94874" lon="3.69389">
        <ele>1000.6</ele>
        <time>2022-08-29T12:28:02Z</time>
      </trkpt>
      <trkpt lat="45.94874" lon="3.69389">
        <ele>1000.6</ele>
        <time>2022-08-29T12:28:03Z</time>
      </trkpt>
      <trkpt lat="45.94874" lon="3.69389">
        <ele>1000.6</ele>
        <time>2022-08-29T12:28:04Z</time>
      </trkpt>
      <trkpt lat="45.94874" lon="3.69389">
        <ele>1000.6</ele>
        <time>2022-08-29T12:28:05Z</time>
      </trkpt>
      <trkpt lat="45.94874" lon="3.69389">
        <ele>1000.6</ele>
        <time>2022-08-29T12:28:06Z</time>
      </trkpt>
      <trkpt lat="45.94874" lon="3.69389">
        <ele>1000.6</ele>
        <time>2022-08-29T12:28:07Z</time>
      </trkpt>
      <trkpt lat="45.94874" lon="3.69389">
        <ele>1000.6</ele>
        <time>2022-08-29T12:28:08Z</time>
      </trkpt>
      <trkpt lat="45.94874" lon="3.69389">
        <ele>1000.6</ele>
        <time>2022-08-29T12:28:09Z</time>
      </trkpt>
      <trkpt lat="45.94874" lon="3.69389">
        <ele>1000.6</ele>
        <time>2022-08-29T12:28:10Z</time>
      </trkpt>
      <trkpt lat="45.94874" lon="3.69389">
        <ele>1000.6</ele>
        <time>2022-08-29T12:28:11Z</time>
      </trkpt>
      <trkpt lat="45.94874" lon="3.69389">
        <ele>1000.6</ele>
        <time>2022-08-29T12:28:12Z</time>
      </trkpt>
      <trkpt lat="45.94874" lon="3.69389">
        <ele>1000.6</ele>
        <time>2022-08-29T12:28:13Z</time>
      </trkpt>
      <trkpt lat="45.94874" lon="3.69389">
        <ele>1000.6</ele>
        <time>2022-08-29T12:28:14Z</time>
      </trkpt>
      <trkpt lat="45.94874" lon="3.69389">
        <ele>1000.6</ele>
        <time>2022-08-29T12:28:15Z</time>
      </trkpt>
      <trkpt lat="45.94874" lon="3.69389">
        <ele>1000.6</ele>
        <time>2022-08-29T12:28:16Z</time>
      </trkpt>
      <trkpt lat="45.94874" lon="3.69389">
        <ele>1000.6</ele>
        <time>2022-08-29T12:28:17Z</time>
      </trkpt>
      <trkpt lat="45.94874" lon="3.69389">
        <ele>1000.6</ele>
        <time>2022-08-29T12:28:18Z</time>
      </trkpt>
      <trkpt lat="45.94874" lon="3.69389">
        <ele>1000.6</ele>
        <time>2022-08-29T12:28:19Z</time>
      </trkpt>
      <trkpt lat="45.94874" lon="3.69389">
        <ele>1000.6</ele>
        <time>2022-08-29T12:28:20Z</time>
      </trkpt>
      <trkpt lat="45.94874" lon="3.69389">
        <ele>1000.6</ele>
        <time>2022-08-29T12:28:21Z</time>
      </trkpt>
      <trkpt lat="45.94874" lon="3.69389">
        <ele>1000.6</ele>
        <time>2022-08-29T12:28:22Z</time>
      </trkpt>
      <trkpt lat="45.94874" lon="3.69389">
        <ele>1000.6</ele>
        <time>2022-08-29T12:28:23Z</time>
      </trkpt>
      <trkpt lat="45.94874" lon="3.69389">
        <ele>1000.6</ele>
        <time>2022-08-29T12:28:24Z</time>
      </trkpt>
      <trkpt lat="45.94874" lon="3.69389">
        <ele>1000.6</ele>
        <time>2022-08-29T12:28:25Z</time>
      </trkpt>
      <trkpt lat="45.94874" lon="3.69389">
        <ele>1000.6</ele>
        <time>2022-08-29T12:28:26Z</time>
      </trkpt>
      <trkpt lat="45.94874" lon="3.69389">
        <ele>1000.6</ele>
        <time>2022-08-29T12:28:27Z</time>
      </trkpt>
      <trkpt lat="45.94874" lon="3.69389">
        <ele>1000.6</ele>
        <time>2022-08-29T12:28:28Z</time>
      </trkpt>
      <trkpt lat="45.94874" lon="3.69389">
        <ele>1000.6</ele>
        <time>2022-08-29T12:28:29Z</time>
      </trkpt>
      <trkpt lat="45.94874" lon="3.69389">
        <ele>1000.6</ele>
        <time>2022-08-29T12:28:30Z</time>
      </trkpt>
      <trkpt lat="45.94874" lon="3.69389">
        <ele>1000.6</ele>
        <time>2022-08-29T12:28:31Z</time>
      </trkpt>
      <trkpt lat="45.94874" lon="3.69389">
        <ele>1000.6</ele>
        <time>2022-08-29T12:28:32Z</time>
      </trkpt>
      <trkpt lat="45.94874" lon="3.69389">
        <ele>1000.6</ele>
        <time>2022-08-29T12:28:33Z</time>
      </trkpt>
      <trkpt lat="45.94874" lon="3.69389">
        <ele>1000.6</ele>
        <time>2022-08-29T12:28:34Z</time>
      </trkpt>
      <trkpt lat="45.94874" lon="3.69389">
        <ele>1000.6</ele>
        <time>2022-08-29T12:28:35Z</time>
      </trkpt>
      <trkpt lat="45.94874" lon="3.69389">
        <ele>1000.6</ele>
        <time>2022-08-29T12:28:36Z</time>
      </trkpt>
      <trkpt lat="45.94874" lon="3.69389">
        <ele>1000.6</ele>
        <time>2022-08-29T12:28:37Z</time>
      </trkpt>
      <trkpt lat="45.94874" lon="3.69389">
        <ele>1000.6</ele>
        <time>2022-08-29T12:28:38Z</time>
      </trkpt>
      <trkpt lat="45.94874" lon="3.69389">
        <ele>1000.6</ele>
        <time>2022-08-29T12:28:39Z</time>
      </trkpt>
      <trkpt lat="45.94874" lon="3.69389">
        <ele>1000.6</ele>
        <time>2022-08-29T12:28:40Z</time>
      </trkpt>
      <trkpt lat="45.94874" lon="3.69389">
        <ele>1000.6</ele>
        <time>2022-08-29T12:28:41Z</time>
      </trkpt>
      <trkpt lat="45.94874" lon="3.69389">
        <ele>1000.6</ele>
        <time>2022-08-29T12:28:42Z</time>
      </trkpt>
      <trkpt lat="45.94874" lon="3.69389">
        <ele>1000.6</ele>
        <time>2022-08-29T12:28:43Z</time>
      </trkpt>
      <trkpt lat="45.94874" lon="3.69389">
        <ele>1000.6</ele>
        <time>2022-08-29T12:28:44Z</time>
      </trkpt>
      <trkpt lat="45.94874" lon="3.69389">
        <ele>1000.6</ele>
        <time>2022-08-29T12:28:45Z</time>
      </trkpt>
      <trkpt lat="45.94874" lon="3.69389">
        <ele>1000.6</ele>
        <time>2022-08-29T12:28:46Z</time>
      </trkpt>
      <trkpt lat="45.94874" lon="3.69389">
        <ele>1000.6</ele>
        <time>2022-08-29T12:28:47Z</time>
      </trkpt>
      <trkpt lat="45.94874" lon="3.69389">
        <ele>1000.6</ele>
        <time>2022-08-29T12:28:48Z</time>
      </trkpt>
      <trkpt lat="45.94874" lon="3.69389">
        <ele>1000.6</ele>
        <time>2022-08-29T12:28:49Z</time>
      </trkpt>
      <trkpt lat="45.94874" lon="3.69389">
        <ele>1000.6</ele>
        <time>2022-08-29T12:28:50Z</time>
      </trkpt>
      <trkpt lat="45.94876" lon="3.69389">
        <ele>1000.5</ele>
        <time>2022-08-29T12:28:51Z</time>
      </trkpt>
      <trkpt lat="45.94877" lon="3.69388">
        <ele>1000.5</ele>
        <time>2022-08-29T12:28:52Z</time>
      </trkpt>
      <trkpt lat="45.94878" lon="3.69388">
        <ele>1000.4</ele>
        <time>2022-08-29T12:28:53Z</time>
      </trkpt>
      <trkpt lat="45.94881" lon="3.69385">
        <ele>1000.4</ele>
        <time>2022-08-29T12:28:54Z</time>
      </trkpt>
      <trkpt lat="45.94882" lon="3.69385">
        <ele>1000.3</ele>
        <time>2022-08-29T12:28:55Z</time>
      </trkpt>
      <trkpt lat="45.94884" lon="3.69382">
        <ele>1000.3</ele>
        <time>2022-08-29T12:28:56Z</time>
      </trkpt>
      <trkpt lat="45.94887" lon="3.69379">
        <ele>1000.2</ele>
        <time>2022-08-29T12:28:57Z</time>
      </trkpt>
      <trkpt lat="45.94889" lon="3.69377">
        <ele>1000.1</ele>
        <time>2022-08-29T12:28:58Z</time>
      </trkpt>
      <trkpt lat="45.94893" lon="3.69374">
        <ele>1000</ele>
        <time>2022-08-29T12:28:59Z</time>
      </trkpt>
      <trkpt lat="45.94894" lon="3.69373">
        <ele>1000</ele>
        <time>2022-08-29T12:29:00Z</time>
      </trkpt>
      <trkpt lat="45.94896" lon="3.69371">
        <ele>999.9</ele>
        <time>2022-08-29T12:29:01Z</time>
      </trkpt>
      <trkpt lat="45.94897" lon="3.6937">
        <ele>999.8</ele>
        <time>2022-08-29T12:29:02Z</time>
      </trkpt>
      <trkpt lat="45.949" lon="3.69368">
        <ele>999.7</ele>
        <time>2022-08-29T12:29:03Z</time>
      </trkpt>
      <trkpt lat="45.94901" lon="3.69367">
        <ele>999.7</ele>
        <time>2022-08-29T12:29:04Z</time>
      </trkpt>
      <trkpt lat="45.94903" lon="3.69364">
        <ele>999.6</ele>
        <time>2022-08-29T12:29:05Z</time>
      </trkpt>
      <trkpt lat="45.94904" lon="3.69363">
        <ele>999.6</ele>
        <time>2022-08-29T12:29:06Z</time>
      </trkpt>
      <trkpt lat="45.94906" lon="3.69361">
        <ele>999.5</ele>
        <time>2022-08-29T12:29:07Z</time>
      </trkpt>
      <trkpt lat="45.94907" lon="3.69361">
        <ele>999.5</ele>
        <time>2022-08-29T12:29:08Z</time>
      </trkpt>
      <trkpt lat="45.94909" lon="3.6936">
        <ele>999.5</ele>
        <time>2022-08-29T12:29:09Z</time>
      </trkpt>
      <trkpt lat="45.9491" lon="3.69359">
        <ele>999.4</ele>
        <time>2022-08-29T12:29:10Z</time>
      </trkpt>
      <trkpt lat="45.94912" lon="3.69359">
        <ele>999.4</ele>
        <time>2022-08-29T12:29:11Z</time>
      </trkpt>
      <trkpt lat="45.94913" lon="3.69358">
        <ele>999.4</ele>
        <time>2022-08-29T12:29:12Z</time>
      </trkpt>
      <trkpt lat="45.94914" lon="3.69357">
        <ele>999.3</ele>
        <time>2022-08-29T12:29:13Z</time>
      </trkpt>
      <trkpt lat="45.94916" lon="3.69356">
        <ele>999.3</ele>
        <time>2022-08-29T12:29:14Z</time>
      </trkpt>
      <trkpt lat="45.94917" lon="3.69355">
        <ele>999.3</ele>
        <time>2022-08-29T12:29:15Z</time>
      </trkpt>
      <trkpt lat="45.94918" lon="3.69354">
        <ele>999.2</ele>
        <time>2022-08-29T12:29:16Z</time>
      </trkpt>
      <trkpt lat="45.9492" lon="3.69352">
        <ele>999.2</ele>
        <time>2022-08-29T12:29:17Z</time>
      </trkpt>
      <trkpt lat="45.94921" lon="3.69351">
        <ele>999.2</ele>
        <time>2022-08-29T12:29:18Z</time>
      </trkpt>
      <trkpt lat="45.94924" lon="3.69349">
        <ele>999.1</ele>
        <time>2022-08-29T12:29:19Z</time>
      </trkpt>
      <trkpt lat="45.94925" lon="3.69348">
        <ele>999.1</ele>
        <time>2022-08-29T12:29:20Z</time>
      </trkpt>
      <trkpt lat="45.94927" lon="3.69346">
        <ele>999</ele>
        <time>2022-08-29T12:29:21Z</time>
      </trkpt>
      <trkpt lat="45.94928" lon="3.69345">
        <ele>999</ele>
        <time>2022-08-29T12:29:22Z</time>
      </trkpt>
      <trkpt lat="45.94929" lon="3.69343">
        <ele>999</ele>
        <time>2022-08-29T12:29:23Z</time>
      </trkpt>
      <trkpt lat="45.94931" lon="3.69342">
        <ele>999</ele>
        <time>2022-08-29T12:29:24Z</time>
      </trkpt>
      <trkpt lat="45.94933" lon="3.69338">
        <ele>998.9</ele>
        <time>2022-08-29T12:29:25Z</time>
      </trkpt>
      <trkpt lat="45.94933" lon="3.69337">
        <ele>998.9</ele>
        <time>2022-08-29T12:29:26Z</time>
      </trkpt>
      <trkpt lat="45.94934" lon="3.69336">
        <ele>998.9</ele>
        <time>2022-08-29T12:29:27Z</time>
      </trkpt>
      <trkpt lat="45.94936" lon="3.69334">
        <ele>998.9</ele>
        <time>2022-08-29T12:29:28Z</time>
      </trkpt>
      <trkpt lat="45.94939" lon="3.69331">
        <ele>998.8</ele>
        <time>2022-08-29T12:29:29Z</time>
      </trkpt>
      <trkpt lat="45.9494" lon="3.6933">
        <ele>998.8</ele>
        <time>2022-08-29T12:29:30Z</time>
      </trkpt>
      <trkpt lat="45.94943" lon="3.69327">
        <ele>998.8</ele>
        <time>2022-08-29T12:29:31Z</time>
      </trkpt>
      <trkpt lat="45.94944" lon="3.69326">
        <ele>998.7</ele>
        <time>2022-08-29T12:29:32Z</time>
      </trkpt>
      <trkpt lat="45.94945" lon="3.69324">
        <ele>998.7</ele>
        <time>2022-08-29T12:29:33Z</time>
      </trkpt>
      <trkpt lat="45.94946" lon="3.69323">
        <ele>998.7</ele>
        <time>2022-08-29T12:29:34Z</time>
      </trkpt>
      <trkpt lat="45.94947" lon="3.69323">
        <ele>998.7</ele>
        <time>2022-08-29T12:29:35Z</time>
      </trkpt>
      <trkpt lat="45.94947" lon="3.69322">
        <ele>998.7</ele>
        <time>2022-08-29T12:29:36Z</time>
      </trkpt>
      <trkpt lat="45.94948" lon="3.69322">
        <ele>998.6</ele>
        <time>2022-08-29T12:29:37Z</time>
      </trkpt>
      <trkpt lat="45.94949" lon="3.69322">
        <ele>998.6</ele>
        <time>2022-08-29T12:29:38Z</time>
      </trkpt>
      <trkpt lat="45.9495" lon="3.69321">
        <ele>998.6</ele>
        <time>2022-08-29T12:29:39Z</time>
      </trkpt>
      <trkpt lat="45.94951" lon="3.69321">
        <ele>998.6</ele>
        <time>2022-08-29T12:29:40Z</time>
      </trkpt>
      <trkpt lat="45.94951" lon="3.6932">
        <ele>998.6</ele>
        <time>2022-08-29T12:29:41Z</time>
      </trkpt>
      <trkpt lat="45.94952" lon="3.6932">
        <ele>998.6</ele>
        <time>2022-08-29T12:29:42Z</time>
      </trkpt>
      <trkpt lat="45.94954" lon="3.69318">
        <ele>998.5</ele>
        <time>2022-08-29T12:29:43Z</time>
      </trkpt>
      <trkpt lat="45.94954" lon="3.69318">
        <ele>998.5</ele>
        <time>2022-08-29T12:29:44Z</time>
      </trkpt>
      <trkpt lat="45.94955" lon="3.69317">
        <ele>998.5</ele>
        <time>2022-08-29T12:29:45Z</time>
      </trkpt>
      <trkpt lat="45.94955" lon="3.69317">
        <ele>998.5</ele>
        <time>2022-08-29T12:29:46Z</time>
      </trkpt>
      <trkpt lat="45.94956" lon="3.69317">
        <ele>998.5</ele>
        <time>2022-08-29T12:29:47Z</time>
      </trkpt>
      <trkpt lat="45.94956" lon="3.69318">
        <ele>998.5</ele>
        <time>2022-08-29T12:29:48Z</time>
      </trkpt>
      <trkpt lat="45.94956" lon="3.69318">
        <ele>998.5</ele>
        <time>2022-08-29T12:29:49Z</time>
      </trkpt>
      <trkpt lat="45.94957" lon="3.69318">
        <ele>998.5</ele>
        <time>2022-08-29T12:29:50Z</time>
      </trkpt>
      <trkpt lat="45.94958" lon="3.69318">
        <ele>998.5</ele>
        <time>2022-08-29T12:29:51Z</time>
      </trkpt>
      <trkpt lat="45.94959" lon="3.69319">
        <ele>998.4</ele>
        <time>2022-08-29T12:29:52Z</time>
      </trkpt>
      <trkpt lat="45.9496" lon="3.6932">
        <ele>998.4</ele>
        <time>2022-08-29T12:29:53Z</time>
      </trkpt>
      <trkpt lat="45.94961" lon="3.6932">
        <ele>998.4</ele>
        <time>2022-08-29T12:29:54Z</time>
      </trkpt>
      <trkpt lat="45.94963" lon="3.69321">
        <ele>998.4</ele>
        <time>2022-08-29T12:29:55Z</time>
      </trkpt>
      <trkpt lat="45.94964" lon="3.69321">
        <ele>998.4</ele>
        <time>2022-08-29T12:29:56Z</time>
      </trkpt>
      <trkpt lat="45.94965" lon="3.6932">
        <ele>998.4</ele>
        <time>2022-08-29T12:29:57Z</time>
      </trkpt>
      <trkpt lat="45.94967" lon="3.6932">
        <ele>998.3</ele>
        <time>2022-08-29T12:29:58Z</time>
      </trkpt>
      <trkpt lat="45.94968" lon="3.69321">
        <ele>998.3</ele>
        <time>2022-08-29T12:29:59Z</time>
      </trkpt>
      <trkpt lat="45.94969" lon="3.69322">
        <ele>998.3</ele>
        <time>2022-08-29T12:30:00Z</time>
      </trkpt>
      <trkpt lat="45.9497" lon="3.69322">
        <ele>998.3</ele>
        <time>2022-08-29T12:30:01Z</time>
      </trkpt>
      <trkpt lat="45.9497" lon="3.69323">
        <ele>998.3</ele>
        <time>2022-08-29T12:30:02Z</time>
      </trkpt>
      <trkpt lat="45.94971" lon="3.69324">
        <ele>998.3</ele>
        <time>2022-08-29T12:30:03Z</time>
      </trkpt>
      <trkpt lat="45.94972" lon="3.69325">
        <ele>998.2</ele>
        <time>2022-08-29T12:30:04Z</time>
      </trkpt>
      <trkpt lat="45.94973" lon="3.69325">
        <ele>998.2</ele>
        <time>2022-08-29T12:30:05Z</time>
      </trkpt>
      <trkpt lat="45.94975" lon="3.69325">
        <ele>998.2</ele>
        <time>2022-08-29T12:30:06Z</time>
      </trkpt>
      <trkpt lat="45.94976" lon="3.69326">
        <ele>998.2</ele>
        <time>2022-08-29T12:30:07Z</time>
      </trkpt>
      <trkpt lat="45.94977" lon="3.69326">
        <ele>998.2</ele>
        <time>2022-08-29T12:30:08Z</time>
      </trkpt>
      <trkpt lat="45.94977" lon="3.69326">
        <ele>998.1</ele>
        <time>2022-08-29T12:30:09Z</time>
      </trkpt>
      <trkpt lat="45.94979" lon="3.69327">
        <ele>998.1</ele>
        <time>2022-08-29T12:30:10Z</time>
      </trkpt>
      <trkpt lat="45.9498" lon="3.69329">
        <ele>998.1</ele>
        <time>2022-08-29T12:30:11Z</time>
      </trkpt>
      <trkpt lat="45.94981" lon="3.6933">
        <ele>998</ele>
        <time>2022-08-29T12:30:12Z</time>
      </trkpt>
      <trkpt lat="45.94984" lon="3.69332">
        <ele>998</ele>
        <time>2022-08-29T12:30:13Z</time>
      </trkpt>
      <trkpt lat="45.94985" lon="3.69332">
        <ele>997.9</ele>
        <time>2022-08-29T12:30:14Z</time>
      </trkpt>
      <trkpt lat="45.94989" lon="3.69334">
        <ele>997.9</ele>
        <time>2022-08-29T12:30:15Z</time>
      </trkpt>
      <trkpt lat="45.9499" lon="3.69335">
        <ele>997.8</ele>
        <time>2022-08-29T12:30:16Z</time>
      </trkpt>
      <trkpt lat="45.94993" lon="3.69337">
        <ele>997.8</ele>
        <time>2022-08-29T12:30:17Z</time>
      </trkpt>
      <trkpt lat="45.94994" lon="3.69338">
        <ele>997.8</ele>
        <time>2022-08-29T12:30:18Z</time>
      </trkpt>
      <trkpt lat="45.94998" lon="3.6934">
        <ele>997.7</ele>
        <time>2022-08-29T12:30:19Z</time>
      </trkpt>
      <trkpt lat="45.94999" lon="3.6934">
        <ele>997.7</ele>
        <time>2022-08-29T12:30:20Z</time>
      </trkpt>
      <trkpt lat="45.95" lon="3.6934">
        <ele>997.7</ele>
        <time>2022-08-29T12:30:21Z</time>
      </trkpt>
      <trkpt lat="45.95001" lon="3.69341">
        <ele>997.7</ele>
        <time>2022-08-29T12:30:22Z</time>
      </trkpt>
      <trkpt lat="45.95002" lon="3.69341">
        <ele>997.7</ele>
        <time>2022-08-29T12:30:23Z</time>
      </trkpt>
      <trkpt lat="45.95002" lon="3.69342">
        <ele>997.7</ele>
        <time>2022-08-29T12:30:24Z</time>
      </trkpt>
      <trkpt lat="45.95002" lon="3.69344">
        <ele>997.7</ele>
        <time>2022-08-29T12:30:25Z</time>
      </trkpt>
      <trkpt lat="45.95002" lon="3.69345">
        <ele>997.6</ele>
        <time>2022-08-29T12:30:26Z</time>
      </trkpt>
      <trkpt lat="45.95003" lon="3.69347">
        <ele>997.6</ele>
        <time>2022-08-29T12:30:27Z</time>
      </trkpt>
      <trkpt lat="45.95003" lon="3.69348">
        <ele>997.6</ele>
        <time>2022-08-29T12:30:28Z</time>
      </trkpt>
      <trkpt lat="45.95004" lon="3.69349">
        <ele>997.6</ele>
        <time>2022-08-29T12:30:29Z</time>
      </trkpt>
      <trkpt lat="45.95006" lon="3.69348">
        <ele>997.6</ele>
        <time>2022-08-29T12:30:30Z</time>
      </trkpt>
      <trkpt lat="45.95007" lon="3.69348">
        <ele>997.6</ele>
        <time>2022-08-29T12:30:31Z</time>
      </trkpt>
      <trkpt lat="45.95009" lon="3.69347">
        <ele>997.5</ele>
        <time>2022-08-29T12:30:32Z</time>
      </trkpt>
      <trkpt lat="45.9501" lon="3.69347">
        <ele>997.5</ele>
        <time>2022-08-29T12:30:33Z</time>
      </trkpt>
      <trkpt lat="45.95011" lon="3.69347">
        <ele>997.5</ele>
        <time>2022-08-29T12:30:34Z</time>
      </trkpt>
      <trkpt lat="45.95012" lon="3.69347">
        <ele>997.5</ele>
        <time>2022-08-29T12:30:35Z</time>
      </trkpt>
      <trkpt lat="45.95013" lon="3.69347">
        <ele>997.5</ele>
        <time>2022-08-29T12:30:36Z</time>
      </trkpt>
      <trkpt lat="45.95014" lon="3.69348">
        <ele>997.5</ele>
        <time>2022-08-29T12:30:37Z</time>
      </trkpt>
      <trkpt lat="45.95015" lon="3.69348">
        <ele>997.5</ele>
        <time>2022-08-29T12:30:38Z</time>
      </trkpt>
      <trkpt lat="45.95016" lon="3.69349">
        <ele>997.5</ele>
        <time>2022-08-29T12:30:39Z</time>
      </trkpt>
      <trkpt lat="45.95016" lon="3.69349">
        <ele>997.4</ele>
        <time>2022-08-29T12:30:40Z</time>
      </trkpt>
      <trkpt lat="45.95017" lon="3.69349">
        <ele>997.4</ele>
        <time>2022-08-29T12:30:41Z</time>
      </trkpt>
      <trkpt lat="45.95018" lon="3.69348">
        <ele>997.4</ele>
        <time>2022-08-29T12:30:42Z</time>
      </trkpt>
      <trkpt lat="45.95018" lon="3.69348">
        <ele>997.4</ele>
        <time>2022-08-29T12:30:43Z</time>
      </trkpt>
      <trkpt lat="45.95019" lon="3.69348">
        <ele>997.4</ele>
        <time>2022-08-29T12:30:44Z</time>
      </trkpt>
      <trkpt lat="45.95019" lon="3.69349">
        <ele>997.4</ele>
        <time>2022-08-29T12:30:45Z</time>
      </trkpt>
      <trkpt lat="45.9502" lon="3.6935">
        <ele>997.4</ele>
        <time>2022-08-29T12:30:46Z</time>
      </trkpt>
      <trkpt lat="45.9502" lon="3.69351">
        <ele>997.4</ele>
        <time>2022-08-29T12:30:47Z</time>
      </trkpt>
      <trkpt lat="45.9502" lon="3.69351">
        <ele>997.4</ele>
        <time>2022-08-29T12:30:48Z</time>
      </trkpt>
      <trkpt lat="45.95021" lon="3.69351">
        <ele>997.4</ele>
        <time>2022-08-29T12:30:49Z</time>
      </trkpt>
      <trkpt lat="45.95022" lon="3.69351">
        <ele>997.4</ele>
        <time>2022-08-29T12:30:50Z</time>
      </trkpt>
      <trkpt lat="45.95022" lon="3.69351">
        <ele>997.3</ele>
        <time>2022-08-29T12:30:51Z</time>
      </trkpt>
      <trkpt lat="45.95023" lon="3.69352">
        <ele>997.3</ele>
        <time>2022-08-29T12:30:52Z</time>
      </trkpt>
      <trkpt lat="45.95023" lon="3.69353">
        <ele>997.3</ele>
        <time>2022-08-29T12:30:53Z</time>
      </trkpt>
      <trkpt lat="45.95024" lon="3.69354">
        <ele>997.3</ele>
        <time>2022-08-29T12:30:54Z</time>
      </trkpt>
      <trkpt lat="45.95023" lon="3.69355">
        <ele>997.3</ele>
        <time>2022-08-29T12:30:55Z</time>
      </trkpt>
      <trkpt lat="45.95024" lon="3.69358">
        <ele>997.3</ele>
        <time>2022-08-29T12:30:56Z</time>
      </trkpt>
      <trkpt lat="45.95024" lon="3.69359">
        <ele>997.3</ele>
        <time>2022-08-29T12:30:57Z</time>
      </trkpt>
      <trkpt lat="45.95024" lon="3.6936">
        <ele>997.3</ele>
        <time>2022-08-29T12:30:58Z</time>
      </trkpt>
      <trkpt lat="45.95024" lon="3.69363">
        <ele>997.2</ele>
        <time>2022-08-29T12:30:59Z</time>
      </trkpt>
      <trkpt lat="45.95024" lon="3.69365">
        <ele>997.2</ele>
        <time>2022-08-29T12:31:00Z</time>
      </trkpt>
      <trkpt lat="45.95024" lon="3.69367">
        <ele>997.2</ele>
        <time>2022-08-29T12:31:01Z</time>
      </trkpt>
      <trkpt lat="45.95025" lon="3.69369">
        <ele>997.2</ele>
        <time>2022-08-29T12:31:02Z</time>
      </trkpt>
      <trkpt lat="45.95026" lon="3.6937">
        <ele>997.2</ele>
        <time>2022-08-29T12:31:03Z</time>
      </trkpt>
      <trkpt lat="45.95028" lon="3.69372">
        <ele>997.1</ele>
        <time>2022-08-29T12:31:04Z</time>
      </trkpt>
      <trkpt lat="45.95029" lon="3.69373">
        <ele>997.1</ele>
        <time>2022-08-29T12:31:05Z</time>
      </trkpt>
      <trkpt lat="45.9503" lon="3.69374">
        <ele>997.1</ele>
        <time>2022-08-29T12:31:06Z</time>
      </trkpt>
      <trkpt lat="45.95032" lon="3.69374">
        <ele>997.1</ele>
        <time>2022-08-29T12:31:07Z</time>
      </trkpt>
      <trkpt lat="45.95033" lon="3.69375">
        <ele>997.1</ele>
        <time>2022-08-29T12:31:08Z</time>
      </trkpt>
      <trkpt lat="45.95034" lon="3.69375">
        <ele>997.1</ele>
        <time>2022-08-29T12:31:09Z</time>
      </trkpt>
      <trkpt lat="45.95036" lon="3.69375">
        <ele>997.1</ele>
        <time>2022-08-29T12:31:10Z</time>
      </trkpt>
      <trkpt lat="45.95037" lon="3.69376">
        <ele>997.1</ele>
        <time>2022-08-29T12:31:11Z</time>
      </trkpt>
      <trkpt lat="45.95039" lon="3.69376">
        <ele>997</ele>
        <time>2022-08-29T12:31:12Z</time>
      </trkpt>
      <trkpt lat="45.9504" lon="3.69377">
        <ele>997</ele>
        <time>2022-08-29T12:31:13Z</time>
      </trkpt>
      <trkpt lat="45.95042" lon="3.69377">
        <ele>997</ele>
        <time>2022-08-29T12:31:14Z</time>
      </trkpt>
      <trkpt lat="45.95045" lon="3.69378">
        <ele>997</ele>
        <time>2022-08-29T12:31:15Z</time>
      </trkpt>
      <trkpt lat="45.95046" lon="3.69379">
        <ele>997</ele>
        <time>2022-08-29T12:31:16Z</time>
      </trkpt>
      <trkpt lat="45.95048" lon="3.6938">
        <ele>997</ele>
        <time>2022-08-29T12:31:17Z</time>
      </trkpt>
      <trkpt lat="45.95049" lon="3.6938">
        <ele>997</ele>
        <time>2022-08-29T12:31:18Z</time>
      </trkpt>
      <trkpt lat="45.95051" lon="3.6938">
        <ele>997</ele>
        <time>2022-08-29T12:31:19Z</time>
      </trkpt>
      <trkpt lat="45.95052" lon="3.69381">
        <ele>997</ele>
        <time>2022-08-29T12:31:20Z</time>
      </trkpt>
      <trkpt lat="45.95053" lon="3.69382">
        <ele>997</ele>
        <time>2022-08-29T12:31:21Z</time>
      </trkpt>
      <trkpt lat="45.95054" lon="3.69382">
        <ele>997</ele>
        <time>2022-08-29T12:31:22Z</time>
      </trkpt>
      <trkpt lat="45.95054" lon="3.69383">
        <ele>997</ele>
        <time>2022-08-29T12:31:23Z</time>
      </trkpt>
      <trkpt lat="45.95055" lon="3.69384">
        <ele>997</ele>
        <time>2022-08-29T12:31:24Z</time>
      </trkpt>
      <trkpt lat="45.95056" lon="3.69384">
        <ele>997</ele>
        <time>2022-08-29T12:31:25Z</time>
      </trkpt>
      <trkpt lat="45.95057" lon="3.69385">
        <ele>997</ele>
        <time>2022-08-29T12:31:26Z</time>
      </trkpt>
      <trkpt lat="45.95058" lon="3.69386">
        <ele>997</ele>
        <time>2022-08-29T12:31:27Z</time>
      </trkpt>
      <trkpt lat="45.95059" lon="3.69387">
        <ele>997</ele>
        <time>2022-08-29T12:31:28Z</time>
      </trkpt>
      <trkpt lat="45.9506" lon="3.69388">
        <ele>997</ele>
        <time>2022-08-29T12:31:29Z</time>
      </trkpt>
      <trkpt lat="45.95062" lon="3.69389">
        <ele>997</ele>
        <time>2022-08-29T12:31:31Z</time>
      </trkpt>
      <trkpt lat="45.95063" lon="3.69389">
        <ele>997</ele>
        <time>2022-08-29T12:31:32Z</time>
      </trkpt>
      <trkpt lat="45.95063" lon="3.69389">
        <ele>997</ele>
        <time>2022-08-29T12:31:33Z</time>
      </trkpt>
      <trkpt lat="45.95064" lon="3.69388">
        <ele>997</ele>
        <time>2022-08-29T12:31:34Z</time>
      </trkpt>
      <trkpt lat="45.95067" lon="3.69388">
        <ele>997</ele>
        <time>2022-08-29T12:31:35Z</time>
      </trkpt>
      <trkpt lat="45.95068" lon="3.69388">
        <ele>997</ele>
        <time>2022-08-29T12:31:36Z</time>
      </trkpt>
      <trkpt lat="45.95069" lon="3.69389">
        <ele>997</ele>
        <time>2022-08-29T12:31:37Z</time>
      </trkpt>
      <trkpt lat="45.95071" lon="3.6939">
        <ele>997</ele>
        <time>2022-08-29T12:31:38Z</time>
      </trkpt>
      <trkpt lat="45.95072" lon="3.69391">
        <ele>997</ele>
        <time>2022-08-29T12:31:39Z</time>
      </trkpt>
      <trkpt lat="45.95075" lon="3.69392">
        <ele>997</ele>
        <time>2022-08-29T12:31:40Z</time>
      </trkpt>
      <trkpt lat="45.95077" lon="3.69393">
        <ele>997</ele>
        <time>2022-08-29T12:31:41Z</time>
      </trkpt>
      <trkpt lat="45.9508" lon="3.69395">
        <ele>997</ele>
        <time>2022-08-29T12:31:42Z</time>
      </trkpt>
      <trkpt lat="45.95081" lon="3.69396">
        <ele>997</ele>
        <time>2022-08-29T12:31:43Z</time>
      </trkpt>
      <trkpt lat="45.95084" lon="3.69398">
        <ele>997</ele>
        <time>2022-08-29T12:31:44Z</time>
      </trkpt>
      <trkpt lat="45.95087" lon="3.694">
        <ele>997</ele>
        <time>2022-08-29T12:31:45Z</time>
      </trkpt>
      <trkpt lat="45.95089" lon="3.69402">
        <ele>997</ele>
        <time>2022-08-29T12:31:46Z</time>
      </trkpt>
      <trkpt lat="45.95092" lon="3.69404">
        <ele>996.9</ele>
        <time>2022-08-29T12:31:47Z</time>
      </trkpt>
      <trkpt lat="45.95093" lon="3.69405">
        <ele>996.9</ele>
        <time>2022-08-29T12:31:48Z</time>
      </trkpt>
      <trkpt lat="45.95094" lon="3.69405">
        <ele>996.9</ele>
        <time>2022-08-29T12:31:49Z</time>
      </trkpt>
      <trkpt lat="45.95094" lon="3.69405">
        <ele>996.9</ele>
        <time>2022-08-29T12:31:50Z</time>
      </trkpt>
      <trkpt lat="45.95094" lon="3.69405">
        <ele>996.9</ele>
        <time>2022-08-29T12:31:51Z</time>
      </trkpt>
      <trkpt lat="45.95094" lon="3.69405">
        <ele>996.9</ele>
        <time>2022-08-29T12:31:52Z</time>
      </trkpt>
      <trkpt lat="45.95094" lon="3.69404">
        <ele>996.9</ele>
        <time>2022-08-29T12:31:53Z</time>
      </trkpt>
      <trkpt lat="45.95094" lon="3.69404">
        <ele>996.9</ele>
        <time>2022-08-29T12:31:54Z</time>
      </trkpt>
      <trkpt lat="45.95095" lon="3.69405">
        <ele>996.9</ele>
        <time>2022-08-29T12:31:55Z</time>
      </trkpt>
      <trkpt lat="45.95096" lon="3.69406">
        <ele>996.9</ele>
        <time>2022-08-29T12:31:56Z</time>
      </trkpt>
      <trkpt lat="45.95097" lon="3.69407">
        <ele>996.8</ele>
        <time>2022-08-29T12:31:57Z</time>
      </trkpt>
      <trkpt lat="45.95099" lon="3.69408">
        <ele>996.8</ele>
        <time>2022-08-29T12:31:58Z</time>
      </trkpt>
      <trkpt lat="45.951" lon="3.69409">
        <ele>996.8</ele>
        <time>2022-08-29T12:31:59Z</time>
      </trkpt>
      <trkpt lat="45.95101" lon="3.6941">
        <ele>996.8</ele>
        <time>2022-08-29T12:32:00Z</time>
      </trkpt>
      <trkpt lat="45.95102" lon="3.69412">
        <ele>996.8</ele>
        <time>2022-08-29T12:32:01Z</time>
      </trkpt>
      <trkpt lat="45.95104" lon="3.69414">
        <ele>996.8</ele>
        <time>2022-08-29T12:32:02Z</time>
      </trkpt>
      <trkpt lat="45.95106" lon="3.69416">
        <ele>996.9</ele>
        <time>2022-08-29T12:32:03Z</time>
      </trkpt>
      <trkpt lat="45.95107" lon="3.69416">
        <ele>996.9</ele>
        <time>2022-08-29T12:32:04Z</time>
      </trkpt>
      <trkpt lat="45.9511" lon="3.69418">
        <ele>997</ele>
        <time>2022-08-29T12:32:05Z</time>
      </trkpt>
      <trkpt lat="45.95111" lon="3.69418">
        <ele>997.1</ele>
        <time>2022-08-29T12:32:06Z</time>
      </trkpt>
      <trkpt lat="45.95115" lon="3.69419">
        <ele>997.2</ele>
        <time>2022-08-29T12:32:07Z</time>
      </trkpt>
      <trkpt lat="45.95116" lon="3.6942">
        <ele>997.3</ele>
        <time>2022-08-29T12:32:08Z</time>
      </trkpt>
      <trkpt lat="45.95118" lon="3.6942">
        <ele>997.4</ele>
        <time>2022-08-29T12:32:09Z</time>
      </trkpt>
      <trkpt lat="45.95119" lon="3.69421">
        <ele>997.5</ele>
        <time>2022-08-29T12:32:10Z</time>
      </trkpt>
      <trkpt lat="45.9512" lon="3.69422">
        <ele>997.5</ele>
        <time>2022-08-29T12:32:11Z</time>
      </trkpt>
      <trkpt lat="45.9512" lon="3.69423">
        <ele>997.5</ele>
        <time>2022-08-29T12:32:12Z</time>
      </trkpt>
      <trkpt lat="45.95119" lon="3.69423">
        <ele>997.6</ele>
        <time>2022-08-29T12:32:13Z</time>
      </trkpt>
      <trkpt lat="45.95119" lon="3.69424">
        <ele>997.6</ele>
        <time>2022-08-29T12:32:14Z</time>
      </trkpt>
      <trkpt lat="45.95119" lon="3.69425">
        <ele>997.6</ele>
        <time>2022-08-29T12:32:15Z</time>
      </trkpt>
      <trkpt lat="45.9512" lon="3.69425">
        <ele>997.6</ele>
        <time>2022-08-29T12:32:16Z</time>
      </trkpt>
      <trkpt lat="45.95121" lon="3.69425">
        <ele>997.7</ele>
        <time>2022-08-29T12:32:17Z</time>
      </trkpt>
      <trkpt lat="45.95122" lon="3.69425">
        <ele>997.8</ele>
        <time>2022-08-29T12:32:18Z</time>
      </trkpt>
      <trkpt lat="45.95123" lon="3.69424">
        <ele>997.8</ele>
        <time>2022-08-29T12:32:19Z</time>
      </trkpt>
      <trkpt lat="45.95124" lon="3.69424">
        <ele>997.9</ele>
        <time>2022-08-29T12:32:20Z</time>
      </trkpt>
      <trkpt lat="45.95126" lon="3.69423">
        <ele>998</ele>
        <time>2022-08-29T12:32:21Z</time>
      </trkpt>
      <trkpt lat="45.9513" lon="3.69424">
        <ele>998.2</ele>
        <time>2022-08-29T12:32:22Z</time>
      </trkpt>
      <trkpt lat="45.95132" lon="3.69424">
        <ele>998.2</ele>
        <time>2022-08-29T12:32:23Z</time>
      </trkpt>
      <trkpt lat="45.95134" lon="3.69425">
        <ele>998.5</ele>
        <time>2022-08-29T12:32:24Z</time>
      </trkpt>
      <trkpt lat="45.95137" lon="3.69426">
        <ele>998.9</ele>
        <time>2022-08-29T12:32:25Z</time>
      </trkpt>
      <trkpt lat="45.95141" lon="3.69427">
        <ele>999.3</ele>
        <time>2022-08-29T12:32:26Z</time>
      </trkpt>
      <trkpt lat="45.95142" lon="3.69428">
        <ele>999.4</ele>
        <time>2022-08-29T12:32:27Z</time>
      </trkpt>
      <trkpt lat="45.95143" lon="3.69429">
        <ele>999.7</ele>
        <time>2022-08-29T12:32:28Z</time>
      </trkpt>
      <trkpt lat="45.95145" lon="3.69431">
        <ele>999.9</ele>
        <time>2022-08-29T12:32:29Z</time>
      </trkpt>
      <trkpt lat="45.95145" lon="3.69432">
        <ele>1000</ele>
        <time>2022-08-29T12:32:30Z</time>
      </trkpt>
      <trkpt lat="45.95145" lon="3.69433">
        <ele>1000.1</ele>
        <time>2022-08-29T12:32:31Z</time>
      </trkpt>
      <trkpt lat="45.95146" lon="3.69434">
        <ele>1000.1</ele>
        <time>2022-08-29T12:32:32Z</time>
      </trkpt>
      <trkpt lat="45.95146" lon="3.69434">
        <ele>1000.2</ele>
        <time>2022-08-29T12:32:33Z</time>
      </trkpt>
      <trkpt lat="45.95146" lon="3.69435">
        <ele>1000.3</ele>
        <time>2022-08-29T12:32:34Z</time>
      </trkpt>
      <trkpt lat="45.95147" lon="3.69435">
        <ele>1000.4</ele>
        <time>2022-08-29T12:32:35Z</time>
      </trkpt>
      <trkpt lat="45.95149" lon="3.69435">
        <ele>1000.5</ele>
        <time>2022-08-29T12:32:36Z</time>
      </trkpt>
      <trkpt lat="45.9515" lon="3.69435">
        <ele>1000.7</ele>
        <time>2022-08-29T12:32:37Z</time>
      </trkpt>
      <trkpt lat="45.95151" lon="3.69436">
        <ele>1000.9</ele>
        <time>2022-08-29T12:32:38Z</time>
      </trkpt>
      <trkpt lat="45.95152" lon="3.69437">
        <ele>1001</ele>
        <time>2022-08-29T12:32:39Z</time>
      </trkpt>
      <trkpt lat="45.95153" lon="3.69438">
        <ele>1001.1</ele>
        <time>2022-08-29T12:32:40Z</time>
      </trkpt>
      <trkpt lat="45.95153" lon="3.69439">
        <ele>1001.1</ele>
        <time>2022-08-29T12:32:41Z</time>
      </trkpt>
      <trkpt lat="45.95154" lon="3.69439">
        <ele>1001.2</ele>
        <time>2022-08-29T12:32:42Z</time>
      </trkpt>
      <trkpt lat="45.95154" lon="3.6944">
        <ele>1001.3</ele>
        <time>2022-08-29T12:32:43Z</time>
      </trkpt>
      <trkpt lat="45.95155" lon="3.6944">
        <ele>1001.3</ele>
        <time>2022-08-29T12:32:44Z</time>
      </trkpt>
      <trkpt lat="45.95156" lon="3.6944">
        <ele>1001.5</ele>
        <time>2022-08-29T12:32:45Z</time>
      </trkpt>
      <trkpt lat="45.95157" lon="3.6944">
        <ele>1001.6</ele>
        <time>2022-08-29T12:32:46Z</time>
      </trkpt>
      <trkpt lat="45.95159" lon="3.69439">
        <ele>1001.8</ele>
        <time>2022-08-29T12:32:47Z</time>
      </trkpt>
      <trkpt lat="45.9516" lon="3.69439">
        <ele>1001.9</ele>
        <time>2022-08-29T12:32:48Z</time>
      </trkpt>
      <trkpt lat="45.95161" lon="3.69439">
        <ele>1002</ele>
        <time>2022-08-29T12:32:49Z</time>
      </trkpt>
      <trkpt lat="45.95163" lon="3.69439">
        <ele>1002.2</ele>
        <time>2022-08-29T12:32:50Z</time>
      </trkpt>
      <trkpt lat="45.95164" lon="3.69439">
        <ele>1002.3</ele>
        <time>2022-08-29T12:32:51Z</time>
      </trkpt>
      <trkpt lat="45.95165" lon="3.6944">
        <ele>1002.4</ele>
        <time>2022-08-29T12:32:52Z</time>
      </trkpt>
      <trkpt lat="45.95166" lon="3.6944">
        <ele>1002.5</ele>
        <time>2022-08-29T12:32:53Z</time>
      </trkpt>
      <trkpt lat="45.95166" lon="3.6944">
        <ele>1002.6</ele>
        <time>2022-08-29T12:32:54Z</time>
      </trkpt>
      <trkpt lat="45.95167" lon="3.69441">
        <ele>1002.6</ele>
        <time>2022-08-29T12:32:55Z</time>
      </trkpt>
      <trkpt lat="45.95167" lon="3.69442">
        <ele>1002.7</ele>
        <time>2022-08-29T12:32:56Z</time>
      </trkpt>
      <trkpt lat="45.95169" lon="3.69443">
        <ele>1002.9</ele>
        <time>2022-08-29T12:32:57Z</time>
      </trkpt>
      <trkpt lat="45.9517" lon="3.69444">
        <ele>1003</ele>
        <time>2022-08-29T12:32:58Z</time>
      </trkpt>
      <trkpt lat="45.95171" lon="3.69445">
        <ele>1003.2</ele>
        <time>2022-08-29T12:32:59Z</time>
      </trkpt>
      <trkpt lat="45.95172" lon="3.69445">
        <ele>1003.3</ele>
        <time>2022-08-29T12:33:00Z</time>
      </trkpt>
      <trkpt lat="45.95174" lon="3.69446">
        <ele>1003.5</ele>
        <time>2022-08-29T12:33:01Z</time>
      </trkpt>
      <trkpt lat="45.95176" lon="3.69446">
        <ele>1003.7</ele>
        <time>2022-08-29T12:33:02Z</time>
      </trkpt>
      <trkpt lat="45.95177" lon="3.69446">
        <ele>1003.8</ele>
        <time>2022-08-29T12:33:03Z</time>
      </trkpt>
      <trkpt lat="45.9518" lon="3.69446">
        <ele>1004.1</ele>
        <time>2022-08-29T12:33:04Z</time>
      </trkpt>
      <trkpt lat="45.9518" lon="3.69447">
        <ele>1004.1</ele>
        <time>2022-08-29T12:33:05Z</time>
      </trkpt>
      <trkpt lat="45.95181" lon="3.69447">
        <ele>1004.2</ele>
        <time>2022-08-29T12:33:06Z</time>
      </trkpt>
      <trkpt lat="45.95182" lon="3.69447">
        <ele>1004.3</ele>
        <time>2022-08-29T12:33:07Z</time>
      </trkpt>
      <trkpt lat="45.95183" lon="3.69448">
        <ele>1004.4</ele>
        <time>2022-08-29T12:33:08Z</time>
      </trkpt>
      <trkpt lat="45.95184" lon="3.69448">
        <ele>1004.5</ele>
        <time>2022-08-29T12:33:09Z</time>
      </trkpt>
      <trkpt lat="45.95185" lon="3.69448">
        <ele>1004.6</ele>
        <time>2022-08-29T12:33:10Z</time>
      </trkpt>
      <trkpt lat="45.95185" lon="3.69448">
        <ele>1004.6</ele>
        <time>2022-08-29T12:33:11Z</time>
      </trkpt>
      <trkpt lat="45.95186" lon="3.69448">
        <ele>1004.7</ele>
        <time>2022-08-29T12:33:12Z</time>
      </trkpt>
      <trkpt lat="45.95187" lon="3.69448">
        <ele>1004.8</ele>
        <time>2022-08-29T12:33:13Z</time>
      </trkpt>
      <trkpt lat="45.9519" lon="3.69449">
        <ele>1005.1</ele>
        <time>2022-08-29T12:33:14Z</time>
      </trkpt>
      <trkpt lat="45.95191" lon="3.6945">
        <ele>1005.1</ele>
        <time>2022-08-29T12:33:15Z</time>
      </trkpt>
      <trkpt lat="45.95192" lon="3.6945">
        <ele>1005.3</ele>
        <time>2022-08-29T12:33:16Z</time>
      </trkpt>
      <trkpt lat="45.95193" lon="3.69451">
        <ele>1005.4</ele>
        <time>2022-08-29T12:33:17Z</time>
      </trkpt>
      <trkpt lat="45.95194" lon="3.69451">
        <ele>1005.4</ele>
        <time>2022-08-29T12:33:18Z</time>
      </trkpt>
      <trkpt lat="45.95195" lon="3.69451">
        <ele>1005.5</ele>
        <time>2022-08-29T12:33:19Z</time>
      </trkpt>
      <trkpt lat="45.95195" lon="3.69451">
        <ele>1005.6</ele>
        <time>2022-08-29T12:33:20Z</time>
      </trkpt>
      <trkpt lat="45.95196" lon="3.69451">
        <ele>1005.6</ele>
        <time>2022-08-29T12:33:21Z</time>
      </trkpt>
      <trkpt lat="45.95197" lon="3.69451">
        <ele>1005.7</ele>
        <time>2022-08-29T12:33:22Z</time>
      </trkpt>
      <trkpt lat="45.95198" lon="3.69451">
        <ele>1005.8</ele>
        <time>2022-08-29T12:33:23Z</time>
      </trkpt>
      <trkpt lat="45.952" lon="3.69452">
        <ele>1005.9</ele>
        <time>2022-08-29T12:33:24Z</time>
      </trkpt>
      <trkpt lat="45.95203" lon="3.69453">
        <ele>1006.2</ele>
        <time>2022-08-29T12:33:25Z</time>
      </trkpt>
      <trkpt lat="45.95204" lon="3.69454">
        <ele>1006.2</ele>
        <time>2022-08-29T12:33:26Z</time>
      </trkpt>
      <trkpt lat="45.95207" lon="3.69455">
        <ele>1006.4</ele>
        <time>2022-08-29T12:33:27Z</time>
      </trkpt>
      <trkpt lat="45.9521" lon="3.69456">
        <ele>1006.6</ele>
        <time>2022-08-29T12:33:28Z</time>
      </trkpt>
      <trkpt lat="45.95213" lon="3.69456">
        <ele>1006.8</ele>
        <time>2022-08-29T12:33:29Z</time>
      </trkpt>
      <trkpt lat="45.95214" lon="3.69457">
        <ele>1006.9</ele>
        <time>2022-08-29T12:33:30Z</time>
      </trkpt>
      <trkpt lat="45.95216" lon="3.69457">
        <ele>1007</ele>
        <time>2022-08-29T12:33:31Z</time>
      </trkpt>
      <trkpt lat="45.95217" lon="3.69458">
        <ele>1007.1</ele>
        <time>2022-08-29T12:33:32Z</time>
      </trkpt>
      <trkpt lat="45.95219" lon="3.6946">
        <ele>1007.2</ele>
        <time>2022-08-29T12:33:33Z</time>
      </trkpt>
      <trkpt lat="45.9522" lon="3.69462">
        <ele>1007.3</ele>
        <time>2022-08-29T12:33:34Z</time>
      </trkpt>
      <trkpt lat="45.95221" lon="3.69463">
        <ele>1007.4</ele>
        <time>2022-08-29T12:33:35Z</time>
      </trkpt>
      <trkpt lat="45.95222" lon="3.69465">
        <ele>1007.5</ele>
        <time>2022-08-29T12:33:36Z</time>
      </trkpt>
      <trkpt lat="45.95224" lon="3.69466">
        <ele>1007.6</ele>
        <time>2022-08-29T12:33:37Z</time>
      </trkpt>
      <trkpt lat="45.95225" lon="3.69467">
        <ele>1007.7</ele>
        <time>2022-08-29T12:33:38Z</time>
      </trkpt>
      <trkpt lat="45.95228" lon="3.69468">
        <ele>1007.8</ele>
        <time>2022-08-29T12:33:39Z</time>
      </trkpt>
      <trkpt lat="45.95229" lon="3.69468">
        <ele>1007.9</ele>
        <time>2022-08-29T12:33:40Z</time>
      </trkpt>
      <trkpt lat="45.95232" lon="3.69468">
        <ele>1008.1</ele>
        <time>2022-08-29T12:33:41Z</time>
      </trkpt>
      <trkpt lat="45.95233" lon="3.69468">
        <ele>1008.1</ele>
        <time>2022-08-29T12:33:42Z</time>
      </trkpt>
      <trkpt lat="45.95235" lon="3.69469">
        <ele>1008.2</ele>
        <time>2022-08-29T12:33:43Z</time>
      </trkpt>
      <trkpt lat="45.95237" lon="3.69468">
        <ele>1008.3</ele>
        <time>2022-08-29T12:33:44Z</time>
      </trkpt>
      <trkpt lat="45.95238" lon="3.69468">
        <ele>1008.3</ele>
        <time>2022-08-29T12:33:45Z</time>
      </trkpt>
      <trkpt lat="45.95238" lon="3.69468">
        <ele>1008.4</ele>
        <time>2022-08-29T12:33:46Z</time>
      </trkpt>
      <trkpt lat="45.95239" lon="3.69468">
        <ele>1008.4</ele>
        <time>2022-08-29T12:33:47Z</time>
      </trkpt>
      <trkpt lat="45.95239" lon="3.69468">
        <ele>1008.4</ele>
        <time>2022-08-29T12:33:48Z</time>
      </trkpt>
      <trkpt lat="45.9524" lon="3.69468">
        <ele>1008.5</ele>
        <time>2022-08-29T12:33:49Z</time>
      </trkpt>
      <trkpt lat="45.95241" lon="3.69468">
        <ele>1008.5</ele>
        <time>2022-08-29T12:33:50Z</time>
      </trkpt>
      <trkpt lat="45.95242" lon="3.69467">
        <ele>1008.6</ele>
        <time>2022-08-29T12:33:51Z</time>
      </trkpt>
      <trkpt lat="45.95243" lon="3.69467">
        <ele>1008.6</ele>
        <time>2022-08-29T12:33:52Z</time>
      </trkpt>
      <trkpt lat="45.95244" lon="3.69467">
        <ele>1008.7</ele>
        <time>2022-08-29T12:33:53Z</time>
      </trkpt>
      <trkpt lat="45.95246" lon="3.69467">
        <ele>1008.8</ele>
        <time>2022-08-29T12:33:54Z</time>
      </trkpt>
      <trkpt lat="45.95248" lon="3.69467">
        <ele>1008.9</ele>
        <time>2022-08-29T12:33:55Z</time>
      </trkpt>
      <trkpt lat="45.9525" lon="3.69467">
        <ele>1009</ele>
        <time>2022-08-29T12:33:56Z</time>
      </trkpt>
      <trkpt lat="45.95252" lon="3.69468">
        <ele>1009.1</ele>
        <time>2022-08-29T12:33:57Z</time>
      </trkpt>
      <trkpt lat="45.95253" lon="3.69468">
        <ele>1009.1</ele>
        <time>2022-08-29T12:33:58Z</time>
      </trkpt>
      <trkpt lat="45.95254" lon="3.69468">
        <ele>1009.1</ele>
        <time>2022-08-29T12:33:59Z</time>
      </trkpt>
      <trkpt lat="45.95255" lon="3.69468">
        <ele>1009.2</ele>
        <time>2022-08-29T12:34:00Z</time>
      </trkpt>
      <trkpt lat="45.95256" lon="3.69469">
        <ele>1009.2</ele>
        <time>2022-08-29T12:34:01Z</time>
      </trkpt>
      <trkpt lat="45.95256" lon="3.69469">
        <ele>1009.3</ele>
        <time>2022-08-29T12:34:02Z</time>
      </trkpt>
      <trkpt lat="45.95257" lon="3.69469">
        <ele>1009.3</ele>
        <time>2022-08-29T12:34:03Z</time>
      </trkpt>
      <trkpt lat="45.95258" lon="3.6947">
        <ele>1009.3</ele>
        <time>2022-08-29T12:34:04Z</time>
      </trkpt>
      <trkpt lat="45.95258" lon="3.6947">
        <ele>1009.4</ele>
        <time>2022-08-29T12:34:05Z</time>
      </trkpt>
      <trkpt lat="45.95259" lon="3.69471">
        <ele>1009.4</ele>
        <time>2022-08-29T12:34:06Z</time>
      </trkpt>
      <trkpt lat="45.9526" lon="3.69471">
        <ele>1009.4</ele>
        <time>2022-08-29T12:34:07Z</time>
      </trkpt>
      <trkpt lat="45.9526" lon="3.69471">
        <ele>1009.5</ele>
        <time>2022-08-29T12:34:08Z</time>
      </trkpt>
      <trkpt lat="45.95263" lon="3.69471">
        <ele>1009.6</ele>
        <time>2022-08-29T12:34:09Z</time>
      </trkpt>
      <trkpt lat="45.95264" lon="3.69471">
        <ele>1009.6</ele>
        <time>2022-08-29T12:34:10Z</time>
      </trkpt>
      <trkpt lat="45.95266" lon="3.69471">
        <ele>1009.7</ele>
        <time>2022-08-29T12:34:11Z</time>
      </trkpt>
      <trkpt lat="45.95268" lon="3.69471">
        <ele>1009.8</ele>
        <time>2022-08-29T12:34:12Z</time>
      </trkpt>
      <trkpt lat="45.95269" lon="3.69471">
        <ele>1009.9</ele>
        <time>2022-08-29T12:34:13Z</time>
      </trkpt>
      <trkpt lat="45.9527" lon="3.69471">
        <ele>1009.9</ele>
        <time>2022-08-29T12:34:14Z</time>
      </trkpt>
      <trkpt lat="45.95271" lon="3.6947">
        <ele>1010</ele>
        <time>2022-08-29T12:34:15Z</time>
      </trkpt>
      <trkpt lat="45.95273" lon="3.6947">
        <ele>1010</ele>
        <time>2022-08-29T12:34:16Z</time>
      </trkpt>
      <trkpt lat="45.95273" lon="3.6947">
        <ele>1010.1</ele>
        <time>2022-08-29T12:34:17Z</time>
      </trkpt>
      <trkpt lat="45.95274" lon="3.69471">
        <ele>1010.1</ele>
        <time>2022-08-29T12:34:18Z</time>
      </trkpt>
      <trkpt lat="45.95275" lon="3.69471">
        <ele>1010.2</ele>
        <time>2022-08-29T12:34:19Z</time>
      </trkpt>
      <trkpt lat="45.95277" lon="3.69472">
        <ele>1010.3</ele>
        <time>2022-08-29T12:34:20Z</time>
      </trkpt>
      <trkpt lat="45.95278" lon="3.69472">
        <ele>1010.3</ele>
        <time>2022-08-29T12:34:21Z</time>
      </trkpt>
      <trkpt lat="45.95279" lon="3.69472">
        <ele>1010.3</ele>
        <time>2022-08-29T12:34:22Z</time>
      </trkpt>
      <trkpt lat="45.9528" lon="3.69473">
        <ele>1010.4</ele>
        <time>2022-08-29T12:34:23Z</time>
      </trkpt>
      <trkpt lat="45.95281" lon="3.69474">
        <ele>1010.4</ele>
        <time>2022-08-29T12:34:24Z</time>
      </trkpt>
      <trkpt lat="45.95282" lon="3.69474">
        <ele>1010.5</ele>
        <time>2022-08-29T12:34:25Z</time>
      </trkpt>
      <trkpt lat="45.95283" lon="3.69474">
        <ele>1010.5</ele>
        <time>2022-08-29T12:34:26Z</time>
      </trkpt>
      <trkpt lat="45.95283" lon="3.69475">
        <ele>1010.5</ele>
        <time>2022-08-29T12:34:27Z</time>
      </trkpt>
      <trkpt lat="45.95284" lon="3.69475">
        <ele>1010.6</ele>
        <time>2022-08-29T12:34:28Z</time>
      </trkpt>
      <trkpt lat="45.95284" lon="3.69475">
        <ele>1010.6</ele>
        <time>2022-08-29T12:34:29Z</time>
      </trkpt>
      <trkpt lat="45.95284" lon="3.69476">
        <ele>1010.6</ele>
        <time>2022-08-29T12:34:30Z</time>
      </trkpt>
      <trkpt lat="45.95285" lon="3.69476">
        <ele>1010.6</ele>
        <time>2022-08-29T12:34:31Z</time>
      </trkpt>
      <trkpt lat="45.95285" lon="3.69477">
        <ele>1010.6</ele>
        <time>2022-08-29T12:34:32Z</time>
      </trkpt>
      <trkpt lat="45.95285" lon="3.69477">
        <ele>1010.6</ele>
        <time>2022-08-29T12:34:33Z</time>
      </trkpt>
      <trkpt lat="45.95286" lon="3.69477">
        <ele>1010.7</ele>
        <time>2022-08-29T12:34:34Z</time>
      </trkpt>
      <trkpt lat="45.95286" lon="3.69477">
        <ele>1010.7</ele>
        <time>2022-08-29T12:34:35Z</time>
      </trkpt>
      <trkpt lat="45.95286" lon="3.69477">
        <ele>1010.7</ele>
        <time>2022-08-29T12:34:36Z</time>
      </trkpt>
      <trkpt lat="45.95287" lon="3.69476">
        <ele>1010.7</ele>
        <time>2022-08-29T12:34:37Z</time>
      </trkpt>
      <trkpt lat="45.95287" lon="3.69476">
        <ele>1010.7</ele>
        <time>2022-08-29T12:34:38Z</time>
      </trkpt>
      <trkpt lat="45.95288" lon="3.69475">
        <ele>1010.7</ele>
        <time>2022-08-29T12:34:39Z</time>
      </trkpt>
      <trkpt lat="45.95289" lon="3.69475">
        <ele>1010.8</ele>
        <time>2022-08-29T12:34:40Z</time>
      </trkpt>
      <trkpt lat="45.95291" lon="3.69475">
        <ele>1010.8</ele>
        <time>2022-08-29T12:34:41Z</time>
      </trkpt>
      <trkpt lat="45.95293" lon="3.69474">
        <ele>1010.8</ele>
        <time>2022-08-29T12:34:42Z</time>
      </trkpt>
      <trkpt lat="45.95294" lon="3.69473">
        <ele>1010.8</ele>
        <time>2022-08-29T12:34:43Z</time>
      </trkpt>
      <trkpt lat="45.95297" lon="3.69472">
        <ele>1010.9</ele>
        <time>2022-08-29T12:34:44Z</time>
      </trkpt>
      <trkpt lat="45.95298" lon="3.69472">
        <ele>1010.9</ele>
        <time>2022-08-29T12:34:45Z</time>
      </trkpt>
      <trkpt lat="45.95301" lon="3.69472">
        <ele>1010.9</ele>
        <time>2022-08-29T12:34:46Z</time>
      </trkpt>
      <trkpt lat="45.95302" lon="3.69472">
        <ele>1010.9</ele>
        <time>2022-08-29T12:34:47Z</time>
      </trkpt>
      <trkpt lat="45.95305" lon="3.69472">
        <ele>1010.9</ele>
        <time>2022-08-29T12:34:48Z</time>
      </trkpt>
      <trkpt lat="45.95306" lon="3.69472">
        <ele>1010.9</ele>
        <time>2022-08-29T12:34:49Z</time>
      </trkpt>
      <trkpt lat="45.95309" lon="3.69472">
        <ele>1010.9</ele>
        <time>2022-08-29T12:34:50Z</time>
      </trkpt>
      <trkpt lat="45.95311" lon="3.69472">
        <ele>1010.9</ele>
        <time>2022-08-29T12:34:51Z</time>
      </trkpt>
      <trkpt lat="45.95314" lon="3.69472">
        <ele>1010.9</ele>
        <time>2022-08-29T12:34:52Z</time>
      </trkpt>
      <trkpt lat="45.95316" lon="3.69472">
        <ele>1010.9</ele>
        <time>2022-08-29T12:34:53Z</time>
      </trkpt>
      <trkpt lat="45.95319" lon="3.69471">
        <ele>1011</ele>
        <time>2022-08-29T12:34:54Z</time>
      </trkpt>
      <trkpt lat="45.95321" lon="3.69471">
        <ele>1011</ele>
        <time>2022-08-29T12:34:55Z</time>
      </trkpt>
      <trkpt lat="45.95323" lon="3.6947">
        <ele>1011</ele>
        <time>2022-08-29T12:34:56Z</time>
      </trkpt>
      <trkpt lat="45.95324" lon="3.6947">
        <ele>1011</ele>
        <time>2022-08-29T12:34:57Z</time>
      </trkpt>
      <trkpt lat="45.95326" lon="3.69469">
        <ele>1011</ele>
        <time>2022-08-29T12:34:58Z</time>
      </trkpt>
      <trkpt lat="45.95327" lon="3.69468">
        <ele>1011</ele>
        <time>2022-08-29T12:34:59Z</time>
      </trkpt>
      <trkpt lat="45.95329" lon="3.69468">
        <ele>1011</ele>
        <time>2022-08-29T12:35:00Z</time>
      </trkpt>
      <trkpt lat="45.95331" lon="3.69468">
        <ele>1011.1</ele>
        <time>2022-08-29T12:35:01Z</time>
      </trkpt>
      <trkpt lat="45.95332" lon="3.69467">
        <ele>1011.1</ele>
        <time>2022-08-29T12:35:02Z</time>
      </trkpt>
      <trkpt lat="45.95334" lon="3.69467">
        <ele>1011.1</ele>
        <time>2022-08-29T12:35:03Z</time>
      </trkpt>
      <trkpt lat="45.95337" lon="3.69467">
        <ele>1011.1</ele>
        <time>2022-08-29T12:35:04Z</time>
      </trkpt>
      <trkpt lat="45.95338" lon="3.69466">
        <ele>1011.1</ele>
        <time>2022-08-29T12:35:05Z</time>
      </trkpt>
      <trkpt lat="45.95341" lon="3.69466">
        <ele>1011.1</ele>
        <time>2022-08-29T12:35:06Z</time>
      </trkpt>
      <trkpt lat="45.95342" lon="3.69466">
        <ele>1011.1</ele>
        <time>2022-08-29T12:35:07Z</time>
      </trkpt>
      <trkpt lat="45.95344" lon="3.69466">
        <ele>1011.1</ele>
        <time>2022-08-29T12:35:08Z</time>
      </trkpt>
      <trkpt lat="45.95345" lon="3.69466">
        <ele>1011.1</ele>
        <time>2022-08-29T12:35:09Z</time>
      </trkpt>
      <trkpt lat="45.95347" lon="3.69466">
        <ele>1011.1</ele>
        <time>2022-08-29T12:35:10Z</time>
      </trkpt>
      <trkpt lat="45.95348" lon="3.69466">
        <ele>1011.1</ele>
        <time>2022-08-29T12:35:11Z</time>
      </trkpt>
      <trkpt lat="45.95349" lon="3.69466">
        <ele>1011.1</ele>
        <time>2022-08-29T12:35:12Z</time>
      </trkpt>
      <trkpt lat="45.95351" lon="3.69465">
        <ele>1011.2</ele>
        <time>2022-08-29T12:35:13Z</time>
      </trkpt>
      <trkpt lat="45.95352" lon="3.69465">
        <ele>1011.2</ele>
        <time>2022-08-29T12:35:14Z</time>
      </trkpt>
      <trkpt lat="45.95353" lon="3.69465">
        <ele>1011.2</ele>
        <time>2022-08-29T12:35:15Z</time>
      </trkpt>
      <trkpt lat="45.95354" lon="3.69465">
        <ele>1011.2</ele>
        <time>2022-08-29T12:35:16Z</time>
      </trkpt>
      <trkpt lat="45.95355" lon="3.69465">
        <ele>1011.2</ele>
        <time>2022-08-29T12:35:17Z</time>
      </trkpt>
      <trkpt lat="45.95355" lon="3.69465">
        <ele>1011.3</ele>
        <time>2022-08-29T12:35:18Z</time>
      </trkpt>
      <trkpt lat="45.95356" lon="3.69466">
        <ele>1011.3</ele>
        <time>2022-08-29T12:35:19Z</time>
      </trkpt>
      <trkpt lat="45.95357" lon="3.69467">
        <ele>1011.3</ele>
        <time>2022-08-29T12:35:20Z</time>
      </trkpt>
      <trkpt lat="45.95359" lon="3.69467">
        <ele>1011.3</ele>
        <time>2022-08-29T12:35:21Z</time>
      </trkpt>
      <trkpt lat="45.9536" lon="3.69467">
        <ele>1011.4</ele>
        <time>2022-08-29T12:35:22Z</time>
      </trkpt>
      <trkpt lat="45.95361" lon="3.69466">
        <ele>1011.4</ele>
        <time>2022-08-29T12:35:23Z</time>
      </trkpt>
      <trkpt lat="45.95362" lon="3.69465">
        <ele>1011.4</ele>
        <time>2022-08-29T12:35:24Z</time>
      </trkpt>
      <trkpt lat="45.95363" lon="3.69464">
        <ele>1011.4</ele>
        <time>2022-08-29T12:35:25Z</time>
      </trkpt>
      <trkpt lat="45.95363" lon="3.69464">
        <ele>1011.5</ele>
        <time>2022-08-29T12:35:26Z</time>
      </trkpt>
      <trkpt lat="45.95364" lon="3.69463">
        <ele>1011.5</ele>
        <time>2022-08-29T12:35:27Z</time>
      </trkpt>
      <trkpt lat="45.95365" lon="3.69463">
        <ele>1011.5</ele>
        <time>2022-08-29T12:35:28Z</time>
      </trkpt>
      <trkpt lat="45.95366" lon="3.69463">
        <ele>1011.5</ele>
        <time>2022-08-29T12:35:29Z</time>
      </trkpt>
      <trkpt lat="45.95367" lon="3.69463">
        <ele>1011.5</ele>
        <time>2022-08-29T12:35:30Z</time>
      </trkpt>
      <trkpt lat="45.95369" lon="3.69462">
        <ele>1011.6</ele>
        <time>2022-08-29T12:35:31Z</time>
      </trkpt>
      <trkpt lat="45.9537" lon="3.69461">
        <ele>1011.6</ele>
        <time>2022-08-29T12:35:32Z</time>
      </trkpt>
      <trkpt lat="45.95371" lon="3.69461">
        <ele>1011.6</ele>
        <time>2022-08-29T12:35:33Z</time>
      </trkpt>
      <trkpt lat="45.95372" lon="3.6946">
        <ele>1011.6</ele>
        <time>2022-08-29T12:35:34Z</time>
      </trkpt>
      <trkpt lat="45.95373" lon="3.69459">
        <ele>1011.6</ele>
        <time>2022-08-29T12:35:35Z</time>
      </trkpt>
      <trkpt lat="45.95373" lon="3.69459">
        <ele>1011.7</ele>
        <time>2022-08-29T12:35:36Z</time>
      </trkpt>
      <trkpt lat="45.95374" lon="3.69459">
        <ele>1011.7</ele>
        <time>2022-08-29T12:35:37Z</time>
      </trkpt>
      <trkpt lat="45.95375" lon="3.69458">
        <ele>1011.7</ele>
        <time>2022-08-29T12:35:38Z</time>
      </trkpt>
      <trkpt lat="45.95376" lon="3.69458">
        <ele>1011.7</ele>
        <time>2022-08-29T12:35:39Z</time>
      </trkpt>
      <trkpt lat="45.95376" lon="3.69458">
        <ele>1011.7</ele>
        <time>2022-08-29T12:35:40Z</time>
      </trkpt>
      <trkpt lat="45.95377" lon="3.69458">
        <ele>1011.7</ele>
        <time>2022-08-29T12:35:41Z</time>
      </trkpt>
      <trkpt lat="45.95378" lon="3.69458">
        <ele>1011.7</ele>
        <time>2022-08-29T12:35:42Z</time>
      </trkpt>
      <trkpt lat="45.95378" lon="3.69458">
        <ele>1011.7</ele>
        <time>2022-08-29T12:35:43Z</time>
      </trkpt>
      <trkpt lat="45.95379" lon="3.69458">
        <ele>1011.7</ele>
        <time>2022-08-29T12:35:44Z</time>
      </trkpt>
      <trkpt lat="45.9538" lon="3.69458">
        <ele>1011.7</ele>
        <time>2022-08-29T12:35:45Z</time>
      </trkpt>
      <trkpt lat="45.95381" lon="3.69459">
        <ele>1011.7</ele>
        <time>2022-08-29T12:35:46Z</time>
      </trkpt>
      <trkpt lat="45.95382" lon="3.69459">
        <ele>1011.7</ele>
        <time>2022-08-29T12:35:47Z</time>
      </trkpt>
      <trkpt lat="45.95383" lon="3.69459">
        <ele>1011.8</ele>
        <time>2022-08-29T12:35:48Z</time>
      </trkpt>
      <trkpt lat="45.95384" lon="3.69459">
        <ele>1011.8</ele>
        <time>2022-08-29T12:35:49Z</time>
      </trkpt>
      <trkpt lat="45.95386" lon="3.69459">
        <ele>1011.8</ele>
        <time>2022-08-29T12:35:50Z</time>
      </trkpt>
      <trkpt lat="45.95387" lon="3.69459">
        <ele>1011.8</ele>
        <time>2022-08-29T12:35:51Z</time>
      </trkpt>
      <trkpt lat="45.95389" lon="3.6946">
        <ele>1011.8</ele>
        <time>2022-08-29T12:35:52Z</time>
      </trkpt>
      <trkpt lat="45.95389" lon="3.69459">
        <ele>1011.8</ele>
        <time>2022-08-29T12:35:53Z</time>
      </trkpt>
      <trkpt lat="45.9539" lon="3.69459">
        <ele>1011.8</ele>
        <time>2022-08-29T12:35:54Z</time>
      </trkpt>
      <trkpt lat="45.95392" lon="3.69459">
        <ele>1011.8</ele>
        <time>2022-08-29T12:35:55Z</time>
      </trkpt>
      <trkpt lat="45.95394" lon="3.69458">
        <ele>1011.8</ele>
        <time>2022-08-29T12:35:56Z</time>
      </trkpt>
      <trkpt lat="45.95396" lon="3.69457">
        <ele>1011.9</ele>
        <time>2022-08-29T12:35:57Z</time>
      </trkpt>
      <trkpt lat="45.95399" lon="3.69456">
        <ele>1011.9</ele>
        <time>2022-08-29T12:35:59Z</time>
      </trkpt>
      <trkpt lat="45.95401" lon="3.69455">
        <ele>1011.9</ele>
        <time>2022-08-29T12:36:00Z</time>
      </trkpt>
      <trkpt lat="45.95403" lon="3.69455">
        <ele>1011.9</ele>
        <time>2022-08-29T12:36:01Z</time>
      </trkpt>
      <trkpt lat="45.95404" lon="3.69454">
        <ele>1011.9</ele>
        <time>2022-08-29T12:36:02Z</time>
      </trkpt>
      <trkpt lat="45.95407" lon="3.69454">
        <ele>1011.9</ele>
        <time>2022-08-29T12:36:03Z</time>
      </trkpt>
      <trkpt lat="45.95407" lon="3.69454">
        <ele>1011.9</ele>
        <time>2022-08-29T12:36:04Z</time>
      </trkpt>
      <trkpt lat="45.95408" lon="3.69454">
        <ele>1011.9</ele>
        <time>2022-08-29T12:36:05Z</time>
      </trkpt>
      <trkpt lat="45.95409" lon="3.69454">
        <ele>1011.9</ele>
        <time>2022-08-29T12:36:06Z</time>
      </trkpt>
      <trkpt lat="45.9541" lon="3.69454">
        <ele>1011.9</ele>
        <time>2022-08-29T12:36:07Z</time>
      </trkpt>
      <trkpt lat="45.95411" lon="3.69454">
        <ele>1011.9</ele>
        <time>2022-08-29T12:36:08Z</time>
      </trkpt>
      <trkpt lat="45.95412" lon="3.69454">
        <ele>1011.9</ele>
        <time>2022-08-29T12:36:09Z</time>
      </trkpt>
      <trkpt lat="45.95413" lon="3.69454">
        <ele>1011.9</ele>
        <time>2022-08-29T12:36:10Z</time>
      </trkpt>
      <trkpt lat="45.95414" lon="3.69455">
        <ele>1011.9</ele>
        <time>2022-08-29T12:36:11Z</time>
      </trkpt>
      <trkpt lat="45.95415" lon="3.69456">
        <ele>1011.9</ele>
        <time>2022-08-29T12:36:12Z</time>
      </trkpt>
      <trkpt lat="45.95417" lon="3.69457">
        <ele>1011.9</ele>
        <time>2022-08-29T12:36:13Z</time>
      </trkpt>
      <trkpt lat="45.95419" lon="3.69458">
        <ele>1011.9</ele>
        <time>2022-08-29T12:36:14Z</time>
      </trkpt>
      <trkpt lat="45.9542" lon="3.69459">
        <ele>1011.9</ele>
        <time>2022-08-29T12:36:15Z</time>
      </trkpt>
      <trkpt lat="45.95422" lon="3.6946">
        <ele>1011.9</ele>
        <time>2022-08-29T12:36:16Z</time>
      </trkpt>
      <trkpt lat="45.95423" lon="3.6946">
        <ele>1011.9</ele>
        <time>2022-08-29T12:36:17Z</time>
      </trkpt>
      <trkpt lat="45.95425" lon="3.69461">
        <ele>1011.9</ele>
        <time>2022-08-29T12:36:18Z</time>
      </trkpt>
      <trkpt lat="45.95426" lon="3.69461">
        <ele>1011.9</ele>
        <time>2022-08-29T12:36:19Z</time>
      </trkpt>
      <trkpt lat="45.95427" lon="3.69461">
        <ele>1011.9</ele>
        <time>2022-08-29T12:36:20Z</time>
      </trkpt>
      <trkpt lat="45.95429" lon="3.69461">
        <ele>1011.9</ele>
        <time>2022-08-29T12:36:21Z</time>
      </trkpt>
      <trkpt lat="45.9543" lon="3.69461">
        <ele>1011.8</ele>
        <time>2022-08-29T12:36:22Z</time>
      </trkpt>
      <trkpt lat="45.95431" lon="3.6946">
        <ele>1011.8</ele>
        <time>2022-08-29T12:36:23Z</time>
      </trkpt>
      <trkpt lat="45.95433" lon="3.69461">
        <ele>1011.8</ele>
        <time>2022-08-29T12:36:24Z</time>
      </trkpt>
      <trkpt lat="45.95434" lon="3.69461">
        <ele>1011.8</ele>
        <time>2022-08-29T12:36:25Z</time>
      </trkpt>
      <trkpt lat="45.95435" lon="3.69461">
        <ele>1011.8</ele>
        <time>2022-08-29T12:36:26Z</time>
      </trkpt>
      <trkpt lat="45.95438" lon="3.69461">
        <ele>1011.8</ele>
        <time>2022-08-29T12:36:27Z</time>
      </trkpt>
      <trkpt lat="45.95439" lon="3.69461">
        <ele>1011.7</ele>
        <time>2022-08-29T12:36:28Z</time>
      </trkpt>
      <trkpt lat="45.95442" lon="3.69462">
        <ele>1011.7</ele>
        <time>2022-08-29T12:36:29Z</time>
      </trkpt>
      <trkpt lat="45.95443" lon="3.69462">
        <ele>1011.7</ele>
        <time>2022-08-29T12:36:30Z</time>
      </trkpt>
      <trkpt lat="45.95444" lon="3.69462">
        <ele>1011.6</ele>
        <time>2022-08-29T12:36:31Z</time>
      </trkpt>
      <trkpt lat="45.95445" lon="3.69462">
        <ele>1011.6</ele>
        <time>2022-08-29T12:36:32Z</time>
      </trkpt>
      <trkpt lat="45.95446" lon="3.69461">
        <ele>1011.6</ele>
        <time>2022-08-29T12:36:33Z</time>
      </trkpt>
      <trkpt lat="45.95448" lon="3.69461">
        <ele>1011.5</ele>
        <time>2022-08-29T12:36:34Z</time>
      </trkpt>
      <trkpt lat="45.95449" lon="3.69461">
        <ele>1011.5</ele>
        <time>2022-08-29T12:36:35Z</time>
      </trkpt>
      <trkpt lat="45.9545" lon="3.69461">
        <ele>1011.4</ele>
        <time>2022-08-29T12:36:36Z</time>
      </trkpt>
      <trkpt lat="45.95451" lon="3.69461">
        <ele>1011.4</ele>
        <time>2022-08-29T12:36:37Z</time>
      </trkpt>
      <trkpt lat="45.95452" lon="3.69461">
        <ele>1011.4</ele>
        <time>2022-08-29T12:36:38Z</time>
      </trkpt>
      <trkpt lat="45.95453" lon="3.69461">
        <ele>1011.3</ele>
        <time>2022-08-29T12:36:39Z</time>
      </trkpt>
      <trkpt lat="45.95454" lon="3.69461">
        <ele>1011.3</ele>
        <time>2022-08-29T12:36:40Z</time>
      </trkpt>
      <trkpt lat="45.95455" lon="3.6946">
        <ele>1011.3</ele>
        <time>2022-08-29T12:36:41Z</time>
      </trkpt>
      <trkpt lat="45.95456" lon="3.69459">
        <ele>1011.2</ele>
        <time>2022-08-29T12:36:42Z</time>
      </trkpt>
      <trkpt lat="45.95458" lon="3.69458">
        <ele>1011.2</ele>
        <time>2022-08-29T12:36:43Z</time>
      </trkpt>
      <trkpt lat="45.95459" lon="3.69457">
        <ele>1011.1</ele>
        <time>2022-08-29T12:36:44Z</time>
      </trkpt>
      <trkpt lat="45.95462" lon="3.69456">
        <ele>1011</ele>
        <time>2022-08-29T12:36:45Z</time>
      </trkpt>
      <trkpt lat="45.95463" lon="3.69455">
        <ele>1011</ele>
        <time>2022-08-29T12:36:46Z</time>
      </trkpt>
      <trkpt lat="45.95464" lon="3.69455">
        <ele>1011</ele>
        <time>2022-08-29T12:36:47Z</time>
      </trkpt>
      <trkpt lat="45.95466" lon="3.69454">
        <ele>1010.9</ele>
        <time>2022-08-29T12:36:48Z</time>
      </trkpt>
      <trkpt lat="45.95469" lon="3.69454">
        <ele>1010.9</ele>
        <time>2022-08-29T12:36:49Z</time>
      </trkpt>
      <trkpt lat="45.9547" lon="3.69454">
        <ele>1010.9</ele>
        <time>2022-08-29T12:36:50Z</time>
      </trkpt>
      <trkpt lat="45.95471" lon="3.69454">
        <ele>1010.8</ele>
        <time>2022-08-29T12:36:51Z</time>
      </trkpt>
      <trkpt lat="45.95472" lon="3.69454">
        <ele>1010.8</ele>
        <time>2022-08-29T12:36:52Z</time>
      </trkpt>
      <trkpt lat="45.95473" lon="3.69454">
        <ele>1010.8</ele>
        <time>2022-08-29T12:36:53Z</time>
      </trkpt>
      <trkpt lat="45.95473" lon="3.69454">
        <ele>1010.8</ele>
        <time>2022-08-29T12:36:54Z</time>
      </trkpt>
      <trkpt lat="45.95473" lon="3.69454">
        <ele>1010.8</ele>
        <time>2022-08-29T12:36:55Z</time>
      </trkpt>
      <trkpt lat="45.95473" lon="3.69454">
        <ele>1010.8</ele>
        <time>2022-08-29T12:36:56Z</time>
      </trkpt>
      <trkpt lat="45.95473" lon="3.69454">
        <ele>1010.8</ele>
        <time>2022-08-29T12:36:57Z</time>
      </trkpt>
      <trkpt lat="45.95473" lon="3.69453">
        <ele>1010.8</ele>
        <time>2022-08-29T12:36:58Z</time>
      </trkpt>
      <trkpt lat="45.95474" lon="3.69453">
        <ele>1010.8</ele>
        <time>2022-08-29T12:36:59Z</time>
      </trkpt>
      <trkpt lat="45.95475" lon="3.69452">
        <ele>1010.8</ele>
        <time>2022-08-29T12:37:00Z</time>
      </trkpt>
      <trkpt lat="45.95476" lon="3.69452">
        <ele>1010.8</ele>
        <time>2022-08-29T12:37:01Z</time>
      </trkpt>
      <trkpt lat="45.95477" lon="3.69451">
        <ele>1010.8</ele>
        <time>2022-08-29T12:37:02Z</time>
      </trkpt>
      <trkpt lat="45.95478" lon="3.69451">
        <ele>1010.7</ele>
        <time>2022-08-29T12:37:03Z</time>
      </trkpt>
      <trkpt lat="45.95479" lon="3.69451">
        <ele>1010.7</ele>
        <time>2022-08-29T12:37:04Z</time>
      </trkpt>
      <trkpt lat="45.9548" lon="3.69451">
        <ele>1010.7</ele>
        <time>2022-08-29T12:37:05Z</time>
      </trkpt>
      <trkpt lat="45.95481" lon="3.69451">
        <ele>1010.7</ele>
        <time>2022-08-29T12:37:07Z</time>
      </trkpt>
      <trkpt lat="45.95482" lon="3.69452">
        <ele>1010.7</ele>
        <time>2022-08-29T12:37:09Z</time>
      </trkpt>
      <trkpt lat="45.95483" lon="3.69452">
        <ele>1010.7</ele>
        <time>2022-08-29T12:37:10Z</time>
      </trkpt>
      <trkpt lat="45.95483" lon="3.69453">
        <ele>1010.6</ele>
        <time>2022-08-29T12:37:11Z</time>
      </trkpt>
      <trkpt lat="45.95484" lon="3.69453">
        <ele>1010.6</ele>
        <time>2022-08-29T12:37:12Z</time>
      </trkpt>
      <trkpt lat="45.95484" lon="3.69453">
        <ele>1010.6</ele>
        <time>2022-08-29T12:37:13Z</time>
      </trkpt>
      <trkpt lat="45.95485" lon="3.69453">
        <ele>1010.6</ele>
        <time>2022-08-29T12:37:14Z</time>
      </trkpt>
      <trkpt lat="45.95485" lon="3.69453">
        <ele>1010.6</ele>
        <time>2022-08-29T12:37:15Z</time>
      </trkpt>
      <trkpt lat="45.95486" lon="3.69453">
        <ele>1010.6</ele>
        <time>2022-08-29T12:37:16Z</time>
      </trkpt>
      <trkpt lat="45.95487" lon="3.69453">
        <ele>1010.6</ele>
        <time>2022-08-29T12:37:17Z</time>
      </trkpt>
      <trkpt lat="45.95488" lon="3.69453">
        <ele>1010.5</ele>
        <time>2022-08-29T12:37:18Z</time>
      </trkpt>
      <trkpt lat="45.95488" lon="3.69453">
        <ele>1010.5</ele>
        <time>2022-08-29T12:37:19Z</time>
      </trkpt>
      <trkpt lat="45.95489" lon="3.69453">
        <ele>1010.5</ele>
        <time>2022-08-29T12:37:20Z</time>
      </trkpt>
      <trkpt lat="45.95491" lon="3.69452">
        <ele>1010.5</ele>
        <time>2022-08-29T12:37:21Z</time>
      </trkpt>
      <trkpt lat="45.95492" lon="3.69452">
        <ele>1010.4</ele>
        <time>2022-08-29T12:37:22Z</time>
      </trkpt>
      <trkpt lat="45.95493" lon="3.6945">
        <ele>1010.3</ele>
        <time>2022-08-29T12:37:23Z</time>
      </trkpt>
      <trkpt lat="45.95494" lon="3.69448">
        <ele>1010.3</ele>
        <time>2022-08-29T12:37:24Z</time>
      </trkpt>
      <trkpt lat="45.95494" lon="3.69447">
        <ele>1010.3</ele>
        <time>2022-08-29T12:37:25Z</time>
      </trkpt>
      <trkpt lat="45.95495" lon="3.69443">
        <ele>1010.1</ele>
        <time>2022-08-29T12:37:26Z</time>
      </trkpt>
      <trkpt lat="45.95495" lon="3.69442">
        <ele>1010.1</ele>
        <time>2022-08-29T12:37:27Z</time>
      </trkpt>
      <trkpt lat="45.95496" lon="3.6944">
        <ele>1010</ele>
        <time>2022-08-29T12:37:28Z</time>
      </trkpt>
      <trkpt lat="45.95496" lon="3.69439">
        <ele>1009.9</ele>
        <time>2022-08-29T12:37:29Z</time>
      </trkpt>
      <trkpt lat="45.95497" lon="3.69439">
        <ele>1009.9</ele>
        <time>2022-08-29T12:37:30Z</time>
      </trkpt>
      <trkpt lat="45.95498" lon="3.69437">
        <ele>1009.8</ele>
        <time>2022-08-29T12:37:31Z</time>
      </trkpt>
      <trkpt lat="45.95499" lon="3.69437">
        <ele>1009.8</ele>
        <time>2022-08-29T12:37:32Z</time>
      </trkpt>
      <trkpt lat="45.95499" lon="3.69436">
        <ele>1009.7</ele>
        <time>2022-08-29T12:37:33Z</time>
      </trkpt>
      <trkpt lat="45.955" lon="3.69436">
        <ele>1009.7</ele>
        <time>2022-08-29T12:37:34Z</time>
      </trkpt>
      <trkpt lat="45.95501" lon="3.69435">
        <ele>1009.6</ele>
        <time>2022-08-29T12:37:35Z</time>
      </trkpt>
      <trkpt lat="45.95503" lon="3.69434">
        <ele>1009.5</ele>
        <time>2022-08-29T12:37:36Z</time>
      </trkpt>
      <trkpt lat="45.95504" lon="3.69433">
        <ele>1009.4</ele>
        <time>2022-08-29T12:37:37Z</time>
      </trkpt>
      <trkpt lat="45.95504" lon="3.69432">
        <ele>1009.3</ele>
        <time>2022-08-29T12:37:38Z</time>
      </trkpt>
      <trkpt lat="45.95505" lon="3.69431">
        <ele>1009.3</ele>
        <time>2022-08-29T12:37:39Z</time>
      </trkpt>
      <trkpt lat="45.95506" lon="3.69431">
        <ele>1009.2</ele>
        <time>2022-08-29T12:37:40Z</time>
      </trkpt>
      <trkpt lat="45.95506" lon="3.69431">
        <ele>1009.2</ele>
        <time>2022-08-29T12:37:41Z</time>
      </trkpt>
      <trkpt lat="45.95507" lon="3.69431">
        <ele>1009.2</ele>
        <time>2022-08-29T12:37:42Z</time>
      </trkpt>
      <trkpt lat="45.95507" lon="3.6943">
        <ele>1009.1</ele>
        <time>2022-08-29T12:37:43Z</time>
      </trkpt>
      <trkpt lat="45.95507" lon="3.69429">
        <ele>1009.1</ele>
        <time>2022-08-29T12:37:44Z</time>
      </trkpt>
      <trkpt lat="45.95508" lon="3.69428">
        <ele>1009</ele>
        <time>2022-08-29T12:37:45Z</time>
      </trkpt>
      <trkpt lat="45.95508" lon="3.69427">
        <ele>1009</ele>
        <time>2022-08-29T12:37:46Z</time>
      </trkpt>
      <trkpt lat="45.95509" lon="3.69426">
        <ele>1008.9</ele>
        <time>2022-08-29T12:37:47Z</time>
      </trkpt>
      <trkpt lat="45.95509" lon="3.69426">
        <ele>1008.9</ele>
        <time>2022-08-29T12:37:48Z</time>
      </trkpt>
      <trkpt lat="45.9551" lon="3.69426">
        <ele>1008.8</ele>
        <time>2022-08-29T12:37:49Z</time>
      </trkpt>
      <trkpt lat="45.95511" lon="3.69426">
        <ele>1008.8</ele>
        <time>2022-08-29T12:37:50Z</time>
      </trkpt>
      <trkpt lat="45.95511" lon="3.69426">
        <ele>1008.7</ele>
        <time>2022-08-29T12:37:51Z</time>
      </trkpt>
      <trkpt lat="45.95512" lon="3.69426">
        <ele>1008.7</ele>
        <time>2022-08-29T12:37:52Z</time>
      </trkpt>
      <trkpt lat="45.95513" lon="3.69427">
        <ele>1008.6</ele>
        <time>2022-08-29T12:37:53Z</time>
      </trkpt>
      <trkpt lat="45.95514" lon="3.69426">
        <ele>1008.5</ele>
        <time>2022-08-29T12:37:54Z</time>
      </trkpt>
      <trkpt lat="45.95516" lon="3.69426">
        <ele>1008.5</ele>
        <time>2022-08-29T12:37:55Z</time>
      </trkpt>
      <trkpt lat="45.95517" lon="3.69426">
        <ele>1008.4</ele>
        <time>2022-08-29T12:37:56Z</time>
      </trkpt>
      <trkpt lat="45.95518" lon="3.69426">
        <ele>1008.3</ele>
        <time>2022-08-29T12:37:57Z</time>
      </trkpt>
      <trkpt lat="45.95519" lon="3.69425">
        <ele>1008.2</ele>
        <time>2022-08-29T12:37:58Z</time>
      </trkpt>
      <trkpt lat="45.95521" lon="3.69426">
        <ele>1008.1</ele>
        <time>2022-08-29T12:37:59Z</time>
      </trkpt>
      <trkpt lat="45.95522" lon="3.69426">
        <ele>1008</ele>
        <time>2022-08-29T12:38:00Z</time>
      </trkpt>
      <trkpt lat="45.95523" lon="3.69427">
        <ele>1008</ele>
        <time>2022-08-29T12:38:01Z</time>
      </trkpt>
      <trkpt lat="45.95525" lon="3.69427">
        <ele>1007.8</ele>
        <time>2022-08-29T12:38:02Z</time>
      </trkpt>
      <trkpt lat="45.95526" lon="3.69427">
        <ele>1007.7</ele>
        <time>2022-08-29T12:38:03Z</time>
      </trkpt>
      <trkpt lat="45.95527" lon="3.69427">
        <ele>1007.7</ele>
        <time>2022-08-29T12:38:04Z</time>
      </trkpt>
      <trkpt lat="45.95528" lon="3.69427">
        <ele>1007.6</ele>
        <time>2022-08-29T12:38:05Z</time>
      </trkpt>
      <trkpt lat="45.95529" lon="3.69427">
        <ele>1007.5</ele>
        <time>2022-08-29T12:38:06Z</time>
      </trkpt>
      <trkpt lat="45.9553" lon="3.69427">
        <ele>1007.4</ele>
        <time>2022-08-29T12:38:07Z</time>
      </trkpt>
      <trkpt lat="45.95531" lon="3.69427">
        <ele>1007.4</ele>
        <time>2022-08-29T12:38:08Z</time>
      </trkpt>
      <trkpt lat="45.95531" lon="3.69427">
        <ele>1007.4</ele>
        <time>2022-08-29T12:38:09Z</time>
      </trkpt>
      <trkpt lat="45.95531" lon="3.69428">
        <ele>1007.3</ele>
        <time>2022-08-29T12:38:10Z</time>
      </trkpt>
      <trkpt lat="45.95531" lon="3.69429">
        <ele>1007.3</ele>
        <time>2022-08-29T12:38:11Z</time>
      </trkpt>
      <trkpt lat="45.95532" lon="3.69431">
        <ele>1007.2</ele>
        <time>2022-08-29T12:38:12Z</time>
      </trkpt>
      <trkpt lat="45.95533" lon="3.69433">
        <ele>1007.1</ele>
        <time>2022-08-29T12:38:13Z</time>
      </trkpt>
      <trkpt lat="45.95534" lon="3.69433">
        <ele>1007</ele>
        <time>2022-08-29T12:38:14Z</time>
      </trkpt>
      <trkpt lat="45.95534" lon="3.69433">
        <ele>1007</ele>
        <time>2022-08-29T12:38:15Z</time>
      </trkpt>
      <trkpt lat="45.95535" lon="3.69432">
        <ele>1006.9</ele>
        <time>2022-08-29T12:38:16Z</time>
      </trkpt>
      <trkpt lat="45.95535" lon="3.69432">
        <ele>1006.9</ele>
        <time>2022-08-29T12:38:17Z</time>
      </trkpt>
      <trkpt lat="45.95536" lon="3.69432">
        <ele>1006.8</ele>
        <time>2022-08-29T12:38:18Z</time>
      </trkpt>
      <trkpt lat="45.95536" lon="3.69431">
        <ele>1006.8</ele>
        <time>2022-08-29T12:38:19Z</time>
      </trkpt>
      <trkpt lat="45.95537" lon="3.69431">
        <ele>1006.8</ele>
        <time>2022-08-29T12:38:20Z</time>
      </trkpt>
      <trkpt lat="45.95537" lon="3.69431">
        <ele>1006.8</ele>
        <time>2022-08-29T12:38:21Z</time>
      </trkpt>
      <trkpt lat="45.95538" lon="3.69431">
        <ele>1006.7</ele>
        <time>2022-08-29T12:38:22Z</time>
      </trkpt>
      <trkpt lat="45.95539" lon="3.69431">
        <ele>1006.6</ele>
        <time>2022-08-29T12:38:23Z</time>
      </trkpt>
      <trkpt lat="45.95541" lon="3.69432">
        <ele>1006.5</ele>
        <time>2022-08-29T12:38:24Z</time>
      </trkpt>
      <trkpt lat="45.95543" lon="3.69432">
        <ele>1006.4</ele>
        <time>2022-08-29T12:38:25Z</time>
      </trkpt>
      <trkpt lat="45.95544" lon="3.69432">
        <ele>1006.3</ele>
        <time>2022-08-29T12:38:26Z</time>
      </trkpt>
      <trkpt lat="45.95545" lon="3.69432">
        <ele>1006.2</ele>
        <time>2022-08-29T12:38:27Z</time>
      </trkpt>
      <trkpt lat="45.95545" lon="3.69432">
        <ele>1006.2</ele>
        <time>2022-08-29T12:38:28Z</time>
      </trkpt>
      <trkpt lat="45.95546" lon="3.69433">
        <ele>1006.1</ele>
        <time>2022-08-29T12:38:29Z</time>
      </trkpt>
      <trkpt lat="45.95546" lon="3.69433">
        <ele>1006.1</ele>
        <time>2022-08-29T12:38:30Z</time>
      </trkpt>
      <trkpt lat="45.95547" lon="3.69433">
        <ele>1006</ele>
        <time>2022-08-29T12:38:31Z</time>
      </trkpt>
      <trkpt lat="45.95548" lon="3.69433">
        <ele>1006</ele>
        <time>2022-08-29T12:38:32Z</time>
      </trkpt>
      <trkpt lat="45.95548" lon="3.69433">
        <ele>1005.9</ele>
        <time>2022-08-29T12:38:33Z</time>
      </trkpt>
      <trkpt lat="45.95549" lon="3.69432">
        <ele>1005.9</ele>
        <time>2022-08-29T12:38:34Z</time>
      </trkpt>
      <trkpt lat="45.9555" lon="3.69432">
        <ele>1005.8</ele>
        <time>2022-08-29T12:38:35Z</time>
      </trkpt>
      <trkpt lat="45.95551" lon="3.69431">
        <ele>1005.7</ele>
        <time>2022-08-29T12:38:36Z</time>
      </trkpt>
      <trkpt lat="45.95551" lon="3.69431">
        <ele>1005.7</ele>
        <time>2022-08-29T12:38:37Z</time>
      </trkpt>
      <trkpt lat="45.95552" lon="3.69431">
        <ele>1005.6</ele>
        <time>2022-08-29T12:38:38Z</time>
      </trkpt>
      <trkpt lat="45.95553" lon="3.69431">
        <ele>1005.5</ele>
        <time>2022-08-29T12:38:39Z</time>
      </trkpt>
      <trkpt lat="45.95554" lon="3.69432">
        <ele>1005.5</ele>
        <time>2022-08-29T12:38:40Z</time>
      </trkpt>
      <trkpt lat="45.95555" lon="3.69432">
        <ele>1005.4</ele>
        <time>2022-08-29T12:38:41Z</time>
      </trkpt>
      <trkpt lat="45.95556" lon="3.69433">
        <ele>1005.3</ele>
        <time>2022-08-29T12:38:42Z</time>
      </trkpt>
      <trkpt lat="45.95558" lon="3.69433">
        <ele>1005.2</ele>
        <time>2022-08-29T12:38:43Z</time>
      </trkpt>
      <trkpt lat="45.95559" lon="3.69432">
        <ele>1005.1</ele>
        <time>2022-08-29T12:38:44Z</time>
      </trkpt>
      <trkpt lat="45.95561" lon="3.69432">
        <ele>1004.9</ele>
        <time>2022-08-29T12:38:45Z</time>
      </trkpt>
      <trkpt lat="45.95562" lon="3.69432">
        <ele>1004.8</ele>
        <time>2022-08-29T12:38:46Z</time>
      </trkpt>
      <trkpt lat="45.95563" lon="3.69433">
        <ele>1004.8</ele>
        <time>2022-08-29T12:38:47Z</time>
      </trkpt>
      <trkpt lat="45.95564" lon="3.69433">
        <ele>1004.7</ele>
        <time>2022-08-29T12:38:48Z</time>
      </trkpt>
      <trkpt lat="45.95564" lon="3.69433">
        <ele>1004.7</ele>
        <time>2022-08-29T12:38:49Z</time>
      </trkpt>
      <trkpt lat="45.95564" lon="3.69434">
        <ele>1004.7</ele>
        <time>2022-08-29T12:38:50Z</time>
      </trkpt>
      <trkpt lat="45.95564" lon="3.69435">
        <ele>1004.6</ele>
        <time>2022-08-29T12:38:51Z</time>
      </trkpt>
      <trkpt lat="45.95564" lon="3.69435">
        <ele>1004.6</ele>
        <time>2022-08-29T12:38:52Z</time>
      </trkpt>
      <trkpt lat="45.95564" lon="3.69435">
        <ele>1004.6</ele>
        <time>2022-08-29T12:38:53Z</time>
      </trkpt>
      <trkpt lat="45.95564" lon="3.69435">
        <ele>1004.5</ele>
        <time>2022-08-29T12:38:54Z</time>
      </trkpt>
      <trkpt lat="45.95565" lon="3.69435">
        <ele>1004.5</ele>
        <time>2022-08-29T12:38:55Z</time>
      </trkpt>
      <trkpt lat="45.95566" lon="3.69433">
        <ele>1004.3</ele>
        <time>2022-08-29T12:38:56Z</time>
      </trkpt>
      <trkpt lat="45.95567" lon="3.69431">
        <ele>1004.2</ele>
        <time>2022-08-29T12:38:57Z</time>
      </trkpt>
      <trkpt lat="45.95569" lon="3.69429">
        <ele>1004</ele>
        <time>2022-08-29T12:38:58Z</time>
      </trkpt>
      <trkpt lat="45.9557" lon="3.69428">
        <ele>1003.9</ele>
        <time>2022-08-29T12:38:59Z</time>
      </trkpt>
      <trkpt lat="45.95572" lon="3.69426">
        <ele>1003.8</ele>
        <time>2022-08-29T12:39:00Z</time>
      </trkpt>
      <trkpt lat="45.95573" lon="3.69425">
        <ele>1003.7</ele>
        <time>2022-08-29T12:39:01Z</time>
      </trkpt>
      <trkpt lat="45.95574" lon="3.69424">
        <ele>1003.6</ele>
        <time>2022-08-29T12:39:02Z</time>
      </trkpt>
      <trkpt lat="45.95575" lon="3.69424">
        <ele>1003.6</ele>
        <time>2022-08-29T12:39:03Z</time>
      </trkpt>
      <trkpt lat="45.95575" lon="3.69424">
        <ele>1003.5</ele>
        <time>2022-08-29T12:39:04Z</time>
      </trkpt>
      <trkpt lat="45.95576" lon="3.69423">
        <ele>1003.5</ele>
        <time>2022-08-29T12:39:05Z</time>
      </trkpt>
      <trkpt lat="45.95576" lon="3.69423">
        <ele>1003.5</ele>
        <time>2022-08-29T12:39:06Z</time>
      </trkpt>
      <trkpt lat="45.95576" lon="3.69422">
        <ele>1003.4</ele>
        <time>2022-08-29T12:39:07Z</time>
      </trkpt>
      <trkpt lat="45.95576" lon="3.69422">
        <ele>1003.4</ele>
        <time>2022-08-29T12:39:08Z</time>
      </trkpt>
      <trkpt lat="45.95576" lon="3.69421">
        <ele>1003.4</ele>
        <time>2022-08-29T12:39:09Z</time>
      </trkpt>
      <trkpt lat="45.95577" lon="3.69421">
        <ele>1003.3</ele>
        <time>2022-08-29T12:39:10Z</time>
      </trkpt>
      <trkpt lat="45.95577" lon="3.6942">
        <ele>1003.3</ele>
        <time>2022-08-29T12:39:11Z</time>
      </trkpt>
      <trkpt lat="45.95578" lon="3.6942">
        <ele>1003.3</ele>
        <time>2022-08-29T12:39:12Z</time>
      </trkpt>
      <trkpt lat="45.95578" lon="3.6942">
        <ele>1003.2</ele>
        <time>2022-08-29T12:39:13Z</time>
      </trkpt>
      <trkpt lat="45.95579" lon="3.6942">
        <ele>1003.2</ele>
        <time>2022-08-29T12:39:14Z</time>
      </trkpt>
      <trkpt lat="45.9558" lon="3.6942">
        <ele>1003.1</ele>
        <time>2022-08-29T12:39:15Z</time>
      </trkpt>
      <trkpt lat="45.9558" lon="3.6942">
        <ele>1003.1</ele>
        <time>2022-08-29T12:39:16Z</time>
      </trkpt>
      <trkpt lat="45.95581" lon="3.6942">
        <ele>1003</ele>
        <time>2022-08-29T12:39:17Z</time>
      </trkpt>
      <trkpt lat="45.95582" lon="3.6942">
        <ele>1003</ele>
        <time>2022-08-29T12:39:18Z</time>
      </trkpt>
      <trkpt lat="45.95582" lon="3.69419">
        <ele>1002.9</ele>
        <time>2022-08-29T12:39:19Z</time>
      </trkpt>
      <trkpt lat="45.95583" lon="3.69419">
        <ele>1002.8</ele>
        <time>2022-08-29T12:39:20Z</time>
      </trkpt>
      <trkpt lat="45.95584" lon="3.69418">
        <ele>1002.8</ele>
        <time>2022-08-29T12:39:21Z</time>
      </trkpt>
      <trkpt lat="45.95585" lon="3.69417">
        <ele>1002.7</ele>
        <time>2022-08-29T12:39:22Z</time>
      </trkpt>
      <trkpt lat="45.95586" lon="3.69417">
        <ele>1002.6</ele>
        <time>2022-08-29T12:39:23Z</time>
      </trkpt>
      <trkpt lat="45.95587" lon="3.69414">
        <ele>1002.4</ele>
        <time>2022-08-29T12:39:24Z</time>
      </trkpt>
      <trkpt lat="45.95587" lon="3.69413">
        <ele>1002.4</ele>
        <time>2022-08-29T12:39:25Z</time>
      </trkpt>
      <trkpt lat="45.95588" lon="3.69412">
        <ele>1002.3</ele>
        <time>2022-08-29T12:39:26Z</time>
      </trkpt>
      <trkpt lat="45.95588" lon="3.6941">
        <ele>1002.2</ele>
        <time>2022-08-29T12:39:27Z</time>
      </trkpt>
      <trkpt lat="45.95588" lon="3.69409">
        <ele>1002.1</ele>
        <time>2022-08-29T12:39:28Z</time>
      </trkpt>
      <trkpt lat="45.95588" lon="3.69407">
        <ele>1002</ele>
        <time>2022-08-29T12:39:29Z</time>
      </trkpt>
      <trkpt lat="45.95589" lon="3.69405">
        <ele>1001.9</ele>
        <time>2022-08-29T12:39:30Z</time>
      </trkpt>
      <trkpt lat="45.95589" lon="3.69404">
        <ele>1001.8</ele>
        <time>2022-08-29T12:39:31Z</time>
      </trkpt>
      <trkpt lat="45.95589" lon="3.69403">
        <ele>1001.7</ele>
        <time>2022-08-29T12:39:32Z</time>
      </trkpt>
      <trkpt lat="45.9559" lon="3.69403">
        <ele>1001.6</ele>
        <time>2022-08-29T12:39:33Z</time>
      </trkpt>
      <trkpt lat="45.95591" lon="3.69403">
        <ele>1001.5</ele>
        <time>2022-08-29T12:39:34Z</time>
      </trkpt>
      <trkpt lat="45.95592" lon="3.69403">
        <ele>1001.4</ele>
        <time>2022-08-29T12:39:35Z</time>
      </trkpt>
      <trkpt lat="45.95593" lon="3.69403">
        <ele>1001.3</ele>
        <time>2022-08-29T12:39:36Z</time>
      </trkpt>
      <trkpt lat="45.95594" lon="3.69403">
        <ele>1001.2</ele>
        <time>2022-08-29T12:39:37Z</time>
      </trkpt>
      <trkpt lat="45.95594" lon="3.69403">
        <ele>1001.2</ele>
        <time>2022-08-29T12:39:38Z</time>
      </trkpt>
      <trkpt lat="45.95595" lon="3.69403">
        <ele>1001.1</ele>
        <time>2022-08-29T12:39:39Z</time>
      </trkpt>
      <trkpt lat="45.95597" lon="3.69403">
        <ele>1000.9</ele>
        <time>2022-08-29T12:39:40Z</time>
      </trkpt>
      <trkpt lat="45.95597" lon="3.69403">
        <ele>1000.8</ele>
        <time>2022-08-29T12:39:41Z</time>
      </trkpt>
      <trkpt lat="45.95598" lon="3.69403">
        <ele>1000.7</ele>
        <time>2022-08-29T12:39:42Z</time>
      </trkpt>
      <trkpt lat="45.95599" lon="3.69403">
        <ele>1000.6</ele>
        <time>2022-08-29T12:39:43Z</time>
      </trkpt>
      <trkpt lat="45.956" lon="3.69403">
        <ele>1000.5</ele>
        <time>2022-08-29T12:39:44Z</time>
      </trkpt>
      <trkpt lat="45.95601" lon="3.69403">
        <ele>1000.4</ele>
        <time>2022-08-29T12:39:45Z</time>
      </trkpt>
      <trkpt lat="45.95602" lon="3.69404">
        <ele>1000.3</ele>
        <time>2022-08-29T12:39:46Z</time>
      </trkpt>
      <trkpt lat="45.95603" lon="3.69405">
        <ele>1000.2</ele>
        <time>2022-08-29T12:39:47Z</time>
      </trkpt>
      <trkpt lat="45.95604" lon="3.69405">
        <ele>1000.1</ele>
        <time>2022-08-29T12:39:48Z</time>
      </trkpt>
      <trkpt lat="45.95604" lon="3.69406">
        <ele>1000</ele>
        <time>2022-08-29T12:39:49Z</time>
      </trkpt>
      <trkpt lat="45.95605" lon="3.69407">
        <ele>999.9</ele>
        <time>2022-08-29T12:39:50Z</time>
      </trkpt>
      <trkpt lat="45.95606" lon="3.69408">
        <ele>999.8</ele>
        <time>2022-08-29T12:39:51Z</time>
      </trkpt>
      <trkpt lat="45.95606" lon="3.69409">
        <ele>999.7</ele>
        <time>2022-08-29T12:39:52Z</time>
      </trkpt>
      <trkpt lat="45.95606" lon="3.6941">
        <ele>999.6</ele>
        <time>2022-08-29T12:39:53Z</time>
      </trkpt>
      <trkpt lat="45.95607" lon="3.69411">
        <ele>999.5</ele>
        <time>2022-08-29T12:39:54Z</time>
      </trkpt>
      <trkpt lat="45.95608" lon="3.69412">
        <ele>999.4</ele>
        <time>2022-08-29T12:39:55Z</time>
      </trkpt>
      <trkpt lat="45.95609" lon="3.69413">
        <ele>999.3</ele>
        <time>2022-08-29T12:39:56Z</time>
      </trkpt>
      <trkpt lat="45.95609" lon="3.69413">
        <ele>999.2</ele>
        <time>2022-08-29T12:39:57Z</time>
      </trkpt>
      <trkpt lat="45.9561" lon="3.69412">
        <ele>999.2</ele>
        <time>2022-08-29T12:39:58Z</time>
      </trkpt>
      <trkpt lat="45.9561" lon="3.69412">
        <ele>999.2</ele>
        <time>2022-08-29T12:39:59Z</time>
      </trkpt>
      <trkpt lat="45.9561" lon="3.69412">
        <ele>999.1</ele>
        <time>2022-08-29T12:40:00Z</time>
      </trkpt>
      <trkpt lat="45.9561" lon="3.69412">
        <ele>999.1</ele>
        <time>2022-08-29T12:40:01Z</time>
      </trkpt>
      <trkpt lat="45.9561" lon="3.69412">
        <ele>999.1</ele>
        <time>2022-08-29T12:40:02Z</time>
      </trkpt>
      <trkpt lat="45.9561" lon="3.69413">
        <ele>999</ele>
        <time>2022-08-29T12:40:03Z</time>
      </trkpt>
      <trkpt lat="45.95611" lon="3.69413">
        <ele>999</ele>
        <time>2022-08-29T12:40:04Z</time>
      </trkpt>
      <trkpt lat="45.95611" lon="3.69414">
        <ele>998.9</ele>
        <time>2022-08-29T12:40:05Z</time>
      </trkpt>
      <trkpt lat="45.95612" lon="3.69415">
        <ele>998.8</ele>
        <time>2022-08-29T12:40:06Z</time>
      </trkpt>
      <trkpt lat="45.95613" lon="3.69416">
        <ele>998.7</ele>
        <time>2022-08-29T12:40:07Z</time>
      </trkpt>
      <trkpt lat="45.95613" lon="3.69416">
        <ele>998.6</ele>
        <time>2022-08-29T12:40:08Z</time>
      </trkpt>
      <trkpt lat="45.95613" lon="3.69417">
        <ele>998.6</ele>
        <time>2022-08-29T12:40:09Z</time>
      </trkpt>
      <trkpt lat="45.95614" lon="3.69417">
        <ele>998.5</ele>
        <time>2022-08-29T12:40:10Z</time>
      </trkpt>
      <trkpt lat="45.95614" lon="3.69417">
        <ele>998.5</ele>
        <time>2022-08-29T12:40:11Z</time>
      </trkpt>
      <trkpt lat="45.95614" lon="3.69418">
        <ele>998.5</ele>
        <time>2022-08-29T12:40:12Z</time>
      </trkpt>
      <trkpt lat="45.95613" lon="3.69418">
        <ele>998.5</ele>
        <time>2022-08-29T12:40:13Z</time>
      </trkpt>
      <trkpt lat="45.95613" lon="3.69418">
        <ele>998.5</ele>
        <time>2022-08-29T12:40:14Z</time>
      </trkpt>
      <trkpt lat="45.95613" lon="3.69418">
        <ele>998.5</ele>
        <time>2022-08-29T12:40:15Z</time>
      </trkpt>
      <trkpt lat="45.95613" lon="3.69418">
        <ele>998.4</ele>
        <time>2022-08-29T12:40:16Z</time>
      </trkpt>
      <trkpt lat="45.95614" lon="3.69418">
        <ele>998.4</ele>
        <time>2022-08-29T12:40:17Z</time>
      </trkpt>
      <trkpt lat="45.95614" lon="3.69417">
        <ele>998.4</ele>
        <time>2022-08-29T12:40:18Z</time>
      </trkpt>
      <trkpt lat="45.95614" lon="3.69417">
        <ele>998.4</ele>
        <time>2022-08-29T12:40:19Z</time>
      </trkpt>
      <trkpt lat="45.95614" lon="3.69417">
        <ele>998.3</ele>
        <time>2022-08-29T12:40:20Z</time>
      </trkpt>
      <trkpt lat="45.95614" lon="3.69417">
        <ele>998.3</ele>
        <time>2022-08-29T12:40:21Z</time>
      </trkpt>
      <trkpt lat="45.95614" lon="3.69417">
        <ele>998.3</ele>
        <time>2022-08-29T12:40:22Z</time>
      </trkpt>
      <trkpt lat="45.95614" lon="3.69416">
        <ele>998.3</ele>
        <time>2022-08-29T12:40:23Z</time>
      </trkpt>
      <trkpt lat="45.95614" lon="3.69416">
        <ele>998.3</ele>
        <time>2022-08-29T12:40:24Z</time>
      </trkpt>
      <trkpt lat="45.95614" lon="3.69416">
        <ele>998.3</ele>
        <time>2022-08-29T12:40:25Z</time>
      </trkpt>
      <trkpt lat="45.95614" lon="3.69416">
        <ele>998.3</ele>
        <time>2022-08-29T12:40:26Z</time>
      </trkpt>
      <trkpt lat="45.95614" lon="3.69416">
        <ele>998.3</ele>
        <time>2022-08-29T12:40:27Z</time>
      </trkpt>
      <trkpt lat="45.95614" lon="3.69416">
        <ele>998.3</ele>
        <time>2022-08-29T12:40:28Z</time>
      </trkpt>
      <trkpt lat="45.95614" lon="3.69416">
        <ele>998.3</ele>
        <time>2022-08-29T12:40:29Z</time>
      </trkpt>
      <trkpt lat="45.95615" lon="3.69416">
        <ele>998.2</ele>
        <time>2022-08-29T12:40:30Z</time>
      </trkpt>
      <trkpt lat="45.95616" lon="3.69415">
        <ele>998.1</ele>
        <time>2022-08-29T12:40:31Z</time>
      </trkpt>
      <trkpt lat="45.95616" lon="3.69415">
        <ele>998.1</ele>
        <time>2022-08-29T12:40:32Z</time>
      </trkpt>
      <trkpt lat="45.95617" lon="3.69415">
        <ele>998</ele>
        <time>2022-08-29T12:40:33Z</time>
      </trkpt>
      <trkpt lat="45.95618" lon="3.69414">
        <ele>997.9</ele>
        <time>2022-08-29T12:40:34Z</time>
      </trkpt>
      <trkpt lat="45.95619" lon="3.69414">
        <ele>997.7</ele>
        <time>2022-08-29T12:40:35Z</time>
      </trkpt>
      <trkpt lat="45.95621" lon="3.69414">
        <ele>997.6</ele>
        <time>2022-08-29T12:40:36Z</time>
      </trkpt>
      <trkpt lat="45.95623" lon="3.69414">
        <ele>997.4</ele>
        <time>2022-08-29T12:40:37Z</time>
      </trkpt>
      <trkpt lat="45.95624" lon="3.69413">
        <ele>997.3</ele>
        <time>2022-08-29T12:40:38Z</time>
      </trkpt>
      <trkpt lat="45.95626" lon="3.69413">
        <ele>997.2</ele>
        <time>2022-08-29T12:40:39Z</time>
      </trkpt>
      <trkpt lat="45.95628" lon="3.69412">
        <ele>997</ele>
        <time>2022-08-29T12:40:40Z</time>
      </trkpt>
      <trkpt lat="45.95629" lon="3.69411">
        <ele>996.9</ele>
        <time>2022-08-29T12:40:41Z</time>
      </trkpt>
      <trkpt lat="45.95631" lon="3.69411">
        <ele>996.8</ele>
        <time>2022-08-29T12:40:42Z</time>
      </trkpt>
      <trkpt lat="45.95632" lon="3.69411">
        <ele>996.7</ele>
        <time>2022-08-29T12:40:43Z</time>
      </trkpt>
      <trkpt lat="45.95634" lon="3.6941">
        <ele>996.4</ele>
        <time>2022-08-29T12:40:44Z</time>
      </trkpt>
      <trkpt lat="45.95638" lon="3.6941">
        <ele>996.3</ele>
        <time>2022-08-29T12:40:45Z</time>
      </trkpt>
      <trkpt lat="45.95639" lon="3.6941">
        <ele>996.3</ele>
        <time>2022-08-29T12:40:46Z</time>
      </trkpt>
      <trkpt lat="45.95642" lon="3.69409">
        <ele>996.2</ele>
        <time>2022-08-29T12:40:47Z</time>
      </trkpt>
      <trkpt lat="45.95645" lon="3.69409">
        <ele>996.2</ele>
        <time>2022-08-29T12:40:48Z</time>
      </trkpt>
      <trkpt lat="45.95649" lon="3.69408">
        <ele>996.2</ele>
        <time>2022-08-29T12:40:49Z</time>
      </trkpt>
      <trkpt lat="45.9565" lon="3.69408">
        <ele>996.2</ele>
        <time>2022-08-29T12:40:50Z</time>
      </trkpt>
      <trkpt lat="45.95653" lon="3.69407">
        <ele>996.3</ele>
        <time>2022-08-29T12:40:51Z</time>
      </trkpt>
      <trkpt lat="45.95654" lon="3.69407">
        <ele>996.3</ele>
        <time>2022-08-29T12:40:52Z</time>
      </trkpt>
      <trkpt lat="45.95655" lon="3.69406">
        <ele>996.3</ele>
        <time>2022-08-29T12:40:53Z</time>
      </trkpt>
      <trkpt lat="45.95657" lon="3.69406">
        <ele>996.4</ele>
        <time>2022-08-29T12:40:54Z</time>
      </trkpt>
      <trkpt lat="45.95659" lon="3.69406">
        <ele>996.5</ele>
        <time>2022-08-29T12:40:55Z</time>
      </trkpt>
      <trkpt lat="45.95661" lon="3.69407">
        <ele>996.6</ele>
        <time>2022-08-29T12:40:56Z</time>
      </trkpt>
      <trkpt lat="45.95664" lon="3.69408">
        <ele>996.7</ele>
        <time>2022-08-29T12:40:57Z</time>
      </trkpt>
      <trkpt lat="45.95665" lon="3.69408">
        <ele>996.8</ele>
        <time>2022-08-29T12:40:58Z</time>
      </trkpt>
      <trkpt lat="45.95668" lon="3.69408">
        <ele>997</ele>
        <time>2022-08-29T12:40:59Z</time>
      </trkpt>
      <trkpt lat="45.95669" lon="3.69408">
        <ele>997</ele>
        <time>2022-08-29T12:41:00Z</time>
      </trkpt>
      <trkpt lat="45.95671" lon="3.69408">
        <ele>997.1</ele>
        <time>2022-08-29T12:41:01Z</time>
      </trkpt>
      <trkpt lat="45.95672" lon="3.69408">
        <ele>997.2</ele>
        <time>2022-08-29T12:41:02Z</time>
      </trkpt>
      <trkpt lat="45.95674" lon="3.69408">
        <ele>997.3</ele>
        <time>2022-08-29T12:41:03Z</time>
      </trkpt>
      <trkpt lat="45.95675" lon="3.69409">
        <ele>997.3</ele>
        <time>2022-08-29T12:41:04Z</time>
      </trkpt>
      <trkpt lat="45.95676" lon="3.69409">
        <ele>997.3</ele>
        <time>2022-08-29T12:41:05Z</time>
      </trkpt>
      <trkpt lat="45.95678" lon="3.69411">
        <ele>997.4</ele>
        <time>2022-08-29T12:41:06Z</time>
      </trkpt>
      <trkpt lat="45.95679" lon="3.69412">
        <ele>997.4</ele>
        <time>2022-08-29T12:41:07Z</time>
      </trkpt>
      <trkpt lat="45.95682" lon="3.69415">
        <ele>997.4</ele>
        <time>2022-08-29T12:41:08Z</time>
      </trkpt>
      <trkpt lat="45.95683" lon="3.69415">
        <ele>997.4</ele>
        <time>2022-08-29T12:41:09Z</time>
      </trkpt>
      <trkpt lat="45.95684" lon="3.69417">
        <ele>997.4</ele>
        <time>2022-08-29T12:41:10Z</time>
      </trkpt>
      <trkpt lat="45.95685" lon="3.69418">
        <ele>997.4</ele>
        <time>2022-08-29T12:41:11Z</time>
      </trkpt>
      <trkpt lat="45.95686" lon="3.69418">
        <ele>997.4</ele>
        <time>2022-08-29T12:41:12Z</time>
      </trkpt>
      <trkpt lat="45.95687" lon="3.69418">
        <ele>997.4</ele>
        <time>2022-08-29T12:41:13Z</time>
      </trkpt>
      <trkpt lat="45.95687" lon="3.69419">
        <ele>997.4</ele>
        <time>2022-08-29T12:41:14Z</time>
      </trkpt>
      <trkpt lat="45.95688" lon="3.69419">
        <ele>997.4</ele>
        <time>2022-08-29T12:41:15Z</time>
      </trkpt>
      <trkpt lat="45.95688" lon="3.69419">
        <ele>997.4</ele>
        <time>2022-08-29T12:41:16Z</time>
      </trkpt>
      <trkpt lat="45.95689" lon="3.69419">
        <ele>997.4</ele>
        <time>2022-08-29T12:41:17Z</time>
      </trkpt>
      <trkpt lat="45.95689" lon="3.6942">
        <ele>997.4</ele>
        <time>2022-08-29T12:41:18Z</time>
      </trkpt>
      <trkpt lat="45.95692" lon="3.69422">
        <ele>997.3</ele>
        <time>2022-08-29T12:41:19Z</time>
      </trkpt>
      <trkpt lat="45.95693" lon="3.69422">
        <ele>997.2</ele>
        <time>2022-08-29T12:41:20Z</time>
      </trkpt>
      <trkpt lat="45.95697" lon="3.69423">
        <ele>997.1</ele>
        <time>2022-08-29T12:41:21Z</time>
      </trkpt>
      <trkpt lat="45.95698" lon="3.69423">
        <ele>997.1</ele>
        <time>2022-08-29T12:41:22Z</time>
      </trkpt>
      <trkpt lat="45.95699" lon="3.69422">
        <ele>997</ele>
        <time>2022-08-29T12:41:23Z</time>
      </trkpt>
      <trkpt lat="45.95701" lon="3.69422">
        <ele>997</ele>
        <time>2022-08-29T12:41:24Z</time>
      </trkpt>
      <trkpt lat="45.95702" lon="3.69421">
        <ele>996.9</ele>
        <time>2022-08-29T12:41:25Z</time>
      </trkpt>
      <trkpt lat="45.95702" lon="3.6942">
        <ele>996.9</ele>
        <time>2022-08-29T12:41:26Z</time>
      </trkpt>
      <trkpt lat="45.95703" lon="3.69419">
        <ele>996.9</ele>
        <time>2022-08-29T12:41:27Z</time>
      </trkpt>
      <trkpt lat="45.95703" lon="3.69419">
        <ele>996.8</ele>
        <time>2022-08-29T12:41:28Z</time>
      </trkpt>
      <trkpt lat="45.95705" lon="3.6942">
        <ele>996.7</ele>
        <time>2022-08-29T12:41:29Z</time>
      </trkpt>
      <trkpt lat="45.95706" lon="3.69421">
        <ele>996.7</ele>
        <time>2022-08-29T12:41:30Z</time>
      </trkpt>
      <trkpt lat="45.95707" lon="3.69422">
        <ele>996.6</ele>
        <time>2022-08-29T12:41:31Z</time>
      </trkpt>
      <trkpt lat="45.95708" lon="3.69424">
        <ele>996.5</ele>
        <time>2022-08-29T12:41:32Z</time>
      </trkpt>
      <trkpt lat="45.95709" lon="3.69426">
        <ele>996.5</ele>
        <time>2022-08-29T12:41:33Z</time>
      </trkpt>
      <trkpt lat="45.9571" lon="3.69427">
        <ele>996.4</ele>
        <time>2022-08-29T12:41:34Z</time>
      </trkpt>
      <trkpt lat="45.95711" lon="3.69429">
        <ele>996.3</ele>
        <time>2022-08-29T12:41:35Z</time>
      </trkpt>
      <trkpt lat="45.95712" lon="3.69431">
        <ele>996.2</ele>
        <time>2022-08-29T12:41:36Z</time>
      </trkpt>
      <trkpt lat="45.95713" lon="3.69432">
        <ele>996.2</ele>
        <time>2022-08-29T12:41:37Z</time>
      </trkpt>
      <trkpt lat="45.95714" lon="3.69432">
        <ele>996.1</ele>
        <time>2022-08-29T12:41:38Z</time>
      </trkpt>
      <trkpt lat="45.95715" lon="3.69433">
        <ele>996.1</ele>
        <time>2022-08-29T12:41:39Z</time>
      </trkpt>
      <trkpt lat="45.95715" lon="3.69433">
        <ele>996.1</ele>
        <time>2022-08-29T12:41:40Z</time>
      </trkpt>
      <trkpt lat="45.95716" lon="3.69434">
        <ele>996</ele>
        <time>2022-08-29T12:41:41Z</time>
      </trkpt>
      <trkpt lat="45.95718" lon="3.69435">
        <ele>995.9</ele>
        <time>2022-08-29T12:41:42Z</time>
      </trkpt>
      <trkpt lat="45.95719" lon="3.69435">
        <ele>995.9</ele>
        <time>2022-08-29T12:41:43Z</time>
      </trkpt>
      <trkpt lat="45.9572" lon="3.69435">
        <ele>995.9</ele>
        <time>2022-08-29T12:41:44Z</time>
      </trkpt>
      <trkpt lat="45.95721" lon="3.69435">
        <ele>995.8</ele>
        <time>2022-08-29T12:41:45Z</time>
      </trkpt>
      <trkpt lat="45.95723" lon="3.69435">
        <ele>995.8</ele>
        <time>2022-08-29T12:41:46Z</time>
      </trkpt>
      <trkpt lat="45.95724" lon="3.69435">
        <ele>995.7</ele>
        <time>2022-08-29T12:41:47Z</time>
      </trkpt>
      <trkpt lat="45.95726" lon="3.69435">
        <ele>995.6</ele>
        <time>2022-08-29T12:41:48Z</time>
      </trkpt>
      <trkpt lat="45.95728" lon="3.69435">
        <ele>995.5</ele>
        <time>2022-08-29T12:41:49Z</time>
      </trkpt>
      <trkpt lat="45.9573" lon="3.69435">
        <ele>995.5</ele>
        <time>2022-08-29T12:41:50Z</time>
      </trkpt>
      <trkpt lat="45.95733" lon="3.69434">
        <ele>995.3</ele>
        <time>2022-08-29T12:41:51Z</time>
      </trkpt>
      <trkpt lat="45.95734" lon="3.69434">
        <ele>995.3</ele>
        <time>2022-08-29T12:41:52Z</time>
      </trkpt>
      <trkpt lat="45.95738" lon="3.69434">
        <ele>995.2</ele>
        <time>2022-08-29T12:41:53Z</time>
      </trkpt>
      <trkpt lat="45.95738" lon="3.69434">
        <ele>995.1</ele>
        <time>2022-08-29T12:41:54Z</time>
      </trkpt>
      <trkpt lat="45.9574" lon="3.69433">
        <ele>995.1</ele>
        <time>2022-08-29T12:41:55Z</time>
      </trkpt>
      <trkpt lat="45.95742" lon="3.69433">
        <ele>995</ele>
        <time>2022-08-29T12:41:56Z</time>
      </trkpt>
      <trkpt lat="45.95743" lon="3.69432">
        <ele>995</ele>
        <time>2022-08-29T12:41:57Z</time>
      </trkpt>
      <trkpt lat="45.95744" lon="3.69432">
        <ele>994.9</ele>
        <time>2022-08-29T12:41:58Z</time>
      </trkpt>
      <trkpt lat="45.95744" lon="3.69432">
        <ele>994.9</ele>
        <time>2022-08-29T12:41:59Z</time>
      </trkpt>
      <trkpt lat="45.95745" lon="3.69432">
        <ele>994.9</ele>
        <time>2022-08-29T12:42:00Z</time>
      </trkpt>
      <trkpt lat="45.95746" lon="3.69432">
        <ele>994.9</ele>
        <time>2022-08-29T12:42:01Z</time>
      </trkpt>
      <trkpt lat="45.95746" lon="3.69433">
        <ele>994.8</ele>
        <time>2022-08-29T12:42:02Z</time>
      </trkpt>
      <trkpt lat="45.95748" lon="3.69433">
        <ele>994.8</ele>
        <time>2022-08-29T12:42:03Z</time>
      </trkpt>
      <trkpt lat="45.95749" lon="3.69433">
        <ele>994.7</ele>
        <time>2022-08-29T12:42:04Z</time>
      </trkpt>
      <trkpt lat="45.9575" lon="3.69433">
        <ele>994.7</ele>
        <time>2022-08-29T12:42:05Z</time>
      </trkpt>
      <trkpt lat="45.95751" lon="3.69433">
        <ele>994.6</ele>
        <time>2022-08-29T12:42:06Z</time>
      </trkpt>
      <trkpt lat="45.95753" lon="3.69433">
        <ele>994.5</ele>
        <time>2022-08-29T12:42:07Z</time>
      </trkpt>
      <trkpt lat="45.95754" lon="3.69432">
        <ele>994.5</ele>
        <time>2022-08-29T12:42:08Z</time>
      </trkpt>
      <trkpt lat="45.95755" lon="3.69432">
        <ele>994.4</ele>
        <time>2022-08-29T12:42:09Z</time>
      </trkpt>
      <trkpt lat="45.95757" lon="3.69432">
        <ele>994.4</ele>
        <time>2022-08-29T12:42:10Z</time>
      </trkpt>
      <trkpt lat="45.95758" lon="3.69431">
        <ele>994.3</ele>
        <time>2022-08-29T12:42:11Z</time>
      </trkpt>
      <trkpt lat="45.95759" lon="3.69431">
        <ele>994.3</ele>
        <time>2022-08-29T12:42:12Z</time>
      </trkpt>
      <trkpt lat="45.9576" lon="3.69431">
        <ele>994.2</ele>
        <time>2022-08-29T12:42:13Z</time>
      </trkpt>
      <trkpt lat="45.9576" lon="3.6943">
        <ele>994.2</ele>
        <time>2022-08-29T12:42:14Z</time>
      </trkpt>
      <trkpt lat="45.95761" lon="3.6943">
        <ele>994.2</ele>
        <time>2022-08-29T12:42:15Z</time>
      </trkpt>
      <trkpt lat="45.95762" lon="3.69429">
        <ele>994.1</ele>
        <time>2022-08-29T12:42:16Z</time>
      </trkpt>
      <trkpt lat="45.95764" lon="3.69428">
        <ele>994</ele>
        <time>2022-08-29T12:42:17Z</time>
      </trkpt>
      <trkpt lat="45.95765" lon="3.69426">
        <ele>994</ele>
        <time>2022-08-29T12:42:18Z</time>
      </trkpt>
      <trkpt lat="45.95767" lon="3.69425">
        <ele>993.9</ele>
        <time>2022-08-29T12:42:19Z</time>
      </trkpt>
      <trkpt lat="45.95769" lon="3.69425">
        <ele>993.8</ele>
        <time>2022-08-29T12:42:20Z</time>
      </trkpt>
      <trkpt lat="45.9577" lon="3.69425">
        <ele>993.8</ele>
        <time>2022-08-29T12:42:21Z</time>
      </trkpt>
      <trkpt lat="45.95774" lon="3.69424">
        <ele>993.6</ele>
        <time>2022-08-29T12:42:22Z</time>
      </trkpt>
      <trkpt lat="45.95776" lon="3.69424">
        <ele>993.6</ele>
        <time>2022-08-29T12:42:23Z</time>
      </trkpt>
      <trkpt lat="45.95779" lon="3.69423">
        <ele>993.4</ele>
        <time>2022-08-29T12:42:24Z</time>
      </trkpt>
      <trkpt lat="45.9578" lon="3.69423">
        <ele>993.4</ele>
        <time>2022-08-29T12:42:25Z</time>
      </trkpt>
      <trkpt lat="45.95782" lon="3.69423">
        <ele>993.3</ele>
        <time>2022-08-29T12:42:26Z</time>
      </trkpt>
      <trkpt lat="45.95783" lon="3.69422">
        <ele>993.3</ele>
        <time>2022-08-29T12:42:27Z</time>
      </trkpt>
      <trkpt lat="45.95783" lon="3.69422">
        <ele>993.2</ele>
        <time>2022-08-29T12:42:28Z</time>
      </trkpt>
      <trkpt lat="45.95784" lon="3.69421">
        <ele>993.2</ele>
        <time>2022-08-29T12:42:29Z</time>
      </trkpt>
      <trkpt lat="45.95785" lon="3.69421">
        <ele>993.2</ele>
        <time>2022-08-29T12:42:30Z</time>
      </trkpt>
      <trkpt lat="45.95785" lon="3.69421">
        <ele>993.2</ele>
        <time>2022-08-29T12:42:31Z</time>
      </trkpt>
      <trkpt lat="45.95786" lon="3.69422">
        <ele>993.1</ele>
        <time>2022-08-29T12:42:32Z</time>
      </trkpt>
      <trkpt lat="45.95787" lon="3.69423">
        <ele>993.1</ele>
        <time>2022-08-29T12:42:33Z</time>
      </trkpt>
      <trkpt lat="45.95788" lon="3.69424">
        <ele>993</ele>
        <time>2022-08-29T12:42:34Z</time>
      </trkpt>
      <trkpt lat="45.95789" lon="3.69424">
        <ele>993</ele>
        <time>2022-08-29T12:42:35Z</time>
      </trkpt>
      <trkpt lat="45.95791" lon="3.69423">
        <ele>992.9</ele>
        <time>2022-08-29T12:42:36Z</time>
      </trkpt>
      <trkpt lat="45.95792" lon="3.69423">
        <ele>992.9</ele>
        <time>2022-08-29T12:42:37Z</time>
      </trkpt>
      <trkpt lat="45.95793" lon="3.69422">
        <ele>992.8</ele>
        <time>2022-08-29T12:42:38Z</time>
      </trkpt>
      <trkpt lat="45.95794" lon="3.69421">
        <ele>992.8</ele>
        <time>2022-08-29T12:42:39Z</time>
      </trkpt>
      <trkpt lat="45.95795" lon="3.69421">
        <ele>992.7</ele>
        <time>2022-08-29T12:42:40Z</time>
      </trkpt>
      <trkpt lat="45.95797" lon="3.6942">
        <ele>992.7</ele>
        <time>2022-08-29T12:42:41Z</time>
      </trkpt>
      <trkpt lat="45.95798" lon="3.6942">
        <ele>992.6</ele>
        <time>2022-08-29T12:42:42Z</time>
      </trkpt>
      <trkpt lat="45.95798" lon="3.69419">
        <ele>992.6</ele>
        <time>2022-08-29T12:42:43Z</time>
      </trkpt>
      <trkpt lat="45.95799" lon="3.69419">
        <ele>992.6</ele>
        <time>2022-08-29T12:42:44Z</time>
      </trkpt>
      <trkpt lat="45.95799" lon="3.69419">
        <ele>992.6</ele>
        <time>2022-08-29T12:42:45Z</time>
      </trkpt>
      <trkpt lat="45.95801" lon="3.69418">
        <ele>992.5</ele>
        <time>2022-08-29T12:42:46Z</time>
      </trkpt>
      <trkpt lat="45.95802" lon="3.69417">
        <ele>992.5</ele>
        <time>2022-08-29T12:42:47Z</time>
      </trkpt>
      <trkpt lat="45.95804" lon="3.69416">
        <ele>992.4</ele>
        <time>2022-08-29T12:42:48Z</time>
      </trkpt>
      <trkpt lat="45.95807" lon="3.69416">
        <ele>992.3</ele>
        <time>2022-08-29T12:42:49Z</time>
      </trkpt>
      <trkpt lat="45.95808" lon="3.69416">
        <ele>992.3</ele>
        <time>2022-08-29T12:42:50Z</time>
      </trkpt>
      <trkpt lat="45.9581" lon="3.69416">
        <ele>992.2</ele>
        <time>2022-08-29T12:42:51Z</time>
      </trkpt>
      <trkpt lat="45.95812" lon="3.69416">
        <ele>992.1</ele>
        <time>2022-08-29T12:42:52Z</time>
      </trkpt>
      <trkpt lat="45.95813" lon="3.69416">
        <ele>992.1</ele>
        <time>2022-08-29T12:42:53Z</time>
      </trkpt>
      <trkpt lat="45.95813" lon="3.69416">
        <ele>992.1</ele>
        <time>2022-08-29T12:42:54Z</time>
      </trkpt>
      <trkpt lat="45.95814" lon="3.69416">
        <ele>992</ele>
        <time>2022-08-29T12:42:55Z</time>
      </trkpt>
      <trkpt lat="45.95814" lon="3.69416">
        <ele>992</ele>
        <time>2022-08-29T12:42:56Z</time>
      </trkpt>
      <trkpt lat="45.95815" lon="3.69417">
        <ele>992</ele>
        <time>2022-08-29T12:42:57Z</time>
      </trkpt>
      <trkpt lat="45.95816" lon="3.69417">
        <ele>991.9</ele>
        <time>2022-08-29T12:42:58Z</time>
      </trkpt>
      <trkpt lat="45.95818" lon="3.69418">
        <ele>991.9</ele>
        <time>2022-08-29T12:42:59Z</time>
      </trkpt>
      <trkpt lat="45.9582" lon="3.69418">
        <ele>991.7</ele>
        <time>2022-08-29T12:43:00Z</time>
      </trkpt>
      <trkpt lat="45.95821" lon="3.69418">
        <ele>991.7</ele>
        <time>2022-08-29T12:43:01Z</time>
      </trkpt>
      <trkpt lat="45.95822" lon="3.69417">
        <ele>991.6</ele>
        <time>2022-08-29T12:43:02Z</time>
      </trkpt>
      <trkpt lat="45.95823" lon="3.69417">
        <ele>991.6</ele>
        <time>2022-08-29T12:43:03Z</time>
      </trkpt>
      <trkpt lat="45.95824" lon="3.69416">
        <ele>991.5</ele>
        <time>2022-08-29T12:43:04Z</time>
      </trkpt>
      <trkpt lat="45.95826" lon="3.69415">
        <ele>991.4</ele>
        <time>2022-08-29T12:43:05Z</time>
      </trkpt>
      <trkpt lat="45.95827" lon="3.69414">
        <ele>991.3</ele>
        <time>2022-08-29T12:43:06Z</time>
      </trkpt>
      <trkpt lat="45.95828" lon="3.69414">
        <ele>991.3</ele>
        <time>2022-08-29T12:43:07Z</time>
      </trkpt>
      <trkpt lat="45.95829" lon="3.69413">
        <ele>991.2</ele>
        <time>2022-08-29T12:43:08Z</time>
      </trkpt>
      <trkpt lat="45.95831" lon="3.69412">
        <ele>991.1</ele>
        <time>2022-08-29T12:43:09Z</time>
      </trkpt>
      <trkpt lat="45.95832" lon="3.69411">
        <ele>991</ele>
        <time>2022-08-29T12:43:10Z</time>
      </trkpt>
      <trkpt lat="45.95833" lon="3.69411">
        <ele>991</ele>
        <time>2022-08-29T12:43:11Z</time>
      </trkpt>
      <trkpt lat="45.95835" lon="3.69411">
        <ele>990.9</ele>
        <time>2022-08-29T12:43:12Z</time>
      </trkpt>
      <trkpt lat="45.95835" lon="3.6941">
        <ele>990.9</ele>
        <time>2022-08-29T12:43:13Z</time>
      </trkpt>
      <trkpt lat="45.95836" lon="3.6941">
        <ele>990.8</ele>
        <time>2022-08-29T12:43:14Z</time>
      </trkpt>
      <trkpt lat="45.95837" lon="3.6941">
        <ele>990.8</ele>
        <time>2022-08-29T12:43:15Z</time>
      </trkpt>
      <trkpt lat="45.95838" lon="3.6941">
        <ele>990.8</ele>
        <time>2022-08-29T12:43:16Z</time>
      </trkpt>
      <trkpt lat="45.95838" lon="3.6941">
        <ele>990.7</ele>
        <time>2022-08-29T12:43:17Z</time>
      </trkpt>
      <trkpt lat="45.95839" lon="3.69409">
        <ele>990.7</ele>
        <time>2022-08-29T12:43:18Z</time>
      </trkpt>
      <trkpt lat="45.95841" lon="3.69409">
        <ele>990.6</ele>
        <time>2022-08-29T12:43:19Z</time>
      </trkpt>
      <trkpt lat="45.95842" lon="3.69408">
        <ele>990.6</ele>
        <time>2022-08-29T12:43:20Z</time>
      </trkpt>
      <trkpt lat="45.95843" lon="3.69407">
        <ele>990.5</ele>
        <time>2022-08-29T12:43:21Z</time>
      </trkpt>
      <trkpt lat="45.95843" lon="3.69407">
        <ele>990.5</ele>
        <time>2022-08-29T12:43:22Z</time>
      </trkpt>
      <trkpt lat="45.95844" lon="3.69407">
        <ele>990.4</ele>
        <time>2022-08-29T12:43:23Z</time>
      </trkpt>
      <trkpt lat="45.95845" lon="3.69406">
        <ele>990.4</ele>
        <time>2022-08-29T12:43:24Z</time>
      </trkpt>
      <trkpt lat="45.95846" lon="3.69406">
        <ele>990.3</ele>
        <time>2022-08-29T12:43:25Z</time>
      </trkpt>
      <trkpt lat="45.95848" lon="3.69406">
        <ele>990.2</ele>
        <time>2022-08-29T12:43:26Z</time>
      </trkpt>
      <trkpt lat="45.9585" lon="3.69406">
        <ele>990.1</ele>
        <time>2022-08-29T12:43:27Z</time>
      </trkpt>
      <trkpt lat="45.95851" lon="3.69405">
        <ele>990.1</ele>
        <time>2022-08-29T12:43:28Z</time>
      </trkpt>
      <trkpt lat="45.95853" lon="3.69405">
        <ele>990</ele>
        <time>2022-08-29T12:43:29Z</time>
      </trkpt>
      <trkpt lat="45.95854" lon="3.69405">
        <ele>989.9</ele>
        <time>2022-08-29T12:43:30Z</time>
      </trkpt>
      <trkpt lat="45.95856" lon="3.69405">
        <ele>989.8</ele>
        <time>2022-08-29T12:43:31Z</time>
      </trkpt>
      <trkpt lat="45.95857" lon="3.69406">
        <ele>989.8</ele>
        <time>2022-08-29T12:43:32Z</time>
      </trkpt>
      <trkpt lat="45.95857" lon="3.69406">
        <ele>989.8</ele>
        <time>2022-08-29T12:43:33Z</time>
      </trkpt>
      <trkpt lat="45.95857" lon="3.69407">
        <ele>989.7</ele>
        <time>2022-08-29T12:43:34Z</time>
      </trkpt>
      <trkpt lat="45.95858" lon="3.69407">
        <ele>989.7</ele>
        <time>2022-08-29T12:43:35Z</time>
      </trkpt>
      <trkpt lat="45.95859" lon="3.69408">
        <ele>989.7</ele>
        <time>2022-08-29T12:43:36Z</time>
      </trkpt>
      <trkpt lat="45.9586" lon="3.69408">
        <ele>989.6</ele>
        <time>2022-08-29T12:43:37Z</time>
      </trkpt>
      <trkpt lat="45.95862" lon="3.69407">
        <ele>989.5</ele>
        <time>2022-08-29T12:43:38Z</time>
      </trkpt>
      <trkpt lat="45.95862" lon="3.69407">
        <ele>989.5</ele>
        <time>2022-08-29T12:43:39Z</time>
      </trkpt>
      <trkpt lat="45.95863" lon="3.69406">
        <ele>989.4</ele>
        <time>2022-08-29T12:43:40Z</time>
      </trkpt>
      <trkpt lat="45.95864" lon="3.69405">
        <ele>989.3</ele>
        <time>2022-08-29T12:43:41Z</time>
      </trkpt>
      <trkpt lat="45.95866" lon="3.69404">
        <ele>989.2</ele>
        <time>2022-08-29T12:43:42Z</time>
      </trkpt>
      <trkpt lat="45.95869" lon="3.69403">
        <ele>989.1</ele>
        <time>2022-08-29T12:43:43Z</time>
      </trkpt>
      <trkpt lat="45.9587" lon="3.69402">
        <ele>989.1</ele>
        <time>2022-08-29T12:43:44Z</time>
      </trkpt>
      <trkpt lat="45.95873" lon="3.694">
        <ele>988.9</ele>
        <time>2022-08-29T12:43:45Z</time>
      </trkpt>
      <trkpt lat="45.95874" lon="3.69399">
        <ele>988.8</ele>
        <time>2022-08-29T12:43:46Z</time>
      </trkpt>
      <trkpt lat="45.95876" lon="3.69396">
        <ele>988.7</ele>
        <time>2022-08-29T12:43:47Z</time>
      </trkpt>
      <trkpt lat="45.95877" lon="3.69396">
        <ele>988.7</ele>
        <time>2022-08-29T12:43:48Z</time>
      </trkpt>
      <trkpt lat="45.95878" lon="3.69395">
        <ele>988.6</ele>
        <time>2022-08-29T12:43:49Z</time>
      </trkpt>
      <trkpt lat="45.95879" lon="3.69394">
        <ele>988.5</ele>
        <time>2022-08-29T12:43:50Z</time>
      </trkpt>
      <trkpt lat="45.95881" lon="3.69393">
        <ele>988.4</ele>
        <time>2022-08-29T12:43:51Z</time>
      </trkpt>
      <trkpt lat="45.95882" lon="3.69393">
        <ele>988.3</ele>
        <time>2022-08-29T12:43:52Z</time>
      </trkpt>
      <trkpt lat="45.95883" lon="3.69393">
        <ele>988.3</ele>
        <time>2022-08-29T12:43:53Z</time>
      </trkpt>
      <trkpt lat="45.95884" lon="3.69393">
        <ele>988.2</ele>
        <time>2022-08-29T12:43:54Z</time>
      </trkpt>
      <trkpt lat="45.95885" lon="3.69394">
        <ele>988.2</ele>
        <time>2022-08-29T12:43:55Z</time>
      </trkpt>
      <trkpt lat="45.95885" lon="3.69394">
        <ele>988.1</ele>
        <time>2022-08-29T12:43:56Z</time>
      </trkpt>
      <trkpt lat="45.95887" lon="3.69393">
        <ele>988.1</ele>
        <time>2022-08-29T12:43:57Z</time>
      </trkpt>
      <trkpt lat="45.95888" lon="3.69391">
        <ele>988</ele>
        <time>2022-08-29T12:43:58Z</time>
      </trkpt>
      <trkpt lat="45.95888" lon="3.69391">
        <ele>987.9</ele>
        <time>2022-08-29T12:43:59Z</time>
      </trkpt>
      <trkpt lat="45.95889" lon="3.6939">
        <ele>987.9</ele>
        <time>2022-08-29T12:44:00Z</time>
      </trkpt>
      <trkpt lat="45.95889" lon="3.6939">
        <ele>987.8</ele>
        <time>2022-08-29T12:44:01Z</time>
      </trkpt>
      <trkpt lat="45.95891" lon="3.69389">
        <ele>987.7</ele>
        <time>2022-08-29T12:44:02Z</time>
      </trkpt>
      <trkpt lat="45.95892" lon="3.69388">
        <ele>987.6</ele>
        <time>2022-08-29T12:44:03Z</time>
      </trkpt>
      <trkpt lat="45.95893" lon="3.69386">
        <ele>987.5</ele>
        <time>2022-08-29T12:44:04Z</time>
      </trkpt>
      <trkpt lat="45.95895" lon="3.69385">
        <ele>987.4</ele>
        <time>2022-08-29T12:44:05Z</time>
      </trkpt>
      <trkpt lat="45.95897" lon="3.69382">
        <ele>987.2</ele>
        <time>2022-08-29T12:44:06Z</time>
      </trkpt>
      <trkpt lat="45.95898" lon="3.69382">
        <ele>987.2</ele>
        <time>2022-08-29T12:44:07Z</time>
      </trkpt>
      <trkpt lat="45.95899" lon="3.6938">
        <ele>987</ele>
        <time>2022-08-29T12:44:08Z</time>
      </trkpt>
      <trkpt lat="45.959" lon="3.69378">
        <ele>986.9</ele>
        <time>2022-08-29T12:44:09Z</time>
      </trkpt>
      <trkpt lat="45.95901" lon="3.69377">
        <ele>986.9</ele>
        <time>2022-08-29T12:44:10Z</time>
      </trkpt>
      <trkpt lat="45.95901" lon="3.69375">
        <ele>986.8</ele>
        <time>2022-08-29T12:44:11Z</time>
      </trkpt>
      <trkpt lat="45.95902" lon="3.69374">
        <ele>986.7</ele>
        <time>2022-08-29T12:44:12Z</time>
      </trkpt>
      <trkpt lat="45.95903" lon="3.69373">
        <ele>986.6</ele>
        <time>2022-08-29T12:44:13Z</time>
      </trkpt>
      <trkpt lat="45.95903" lon="3.69372">
        <ele>986.5</ele>
        <time>2022-08-29T12:44:14Z</time>
      </trkpt>
      <trkpt lat="45.95905" lon="3.69371">
        <ele>986.4</ele>
        <time>2022-08-29T12:44:15Z</time>
      </trkpt>
      <trkpt lat="45.95905" lon="3.6937">
        <ele>986.4</ele>
        <time>2022-08-29T12:44:16Z</time>
      </trkpt>
      <trkpt lat="45.95906" lon="3.6937">
        <ele>986.3</ele>
        <time>2022-08-29T12:44:17Z</time>
      </trkpt>
      <trkpt lat="45.95907" lon="3.69369">
        <ele>986.3</ele>
        <time>2022-08-29T12:44:18Z</time>
      </trkpt>
      <trkpt lat="45.95908" lon="3.69369">
        <ele>986.2</ele>
        <time>2022-08-29T12:44:19Z</time>
      </trkpt>
      <trkpt lat="45.95909" lon="3.69368">
        <ele>986.1</ele>
        <time>2022-08-29T12:44:20Z</time>
      </trkpt>
      <trkpt lat="45.9591" lon="3.69368">
        <ele>986</ele>
        <time>2022-08-29T12:44:21Z</time>
      </trkpt>
      <trkpt lat="45.95911" lon="3.69366">
        <ele>985.9</ele>
        <time>2022-08-29T12:44:22Z</time>
      </trkpt>
      <trkpt lat="45.95912" lon="3.69365">
        <ele>985.8</ele>
        <time>2022-08-29T12:44:23Z</time>
      </trkpt>
      <trkpt lat="45.95913" lon="3.69364">
        <ele>985.8</ele>
        <time>2022-08-29T12:44:24Z</time>
      </trkpt>
      <trkpt lat="45.95914" lon="3.69363">
        <ele>985.7</ele>
        <time>2022-08-29T12:44:25Z</time>
      </trkpt>
      <trkpt lat="45.95915" lon="3.69361">
        <ele>985.5</ele>
        <time>2022-08-29T12:44:26Z</time>
      </trkpt>
      <trkpt lat="45.95917" lon="3.69359">
        <ele>985.4</ele>
        <time>2022-08-29T12:44:27Z</time>
      </trkpt>
      <trkpt lat="45.95917" lon="3.69358">
        <ele>985.3</ele>
        <time>2022-08-29T12:44:28Z</time>
      </trkpt>
      <trkpt lat="45.95918" lon="3.69358">
        <ele>985.2</ele>
        <time>2022-08-29T12:44:29Z</time>
      </trkpt>
      <trkpt lat="45.9592" lon="3.69357">
        <ele>985.1</ele>
        <time>2022-08-29T12:44:30Z</time>
      </trkpt>
      <trkpt lat="45.95921" lon="3.69357">
        <ele>985</ele>
        <time>2022-08-29T12:44:31Z</time>
      </trkpt>
      <trkpt lat="45.95922" lon="3.69356">
        <ele>984.9</ele>
        <time>2022-08-29T12:44:32Z</time>
      </trkpt>
      <trkpt lat="45.95923" lon="3.69356">
        <ele>984.9</ele>
        <time>2022-08-29T12:44:33Z</time>
      </trkpt>
      <trkpt lat="45.95923" lon="3.69355">
        <ele>984.8</ele>
        <time>2022-08-29T12:44:34Z</time>
      </trkpt>
      <trkpt lat="45.95923" lon="3.69354">
        <ele>984.8</ele>
        <time>2022-08-29T12:44:35Z</time>
      </trkpt>
      <trkpt lat="45.95924" lon="3.69353">
        <ele>984.7</ele>
        <time>2022-08-29T12:44:36Z</time>
      </trkpt>
      <trkpt lat="45.95925" lon="3.69352">
        <ele>984.6</ele>
        <time>2022-08-29T12:44:37Z</time>
      </trkpt>
      <trkpt lat="45.95926" lon="3.69352">
        <ele>984.6</ele>
        <time>2022-08-29T12:44:38Z</time>
      </trkpt>
      <trkpt lat="45.95926" lon="3.69351">
        <ele>984.5</ele>
        <time>2022-08-29T12:44:39Z</time>
      </trkpt>
      <trkpt lat="45.95927" lon="3.69351">
        <ele>984.5</ele>
        <time>2022-08-29T12:44:40Z</time>
      </trkpt>
      <trkpt lat="45.95928" lon="3.69351">
        <ele>984.4</ele>
        <time>2022-08-29T12:44:41Z</time>
      </trkpt>
      <trkpt lat="45.9593" lon="3.6935">
        <ele>984.3</ele>
        <time>2022-08-29T12:44:42Z</time>
      </trkpt>
      <trkpt lat="45.95931" lon="3.6935">
        <ele>984.2</ele>
        <time>2022-08-29T12:44:43Z</time>
      </trkpt>
      <trkpt lat="45.95932" lon="3.69349">
        <ele>984.1</ele>
        <time>2022-08-29T12:44:44Z</time>
      </trkpt>
      <trkpt lat="45.95934" lon="3.69348">
        <ele>983.9</ele>
        <time>2022-08-29T12:44:45Z</time>
      </trkpt>
      <trkpt lat="45.95935" lon="3.69347">
        <ele>983.9</ele>
        <time>2022-08-29T12:44:46Z</time>
      </trkpt>
      <trkpt lat="45.95935" lon="3.69346">
        <ele>983.8</ele>
        <time>2022-08-29T12:44:47Z</time>
      </trkpt>
      <trkpt lat="45.95937" lon="3.69344">
        <ele>983.7</ele>
        <time>2022-08-29T12:44:48Z</time>
      </trkpt>
      <trkpt lat="45.95938" lon="3.69344">
        <ele>983.6</ele>
        <time>2022-08-29T12:44:49Z</time>
      </trkpt>
      <trkpt lat="45.95938" lon="3.69343">
        <ele>983.6</ele>
        <time>2022-08-29T12:44:50Z</time>
      </trkpt>
      <trkpt lat="45.95939" lon="3.69343">
        <ele>983.5</ele>
        <time>2022-08-29T12:44:51Z</time>
      </trkpt>
      <trkpt lat="45.95941" lon="3.69343">
        <ele>983.4</ele>
        <time>2022-08-29T12:44:52Z</time>
      </trkpt>
      <trkpt lat="45.95942" lon="3.69343">
        <ele>983.4</ele>
        <time>2022-08-29T12:44:53Z</time>
      </trkpt>
      <trkpt lat="45.95943" lon="3.69341">
        <ele>983.3</ele>
        <time>2022-08-29T12:44:54Z</time>
      </trkpt>
      <trkpt lat="45.95943" lon="3.6934">
        <ele>983.2</ele>
        <time>2022-08-29T12:44:55Z</time>
      </trkpt>
      <trkpt lat="45.95944" lon="3.69339">
        <ele>983.2</ele>
        <time>2022-08-29T12:44:56Z</time>
      </trkpt>
      <trkpt lat="45.95944" lon="3.69338">
        <ele>983.1</ele>
        <time>2022-08-29T12:44:57Z</time>
      </trkpt>
      <trkpt lat="45.95945" lon="3.69336">
        <ele>983</ele>
        <time>2022-08-29T12:44:58Z</time>
      </trkpt>
      <trkpt lat="45.95946" lon="3.69334">
        <ele>982.9</ele>
        <time>2022-08-29T12:44:59Z</time>
      </trkpt>
      <trkpt lat="45.95947" lon="3.69333">
        <ele>982.8</ele>
        <time>2022-08-29T12:45:00Z</time>
      </trkpt>
      <trkpt lat="45.95948" lon="3.69331">
        <ele>982.7</ele>
        <time>2022-08-29T12:45:01Z</time>
      </trkpt>
      <trkpt lat="45.95949" lon="3.6933">
        <ele>982.7</ele>
        <time>2022-08-29T12:45:02Z</time>
      </trkpt>
      <trkpt lat="45.9595" lon="3.6933">
        <ele>982.6</ele>
        <time>2022-08-29T12:45:03Z</time>
      </trkpt>
      <trkpt lat="45.95951" lon="3.69329">
        <ele>982.6</ele>
        <time>2022-08-29T12:45:04Z</time>
      </trkpt>
      <trkpt lat="45.95951" lon="3.69329">
        <ele>982.5</ele>
        <time>2022-08-29T12:45:05Z</time>
      </trkpt>
      <trkpt lat="45.95952" lon="3.69328">
        <ele>982.5</ele>
        <time>2022-08-29T12:45:06Z</time>
      </trkpt>
      <trkpt lat="45.95953" lon="3.69327">
        <ele>982.4</ele>
        <time>2022-08-29T12:45:07Z</time>
      </trkpt>
      <trkpt lat="45.95955" lon="3.69326">
        <ele>982.3</ele>
        <time>2022-08-29T12:45:08Z</time>
      </trkpt>
      <trkpt lat="45.95956" lon="3.69325">
        <ele>982.3</ele>
        <time>2022-08-29T12:45:09Z</time>
      </trkpt>
      <trkpt lat="45.95956" lon="3.69324">
        <ele>982.2</ele>
        <time>2022-08-29T12:45:10Z</time>
      </trkpt>
      <trkpt lat="45.95958" lon="3.69323">
        <ele>982.1</ele>
        <time>2022-08-29T12:45:11Z</time>
      </trkpt>
      <trkpt lat="45.95959" lon="3.69322">
        <ele>982.1</ele>
        <time>2022-08-29T12:45:12Z</time>
      </trkpt>
      <trkpt lat="45.95959" lon="3.69322">
        <ele>982</ele>
        <time>2022-08-29T12:45:13Z</time>
      </trkpt>
      <trkpt lat="45.9596" lon="3.69321">
        <ele>982</ele>
        <time>2022-08-29T12:45:14Z</time>
      </trkpt>
      <trkpt lat="45.95961" lon="3.6932">
        <ele>981.9</ele>
        <time>2022-08-29T12:45:15Z</time>
      </trkpt>
      <trkpt lat="45.95961" lon="3.69319">
        <ele>981.9</ele>
        <time>2022-08-29T12:45:16Z</time>
      </trkpt>
      <trkpt lat="45.95962" lon="3.69318">
        <ele>981.9</ele>
        <time>2022-08-29T12:45:17Z</time>
      </trkpt>
      <trkpt lat="45.95963" lon="3.69318">
        <ele>981.8</ele>
        <time>2022-08-29T12:45:18Z</time>
      </trkpt>
      <trkpt lat="45.95964" lon="3.69317">
        <ele>981.8</ele>
        <time>2022-08-29T12:45:19Z</time>
      </trkpt>
      <trkpt lat="45.95965" lon="3.69316">
        <ele>981.7</ele>
        <time>2022-08-29T12:45:20Z</time>
      </trkpt>
      <trkpt lat="45.95966" lon="3.69314">
        <ele>981.7</ele>
        <time>2022-08-29T12:45:21Z</time>
      </trkpt>
      <trkpt lat="45.95967" lon="3.69313">
        <ele>981.6</ele>
        <time>2022-08-29T12:45:22Z</time>
      </trkpt>
      <trkpt lat="45.95969" lon="3.69312">
        <ele>981.5</ele>
        <time>2022-08-29T12:45:23Z</time>
      </trkpt>
      <trkpt lat="45.9597" lon="3.69311">
        <ele>981.5</ele>
        <time>2022-08-29T12:45:24Z</time>
      </trkpt>
      <trkpt lat="45.95971" lon="3.69311">
        <ele>981.4</ele>
        <time>2022-08-29T12:45:25Z</time>
      </trkpt>
      <trkpt lat="45.95973" lon="3.69311">
        <ele>981.3</ele>
        <time>2022-08-29T12:45:26Z</time>
      </trkpt>
      <trkpt lat="45.95975" lon="3.6931">
        <ele>981.3</ele>
        <time>2022-08-29T12:45:27Z</time>
      </trkpt>
      <trkpt lat="45.95976" lon="3.69309">
        <ele>981.2</ele>
        <time>2022-08-29T12:45:28Z</time>
      </trkpt>
      <trkpt lat="45.95978" lon="3.69308">
        <ele>981.1</ele>
        <time>2022-08-29T12:45:29Z</time>
      </trkpt>
      <trkpt lat="45.95979" lon="3.69307">
        <ele>981</ele>
        <time>2022-08-29T12:45:30Z</time>
      </trkpt>
      <trkpt lat="45.9598" lon="3.69305">
        <ele>981</ele>
        <time>2022-08-29T12:45:31Z</time>
      </trkpt>
      <trkpt lat="45.95981" lon="3.69304">
        <ele>980.9</ele>
        <time>2022-08-29T12:45:32Z</time>
      </trkpt>
      <trkpt lat="45.95983" lon="3.69303">
        <ele>980.8</ele>
        <time>2022-08-29T12:45:33Z</time>
      </trkpt>
      <trkpt lat="45.95984" lon="3.69303">
        <ele>980.8</ele>
        <time>2022-08-29T12:45:34Z</time>
      </trkpt>
      <trkpt lat="45.95986" lon="3.69302">
        <ele>980.7</ele>
        <time>2022-08-29T12:45:35Z</time>
      </trkpt>
      <trkpt lat="45.95987" lon="3.69301">
        <ele>980.6</ele>
        <time>2022-08-29T12:45:36Z</time>
      </trkpt>
      <trkpt lat="45.95988" lon="3.69301">
        <ele>980.6</ele>
        <time>2022-08-29T12:45:37Z</time>
      </trkpt>
      <trkpt lat="45.95989" lon="3.693">
        <ele>980.6</ele>
        <time>2022-08-29T12:45:38Z</time>
      </trkpt>
      <trkpt lat="45.95989" lon="3.69298">
        <ele>980.5</ele>
        <time>2022-08-29T12:45:39Z</time>
      </trkpt>
      <trkpt lat="45.9599" lon="3.69297">
        <ele>980.5</ele>
        <time>2022-08-29T12:45:40Z</time>
      </trkpt>
      <trkpt lat="45.95992" lon="3.69296">
        <ele>980.4</ele>
        <time>2022-08-29T12:45:41Z</time>
      </trkpt>
      <trkpt lat="45.95993" lon="3.69295">
        <ele>980.4</ele>
        <time>2022-08-29T12:45:42Z</time>
      </trkpt>
      <trkpt lat="45.95994" lon="3.69295">
        <ele>980.4</ele>
        <time>2022-08-29T12:45:43Z</time>
      </trkpt>
      <trkpt lat="45.95995" lon="3.69294">
        <ele>980.3</ele>
        <time>2022-08-29T12:45:44Z</time>
      </trkpt>
      <trkpt lat="45.95996" lon="3.69293">
        <ele>980.3</ele>
        <time>2022-08-29T12:45:45Z</time>
      </trkpt>
      <trkpt lat="45.95997" lon="3.69293">
        <ele>980.2</ele>
        <time>2022-08-29T12:45:46Z</time>
      </trkpt>
      <trkpt lat="45.95998" lon="3.69293">
        <ele>980.2</ele>
        <time>2022-08-29T12:45:47Z</time>
      </trkpt>
      <trkpt lat="45.96" lon="3.69293">
        <ele>980.2</ele>
        <time>2022-08-29T12:45:48Z</time>
      </trkpt>
      <trkpt lat="45.96001" lon="3.69293">
        <ele>980.1</ele>
        <time>2022-08-29T12:45:49Z</time>
      </trkpt>
      <trkpt lat="45.96003" lon="3.69293">
        <ele>980.1</ele>
        <time>2022-08-29T12:45:50Z</time>
      </trkpt>
      <trkpt lat="45.96004" lon="3.69293">
        <ele>980</ele>
        <time>2022-08-29T12:45:51Z</time>
      </trkpt>
      <trkpt lat="45.96005" lon="3.69294">
        <ele>980</ele>
        <time>2022-08-29T12:45:52Z</time>
      </trkpt>
      <trkpt lat="45.96005" lon="3.69294">
        <ele>980</ele>
        <time>2022-08-29T12:45:53Z</time>
      </trkpt>
      <trkpt lat="45.96006" lon="3.69294">
        <ele>980</ele>
        <time>2022-08-29T12:45:54Z</time>
      </trkpt>
      <trkpt lat="45.96007" lon="3.69294">
        <ele>979.9</ele>
        <time>2022-08-29T12:45:55Z</time>
      </trkpt>
      <trkpt lat="45.96008" lon="3.69295">
        <ele>979.9</ele>
        <time>2022-08-29T12:45:56Z</time>
      </trkpt>
      <trkpt lat="45.96009" lon="3.69295">
        <ele>979.9</ele>
        <time>2022-08-29T12:45:57Z</time>
      </trkpt>
      <trkpt lat="45.9601" lon="3.69295">
        <ele>979.8</ele>
        <time>2022-08-29T12:45:58Z</time>
      </trkpt>
      <trkpt lat="45.96011" lon="3.69295">
        <ele>979.8</ele>
        <time>2022-08-29T12:45:59Z</time>
      </trkpt>
      <trkpt lat="45.96012" lon="3.69295">
        <ele>979.8</ele>
        <time>2022-08-29T12:46:00Z</time>
      </trkpt>
      <trkpt lat="45.96013" lon="3.69295">
        <ele>979.7</ele>
        <time>2022-08-29T12:46:01Z</time>
      </trkpt>
      <trkpt lat="45.96014" lon="3.69294">
        <ele>979.7</ele>
        <time>2022-08-29T12:46:02Z</time>
      </trkpt>
      <trkpt lat="45.96016" lon="3.69295">
        <ele>979.7</ele>
        <time>2022-08-29T12:46:03Z</time>
      </trkpt>
      <trkpt lat="45.96016" lon="3.69295">
        <ele>979.7</ele>
        <time>2022-08-29T12:46:04Z</time>
      </trkpt>
      <trkpt lat="45.96017" lon="3.69295">
        <ele>979.6</ele>
        <time>2022-08-29T12:46:05Z</time>
      </trkpt>
      <trkpt lat="45.96018" lon="3.69296">
        <ele>979.6</ele>
        <time>2022-08-29T12:46:06Z</time>
      </trkpt>
      <trkpt lat="45.96019" lon="3.69296">
        <ele>979.6</ele>
        <time>2022-08-29T12:46:07Z</time>
      </trkpt>
      <trkpt lat="45.9602" lon="3.69296">
        <ele>979.6</ele>
        <time>2022-08-29T12:46:08Z</time>
      </trkpt>
      <trkpt lat="45.96021" lon="3.69296">
        <ele>979.5</ele>
        <time>2022-08-29T12:46:09Z</time>
      </trkpt>
      <trkpt lat="45.96022" lon="3.69296">
        <ele>979.5</ele>
        <time>2022-08-29T12:46:10Z</time>
      </trkpt>
      <trkpt lat="45.96023" lon="3.69296">
        <ele>979.5</ele>
        <time>2022-08-29T12:46:11Z</time>
      </trkpt>
      <trkpt lat="45.96024" lon="3.69297">
        <ele>979.5</ele>
        <time>2022-08-29T12:46:12Z</time>
      </trkpt>
      <trkpt lat="45.96026" lon="3.69296">
        <ele>979.4</ele>
        <time>2022-08-29T12:46:13Z</time>
      </trkpt>
      <trkpt lat="45.96027" lon="3.69296">
        <ele>979.4</ele>
        <time>2022-08-29T12:46:14Z</time>
      </trkpt>
      <trkpt lat="45.96028" lon="3.69296">
        <ele>979.4</ele>
        <time>2022-08-29T12:46:15Z</time>
      </trkpt>
      <trkpt lat="45.9603" lon="3.69295">
        <ele>979.3</ele>
        <time>2022-08-29T12:46:16Z</time>
      </trkpt>
      <trkpt lat="45.96032" lon="3.69295">
        <ele>979.3</ele>
        <time>2022-08-29T12:46:17Z</time>
      </trkpt>
      <trkpt lat="45.96034" lon="3.69294">
        <ele>979.2</ele>
        <time>2022-08-29T12:46:18Z</time>
      </trkpt>
      <trkpt lat="45.96035" lon="3.69293">
        <ele>979.2</ele>
        <time>2022-08-29T12:46:19Z</time>
      </trkpt>
      <trkpt lat="45.96037" lon="3.69293">
        <ele>979.2</ele>
        <time>2022-08-29T12:46:20Z</time>
      </trkpt>
      <trkpt lat="45.96038" lon="3.69293">
        <ele>979.1</ele>
        <time>2022-08-29T12:46:21Z</time>
      </trkpt>
      <trkpt lat="45.9604" lon="3.69293">
        <ele>979.1</ele>
        <time>2022-08-29T12:46:22Z</time>
      </trkpt>
      <trkpt lat="45.9604" lon="3.69293">
        <ele>979.1</ele>
        <time>2022-08-29T12:46:23Z</time>
      </trkpt>
      <trkpt lat="45.96041" lon="3.69292">
        <ele>979.1</ele>
        <time>2022-08-29T12:46:24Z</time>
      </trkpt>
      <trkpt lat="45.96042" lon="3.69292">
        <ele>979</ele>
        <time>2022-08-29T12:46:25Z</time>
      </trkpt>
      <trkpt lat="45.96044" lon="3.69292">
        <ele>979</ele>
        <time>2022-08-29T12:46:26Z</time>
      </trkpt>
      <trkpt lat="45.96045" lon="3.69292">
        <ele>979</ele>
        <time>2022-08-29T12:46:27Z</time>
      </trkpt>
      <trkpt lat="45.96045" lon="3.69293">
        <ele>979</ele>
        <time>2022-08-29T12:46:28Z</time>
      </trkpt>
      <trkpt lat="45.96049" lon="3.69293">
        <ele>978.9</ele>
        <time>2022-08-29T12:46:29Z</time>
      </trkpt>
      <trkpt lat="45.9605" lon="3.69292">
        <ele>978.8</ele>
        <time>2022-08-29T12:46:30Z</time>
      </trkpt>
      <trkpt lat="45.96053" lon="3.69293">
        <ele>978.7</ele>
        <time>2022-08-29T12:46:31Z</time>
      </trkpt>
      <trkpt lat="45.96054" lon="3.69293">
        <ele>978.7</ele>
        <time>2022-08-29T12:46:32Z</time>
      </trkpt>
      <trkpt lat="45.96056" lon="3.69295">
        <ele>978.7</ele>
        <time>2022-08-29T12:46:33Z</time>
      </trkpt>
      <trkpt lat="45.96056" lon="3.69296">
        <ele>978.6</ele>
        <time>2022-08-29T12:46:34Z</time>
      </trkpt>
      <trkpt lat="45.96057" lon="3.69296">
        <ele>978.6</ele>
        <time>2022-08-29T12:46:35Z</time>
      </trkpt>
      <trkpt lat="45.96058" lon="3.69298">
        <ele>978.5</ele>
        <time>2022-08-29T12:46:36Z</time>
      </trkpt>
      <trkpt lat="45.96058" lon="3.69299">
        <ele>978.5</ele>
        <time>2022-08-29T12:46:37Z</time>
      </trkpt>
      <trkpt lat="45.96059" lon="3.693">
        <ele>978.5</ele>
        <time>2022-08-29T12:46:38Z</time>
      </trkpt>
      <trkpt lat="45.9606" lon="3.69301">
        <ele>978.5</ele>
        <time>2022-08-29T12:46:39Z</time>
      </trkpt>
      <trkpt lat="45.96061" lon="3.69302">
        <ele>978.4</ele>
        <time>2022-08-29T12:46:40Z</time>
      </trkpt>
      <trkpt lat="45.96062" lon="3.69302">
        <ele>978.4</ele>
        <time>2022-08-29T12:46:41Z</time>
      </trkpt>
      <trkpt lat="45.96063" lon="3.69301">
        <ele>978.3</ele>
        <time>2022-08-29T12:46:42Z</time>
      </trkpt>
      <trkpt lat="45.96065" lon="3.69301">
        <ele>978.3</ele>
        <time>2022-08-29T12:46:43Z</time>
      </trkpt>
      <trkpt lat="45.96066" lon="3.693">
        <ele>978.2</ele>
        <time>2022-08-29T12:46:44Z</time>
      </trkpt>
      <trkpt lat="45.96068" lon="3.693">
        <ele>978.2</ele>
        <time>2022-08-29T12:46:45Z</time>
      </trkpt>
      <trkpt lat="45.96069" lon="3.693">
        <ele>978.1</ele>
        <time>2022-08-29T12:46:46Z</time>
      </trkpt>
      <trkpt lat="45.96071" lon="3.693">
        <ele>978</ele>
        <time>2022-08-29T12:46:47Z</time>
      </trkpt>
      <trkpt lat="45.96072" lon="3.69301">
        <ele>978</ele>
        <time>2022-08-29T12:46:48Z</time>
      </trkpt>
      <trkpt lat="45.96073" lon="3.69301">
        <ele>977.9</ele>
        <time>2022-08-29T12:46:49Z</time>
      </trkpt>
      <trkpt lat="45.96074" lon="3.69302">
        <ele>977.9</ele>
        <time>2022-08-29T12:46:50Z</time>
      </trkpt>
      <trkpt lat="45.96075" lon="3.69303">
        <ele>977.8</ele>
        <time>2022-08-29T12:46:51Z</time>
      </trkpt>
      <trkpt lat="45.96076" lon="3.69303">
        <ele>977.8</ele>
        <time>2022-08-29T12:46:52Z</time>
      </trkpt>
      <trkpt lat="45.96077" lon="3.69304">
        <ele>977.8</ele>
        <time>2022-08-29T12:46:53Z</time>
      </trkpt>
      <trkpt lat="45.96077" lon="3.69305">
        <ele>977.7</ele>
        <time>2022-08-29T12:46:54Z</time>
      </trkpt>
      <trkpt lat="45.96078" lon="3.69307">
        <ele>977.6</ele>
        <time>2022-08-29T12:46:55Z</time>
      </trkpt>
      <trkpt lat="45.96079" lon="3.69309">
        <ele>977.6</ele>
        <time>2022-08-29T12:46:56Z</time>
      </trkpt>
      <trkpt lat="45.9608" lon="3.6931">
        <ele>977.5</ele>
        <time>2022-08-29T12:46:57Z</time>
      </trkpt>
      <trkpt lat="45.96082" lon="3.69311">
        <ele>977.4</ele>
        <time>2022-08-29T12:46:58Z</time>
      </trkpt>
      <trkpt lat="45.96083" lon="3.69312">
        <ele>977.4</ele>
        <time>2022-08-29T12:46:59Z</time>
      </trkpt>
      <trkpt lat="45.96084" lon="3.69313">
        <ele>977.3</ele>
        <time>2022-08-29T12:47:00Z</time>
      </trkpt>
      <trkpt lat="45.96086" lon="3.69314">
        <ele>977.2</ele>
        <time>2022-08-29T12:47:01Z</time>
      </trkpt>
      <trkpt lat="45.96086" lon="3.69315">
        <ele>977.2</ele>
        <time>2022-08-29T12:47:02Z</time>
      </trkpt>
      <trkpt lat="45.96087" lon="3.69316">
        <ele>977.1</ele>
        <time>2022-08-29T12:47:03Z</time>
      </trkpt>
      <trkpt lat="45.96088" lon="3.69317">
        <ele>977.1</ele>
        <time>2022-08-29T12:47:04Z</time>
      </trkpt>
      <trkpt lat="45.96089" lon="3.69318">
        <ele>977.1</ele>
        <time>2022-08-29T12:47:05Z</time>
      </trkpt>
      <trkpt lat="45.9609" lon="3.69319">
        <ele>977</ele>
        <time>2022-08-29T12:47:06Z</time>
      </trkpt>
      <trkpt lat="45.9609" lon="3.69321">
        <ele>976.9</ele>
        <time>2022-08-29T12:47:07Z</time>
      </trkpt>
      <trkpt lat="45.96091" lon="3.69323">
        <ele>976.8</ele>
        <time>2022-08-29T12:47:08Z</time>
      </trkpt>
      <trkpt lat="45.96093" lon="3.69325">
        <ele>976.7</ele>
        <time>2022-08-29T12:47:09Z</time>
      </trkpt>
      <trkpt lat="45.96093" lon="3.69325">
        <ele>976.7</ele>
        <time>2022-08-29T12:47:10Z</time>
      </trkpt>
      <trkpt lat="45.96094" lon="3.69325">
        <ele>976.7</ele>
        <time>2022-08-29T12:47:11Z</time>
      </trkpt>
      <trkpt lat="45.96095" lon="3.69325">
        <ele>976.6</ele>
        <time>2022-08-29T12:47:12Z</time>
      </trkpt>
      <trkpt lat="45.96096" lon="3.69326">
        <ele>976.5</ele>
        <time>2022-08-29T12:47:13Z</time>
      </trkpt>
      <trkpt lat="45.96097" lon="3.69326">
        <ele>976.5</ele>
        <time>2022-08-29T12:47:14Z</time>
      </trkpt>
      <trkpt lat="45.96098" lon="3.69327">
        <ele>976.4</ele>
        <time>2022-08-29T12:47:15Z</time>
      </trkpt>
      <trkpt lat="45.96099" lon="3.69328">
        <ele>976.3</ele>
        <time>2022-08-29T12:47:16Z</time>
      </trkpt>
      <trkpt lat="45.961" lon="3.6933">
        <ele>976.3</ele>
        <time>2022-08-29T12:47:17Z</time>
      </trkpt>
      <trkpt lat="45.96101" lon="3.6933">
        <ele>976.2</ele>
        <time>2022-08-29T12:47:18Z</time>
      </trkpt>
      <trkpt lat="45.96102" lon="3.69331">
        <ele>976.2</ele>
        <time>2022-08-29T12:47:19Z</time>
      </trkpt>
      <trkpt lat="45.96103" lon="3.69331">
        <ele>976.1</ele>
        <time>2022-08-29T12:47:20Z</time>
      </trkpt>
      <trkpt lat="45.96105" lon="3.69333">
        <ele>976</ele>
        <time>2022-08-29T12:47:21Z</time>
      </trkpt>
      <trkpt lat="45.96106" lon="3.69333">
        <ele>976</ele>
        <time>2022-08-29T12:47:22Z</time>
      </trkpt>
      <trkpt lat="45.96107" lon="3.69334">
        <ele>975.9</ele>
        <time>2022-08-29T12:47:23Z</time>
      </trkpt>
      <trkpt lat="45.96109" lon="3.69335">
        <ele>975.8</ele>
        <time>2022-08-29T12:47:24Z</time>
      </trkpt>
      <trkpt lat="45.9611" lon="3.69336">
        <ele>975.7</ele>
        <time>2022-08-29T12:47:25Z</time>
      </trkpt>
      <trkpt lat="45.96112" lon="3.69336">
        <ele>975.6</ele>
        <time>2022-08-29T12:47:26Z</time>
      </trkpt>
      <trkpt lat="45.96113" lon="3.69337">
        <ele>975.6</ele>
        <time>2022-08-29T12:47:27Z</time>
      </trkpt>
      <trkpt lat="45.96114" lon="3.69337">
        <ele>975.5</ele>
        <time>2022-08-29T12:47:28Z</time>
      </trkpt>
      <trkpt lat="45.96114" lon="3.69337">
        <ele>975.5</ele>
        <time>2022-08-29T12:47:29Z</time>
      </trkpt>
      <trkpt lat="45.96114" lon="3.69337">
        <ele>975.5</ele>
        <time>2022-08-29T12:47:30Z</time>
      </trkpt>
      <trkpt lat="45.96114" lon="3.69337">
        <ele>975.5</ele>
        <time>2022-08-29T12:47:31Z</time>
      </trkpt>
      <trkpt lat="45.96114" lon="3.69338">
        <ele>975.5</ele>
        <time>2022-08-29T12:47:32Z</time>
      </trkpt>
      <trkpt lat="45.96115" lon="3.69338">
        <ele>975.5</ele>
        <time>2022-08-29T12:47:33Z</time>
      </trkpt>
      <trkpt lat="45.96115" lon="3.69339">
        <ele>975.4</ele>
        <time>2022-08-29T12:47:34Z</time>
      </trkpt>
      <trkpt lat="45.96116" lon="3.6934">
        <ele>975.4</ele>
        <time>2022-08-29T12:47:35Z</time>
      </trkpt>
      <trkpt lat="45.96117" lon="3.69341">
        <ele>975.3</ele>
        <time>2022-08-29T12:47:36Z</time>
      </trkpt>
      <trkpt lat="45.96118" lon="3.69342">
        <ele>975.2</ele>
        <time>2022-08-29T12:47:37Z</time>
      </trkpt>
      <trkpt lat="45.96119" lon="3.69343">
        <ele>975.2</ele>
        <time>2022-08-29T12:47:38Z</time>
      </trkpt>
      <trkpt lat="45.96121" lon="3.69345">
        <ele>975.1</ele>
        <time>2022-08-29T12:47:39Z</time>
      </trkpt>
      <trkpt lat="45.96122" lon="3.69346">
        <ele>975</ele>
        <time>2022-08-29T12:47:40Z</time>
      </trkpt>
      <trkpt lat="45.96122" lon="3.69346">
        <ele>975</ele>
        <time>2022-08-29T12:47:41Z</time>
      </trkpt>
      <trkpt lat="45.96124" lon="3.69347">
        <ele>974.9</ele>
        <time>2022-08-29T12:47:42Z</time>
      </trkpt>
      <trkpt lat="45.96125" lon="3.69347">
        <ele>974.8</ele>
        <time>2022-08-29T12:47:43Z</time>
      </trkpt>
      <trkpt lat="45.96126" lon="3.69347">
        <ele>974.8</ele>
        <time>2022-08-29T12:47:44Z</time>
      </trkpt>
      <trkpt lat="45.96126" lon="3.69347">
        <ele>974.7</ele>
        <time>2022-08-29T12:47:45Z</time>
      </trkpt>
      <trkpt lat="45.96127" lon="3.69347">
        <ele>974.7</ele>
        <time>2022-08-29T12:47:46Z</time>
      </trkpt>
      <trkpt lat="45.96128" lon="3.69348">
        <ele>974.7</ele>
        <time>2022-08-29T12:47:47Z</time>
      </trkpt>
      <trkpt lat="45.96128" lon="3.69349">
        <ele>974.6</ele>
        <time>2022-08-29T12:47:48Z</time>
      </trkpt>
      <trkpt lat="45.96129" lon="3.69351">
        <ele>974.6</ele>
        <time>2022-08-29T12:47:49Z</time>
      </trkpt>
      <trkpt lat="45.9613" lon="3.69353">
        <ele>974.5</ele>
        <time>2022-08-29T12:47:50Z</time>
      </trkpt>
      <trkpt lat="45.96131" lon="3.69354">
        <ele>974.4</ele>
        <time>2022-08-29T12:47:51Z</time>
      </trkpt>
      <trkpt lat="45.96132" lon="3.69356">
        <ele>974.3</ele>
        <time>2022-08-29T12:47:52Z</time>
      </trkpt>
      <trkpt lat="45.96134" lon="3.69359">
        <ele>974.2</ele>
        <time>2022-08-29T12:47:53Z</time>
      </trkpt>
      <trkpt lat="45.96134" lon="3.6936">
        <ele>974.1</ele>
        <time>2022-08-29T12:47:54Z</time>
      </trkpt>
      <trkpt lat="45.96137" lon="3.69363">
        <ele>974</ele>
        <time>2022-08-29T12:47:55Z</time>
      </trkpt>
      <trkpt lat="45.96138" lon="3.69364">
        <ele>973.9</ele>
        <time>2022-08-29T12:47:56Z</time>
      </trkpt>
      <trkpt lat="45.96141" lon="3.69365">
        <ele>973.8</ele>
        <time>2022-08-29T12:47:57Z</time>
      </trkpt>
      <trkpt lat="45.96142" lon="3.69365">
        <ele>973.7</ele>
        <time>2022-08-29T12:47:58Z</time>
      </trkpt>
      <trkpt lat="45.96145" lon="3.69366">
        <ele>973.6</ele>
        <time>2022-08-29T12:47:59Z</time>
      </trkpt>
      <trkpt lat="45.96146" lon="3.69366">
        <ele>973.6</ele>
        <time>2022-08-29T12:48:00Z</time>
      </trkpt>
      <trkpt lat="45.96148" lon="3.69366">
        <ele>973.5</ele>
        <time>2022-08-29T12:48:01Z</time>
      </trkpt>
      <trkpt lat="45.96149" lon="3.69365">
        <ele>973.5</ele>
        <time>2022-08-29T12:48:02Z</time>
      </trkpt>
      <trkpt lat="45.9615" lon="3.69366">
        <ele>973.4</ele>
        <time>2022-08-29T12:48:03Z</time>
      </trkpt>
      <trkpt lat="45.96151" lon="3.69366">
        <ele>973.4</ele>
        <time>2022-08-29T12:48:04Z</time>
      </trkpt>
      <trkpt lat="45.96152" lon="3.69367">
        <ele>973.4</ele>
        <time>2022-08-29T12:48:05Z</time>
      </trkpt>
      <trkpt lat="45.96154" lon="3.69369">
        <ele>973.3</ele>
        <time>2022-08-29T12:48:06Z</time>
      </trkpt>
      <trkpt lat="45.96155" lon="3.6937">
        <ele>973.3</ele>
        <time>2022-08-29T12:48:07Z</time>
      </trkpt>
      <trkpt lat="45.96155" lon="3.6937">
        <ele>973.3</ele>
        <time>2022-08-29T12:48:08Z</time>
      </trkpt>
      <trkpt lat="45.96156" lon="3.69371">
        <ele>973.2</ele>
        <time>2022-08-29T12:48:09Z</time>
      </trkpt>
      <trkpt lat="45.96157" lon="3.69372">
        <ele>973.2</ele>
        <time>2022-08-29T12:48:10Z</time>
      </trkpt>
      <trkpt lat="45.96158" lon="3.69374">
        <ele>973.2</ele>
        <time>2022-08-29T12:48:11Z</time>
      </trkpt>
      <trkpt lat="45.96159" lon="3.69376">
        <ele>973.2</ele>
        <time>2022-08-29T12:48:12Z</time>
      </trkpt>
      <trkpt lat="45.9616" lon="3.69377">
        <ele>973.1</ele>
        <time>2022-08-29T12:48:13Z</time>
      </trkpt>
      <trkpt lat="45.96161" lon="3.6938">
        <ele>973.1</ele>
        <time>2022-08-29T12:48:14Z</time>
      </trkpt>
      <trkpt lat="45.96162" lon="3.69381">
        <ele>973.1</ele>
        <time>2022-08-29T12:48:15Z</time>
      </trkpt>
      <trkpt lat="45.96162" lon="3.69382">
        <ele>973.1</ele>
        <time>2022-08-29T12:48:16Z</time>
      </trkpt>
      <trkpt lat="45.96163" lon="3.69383">
        <ele>973</ele>
        <time>2022-08-29T12:48:17Z</time>
      </trkpt>
      <trkpt lat="45.96164" lon="3.69385">
        <ele>973</ele>
        <time>2022-08-29T12:48:18Z</time>
      </trkpt>
      <trkpt lat="45.96166" lon="3.69385">
        <ele>973</ele>
        <time>2022-08-29T12:48:19Z</time>
      </trkpt>
      <trkpt lat="45.96167" lon="3.69386">
        <ele>972.9</ele>
        <time>2022-08-29T12:48:20Z</time>
      </trkpt>
      <trkpt lat="45.96169" lon="3.69387">
        <ele>972.9</ele>
        <time>2022-08-29T12:48:21Z</time>
      </trkpt>
      <trkpt lat="45.9617" lon="3.69388">
        <ele>972.9</ele>
        <time>2022-08-29T12:48:22Z</time>
      </trkpt>
      <trkpt lat="45.96171" lon="3.69388">
        <ele>972.9</ele>
        <time>2022-08-29T12:48:23Z</time>
      </trkpt>
      <trkpt lat="45.96172" lon="3.69389">
        <ele>972.8</ele>
        <time>2022-08-29T12:48:24Z</time>
      </trkpt>
      <trkpt lat="45.96173" lon="3.69391">
        <ele>972.8</ele>
        <time>2022-08-29T12:48:25Z</time>
      </trkpt>
      <trkpt lat="45.96175" lon="3.69392">
        <ele>972.7</ele>
        <time>2022-08-29T12:48:26Z</time>
      </trkpt>
      <trkpt lat="45.96176" lon="3.69392">
        <ele>972.7</ele>
        <time>2022-08-29T12:48:27Z</time>
      </trkpt>
      <trkpt lat="45.96177" lon="3.69392">
        <ele>972.7</ele>
        <time>2022-08-29T12:48:28Z</time>
      </trkpt>
      <trkpt lat="45.96178" lon="3.69392">
        <ele>972.7</ele>
        <time>2022-08-29T12:48:29Z</time>
      </trkpt>
      <trkpt lat="45.96179" lon="3.69392">
        <ele>972.7</ele>
        <time>2022-08-29T12:48:30Z</time>
      </trkpt>
      <trkpt lat="45.9618" lon="3.69393">
        <ele>972.6</ele>
        <time>2022-08-29T12:48:31Z</time>
      </trkpt>
      <trkpt lat="45.96181" lon="3.69393">
        <ele>972.6</ele>
        <time>2022-08-29T12:48:32Z</time>
      </trkpt>
      <trkpt lat="45.96182" lon="3.69394">
        <ele>972.6</ele>
        <time>2022-08-29T12:48:33Z</time>
      </trkpt>
      <trkpt lat="45.96183" lon="3.69395">
        <ele>972.6</ele>
        <time>2022-08-29T12:48:34Z</time>
      </trkpt>
      <trkpt lat="45.96185" lon="3.69395">
        <ele>972.5</ele>
        <time>2022-08-29T12:48:35Z</time>
      </trkpt>
      <trkpt lat="45.96186" lon="3.69395">
        <ele>972.5</ele>
        <time>2022-08-29T12:48:36Z</time>
      </trkpt>
      <trkpt lat="45.96187" lon="3.69395">
        <ele>972.5</ele>
        <time>2022-08-29T12:48:37Z</time>
      </trkpt>
      <trkpt lat="45.96188" lon="3.69395">
        <ele>972.5</ele>
        <time>2022-08-29T12:48:38Z</time>
      </trkpt>
      <trkpt lat="45.9619" lon="3.69396">
        <ele>972.4</ele>
        <time>2022-08-29T12:48:39Z</time>
      </trkpt>
      <trkpt lat="45.96193" lon="3.69397">
        <ele>972.4</ele>
        <time>2022-08-29T12:48:40Z</time>
      </trkpt>
      <trkpt lat="45.96194" lon="3.69397">
        <ele>972.4</ele>
        <time>2022-08-29T12:48:41Z</time>
      </trkpt>
      <trkpt lat="45.96196" lon="3.69398">
        <ele>972.3</ele>
        <time>2022-08-29T12:48:42Z</time>
      </trkpt>
      <trkpt lat="45.96197" lon="3.69399">
        <ele>972.3</ele>
        <time>2022-08-29T12:48:43Z</time>
      </trkpt>
      <trkpt lat="45.96198" lon="3.694">
        <ele>972.3</ele>
        <time>2022-08-29T12:48:44Z</time>
      </trkpt>
      <trkpt lat="45.96198" lon="3.69401">
        <ele>972.2</ele>
        <time>2022-08-29T12:48:45Z</time>
      </trkpt>
      <trkpt lat="45.96198" lon="3.69402">
        <ele>972.2</ele>
        <time>2022-08-29T12:48:46Z</time>
      </trkpt>
      <trkpt lat="45.96198" lon="3.69404">
        <ele>972.1</ele>
        <time>2022-08-29T12:48:47Z</time>
      </trkpt>
    </trkseg>
  </trk>
</gpx>